<?xml version="1.0" encoding="UTF-8"?>
<gpx version="1.1" creator="https://www.youtrack.es" xsi:schemaLocation="http://www.topografix.com/GPX/1/1 http://www.topografix.com/GPX/1/1/gpx.xsd http://www.garmin.com/xmlschemas/GpxExtensions/v3 http://www.garmin.com/xmlschemas/GpxExtensionsv3.xsd http://www.garmin.com/xmlschemas/TrackPointExtension/v1 http://www.garmin.com/xmlschemas/TrackPointExtensionv1.xsd" xmlns:gpxtpx="http://www.garmin.com/xmlschemas/TrackPointExtension/v1" xmlns:gpxx="http://www.garmin.com/xmlschemas/GpxExtensions/v3" xmlns:xsi="http://www.w3.org/2001/XMLSchema-instance">
  <metadata>
    <link href="https://www.youtrack.es">
      <text>YouTrack.es</text>
    </link>
    <time>2026-05-08T18:56:50Z</time>
  </metadata>
  <trk>
    <src>https://www.youtrack.es</src>
    <link href="https://www.youtrack.es/ruta/8383-2019-09-11-abadin--villalba">
      <text>YouTrack.es</text>
    </link>
    <trkseg>
      <trkpt lat="43.364143371582" lon="-7.4754066467285">
        <ele>449</ele>
        <time>2019-09-11T06:02:25+00:00</time>
      </trkpt>
      <trkpt lat="43.364139556885" lon="-7.4754152297974">
        <ele>449</ele>
        <time>2019-09-11T06:02:26+00:00</time>
      </trkpt>
      <trkpt lat="43.364147186279" lon="-7.4754519462585">
        <ele>473</ele>
        <time>2019-09-11T06:02:43+00:00</time>
      </trkpt>
      <trkpt lat="43.364151000977" lon="-7.4754800796509">
        <ele>473</ele>
        <time>2019-09-11T06:02:44+00:00</time>
      </trkpt>
      <trkpt lat="43.364177703857" lon="-7.4755845069885">
        <ele>476</ele>
        <time>2019-09-11T06:02:48+00:00</time>
      </trkpt>
      <trkpt lat="43.364253997803" lon="-7.4757561683655">
        <ele>483</ele>
        <time>2019-09-11T06:02:56+00:00</time>
      </trkpt>
      <trkpt lat="43.364265441895" lon="-7.4757709503174">
        <ele>483</ele>
        <time>2019-09-11T06:02:57+00:00</time>
      </trkpt>
      <trkpt lat="43.364276885986" lon="-7.4757843017578">
        <ele>488</ele>
        <time>2019-09-11T06:03:10+00:00</time>
      </trkpt>
      <trkpt lat="43.364288330078" lon="-7.4757957458496">
        <ele>488</ele>
        <time>2019-09-11T06:03:11+00:00</time>
      </trkpt>
      <trkpt lat="43.36429977417" lon="-7.4758067131042">
        <ele>489</ele>
        <time>2019-09-11T06:03:13+00:00</time>
      </trkpt>
      <trkpt lat="43.364345550537" lon="-7.4758567810059">
        <ele>491</ele>
        <time>2019-09-11T06:03:25+00:00</time>
      </trkpt>
      <trkpt lat="43.364379882812" lon="-7.4758925437927">
        <ele>491</ele>
        <time>2019-09-11T06:03:26+00:00</time>
      </trkpt>
      <trkpt lat="43.364463806152" lon="-7.4759759902954">
        <ele>492</ele>
        <time>2019-09-11T06:03:28+00:00</time>
      </trkpt>
      <trkpt lat="43.364604949951" lon="-7.4761209487915">
        <ele>494</ele>
        <time>2019-09-11T06:03:30+00:00</time>
      </trkpt>
      <trkpt lat="43.364707946777" lon="-7.4762253761292">
        <ele>497</ele>
        <time>2019-09-11T06:03:41+00:00</time>
      </trkpt>
      <trkpt lat="43.364765167236" lon="-7.4762678146362">
        <ele>503</ele>
        <time>2019-09-11T06:04:11+00:00</time>
      </trkpt>
      <trkpt lat="43.364803314209" lon="-7.4762949943542">
        <ele>503</ele>
        <time>2019-09-11T06:04:12+00:00</time>
      </trkpt>
      <trkpt lat="43.364864349365" lon="-7.4763402938843">
        <ele>503</ele>
        <time>2019-09-11T06:04:14+00:00</time>
      </trkpt>
      <trkpt lat="43.364974975586" lon="-7.4764432907104">
        <ele>513</ele>
        <time>2019-09-11T06:04:20+00:00</time>
      </trkpt>
      <trkpt lat="43.364929199219" lon="-7.4764266014099">
        <ele>515</ele>
        <time>2019-09-11T06:04:41+00:00</time>
      </trkpt>
      <trkpt lat="43.364807128906" lon="-7.4763917922974">
        <ele>514</ele>
        <time>2019-09-11T06:04:42+00:00</time>
      </trkpt>
      <trkpt lat="43.364627838135" lon="-7.4763298034668">
        <ele>514</ele>
        <time>2019-09-11T06:04:47+00:00</time>
      </trkpt>
      <trkpt lat="43.36446762085" lon="-7.4762110710144">
        <ele>514</ele>
        <time>2019-09-11T06:05:00+00:00</time>
      </trkpt>
      <trkpt lat="43.364330291748" lon="-7.4760584831238">
        <ele>515</ele>
        <time>2019-09-11T06:05:20+00:00</time>
      </trkpt>
      <trkpt lat="43.36429977417" lon="-7.4760203361511">
        <ele>515</ele>
        <time>2019-09-11T06:05:39+00:00</time>
      </trkpt>
      <trkpt lat="43.364288330078" lon="-7.476007938385">
        <ele>515</ele>
        <time>2019-09-11T06:05:41+00:00</time>
      </trkpt>
      <trkpt lat="43.364276885986" lon="-7.4759941101074">
        <ele>515</ele>
        <time>2019-09-11T06:05:58+00:00</time>
      </trkpt>
      <trkpt lat="43.364265441895" lon="-7.4759821891785">
        <ele>515</ele>
        <time>2019-09-11T06:05:59+00:00</time>
      </trkpt>
      <trkpt lat="43.364250183105" lon="-7.475959777832">
        <ele>515</ele>
        <time>2019-09-11T06:06:00+00:00</time>
      </trkpt>
      <trkpt lat="43.364242553711" lon="-7.4759359359741">
        <ele>515</ele>
        <time>2019-09-11T06:06:08+00:00</time>
      </trkpt>
      <trkpt lat="43.364189147949" lon="-7.4758033752441">
        <ele>515</ele>
        <time>2019-09-11T06:06:09+00:00</time>
      </trkpt>
      <trkpt lat="43.364147186279" lon="-7.475688457489">
        <ele>515</ele>
        <time>2019-09-11T06:06:11+00:00</time>
      </trkpt>
      <trkpt lat="43.364116668701" lon="-7.4756274223328">
        <ele>515</ele>
        <time>2019-09-11T06:06:12+00:00</time>
      </trkpt>
      <trkpt lat="43.364078521729" lon="-7.4756050109863">
        <ele>516</ele>
        <time>2019-09-11T06:06:14+00:00</time>
      </trkpt>
      <trkpt lat="43.364028930664" lon="-7.4756217002869">
        <ele>516</ele>
        <time>2019-09-11T06:06:16+00:00</time>
      </trkpt>
      <trkpt lat="43.363971710205" lon="-7.4757704734802">
        <ele>516</ele>
        <time>2019-09-11T06:06:18+00:00</time>
      </trkpt>
      <trkpt lat="43.363925933838" lon="-7.4759998321533">
        <ele>515</ele>
        <time>2019-09-11T06:06:35+00:00</time>
      </trkpt>
      <trkpt lat="43.363910675049" lon="-7.4760856628418">
        <ele>514</ele>
        <time>2019-09-11T06:06:47+00:00</time>
      </trkpt>
      <trkpt lat="43.363922119141" lon="-7.4762105941772">
        <ele>512</ele>
        <time>2019-09-11T06:06:48+00:00</time>
      </trkpt>
      <trkpt lat="43.363929748535" lon="-7.4763054847717">
        <ele>511</ele>
        <time>2019-09-11T06:07:04+00:00</time>
      </trkpt>
      <trkpt lat="43.363971710205" lon="-7.4764761924744">
        <ele>510</ele>
        <time>2019-09-11T06:07:05+00:00</time>
      </trkpt>
      <trkpt lat="43.363990783691" lon="-7.4765481948853">
        <ele>510</ele>
        <time>2019-09-11T06:07:20+00:00</time>
      </trkpt>
      <trkpt lat="43.364032745361" lon="-7.4768033027649">
        <ele>508</ele>
        <time>2019-09-11T06:07:38+00:00</time>
      </trkpt>
      <trkpt lat="43.364051818848" lon="-7.4770035743713">
        <ele>507</ele>
        <time>2019-09-11T06:07:54+00:00</time>
      </trkpt>
      <trkpt lat="43.364051818848" lon="-7.4770841598511">
        <ele>506</ele>
        <time>2019-09-11T06:08:07+00:00</time>
      </trkpt>
      <trkpt lat="43.36404800415" lon="-7.4771289825439">
        <ele>506</ele>
        <time>2019-09-11T06:08:08+00:00</time>
      </trkpt>
      <trkpt lat="43.364044189453" lon="-7.4773812294006">
        <ele>505</ele>
        <time>2019-09-11T06:08:16+00:00</time>
      </trkpt>
      <trkpt lat="43.364009857178" lon="-7.4775986671448">
        <ele>502</ele>
        <time>2019-09-11T06:08:33+00:00</time>
      </trkpt>
      <trkpt lat="43.36402130127" lon="-7.4776978492737">
        <ele>500</ele>
        <time>2019-09-11T06:08:48+00:00</time>
      </trkpt>
      <trkpt lat="43.364028930664" lon="-7.477746963501">
        <ele>500</ele>
        <time>2019-09-11T06:08:49+00:00</time>
      </trkpt>
      <trkpt lat="43.364063262939" lon="-7.4780139923096">
        <ele>499</ele>
        <time>2019-09-11T06:08:57+00:00</time>
      </trkpt>
      <trkpt lat="43.364147186279" lon="-7.4782438278198">
        <ele>498</ele>
        <time>2019-09-11T06:09:12+00:00</time>
      </trkpt>
      <trkpt lat="43.3642578125" lon="-7.4784517288208">
        <ele>495</ele>
        <time>2019-09-11T06:09:29+00:00</time>
      </trkpt>
      <trkpt lat="43.364387512207" lon="-7.4786329269409">
        <ele>494</ele>
        <time>2019-09-11T06:09:43+00:00</time>
      </trkpt>
      <trkpt lat="43.364475250244" lon="-7.4788517951965">
        <ele>493</ele>
        <time>2019-09-11T06:10:01+00:00</time>
      </trkpt>
      <trkpt lat="43.364482879639" lon="-7.4788761138916">
        <ele>492</ele>
        <time>2019-09-11T06:10:03+00:00</time>
      </trkpt>
      <trkpt lat="43.364513397217" lon="-7.4789257049561">
        <ele>491</ele>
        <time>2019-09-11T06:10:19+00:00</time>
      </trkpt>
      <trkpt lat="43.364528656006" lon="-7.4789571762085">
        <ele>491</ele>
        <time>2019-09-11T06:10:20+00:00</time>
      </trkpt>
      <trkpt lat="43.364639282227" lon="-7.4791450500488">
        <ele>490</ele>
        <time>2019-09-11T06:10:28+00:00</time>
      </trkpt>
      <trkpt lat="43.364772796631" lon="-7.4793076515198">
        <ele>489</ele>
        <time>2019-09-11T06:10:42+00:00</time>
      </trkpt>
      <trkpt lat="43.364822387695" lon="-7.4793553352356">
        <ele>488</ele>
        <time>2019-09-11T06:10:49+00:00</time>
      </trkpt>
      <trkpt lat="43.364929199219" lon="-7.4794669151306">
        <ele>487</ele>
        <time>2019-09-11T06:11:10+00:00</time>
      </trkpt>
      <trkpt lat="43.364959716797" lon="-7.4794983863831">
        <ele>487</ele>
        <time>2019-09-11T06:11:11+00:00</time>
      </trkpt>
      <trkpt lat="43.365081787109" lon="-7.4796748161316">
        <ele>488</ele>
        <time>2019-09-11T06:11:23+00:00</time>
      </trkpt>
      <trkpt lat="43.364910125732" lon="-7.4799346923828">
        <ele>490</ele>
        <time>2019-09-11T06:11:28+00:00</time>
      </trkpt>
      <trkpt lat="43.364761352539" lon="-7.4801034927368">
        <ele>491</ele>
        <time>2019-09-11T06:12:30+00:00</time>
      </trkpt>
      <trkpt lat="43.364749908447" lon="-7.4801144599915">
        <ele>491</ele>
        <time>2019-09-11T06:12:31+00:00</time>
      </trkpt>
      <trkpt lat="43.364742279053" lon="-7.480119228363">
        <ele>491</ele>
        <time>2019-09-11T06:12:32+00:00</time>
      </trkpt>
      <trkpt lat="43.364730834961" lon="-7.4801306724548">
        <ele>491</ele>
        <time>2019-09-11T06:12:42+00:00</time>
      </trkpt>
      <trkpt lat="43.364719390869" lon="-7.4801397323608">
        <ele>491</ele>
        <time>2019-09-11T06:12:43+00:00</time>
      </trkpt>
      <trkpt lat="43.364715576172" lon="-7.4801421165466">
        <ele>491</ele>
        <time>2019-09-11T06:12:44+00:00</time>
      </trkpt>
      <trkpt lat="43.364681243896" lon="-7.4801797866821">
        <ele>490</ele>
        <time>2019-09-11T06:12:48+00:00</time>
      </trkpt>
      <trkpt lat="43.364654541016" lon="-7.480206489563">
        <ele>490</ele>
        <time>2019-09-11T06:12:49+00:00</time>
      </trkpt>
      <trkpt lat="43.364532470703" lon="-7.4803233146667">
        <ele>490</ele>
        <time>2019-09-11T06:12:51+00:00</time>
      </trkpt>
      <trkpt lat="43.364398956299" lon="-7.4804949760437">
        <ele>490</ele>
        <time>2019-09-11T06:13:02+00:00</time>
      </trkpt>
      <trkpt lat="43.364303588867" lon="-7.4807333946228">
        <ele>491</ele>
        <time>2019-09-11T06:13:14+00:00</time>
      </trkpt>
      <trkpt lat="43.364223480225" lon="-7.480968952179">
        <ele>498</ele>
        <time>2019-09-11T06:13:28+00:00</time>
      </trkpt>
      <trkpt lat="43.364147186279" lon="-7.4812016487122">
        <ele>504</ele>
        <time>2019-09-11T06:13:44+00:00</time>
      </trkpt>
      <trkpt lat="43.36408996582" lon="-7.4813594818115">
        <ele>507</ele>
        <time>2019-09-11T06:13:56+00:00</time>
      </trkpt>
      <trkpt lat="43.364086151123" lon="-7.4813756942749">
        <ele>509</ele>
        <time>2019-09-11T06:14:12+00:00</time>
      </trkpt>
      <trkpt lat="43.364082336426" lon="-7.4813895225525">
        <ele>509</ele>
        <time>2019-09-11T06:14:13+00:00</time>
      </trkpt>
      <trkpt lat="43.364040374756" lon="-7.4815225601196">
        <ele>509</ele>
        <time>2019-09-11T06:14:15+00:00</time>
      </trkpt>
      <trkpt lat="43.363975524902" lon="-7.4816980361938">
        <ele>510</ele>
        <time>2019-09-11T06:14:21+00:00</time>
      </trkpt>
      <trkpt lat="43.363956451416" lon="-7.4817609786987">
        <ele>508</ele>
        <time>2019-09-11T06:14:36+00:00</time>
      </trkpt>
      <trkpt lat="43.363945007324" lon="-7.4818005561829">
        <ele>508</ele>
        <time>2019-09-11T06:14:37+00:00</time>
      </trkpt>
      <trkpt lat="43.363868713379" lon="-7.4821071624756">
        <ele>506</ele>
        <time>2019-09-11T06:14:45+00:00</time>
      </trkpt>
      <trkpt lat="43.363761901855" lon="-7.4823179244995">
        <ele>504</ele>
        <time>2019-09-11T06:15:00+00:00</time>
      </trkpt>
      <trkpt lat="43.363716125488" lon="-7.4824080467224">
        <ele>502</ele>
        <time>2019-09-11T06:15:10+00:00</time>
      </trkpt>
      <trkpt lat="43.363689422607" lon="-7.4825372695923">
        <ele>501</ele>
        <time>2019-09-11T06:15:26+00:00</time>
      </trkpt>
      <trkpt lat="43.363677978516" lon="-7.4825806617737">
        <ele>501</ele>
        <time>2019-09-11T06:15:27+00:00</time>
      </trkpt>
      <trkpt lat="43.363651275635" lon="-7.4828448295593">
        <ele>500</ele>
        <time>2019-09-11T06:15:39+00:00</time>
      </trkpt>
      <trkpt lat="43.363647460938" lon="-7.4829058647156">
        <ele>500</ele>
        <time>2019-09-11T06:15:45+00:00</time>
      </trkpt>
      <trkpt lat="43.36364364624" lon="-7.4829506874084">
        <ele>499</ele>
        <time>2019-09-11T06:15:58+00:00</time>
      </trkpt>
      <trkpt lat="43.363639831543" lon="-7.4829835891724">
        <ele>499</ele>
        <time>2019-09-11T06:15:59+00:00</time>
      </trkpt>
      <trkpt lat="43.363628387451" lon="-7.4831800460815">
        <ele>498</ele>
        <time>2019-09-11T06:16:03+00:00</time>
      </trkpt>
      <trkpt lat="43.363624572754" lon="-7.4834313392639">
        <ele>498</ele>
        <time>2019-09-11T06:16:16+00:00</time>
      </trkpt>
      <trkpt lat="43.363681793213" lon="-7.4836668968201">
        <ele>497</ele>
        <time>2019-09-11T06:16:30+00:00</time>
      </trkpt>
      <trkpt lat="43.363754272461" lon="-7.4839282035828">
        <ele>496</ele>
        <time>2019-09-11T06:16:45+00:00</time>
      </trkpt>
      <trkpt lat="43.363807678223" lon="-7.4841709136963">
        <ele>497</ele>
        <time>2019-09-11T06:17:01+00:00</time>
      </trkpt>
      <trkpt lat="43.363826751709" lon="-7.4844326972961">
        <ele>504</ele>
        <time>2019-09-11T06:17:20+00:00</time>
      </trkpt>
      <trkpt lat="43.363819122314" lon="-7.4846882820129">
        <ele>507</ele>
        <time>2019-09-11T06:17:38+00:00</time>
      </trkpt>
      <trkpt lat="43.36381149292" lon="-7.4849448204041">
        <ele>509</ele>
        <time>2019-09-11T06:17:56+00:00</time>
      </trkpt>
      <trkpt lat="43.363838195801" lon="-7.4852051734924">
        <ele>513</ele>
        <time>2019-09-11T06:18:13+00:00</time>
      </trkpt>
      <trkpt lat="43.36385345459" lon="-7.4854617118835">
        <ele>517</ele>
        <time>2019-09-11T06:18:29+00:00</time>
      </trkpt>
      <trkpt lat="43.363857269287" lon="-7.4857215881348">
        <ele>520</ele>
        <time>2019-09-11T06:18:46+00:00</time>
      </trkpt>
      <trkpt lat="43.363800048828" lon="-7.4860911369324">
        <ele>520</ele>
        <time>2019-09-11T06:19:02+00:00</time>
      </trkpt>
      <trkpt lat="43.363845825195" lon="-7.4864101409912">
        <ele>521</ele>
        <time>2019-09-11T06:19:18+00:00</time>
      </trkpt>
      <trkpt lat="43.36385345459" lon="-7.4866623878479">
        <ele>521</ele>
        <time>2019-09-11T06:19:33+00:00</time>
      </trkpt>
      <trkpt lat="43.363861083984" lon="-7.4869208335876">
        <ele>519</ele>
        <time>2019-09-11T06:19:49+00:00</time>
      </trkpt>
      <trkpt lat="43.363838195801" lon="-7.4871096611023">
        <ele>516</ele>
        <time>2019-09-11T06:20:04+00:00</time>
      </trkpt>
      <trkpt lat="43.363761901855" lon="-7.4874110221863">
        <ele>514</ele>
        <time>2019-09-11T06:20:19+00:00</time>
      </trkpt>
      <trkpt lat="43.363742828369" lon="-7.4876537322998">
        <ele>512</ele>
        <time>2019-09-11T06:20:35+00:00</time>
      </trkpt>
      <trkpt lat="43.363723754883" lon="-7.4878239631653">
        <ele>511</ele>
        <time>2019-09-11T06:20:50+00:00</time>
      </trkpt>
      <trkpt lat="43.363784790039" lon="-7.4879202842712">
        <ele>510</ele>
        <time>2019-09-11T06:21:00+00:00</time>
      </trkpt>
      <trkpt lat="43.363838195801" lon="-7.4879698753357">
        <ele>506</ele>
        <time>2019-09-11T06:21:14+00:00</time>
      </trkpt>
      <trkpt lat="43.363849639893" lon="-7.4880242347717">
        <ele>502</ele>
        <time>2019-09-11T06:21:41+00:00</time>
      </trkpt>
      <trkpt lat="43.363903045654" lon="-7.488160610199">
        <ele>502</ele>
        <time>2019-09-11T06:21:42+00:00</time>
      </trkpt>
      <trkpt lat="43.363983154297" lon="-7.4883842468262">
        <ele>503</ele>
        <time>2019-09-11T06:21:45+00:00</time>
      </trkpt>
      <trkpt lat="43.36404800415" lon="-7.4886312484741">
        <ele>503</ele>
        <time>2019-09-11T06:21:58+00:00</time>
      </trkpt>
      <trkpt lat="43.364082336426" lon="-7.4888844490051">
        <ele>505</ele>
        <time>2019-09-11T06:22:15+00:00</time>
      </trkpt>
      <trkpt lat="43.364086151123" lon="-7.4889478683472">
        <ele>506</ele>
        <time>2019-09-11T06:22:33+00:00</time>
      </trkpt>
      <trkpt lat="43.364101409912" lon="-7.48921251297">
        <ele>508</ele>
        <time>2019-09-11T06:22:48+00:00</time>
      </trkpt>
      <trkpt lat="43.364036560059" lon="-7.4895911216736">
        <ele>505</ele>
        <time>2019-09-11T06:23:05+00:00</time>
      </trkpt>
      <trkpt lat="43.363868713379" lon="-7.4898056983948">
        <ele>510</ele>
        <time>2019-09-11T06:23:24+00:00</time>
      </trkpt>
      <trkpt lat="43.363697052002" lon="-7.4899158477783">
        <ele>510</ele>
        <time>2019-09-11T06:23:41+00:00</time>
      </trkpt>
      <trkpt lat="43.363594055176" lon="-7.4899759292603">
        <ele>509</ele>
        <time>2019-09-11T06:23:58+00:00</time>
      </trkpt>
      <trkpt lat="43.363544464111" lon="-7.4900097846985">
        <ele>507</ele>
        <time>2019-09-11T06:24:06+00:00</time>
      </trkpt>
      <trkpt lat="43.363506317139" lon="-7.4900345802307">
        <ele>507</ele>
        <time>2019-09-11T06:24:30+00:00</time>
      </trkpt>
      <trkpt lat="43.363498687744" lon="-7.4900393486023">
        <ele>507</ele>
        <time>2019-09-11T06:24:31+00:00</time>
      </trkpt>
      <trkpt lat="43.363418579102" lon="-7.4900894165039">
        <ele>507</ele>
        <time>2019-09-11T06:24:33+00:00</time>
      </trkpt>
      <trkpt lat="43.363372802734" lon="-7.4901146888733">
        <ele>507</ele>
        <time>2019-09-11T06:24:34+00:00</time>
      </trkpt>
      <trkpt lat="43.363353729248" lon="-7.4901418685913">
        <ele>505</ele>
        <time>2019-09-11T06:25:02+00:00</time>
      </trkpt>
      <trkpt lat="43.363334655762" lon="-7.4901642799377">
        <ele>505</ele>
        <time>2019-09-11T06:25:03+00:00</time>
      </trkpt>
      <trkpt lat="43.36315536499" lon="-7.4903888702393">
        <ele>505</ele>
        <time>2019-09-11T06:25:05+00:00</time>
      </trkpt>
      <trkpt lat="43.363090515137" lon="-7.4904499053955">
        <ele>505</ele>
        <time>2019-09-11T06:25:10+00:00</time>
      </trkpt>
      <trkpt lat="43.36302947998" lon="-7.4905157089233">
        <ele>502</ele>
        <time>2019-09-11T06:25:29+00:00</time>
      </trkpt>
      <trkpt lat="43.362995147705" lon="-7.4905486106873">
        <ele>502</ele>
        <time>2019-09-11T06:25:30+00:00</time>
      </trkpt>
      <trkpt lat="43.362903594971" lon="-7.4906430244446">
        <ele>502</ele>
        <time>2019-09-11T06:25:33+00:00</time>
      </trkpt>
      <trkpt lat="43.362884521484" lon="-7.4906511306763">
        <ele>501</ele>
        <time>2019-09-11T06:25:44+00:00</time>
      </trkpt>
      <trkpt lat="43.362869262695" lon="-7.4906587600708">
        <ele>501</ele>
        <time>2019-09-11T06:25:45+00:00</time>
      </trkpt>
      <trkpt lat="43.36275100708" lon="-7.4907064437866">
        <ele>501</ele>
        <time>2019-09-11T06:25:48+00:00</time>
      </trkpt>
      <trkpt lat="43.362724304199" lon="-7.4907183647156">
        <ele>501</ele>
        <time>2019-09-11T06:25:49+00:00</time>
      </trkpt>
      <trkpt lat="43.362552642822" lon="-7.4908528327942">
        <ele>497</ele>
        <time>2019-09-11T06:26:09+00:00</time>
      </trkpt>
      <trkpt lat="43.362525939941" lon="-7.4908719062805">
        <ele>497</ele>
        <time>2019-09-11T06:26:10+00:00</time>
      </trkpt>
      <trkpt lat="43.362369537354" lon="-7.4909749031067">
        <ele>497</ele>
        <time>2019-09-11T06:26:21+00:00</time>
      </trkpt>
      <trkpt lat="43.362365722656" lon="-7.4909830093384">
        <ele>497</ele>
        <time>2019-09-11T06:26:22+00:00</time>
      </trkpt>
      <trkpt lat="43.362323760986" lon="-7.4910516738892">
        <ele>497</ele>
        <time>2019-09-11T06:26:35+00:00</time>
      </trkpt>
      <trkpt lat="43.362300872803" lon="-7.4910860061646">
        <ele>497</ele>
        <time>2019-09-11T06:26:36+00:00</time>
      </trkpt>
      <trkpt lat="43.362285614014" lon="-7.4911127090454">
        <ele>497</ele>
        <time>2019-09-11T06:26:37+00:00</time>
      </trkpt>
      <trkpt lat="43.362274169922" lon="-7.4911236763">
        <ele>497</ele>
        <time>2019-09-11T06:26:53+00:00</time>
      </trkpt>
      <trkpt lat="43.36226272583" lon="-7.4911327362061">
        <ele>497</ele>
        <time>2019-09-11T06:26:54+00:00</time>
      </trkpt>
      <trkpt lat="43.362087249756" lon="-7.4912757873535">
        <ele>496</ele>
        <time>2019-09-11T06:26:57+00:00</time>
      </trkpt>
      <trkpt lat="43.362030029297" lon="-7.4913306236267">
        <ele>496</ele>
        <time>2019-09-11T06:27:01+00:00</time>
      </trkpt>
      <trkpt lat="43.361988067627" lon="-7.491382598877">
        <ele>493</ele>
        <time>2019-09-11T06:27:14+00:00</time>
      </trkpt>
      <trkpt lat="43.361965179443" lon="-7.4914131164551">
        <ele>493</ele>
        <time>2019-09-11T06:27:15+00:00</time>
      </trkpt>
      <trkpt lat="43.361869812012" lon="-7.4915761947632">
        <ele>489</ele>
        <time>2019-09-11T06:27:18+00:00</time>
      </trkpt>
      <trkpt lat="43.361846923828" lon="-7.4916973114014">
        <ele>484</ele>
        <time>2019-09-11T06:27:47+00:00</time>
      </trkpt>
      <trkpt lat="43.361812591553" lon="-7.4918622970581">
        <ele>485</ele>
        <time>2019-09-11T06:27:48+00:00</time>
      </trkpt>
      <trkpt lat="43.361797332764" lon="-7.4919424057007">
        <ele>484</ele>
        <time>2019-09-11T06:27:52+00:00</time>
      </trkpt>
      <trkpt lat="43.361789703369" lon="-7.4919896125793">
        <ele>477</ele>
        <time>2019-09-11T06:27:53+00:00</time>
      </trkpt>
      <trkpt lat="43.361778259277" lon="-7.4920616149902">
        <ele>473</ele>
        <time>2019-09-11T06:28:32+00:00</time>
      </trkpt>
      <trkpt lat="43.36177444458" lon="-7.4920754432678">
        <ele>474</ele>
        <time>2019-09-11T06:28:33+00:00</time>
      </trkpt>
      <trkpt lat="43.361766815186" lon="-7.4921174049377">
        <ele>473</ele>
        <time>2019-09-11T06:28:35+00:00</time>
      </trkpt>
      <trkpt lat="43.361728668213" lon="-7.4923543930054">
        <ele>473</ele>
        <time>2019-09-11T06:28:39+00:00</time>
      </trkpt>
      <trkpt lat="43.361717224121" lon="-7.4924359321594">
        <ele>473</ele>
        <time>2019-09-11T06:28:40+00:00</time>
      </trkpt>
      <trkpt lat="43.361686706543" lon="-7.4926190376282">
        <ele>472</ele>
        <time>2019-09-11T06:28:42+00:00</time>
      </trkpt>
      <trkpt lat="43.361679077148" lon="-7.492645740509">
        <ele>472</ele>
        <time>2019-09-11T06:28:43+00:00</time>
      </trkpt>
      <trkpt lat="43.361667633057" lon="-7.4926786422729">
        <ele>470</ele>
        <time>2019-09-11T06:28:46+00:00</time>
      </trkpt>
      <trkpt lat="43.361640930176" lon="-7.4927549362183">
        <ele>470</ele>
        <time>2019-09-11T06:29:38+00:00</time>
      </trkpt>
      <trkpt lat="43.361621856689" lon="-7.4928107261658">
        <ele>470</ele>
        <time>2019-09-11T06:29:39+00:00</time>
      </trkpt>
      <trkpt lat="43.361530303955" lon="-7.4930806159973">
        <ele>470</ele>
        <time>2019-09-11T06:29:41+00:00</time>
      </trkpt>
      <trkpt lat="43.361434936523" lon="-7.4932894706726">
        <ele>470</ele>
        <time>2019-09-11T06:29:48+00:00</time>
      </trkpt>
      <trkpt lat="43.361419677734" lon="-7.493335723877">
        <ele>470</ele>
        <time>2019-09-11T06:30:13+00:00</time>
      </trkpt>
      <trkpt lat="43.361404418945" lon="-7.4933710098267">
        <ele>470</ele>
        <time>2019-09-11T06:30:14+00:00</time>
      </trkpt>
      <trkpt lat="43.361343383789" lon="-7.4935479164124">
        <ele>469</ele>
        <time>2019-09-11T06:30:16+00:00</time>
      </trkpt>
      <trkpt lat="43.361301422119" lon="-7.493664264679">
        <ele>469</ele>
        <time>2019-09-11T06:30:20+00:00</time>
      </trkpt>
      <trkpt lat="43.361228942871" lon="-7.4938497543335">
        <ele>466</ele>
        <time>2019-09-11T06:31:01+00:00</time>
      </trkpt>
      <trkpt lat="43.361198425293" lon="-7.4939298629761">
        <ele>466</ele>
        <time>2019-09-11T06:31:02+00:00</time>
      </trkpt>
      <trkpt lat="43.361171722412" lon="-7.4940071105957">
        <ele>466</ele>
        <time>2019-09-11T06:31:04+00:00</time>
      </trkpt>
      <trkpt lat="43.36116027832" lon="-7.4940414428711">
        <ele>465</ele>
        <time>2019-09-11T06:31:05+00:00</time>
      </trkpt>
      <trkpt lat="43.361061096191" lon="-7.4942917823792">
        <ele>463</ele>
        <time>2019-09-11T06:31:38+00:00</time>
      </trkpt>
      <trkpt lat="43.361022949219" lon="-7.4943885803223">
        <ele>463</ele>
        <time>2019-09-11T06:31:39+00:00</time>
      </trkpt>
      <trkpt lat="43.361003875732" lon="-7.4944324493408">
        <ele>463</ele>
        <time>2019-09-11T06:31:40+00:00</time>
      </trkpt>
      <trkpt lat="43.360973358154" lon="-7.4945135116577">
        <ele>463</ele>
        <time>2019-09-11T06:31:45+00:00</time>
      </trkpt>
      <trkpt lat="43.360958099365" lon="-7.4945607185364">
        <ele>463</ele>
        <time>2019-09-11T06:31:46+00:00</time>
      </trkpt>
      <trkpt lat="43.360916137695" lon="-7.494668006897">
        <ele>463</ele>
        <time>2019-09-11T06:31:47+00:00</time>
      </trkpt>
      <trkpt lat="43.360862731934" lon="-7.4947700500488">
        <ele>461</ele>
        <time>2019-09-11T06:31:50+00:00</time>
      </trkpt>
      <trkpt lat="43.360824584961" lon="-7.4947934150696">
        <ele>459</ele>
        <time>2019-09-11T06:32:08+00:00</time>
      </trkpt>
      <trkpt lat="43.360706329346" lon="-7.4948782920837">
        <ele>459</ele>
        <time>2019-09-11T06:32:09+00:00</time>
      </trkpt>
      <trkpt lat="43.360523223877" lon="-7.49498462677">
        <ele>458</ele>
        <time>2019-09-11T06:32:11+00:00</time>
      </trkpt>
      <trkpt lat="43.360359191895" lon="-7.4951038360596">
        <ele>458</ele>
        <time>2019-09-11T06:32:22+00:00</time>
      </trkpt>
      <trkpt lat="43.360271453857" lon="-7.4951872825623">
        <ele>459</ele>
        <time>2019-09-11T06:32:41+00:00</time>
      </trkpt>
      <trkpt lat="43.360260009766" lon="-7.4951977729797">
        <ele>459</ele>
        <time>2019-09-11T06:32:50+00:00</time>
      </trkpt>
      <trkpt lat="43.360172271729" lon="-7.4952836036682">
        <ele>458</ele>
        <time>2019-09-11T06:33:11+00:00</time>
      </trkpt>
      <trkpt lat="43.360137939453" lon="-7.4953179359436">
        <ele>458</ele>
        <time>2019-09-11T06:33:12+00:00</time>
      </trkpt>
      <trkpt lat="43.359958648682" lon="-7.4954500198364">
        <ele>457</ele>
        <time>2019-09-11T06:33:18+00:00</time>
      </trkpt>
      <trkpt lat="43.359775543213" lon="-7.495614528656">
        <ele>458</ele>
        <time>2019-09-11T06:33:34+00:00</time>
      </trkpt>
      <trkpt lat="43.35977935791" lon="-7.4957528114319">
        <ele>457</ele>
        <time>2019-09-11T06:33:42+00:00</time>
      </trkpt>
      <trkpt lat="43.359809875488" lon="-7.4959325790405">
        <ele>456</ele>
        <time>2019-09-11T06:35:18+00:00</time>
      </trkpt>
      <trkpt lat="43.359817504883" lon="-7.4960718154907">
        <ele>457</ele>
        <time>2019-09-11T06:35:19+00:00</time>
      </trkpt>
      <trkpt lat="43.359806060791" lon="-7.4962935447693">
        <ele>457</ele>
        <time>2019-09-11T06:35:25+00:00</time>
      </trkpt>
      <trkpt lat="43.359687805176" lon="-7.4964265823364">
        <ele>457</ele>
        <time>2019-09-11T06:35:38+00:00</time>
      </trkpt>
      <trkpt lat="43.359603881836" lon="-7.4964904785156">
        <ele>458</ele>
        <time>2019-09-11T06:35:51+00:00</time>
      </trkpt>
      <trkpt lat="43.359546661377" lon="-7.4965777397156">
        <ele>458</ele>
        <time>2019-09-11T06:36:01+00:00</time>
      </trkpt>
      <trkpt lat="43.359474182129" lon="-7.4966168403625">
        <ele>459</ele>
        <time>2019-09-11T06:36:16+00:00</time>
      </trkpt>
      <trkpt lat="43.359439849854" lon="-7.4966382980347">
        <ele>459</ele>
        <time>2019-09-11T06:36:17+00:00</time>
      </trkpt>
      <trkpt lat="43.359401702881" lon="-7.4966726303101">
        <ele>459</ele>
        <time>2019-09-11T06:36:19+00:00</time>
      </trkpt>
      <trkpt lat="43.359375" lon="-7.4967017173767">
        <ele>459</ele>
        <time>2019-09-11T06:36:32+00:00</time>
      </trkpt>
      <trkpt lat="43.359306335449" lon="-7.4967756271362">
        <ele>459</ele>
        <time>2019-09-11T06:36:33+00:00</time>
      </trkpt>
      <trkpt lat="43.359275817871" lon="-7.4968042373657">
        <ele>459</ele>
        <time>2019-09-11T06:36:36+00:00</time>
      </trkpt>
      <trkpt lat="43.359169006348" lon="-7.4970378875732">
        <ele>461</ele>
        <time>2019-09-11T06:37:11+00:00</time>
      </trkpt>
      <trkpt lat="43.359142303467" lon="-7.4970960617065">
        <ele>461</ele>
        <time>2019-09-11T06:37:12+00:00</time>
      </trkpt>
      <trkpt lat="43.359130859375" lon="-7.4972615242004">
        <ele>464</ele>
        <time>2019-09-11T06:37:16+00:00</time>
      </trkpt>
      <trkpt lat="43.359153747559" lon="-7.497314453125">
        <ele>466</ele>
        <time>2019-09-11T06:37:48+00:00</time>
      </trkpt>
      <trkpt lat="43.359214782715" lon="-7.4974918365479">
        <ele>466</ele>
        <time>2019-09-11T06:37:49+00:00</time>
      </trkpt>
      <trkpt lat="43.359298706055" lon="-7.4977569580078">
        <ele>470</ele>
        <time>2019-09-11T06:37:53+00:00</time>
      </trkpt>
      <trkpt lat="43.359336853027" lon="-7.4978919029236">
        <ele>472</ele>
        <time>2019-09-11T06:38:25+00:00</time>
      </trkpt>
      <trkpt lat="43.359367370605" lon="-7.4979991912842">
        <ele>472</ele>
        <time>2019-09-11T06:38:26+00:00</time>
      </trkpt>
      <trkpt lat="43.359378814697" lon="-7.4980373382568">
        <ele>472</ele>
        <time>2019-09-11T06:38:29+00:00</time>
      </trkpt>
      <trkpt lat="43.359443664551" lon="-7.4982109069824">
        <ele>476</ele>
        <time>2019-09-11T06:39:02+00:00</time>
      </trkpt>
      <trkpt lat="43.35945892334" lon="-7.4982619285583">
        <ele>476</ele>
        <time>2019-09-11T06:39:03+00:00</time>
      </trkpt>
      <trkpt lat="43.359294891357" lon="-7.4990153312683">
        <ele>488</ele>
        <time>2019-09-11T06:39:05+00:00</time>
      </trkpt>
      <trkpt lat="43.358764648438" lon="-7.5006551742554">
        <ele>507</ele>
        <time>2019-09-11T06:48:15+00:00</time>
      </trkpt>
      <trkpt lat="43.358089447021" lon="-7.5027856826782">
        <ele>504</ele>
        <time>2019-09-11T06:48:16+00:00</time>
      </trkpt>
      <trkpt lat="43.357715606689" lon="-7.5039987564087">
        <ele>504</ele>
        <time>2019-09-11T06:48:18+00:00</time>
      </trkpt>
      <trkpt lat="43.357727050781" lon="-7.5041489601135">
        <ele>505</ele>
        <time>2019-09-11T06:48:20+00:00</time>
      </trkpt>
      <trkpt lat="43.357711791992" lon="-7.504301071167">
        <ele>507</ele>
        <time>2019-09-11T06:48:37+00:00</time>
      </trkpt>
      <trkpt lat="43.35767364502" lon="-7.5043663978577">
        <ele>508</ele>
        <time>2019-09-11T06:48:48+00:00</time>
      </trkpt>
      <trkpt lat="43.357624053955" lon="-7.5044350624084">
        <ele>508</ele>
        <time>2019-09-11T06:49:06+00:00</time>
      </trkpt>
      <trkpt lat="43.357528686523" lon="-7.5045781135559">
        <ele>508</ele>
        <time>2019-09-11T06:49:07+00:00</time>
      </trkpt>
      <trkpt lat="43.357406616211" lon="-7.5047879219055">
        <ele>509</ele>
        <time>2019-09-11T06:49:13+00:00</time>
      </trkpt>
      <trkpt lat="43.357284545898" lon="-7.5049686431885">
        <ele>510</ele>
        <time>2019-09-11T06:49:27+00:00</time>
      </trkpt>
      <trkpt lat="43.357173919678" lon="-7.5051636695862">
        <ele>510</ele>
        <time>2019-09-11T06:49:44+00:00</time>
      </trkpt>
      <trkpt lat="43.357154846191" lon="-7.5052185058594">
        <ele>511</ele>
        <time>2019-09-11T06:50:02+00:00</time>
      </trkpt>
      <trkpt lat="43.357063293457" lon="-7.5053844451904">
        <ele>511</ele>
        <time>2019-09-11T06:50:18+00:00</time>
      </trkpt>
      <trkpt lat="43.356983184814" lon="-7.5054688453674">
        <ele>509</ele>
        <time>2019-09-11T06:50:33+00:00</time>
      </trkpt>
      <trkpt lat="43.356952667236" lon="-7.5054984092712">
        <ele>509</ele>
        <time>2019-09-11T06:50:34+00:00</time>
      </trkpt>
      <trkpt lat="43.356796264648" lon="-7.5056314468384">
        <ele>509</ele>
        <time>2019-09-11T06:50:43+00:00</time>
      </trkpt>
      <trkpt lat="43.356639862061" lon="-7.505763053894">
        <ele>509</ele>
        <time>2019-09-11T06:50:57+00:00</time>
      </trkpt>
      <trkpt lat="43.356365203857" lon="-7.5058431625366">
        <ele>506</ele>
        <time>2019-09-11T06:51:13+00:00</time>
      </trkpt>
      <trkpt lat="43.356132507324" lon="-7.5058250427246">
        <ele>503</ele>
        <time>2019-09-11T06:51:32+00:00</time>
      </trkpt>
      <trkpt lat="43.355945587158" lon="-7.5058312416077">
        <ele>504</ele>
        <time>2019-09-11T06:51:47+00:00</time>
      </trkpt>
      <trkpt lat="43.355751037598" lon="-7.5058722496033">
        <ele>504</ele>
        <time>2019-09-11T06:52:03+00:00</time>
      </trkpt>
      <trkpt lat="43.355564117432" lon="-7.5059285163879">
        <ele>506</ele>
        <time>2019-09-11T06:52:19+00:00</time>
      </trkpt>
      <trkpt lat="43.35538482666" lon="-7.5059676170349">
        <ele>508</ele>
        <time>2019-09-11T06:52:33+00:00</time>
      </trkpt>
      <trkpt lat="43.355339050293" lon="-7.5059757232666">
        <ele>508</ele>
        <time>2019-09-11T06:52:47+00:00</time>
      </trkpt>
      <trkpt lat="43.355155944824" lon="-7.505989074707">
        <ele>510</ele>
        <time>2019-09-11T06:53:03+00:00</time>
      </trkpt>
      <trkpt lat="43.354892730713" lon="-7.5061564445496">
        <ele>512</ele>
        <time>2019-09-11T06:53:19+00:00</time>
      </trkpt>
      <trkpt lat="43.35472869873" lon="-7.5063896179199">
        <ele>513</ele>
        <time>2019-09-11T06:53:35+00:00</time>
      </trkpt>
      <trkpt lat="43.354602813721" lon="-7.5065712928772">
        <ele>512</ele>
        <time>2019-09-11T06:53:51+00:00</time>
      </trkpt>
      <trkpt lat="43.354476928711" lon="-7.5067615509033">
        <ele>513</ele>
        <time>2019-09-11T06:54:07+00:00</time>
      </trkpt>
      <trkpt lat="43.35436630249" lon="-7.5069613456726">
        <ele>514</ele>
        <time>2019-09-11T06:54:24+00:00</time>
      </trkpt>
      <trkpt lat="43.354248046875" lon="-7.5071539878845">
        <ele>514</ele>
        <time>2019-09-11T06:54:40+00:00</time>
      </trkpt>
      <trkpt lat="43.354217529297" lon="-7.5071992874146">
        <ele>515</ele>
        <time>2019-09-11T06:54:54+00:00</time>
      </trkpt>
      <trkpt lat="43.354110717773" lon="-7.5073981285095">
        <ele>516</ele>
        <time>2019-09-11T06:55:11+00:00</time>
      </trkpt>
      <trkpt lat="43.353969573975" lon="-7.5075654983521">
        <ele>516</ele>
        <time>2019-09-11T06:55:26+00:00</time>
      </trkpt>
      <trkpt lat="43.353935241699" lon="-7.507613658905">
        <ele>516</ele>
        <time>2019-09-11T06:55:31+00:00</time>
      </trkpt>
      <trkpt lat="43.353874206543" lon="-7.5077309608459">
        <ele>522</ele>
        <time>2019-09-11T06:55:54+00:00</time>
      </trkpt>
      <trkpt lat="43.353851318359" lon="-7.5077795982361">
        <ele>522</ele>
        <time>2019-09-11T06:55:55+00:00</time>
      </trkpt>
      <trkpt lat="43.353721618652" lon="-7.5079655647278">
        <ele>522</ele>
        <time>2019-09-11T06:56:02+00:00</time>
      </trkpt>
      <trkpt lat="43.353565216064" lon="-7.5081062316895">
        <ele>522</ele>
        <time>2019-09-11T06:56:15+00:00</time>
      </trkpt>
      <trkpt lat="43.353549957275" lon="-7.5081133842468">
        <ele>522</ele>
        <time>2019-09-11T06:56:17+00:00</time>
      </trkpt>
      <trkpt lat="43.353504180908" lon="-7.5081472396851">
        <ele>521</ele>
        <time>2019-09-11T06:56:40+00:00</time>
      </trkpt>
      <trkpt lat="43.35347366333" lon="-7.5081715583801">
        <ele>521</ele>
        <time>2019-09-11T06:56:41+00:00</time>
      </trkpt>
      <trkpt lat="43.353450775146" lon="-7.5081882476807">
        <ele>520</ele>
        <time>2019-09-11T06:56:42+00:00</time>
      </trkpt>
      <trkpt lat="43.353340148926" lon="-7.508270740509">
        <ele>521</ele>
        <time>2019-09-11T06:56:45+00:00</time>
      </trkpt>
      <trkpt lat="43.353302001953" lon="-7.5083003044128">
        <ele>521</ele>
        <time>2019-09-11T06:56:46+00:00</time>
      </trkpt>
      <trkpt lat="43.353130340576" lon="-7.5084133148193">
        <ele>521</ele>
        <time>2019-09-11T06:56:54+00:00</time>
      </trkpt>
      <trkpt lat="43.352924346924" lon="-7.5086398124695">
        <ele>521</ele>
        <time>2019-09-11T06:57:10+00:00</time>
      </trkpt>
      <trkpt lat="43.352828979492" lon="-7.5089139938354">
        <ele>522</ele>
        <time>2019-09-11T06:57:27+00:00</time>
      </trkpt>
      <trkpt lat="43.352733612061" lon="-7.509120464325">
        <ele>524</ele>
        <time>2019-09-11T06:57:44+00:00</time>
      </trkpt>
      <trkpt lat="43.352630615234" lon="-7.5093359947205">
        <ele>525</ele>
        <time>2019-09-11T06:57:58+00:00</time>
      </trkpt>
      <trkpt lat="43.352527618408" lon="-7.5095429420471">
        <ele>527</ele>
        <time>2019-09-11T06:58:16+00:00</time>
      </trkpt>
      <trkpt lat="43.352428436279" lon="-7.5097455978394">
        <ele>527</ele>
        <time>2019-09-11T06:58:34+00:00</time>
      </trkpt>
      <trkpt lat="43.352401733398" lon="-7.5097980499268">
        <ele>527</ele>
        <time>2019-09-11T06:58:51+00:00</time>
      </trkpt>
      <trkpt lat="43.352336883545" lon="-7.5100317001343">
        <ele>530</ele>
        <time>2019-09-11T06:59:09+00:00</time>
      </trkpt>
      <trkpt lat="43.352298736572" lon="-7.5101461410522">
        <ele>530</ele>
        <time>2019-09-11T06:59:20+00:00</time>
      </trkpt>
      <trkpt lat="43.35228729248" lon="-7.5101819038391">
        <ele>532</ele>
        <time>2019-09-11T06:59:37+00:00</time>
      </trkpt>
      <trkpt lat="43.352275848389" lon="-7.51020860672">
        <ele>532</ele>
        <time>2019-09-11T06:59:38+00:00</time>
      </trkpt>
      <trkpt lat="43.352230072021" lon="-7.5103831291199">
        <ele>533</ele>
        <time>2019-09-11T06:59:43+00:00</time>
      </trkpt>
      <trkpt lat="43.352157592773" lon="-7.5106225013733">
        <ele>534</ele>
        <time>2019-09-11T06:59:55+00:00</time>
      </trkpt>
      <trkpt lat="43.352069854736" lon="-7.5108494758606">
        <ele>537</ele>
        <time>2019-09-11T07:00:11+00:00</time>
      </trkpt>
      <trkpt lat="43.351940155029" lon="-7.5110578536987">
        <ele>539</ele>
        <time>2019-09-11T07:00:27+00:00</time>
      </trkpt>
      <trkpt lat="43.351844787598" lon="-7.5112857818604">
        <ele>540</ele>
        <time>2019-09-11T07:00:42+00:00</time>
      </trkpt>
      <trkpt lat="43.351737976074" lon="-7.5115141868591">
        <ele>541</ele>
        <time>2019-09-11T07:00:58+00:00</time>
      </trkpt>
      <trkpt lat="43.35164642334" lon="-7.5117592811584">
        <ele>543</ele>
        <time>2019-09-11T07:01:14+00:00</time>
      </trkpt>
      <trkpt lat="43.351558685303" lon="-7.5120058059692">
        <ele>543</ele>
        <time>2019-09-11T07:01:29+00:00</time>
      </trkpt>
      <trkpt lat="43.351501464844" lon="-7.5122604370117">
        <ele>541</ele>
        <time>2019-09-11T07:01:47+00:00</time>
      </trkpt>
      <trkpt lat="43.351432800293" lon="-7.5125021934509">
        <ele>541</ele>
        <time>2019-09-11T07:02:03+00:00</time>
      </trkpt>
      <trkpt lat="43.351360321045" lon="-7.5127396583557">
        <ele>537</ele>
        <time>2019-09-11T07:02:19+00:00</time>
      </trkpt>
      <trkpt lat="43.351287841797" lon="-7.5129766464233">
        <ele>539</ele>
        <time>2019-09-11T07:02:36+00:00</time>
      </trkpt>
      <trkpt lat="43.351207733154" lon="-7.5132074356079">
        <ele>538</ele>
        <time>2019-09-11T07:02:53+00:00</time>
      </trkpt>
      <trkpt lat="43.351119995117" lon="-7.5134344100952">
        <ele>539</ele>
        <time>2019-09-11T07:03:10+00:00</time>
      </trkpt>
      <trkpt lat="43.351055145264" lon="-7.5136914253235">
        <ele>540</ele>
        <time>2019-09-11T07:03:29+00:00</time>
      </trkpt>
      <trkpt lat="43.350936889648" lon="-7.5138893127441">
        <ele>541</ele>
        <time>2019-09-11T07:03:41+00:00</time>
      </trkpt>
      <trkpt lat="43.350849151611" lon="-7.5141263008118">
        <ele>544</ele>
        <time>2019-09-11T07:03:57+00:00</time>
      </trkpt>
      <trkpt lat="43.350727081299" lon="-7.5144453048706">
        <ele>548</ele>
        <time>2019-09-11T07:04:16+00:00</time>
      </trkpt>
      <trkpt lat="43.350605010986" lon="-7.514684677124">
        <ele>547</ele>
        <time>2019-09-11T07:04:27+00:00</time>
      </trkpt>
      <trkpt lat="43.350559234619" lon="-7.5149350166321">
        <ele>544</ele>
        <time>2019-09-11T07:04:44+00:00</time>
      </trkpt>
      <trkpt lat="43.350498199463" lon="-7.5151748657227">
        <ele>543</ele>
        <time>2019-09-11T07:05:02+00:00</time>
      </trkpt>
      <trkpt lat="43.350421905518" lon="-7.5153903961182">
        <ele>543</ele>
        <time>2019-09-11T07:05:18+00:00</time>
      </trkpt>
      <trkpt lat="43.350330352783" lon="-7.5155806541443">
        <ele>542</ele>
        <time>2019-09-11T07:05:32+00:00</time>
      </trkpt>
      <trkpt lat="43.35026550293" lon="-7.5158038139343">
        <ele>541</ele>
        <time>2019-09-11T07:05:47+00:00</time>
      </trkpt>
      <trkpt lat="43.350257873535" lon="-7.5158677101135">
        <ele>541</ele>
        <time>2019-09-11T07:06:03+00:00</time>
      </trkpt>
      <trkpt lat="43.350269317627" lon="-7.5160536766052">
        <ele>544</ele>
        <time>2019-09-11T07:06:16+00:00</time>
      </trkpt>
      <trkpt lat="43.350254058838" lon="-7.5161118507385">
        <ele>550</ele>
        <time>2019-09-11T07:06:38+00:00</time>
      </trkpt>
      <trkpt lat="43.350246429443" lon="-7.5161519050598">
        <ele>550</ele>
        <time>2019-09-11T07:06:39+00:00</time>
      </trkpt>
      <trkpt lat="43.350196838379" lon="-7.5162897109985">
        <ele>550</ele>
        <time>2019-09-11T07:06:41+00:00</time>
      </trkpt>
      <trkpt lat="43.350067138672" lon="-7.5164661407471">
        <ele>551</ele>
        <time>2019-09-11T07:06:43+00:00</time>
      </trkpt>
      <trkpt lat="43.349910736084" lon="-7.516538143158">
        <ele>549</ele>
        <time>2019-09-11T07:06:47+00:00</time>
      </trkpt>
      <trkpt lat="43.349761962891" lon="-7.5166697502136">
        <ele>543</ele>
        <time>2019-09-11T07:06:59+00:00</time>
      </trkpt>
      <trkpt lat="43.34969329834" lon="-7.5167574882507">
        <ele>539</ele>
        <time>2019-09-11T07:07:16+00:00</time>
      </trkpt>
      <trkpt lat="43.349662780762" lon="-7.5167918205261">
        <ele>538</ele>
        <time>2019-09-11T07:07:36+00:00</time>
      </trkpt>
      <trkpt lat="43.349582672119" lon="-7.5168991088867">
        <ele>538</ele>
        <time>2019-09-11T07:07:37+00:00</time>
      </trkpt>
      <trkpt lat="43.349552154541" lon="-7.5169415473938">
        <ele>538</ele>
        <time>2019-09-11T07:07:43+00:00</time>
      </trkpt>
      <trkpt lat="43.34944152832" lon="-7.5170979499817">
        <ele>540</ele>
        <time>2019-09-11T07:07:52+00:00</time>
      </trkpt>
      <trkpt lat="43.349308013916" lon="-7.5172619819641">
        <ele>540</ele>
        <time>2019-09-11T07:08:06+00:00</time>
      </trkpt>
      <trkpt lat="43.349201202393" lon="-7.5174412727356">
        <ele>538</ele>
        <time>2019-09-11T07:08:23+00:00</time>
      </trkpt>
      <trkpt lat="43.349094390869" lon="-7.5176362991333">
        <ele>537</ele>
        <time>2019-09-11T07:08:39+00:00</time>
      </trkpt>
      <trkpt lat="43.349044799805" lon="-7.5177187919617">
        <ele>536</ele>
        <time>2019-09-11T07:08:47+00:00</time>
      </trkpt>
      <trkpt lat="43.348983764648" lon="-7.5177803039551">
        <ele>535</ele>
        <time>2019-09-11T07:09:10+00:00</time>
      </trkpt>
      <trkpt lat="43.348949432373" lon="-7.5178117752075">
        <ele>535</ele>
        <time>2019-09-11T07:09:11+00:00</time>
      </trkpt>
      <trkpt lat="43.348808288574" lon="-7.5179543495178">
        <ele>535</ele>
        <time>2019-09-11T07:09:17+00:00</time>
      </trkpt>
      <trkpt lat="43.348640441895" lon="-7.5180511474609">
        <ele>535</ele>
        <time>2019-09-11T07:09:31+00:00</time>
      </trkpt>
      <trkpt lat="43.348598480225" lon="-7.5180878639221">
        <ele>536</ele>
        <time>2019-09-11T07:09:38+00:00</time>
      </trkpt>
      <trkpt lat="43.348518371582" lon="-7.5181694030762">
        <ele>535</ele>
        <time>2019-09-11T07:10:29+00:00</time>
      </trkpt>
      <trkpt lat="43.348487854004" lon="-7.5182008743286">
        <ele>535</ele>
        <time>2019-09-11T07:10:30+00:00</time>
      </trkpt>
      <trkpt lat="43.348335266113" lon="-7.518373966217">
        <ele>534</ele>
        <time>2019-09-11T07:10:39+00:00</time>
      </trkpt>
      <trkpt lat="43.348236083984" lon="-7.5185527801514">
        <ele>535</ele>
        <time>2019-09-11T07:10:52+00:00</time>
      </trkpt>
      <trkpt lat="43.348148345947" lon="-7.5187091827393">
        <ele>536</ele>
        <time>2019-09-11T07:11:02+00:00</time>
      </trkpt>
      <trkpt lat="43.348106384277" lon="-7.5188546180725">
        <ele>537</ele>
        <time>2019-09-11T07:11:13+00:00</time>
      </trkpt>
      <trkpt lat="43.348098754883" lon="-7.5189332962036">
        <ele>538</ele>
        <time>2019-09-11T07:11:31+00:00</time>
      </trkpt>
      <trkpt lat="43.348094940186" lon="-7.5189809799194">
        <ele>538</ele>
        <time>2019-09-11T07:11:32+00:00</time>
      </trkpt>
      <trkpt lat="43.348049163818" lon="-7.5192093849182">
        <ele>538</ele>
        <time>2019-09-11T07:11:36+00:00</time>
      </trkpt>
      <trkpt lat="43.347980499268" lon="-7.5194401741028">
        <ele>538</ele>
        <time>2019-09-11T07:11:48+00:00</time>
      </trkpt>
      <trkpt lat="43.3479347229" lon="-7.5195989608765">
        <ele>538</ele>
        <time>2019-09-11T07:12:00+00:00</time>
      </trkpt>
      <trkpt lat="43.347919464111" lon="-7.5196895599365">
        <ele>538</ele>
        <time>2019-09-11T07:12:13+00:00</time>
      </trkpt>
      <trkpt lat="43.347911834717" lon="-7.5197401046753">
        <ele>538</ele>
        <time>2019-09-11T07:12:14+00:00</time>
      </trkpt>
      <trkpt lat="43.347869873047" lon="-7.5199451446533">
        <ele>538</ele>
        <time>2019-09-11T07:12:18+00:00</time>
      </trkpt>
      <trkpt lat="43.347789764404" lon="-7.5202884674072">
        <ele>539</ele>
        <time>2019-09-11T07:12:30+00:00</time>
      </trkpt>
      <trkpt lat="43.347736358643" lon="-7.5205893516541">
        <ele>540</ele>
        <time>2019-09-11T07:12:45+00:00</time>
      </trkpt>
      <trkpt lat="43.347648620605" lon="-7.5207943916321">
        <ele>541</ele>
        <time>2019-09-11T07:13:00+00:00</time>
      </trkpt>
      <trkpt lat="43.347610473633" lon="-7.5208983421326">
        <ele>541</ele>
        <time>2019-09-11T07:13:16+00:00</time>
      </trkpt>
      <trkpt lat="43.347564697266" lon="-7.5209708213806">
        <ele>540</ele>
        <time>2019-09-11T07:13:21+00:00</time>
      </trkpt>
      <trkpt lat="43.34753036499" lon="-7.5210247039795">
        <ele>540</ele>
        <time>2019-09-11T07:13:31+00:00</time>
      </trkpt>
      <trkpt lat="43.347457885742" lon="-7.5211658477783">
        <ele>540</ele>
        <time>2019-09-11T07:13:32+00:00</time>
      </trkpt>
      <trkpt lat="43.347427368164" lon="-7.5212230682373">
        <ele>540</ele>
        <time>2019-09-11T07:13:42+00:00</time>
      </trkpt>
      <trkpt lat="43.347385406494" lon="-7.5214524269104">
        <ele>539</ele>
        <time>2019-09-11T07:13:57+00:00</time>
      </trkpt>
      <trkpt lat="43.347290039062" lon="-7.5216422080994">
        <ele>538</ele>
        <time>2019-09-11T07:14:13+00:00</time>
      </trkpt>
      <trkpt lat="43.347274780273" lon="-7.5216746330261">
        <ele>538</ele>
        <time>2019-09-11T07:14:16+00:00</time>
      </trkpt>
      <trkpt lat="43.347229003906" lon="-7.5217537879944">
        <ele>535</ele>
        <time>2019-09-11T07:14:45+00:00</time>
      </trkpt>
      <trkpt lat="43.347206115723" lon="-7.5217962265015">
        <ele>535</ele>
        <time>2019-09-11T07:14:46+00:00</time>
      </trkpt>
      <trkpt lat="43.34708404541" lon="-7.5219860076904">
        <ele>535</ele>
        <time>2019-09-11T07:14:51+00:00</time>
      </trkpt>
      <trkpt lat="43.347080230713" lon="-7.521993637085">
        <ele>536</ele>
        <time>2019-09-11T07:14:53+00:00</time>
      </trkpt>
      <trkpt lat="43.347023010254" lon="-7.5221738815308">
        <ele>535</ele>
        <time>2019-09-11T07:15:06+00:00</time>
      </trkpt>
      <trkpt lat="43.347011566162" lon="-7.5222067832947">
        <ele>535</ele>
        <time>2019-09-11T07:15:07+00:00</time>
      </trkpt>
      <trkpt lat="43.347011566162" lon="-7.5222067832947">
        <ele>535</ele>
        <time>2019-09-11T07:15:19+00:00</time>
      </trkpt>
      <trkpt lat="43.346981048584" lon="-7.5228900909424">
        <ele>529</ele>
        <time>2019-09-11T07:15:51+00:00</time>
      </trkpt>
      <trkpt lat="43.346981048584" lon="-7.5229067802429">
        <ele>529</ele>
        <time>2019-09-11T07:15:52+00:00</time>
      </trkpt>
      <trkpt lat="43.346977233887" lon="-7.522928237915">
        <ele>529</ele>
        <time>2019-09-11T07:15:53+00:00</time>
      </trkpt>
      <trkpt lat="43.346973419189" lon="-7.5229434967041">
        <ele>529</ele>
        <time>2019-09-11T07:15:54+00:00</time>
      </trkpt>
      <trkpt lat="43.346977233887" lon="-7.522958278656">
        <ele>529</ele>
        <time>2019-09-11T07:15:55+00:00</time>
      </trkpt>
      <trkpt lat="43.346981048584" lon="-7.5229735374451">
        <ele>529</ele>
        <time>2019-09-11T07:15:56+00:00</time>
      </trkpt>
      <trkpt lat="43.346984863281" lon="-7.5229902267456">
        <ele>529</ele>
        <time>2019-09-11T07:15:57+00:00</time>
      </trkpt>
      <trkpt lat="43.346984863281" lon="-7.5230031013489">
        <ele>529</ele>
        <time>2019-09-11T07:15:58+00:00</time>
      </trkpt>
      <trkpt lat="43.346984863281" lon="-7.5230197906494">
        <ele>529</ele>
        <time>2019-09-11T07:15:59+00:00</time>
      </trkpt>
      <trkpt lat="43.346984863281" lon="-7.5230350494385">
        <ele>529</ele>
        <time>2019-09-11T07:16:00+00:00</time>
      </trkpt>
      <trkpt lat="43.346984863281" lon="-7.5230464935303">
        <ele>529</ele>
        <time>2019-09-11T07:16:01+00:00</time>
      </trkpt>
      <trkpt lat="43.346984863281" lon="-7.5230598449707">
        <ele>529</ele>
        <time>2019-09-11T07:16:02+00:00</time>
      </trkpt>
      <trkpt lat="43.346984863281" lon="-7.5230751037598">
        <ele>529</ele>
        <time>2019-09-11T07:16:03+00:00</time>
      </trkpt>
      <trkpt lat="43.346988677979" lon="-7.5230884552002">
        <ele>529</ele>
        <time>2019-09-11T07:16:04+00:00</time>
      </trkpt>
      <trkpt lat="43.346984863281" lon="-7.5231032371521">
        <ele>528</ele>
        <time>2019-09-11T07:16:05+00:00</time>
      </trkpt>
      <trkpt lat="43.346981048584" lon="-7.5231165885925">
        <ele>528</ele>
        <time>2019-09-11T07:16:06+00:00</time>
      </trkpt>
      <trkpt lat="43.346981048584" lon="-7.5231266021729">
        <ele>528</ele>
        <time>2019-09-11T07:16:07+00:00</time>
      </trkpt>
      <trkpt lat="43.346981048584" lon="-7.5231385231018">
        <ele>528</ele>
        <time>2019-09-11T07:16:08+00:00</time>
      </trkpt>
      <trkpt lat="43.346984863281" lon="-7.5231499671936">
        <ele>528</ele>
        <time>2019-09-11T07:16:09+00:00</time>
      </trkpt>
      <trkpt lat="43.346984863281" lon="-7.523163318634">
        <ele>528</ele>
        <time>2019-09-11T07:16:10+00:00</time>
      </trkpt>
      <trkpt lat="43.346981048584" lon="-7.5231766700745">
        <ele>528</ele>
        <time>2019-09-11T07:16:11+00:00</time>
      </trkpt>
      <trkpt lat="43.346981048584" lon="-7.5231881141663">
        <ele>528</ele>
        <time>2019-09-11T07:16:12+00:00</time>
      </trkpt>
      <trkpt lat="43.346984863281" lon="-7.5231981277466">
        <ele>528</ele>
        <time>2019-09-11T07:16:13+00:00</time>
      </trkpt>
      <trkpt lat="43.346984863281" lon="-7.5232133865356">
        <ele>528</ele>
        <time>2019-09-11T07:16:14+00:00</time>
      </trkpt>
      <trkpt lat="43.346988677979" lon="-7.5232267379761">
        <ele>528</ele>
        <time>2019-09-11T07:16:15+00:00</time>
      </trkpt>
      <trkpt lat="43.346988677979" lon="-7.5232400894165">
        <ele>528</ele>
        <time>2019-09-11T07:16:16+00:00</time>
      </trkpt>
      <trkpt lat="43.346992492676" lon="-7.523256778717">
        <ele>528</ele>
        <time>2019-09-11T07:16:17+00:00</time>
      </trkpt>
      <trkpt lat="43.346992492676" lon="-7.5232715606689">
        <ele>528</ele>
        <time>2019-09-11T07:16:18+00:00</time>
      </trkpt>
      <trkpt lat="43.346992492676" lon="-7.5232882499695">
        <ele>527</ele>
        <time>2019-09-11T07:16:19+00:00</time>
      </trkpt>
      <trkpt lat="43.346988677979" lon="-7.5233068466187">
        <ele>527</ele>
        <time>2019-09-11T07:16:20+00:00</time>
      </trkpt>
      <trkpt lat="43.346988677979" lon="-7.5233235359192">
        <ele>527</ele>
        <time>2019-09-11T07:16:21+00:00</time>
      </trkpt>
      <trkpt lat="43.346988677979" lon="-7.5233368873596">
        <ele>527</ele>
        <time>2019-09-11T07:16:22+00:00</time>
      </trkpt>
      <trkpt lat="43.346984863281" lon="-7.523353099823">
        <ele>528</ele>
        <time>2019-09-11T07:16:23+00:00</time>
      </trkpt>
      <trkpt lat="43.346984863281" lon="-7.5233697891235">
        <ele>528</ele>
        <time>2019-09-11T07:16:24+00:00</time>
      </trkpt>
      <trkpt lat="43.346984863281" lon="-7.523383140564">
        <ele>527</ele>
        <time>2019-09-11T07:16:25+00:00</time>
      </trkpt>
      <trkpt lat="43.346984863281" lon="-7.5233964920044">
        <ele>527</ele>
        <time>2019-09-11T07:16:26+00:00</time>
      </trkpt>
      <trkpt lat="43.346984863281" lon="-7.5234117507935">
        <ele>527</ele>
        <time>2019-09-11T07:16:27+00:00</time>
      </trkpt>
      <trkpt lat="43.346984863281" lon="-7.523428440094">
        <ele>527</ele>
        <time>2019-09-11T07:16:28+00:00</time>
      </trkpt>
      <trkpt lat="43.346984863281" lon="-7.5234451293945">
        <ele>527</ele>
        <time>2019-09-11T07:16:29+00:00</time>
      </trkpt>
      <trkpt lat="43.346981048584" lon="-7.5234599113464">
        <ele>528</ele>
        <time>2019-09-11T07:16:30+00:00</time>
      </trkpt>
      <trkpt lat="43.346981048584" lon="-7.5234751701355">
        <ele>528</ele>
        <time>2019-09-11T07:16:31+00:00</time>
      </trkpt>
      <trkpt lat="43.346981048584" lon="-7.5234899520874">
        <ele>528</ele>
        <time>2019-09-11T07:16:32+00:00</time>
      </trkpt>
      <trkpt lat="43.346977233887" lon="-7.523509979248">
        <ele>528</ele>
        <time>2019-09-11T07:16:33+00:00</time>
      </trkpt>
      <trkpt lat="43.346973419189" lon="-7.5235300064087">
        <ele>528</ele>
        <time>2019-09-11T07:16:34+00:00</time>
      </trkpt>
      <trkpt lat="43.346973419189" lon="-7.5235481262207">
        <ele>528</ele>
        <time>2019-09-11T07:16:35+00:00</time>
      </trkpt>
      <trkpt lat="43.346973419189" lon="-7.5235667228699">
        <ele>528</ele>
        <time>2019-09-11T07:16:36+00:00</time>
      </trkpt>
      <trkpt lat="43.346973419189" lon="-7.5235815048218">
        <ele>528</ele>
        <time>2019-09-11T07:16:37+00:00</time>
      </trkpt>
      <trkpt lat="43.346977233887" lon="-7.5235981941223">
        <ele>527</ele>
        <time>2019-09-11T07:16:38+00:00</time>
      </trkpt>
      <trkpt lat="43.346977233887" lon="-7.5236115455627">
        <ele>527</ele>
        <time>2019-09-11T07:16:39+00:00</time>
      </trkpt>
      <trkpt lat="43.346981048584" lon="-7.5236248970032">
        <ele>527</ele>
        <time>2019-09-11T07:16:40+00:00</time>
      </trkpt>
      <trkpt lat="43.346984863281" lon="-7.5236382484436">
        <ele>527</ele>
        <time>2019-09-11T07:16:41+00:00</time>
      </trkpt>
      <trkpt lat="43.346984863281" lon="-7.5236549377441">
        <ele>527</ele>
        <time>2019-09-11T07:16:42+00:00</time>
      </trkpt>
      <trkpt lat="43.346984863281" lon="-7.5236682891846">
        <ele>526</ele>
        <time>2019-09-11T07:16:43+00:00</time>
      </trkpt>
      <trkpt lat="43.346984863281" lon="-7.5236768722534">
        <ele>526</ele>
        <time>2019-09-11T07:16:44+00:00</time>
      </trkpt>
      <trkpt lat="43.346984863281" lon="-7.5236883163452">
        <ele>526</ele>
        <time>2019-09-11T07:16:45+00:00</time>
      </trkpt>
      <trkpt lat="43.346984863281" lon="-7.5237016677856">
        <ele>526</ele>
        <time>2019-09-11T07:16:46+00:00</time>
      </trkpt>
      <trkpt lat="43.346984863281" lon="-7.523711681366">
        <ele>525</ele>
        <time>2019-09-11T07:16:47+00:00</time>
      </trkpt>
      <trkpt lat="43.346984863281" lon="-7.5237231254578">
        <ele>525</ele>
        <time>2019-09-11T07:16:48+00:00</time>
      </trkpt>
      <trkpt lat="43.346984863281" lon="-7.5237350463867">
        <ele>525</ele>
        <time>2019-09-11T07:16:49+00:00</time>
      </trkpt>
      <trkpt lat="43.346984863281" lon="-7.5237531661987">
        <ele>525</ele>
        <time>2019-09-11T07:16:50+00:00</time>
      </trkpt>
      <trkpt lat="43.346984863281" lon="-7.5237731933594">
        <ele>526</ele>
        <time>2019-09-11T07:16:51+00:00</time>
      </trkpt>
      <trkpt lat="43.346984863281" lon="-7.5238032341003">
        <ele>525</ele>
        <time>2019-09-11T07:16:52+00:00</time>
      </trkpt>
      <trkpt lat="43.346988677979" lon="-7.5238332748413">
        <ele>525</ele>
        <time>2019-09-11T07:16:53+00:00</time>
      </trkpt>
      <trkpt lat="43.346992492676" lon="-7.5238618850708">
        <ele>525</ele>
        <time>2019-09-11T07:16:54+00:00</time>
      </trkpt>
      <trkpt lat="43.346992492676" lon="-7.523886680603">
        <ele>525</ele>
        <time>2019-09-11T07:16:55+00:00</time>
      </trkpt>
      <trkpt lat="43.346992492676" lon="-7.523904800415">
        <ele>525</ele>
        <time>2019-09-11T07:16:56+00:00</time>
      </trkpt>
      <trkpt lat="43.34700012207" lon="-7.5239214897156">
        <ele>525</ele>
        <time>2019-09-11T07:16:57+00:00</time>
      </trkpt>
      <trkpt lat="43.34700012207" lon="-7.5239367485046">
        <ele>525</ele>
        <time>2019-09-11T07:16:58+00:00</time>
      </trkpt>
      <trkpt lat="43.347007751465" lon="-7.5239481925964">
        <ele>524</ele>
        <time>2019-09-11T07:16:59+00:00</time>
      </trkpt>
      <trkpt lat="43.347007751465" lon="-7.5239667892456">
        <ele>524</ele>
        <time>2019-09-11T07:17:00+00:00</time>
      </trkpt>
      <trkpt lat="43.347011566162" lon="-7.5239849090576">
        <ele>524</ele>
        <time>2019-09-11T07:17:01+00:00</time>
      </trkpt>
      <trkpt lat="43.347011566162" lon="-7.5240001678467">
        <ele>524</ele>
        <time>2019-09-11T07:17:02+00:00</time>
      </trkpt>
      <trkpt lat="43.347015380859" lon="-7.5240135192871">
        <ele>524</ele>
        <time>2019-09-11T07:17:03+00:00</time>
      </trkpt>
      <trkpt lat="43.347019195557" lon="-7.5240235328674">
        <ele>524</ele>
        <time>2019-09-11T07:17:04+00:00</time>
      </trkpt>
      <trkpt lat="43.347023010254" lon="-7.5240316390991">
        <ele>524</ele>
        <time>2019-09-11T07:17:05+00:00</time>
      </trkpt>
      <trkpt lat="43.347026824951" lon="-7.524040222168">
        <ele>523</ele>
        <time>2019-09-11T07:17:06+00:00</time>
      </trkpt>
      <trkpt lat="43.347019195557" lon="-7.5240516662598">
        <ele>523</ele>
        <time>2019-09-11T07:17:07+00:00</time>
      </trkpt>
      <trkpt lat="43.347019195557" lon="-7.5240664482117">
        <ele>522</ele>
        <time>2019-09-11T07:17:08+00:00</time>
      </trkpt>
      <trkpt lat="43.347019195557" lon="-7.5240831375122">
        <ele>522</ele>
        <time>2019-09-11T07:17:09+00:00</time>
      </trkpt>
      <trkpt lat="43.347019195557" lon="-7.5240998268127">
        <ele>522</ele>
        <time>2019-09-11T07:17:10+00:00</time>
      </trkpt>
      <trkpt lat="43.347019195557" lon="-7.5241150856018">
        <ele>522</ele>
        <time>2019-09-11T07:17:11+00:00</time>
      </trkpt>
      <trkpt lat="43.347015380859" lon="-7.5241284370422">
        <ele>522</ele>
        <time>2019-09-11T07:17:12+00:00</time>
      </trkpt>
      <trkpt lat="43.347019195557" lon="-7.524139881134">
        <ele>521</ele>
        <time>2019-09-11T07:17:13+00:00</time>
      </trkpt>
      <trkpt lat="43.347019195557" lon="-7.5241498947144">
        <ele>521</ele>
        <time>2019-09-11T07:17:14+00:00</time>
      </trkpt>
      <trkpt lat="43.347019195557" lon="-7.5241665840149">
        <ele>521</ele>
        <time>2019-09-11T07:17:15+00:00</time>
      </trkpt>
      <trkpt lat="43.347019195557" lon="-7.5241832733154">
        <ele>521</ele>
        <time>2019-09-11T07:17:16+00:00</time>
      </trkpt>
      <trkpt lat="43.347019195557" lon="-7.524199962616">
        <ele>521</ele>
        <time>2019-09-11T07:17:17+00:00</time>
      </trkpt>
      <trkpt lat="43.347023010254" lon="-7.5242133140564">
        <ele>521</ele>
        <time>2019-09-11T07:17:18+00:00</time>
      </trkpt>
      <trkpt lat="43.347026824951" lon="-7.5242252349854">
        <ele>521</ele>
        <time>2019-09-11T07:17:19+00:00</time>
      </trkpt>
      <trkpt lat="43.347026824951" lon="-7.5242381095886">
        <ele>521</ele>
        <time>2019-09-11T07:17:20+00:00</time>
      </trkpt>
      <trkpt lat="43.347038269043" lon="-7.5242667198181">
        <ele>521</ele>
        <time>2019-09-11T07:17:22+00:00</time>
      </trkpt>
      <trkpt lat="43.34704208374" lon="-7.5242834091187">
        <ele>521</ele>
        <time>2019-09-11T07:17:23+00:00</time>
      </trkpt>
      <trkpt lat="43.347045898438" lon="-7.5243015289307">
        <ele>521</ele>
        <time>2019-09-11T07:17:24+00:00</time>
      </trkpt>
      <trkpt lat="43.347045898438" lon="-7.5243182182312">
        <ele>521</ele>
        <time>2019-09-11T07:17:25+00:00</time>
      </trkpt>
      <trkpt lat="43.347045898438" lon="-7.5243382453918">
        <ele>521</ele>
        <time>2019-09-11T07:17:26+00:00</time>
      </trkpt>
      <trkpt lat="43.34704208374" lon="-7.524374961853">
        <ele>521</ele>
        <time>2019-09-11T07:17:28+00:00</time>
      </trkpt>
      <trkpt lat="43.347038269043" lon="-7.5243949890137">
        <ele>521</ele>
        <time>2019-09-11T07:17:29+00:00</time>
      </trkpt>
      <trkpt lat="43.347038269043" lon="-7.5244083404541">
        <ele>520</ele>
        <time>2019-09-11T07:17:30+00:00</time>
      </trkpt>
      <trkpt lat="43.347038269043" lon="-7.5244264602661">
        <ele>520</ele>
        <time>2019-09-11T07:17:31+00:00</time>
      </trkpt>
      <trkpt lat="43.347034454346" lon="-7.5244431495667">
        <ele>520</ele>
        <time>2019-09-11T07:17:32+00:00</time>
      </trkpt>
      <trkpt lat="43.347034454346" lon="-7.5244584083557">
        <ele>520</ele>
        <time>2019-09-11T07:17:33+00:00</time>
      </trkpt>
      <trkpt lat="43.347030639648" lon="-7.5244698524475">
        <ele>520</ele>
        <time>2019-09-11T07:17:34+00:00</time>
      </trkpt>
      <trkpt lat="43.347030639648" lon="-7.5244798660278">
        <ele>520</ele>
        <time>2019-09-11T07:17:35+00:00</time>
      </trkpt>
      <trkpt lat="43.347026824951" lon="-7.5244917869568">
        <ele>520</ele>
        <time>2019-09-11T07:17:36+00:00</time>
      </trkpt>
      <trkpt lat="43.347026824951" lon="-7.5245065689087">
        <ele>520</ele>
        <time>2019-09-11T07:17:37+00:00</time>
      </trkpt>
      <trkpt lat="43.347023010254" lon="-7.5245184898376">
        <ele>520</ele>
        <time>2019-09-11T07:17:38+00:00</time>
      </trkpt>
      <trkpt lat="43.347019195557" lon="-7.5245332717896">
        <ele>520</ele>
        <time>2019-09-11T07:17:39+00:00</time>
      </trkpt>
      <trkpt lat="43.347023010254" lon="-7.5245499610901">
        <ele>520</ele>
        <time>2019-09-11T07:17:40+00:00</time>
      </trkpt>
      <trkpt lat="43.347019195557" lon="-7.5245666503906">
        <ele>520</ele>
        <time>2019-09-11T07:17:41+00:00</time>
      </trkpt>
      <trkpt lat="43.347019195557" lon="-7.5245833396912">
        <ele>520</ele>
        <time>2019-09-11T07:17:42+00:00</time>
      </trkpt>
      <trkpt lat="43.347015380859" lon="-7.5246014595032">
        <ele>520</ele>
        <time>2019-09-11T07:17:43+00:00</time>
      </trkpt>
      <trkpt lat="43.347015380859" lon="-7.5246148109436">
        <ele>520</ele>
        <time>2019-09-11T07:17:44+00:00</time>
      </trkpt>
      <trkpt lat="43.347011566162" lon="-7.5246267318726">
        <ele>520</ele>
        <time>2019-09-11T07:17:45+00:00</time>
      </trkpt>
      <trkpt lat="43.347011566162" lon="-7.524640083313">
        <ele>520</ele>
        <time>2019-09-11T07:17:46+00:00</time>
      </trkpt>
      <trkpt lat="43.347003936768" lon="-7.5246534347534">
        <ele>520</ele>
        <time>2019-09-11T07:17:47+00:00</time>
      </trkpt>
      <trkpt lat="43.347003936768" lon="-7.5246682167053">
        <ele>520</ele>
        <time>2019-09-11T07:17:48+00:00</time>
      </trkpt>
      <trkpt lat="43.34700012207" lon="-7.524688243866">
        <ele>520</ele>
        <time>2019-09-11T07:17:49+00:00</time>
      </trkpt>
      <trkpt lat="43.346992492676" lon="-7.5247015953064">
        <ele>520</ele>
        <time>2019-09-11T07:17:50+00:00</time>
      </trkpt>
      <trkpt lat="43.346988677979" lon="-7.5247149467468">
        <ele>519</ele>
        <time>2019-09-11T07:17:51+00:00</time>
      </trkpt>
      <trkpt lat="43.346984863281" lon="-7.5247268676758">
        <ele>519</ele>
        <time>2019-09-11T07:17:52+00:00</time>
      </trkpt>
      <trkpt lat="43.346981048584" lon="-7.5247383117676">
        <ele>519</ele>
        <time>2019-09-11T07:17:53+00:00</time>
      </trkpt>
      <trkpt lat="43.346981048584" lon="-7.5247502326965">
        <ele>519</ele>
        <time>2019-09-11T07:17:54+00:00</time>
      </trkpt>
      <trkpt lat="43.346988677979" lon="-7.5247664451599">
        <ele>519</ele>
        <time>2019-09-11T07:17:55+00:00</time>
      </trkpt>
      <trkpt lat="43.346988677979" lon="-7.524781703949">
        <ele>519</ele>
        <time>2019-09-11T07:17:56+00:00</time>
      </trkpt>
      <trkpt lat="43.346984863281" lon="-7.5247931480408">
        <ele>519</ele>
        <time>2019-09-11T07:17:57+00:00</time>
      </trkpt>
      <trkpt lat="43.346984863281" lon="-7.5248098373413">
        <ele>518</ele>
        <time>2019-09-11T07:17:58+00:00</time>
      </trkpt>
      <trkpt lat="43.346981048584" lon="-7.5248231887817">
        <ele>518</ele>
        <time>2019-09-11T07:17:59+00:00</time>
      </trkpt>
      <trkpt lat="43.346977233887" lon="-7.5248365402222">
        <ele>518</ele>
        <time>2019-09-11T07:18:00+00:00</time>
      </trkpt>
      <trkpt lat="43.346973419189" lon="-7.5248498916626">
        <ele>518</ele>
        <time>2019-09-11T07:18:01+00:00</time>
      </trkpt>
      <trkpt lat="43.346973419189" lon="-7.5248651504517">
        <ele>518</ele>
        <time>2019-09-11T07:18:02+00:00</time>
      </trkpt>
      <trkpt lat="43.346973419189" lon="-7.5248785018921">
        <ele>518</ele>
        <time>2019-09-11T07:18:03+00:00</time>
      </trkpt>
      <trkpt lat="43.346973419189" lon="-7.5248918533325">
        <ele>518</ele>
        <time>2019-09-11T07:18:04+00:00</time>
      </trkpt>
      <trkpt lat="43.346973419189" lon="-7.5249052047729">
        <ele>517</ele>
        <time>2019-09-11T07:18:05+00:00</time>
      </trkpt>
      <trkpt lat="43.346973419189" lon="-7.5249166488647">
        <ele>517</ele>
        <time>2019-09-11T07:18:06+00:00</time>
      </trkpt>
      <trkpt lat="43.346973419189" lon="-7.5249433517456">
        <ele>517</ele>
        <time>2019-09-11T07:18:08+00:00</time>
      </trkpt>
      <trkpt lat="43.346973419189" lon="-7.524956703186">
        <ele>517</ele>
        <time>2019-09-11T07:18:09+00:00</time>
      </trkpt>
      <trkpt lat="43.346973419189" lon="-7.5249733924866">
        <ele>517</ele>
        <time>2019-09-11T07:18:10+00:00</time>
      </trkpt>
      <trkpt lat="43.346973419189" lon="-7.5249881744385">
        <ele>517</ele>
        <time>2019-09-11T07:18:11+00:00</time>
      </trkpt>
      <trkpt lat="43.346973419189" lon="-7.525004863739">
        <ele>516</ele>
        <time>2019-09-11T07:18:12+00:00</time>
      </trkpt>
      <trkpt lat="43.346973419189" lon="-7.5250201225281">
        <ele>516</ele>
        <time>2019-09-11T07:18:13+00:00</time>
      </trkpt>
      <trkpt lat="43.346973419189" lon="-7.52503490448">
        <ele>516</ele>
        <time>2019-09-11T07:18:14+00:00</time>
      </trkpt>
      <trkpt lat="43.346969604492" lon="-7.525050163269">
        <ele>516</ele>
        <time>2019-09-11T07:18:15+00:00</time>
      </trkpt>
      <trkpt lat="43.346973419189" lon="-7.5250601768494">
        <ele>516</ele>
        <time>2019-09-11T07:18:16+00:00</time>
      </trkpt>
      <trkpt lat="43.346965789795" lon="-7.5250735282898">
        <ele>515</ele>
        <time>2019-09-11T07:18:17+00:00</time>
      </trkpt>
      <trkpt lat="43.346965789795" lon="-7.5250816345215">
        <ele>515</ele>
        <time>2019-09-11T07:18:18+00:00</time>
      </trkpt>
      <trkpt lat="43.346965789795" lon="-7.5250935554504">
        <ele>515</ele>
        <time>2019-09-11T07:18:19+00:00</time>
      </trkpt>
      <trkpt lat="43.346961975098" lon="-7.5251016616821">
        <ele>515</ele>
        <time>2019-09-11T07:18:20+00:00</time>
      </trkpt>
      <trkpt lat="43.346965789795" lon="-7.525116443634">
        <ele>515</ele>
        <time>2019-09-11T07:18:21+00:00</time>
      </trkpt>
      <trkpt lat="43.346965789795" lon="-7.5251317024231">
        <ele>514</ele>
        <time>2019-09-11T07:18:22+00:00</time>
      </trkpt>
      <trkpt lat="43.346965789795" lon="-7.5251431465149">
        <ele>514</ele>
        <time>2019-09-11T07:18:23+00:00</time>
      </trkpt>
      <trkpt lat="43.346969604492" lon="-7.5251698493958">
        <ele>514</ele>
        <time>2019-09-11T07:18:25+00:00</time>
      </trkpt>
      <trkpt lat="43.346969604492" lon="-7.5251884460449">
        <ele>514</ele>
        <time>2019-09-11T07:18:26+00:00</time>
      </trkpt>
      <trkpt lat="43.346969604492" lon="-7.5252051353455">
        <ele>514</ele>
        <time>2019-09-11T07:18:27+00:00</time>
      </trkpt>
      <trkpt lat="43.346969604492" lon="-7.5252199172974">
        <ele>513</ele>
        <time>2019-09-11T07:18:28+00:00</time>
      </trkpt>
      <trkpt lat="43.346973419189" lon="-7.5252351760864">
        <ele>513</ele>
        <time>2019-09-11T07:18:29+00:00</time>
      </trkpt>
      <trkpt lat="43.346973419189" lon="-7.5252451896667">
        <ele>513</ele>
        <time>2019-09-11T07:18:30+00:00</time>
      </trkpt>
      <trkpt lat="43.346969604492" lon="-7.5252585411072">
        <ele>513</ele>
        <time>2019-09-11T07:18:31+00:00</time>
      </trkpt>
      <trkpt lat="43.346969604492" lon="-7.5252685546875">
        <ele>513</ele>
        <time>2019-09-11T07:18:32+00:00</time>
      </trkpt>
      <trkpt lat="43.346969604492" lon="-7.5252785682678">
        <ele>513</ele>
        <time>2019-09-11T07:18:33+00:00</time>
      </trkpt>
      <trkpt lat="43.346965789795" lon="-7.5252933502197">
        <ele>513</ele>
        <time>2019-09-11T07:18:34+00:00</time>
      </trkpt>
      <trkpt lat="43.3469581604" lon="-7.5253114700317">
        <ele>513</ele>
        <time>2019-09-11T07:18:35+00:00</time>
      </trkpt>
      <trkpt lat="43.346954345703" lon="-7.5253267288208">
        <ele>513</ele>
        <time>2019-09-11T07:18:36+00:00</time>
      </trkpt>
      <trkpt lat="43.346946716309" lon="-7.5253434181213">
        <ele>513</ele>
        <time>2019-09-11T07:18:37+00:00</time>
      </trkpt>
      <trkpt lat="43.346942901611" lon="-7.5253615379333">
        <ele>512</ele>
        <time>2019-09-11T07:18:38+00:00</time>
      </trkpt>
      <trkpt lat="43.346935272217" lon="-7.5253767967224">
        <ele>512</ele>
        <time>2019-09-11T07:18:39+00:00</time>
      </trkpt>
      <trkpt lat="43.34693145752" lon="-7.5253949165344">
        <ele>512</ele>
        <time>2019-09-11T07:18:40+00:00</time>
      </trkpt>
      <trkpt lat="43.34693145752" lon="-7.5254001617432">
        <ele>512</ele>
        <time>2019-09-11T07:18:41+00:00</time>
      </trkpt>
      <trkpt lat="43.34693145752" lon="-7.5254149436951">
        <ele>512</ele>
        <time>2019-09-11T07:18:42+00:00</time>
      </trkpt>
      <trkpt lat="43.346935272217" lon="-7.5254316329956">
        <ele>512</ele>
        <time>2019-09-11T07:18:43+00:00</time>
      </trkpt>
      <trkpt lat="43.346939086914" lon="-7.5254483222961">
        <ele>512</ele>
        <time>2019-09-11T07:18:44+00:00</time>
      </trkpt>
      <trkpt lat="43.346935272217" lon="-7.5254597663879">
        <ele>512</ele>
        <time>2019-09-11T07:18:45+00:00</time>
      </trkpt>
      <trkpt lat="43.346935272217" lon="-7.5254683494568">
        <ele>512</ele>
        <time>2019-09-11T07:18:46+00:00</time>
      </trkpt>
      <trkpt lat="43.346935272217" lon="-7.525475025177">
        <ele>512</ele>
        <time>2019-09-11T07:18:47+00:00</time>
      </trkpt>
      <trkpt lat="43.34693145752" lon="-7.5254850387573">
        <ele>512</ele>
        <time>2019-09-11T07:18:48+00:00</time>
      </trkpt>
      <trkpt lat="43.34693145752" lon="-7.525493144989">
        <ele>512</ele>
        <time>2019-09-11T07:18:49+00:00</time>
      </trkpt>
      <trkpt lat="43.34693145752" lon="-7.5255031585693">
        <ele>512</ele>
        <time>2019-09-11T07:18:50+00:00</time>
      </trkpt>
      <trkpt lat="43.346927642822" lon="-7.5255098342896">
        <ele>512</ele>
        <time>2019-09-11T07:18:51+00:00</time>
      </trkpt>
      <trkpt lat="43.346927642822" lon="-7.52552318573">
        <ele>512</ele>
        <time>2019-09-11T07:18:52+00:00</time>
      </trkpt>
      <trkpt lat="43.346923828125" lon="-7.525538444519">
        <ele>512</ele>
        <time>2019-09-11T07:18:53+00:00</time>
      </trkpt>
      <trkpt lat="43.346920013428" lon="-7.5255517959595">
        <ele>512</ele>
        <time>2019-09-11T07:18:54+00:00</time>
      </trkpt>
      <trkpt lat="43.34691619873" lon="-7.5255665779114">
        <ele>512</ele>
        <time>2019-09-11T07:18:55+00:00</time>
      </trkpt>
      <trkpt lat="43.346908569336" lon="-7.5255784988403">
        <ele>512</ele>
        <time>2019-09-11T07:18:56+00:00</time>
      </trkpt>
      <trkpt lat="43.346900939941" lon="-7.525586605072">
        <ele>512</ele>
        <time>2019-09-11T07:18:57+00:00</time>
      </trkpt>
      <trkpt lat="43.346893310547" lon="-7.5255966186523">
        <ele>512</ele>
        <time>2019-09-11T07:18:58+00:00</time>
      </trkpt>
      <trkpt lat="43.346885681152" lon="-7.5256052017212">
        <ele>512</ele>
        <time>2019-09-11T07:18:59+00:00</time>
      </trkpt>
      <trkpt lat="43.346881866455" lon="-7.525616645813">
        <ele>512</ele>
        <time>2019-09-11T07:19:00+00:00</time>
      </trkpt>
      <trkpt lat="43.346878051758" lon="-7.5256252288818">
        <ele>512</ele>
        <time>2019-09-11T07:19:01+00:00</time>
      </trkpt>
      <trkpt lat="43.346874237061" lon="-7.5256381034851">
        <ele>512</ele>
        <time>2019-09-11T07:19:02+00:00</time>
      </trkpt>
      <trkpt lat="43.346870422363" lon="-7.5256500244141">
        <ele>512</ele>
        <time>2019-09-11T07:19:03+00:00</time>
      </trkpt>
      <trkpt lat="43.346866607666" lon="-7.5256633758545">
        <ele>512</ele>
        <time>2019-09-11T07:19:04+00:00</time>
      </trkpt>
      <trkpt lat="43.346866607666" lon="-7.5256781578064">
        <ele>512</ele>
        <time>2019-09-11T07:19:05+00:00</time>
      </trkpt>
      <trkpt lat="43.346870422363" lon="-7.5256948471069">
        <ele>512</ele>
        <time>2019-09-11T07:19:06+00:00</time>
      </trkpt>
      <trkpt lat="43.346870422363" lon="-7.5257115364075">
        <ele>512</ele>
        <time>2019-09-11T07:19:07+00:00</time>
      </trkpt>
      <trkpt lat="43.346874237061" lon="-7.5257301330566">
        <ele>512</ele>
        <time>2019-09-11T07:19:08+00:00</time>
      </trkpt>
      <trkpt lat="43.346874237061" lon="-7.5257449150085">
        <ele>512</ele>
        <time>2019-09-11T07:19:09+00:00</time>
      </trkpt>
      <trkpt lat="43.346874237061" lon="-7.5257601737976">
        <ele>512</ele>
        <time>2019-09-11T07:19:10+00:00</time>
      </trkpt>
      <trkpt lat="43.346874237061" lon="-7.5257701873779">
        <ele>512</ele>
        <time>2019-09-11T07:19:11+00:00</time>
      </trkpt>
      <trkpt lat="43.346874237061" lon="-7.5257782936096">
        <ele>512</ele>
        <time>2019-09-11T07:19:12+00:00</time>
      </trkpt>
      <trkpt lat="43.346874237061" lon="-7.52579164505">
        <ele>512</ele>
        <time>2019-09-11T07:19:13+00:00</time>
      </trkpt>
      <trkpt lat="43.346870422363" lon="-7.5258069038391">
        <ele>512</ele>
        <time>2019-09-11T07:19:14+00:00</time>
      </trkpt>
      <trkpt lat="43.346870422363" lon="-7.5258231163025">
        <ele>512</ele>
        <time>2019-09-11T07:19:15+00:00</time>
      </trkpt>
      <trkpt lat="43.346866607666" lon="-7.5258383750916">
        <ele>512</ele>
        <time>2019-09-11T07:19:16+00:00</time>
      </trkpt>
      <trkpt lat="43.346866607666" lon="-7.5258550643921">
        <ele>512</ele>
        <time>2019-09-11T07:19:17+00:00</time>
      </trkpt>
      <trkpt lat="43.346866607666" lon="-7.5258665084839">
        <ele>512</ele>
        <time>2019-09-11T07:19:18+00:00</time>
      </trkpt>
      <trkpt lat="43.346866607666" lon="-7.5258784294128">
        <ele>512</ele>
        <time>2019-09-11T07:19:19+00:00</time>
      </trkpt>
      <trkpt lat="43.346866607666" lon="-7.5258932113647">
        <ele>512</ele>
        <time>2019-09-11T07:19:20+00:00</time>
      </trkpt>
      <trkpt lat="43.346870422363" lon="-7.5259051322937">
        <ele>512</ele>
        <time>2019-09-11T07:19:21+00:00</time>
      </trkpt>
      <trkpt lat="43.346870422363" lon="-7.525915145874">
        <ele>512</ele>
        <time>2019-09-11T07:19:22+00:00</time>
      </trkpt>
      <trkpt lat="43.346870422363" lon="-7.5259299278259">
        <ele>512</ele>
        <time>2019-09-11T07:19:23+00:00</time>
      </trkpt>
      <trkpt lat="43.346866607666" lon="-7.525945186615">
        <ele>512</ele>
        <time>2019-09-11T07:19:24+00:00</time>
      </trkpt>
      <trkpt lat="43.346866607666" lon="-7.5259599685669">
        <ele>512</ele>
        <time>2019-09-11T07:19:25+00:00</time>
      </trkpt>
      <trkpt lat="43.346866607666" lon="-7.5259733200073">
        <ele>512</ele>
        <time>2019-09-11T07:19:26+00:00</time>
      </trkpt>
      <trkpt lat="43.346866607666" lon="-7.5259881019592">
        <ele>511</ele>
        <time>2019-09-11T07:19:27+00:00</time>
      </trkpt>
      <trkpt lat="43.346866607666" lon="-7.5260033607483">
        <ele>511</ele>
        <time>2019-09-11T07:19:28+00:00</time>
      </trkpt>
      <trkpt lat="43.346866607666" lon="-7.5260167121887">
        <ele>511</ele>
        <time>2019-09-11T07:19:29+00:00</time>
      </trkpt>
      <trkpt lat="43.346866607666" lon="-7.5260281562805">
        <ele>511</ele>
        <time>2019-09-11T07:19:30+00:00</time>
      </trkpt>
      <trkpt lat="43.346866607666" lon="-7.5260400772095">
        <ele>511</ele>
        <time>2019-09-11T07:19:31+00:00</time>
      </trkpt>
      <trkpt lat="43.346862792969" lon="-7.5260534286499">
        <ele>511</ele>
        <time>2019-09-11T07:19:32+00:00</time>
      </trkpt>
      <trkpt lat="43.346858978271" lon="-7.5260634422302">
        <ele>511</ele>
        <time>2019-09-11T07:19:33+00:00</time>
      </trkpt>
      <trkpt lat="43.346855163574" lon="-7.5260782241821">
        <ele>510</ele>
        <time>2019-09-11T07:19:34+00:00</time>
      </trkpt>
      <trkpt lat="43.346855163574" lon="-7.5260882377625">
        <ele>510</ele>
        <time>2019-09-11T07:19:35+00:00</time>
      </trkpt>
      <trkpt lat="43.346855163574" lon="-7.5261034965515">
        <ele>510</ele>
        <time>2019-09-11T07:19:36+00:00</time>
      </trkpt>
      <trkpt lat="43.346851348877" lon="-7.5261201858521">
        <ele>510</ele>
        <time>2019-09-11T07:19:37+00:00</time>
      </trkpt>
      <trkpt lat="43.34684753418" lon="-7.5261316299438">
        <ele>510</ele>
        <time>2019-09-11T07:19:38+00:00</time>
      </trkpt>
      <trkpt lat="43.346843719482" lon="-7.5261468887329">
        <ele>509</ele>
        <time>2019-09-11T07:19:39+00:00</time>
      </trkpt>
      <trkpt lat="43.346843719482" lon="-7.5261583328247">
        <ele>509</ele>
        <time>2019-09-11T07:19:40+00:00</time>
      </trkpt>
      <trkpt lat="43.346839904785" lon="-7.5261697769165">
        <ele>509</ele>
        <time>2019-09-11T07:19:41+00:00</time>
      </trkpt>
      <trkpt lat="43.346839904785" lon="-7.5261831283569">
        <ele>509</ele>
        <time>2019-09-11T07:19:42+00:00</time>
      </trkpt>
      <trkpt lat="43.346839904785" lon="-7.5261950492859">
        <ele>509</ele>
        <time>2019-09-11T07:19:43+00:00</time>
      </trkpt>
      <trkpt lat="43.346832275391" lon="-7.5262098312378">
        <ele>509</ele>
        <time>2019-09-11T07:19:44+00:00</time>
      </trkpt>
      <trkpt lat="43.346828460693" lon="-7.5262250900269">
        <ele>508</ele>
        <time>2019-09-11T07:19:45+00:00</time>
      </trkpt>
      <trkpt lat="43.346832275391" lon="-7.5262351036072">
        <ele>508</ele>
        <time>2019-09-11T07:19:46+00:00</time>
      </trkpt>
      <trkpt lat="43.346832275391" lon="-7.5262498855591">
        <ele>508</ele>
        <time>2019-09-11T07:19:47+00:00</time>
      </trkpt>
      <trkpt lat="43.346832275391" lon="-7.5262632369995">
        <ele>508</ele>
        <time>2019-09-11T07:19:48+00:00</time>
      </trkpt>
      <trkpt lat="43.346828460693" lon="-7.5262799263">
        <ele>508</ele>
        <time>2019-09-11T07:19:49+00:00</time>
      </trkpt>
      <trkpt lat="43.346828460693" lon="-7.5262932777405">
        <ele>508</ele>
        <time>2019-09-11T07:19:50+00:00</time>
      </trkpt>
      <trkpt lat="43.346828460693" lon="-7.5263051986694">
        <ele>508</ele>
        <time>2019-09-11T07:19:51+00:00</time>
      </trkpt>
      <trkpt lat="43.346824645996" lon="-7.5263185501099">
        <ele>507</ele>
        <time>2019-09-11T07:19:52+00:00</time>
      </trkpt>
      <trkpt lat="43.346828460693" lon="-7.5263266563416">
        <ele>507</ele>
        <time>2019-09-11T07:19:53+00:00</time>
      </trkpt>
      <trkpt lat="43.346828460693" lon="-7.526340007782">
        <ele>507</ele>
        <time>2019-09-11T07:19:54+00:00</time>
      </trkpt>
      <trkpt lat="43.346828460693" lon="-7.5263514518738">
        <ele>507</ele>
        <time>2019-09-11T07:19:55+00:00</time>
      </trkpt>
      <trkpt lat="43.346828460693" lon="-7.5263633728027">
        <ele>507</ele>
        <time>2019-09-11T07:19:56+00:00</time>
      </trkpt>
      <trkpt lat="43.346824645996" lon="-7.5263748168945">
        <ele>507</ele>
        <time>2019-09-11T07:19:57+00:00</time>
      </trkpt>
      <trkpt lat="43.346824645996" lon="-7.526388168335">
        <ele>507</ele>
        <time>2019-09-11T07:19:58+00:00</time>
      </trkpt>
      <trkpt lat="43.346813201904" lon="-7.5264015197754">
        <ele>507</ele>
        <time>2019-09-11T07:19:59+00:00</time>
      </trkpt>
      <trkpt lat="43.34680557251" lon="-7.5264148712158">
        <ele>507</ele>
        <time>2019-09-11T07:20:00+00:00</time>
      </trkpt>
      <trkpt lat="43.346809387207" lon="-7.5264282226562">
        <ele>506</ele>
        <time>2019-09-11T07:20:01+00:00</time>
      </trkpt>
      <trkpt lat="43.346801757812" lon="-7.5264434814453">
        <ele>506</ele>
        <time>2019-09-11T07:20:02+00:00</time>
      </trkpt>
      <trkpt lat="43.346801757812" lon="-7.5264601707458">
        <ele>506</ele>
        <time>2019-09-11T07:20:03+00:00</time>
      </trkpt>
      <trkpt lat="43.346801757812" lon="-7.5264735221863">
        <ele>506</ele>
        <time>2019-09-11T07:20:04+00:00</time>
      </trkpt>
      <trkpt lat="43.346801757812" lon="-7.5264883041382">
        <ele>506</ele>
        <time>2019-09-11T07:20:05+00:00</time>
      </trkpt>
      <trkpt lat="43.346797943115" lon="-7.5265049934387">
        <ele>506</ele>
        <time>2019-09-11T07:20:06+00:00</time>
      </trkpt>
      <trkpt lat="43.346797943115" lon="-7.5265197753906">
        <ele>505</ele>
        <time>2019-09-11T07:20:07+00:00</time>
      </trkpt>
      <trkpt lat="43.346797943115" lon="-7.5265364646912">
        <ele>505</ele>
        <time>2019-09-11T07:20:08+00:00</time>
      </trkpt>
      <trkpt lat="43.346797943115" lon="-7.5265498161316">
        <ele>505</ele>
        <time>2019-09-11T07:20:09+00:00</time>
      </trkpt>
      <trkpt lat="43.346801757812" lon="-7.5265650749207">
        <ele>505</ele>
        <time>2019-09-11T07:20:10+00:00</time>
      </trkpt>
      <trkpt lat="43.346797943115" lon="-7.5265798568726">
        <ele>505</ele>
        <time>2019-09-11T07:20:11+00:00</time>
      </trkpt>
      <trkpt lat="43.346797943115" lon="-7.5265951156616">
        <ele>505</ele>
        <time>2019-09-11T07:20:12+00:00</time>
      </trkpt>
      <trkpt lat="43.346794128418" lon="-7.5266065597534">
        <ele>504</ele>
        <time>2019-09-11T07:20:13+00:00</time>
      </trkpt>
      <trkpt lat="43.34680557251" lon="-7.5266284942627">
        <ele>504</ele>
        <time>2019-09-11T07:20:14+00:00</time>
      </trkpt>
      <trkpt lat="43.346809387207" lon="-7.5266451835632">
        <ele>504</ele>
        <time>2019-09-11T07:20:15+00:00</time>
      </trkpt>
      <trkpt lat="43.346813201904" lon="-7.5266532897949">
        <ele>504</ele>
        <time>2019-09-11T07:20:16+00:00</time>
      </trkpt>
      <trkpt lat="43.346813201904" lon="-7.5266652107239">
        <ele>503</ele>
        <time>2019-09-11T07:20:17+00:00</time>
      </trkpt>
      <trkpt lat="43.346813201904" lon="-7.5266752243042">
        <ele>503</ele>
        <time>2019-09-11T07:20:18+00:00</time>
      </trkpt>
      <trkpt lat="43.346813201904" lon="-7.5266900062561">
        <ele>503</ele>
        <time>2019-09-11T07:20:19+00:00</time>
      </trkpt>
      <trkpt lat="43.34680557251" lon="-7.526704788208">
        <ele>502</ele>
        <time>2019-09-11T07:20:20+00:00</time>
      </trkpt>
      <trkpt lat="43.346797943115" lon="-7.5267200469971">
        <ele>502</ele>
        <time>2019-09-11T07:20:21+00:00</time>
      </trkpt>
      <trkpt lat="43.346794128418" lon="-7.526734828949">
        <ele>502</ele>
        <time>2019-09-11T07:20:22+00:00</time>
      </trkpt>
      <trkpt lat="43.346786499023" lon="-7.5267467498779">
        <ele>502</ele>
        <time>2019-09-11T07:20:23+00:00</time>
      </trkpt>
      <trkpt lat="43.346782684326" lon="-7.5267615318298">
        <ele>501</ele>
        <time>2019-09-11T07:20:24+00:00</time>
      </trkpt>
      <trkpt lat="43.346782684326" lon="-7.5267767906189">
        <ele>501</ele>
        <time>2019-09-11T07:20:25+00:00</time>
      </trkpt>
      <trkpt lat="43.346778869629" lon="-7.5267915725708">
        <ele>501</ele>
        <time>2019-09-11T07:20:26+00:00</time>
      </trkpt>
      <trkpt lat="43.346775054932" lon="-7.5268034934998">
        <ele>501</ele>
        <time>2019-09-11T07:20:27+00:00</time>
      </trkpt>
      <trkpt lat="43.346775054932" lon="-7.5268168449402">
        <ele>500</ele>
        <time>2019-09-11T07:20:28+00:00</time>
      </trkpt>
      <trkpt lat="43.346775054932" lon="-7.526828289032">
        <ele>500</ele>
        <time>2019-09-11T07:20:29+00:00</time>
      </trkpt>
      <trkpt lat="43.346775054932" lon="-7.526843547821">
        <ele>500</ele>
        <time>2019-09-11T07:20:30+00:00</time>
      </trkpt>
      <trkpt lat="43.346767425537" lon="-7.5268568992615">
        <ele>500</ele>
        <time>2019-09-11T07:20:31+00:00</time>
      </trkpt>
      <trkpt lat="43.34676361084" lon="-7.5268697738647">
        <ele>500</ele>
        <time>2019-09-11T07:20:32+00:00</time>
      </trkpt>
      <trkpt lat="43.346759796143" lon="-7.5268783569336">
        <ele>500</ele>
        <time>2019-09-11T07:20:33+00:00</time>
      </trkpt>
      <trkpt lat="43.346759796143" lon="-7.5268864631653">
        <ele>500</ele>
        <time>2019-09-11T07:20:34+00:00</time>
      </trkpt>
      <trkpt lat="43.346755981445" lon="-7.5268983840942">
        <ele>500</ele>
        <time>2019-09-11T07:20:35+00:00</time>
      </trkpt>
      <trkpt lat="43.346748352051" lon="-7.5269064903259">
        <ele>499</ele>
        <time>2019-09-11T07:20:36+00:00</time>
      </trkpt>
      <trkpt lat="43.346744537354" lon="-7.5269150733948">
        <ele>499</ele>
        <time>2019-09-11T07:20:37+00:00</time>
      </trkpt>
      <trkpt lat="43.346733093262" lon="-7.5269198417664">
        <ele>499</ele>
        <time>2019-09-11T07:20:38+00:00</time>
      </trkpt>
      <trkpt lat="43.346725463867" lon="-7.5269265174866">
        <ele>499</ele>
        <time>2019-09-11T07:20:39+00:00</time>
      </trkpt>
      <trkpt lat="43.346717834473" lon="-7.5269298553467">
        <ele>499</ele>
        <time>2019-09-11T07:20:40+00:00</time>
      </trkpt>
      <trkpt lat="43.346706390381" lon="-7.5269365310669">
        <ele>499</ele>
        <time>2019-09-11T07:20:41+00:00</time>
      </trkpt>
      <trkpt lat="43.346694946289" lon="-7.5269417762756">
        <ele>499</ele>
        <time>2019-09-11T07:20:42+00:00</time>
      </trkpt>
      <trkpt lat="43.346683502197" lon="-7.5269465446472">
        <ele>499</ele>
        <time>2019-09-11T07:20:43+00:00</time>
      </trkpt>
      <trkpt lat="43.346672058105" lon="-7.5269498825073">
        <ele>499</ele>
        <time>2019-09-11T07:20:44+00:00</time>
      </trkpt>
      <trkpt lat="43.346664428711" lon="-7.5269551277161">
        <ele>499</ele>
        <time>2019-09-11T07:20:45+00:00</time>
      </trkpt>
      <trkpt lat="43.346656799316" lon="-7.5269551277161">
        <ele>498</ele>
        <time>2019-09-11T07:20:46+00:00</time>
      </trkpt>
      <trkpt lat="43.346641540527" lon="-7.5269632339478">
        <ele>498</ele>
        <time>2019-09-11T07:20:47+00:00</time>
      </trkpt>
      <trkpt lat="43.346630096436" lon="-7.5269684791565">
        <ele>498</ele>
        <time>2019-09-11T07:20:48+00:00</time>
      </trkpt>
      <trkpt lat="43.346618652344" lon="-7.5269718170166">
        <ele>498</ele>
        <time>2019-09-11T07:20:49+00:00</time>
      </trkpt>
      <trkpt lat="43.346614837646" lon="-7.5269751548767">
        <ele>498</ele>
        <time>2019-09-11T07:20:50+00:00</time>
      </trkpt>
      <trkpt lat="43.346603393555" lon="-7.5269784927368">
        <ele>498</ele>
        <time>2019-09-11T07:20:51+00:00</time>
      </trkpt>
      <trkpt lat="43.346591949463" lon="-7.5269818305969">
        <ele>497</ele>
        <time>2019-09-11T07:20:52+00:00</time>
      </trkpt>
      <trkpt lat="43.346580505371" lon="-7.526985168457">
        <ele>497</ele>
        <time>2019-09-11T07:20:53+00:00</time>
      </trkpt>
      <trkpt lat="43.346569061279" lon="-7.5269865989685">
        <ele>497</ele>
        <time>2019-09-11T07:20:54+00:00</time>
      </trkpt>
      <trkpt lat="43.346557617188" lon="-7.5269885063171">
        <ele>497</ele>
        <time>2019-09-11T07:20:55+00:00</time>
      </trkpt>
      <trkpt lat="43.346546173096" lon="-7.5269918441772">
        <ele>497</ele>
        <time>2019-09-11T07:20:56+00:00</time>
      </trkpt>
      <trkpt lat="43.346530914307" lon="-7.5269951820374">
        <ele>497</ele>
        <time>2019-09-11T07:20:57+00:00</time>
      </trkpt>
      <trkpt lat="43.346515655518" lon="-7.5270018577576">
        <ele>497</ele>
        <time>2019-09-11T07:20:58+00:00</time>
      </trkpt>
      <trkpt lat="43.346500396729" lon="-7.527003288269">
        <ele>497</ele>
        <time>2019-09-11T07:20:59+00:00</time>
      </trkpt>
      <trkpt lat="43.346481323242" lon="-7.5270051956177">
        <ele>496</ele>
        <time>2019-09-11T07:21:00+00:00</time>
      </trkpt>
      <trkpt lat="43.346462249756" lon="-7.5270051956177">
        <ele>496</ele>
        <time>2019-09-11T07:21:01+00:00</time>
      </trkpt>
      <trkpt lat="43.346450805664" lon="-7.5270066261292">
        <ele>496</ele>
        <time>2019-09-11T07:21:02+00:00</time>
      </trkpt>
      <trkpt lat="43.34644317627" lon="-7.5270085334778">
        <ele>496</ele>
        <time>2019-09-11T07:21:03+00:00</time>
      </trkpt>
      <trkpt lat="43.346431732178" lon="-7.5270099639893">
        <ele>496</ele>
        <time>2019-09-11T07:21:04+00:00</time>
      </trkpt>
      <trkpt lat="43.34642791748" lon="-7.5270085334778">
        <ele>496</ele>
        <time>2019-09-11T07:21:05+00:00</time>
      </trkpt>
      <trkpt lat="43.346420288086" lon="-7.5270051956177">
        <ele>496</ele>
        <time>2019-09-11T07:21:06+00:00</time>
      </trkpt>
      <trkpt lat="43.346416473389" lon="-7.5270051956177">
        <ele>495</ele>
        <time>2019-09-11T07:21:07+00:00</time>
      </trkpt>
      <trkpt lat="43.346397399902" lon="-7.5269899368286">
        <ele>495</ele>
        <time>2019-09-11T07:21:08+00:00</time>
      </trkpt>
      <trkpt lat="43.346385955811" lon="-7.5269832611084">
        <ele>495</ele>
        <time>2019-09-11T07:21:09+00:00</time>
      </trkpt>
      <trkpt lat="43.346378326416" lon="-7.5269832611084">
        <ele>495</ele>
        <time>2019-09-11T07:21:10+00:00</time>
      </trkpt>
      <trkpt lat="43.346363067627" lon="-7.5269818305969">
        <ele>495</ele>
        <time>2019-09-11T07:21:11+00:00</time>
      </trkpt>
      <trkpt lat="43.346347808838" lon="-7.5269799232483">
        <ele>495</ele>
        <time>2019-09-11T07:21:12+00:00</time>
      </trkpt>
      <trkpt lat="43.346336364746" lon="-7.5269784927368">
        <ele>495</ele>
        <time>2019-09-11T07:21:13+00:00</time>
      </trkpt>
      <trkpt lat="43.346324920654" lon="-7.5269751548767">
        <ele>495</ele>
        <time>2019-09-11T07:21:14+00:00</time>
      </trkpt>
      <trkpt lat="43.346321105957" lon="-7.5269732475281">
        <ele>495</ele>
        <time>2019-09-11T07:21:15+00:00</time>
      </trkpt>
      <trkpt lat="43.346313476562" lon="-7.5269784927368">
        <ele>495</ele>
        <time>2019-09-11T07:21:16+00:00</time>
      </trkpt>
      <trkpt lat="43.346298217773" lon="-7.5269765853882">
        <ele>495</ele>
        <time>2019-09-11T07:21:17+00:00</time>
      </trkpt>
      <trkpt lat="43.346282958984" lon="-7.5269799232483">
        <ele>494</ele>
        <time>2019-09-11T07:21:18+00:00</time>
      </trkpt>
      <trkpt lat="43.34627532959" lon="-7.5269832611084">
        <ele>494</ele>
        <time>2019-09-11T07:21:19+00:00</time>
      </trkpt>
      <trkpt lat="43.346263885498" lon="-7.5269832611084">
        <ele>494</ele>
        <time>2019-09-11T07:21:20+00:00</time>
      </trkpt>
      <trkpt lat="43.346248626709" lon="-7.526985168457">
        <ele>494</ele>
        <time>2019-09-11T07:21:21+00:00</time>
      </trkpt>
      <trkpt lat="43.346237182617" lon="-7.5269899368286">
        <ele>494</ele>
        <time>2019-09-11T07:21:22+00:00</time>
      </trkpt>
      <trkpt lat="43.346229553223" lon="-7.5269966125488">
        <ele>494</ele>
        <time>2019-09-11T07:21:23+00:00</time>
      </trkpt>
      <trkpt lat="43.346218109131" lon="-7.5270018577576">
        <ele>494</ele>
        <time>2019-09-11T07:21:24+00:00</time>
      </trkpt>
      <trkpt lat="43.346206665039" lon="-7.527003288269">
        <ele>494</ele>
        <time>2019-09-11T07:21:25+00:00</time>
      </trkpt>
      <trkpt lat="43.346195220947" lon="-7.527003288269">
        <ele>494</ele>
        <time>2019-09-11T07:21:26+00:00</time>
      </trkpt>
      <trkpt lat="43.346187591553" lon="-7.5270066261292">
        <ele>494</ele>
        <time>2019-09-11T07:21:27+00:00</time>
      </trkpt>
      <trkpt lat="43.346179962158" lon="-7.5270066261292">
        <ele>494</ele>
        <time>2019-09-11T07:21:28+00:00</time>
      </trkpt>
      <trkpt lat="43.346168518066" lon="-7.5270051956177">
        <ele>494</ele>
        <time>2019-09-11T07:21:29+00:00</time>
      </trkpt>
      <trkpt lat="43.346157073975" lon="-7.5269985198975">
        <ele>495</ele>
        <time>2019-09-11T07:21:30+00:00</time>
      </trkpt>
      <trkpt lat="43.346145629883" lon="-7.5269966125488">
        <ele>494</ele>
        <time>2019-09-11T07:21:31+00:00</time>
      </trkpt>
      <trkpt lat="43.346138000488" lon="-7.5269966125488">
        <ele>494</ele>
        <time>2019-09-11T07:21:32+00:00</time>
      </trkpt>
      <trkpt lat="43.346126556396" lon="-7.5269966125488">
        <ele>494</ele>
        <time>2019-09-11T07:21:33+00:00</time>
      </trkpt>
      <trkpt lat="43.346115112305" lon="-7.5269966125488">
        <ele>494</ele>
        <time>2019-09-11T07:21:34+00:00</time>
      </trkpt>
      <trkpt lat="43.346103668213" lon="-7.5269966125488">
        <ele>494</ele>
        <time>2019-09-11T07:21:35+00:00</time>
      </trkpt>
      <trkpt lat="43.346092224121" lon="-7.5269932746887">
        <ele>494</ele>
        <time>2019-09-11T07:21:36+00:00</time>
      </trkpt>
      <trkpt lat="43.346084594727" lon="-7.5269899368286">
        <ele>494</ele>
        <time>2019-09-11T07:21:37+00:00</time>
      </trkpt>
      <trkpt lat="43.346073150635" lon="-7.5269885063171">
        <ele>494</ele>
        <time>2019-09-11T07:21:38+00:00</time>
      </trkpt>
      <trkpt lat="43.346061706543" lon="-7.5269865989685">
        <ele>494</ele>
        <time>2019-09-11T07:21:39+00:00</time>
      </trkpt>
      <trkpt lat="43.346050262451" lon="-7.5269799232483">
        <ele>494</ele>
        <time>2019-09-11T07:21:40+00:00</time>
      </trkpt>
      <trkpt lat="43.346042633057" lon="-7.5269799232483">
        <ele>494</ele>
        <time>2019-09-11T07:21:41+00:00</time>
      </trkpt>
      <trkpt lat="43.346035003662" lon="-7.5269765853882">
        <ele>495</ele>
        <time>2019-09-11T07:21:42+00:00</time>
      </trkpt>
      <trkpt lat="43.34602355957" lon="-7.526969909668">
        <ele>495</ele>
        <time>2019-09-11T07:21:43+00:00</time>
      </trkpt>
      <trkpt lat="43.346012115479" lon="-7.5269751548767">
        <ele>495</ele>
        <time>2019-09-11T07:21:44+00:00</time>
      </trkpt>
      <trkpt lat="43.346004486084" lon="-7.5269765853882">
        <ele>495</ele>
        <time>2019-09-11T07:21:45+00:00</time>
      </trkpt>
      <trkpt lat="43.345996856689" lon="-7.5269751548767">
        <ele>495</ele>
        <time>2019-09-11T07:21:46+00:00</time>
      </trkpt>
      <trkpt lat="43.3459815979" lon="-7.5269751548767">
        <ele>495</ele>
        <time>2019-09-11T07:21:47+00:00</time>
      </trkpt>
      <trkpt lat="43.345973968506" lon="-7.526969909668">
        <ele>495</ele>
        <time>2019-09-11T07:21:48+00:00</time>
      </trkpt>
      <trkpt lat="43.345966339111" lon="-7.526969909668">
        <ele>495</ele>
        <time>2019-09-11T07:21:49+00:00</time>
      </trkpt>
      <trkpt lat="43.34595489502" lon="-7.526969909668">
        <ele>495</ele>
        <time>2019-09-11T07:21:50+00:00</time>
      </trkpt>
      <trkpt lat="43.345943450928" lon="-7.5269718170166">
        <ele>495</ele>
        <time>2019-09-11T07:21:51+00:00</time>
      </trkpt>
      <trkpt lat="43.34593963623" lon="-7.5269718170166">
        <ele>495</ele>
        <time>2019-09-11T07:21:52+00:00</time>
      </trkpt>
      <trkpt lat="43.345932006836" lon="-7.5269751548767">
        <ele>495</ele>
        <time>2019-09-11T07:21:53+00:00</time>
      </trkpt>
      <trkpt lat="43.345924377441" lon="-7.5269732475281">
        <ele>495</ele>
        <time>2019-09-11T07:21:54+00:00</time>
      </trkpt>
      <trkpt lat="43.345916748047" lon="-7.5269684791565">
        <ele>495</ele>
        <time>2019-09-11T07:21:55+00:00</time>
      </trkpt>
      <trkpt lat="43.345905303955" lon="-7.5269665718079">
        <ele>495</ele>
        <time>2019-09-11T07:21:56+00:00</time>
      </trkpt>
      <trkpt lat="43.345897674561" lon="-7.5269665718079">
        <ele>495</ele>
        <time>2019-09-11T07:21:57+00:00</time>
      </trkpt>
      <trkpt lat="43.345893859863" lon="-7.5269684791565">
        <ele>495</ele>
        <time>2019-09-11T07:21:58+00:00</time>
      </trkpt>
      <trkpt lat="43.345882415771" lon="-7.5269718170166">
        <ele>495</ele>
        <time>2019-09-11T07:21:59+00:00</time>
      </trkpt>
      <trkpt lat="43.345874786377" lon="-7.5269799232483">
        <ele>495</ele>
        <time>2019-09-11T07:22:00+00:00</time>
      </trkpt>
      <trkpt lat="43.34587097168" lon="-7.5269918441772">
        <ele>495</ele>
        <time>2019-09-11T07:22:01+00:00</time>
      </trkpt>
      <trkpt lat="43.345863342285" lon="-7.5269999504089">
        <ele>495</ele>
        <time>2019-09-11T07:22:02+00:00</time>
      </trkpt>
      <trkpt lat="43.345863342285" lon="-7.5270099639893">
        <ele>494</ele>
        <time>2019-09-11T07:22:03+00:00</time>
      </trkpt>
      <trkpt lat="43.345855712891" lon="-7.5270266532898">
        <ele>494</ele>
        <time>2019-09-11T07:22:04+00:00</time>
      </trkpt>
      <trkpt lat="43.345851898193" lon="-7.5270366668701">
        <ele>495</ele>
        <time>2019-09-11T07:22:05+00:00</time>
      </trkpt>
      <trkpt lat="43.345851898193" lon="-7.5270466804504">
        <ele>495</ele>
        <time>2019-09-11T07:22:06+00:00</time>
      </trkpt>
      <trkpt lat="43.345844268799" lon="-7.5270566940308">
        <ele>495</ele>
        <time>2019-09-11T07:22:07+00:00</time>
      </trkpt>
      <trkpt lat="43.345836639404" lon="-7.5270700454712">
        <ele>495</ele>
        <time>2019-09-11T07:22:08+00:00</time>
      </trkpt>
      <trkpt lat="43.345836639404" lon="-7.5270833969116">
        <ele>495</ele>
        <time>2019-09-11T07:22:09+00:00</time>
      </trkpt>
      <trkpt lat="43.345832824707" lon="-7.5270967483521">
        <ele>495</ele>
        <time>2019-09-11T07:22:10+00:00</time>
      </trkpt>
      <trkpt lat="43.34582901001" lon="-7.5271067619324">
        <ele>495</ele>
        <time>2019-09-11T07:22:11+00:00</time>
      </trkpt>
      <trkpt lat="43.345821380615" lon="-7.5271248817444">
        <ele>495</ele>
        <time>2019-09-11T07:22:12+00:00</time>
      </trkpt>
      <trkpt lat="43.345813751221" lon="-7.5271382331848">
        <ele>496</ele>
        <time>2019-09-11T07:22:13+00:00</time>
      </trkpt>
      <trkpt lat="43.345813751221" lon="-7.5271534919739">
        <ele>496</ele>
        <time>2019-09-11T07:22:14+00:00</time>
      </trkpt>
      <trkpt lat="43.345809936523" lon="-7.5271682739258">
        <ele>496</ele>
        <time>2019-09-11T07:22:15+00:00</time>
      </trkpt>
      <trkpt lat="43.345806121826" lon="-7.5271849632263">
        <ele>496</ele>
        <time>2019-09-11T07:22:16+00:00</time>
      </trkpt>
      <trkpt lat="43.345806121826" lon="-7.5271968841553">
        <ele>496</ele>
        <time>2019-09-11T07:22:17+00:00</time>
      </trkpt>
      <trkpt lat="43.345802307129" lon="-7.5272116661072">
        <ele>496</ele>
        <time>2019-09-11T07:22:18+00:00</time>
      </trkpt>
      <trkpt lat="43.345798492432" lon="-7.5272283554077">
        <ele>496</ele>
        <time>2019-09-11T07:22:19+00:00</time>
      </trkpt>
      <trkpt lat="43.345794677734" lon="-7.5272431373596">
        <ele>496</ele>
        <time>2019-09-11T07:22:20+00:00</time>
      </trkpt>
      <trkpt lat="43.345798492432" lon="-7.5272583961487">
        <ele>496</ele>
        <time>2019-09-11T07:22:21+00:00</time>
      </trkpt>
      <trkpt lat="43.345794677734" lon="-7.5272698402405">
        <ele>496</ele>
        <time>2019-09-11T07:22:22+00:00</time>
      </trkpt>
      <trkpt lat="43.345806121826" lon="-7.5272850990295">
        <ele>496</ele>
        <time>2019-09-11T07:22:23+00:00</time>
      </trkpt>
      <trkpt lat="43.345809936523" lon="-7.52729845047">
        <ele>496</ele>
        <time>2019-09-11T07:22:24+00:00</time>
      </trkpt>
      <trkpt lat="43.345809936523" lon="-7.5273151397705">
        <ele>496</ele>
        <time>2019-09-11T07:22:25+00:00</time>
      </trkpt>
      <trkpt lat="43.345817565918" lon="-7.5273332595825">
        <ele>496</ele>
        <time>2019-09-11T07:22:26+00:00</time>
      </trkpt>
      <trkpt lat="43.345821380615" lon="-7.5273499488831">
        <ele>495</ele>
        <time>2019-09-11T07:22:27+00:00</time>
      </trkpt>
      <trkpt lat="43.345817565918" lon="-7.5273685455322">
        <ele>495</ele>
        <time>2019-09-11T07:22:28+00:00</time>
      </trkpt>
      <trkpt lat="43.345817565918" lon="-7.5273833274841">
        <ele>495</ele>
        <time>2019-09-11T07:22:29+00:00</time>
      </trkpt>
      <trkpt lat="43.345817565918" lon="-7.5273966789246">
        <ele>495</ele>
        <time>2019-09-11T07:22:30+00:00</time>
      </trkpt>
      <trkpt lat="43.345813751221" lon="-7.527410030365">
        <ele>495</ele>
        <time>2019-09-11T07:22:31+00:00</time>
      </trkpt>
      <trkpt lat="43.345817565918" lon="-7.5274200439453">
        <ele>495</ele>
        <time>2019-09-11T07:22:32+00:00</time>
      </trkpt>
      <trkpt lat="43.345821380615" lon="-7.5274333953857">
        <ele>495</ele>
        <time>2019-09-11T07:22:33+00:00</time>
      </trkpt>
      <trkpt lat="43.345821380615" lon="-7.5274467468262">
        <ele>495</ele>
        <time>2019-09-11T07:22:34+00:00</time>
      </trkpt>
      <trkpt lat="43.345817565918" lon="-7.5274615287781">
        <ele>495</ele>
        <time>2019-09-11T07:22:35+00:00</time>
      </trkpt>
      <trkpt lat="43.345813751221" lon="-7.5274782180786">
        <ele>495</ele>
        <time>2019-09-11T07:22:36+00:00</time>
      </trkpt>
      <trkpt lat="43.345806121826" lon="-7.5274982452393">
        <ele>495</ele>
        <time>2019-09-11T07:22:37+00:00</time>
      </trkpt>
      <trkpt lat="43.345798492432" lon="-7.5275068283081">
        <ele>495</ele>
        <time>2019-09-11T07:22:38+00:00</time>
      </trkpt>
      <trkpt lat="43.345798492432" lon="-7.5275135040283">
        <ele>495</ele>
        <time>2019-09-11T07:22:39+00:00</time>
      </trkpt>
      <trkpt lat="43.345798492432" lon="-7.52752161026">
        <ele>495</ele>
        <time>2019-09-11T07:22:40+00:00</time>
      </trkpt>
      <trkpt lat="43.345798492432" lon="-7.5275268554688">
        <ele>495</ele>
        <time>2019-09-11T07:22:41+00:00</time>
      </trkpt>
      <trkpt lat="43.345798492432" lon="-7.5275349617004">
        <ele>495</ele>
        <time>2019-09-11T07:22:42+00:00</time>
      </trkpt>
      <trkpt lat="43.345794677734" lon="-7.5275568962097">
        <ele>495</ele>
        <time>2019-09-11T07:22:43+00:00</time>
      </trkpt>
      <trkpt lat="43.345779418945" lon="-7.5275716781616">
        <ele>495</ele>
        <time>2019-09-11T07:22:44+00:00</time>
      </trkpt>
      <trkpt lat="43.345775604248" lon="-7.5275850296021">
        <ele>495</ele>
        <time>2019-09-11T07:22:45+00:00</time>
      </trkpt>
      <trkpt lat="43.345771789551" lon="-7.527599811554">
        <ele>495</ele>
        <time>2019-09-11T07:22:46+00:00</time>
      </trkpt>
      <trkpt lat="43.345767974854" lon="-7.527615070343">
        <ele>495</ele>
        <time>2019-09-11T07:22:47+00:00</time>
      </trkpt>
      <trkpt lat="43.345764160156" lon="-7.5276350975037">
        <ele>494</ele>
        <time>2019-09-11T07:22:48+00:00</time>
      </trkpt>
      <trkpt lat="43.345760345459" lon="-7.5276517868042">
        <ele>494</ele>
        <time>2019-09-11T07:22:49+00:00</time>
      </trkpt>
      <trkpt lat="43.345760345459" lon="-7.5276651382446">
        <ele>494</ele>
        <time>2019-09-11T07:22:50+00:00</time>
      </trkpt>
      <trkpt lat="43.345760345459" lon="-7.5276765823364">
        <ele>494</ele>
        <time>2019-09-11T07:22:51+00:00</time>
      </trkpt>
      <trkpt lat="43.345760345459" lon="-7.5276865959167">
        <ele>494</ele>
        <time>2019-09-11T07:22:52+00:00</time>
      </trkpt>
      <trkpt lat="43.345760345459" lon="-7.527693271637">
        <ele>494</ele>
        <time>2019-09-11T07:22:53+00:00</time>
      </trkpt>
      <trkpt lat="43.345756530762" lon="-7.5277051925659">
        <ele>494</ele>
        <time>2019-09-11T07:22:54+00:00</time>
      </trkpt>
      <trkpt lat="43.345760345459" lon="-7.5277166366577">
        <ele>494</ele>
        <time>2019-09-11T07:22:55+00:00</time>
      </trkpt>
      <trkpt lat="43.345756530762" lon="-7.527726650238">
        <ele>494</ele>
        <time>2019-09-11T07:22:56+00:00</time>
      </trkpt>
      <trkpt lat="43.345760345459" lon="-7.5277318954468">
        <ele>493</ele>
        <time>2019-09-11T07:22:57+00:00</time>
      </trkpt>
      <trkpt lat="43.345760345459" lon="-7.5277433395386">
        <ele>493</ele>
        <time>2019-09-11T07:22:58+00:00</time>
      </trkpt>
      <trkpt lat="43.345760345459" lon="-7.527756690979">
        <ele>493</ele>
        <time>2019-09-11T07:22:59+00:00</time>
      </trkpt>
      <trkpt lat="43.345760345459" lon="-7.5277667045593">
        <ele>493</ele>
        <time>2019-09-11T07:23:00+00:00</time>
      </trkpt>
      <trkpt lat="43.34574508667" lon="-7.5278182029724">
        <ele>493</ele>
        <time>2019-09-11T07:23:02+00:00</time>
      </trkpt>
      <trkpt lat="43.34574508667" lon="-7.5278334617615">
        <ele>493</ele>
        <time>2019-09-11T07:23:03+00:00</time>
      </trkpt>
      <trkpt lat="43.345737457275" lon="-7.5278515815735">
        <ele>492</ele>
        <time>2019-09-11T07:23:04+00:00</time>
      </trkpt>
      <trkpt lat="43.345733642578" lon="-7.527868270874">
        <ele>492</ele>
        <time>2019-09-11T07:23:05+00:00</time>
      </trkpt>
      <trkpt lat="43.345733642578" lon="-7.5278782844543">
        <ele>492</ele>
        <time>2019-09-11T07:23:06+00:00</time>
      </trkpt>
      <trkpt lat="43.345737457275" lon="-7.5278849601746">
        <ele>492</ele>
        <time>2019-09-11T07:23:07+00:00</time>
      </trkpt>
      <trkpt lat="43.345741271973" lon="-7.5279002189636">
        <ele>492</ele>
        <time>2019-09-11T07:23:08+00:00</time>
      </trkpt>
      <trkpt lat="43.34574508667" lon="-7.5279002189636">
        <ele>492</ele>
        <time>2019-09-11T07:23:09+00:00</time>
      </trkpt>
      <trkpt lat="43.345752716064" lon="-7.5279068946838">
        <ele>492</ele>
        <time>2019-09-11T07:23:10+00:00</time>
      </trkpt>
      <trkpt lat="43.345752716064" lon="-7.5279197692871">
        <ele>492</ele>
        <time>2019-09-11T07:23:11+00:00</time>
      </trkpt>
      <trkpt lat="43.345752716064" lon="-7.5279297828674">
        <ele>492</ele>
        <time>2019-09-11T07:23:12+00:00</time>
      </trkpt>
      <trkpt lat="43.345752716064" lon="-7.5279397964478">
        <ele>492</ele>
        <time>2019-09-11T07:23:13+00:00</time>
      </trkpt>
      <trkpt lat="43.345756530762" lon="-7.527946472168">
        <ele>492</ele>
        <time>2019-09-11T07:23:14+00:00</time>
      </trkpt>
      <trkpt lat="43.345756530762" lon="-7.5279583930969">
        <ele>492</ele>
        <time>2019-09-11T07:23:15+00:00</time>
      </trkpt>
      <trkpt lat="43.345756530762" lon="-7.5279717445374">
        <ele>492</ele>
        <time>2019-09-11T07:23:16+00:00</time>
      </trkpt>
      <trkpt lat="43.345760345459" lon="-7.5279865264893">
        <ele>492</ele>
        <time>2019-09-11T07:23:17+00:00</time>
      </trkpt>
      <trkpt lat="43.345760345459" lon="-7.5280051231384">
        <ele>492</ele>
        <time>2019-09-11T07:23:18+00:00</time>
      </trkpt>
      <trkpt lat="43.345756530762" lon="-7.5280232429504">
        <ele>492</ele>
        <time>2019-09-11T07:23:19+00:00</time>
      </trkpt>
      <trkpt lat="43.345756530762" lon="-7.528039932251">
        <ele>492</ele>
        <time>2019-09-11T07:23:20+00:00</time>
      </trkpt>
      <trkpt lat="43.345756530762" lon="-7.5280599594116">
        <ele>492</ele>
        <time>2019-09-11T07:23:21+00:00</time>
      </trkpt>
      <trkpt lat="43.345752716064" lon="-7.5280799865723">
        <ele>492</ele>
        <time>2019-09-11T07:23:22+00:00</time>
      </trkpt>
      <trkpt lat="43.345748901367" lon="-7.5281000137329">
        <ele>492</ele>
        <time>2019-09-11T07:23:23+00:00</time>
      </trkpt>
      <trkpt lat="43.34574508667" lon="-7.5281167030334">
        <ele>492</ele>
        <time>2019-09-11T07:23:24+00:00</time>
      </trkpt>
      <trkpt lat="43.345741271973" lon="-7.5281481742859">
        <ele>492</ele>
        <time>2019-09-11T07:23:25+00:00</time>
      </trkpt>
      <trkpt lat="43.345729827881" lon="-7.5281767845154">
        <ele>492</ele>
        <time>2019-09-11T07:23:26+00:00</time>
      </trkpt>
      <trkpt lat="43.345722198486" lon="-7.5282034873962">
        <ele>492</ele>
        <time>2019-09-11T07:23:27+00:00</time>
      </trkpt>
      <trkpt lat="43.345714569092" lon="-7.5282349586487">
        <ele>492</ele>
        <time>2019-09-11T07:23:28+00:00</time>
      </trkpt>
      <trkpt lat="43.345706939697" lon="-7.5282602310181">
        <ele>492</ele>
        <time>2019-09-11T07:23:29+00:00</time>
      </trkpt>
      <trkpt lat="43.345703125" lon="-7.5282683372498">
        <ele>492</ele>
        <time>2019-09-11T07:23:30+00:00</time>
      </trkpt>
      <trkpt lat="43.345699310303" lon="-7.5282716751099">
        <ele>492</ele>
        <time>2019-09-11T07:23:31+00:00</time>
      </trkpt>
      <trkpt lat="43.345699310303" lon="-7.5282850265503">
        <ele>492</ele>
        <time>2019-09-11T07:23:32+00:00</time>
      </trkpt>
      <trkpt lat="43.345695495605" lon="-7.5282983779907">
        <ele>491</ele>
        <time>2019-09-11T07:23:33+00:00</time>
      </trkpt>
      <trkpt lat="43.345695495605" lon="-7.528308391571">
        <ele>491</ele>
        <time>2019-09-11T07:23:34+00:00</time>
      </trkpt>
      <trkpt lat="43.345695495605" lon="-7.5283150672913">
        <ele>491</ele>
        <time>2019-09-11T07:23:35+00:00</time>
      </trkpt>
      <trkpt lat="43.345695495605" lon="-7.5283098220825">
        <ele>491</ele>
        <time>2019-09-11T07:23:36+00:00</time>
      </trkpt>
      <trkpt lat="43.345699310303" lon="-7.5283098220825">
        <ele>491</ele>
        <time>2019-09-11T07:23:37+00:00</time>
      </trkpt>
      <trkpt lat="43.345699310303" lon="-7.5283184051514">
        <ele>491</ele>
        <time>2019-09-11T07:23:38+00:00</time>
      </trkpt>
      <trkpt lat="43.345699310303" lon="-7.5283298492432">
        <ele>491</ele>
        <time>2019-09-11T07:23:39+00:00</time>
      </trkpt>
      <trkpt lat="43.345703125" lon="-7.5283317565918">
        <ele>491</ele>
        <time>2019-09-11T07:23:40+00:00</time>
      </trkpt>
      <trkpt lat="43.345706939697" lon="-7.5283365249634">
        <ele>491</ele>
        <time>2019-09-11T07:23:41+00:00</time>
      </trkpt>
      <trkpt lat="43.345703125" lon="-7.5283417701721">
        <ele>491</ele>
        <time>2019-09-11T07:23:42+00:00</time>
      </trkpt>
      <trkpt lat="43.345699310303" lon="-7.5283432006836">
        <ele>490</ele>
        <time>2019-09-11T07:23:43+00:00</time>
      </trkpt>
      <trkpt lat="43.345699310303" lon="-7.5283551216125">
        <ele>490</ele>
        <time>2019-09-11T07:23:44+00:00</time>
      </trkpt>
      <trkpt lat="43.345687866211" lon="-7.5283799171448">
        <ele>490</ele>
        <time>2019-09-11T07:23:45+00:00</time>
      </trkpt>
      <trkpt lat="43.345684051514" lon="-7.5283966064453">
        <ele>490</ele>
        <time>2019-09-11T07:23:46+00:00</time>
      </trkpt>
      <trkpt lat="43.345680236816" lon="-7.5284099578857">
        <ele>490</ele>
        <time>2019-09-11T07:23:47+00:00</time>
      </trkpt>
      <trkpt lat="43.345676422119" lon="-7.5284285545349">
        <ele>490</ele>
        <time>2019-09-11T07:23:48+00:00</time>
      </trkpt>
      <trkpt lat="43.345676422119" lon="-7.5284466743469">
        <ele>490</ele>
        <time>2019-09-11T07:23:49+00:00</time>
      </trkpt>
      <trkpt lat="43.345676422119" lon="-7.5284566879272">
        <ele>490</ele>
        <time>2019-09-11T07:23:50+00:00</time>
      </trkpt>
      <trkpt lat="43.345672607422" lon="-7.5284614562988">
        <ele>490</ele>
        <time>2019-09-11T07:23:51+00:00</time>
      </trkpt>
      <trkpt lat="43.345672607422" lon="-7.5284714698792">
        <ele>490</ele>
        <time>2019-09-11T07:23:52+00:00</time>
      </trkpt>
      <trkpt lat="43.345668792725" lon="-7.5284814834595">
        <ele>490</ele>
        <time>2019-09-11T07:23:53+00:00</time>
      </trkpt>
      <trkpt lat="43.34566116333" lon="-7.5285015106201">
        <ele>490</ele>
        <time>2019-09-11T07:23:54+00:00</time>
      </trkpt>
      <trkpt lat="43.345653533936" lon="-7.5285181999207">
        <ele>490</ele>
        <time>2019-09-11T07:23:55+00:00</time>
      </trkpt>
      <trkpt lat="43.345645904541" lon="-7.5285367965698">
        <ele>490</ele>
        <time>2019-09-11T07:23:56+00:00</time>
      </trkpt>
      <trkpt lat="43.345642089844" lon="-7.52854347229">
        <ele>490</ele>
        <time>2019-09-11T07:23:57+00:00</time>
      </trkpt>
      <trkpt lat="43.345638275146" lon="-7.5285549163818">
        <ele>490</ele>
        <time>2019-09-11T07:23:58+00:00</time>
      </trkpt>
      <trkpt lat="43.345630645752" lon="-7.5285601615906">
        <ele>489</ele>
        <time>2019-09-11T07:23:59+00:00</time>
      </trkpt>
      <trkpt lat="43.345630645752" lon="-7.5285782814026">
        <ele>489</ele>
        <time>2019-09-11T07:24:00+00:00</time>
      </trkpt>
      <trkpt lat="43.345630645752" lon="-7.5285949707031">
        <ele>489</ele>
        <time>2019-09-11T07:24:01+00:00</time>
      </trkpt>
      <trkpt lat="43.345634460449" lon="-7.5286116600037">
        <ele>489</ele>
        <time>2019-09-11T07:24:02+00:00</time>
      </trkpt>
      <trkpt lat="43.345630645752" lon="-7.5286483764648">
        <ele>489</ele>
        <time>2019-09-11T07:24:03+00:00</time>
      </trkpt>
      <trkpt lat="43.345626831055" lon="-7.5286731719971">
        <ele>489</ele>
        <time>2019-09-11T07:24:04+00:00</time>
      </trkpt>
      <trkpt lat="43.345626831055" lon="-7.5286917686462">
        <ele>489</ele>
        <time>2019-09-11T07:24:05+00:00</time>
      </trkpt>
      <trkpt lat="43.34561920166" lon="-7.5287251472473">
        <ele>489</ele>
        <time>2019-09-11T07:24:06+00:00</time>
      </trkpt>
      <trkpt lat="43.345615386963" lon="-7.5287599563599">
        <ele>489</ele>
        <time>2019-09-11T07:24:07+00:00</time>
      </trkpt>
      <trkpt lat="43.345615386963" lon="-7.5287885665894">
        <ele>489</ele>
        <time>2019-09-11T07:24:08+00:00</time>
      </trkpt>
      <trkpt lat="43.345611572266" lon="-7.5288114547729">
        <ele>489</ele>
        <time>2019-09-11T07:24:09+00:00</time>
      </trkpt>
      <trkpt lat="43.345611572266" lon="-7.5288348197937">
        <ele>489</ele>
        <time>2019-09-11T07:24:10+00:00</time>
      </trkpt>
      <trkpt lat="43.345611572266" lon="-7.5288515090942">
        <ele>489</ele>
        <time>2019-09-11T07:24:11+00:00</time>
      </trkpt>
      <trkpt lat="43.345615386963" lon="-7.5288701057434">
        <ele>489</ele>
        <time>2019-09-11T07:24:12+00:00</time>
      </trkpt>
      <trkpt lat="43.345615386963" lon="-7.5288867950439">
        <ele>489</ele>
        <time>2019-09-11T07:24:13+00:00</time>
      </trkpt>
      <trkpt lat="43.34561920166" lon="-7.5288982391357">
        <ele>489</ele>
        <time>2019-09-11T07:24:14+00:00</time>
      </trkpt>
      <trkpt lat="43.345623016357" lon="-7.5289115905762">
        <ele>489</ele>
        <time>2019-09-11T07:24:15+00:00</time>
      </trkpt>
      <trkpt lat="43.34561920166" lon="-7.5289216041565">
        <ele>489</ele>
        <time>2019-09-11T07:24:16+00:00</time>
      </trkpt>
      <trkpt lat="43.345615386963" lon="-7.5289301872253">
        <ele>489</ele>
        <time>2019-09-11T07:24:17+00:00</time>
      </trkpt>
      <trkpt lat="43.345615386963" lon="-7.5289435386658">
        <ele>488</ele>
        <time>2019-09-11T07:24:18+00:00</time>
      </trkpt>
      <trkpt lat="43.345607757568" lon="-7.5289602279663">
        <ele>488</ele>
        <time>2019-09-11T07:24:19+00:00</time>
      </trkpt>
      <trkpt lat="43.345611572266" lon="-7.5289764404297">
        <ele>488</ele>
        <time>2019-09-11T07:24:20+00:00</time>
      </trkpt>
      <trkpt lat="43.345611572266" lon="-7.52898645401">
        <ele>488</ele>
        <time>2019-09-11T07:24:21+00:00</time>
      </trkpt>
      <trkpt lat="43.345615386963" lon="-7.5290017127991">
        <ele>488</ele>
        <time>2019-09-11T07:24:22+00:00</time>
      </trkpt>
      <trkpt lat="43.345626831055" lon="-7.529016494751">
        <ele>488</ele>
        <time>2019-09-11T07:24:23+00:00</time>
      </trkpt>
      <trkpt lat="43.345630645752" lon="-7.52903175354">
        <ele>488</ele>
        <time>2019-09-11T07:24:24+00:00</time>
      </trkpt>
      <trkpt lat="43.345634460449" lon="-7.5290431976318">
        <ele>488</ele>
        <time>2019-09-11T07:24:25+00:00</time>
      </trkpt>
      <trkpt lat="43.345634460449" lon="-7.5290565490723">
        <ele>488</ele>
        <time>2019-09-11T07:24:26+00:00</time>
      </trkpt>
      <trkpt lat="43.345638275146" lon="-7.5290665626526">
        <ele>488</ele>
        <time>2019-09-11T07:24:27+00:00</time>
      </trkpt>
      <trkpt lat="43.345649719238" lon="-7.5290765762329">
        <ele>488</ele>
        <time>2019-09-11T07:24:28+00:00</time>
      </trkpt>
      <trkpt lat="43.345653533936" lon="-7.5290865898132">
        <ele>488</ele>
        <time>2019-09-11T07:24:29+00:00</time>
      </trkpt>
      <trkpt lat="43.345657348633" lon="-7.5290999412537">
        <ele>488</ele>
        <time>2019-09-11T07:24:30+00:00</time>
      </trkpt>
      <trkpt lat="43.34566116333" lon="-7.5291085243225">
        <ele>488</ele>
        <time>2019-09-11T07:24:31+00:00</time>
      </trkpt>
      <trkpt lat="43.345664978027" lon="-7.5291166305542">
        <ele>488</ele>
        <time>2019-09-11T07:24:32+00:00</time>
      </trkpt>
      <trkpt lat="43.345672607422" lon="-7.5291266441345">
        <ele>488</ele>
        <time>2019-09-11T07:24:34+00:00</time>
      </trkpt>
      <trkpt lat="43.345672607422" lon="-7.5291385650635">
        <ele>487</ele>
        <time>2019-09-11T07:24:35+00:00</time>
      </trkpt>
      <trkpt lat="43.345672607422" lon="-7.5291466712952">
        <ele>487</ele>
        <time>2019-09-11T07:24:36+00:00</time>
      </trkpt>
      <trkpt lat="43.345664978027" lon="-7.5291833877563">
        <ele>487</ele>
        <time>2019-09-11T07:24:37+00:00</time>
      </trkpt>
      <trkpt lat="43.345668792725" lon="-7.529191493988">
        <ele>487</ele>
        <time>2019-09-11T07:24:38+00:00</time>
      </trkpt>
      <trkpt lat="43.345668792725" lon="-7.5292100906372">
        <ele>487</ele>
        <time>2019-09-11T07:24:39+00:00</time>
      </trkpt>
      <trkpt lat="43.345668792725" lon="-7.5292148590088">
        <ele>487</ele>
        <time>2019-09-11T07:24:40+00:00</time>
      </trkpt>
      <trkpt lat="43.345664978027" lon="-7.5292348861694">
        <ele>487</ele>
        <time>2019-09-11T07:24:41+00:00</time>
      </trkpt>
      <trkpt lat="43.345668792725" lon="-7.5292549133301">
        <ele>487</ele>
        <time>2019-09-11T07:24:42+00:00</time>
      </trkpt>
      <trkpt lat="43.345664978027" lon="-7.5292701721191">
        <ele>487</ele>
        <time>2019-09-11T07:24:43+00:00</time>
      </trkpt>
      <trkpt lat="43.345664978027" lon="-7.5292816162109">
        <ele>487</ele>
        <time>2019-09-11T07:24:44+00:00</time>
      </trkpt>
      <trkpt lat="43.345664978027" lon="-7.5292983055115">
        <ele>487</ele>
        <time>2019-09-11T07:24:45+00:00</time>
      </trkpt>
      <trkpt lat="43.345657348633" lon="-7.5293135643005">
        <ele>487</ele>
        <time>2019-09-11T07:24:46+00:00</time>
      </trkpt>
      <trkpt lat="43.345657348633" lon="-7.5293250083923">
        <ele>487</ele>
        <time>2019-09-11T07:24:47+00:00</time>
      </trkpt>
      <trkpt lat="43.345653533936" lon="-7.5293416976929">
        <ele>487</ele>
        <time>2019-09-11T07:24:48+00:00</time>
      </trkpt>
      <trkpt lat="43.345642089844" lon="-7.5293531417847">
        <ele>488</ele>
        <time>2019-09-11T07:24:49+00:00</time>
      </trkpt>
      <trkpt lat="43.345638275146" lon="-7.5293664932251">
        <ele>488</ele>
        <time>2019-09-11T07:24:50+00:00</time>
      </trkpt>
      <trkpt lat="43.345638275146" lon="-7.5293817520142">
        <ele>488</ele>
        <time>2019-09-11T07:24:51+00:00</time>
      </trkpt>
      <trkpt lat="43.345634460449" lon="-7.5293951034546">
        <ele>488</ele>
        <time>2019-09-11T07:24:52+00:00</time>
      </trkpt>
      <trkpt lat="43.345634460449" lon="-7.5294032096863">
        <ele>488</ele>
        <time>2019-09-11T07:24:53+00:00</time>
      </trkpt>
      <trkpt lat="43.345630645752" lon="-7.5294165611267">
        <ele>488</ele>
        <time>2019-09-11T07:24:54+00:00</time>
      </trkpt>
      <trkpt lat="43.345626831055" lon="-7.529426574707">
        <ele>487</ele>
        <time>2019-09-11T07:24:55+00:00</time>
      </trkpt>
      <trkpt lat="43.345626831055" lon="-7.529438495636">
        <ele>487</ele>
        <time>2019-09-11T07:24:56+00:00</time>
      </trkpt>
      <trkpt lat="43.345623016357" lon="-7.5294518470764">
        <ele>487</ele>
        <time>2019-09-11T07:24:57+00:00</time>
      </trkpt>
      <trkpt lat="43.345615386963" lon="-7.529468536377">
        <ele>487</ele>
        <time>2019-09-11T07:24:58+00:00</time>
      </trkpt>
      <trkpt lat="43.345611572266" lon="-7.5294852256775">
        <ele>487</ele>
        <time>2019-09-11T07:24:59+00:00</time>
      </trkpt>
      <trkpt lat="43.345611572266" lon="-7.529504776001">
        <ele>487</ele>
        <time>2019-09-11T07:25:00+00:00</time>
      </trkpt>
      <trkpt lat="43.345611572266" lon="-7.5295214653015">
        <ele>487</ele>
        <time>2019-09-11T07:25:01+00:00</time>
      </trkpt>
      <trkpt lat="43.345607757568" lon="-7.5295381546021">
        <ele>487</ele>
        <time>2019-09-11T07:25:02+00:00</time>
      </trkpt>
      <trkpt lat="43.345611572266" lon="-7.5295548439026">
        <ele>487</ele>
        <time>2019-09-11T07:25:03+00:00</time>
      </trkpt>
      <trkpt lat="43.345607757568" lon="-7.5295715332031">
        <ele>487</ele>
        <time>2019-09-11T07:25:04+00:00</time>
      </trkpt>
      <trkpt lat="43.345607757568" lon="-7.5295867919922">
        <ele>487</ele>
        <time>2019-09-11T07:25:05+00:00</time>
      </trkpt>
      <trkpt lat="43.345603942871" lon="-7.5296001434326">
        <ele>487</ele>
        <time>2019-09-11T07:25:06+00:00</time>
      </trkpt>
      <trkpt lat="43.345607757568" lon="-7.5296149253845">
        <ele>487</ele>
        <time>2019-09-11T07:25:07+00:00</time>
      </trkpt>
      <trkpt lat="43.345603942871" lon="-7.5296301841736">
        <ele>487</ele>
        <time>2019-09-11T07:25:08+00:00</time>
      </trkpt>
      <trkpt lat="43.345600128174" lon="-7.5296468734741">
        <ele>487</ele>
        <time>2019-09-11T07:25:09+00:00</time>
      </trkpt>
      <trkpt lat="43.345596313477" lon="-7.529661655426">
        <ele>487</ele>
        <time>2019-09-11T07:25:10+00:00</time>
      </trkpt>
      <trkpt lat="43.345581054688" lon="-7.5296716690063">
        <ele>487</ele>
        <time>2019-09-11T07:25:11+00:00</time>
      </trkpt>
      <trkpt lat="43.345573425293" lon="-7.5296864509583">
        <ele>487</ele>
        <time>2019-09-11T07:25:12+00:00</time>
      </trkpt>
      <trkpt lat="43.345565795898" lon="-7.5296983718872">
        <ele>486</ele>
        <time>2019-09-11T07:25:13+00:00</time>
      </trkpt>
      <trkpt lat="43.345561981201" lon="-7.5297117233276">
        <ele>486</ele>
        <time>2019-09-11T07:25:14+00:00</time>
      </trkpt>
      <trkpt lat="43.345558166504" lon="-7.5297265052795">
        <ele>486</ele>
        <time>2019-09-11T07:25:15+00:00</time>
      </trkpt>
      <trkpt lat="43.345550537109" lon="-7.5297451019287">
        <ele>486</ele>
        <time>2019-09-11T07:25:16+00:00</time>
      </trkpt>
      <trkpt lat="43.345542907715" lon="-7.5297584533691">
        <ele>486</ele>
        <time>2019-09-11T07:25:17+00:00</time>
      </trkpt>
      <trkpt lat="43.345546722412" lon="-7.5297718048096">
        <ele>486</ele>
        <time>2019-09-11T07:25:18+00:00</time>
      </trkpt>
      <trkpt lat="43.345542907715" lon="-7.5297899246216">
        <ele>486</ele>
        <time>2019-09-11T07:25:19+00:00</time>
      </trkpt>
      <trkpt lat="43.345546722412" lon="-7.5298118591309">
        <ele>486</ele>
        <time>2019-09-11T07:25:20+00:00</time>
      </trkpt>
      <trkpt lat="43.345554351807" lon="-7.5298199653625">
        <ele>486</ele>
        <time>2019-09-11T07:25:21+00:00</time>
      </trkpt>
      <trkpt lat="43.345558166504" lon="-7.529833316803">
        <ele>486</ele>
        <time>2019-09-11T07:25:22+00:00</time>
      </trkpt>
      <trkpt lat="43.345561981201" lon="-7.5298399925232">
        <ele>486</ele>
        <time>2019-09-11T07:25:23+00:00</time>
      </trkpt>
      <trkpt lat="43.345569610596" lon="-7.5298452377319">
        <ele>486</ele>
        <time>2019-09-11T07:25:24+00:00</time>
      </trkpt>
      <trkpt lat="43.345573425293" lon="-7.5298581123352">
        <ele>486</ele>
        <time>2019-09-11T07:25:25+00:00</time>
      </trkpt>
      <trkpt lat="43.345581054688" lon="-7.5298600196838">
        <ele>486</ele>
        <time>2019-09-11T07:25:26+00:00</time>
      </trkpt>
      <trkpt lat="43.345581054688" lon="-7.5298647880554">
        <ele>486</ele>
        <time>2019-09-11T07:25:27+00:00</time>
      </trkpt>
      <trkpt lat="43.345573425293" lon="-7.5298767089844">
        <ele>486</ele>
        <time>2019-09-11T07:25:28+00:00</time>
      </trkpt>
      <trkpt lat="43.345565795898" lon="-7.529896736145">
        <ele>486</ele>
        <time>2019-09-11T07:25:29+00:00</time>
      </trkpt>
      <trkpt lat="43.345558166504" lon="-7.5299181938171">
        <ele>486</ele>
        <time>2019-09-11T07:25:30+00:00</time>
      </trkpt>
      <trkpt lat="43.345554351807" lon="-7.5299282073975">
        <ele>486</ele>
        <time>2019-09-11T07:25:31+00:00</time>
      </trkpt>
      <trkpt lat="43.345550537109" lon="-7.5299434661865">
        <ele>486</ele>
        <time>2019-09-11T07:25:32+00:00</time>
      </trkpt>
      <trkpt lat="43.345546722412" lon="-7.5299615859985">
        <ele>486</ele>
        <time>2019-09-11T07:25:33+00:00</time>
      </trkpt>
      <trkpt lat="43.345546722412" lon="-7.5299768447876">
        <ele>486</ele>
        <time>2019-09-11T07:25:34+00:00</time>
      </trkpt>
      <trkpt lat="43.345531463623" lon="-7.529990196228">
        <ele>486</ele>
        <time>2019-09-11T07:25:35+00:00</time>
      </trkpt>
      <trkpt lat="43.345527648926" lon="-7.5300002098083">
        <ele>486</ele>
        <time>2019-09-11T07:25:36+00:00</time>
      </trkpt>
      <trkpt lat="43.345516204834" lon="-7.5300135612488">
        <ele>486</ele>
        <time>2019-09-11T07:25:37+00:00</time>
      </trkpt>
      <trkpt lat="43.345504760742" lon="-7.5300264358521">
        <ele>486</ele>
        <time>2019-09-11T07:25:38+00:00</time>
      </trkpt>
      <trkpt lat="43.345497131348" lon="-7.5300416946411">
        <ele>486</ele>
        <time>2019-09-11T07:25:39+00:00</time>
      </trkpt>
      <trkpt lat="43.345485687256" lon="-7.5300498008728">
        <ele>486</ele>
        <time>2019-09-11T07:25:40+00:00</time>
      </trkpt>
      <trkpt lat="43.345485687256" lon="-7.5300617218018">
        <ele>486</ele>
        <time>2019-09-11T07:25:41+00:00</time>
      </trkpt>
      <trkpt lat="43.345481872559" lon="-7.5300731658936">
        <ele>486</ele>
        <time>2019-09-11T07:25:42+00:00</time>
      </trkpt>
      <trkpt lat="43.345474243164" lon="-7.5300884246826">
        <ele>486</ele>
        <time>2019-09-11T07:25:43+00:00</time>
      </trkpt>
      <trkpt lat="43.34546661377" lon="-7.530101776123">
        <ele>485</ele>
        <time>2019-09-11T07:25:44+00:00</time>
      </trkpt>
      <trkpt lat="43.345455169678" lon="-7.5301132202148">
        <ele>485</ele>
        <time>2019-09-11T07:25:45+00:00</time>
      </trkpt>
      <trkpt lat="43.345447540283" lon="-7.5301284790039">
        <ele>485</ele>
        <time>2019-09-11T07:25:46+00:00</time>
      </trkpt>
      <trkpt lat="43.345439910889" lon="-7.5301399230957">
        <ele>485</ele>
        <time>2019-09-11T07:25:47+00:00</time>
      </trkpt>
      <trkpt lat="43.345428466797" lon="-7.5301485061646">
        <ele>485</ele>
        <time>2019-09-11T07:25:48+00:00</time>
      </trkpt>
      <trkpt lat="43.345420837402" lon="-7.5301532745361">
        <ele>485</ele>
        <time>2019-09-11T07:25:49+00:00</time>
      </trkpt>
      <trkpt lat="43.345413208008" lon="-7.5301685333252">
        <ele>485</ele>
        <time>2019-09-11T07:25:50+00:00</time>
      </trkpt>
      <trkpt lat="43.345405578613" lon="-7.5301866531372">
        <ele>485</ele>
        <time>2019-09-11T07:25:51+00:00</time>
      </trkpt>
      <trkpt lat="43.345394134521" lon="-7.5302047729492">
        <ele>485</ele>
        <time>2019-09-11T07:25:52+00:00</time>
      </trkpt>
      <trkpt lat="43.345386505127" lon="-7.5302166938782">
        <ele>485</ele>
        <time>2019-09-11T07:25:53+00:00</time>
      </trkpt>
      <trkpt lat="43.345375061035" lon="-7.5302300453186">
        <ele>485</ele>
        <time>2019-09-11T07:25:54+00:00</time>
      </trkpt>
      <trkpt lat="43.345367431641" lon="-7.5302381515503">
        <ele>485</ele>
        <time>2019-09-11T07:25:55+00:00</time>
      </trkpt>
      <trkpt lat="43.345359802246" lon="-7.5302567481995">
        <ele>484</ele>
        <time>2019-09-11T07:25:56+00:00</time>
      </trkpt>
      <trkpt lat="43.345352172852" lon="-7.5302648544312">
        <ele>484</ele>
        <time>2019-09-11T07:25:57+00:00</time>
      </trkpt>
      <trkpt lat="43.345348358154" lon="-7.5302734375">
        <ele>484</ele>
        <time>2019-09-11T07:25:58+00:00</time>
      </trkpt>
      <trkpt lat="43.34534072876" lon="-7.5302815437317">
        <ele>484</ele>
        <time>2019-09-11T07:25:59+00:00</time>
      </trkpt>
      <trkpt lat="43.345336914062" lon="-7.5302867889404">
        <ele>484</ele>
        <time>2019-09-11T07:26:00+00:00</time>
      </trkpt>
      <trkpt lat="43.345329284668" lon="-7.5302834510803">
        <ele>484</ele>
        <time>2019-09-11T07:26:01+00:00</time>
      </trkpt>
      <trkpt lat="43.345321655273" lon="-7.5302934646606">
        <ele>484</ele>
        <time>2019-09-11T07:26:02+00:00</time>
      </trkpt>
      <trkpt lat="43.345317840576" lon="-7.5303082466125">
        <ele>484</ele>
        <time>2019-09-11T07:26:03+00:00</time>
      </trkpt>
      <trkpt lat="43.345314025879" lon="-7.5303201675415">
        <ele>485</ele>
        <time>2019-09-11T07:26:04+00:00</time>
      </trkpt>
      <trkpt lat="43.345310211182" lon="-7.5303316116333">
        <ele>485</ele>
        <time>2019-09-11T07:26:05+00:00</time>
      </trkpt>
      <trkpt lat="43.345302581787" lon="-7.5303483009338">
        <ele>485</ele>
        <time>2019-09-11T07:26:06+00:00</time>
      </trkpt>
      <trkpt lat="43.345302581787" lon="-7.5303616523743">
        <ele>485</ele>
        <time>2019-09-11T07:26:07+00:00</time>
      </trkpt>
      <trkpt lat="43.345302581787" lon="-7.5303750038147">
        <ele>485</ele>
        <time>2019-09-11T07:26:08+00:00</time>
      </trkpt>
      <trkpt lat="43.34529876709" lon="-7.5303897857666">
        <ele>485</ele>
        <time>2019-09-11T07:26:09+00:00</time>
      </trkpt>
      <trkpt lat="43.345294952393" lon="-7.5304064750671">
        <ele>485</ele>
        <time>2019-09-11T07:26:10+00:00</time>
      </trkpt>
      <trkpt lat="43.345287322998" lon="-7.5304298400879">
        <ele>485</ele>
        <time>2019-09-11T07:26:11+00:00</time>
      </trkpt>
      <trkpt lat="43.345283508301" lon="-7.5304498672485">
        <ele>485</ele>
        <time>2019-09-11T07:26:12+00:00</time>
      </trkpt>
      <trkpt lat="43.345279693604" lon="-7.5304718017578">
        <ele>485</ele>
        <time>2019-09-11T07:26:13+00:00</time>
      </trkpt>
      <trkpt lat="43.345275878906" lon="-7.5304918289185">
        <ele>485</ele>
        <time>2019-09-11T07:26:14+00:00</time>
      </trkpt>
      <trkpt lat="43.345275878906" lon="-7.5305118560791">
        <ele>485</ele>
        <time>2019-09-11T07:26:15+00:00</time>
      </trkpt>
      <trkpt lat="43.345272064209" lon="-7.5305352210999">
        <ele>485</ele>
        <time>2019-09-11T07:26:16+00:00</time>
      </trkpt>
      <trkpt lat="43.345264434814" lon="-7.5305533409119">
        <ele>485</ele>
        <time>2019-09-11T07:26:17+00:00</time>
      </trkpt>
      <trkpt lat="43.345260620117" lon="-7.5305700302124">
        <ele>485</ele>
        <time>2019-09-11T07:26:18+00:00</time>
      </trkpt>
      <trkpt lat="43.34525680542" lon="-7.530590057373">
        <ele>485</ele>
        <time>2019-09-11T07:26:19+00:00</time>
      </trkpt>
      <trkpt lat="43.345249176025" lon="-7.530604839325">
        <ele>484</ele>
        <time>2019-09-11T07:26:20+00:00</time>
      </trkpt>
      <trkpt lat="43.345241546631" lon="-7.5306167602539">
        <ele>484</ele>
        <time>2019-09-11T07:26:21+00:00</time>
      </trkpt>
      <trkpt lat="43.345230102539" lon="-7.5306315422058">
        <ele>484</ele>
        <time>2019-09-11T07:26:22+00:00</time>
      </trkpt>
      <trkpt lat="43.345226287842" lon="-7.5306534767151">
        <ele>484</ele>
        <time>2019-09-11T07:26:23+00:00</time>
      </trkpt>
      <trkpt lat="43.345218658447" lon="-7.5306715965271">
        <ele>484</ele>
        <time>2019-09-11T07:26:24+00:00</time>
      </trkpt>
      <trkpt lat="43.345218658447" lon="-7.5306949615479">
        <ele>484</ele>
        <time>2019-09-11T07:26:25+00:00</time>
      </trkpt>
      <trkpt lat="43.34521484375" lon="-7.5307168960571">
        <ele>484</ele>
        <time>2019-09-11T07:26:26+00:00</time>
      </trkpt>
      <trkpt lat="43.34521484375" lon="-7.530731678009">
        <ele>484</ele>
        <time>2019-09-11T07:26:27+00:00</time>
      </trkpt>
      <trkpt lat="43.34521484375" lon="-7.5307483673096">
        <ele>484</ele>
        <time>2019-09-11T07:26:28+00:00</time>
      </trkpt>
      <trkpt lat="43.34521484375" lon="-7.5307631492615">
        <ele>484</ele>
        <time>2019-09-11T07:26:29+00:00</time>
      </trkpt>
      <trkpt lat="43.345222473145" lon="-7.5307817459106">
        <ele>484</ele>
        <time>2019-09-11T07:26:30+00:00</time>
      </trkpt>
      <trkpt lat="43.345222473145" lon="-7.5307998657227">
        <ele>484</ele>
        <time>2019-09-11T07:26:31+00:00</time>
      </trkpt>
      <trkpt lat="43.345218658447" lon="-7.5308198928833">
        <ele>484</ele>
        <time>2019-09-11T07:26:32+00:00</time>
      </trkpt>
      <trkpt lat="43.345222473145" lon="-7.5308365821838">
        <ele>484</ele>
        <time>2019-09-11T07:26:33+00:00</time>
      </trkpt>
      <trkpt lat="43.345230102539" lon="-7.5308485031128">
        <ele>485</ele>
        <time>2019-09-11T07:26:34+00:00</time>
      </trkpt>
      <trkpt lat="43.345230102539" lon="-7.5308718681335">
        <ele>485</ele>
        <time>2019-09-11T07:26:35+00:00</time>
      </trkpt>
      <trkpt lat="43.345230102539" lon="-7.5308866500854">
        <ele>485</ele>
        <time>2019-09-11T07:26:36+00:00</time>
      </trkpt>
      <trkpt lat="43.345230102539" lon="-7.5309000015259">
        <ele>485</ele>
        <time>2019-09-11T07:26:37+00:00</time>
      </trkpt>
      <trkpt lat="43.345230102539" lon="-7.5309147834778">
        <ele>485</ele>
        <time>2019-09-11T07:26:38+00:00</time>
      </trkpt>
      <trkpt lat="43.345230102539" lon="-7.5309348106384">
        <ele>485</ele>
        <time>2019-09-11T07:26:39+00:00</time>
      </trkpt>
      <trkpt lat="43.345230102539" lon="-7.5309481620789">
        <ele>486</ele>
        <time>2019-09-11T07:26:40+00:00</time>
      </trkpt>
      <trkpt lat="43.345226287842" lon="-7.5309634208679">
        <ele>486</ele>
        <time>2019-09-11T07:26:41+00:00</time>
      </trkpt>
      <trkpt lat="43.345226287842" lon="-7.5309748649597">
        <ele>486</ele>
        <time>2019-09-11T07:26:42+00:00</time>
      </trkpt>
      <trkpt lat="43.345218658447" lon="-7.5309882164001">
        <ele>486</ele>
        <time>2019-09-11T07:26:43+00:00</time>
      </trkpt>
      <trkpt lat="43.34521484375" lon="-7.5310082435608">
        <ele>486</ele>
        <time>2019-09-11T07:26:44+00:00</time>
      </trkpt>
      <trkpt lat="43.34521484375" lon="-7.5310301780701">
        <ele>486</ele>
        <time>2019-09-11T07:26:45+00:00</time>
      </trkpt>
      <trkpt lat="43.34521484375" lon="-7.5310516357422">
        <ele>486</ele>
        <time>2019-09-11T07:26:46+00:00</time>
      </trkpt>
      <trkpt lat="43.34521484375" lon="-7.5310668945312">
        <ele>486</ele>
        <time>2019-09-11T07:26:47+00:00</time>
      </trkpt>
      <trkpt lat="43.34521484375" lon="-7.5310816764832">
        <ele>487</ele>
        <time>2019-09-11T07:26:48+00:00</time>
      </trkpt>
      <trkpt lat="43.345211029053" lon="-7.5310964584351">
        <ele>487</ele>
        <time>2019-09-11T07:26:49+00:00</time>
      </trkpt>
      <trkpt lat="43.34521484375" lon="-7.5311131477356">
        <ele>487</ele>
        <time>2019-09-11T07:26:50+00:00</time>
      </trkpt>
      <trkpt lat="43.34521484375" lon="-7.5311250686646">
        <ele>487</ele>
        <time>2019-09-11T07:26:51+00:00</time>
      </trkpt>
      <trkpt lat="43.34521484375" lon="-7.5311398506165">
        <ele>487</ele>
        <time>2019-09-11T07:26:52+00:00</time>
      </trkpt>
      <trkpt lat="43.34521484375" lon="-7.5311551094055">
        <ele>487</ele>
        <time>2019-09-11T07:26:53+00:00</time>
      </trkpt>
      <trkpt lat="43.345211029053" lon="-7.5311751365662">
        <ele>487</ele>
        <time>2019-09-11T07:26:54+00:00</time>
      </trkpt>
      <trkpt lat="43.345211029053" lon="-7.5311899185181">
        <ele>487</ele>
        <time>2019-09-11T07:26:55+00:00</time>
      </trkpt>
      <trkpt lat="43.345207214355" lon="-7.5312066078186">
        <ele>487</ele>
        <time>2019-09-11T07:26:56+00:00</time>
      </trkpt>
      <trkpt lat="43.345203399658" lon="-7.5312232971191">
        <ele>487</ele>
        <time>2019-09-11T07:26:57+00:00</time>
      </trkpt>
      <trkpt lat="43.345203399658" lon="-7.5312418937683">
        <ele>487</ele>
        <time>2019-09-11T07:26:58+00:00</time>
      </trkpt>
      <trkpt lat="43.345203399658" lon="-7.5312600135803">
        <ele>487</ele>
        <time>2019-09-11T07:26:59+00:00</time>
      </trkpt>
      <trkpt lat="43.345191955566" lon="-7.5312767028809">
        <ele>487</ele>
        <time>2019-09-11T07:27:00+00:00</time>
      </trkpt>
      <trkpt lat="43.345191955566" lon="-7.5312900543213">
        <ele>487</ele>
        <time>2019-09-11T07:27:01+00:00</time>
      </trkpt>
      <trkpt lat="43.345195770264" lon="-7.5313048362732">
        <ele>486</ele>
        <time>2019-09-11T07:27:02+00:00</time>
      </trkpt>
      <trkpt lat="43.345195770264" lon="-7.5313248634338">
        <ele>486</ele>
        <time>2019-09-11T07:27:03+00:00</time>
      </trkpt>
      <trkpt lat="43.345188140869" lon="-7.5313401222229">
        <ele>486</ele>
        <time>2019-09-11T07:27:04+00:00</time>
      </trkpt>
      <trkpt lat="43.345184326172" lon="-7.5313568115234">
        <ele>486</ele>
        <time>2019-09-11T07:27:05+00:00</time>
      </trkpt>
      <trkpt lat="43.345180511475" lon="-7.531373500824">
        <ele>486</ele>
        <time>2019-09-11T07:27:06+00:00</time>
      </trkpt>
      <trkpt lat="43.345184326172" lon="-7.5313935279846">
        <ele>486</ele>
        <time>2019-09-11T07:27:07+00:00</time>
      </trkpt>
      <trkpt lat="43.345180511475" lon="-7.531406879425">
        <ele>486</ele>
        <time>2019-09-11T07:27:08+00:00</time>
      </trkpt>
      <trkpt lat="43.345176696777" lon="-7.5314202308655">
        <ele>486</ele>
        <time>2019-09-11T07:27:09+00:00</time>
      </trkpt>
      <trkpt lat="43.345176696777" lon="-7.5314316749573">
        <ele>485</ele>
        <time>2019-09-11T07:27:10+00:00</time>
      </trkpt>
      <trkpt lat="43.345176696777" lon="-7.5314450263977">
        <ele>485</ele>
        <time>2019-09-11T07:27:11+00:00</time>
      </trkpt>
      <trkpt lat="43.345176696777" lon="-7.5314598083496">
        <ele>485</ele>
        <time>2019-09-11T07:27:12+00:00</time>
      </trkpt>
      <trkpt lat="43.345176696777" lon="-7.53147315979">
        <ele>485</ele>
        <time>2019-09-11T07:27:13+00:00</time>
      </trkpt>
      <trkpt lat="43.345180511475" lon="-7.531485080719">
        <ele>485</ele>
        <time>2019-09-11T07:27:14+00:00</time>
      </trkpt>
      <trkpt lat="43.345176696777" lon="-7.5314984321594">
        <ele>485</ele>
        <time>2019-09-11T07:27:15+00:00</time>
      </trkpt>
      <trkpt lat="43.345180511475" lon="-7.5315098762512">
        <ele>485</ele>
        <time>2019-09-11T07:27:16+00:00</time>
      </trkpt>
      <trkpt lat="43.345188140869" lon="-7.5315217971802">
        <ele>485</ele>
        <time>2019-09-11T07:27:17+00:00</time>
      </trkpt>
      <trkpt lat="43.345188140869" lon="-7.5315365791321">
        <ele>485</ele>
        <time>2019-09-11T07:27:18+00:00</time>
      </trkpt>
      <trkpt lat="43.345191955566" lon="-7.5315585136414">
        <ele>485</ele>
        <time>2019-09-11T07:27:19+00:00</time>
      </trkpt>
      <trkpt lat="43.345191955566" lon="-7.5315732955933">
        <ele>485</ele>
        <time>2019-09-11T07:27:20+00:00</time>
      </trkpt>
      <trkpt lat="43.345199584961" lon="-7.5315885543823">
        <ele>485</ele>
        <time>2019-09-11T07:27:21+00:00</time>
      </trkpt>
      <trkpt lat="43.345203399658" lon="-7.5316014289856">
        <ele>485</ele>
        <time>2019-09-11T07:27:22+00:00</time>
      </trkpt>
      <trkpt lat="43.345207214355" lon="-7.5316133499146">
        <ele>485</ele>
        <time>2019-09-11T07:27:23+00:00</time>
      </trkpt>
      <trkpt lat="43.345207214355" lon="-7.5316314697266">
        <ele>484</ele>
        <time>2019-09-11T07:27:24+00:00</time>
      </trkpt>
      <trkpt lat="43.345211029053" lon="-7.531644821167">
        <ele>484</ele>
        <time>2019-09-11T07:27:25+00:00</time>
      </trkpt>
      <trkpt lat="43.345211029053" lon="-7.5316581726074">
        <ele>484</ele>
        <time>2019-09-11T07:27:26+00:00</time>
      </trkpt>
      <trkpt lat="43.34521484375" lon="-7.531674861908">
        <ele>484</ele>
        <time>2019-09-11T07:27:27+00:00</time>
      </trkpt>
      <trkpt lat="43.34521484375" lon="-7.5316882133484">
        <ele>484</ele>
        <time>2019-09-11T07:27:28+00:00</time>
      </trkpt>
      <trkpt lat="43.34521484375" lon="-7.5316982269287">
        <ele>484</ele>
        <time>2019-09-11T07:27:29+00:00</time>
      </trkpt>
      <trkpt lat="43.34521484375" lon="-7.531708240509">
        <ele>484</ele>
        <time>2019-09-11T07:27:30+00:00</time>
      </trkpt>
      <trkpt lat="43.345222473145" lon="-7.5317182540894">
        <ele>484</ele>
        <time>2019-09-11T07:27:31+00:00</time>
      </trkpt>
      <trkpt lat="43.345226287842" lon="-7.5317316055298">
        <ele>484</ele>
        <time>2019-09-11T07:27:32+00:00</time>
      </trkpt>
      <trkpt lat="43.345230102539" lon="-7.5317468643188">
        <ele>484</ele>
        <time>2019-09-11T07:27:33+00:00</time>
      </trkpt>
      <trkpt lat="43.345237731934" lon="-7.5317635536194">
        <ele>484</ele>
        <time>2019-09-11T07:27:34+00:00</time>
      </trkpt>
      <trkpt lat="43.345245361328" lon="-7.5317735671997">
        <ele>484</ele>
        <time>2019-09-11T07:27:35+00:00</time>
      </trkpt>
      <trkpt lat="43.345249176025" lon="-7.5317883491516">
        <ele>484</ele>
        <time>2019-09-11T07:27:36+00:00</time>
      </trkpt>
      <trkpt lat="43.345260620117" lon="-7.531801700592">
        <ele>484</ele>
        <time>2019-09-11T07:27:37+00:00</time>
      </trkpt>
      <trkpt lat="43.345268249512" lon="-7.5318164825439">
        <ele>484</ele>
        <time>2019-09-11T07:27:38+00:00</time>
      </trkpt>
      <trkpt lat="43.345268249512" lon="-7.5318298339844">
        <ele>484</ele>
        <time>2019-09-11T07:27:39+00:00</time>
      </trkpt>
      <trkpt lat="43.345275878906" lon="-7.5318431854248">
        <ele>484</ele>
        <time>2019-09-11T07:27:40+00:00</time>
      </trkpt>
      <trkpt lat="43.345275878906" lon="-7.5318565368652">
        <ele>484</ele>
        <time>2019-09-11T07:27:41+00:00</time>
      </trkpt>
      <trkpt lat="43.345279693604" lon="-7.5318684577942">
        <ele>484</ele>
        <time>2019-09-11T07:27:42+00:00</time>
      </trkpt>
      <trkpt lat="43.345283508301" lon="-7.5318832397461">
        <ele>484</ele>
        <time>2019-09-11T07:27:43+00:00</time>
      </trkpt>
      <trkpt lat="43.345291137695" lon="-7.5318965911865">
        <ele>483</ele>
        <time>2019-09-11T07:27:44+00:00</time>
      </trkpt>
      <trkpt lat="43.345294952393" lon="-7.5319118499756">
        <ele>483</ele>
        <time>2019-09-11T07:27:45+00:00</time>
      </trkpt>
      <trkpt lat="43.34529876709" lon="-7.5319285392761">
        <ele>483</ele>
        <time>2019-09-11T07:27:46+00:00</time>
      </trkpt>
      <trkpt lat="43.345306396484" lon="-7.5319452285767">
        <ele>483</ele>
        <time>2019-09-11T07:27:47+00:00</time>
      </trkpt>
      <trkpt lat="43.34529876709" lon="-7.5319547653198">
        <ele>483</ele>
        <time>2019-09-11T07:27:48+00:00</time>
      </trkpt>
      <trkpt lat="43.345294952393" lon="-7.5319681167603">
        <ele>483</ele>
        <time>2019-09-11T07:27:49+00:00</time>
      </trkpt>
      <trkpt lat="43.34529876709" lon="-7.5319800376892">
        <ele>483</ele>
        <time>2019-09-11T07:27:50+00:00</time>
      </trkpt>
      <trkpt lat="43.345302581787" lon="-7.5319933891296">
        <ele>483</ele>
        <time>2019-09-11T07:27:51+00:00</time>
      </trkpt>
      <trkpt lat="43.345306396484" lon="-7.5320067405701">
        <ele>483</ele>
        <time>2019-09-11T07:27:52+00:00</time>
      </trkpt>
      <trkpt lat="43.345306396484" lon="-7.5320167541504">
        <ele>484</ele>
        <time>2019-09-11T07:27:53+00:00</time>
      </trkpt>
      <trkpt lat="43.345310211182" lon="-7.5320301055908">
        <ele>484</ele>
        <time>2019-09-11T07:27:54+00:00</time>
      </trkpt>
      <trkpt lat="43.345314025879" lon="-7.5320448875427">
        <ele>484</ele>
        <time>2019-09-11T07:27:55+00:00</time>
      </trkpt>
      <trkpt lat="43.345321655273" lon="-7.5320601463318">
        <ele>484</ele>
        <time>2019-09-11T07:27:56+00:00</time>
      </trkpt>
      <trkpt lat="43.345321655273" lon="-7.5320768356323">
        <ele>484</ele>
        <time>2019-09-11T07:27:57+00:00</time>
      </trkpt>
      <trkpt lat="43.345321655273" lon="-7.5320935249329">
        <ele>484</ele>
        <time>2019-09-11T07:27:58+00:00</time>
      </trkpt>
      <trkpt lat="43.345321655273" lon="-7.5321297645569">
        <ele>484</ele>
        <time>2019-09-11T07:28:00+00:00</time>
      </trkpt>
      <trkpt lat="43.345325469971" lon="-7.5321450233459">
        <ele>484</ele>
        <time>2019-09-11T07:28:01+00:00</time>
      </trkpt>
      <trkpt lat="43.345329284668" lon="-7.5321617126465">
        <ele>484</ele>
        <time>2019-09-11T07:28:02+00:00</time>
      </trkpt>
      <trkpt lat="43.345336914062" lon="-7.5321750640869">
        <ele>484</ele>
        <time>2019-09-11T07:28:03+00:00</time>
      </trkpt>
      <trkpt lat="43.345348358154" lon="-7.5321917533875">
        <ele>484</ele>
        <time>2019-09-11T07:28:04+00:00</time>
      </trkpt>
      <trkpt lat="43.345359802246" lon="-7.5322031974792">
        <ele>484</ele>
        <time>2019-09-11T07:28:05+00:00</time>
      </trkpt>
      <trkpt lat="43.345367431641" lon="-7.5322117805481">
        <ele>484</ele>
        <time>2019-09-11T07:28:06+00:00</time>
      </trkpt>
      <trkpt lat="43.345375061035" lon="-7.5322217941284">
        <ele>484</ele>
        <time>2019-09-11T07:28:07+00:00</time>
      </trkpt>
      <trkpt lat="43.345375061035" lon="-7.5322318077087">
        <ele>485</ele>
        <time>2019-09-11T07:28:08+00:00</time>
      </trkpt>
      <trkpt lat="43.345375061035" lon="-7.5322465896606">
        <ele>485</ele>
        <time>2019-09-11T07:28:09+00:00</time>
      </trkpt>
      <trkpt lat="43.345375061035" lon="-7.5322651863098">
        <ele>485</ele>
        <time>2019-09-11T07:28:10+00:00</time>
      </trkpt>
      <trkpt lat="43.345371246338" lon="-7.5322785377502">
        <ele>485</ele>
        <time>2019-09-11T07:28:11+00:00</time>
      </trkpt>
      <trkpt lat="43.345375061035" lon="-7.5322933197021">
        <ele>485</ele>
        <time>2019-09-11T07:28:12+00:00</time>
      </trkpt>
      <trkpt lat="43.345375061035" lon="-7.5323066711426">
        <ele>485</ele>
        <time>2019-09-11T07:28:13+00:00</time>
      </trkpt>
      <trkpt lat="43.34538269043" lon="-7.532320022583">
        <ele>485</ele>
        <time>2019-09-11T07:28:14+00:00</time>
      </trkpt>
      <trkpt lat="43.345378875732" lon="-7.5323414802551">
        <ele>485</ele>
        <time>2019-09-11T07:28:15+00:00</time>
      </trkpt>
      <trkpt lat="43.345378875732" lon="-7.5323581695557">
        <ele>485</ele>
        <time>2019-09-11T07:28:16+00:00</time>
      </trkpt>
      <trkpt lat="43.345378875732" lon="-7.5323748588562">
        <ele>485</ele>
        <time>2019-09-11T07:28:17+00:00</time>
      </trkpt>
      <trkpt lat="43.34538269043" lon="-7.5323915481567">
        <ele>485</ele>
        <time>2019-09-11T07:28:18+00:00</time>
      </trkpt>
      <trkpt lat="43.345386505127" lon="-7.5324068069458">
        <ele>485</ele>
        <time>2019-09-11T07:28:19+00:00</time>
      </trkpt>
      <trkpt lat="43.345390319824" lon="-7.5324215888977">
        <ele>484</ele>
        <time>2019-09-11T07:28:20+00:00</time>
      </trkpt>
      <trkpt lat="43.345390319824" lon="-7.5324382781982">
        <ele>484</ele>
        <time>2019-09-11T07:28:21+00:00</time>
      </trkpt>
      <trkpt lat="43.345397949219" lon="-7.5324549674988">
        <ele>484</ele>
        <time>2019-09-11T07:28:22+00:00</time>
      </trkpt>
      <trkpt lat="43.345401763916" lon="-7.5324683189392">
        <ele>484</ele>
        <time>2019-09-11T07:28:23+00:00</time>
      </trkpt>
      <trkpt lat="43.345397949219" lon="-7.5324897766113">
        <ele>484</ele>
        <time>2019-09-11T07:28:24+00:00</time>
      </trkpt>
      <trkpt lat="43.345401763916" lon="-7.5325016975403">
        <ele>485</ele>
        <time>2019-09-11T07:28:25+00:00</time>
      </trkpt>
      <trkpt lat="43.345401763916" lon="-7.5325183868408">
        <ele>484</ele>
        <time>2019-09-11T07:28:26+00:00</time>
      </trkpt>
      <trkpt lat="43.345397949219" lon="-7.5325365066528">
        <ele>485</ele>
        <time>2019-09-11T07:28:27+00:00</time>
      </trkpt>
      <trkpt lat="43.345405578613" lon="-7.5325484275818">
        <ele>484</ele>
        <time>2019-09-11T07:28:28+00:00</time>
      </trkpt>
      <trkpt lat="43.345413208008" lon="-7.5325665473938">
        <ele>484</ele>
        <time>2019-09-11T07:28:29+00:00</time>
      </trkpt>
      <trkpt lat="43.345413208008" lon="-7.5325832366943">
        <ele>484</ele>
        <time>2019-09-11T07:28:30+00:00</time>
      </trkpt>
      <trkpt lat="43.345413208008" lon="-7.5326018333435">
        <ele>484</ele>
        <time>2019-09-11T07:28:31+00:00</time>
      </trkpt>
      <trkpt lat="43.345409393311" lon="-7.5326218605042">
        <ele>484</ele>
        <time>2019-09-11T07:28:32+00:00</time>
      </trkpt>
      <trkpt lat="43.345413208008" lon="-7.5326352119446">
        <ele>484</ele>
        <time>2019-09-11T07:28:33+00:00</time>
      </trkpt>
      <trkpt lat="43.345413208008" lon="-7.532648563385">
        <ele>484</ele>
        <time>2019-09-11T07:28:34+00:00</time>
      </trkpt>
      <trkpt lat="43.345413208008" lon="-7.5326614379883">
        <ele>484</ele>
        <time>2019-09-11T07:28:35+00:00</time>
      </trkpt>
      <trkpt lat="43.345417022705" lon="-7.5326747894287">
        <ele>484</ele>
        <time>2019-09-11T07:28:36+00:00</time>
      </trkpt>
      <trkpt lat="43.345420837402" lon="-7.5326900482178">
        <ele>484</ele>
        <time>2019-09-11T07:28:37+00:00</time>
      </trkpt>
      <trkpt lat="43.345420837402" lon="-7.5327048301697">
        <ele>484</ele>
        <time>2019-09-11T07:28:38+00:00</time>
      </trkpt>
      <trkpt lat="43.345428466797" lon="-7.5327167510986">
        <ele>484</ele>
        <time>2019-09-11T07:28:39+00:00</time>
      </trkpt>
      <trkpt lat="43.345428466797" lon="-7.5327301025391">
        <ele>484</ele>
        <time>2019-09-11T07:28:40+00:00</time>
      </trkpt>
      <trkpt lat="43.345432281494" lon="-7.5327401161194">
        <ele>484</ele>
        <time>2019-09-11T07:28:41+00:00</time>
      </trkpt>
      <trkpt lat="43.345428466797" lon="-7.5327482223511">
        <ele>483</ele>
        <time>2019-09-11T07:28:42+00:00</time>
      </trkpt>
      <trkpt lat="43.345432281494" lon="-7.5327634811401">
        <ele>483</ele>
        <time>2019-09-11T07:28:43+00:00</time>
      </trkpt>
      <trkpt lat="43.345436096191" lon="-7.532778263092">
        <ele>483</ele>
        <time>2019-09-11T07:28:44+00:00</time>
      </trkpt>
      <trkpt lat="43.345436096191" lon="-7.5327868461609">
        <ele>483</ele>
        <time>2019-09-11T07:28:45+00:00</time>
      </trkpt>
      <trkpt lat="43.345439910889" lon="-7.5328049659729">
        <ele>483</ele>
        <time>2019-09-11T07:28:46+00:00</time>
      </trkpt>
      <trkpt lat="43.345443725586" lon="-7.5328269004822">
        <ele>483</ele>
        <time>2019-09-11T07:28:47+00:00</time>
      </trkpt>
      <trkpt lat="43.345439910889" lon="-7.5328431129456">
        <ele>483</ele>
        <time>2019-09-11T07:28:48+00:00</time>
      </trkpt>
      <trkpt lat="43.345439910889" lon="-7.5328598022461">
        <ele>483</ele>
        <time>2019-09-11T07:28:49+00:00</time>
      </trkpt>
      <trkpt lat="43.345439910889" lon="-7.5328783988953">
        <ele>483</ele>
        <time>2019-09-11T07:28:50+00:00</time>
      </trkpt>
      <trkpt lat="43.345432281494" lon="-7.5328950881958">
        <ele>483</ele>
        <time>2019-09-11T07:28:51+00:00</time>
      </trkpt>
      <trkpt lat="43.345436096191" lon="-7.5329165458679">
        <ele>483</ele>
        <time>2019-09-11T07:28:52+00:00</time>
      </trkpt>
      <trkpt lat="43.345436096191" lon="-7.5329332351685">
        <ele>483</ele>
        <time>2019-09-11T07:28:53+00:00</time>
      </trkpt>
      <trkpt lat="43.345439910889" lon="-7.5329518318176">
        <ele>483</ele>
        <time>2019-09-11T07:28:54+00:00</time>
      </trkpt>
      <trkpt lat="43.345439910889" lon="-7.5329699516296">
        <ele>483</ele>
        <time>2019-09-11T07:28:55+00:00</time>
      </trkpt>
      <trkpt lat="43.345447540283" lon="-7.5329852104187">
        <ele>483</ele>
        <time>2019-09-11T07:28:56+00:00</time>
      </trkpt>
      <trkpt lat="43.345443725586" lon="-7.5330066680908">
        <ele>483</ele>
        <time>2019-09-11T07:28:57+00:00</time>
      </trkpt>
      <trkpt lat="43.345443725586" lon="-7.5330266952515">
        <ele>483</ele>
        <time>2019-09-11T07:28:58+00:00</time>
      </trkpt>
      <trkpt lat="43.345439910889" lon="-7.5330414772034">
        <ele>483</ele>
        <time>2019-09-11T07:28:59+00:00</time>
      </trkpt>
      <trkpt lat="43.345436096191" lon="-7.5330581665039">
        <ele>483</ele>
        <time>2019-09-11T07:29:00+00:00</time>
      </trkpt>
      <trkpt lat="43.345436096191" lon="-7.5330715179443">
        <ele>483</ele>
        <time>2019-09-11T07:29:01+00:00</time>
      </trkpt>
      <trkpt lat="43.345432281494" lon="-7.5330815315247">
        <ele>483</ele>
        <time>2019-09-11T07:29:02+00:00</time>
      </trkpt>
      <trkpt lat="43.345428466797" lon="-7.5330982208252">
        <ele>483</ele>
        <time>2019-09-11T07:29:03+00:00</time>
      </trkpt>
      <trkpt lat="43.345420837402" lon="-7.5331134796143">
        <ele>483</ele>
        <time>2019-09-11T07:29:04+00:00</time>
      </trkpt>
      <trkpt lat="43.345420837402" lon="-7.5331249237061">
        <ele>483</ele>
        <time>2019-09-11T07:29:05+00:00</time>
      </trkpt>
      <trkpt lat="43.345405578613" lon="-7.533136844635">
        <ele>483</ele>
        <time>2019-09-11T07:29:06+00:00</time>
      </trkpt>
      <trkpt lat="43.345405578613" lon="-7.5331382751465">
        <ele>483</ele>
        <time>2019-09-11T07:29:07+00:00</time>
      </trkpt>
      <trkpt lat="43.345401763916" lon="-7.5331335067749">
        <ele>483</ele>
        <time>2019-09-11T07:29:08+00:00</time>
      </trkpt>
      <trkpt lat="43.345394134521" lon="-7.5331335067749">
        <ele>483</ele>
        <time>2019-09-11T07:29:09+00:00</time>
      </trkpt>
      <trkpt lat="43.345386505127" lon="-7.5331335067749">
        <ele>483</ele>
        <time>2019-09-11T07:29:10+00:00</time>
      </trkpt>
      <trkpt lat="43.345375061035" lon="-7.5331315994263">
        <ele>483</ele>
        <time>2019-09-11T07:29:11+00:00</time>
      </trkpt>
      <trkpt lat="43.345375061035" lon="-7.5331301689148">
        <ele>483</ele>
        <time>2019-09-11T07:29:12+00:00</time>
      </trkpt>
      <trkpt lat="43.345359802246" lon="-7.533136844635">
        <ele>483</ele>
        <time>2019-09-11T07:29:13+00:00</time>
      </trkpt>
      <trkpt lat="43.345348358154" lon="-7.5331401824951">
        <ele>483</ele>
        <time>2019-09-11T07:29:14+00:00</time>
      </trkpt>
      <trkpt lat="43.345344543457" lon="-7.5331435203552">
        <ele>483</ele>
        <time>2019-09-11T07:29:15+00:00</time>
      </trkpt>
      <trkpt lat="43.345336914062" lon="-7.5331482887268">
        <ele>483</ele>
        <time>2019-09-11T07:29:16+00:00</time>
      </trkpt>
      <trkpt lat="43.345333099365" lon="-7.5331501960754">
        <ele>483</ele>
        <time>2019-09-11T07:29:17+00:00</time>
      </trkpt>
      <trkpt lat="43.345329284668" lon="-7.5331616401672">
        <ele>483</ele>
        <time>2019-09-11T07:29:18+00:00</time>
      </trkpt>
      <trkpt lat="43.345325469971" lon="-7.533166885376">
        <ele>483</ele>
        <time>2019-09-11T07:29:19+00:00</time>
      </trkpt>
      <trkpt lat="43.345321655273" lon="-7.5331735610962">
        <ele>483</ele>
        <time>2019-09-11T07:29:20+00:00</time>
      </trkpt>
      <trkpt lat="43.345317840576" lon="-7.5331897735596">
        <ele>482</ele>
        <time>2019-09-11T07:29:21+00:00</time>
      </trkpt>
      <trkpt lat="43.345310211182" lon="-7.5332083702087">
        <ele>482</ele>
        <time>2019-09-11T07:29:22+00:00</time>
      </trkpt>
      <trkpt lat="43.345310211182" lon="-7.5332131385803">
        <ele>482</ele>
        <time>2019-09-11T07:29:23+00:00</time>
      </trkpt>
      <trkpt lat="43.345294952393" lon="-7.5332465171814">
        <ele>482</ele>
        <time>2019-09-11T07:29:24+00:00</time>
      </trkpt>
      <trkpt lat="43.345283508301" lon="-7.5332751274109">
        <ele>482</ele>
        <time>2019-09-11T07:29:25+00:00</time>
      </trkpt>
      <trkpt lat="43.345275878906" lon="-7.5332918167114">
        <ele>482</ele>
        <time>2019-09-11T07:29:26+00:00</time>
      </trkpt>
      <trkpt lat="43.345268249512" lon="-7.533308506012">
        <ele>482</ele>
        <time>2019-09-11T07:29:27+00:00</time>
      </trkpt>
      <trkpt lat="43.345260620117" lon="-7.5333232879639">
        <ele>482</ele>
        <time>2019-09-11T07:29:28+00:00</time>
      </trkpt>
      <trkpt lat="43.34525680542" lon="-7.5333352088928">
        <ele>482</ele>
        <time>2019-09-11T07:29:29+00:00</time>
      </trkpt>
      <trkpt lat="43.345249176025" lon="-7.5333466529846">
        <ele>482</ele>
        <time>2019-09-11T07:29:30+00:00</time>
      </trkpt>
      <trkpt lat="43.345245361328" lon="-7.5333580970764">
        <ele>482</ele>
        <time>2019-09-11T07:29:31+00:00</time>
      </trkpt>
      <trkpt lat="43.345241546631" lon="-7.533360004425">
        <ele>482</ele>
        <time>2019-09-11T07:29:32+00:00</time>
      </trkpt>
      <trkpt lat="43.345241546631" lon="-7.5333633422852">
        <ele>482</ele>
        <time>2019-09-11T07:29:33+00:00</time>
      </trkpt>
      <trkpt lat="43.345249176025" lon="-7.5333518981934">
        <ele>482</ele>
        <time>2019-09-11T07:29:34+00:00</time>
      </trkpt>
      <trkpt lat="43.345245361328" lon="-7.5333566665649">
        <ele>482</ele>
        <time>2019-09-11T07:29:35+00:00</time>
      </trkpt>
      <trkpt lat="43.345245361328" lon="-7.5333580970764">
        <ele>482</ele>
        <time>2019-09-11T07:29:36+00:00</time>
      </trkpt>
      <trkpt lat="43.345245361328" lon="-7.533360004425">
        <ele>482</ele>
        <time>2019-09-11T07:29:37+00:00</time>
      </trkpt>
      <trkpt lat="43.345252990723" lon="-7.533360004425">
        <ele>482</ele>
        <time>2019-09-11T07:29:38+00:00</time>
      </trkpt>
      <trkpt lat="43.345252990723" lon="-7.5333566665649">
        <ele>482</ele>
        <time>2019-09-11T07:29:39+00:00</time>
      </trkpt>
      <trkpt lat="43.345245361328" lon="-7.5333485603333">
        <ele>482</ele>
        <time>2019-09-11T07:29:40+00:00</time>
      </trkpt>
      <trkpt lat="43.345249176025" lon="-7.5333352088928">
        <ele>482</ele>
        <time>2019-09-11T07:29:41+00:00</time>
      </trkpt>
      <trkpt lat="43.345249176025" lon="-7.5333385467529">
        <ele>482</ele>
        <time>2019-09-11T07:29:42+00:00</time>
      </trkpt>
      <trkpt lat="43.345230102539" lon="-7.5333433151245">
        <ele>482</ele>
        <time>2019-09-11T07:29:43+00:00</time>
      </trkpt>
      <trkpt lat="43.345230102539" lon="-7.5333452224731">
        <ele>482</ele>
        <time>2019-09-11T07:29:44+00:00</time>
      </trkpt>
      <trkpt lat="43.345237731934" lon="-7.533341884613">
        <ele>482</ele>
        <time>2019-09-11T07:29:45+00:00</time>
      </trkpt>
      <trkpt lat="43.345249176025" lon="-7.5333366394043">
        <ele>482</ele>
        <time>2019-09-11T07:29:46+00:00</time>
      </trkpt>
      <trkpt lat="43.345245361328" lon="-7.5333333015442">
        <ele>482</ele>
        <time>2019-09-11T07:29:47+00:00</time>
      </trkpt>
      <trkpt lat="43.345245361328" lon="-7.5333333015442">
        <ele>482</ele>
        <time>2019-09-11T07:29:48+00:00</time>
      </trkpt>
      <trkpt lat="43.345245361328" lon="-7.5333333015442">
        <ele>482</ele>
        <time>2019-09-11T07:29:49+00:00</time>
      </trkpt>
      <trkpt lat="43.345245361328" lon="-7.5333333015442">
        <ele>482</ele>
        <time>2019-09-11T07:29:50+00:00</time>
      </trkpt>
      <trkpt lat="43.345245361328" lon="-7.5333333015442">
        <ele>482</ele>
        <time>2019-09-11T07:29:51+00:00</time>
      </trkpt>
      <trkpt lat="43.345245361328" lon="-7.5333333015442">
        <ele>482</ele>
        <time>2019-09-11T07:29:52+00:00</time>
      </trkpt>
      <trkpt lat="43.345245361328" lon="-7.5333333015442">
        <ele>482</ele>
        <time>2019-09-11T07:29:53+00:00</time>
      </trkpt>
      <trkpt lat="43.345245361328" lon="-7.5333333015442">
        <ele>482</ele>
        <time>2019-09-11T07:29:54+00:00</time>
      </trkpt>
      <trkpt lat="43.345245361328" lon="-7.5333333015442">
        <ele>482</ele>
        <time>2019-09-11T07:29:55+00:00</time>
      </trkpt>
      <trkpt lat="43.345245361328" lon="-7.5333333015442">
        <ele>482</ele>
        <time>2019-09-11T07:29:56+00:00</time>
      </trkpt>
      <trkpt lat="43.345245361328" lon="-7.5333333015442">
        <ele>482</ele>
        <time>2019-09-11T07:29:57+00:00</time>
      </trkpt>
      <trkpt lat="43.345245361328" lon="-7.5333333015442">
        <ele>482</ele>
        <time>2019-09-11T07:29:58+00:00</time>
      </trkpt>
      <trkpt lat="43.345245361328" lon="-7.5333333015442">
        <ele>482</ele>
        <time>2019-09-11T07:29:59+00:00</time>
      </trkpt>
      <trkpt lat="43.345245361328" lon="-7.5333333015442">
        <ele>482</ele>
        <time>2019-09-11T07:30:00+00:00</time>
      </trkpt>
      <trkpt lat="43.345245361328" lon="-7.5333333015442">
        <ele>482</ele>
        <time>2019-09-11T07:30:01+00:00</time>
      </trkpt>
      <trkpt lat="43.345245361328" lon="-7.5333333015442">
        <ele>482</ele>
        <time>2019-09-11T07:30:02+00:00</time>
      </trkpt>
      <trkpt lat="43.345245361328" lon="-7.5333333015442">
        <ele>482</ele>
        <time>2019-09-11T07:30:03+00:00</time>
      </trkpt>
      <trkpt lat="43.345245361328" lon="-7.5333333015442">
        <ele>482</ele>
        <time>2019-09-11T07:30:04+00:00</time>
      </trkpt>
      <trkpt lat="43.345245361328" lon="-7.5333333015442">
        <ele>482</ele>
        <time>2019-09-11T07:30:05+00:00</time>
      </trkpt>
      <trkpt lat="43.345245361328" lon="-7.5333333015442">
        <ele>482</ele>
        <time>2019-09-11T07:30:06+00:00</time>
      </trkpt>
      <trkpt lat="43.345245361328" lon="-7.5333333015442">
        <ele>482</ele>
        <time>2019-09-11T07:30:07+00:00</time>
      </trkpt>
      <trkpt lat="43.345245361328" lon="-7.5333333015442">
        <ele>482</ele>
        <time>2019-09-11T07:30:08+00:00</time>
      </trkpt>
      <trkpt lat="43.345272064209" lon="-7.5333232879639">
        <ele>481</ele>
        <time>2019-09-11T07:30:09+00:00</time>
      </trkpt>
      <trkpt lat="43.345268249512" lon="-7.5333218574524">
        <ele>481</ele>
        <time>2019-09-11T07:30:10+00:00</time>
      </trkpt>
      <trkpt lat="43.345268249512" lon="-7.5333199501038">
        <ele>482</ele>
        <time>2019-09-11T07:30:11+00:00</time>
      </trkpt>
      <trkpt lat="43.345264434814" lon="-7.5333132743835">
        <ele>482</ele>
        <time>2019-09-11T07:30:12+00:00</time>
      </trkpt>
      <trkpt lat="43.345260620117" lon="-7.533308506012">
        <ele>482</ele>
        <time>2019-09-11T07:30:13+00:00</time>
      </trkpt>
      <trkpt lat="43.345264434814" lon="-7.5332984924316">
        <ele>482</ele>
        <time>2019-09-11T07:30:14+00:00</time>
      </trkpt>
      <trkpt lat="43.34525680542" lon="-7.5332918167114">
        <ele>482</ele>
        <time>2019-09-11T07:30:15+00:00</time>
      </trkpt>
      <trkpt lat="43.34525680542" lon="-7.533296585083">
        <ele>482</ele>
        <time>2019-09-11T07:30:16+00:00</time>
      </trkpt>
      <trkpt lat="43.345237731934" lon="-7.5333032608032">
        <ele>482</ele>
        <time>2019-09-11T07:30:17+00:00</time>
      </trkpt>
      <trkpt lat="43.345233917236" lon="-7.5332984924316">
        <ele>482</ele>
        <time>2019-09-11T07:30:18+00:00</time>
      </trkpt>
      <trkpt lat="43.345230102539" lon="-7.5332899093628">
        <ele>482</ele>
        <time>2019-09-11T07:30:19+00:00</time>
      </trkpt>
      <trkpt lat="43.345226287842" lon="-7.5332884788513">
        <ele>482</ele>
        <time>2019-09-11T07:30:20+00:00</time>
      </trkpt>
      <trkpt lat="43.34521484375" lon="-7.5332984924316">
        <ele>482</ele>
        <time>2019-09-11T07:30:21+00:00</time>
      </trkpt>
      <trkpt lat="43.345203399658" lon="-7.5333065986633">
        <ele>483</ele>
        <time>2019-09-11T07:30:22+00:00</time>
      </trkpt>
      <trkpt lat="43.345211029053" lon="-7.5333051681519">
        <ele>483</ele>
        <time>2019-09-11T07:30:23+00:00</time>
      </trkpt>
      <trkpt lat="43.345218658447" lon="-7.5333185195923">
        <ele>483</ele>
        <time>2019-09-11T07:30:24+00:00</time>
      </trkpt>
      <trkpt lat="43.345241546631" lon="-7.5333232879639">
        <ele>483</ele>
        <time>2019-09-11T07:30:25+00:00</time>
      </trkpt>
      <trkpt lat="43.34525680542" lon="-7.5333232879639">
        <ele>483</ele>
        <time>2019-09-11T07:30:26+00:00</time>
      </trkpt>
      <trkpt lat="43.345241546631" lon="-7.5333232879639">
        <ele>483</ele>
        <time>2019-09-11T07:30:27+00:00</time>
      </trkpt>
      <trkpt lat="43.345218658447" lon="-7.5333199501038">
        <ele>483</ele>
        <time>2019-09-11T07:30:28+00:00</time>
      </trkpt>
      <trkpt lat="43.345222473145" lon="-7.5333285331726">
        <ele>483</ele>
        <time>2019-09-11T07:30:29+00:00</time>
      </trkpt>
      <trkpt lat="43.345230102539" lon="-7.5333285331726">
        <ele>483</ele>
        <time>2019-09-11T07:30:30+00:00</time>
      </trkpt>
      <trkpt lat="43.345245361328" lon="-7.5333285331726">
        <ele>483</ele>
        <time>2019-09-11T07:30:31+00:00</time>
      </trkpt>
      <trkpt lat="43.345260620117" lon="-7.5333366394043">
        <ele>483</ele>
        <time>2019-09-11T07:30:32+00:00</time>
      </trkpt>
      <trkpt lat="43.345264434814" lon="-7.5333433151245">
        <ele>483</ele>
        <time>2019-09-11T07:30:33+00:00</time>
      </trkpt>
      <trkpt lat="43.345272064209" lon="-7.5333566665649">
        <ele>483</ele>
        <time>2019-09-11T07:30:34+00:00</time>
      </trkpt>
      <trkpt lat="43.345268249512" lon="-7.5333867073059">
        <ele>483</ele>
        <time>2019-09-11T07:30:35+00:00</time>
      </trkpt>
      <trkpt lat="43.345264434814" lon="-7.5334281921387">
        <ele>483</ele>
        <time>2019-09-11T07:30:36+00:00</time>
      </trkpt>
      <trkpt lat="43.345260620117" lon="-7.5334248542786">
        <ele>483</ele>
        <time>2019-09-11T07:30:37+00:00</time>
      </trkpt>
      <trkpt lat="43.345272064209" lon="-7.5334134101868">
        <ele>483</ele>
        <time>2019-09-11T07:30:38+00:00</time>
      </trkpt>
      <trkpt lat="43.345275878906" lon="-7.5334248542786">
        <ele>483</ele>
        <time>2019-09-11T07:30:39+00:00</time>
      </trkpt>
      <trkpt lat="43.345233917236" lon="-7.5333318710327">
        <ele>483</ele>
        <time>2019-09-11T07:30:45+00:00</time>
      </trkpt>
      <trkpt lat="43.345233917236" lon="-7.5332851409912">
        <ele>483</ele>
        <time>2019-09-11T07:30:46+00:00</time>
      </trkpt>
      <trkpt lat="43.345226287842" lon="-7.5332818031311">
        <ele>483</ele>
        <time>2019-09-11T07:30:47+00:00</time>
      </trkpt>
      <trkpt lat="43.345169067383" lon="-7.5333566665649">
        <ele>483</ele>
        <time>2019-09-11T07:30:48+00:00</time>
      </trkpt>
      <trkpt lat="43.345184326172" lon="-7.5333733558655">
        <ele>483</ele>
        <time>2019-09-11T07:30:49+00:00</time>
      </trkpt>
      <trkpt lat="43.345188140869" lon="-7.5333914756775">
        <ele>483</ele>
        <time>2019-09-11T07:30:50+00:00</time>
      </trkpt>
      <trkpt lat="43.345241546631" lon="-7.5333766937256">
        <ele>483</ele>
        <time>2019-09-11T07:30:51+00:00</time>
      </trkpt>
      <trkpt lat="43.345294952393" lon="-7.533374786377">
        <ele>483</ele>
        <time>2019-09-11T07:30:52+00:00</time>
      </trkpt>
      <trkpt lat="43.345321655273" lon="-7.5333714485168">
        <ele>483</ele>
        <time>2019-09-11T07:30:53+00:00</time>
      </trkpt>
      <trkpt lat="43.34534072876" lon="-7.5333385467529">
        <ele>483</ele>
        <time>2019-09-11T07:30:54+00:00</time>
      </trkpt>
      <trkpt lat="43.345359802246" lon="-7.5333099365234">
        <ele>483</ele>
        <time>2019-09-11T07:30:55+00:00</time>
      </trkpt>
      <trkpt lat="43.345363616943" lon="-7.5332584381104">
        <ele>483</ele>
        <time>2019-09-11T07:30:56+00:00</time>
      </trkpt>
      <trkpt lat="43.345363616943" lon="-7.5332283973694">
        <ele>483</ele>
        <time>2019-09-11T07:30:57+00:00</time>
      </trkpt>
      <trkpt lat="43.345363616943" lon="-7.5332317352295">
        <ele>483</ele>
        <time>2019-09-11T07:30:58+00:00</time>
      </trkpt>
      <trkpt lat="43.345355987549" lon="-7.5332350730896">
        <ele>483</ele>
        <time>2019-09-11T07:30:59+00:00</time>
      </trkpt>
      <trkpt lat="43.345336914062" lon="-7.533233165741">
        <ele>483</ele>
        <time>2019-09-11T07:31:00+00:00</time>
      </trkpt>
      <trkpt lat="43.345329284668" lon="-7.5332231521606">
        <ele>483</ele>
        <time>2019-09-11T07:31:01+00:00</time>
      </trkpt>
      <trkpt lat="43.345321655273" lon="-7.5332050323486">
        <ele>483</ele>
        <time>2019-09-11T07:31:02+00:00</time>
      </trkpt>
      <trkpt lat="43.345317840576" lon="-7.5331964492798">
        <ele>483</ele>
        <time>2019-09-11T07:31:03+00:00</time>
      </trkpt>
      <trkpt lat="43.345310211182" lon="-7.5331916809082">
        <ele>483</ele>
        <time>2019-09-11T07:31:04+00:00</time>
      </trkpt>
      <trkpt lat="43.345302581787" lon="-7.5331916809082">
        <ele>483</ele>
        <time>2019-09-11T07:31:05+00:00</time>
      </trkpt>
      <trkpt lat="43.345291137695" lon="-7.5331897735596">
        <ele>483</ele>
        <time>2019-09-11T07:31:06+00:00</time>
      </trkpt>
      <trkpt lat="43.345279693604" lon="-7.5331916809082">
        <ele>483</ele>
        <time>2019-09-11T07:31:07+00:00</time>
      </trkpt>
      <trkpt lat="43.345268249512" lon="-7.533185005188">
        <ele>483</ele>
        <time>2019-09-11T07:31:08+00:00</time>
      </trkpt>
      <trkpt lat="43.345252990723" lon="-7.533154964447">
        <ele>483</ele>
        <time>2019-09-11T07:31:09+00:00</time>
      </trkpt>
      <trkpt lat="43.345230102539" lon="-7.533136844635">
        <ele>483</ele>
        <time>2019-09-11T07:31:10+00:00</time>
      </trkpt>
      <trkpt lat="43.345211029053" lon="-7.5331749916077">
        <ele>483</ele>
        <time>2019-09-11T07:31:11+00:00</time>
      </trkpt>
      <trkpt lat="43.345203399658" lon="-7.5331816673279">
        <ele>482</ele>
        <time>2019-09-11T07:31:12+00:00</time>
      </trkpt>
      <trkpt lat="43.345191955566" lon="-7.5331864356995">
        <ele>482</ele>
        <time>2019-09-11T07:31:13+00:00</time>
      </trkpt>
      <trkpt lat="43.345180511475" lon="-7.533203125">
        <ele>482</ele>
        <time>2019-09-11T07:31:14+00:00</time>
      </trkpt>
      <trkpt lat="43.345161437988" lon="-7.5332298278809">
        <ele>482</ele>
        <time>2019-09-11T07:31:15+00:00</time>
      </trkpt>
      <trkpt lat="43.345153808594" lon="-7.5332498550415">
        <ele>482</ele>
        <time>2019-09-11T07:31:16+00:00</time>
      </trkpt>
      <trkpt lat="43.345146179199" lon="-7.5332717895508">
        <ele>482</ele>
        <time>2019-09-11T07:31:17+00:00</time>
      </trkpt>
      <trkpt lat="43.345138549805" lon="-7.5332818031311">
        <ele>482</ele>
        <time>2019-09-11T07:31:18+00:00</time>
      </trkpt>
      <trkpt lat="43.34513092041" lon="-7.5332865715027">
        <ele>482</ele>
        <time>2019-09-11T07:31:19+00:00</time>
      </trkpt>
      <trkpt lat="43.345138549805" lon="-7.5332832336426">
        <ele>482</ele>
        <time>2019-09-11T07:31:20+00:00</time>
      </trkpt>
      <trkpt lat="43.345134735107" lon="-7.5332598686218">
        <ele>482</ele>
        <time>2019-09-11T07:31:21+00:00</time>
      </trkpt>
      <trkpt lat="43.345115661621" lon="-7.5332298278809">
        <ele>482</ele>
        <time>2019-09-11T07:31:22+00:00</time>
      </trkpt>
      <trkpt lat="43.345115661621" lon="-7.5332250595093">
        <ele>482</ele>
        <time>2019-09-11T07:31:23+00:00</time>
      </trkpt>
      <trkpt lat="43.345115661621" lon="-7.5332431793213">
        <ele>482</ele>
        <time>2019-09-11T07:31:24+00:00</time>
      </trkpt>
      <trkpt lat="43.345111846924" lon="-7.53324842453">
        <ele>482</ele>
        <time>2019-09-11T07:31:25+00:00</time>
      </trkpt>
      <trkpt lat="43.345100402832" lon="-7.5333051681519">
        <ele>482</ele>
        <time>2019-09-11T07:31:26+00:00</time>
      </trkpt>
      <trkpt lat="43.345077514648" lon="-7.5333914756775">
        <ele>482</ele>
        <time>2019-09-11T07:31:27+00:00</time>
      </trkpt>
      <trkpt lat="43.345069885254" lon="-7.5334100723267">
        <ele>482</ele>
        <time>2019-09-11T07:31:28+00:00</time>
      </trkpt>
      <trkpt lat="43.345058441162" lon="-7.533420085907">
        <ele>481</ele>
        <time>2019-09-11T07:31:29+00:00</time>
      </trkpt>
      <trkpt lat="43.345066070557" lon="-7.5334267616272">
        <ele>481</ele>
        <time>2019-09-11T07:31:30+00:00</time>
      </trkpt>
      <trkpt lat="43.345073699951" lon="-7.533420085907">
        <ele>481</ele>
        <time>2019-09-11T07:31:31+00:00</time>
      </trkpt>
      <trkpt lat="43.345081329346" lon="-7.5334100723267">
        <ele>481</ele>
        <time>2019-09-11T07:31:32+00:00</time>
      </trkpt>
      <trkpt lat="43.345069885254" lon="-7.5333914756775">
        <ele>481</ele>
        <time>2019-09-11T07:31:33+00:00</time>
      </trkpt>
      <trkpt lat="43.345062255859" lon="-7.5333881378174">
        <ele>481</ele>
        <time>2019-09-11T07:31:34+00:00</time>
      </trkpt>
      <trkpt lat="43.345069885254" lon="-7.5333967208862">
        <ele>481</ele>
        <time>2019-09-11T07:31:35+00:00</time>
      </trkpt>
      <trkpt lat="43.345073699951" lon="-7.5333867073059">
        <ele>481</ele>
        <time>2019-09-11T07:31:36+00:00</time>
      </trkpt>
      <trkpt lat="43.345077514648" lon="-7.5334134101868">
        <ele>481</ele>
        <time>2019-09-11T07:31:37+00:00</time>
      </trkpt>
      <trkpt lat="43.345069885254" lon="-7.5334248542786">
        <ele>481</ele>
        <time>2019-09-11T07:31:38+00:00</time>
      </trkpt>
      <trkpt lat="43.345077514648" lon="-7.5333847999573">
        <ele>481</ele>
        <time>2019-09-11T07:31:39+00:00</time>
      </trkpt>
      <trkpt lat="43.345073699951" lon="-7.5333833694458">
        <ele>481</ele>
        <time>2019-09-11T07:31:40+00:00</time>
      </trkpt>
      <trkpt lat="43.345069885254" lon="-7.533374786377">
        <ele>481</ele>
        <time>2019-09-11T07:31:41+00:00</time>
      </trkpt>
      <trkpt lat="43.345073699951" lon="-7.5334033966064">
        <ele>481</ele>
        <time>2019-09-11T07:31:42+00:00</time>
      </trkpt>
      <trkpt lat="43.345085144043" lon="-7.5333714485168">
        <ele>481</ele>
        <time>2019-09-11T07:31:43+00:00</time>
      </trkpt>
      <trkpt lat="43.345092773438" lon="-7.5333518981934">
        <ele>481</ele>
        <time>2019-09-11T07:31:44+00:00</time>
      </trkpt>
      <trkpt lat="43.345092773438" lon="-7.533308506012">
        <ele>481</ele>
        <time>2019-09-11T07:31:45+00:00</time>
      </trkpt>
      <trkpt lat="43.345096588135" lon="-7.5332999229431">
        <ele>481</ele>
        <time>2019-09-11T07:31:46+00:00</time>
      </trkpt>
      <trkpt lat="43.345092773438" lon="-7.5333032608032">
        <ele>481</ele>
        <time>2019-09-11T07:31:47+00:00</time>
      </trkpt>
      <trkpt lat="43.345111846924" lon="-7.5332751274109">
        <ele>481</ele>
        <time>2019-09-11T07:31:48+00:00</time>
      </trkpt>
      <trkpt lat="43.345108032227" lon="-7.5332517623901">
        <ele>481</ele>
        <time>2019-09-11T07:31:49+00:00</time>
      </trkpt>
      <trkpt lat="43.345111846924" lon="-7.5333452224731">
        <ele>481</ele>
        <time>2019-09-11T07:31:50+00:00</time>
      </trkpt>
      <trkpt lat="43.345111846924" lon="-7.533420085907">
        <ele>481</ele>
        <time>2019-09-11T07:31:51+00:00</time>
      </trkpt>
      <trkpt lat="43.345119476318" lon="-7.5334701538086">
        <ele>481</ele>
        <time>2019-09-11T07:31:52+00:00</time>
      </trkpt>
      <trkpt lat="43.345123291016" lon="-7.5334715843201">
        <ele>481</ele>
        <time>2019-09-11T07:31:53+00:00</time>
      </trkpt>
      <trkpt lat="43.345123291016" lon="-7.53346824646">
        <ele>481</ele>
        <time>2019-09-11T07:31:54+00:00</time>
      </trkpt>
      <trkpt lat="43.345119476318" lon="-7.5334815979004">
        <ele>481</ele>
        <time>2019-09-11T07:31:55+00:00</time>
      </trkpt>
      <trkpt lat="43.345111846924" lon="-7.5334849357605">
        <ele>481</ele>
        <time>2019-09-11T07:31:56+00:00</time>
      </trkpt>
      <trkpt lat="43.345123291016" lon="-7.53346824646">
        <ele>481</ele>
        <time>2019-09-11T07:31:57+00:00</time>
      </trkpt>
      <trkpt lat="43.34508895874" lon="-7.5334935188293">
        <ele>481</ele>
        <time>2019-09-11T07:31:58+00:00</time>
      </trkpt>
      <trkpt lat="43.34508895874" lon="-7.5334935188293">
        <ele>481</ele>
        <time>2019-09-11T07:31:59+00:00</time>
      </trkpt>
      <trkpt lat="43.345096588135" lon="-7.5334768295288">
        <ele>481</ele>
        <time>2019-09-11T07:32:00+00:00</time>
      </trkpt>
      <trkpt lat="43.345108032227" lon="-7.5334448814392">
        <ele>481</ele>
        <time>2019-09-11T07:32:01+00:00</time>
      </trkpt>
      <trkpt lat="43.345108032227" lon="-7.5334448814392">
        <ele>481</ele>
        <time>2019-09-11T07:32:02+00:00</time>
      </trkpt>
      <trkpt lat="43.345108032227" lon="-7.5334448814392">
        <ele>481</ele>
        <time>2019-09-11T07:32:03+00:00</time>
      </trkpt>
      <trkpt lat="43.345127105713" lon="-7.5334033966064">
        <ele>481</ele>
        <time>2019-09-11T07:32:04+00:00</time>
      </trkpt>
      <trkpt lat="43.345127105713" lon="-7.5333914756775">
        <ele>481</ele>
        <time>2019-09-11T07:32:05+00:00</time>
      </trkpt>
      <trkpt lat="43.345138549805" lon="-7.5333666801453">
        <ele>481</ele>
        <time>2019-09-11T07:32:06+00:00</time>
      </trkpt>
      <trkpt lat="43.345138549805" lon="-7.5333647727966">
        <ele>481</ele>
        <time>2019-09-11T07:32:07+00:00</time>
      </trkpt>
      <trkpt lat="43.345176696777" lon="-7.533326625824">
        <ele>481</ele>
        <time>2019-09-11T07:32:08+00:00</time>
      </trkpt>
      <trkpt lat="43.345169067383" lon="-7.5333518981934">
        <ele>481</ele>
        <time>2019-09-11T07:32:09+00:00</time>
      </trkpt>
      <trkpt lat="43.345188140869" lon="-7.5333185195923">
        <ele>481</ele>
        <time>2019-09-11T07:32:10+00:00</time>
      </trkpt>
      <trkpt lat="43.345226287842" lon="-7.5332717895508">
        <ele>481</ele>
        <time>2019-09-11T07:32:11+00:00</time>
      </trkpt>
      <trkpt lat="43.345230102539" lon="-7.5332751274109">
        <ele>481</ele>
        <time>2019-09-11T07:32:12+00:00</time>
      </trkpt>
      <trkpt lat="43.345241546631" lon="-7.5332465171814">
        <ele>481</ele>
        <time>2019-09-11T07:32:13+00:00</time>
      </trkpt>
      <trkpt lat="43.345241546631" lon="-7.5332264900208">
        <ele>481</ele>
        <time>2019-09-11T07:32:14+00:00</time>
      </trkpt>
      <trkpt lat="43.345260620117" lon="-7.5332131385803">
        <ele>481</ele>
        <time>2019-09-11T07:32:15+00:00</time>
      </trkpt>
      <trkpt lat="43.345275878906" lon="-7.5332050323486">
        <ele>481</ele>
        <time>2019-09-11T07:32:16+00:00</time>
      </trkpt>
      <trkpt lat="43.345344543457" lon="-7.5331482887268">
        <ele>481</ele>
        <time>2019-09-11T07:32:17+00:00</time>
      </trkpt>
      <trkpt lat="43.345359802246" lon="-7.5331268310547">
        <ele>481</ele>
        <time>2019-09-11T07:32:18+00:00</time>
      </trkpt>
      <trkpt lat="43.345375061035" lon="-7.5330882072449">
        <ele>481</ele>
        <time>2019-09-11T07:32:19+00:00</time>
      </trkpt>
      <trkpt lat="43.345390319824" lon="-7.5330748558044">
        <ele>481</ele>
        <time>2019-09-11T07:32:20+00:00</time>
      </trkpt>
      <trkpt lat="43.345397949219" lon="-7.5330567359924">
        <ele>481</ele>
        <time>2019-09-11T07:32:21+00:00</time>
      </trkpt>
      <trkpt lat="43.345436096191" lon="-7.5330066680908">
        <ele>481</ele>
        <time>2019-09-11T07:32:22+00:00</time>
      </trkpt>
      <trkpt lat="43.345478057861" lon="-7.5328984260559">
        <ele>481</ele>
        <time>2019-09-11T07:32:23+00:00</time>
      </trkpt>
      <trkpt lat="43.345531463623" lon="-7.5328884124756">
        <ele>481</ele>
        <time>2019-09-11T07:32:24+00:00</time>
      </trkpt>
      <trkpt lat="43.345561981201" lon="-7.5328464508057">
        <ele>481</ele>
        <time>2019-09-11T07:32:25+00:00</time>
      </trkpt>
      <trkpt lat="43.345600128174" lon="-7.5328364372253">
        <ele>481</ele>
        <time>2019-09-11T07:32:26+00:00</time>
      </trkpt>
      <trkpt lat="43.345607757568" lon="-7.5328269004822">
        <ele>481</ele>
        <time>2019-09-11T07:32:27+00:00</time>
      </trkpt>
      <trkpt lat="43.345600128174" lon="-7.5328431129456">
        <ele>481</ele>
        <time>2019-09-11T07:32:28+00:00</time>
      </trkpt>
      <trkpt lat="43.345600128174" lon="-7.5328431129456">
        <ele>481</ele>
        <time>2019-09-11T07:32:29+00:00</time>
      </trkpt>
      <trkpt lat="43.345584869385" lon="-7.5328683853149">
        <ele>481</ele>
        <time>2019-09-11T07:32:30+00:00</time>
      </trkpt>
      <trkpt lat="43.345588684082" lon="-7.5328650474548">
        <ele>481</ele>
        <time>2019-09-11T07:32:31+00:00</time>
      </trkpt>
      <trkpt lat="43.345592498779" lon="-7.5328497886658">
        <ele>481</ele>
        <time>2019-09-11T07:32:32+00:00</time>
      </trkpt>
      <trkpt lat="43.345592498779" lon="-7.5328631401062">
        <ele>481</ele>
        <time>2019-09-11T07:32:33+00:00</time>
      </trkpt>
      <trkpt lat="43.345588684082" lon="-7.5328984260559">
        <ele>481</ele>
        <time>2019-09-11T07:32:34+00:00</time>
      </trkpt>
      <trkpt lat="43.345592498779" lon="-7.5329699516296">
        <ele>481</ele>
        <time>2019-09-11T07:32:35+00:00</time>
      </trkpt>
      <trkpt lat="43.345596313477" lon="-7.5330333709717">
        <ele>480</ele>
        <time>2019-09-11T07:32:36+00:00</time>
      </trkpt>
      <trkpt lat="43.345573425293" lon="-7.5330667495728">
        <ele>480</ele>
        <time>2019-09-11T07:32:37+00:00</time>
      </trkpt>
      <trkpt lat="43.34553527832" lon="-7.5331382751465">
        <ele>480</ele>
        <time>2019-09-11T07:32:38+00:00</time>
      </trkpt>
      <trkpt lat="43.345539093018" lon="-7.5331382751465">
        <ele>480</ele>
        <time>2019-09-11T07:32:39+00:00</time>
      </trkpt>
      <trkpt lat="43.345527648926" lon="-7.5331649780273">
        <ele>480</ele>
        <time>2019-09-11T07:32:40+00:00</time>
      </trkpt>
      <trkpt lat="43.345520019531" lon="-7.5331830978394">
        <ele>480</ele>
        <time>2019-09-11T07:32:41+00:00</time>
      </trkpt>
      <trkpt lat="43.345481872559" lon="-7.5332198143005">
        <ele>481</ele>
        <time>2019-09-11T07:32:42+00:00</time>
      </trkpt>
      <trkpt lat="43.345439910889" lon="-7.5332398414612">
        <ele>481</ele>
        <time>2019-09-11T07:32:43+00:00</time>
      </trkpt>
      <trkpt lat="43.345642089844" lon="-7.5324964523315">
        <ele>506</ele>
        <time>2019-09-11T07:34:30+00:00</time>
      </trkpt>
      <trkpt lat="43.345294952393" lon="-7.5330448150635">
        <ele>477</ele>
        <time>2019-09-11T07:34:31+00:00</time>
      </trkpt>
      <trkpt lat="43.345283508301" lon="-7.5330581665039">
        <ele>473</ele>
        <time>2019-09-11T07:34:32+00:00</time>
      </trkpt>
      <trkpt lat="43.345287322998" lon="-7.5330700874329">
        <ele>474</ele>
        <time>2019-09-11T07:34:33+00:00</time>
      </trkpt>
      <trkpt lat="43.345291137695" lon="-7.5330801010132">
        <ele>475</ele>
        <time>2019-09-11T07:34:34+00:00</time>
      </trkpt>
      <trkpt lat="43.345294952393" lon="-7.5330934524536">
        <ele>476</ele>
        <time>2019-09-11T07:34:35+00:00</time>
      </trkpt>
      <trkpt lat="43.345302581787" lon="-7.5331001281738">
        <ele>476</ele>
        <time>2019-09-11T07:34:36+00:00</time>
      </trkpt>
      <trkpt lat="43.34529876709" lon="-7.5331168174744">
        <ele>477</ele>
        <time>2019-09-11T07:34:37+00:00</time>
      </trkpt>
      <trkpt lat="43.345294952393" lon="-7.5331268310547">
        <ele>477</ele>
        <time>2019-09-11T07:34:38+00:00</time>
      </trkpt>
      <trkpt lat="43.345294952393" lon="-7.5331315994263">
        <ele>476</ele>
        <time>2019-09-11T07:34:39+00:00</time>
      </trkpt>
      <trkpt lat="43.345287322998" lon="-7.5331416130066">
        <ele>476</ele>
        <time>2019-09-11T07:34:40+00:00</time>
      </trkpt>
      <trkpt lat="43.345275878906" lon="-7.5331583023071">
        <ele>476</ele>
        <time>2019-09-11T07:34:41+00:00</time>
      </trkpt>
      <trkpt lat="43.345264434814" lon="-7.5331768989563">
        <ele>476</ele>
        <time>2019-09-11T07:34:42+00:00</time>
      </trkpt>
      <trkpt lat="43.345249176025" lon="-7.5331950187683">
        <ele>475</ele>
        <time>2019-09-11T07:34:43+00:00</time>
      </trkpt>
      <trkpt lat="43.345241546631" lon="-7.5332083702087">
        <ele>475</ele>
        <time>2019-09-11T07:34:44+00:00</time>
      </trkpt>
      <trkpt lat="43.345230102539" lon="-7.5332264900208">
        <ele>475</ele>
        <time>2019-09-11T07:34:45+00:00</time>
      </trkpt>
      <trkpt lat="43.345222473145" lon="-7.533233165741">
        <ele>475</ele>
        <time>2019-09-11T07:34:46+00:00</time>
      </trkpt>
      <trkpt lat="43.34521484375" lon="-7.5332450866699">
        <ele>475</ele>
        <time>2019-09-11T07:34:47+00:00</time>
      </trkpt>
      <trkpt lat="43.345211029053" lon="-7.5332531929016">
        <ele>475</ele>
        <time>2019-09-11T07:34:48+00:00</time>
      </trkpt>
      <trkpt lat="43.345207214355" lon="-7.5332617759705">
        <ele>475</ele>
        <time>2019-09-11T07:34:49+00:00</time>
      </trkpt>
      <trkpt lat="43.345207214355" lon="-7.533266544342">
        <ele>476</ele>
        <time>2019-09-11T07:34:50+00:00</time>
      </trkpt>
      <trkpt lat="43.345203399658" lon="-7.5332698822021">
        <ele>476</ele>
        <time>2019-09-11T07:34:51+00:00</time>
      </trkpt>
      <trkpt lat="43.345203399658" lon="-7.5332684516907">
        <ele>477</ele>
        <time>2019-09-11T07:34:52+00:00</time>
      </trkpt>
      <trkpt lat="43.345207214355" lon="-7.5332684516907">
        <ele>477</ele>
        <time>2019-09-11T07:34:53+00:00</time>
      </trkpt>
      <trkpt lat="43.345203399658" lon="-7.5332698822021">
        <ele>478</ele>
        <time>2019-09-11T07:34:54+00:00</time>
      </trkpt>
      <trkpt lat="43.345199584961" lon="-7.5332732200623">
        <ele>479</ele>
        <time>2019-09-11T07:34:55+00:00</time>
      </trkpt>
      <trkpt lat="43.345199584961" lon="-7.5332765579224">
        <ele>479</ele>
        <time>2019-09-11T07:34:56+00:00</time>
      </trkpt>
      <trkpt lat="43.345195770264" lon="-7.5332798957825">
        <ele>480</ele>
        <time>2019-09-11T07:34:57+00:00</time>
      </trkpt>
      <trkpt lat="43.345191955566" lon="-7.5332865715027">
        <ele>481</ele>
        <time>2019-09-11T07:34:58+00:00</time>
      </trkpt>
      <trkpt lat="43.345191955566" lon="-7.5332918167114">
        <ele>481</ele>
        <time>2019-09-11T07:34:59+00:00</time>
      </trkpt>
      <trkpt lat="43.345188140869" lon="-7.5332984924316">
        <ele>482</ele>
        <time>2019-09-11T07:35:00+00:00</time>
      </trkpt>
      <trkpt lat="43.345176696777" lon="-7.533308506012">
        <ele>482</ele>
        <time>2019-09-11T07:35:01+00:00</time>
      </trkpt>
      <trkpt lat="43.345149993896" lon="-7.5333318710327">
        <ele>483</ele>
        <time>2019-09-11T07:35:02+00:00</time>
      </trkpt>
      <trkpt lat="43.345127105713" lon="-7.533360004425">
        <ele>484</ele>
        <time>2019-09-11T07:35:03+00:00</time>
      </trkpt>
      <trkpt lat="43.345115661621" lon="-7.5333666801453">
        <ele>484</ele>
        <time>2019-09-11T07:35:04+00:00</time>
      </trkpt>
      <trkpt lat="43.345111846924" lon="-7.5333681106567">
        <ele>484</ele>
        <time>2019-09-11T07:35:05+00:00</time>
      </trkpt>
      <trkpt lat="43.345111846924" lon="-7.5333714485168">
        <ele>484</ele>
        <time>2019-09-11T07:35:06+00:00</time>
      </trkpt>
      <trkpt lat="43.345111846924" lon="-7.5333681106567">
        <ele>485</ele>
        <time>2019-09-11T07:35:07+00:00</time>
      </trkpt>
      <trkpt lat="43.345111846924" lon="-7.5333681106567">
        <ele>485</ele>
        <time>2019-09-11T07:35:08+00:00</time>
      </trkpt>
      <trkpt lat="43.345108032227" lon="-7.5333714485168">
        <ele>485</ele>
        <time>2019-09-11T07:35:09+00:00</time>
      </trkpt>
      <trkpt lat="43.345108032227" lon="-7.5333714485168">
        <ele>485</ele>
        <time>2019-09-11T07:35:10+00:00</time>
      </trkpt>
      <trkpt lat="43.345108032227" lon="-7.5333700180054">
        <ele>485</ele>
        <time>2019-09-11T07:35:11+00:00</time>
      </trkpt>
      <trkpt lat="43.345111846924" lon="-7.5333700180054">
        <ele>485</ele>
        <time>2019-09-11T07:35:12+00:00</time>
      </trkpt>
      <trkpt lat="43.345111846924" lon="-7.5333733558655">
        <ele>484</ele>
        <time>2019-09-11T07:35:13+00:00</time>
      </trkpt>
      <trkpt lat="43.345100402832" lon="-7.5333933830261">
        <ele>484</ele>
        <time>2019-09-11T07:35:14+00:00</time>
      </trkpt>
      <trkpt lat="43.34508895874" lon="-7.533408164978">
        <ele>484</ele>
        <time>2019-09-11T07:35:15+00:00</time>
      </trkpt>
      <trkpt lat="43.345085144043" lon="-7.5334148406982">
        <ele>484</ele>
        <time>2019-09-11T07:35:16+00:00</time>
      </trkpt>
      <trkpt lat="43.345062255859" lon="-7.5334367752075">
        <ele>483</ele>
        <time>2019-09-11T07:35:17+00:00</time>
      </trkpt>
      <trkpt lat="43.345027923584" lon="-7.5334634780884">
        <ele>484</ele>
        <time>2019-09-11T07:35:18+00:00</time>
      </trkpt>
      <trkpt lat="43.344707489014" lon="-7.533531665802">
        <ele>521</ele>
        <time>2019-09-11T07:35:19+00:00</time>
      </trkpt>
      <trkpt lat="43.344688415527" lon="-7.5335683822632">
        <ele>514</ele>
        <time>2019-09-11T07:35:20+00:00</time>
      </trkpt>
      <trkpt lat="43.344669342041" lon="-7.5335965156555">
        <ele>515</ele>
        <time>2019-09-11T07:35:21+00:00</time>
      </trkpt>
      <trkpt lat="43.344646453857" lon="-7.5336232185364">
        <ele>516</ele>
        <time>2019-09-11T07:35:22+00:00</time>
      </trkpt>
      <trkpt lat="43.344638824463" lon="-7.5336332321167">
        <ele>517</ele>
        <time>2019-09-11T07:35:23+00:00</time>
      </trkpt>
      <trkpt lat="43.344627380371" lon="-7.5336599349976">
        <ele>517</ele>
        <time>2019-09-11T07:35:24+00:00</time>
      </trkpt>
      <trkpt lat="43.344612121582" lon="-7.5336933135986">
        <ele>514</ele>
        <time>2019-09-11T07:35:25+00:00</time>
      </trkpt>
      <trkpt lat="43.344612121582" lon="-7.5337080955505">
        <ele>514</ele>
        <time>2019-09-11T07:35:26+00:00</time>
      </trkpt>
      <trkpt lat="43.344631195068" lon="-7.5336818695068">
        <ele>515</ele>
        <time>2019-09-11T07:35:27+00:00</time>
      </trkpt>
      <trkpt lat="43.344635009766" lon="-7.5336785316467">
        <ele>516</ele>
        <time>2019-09-11T07:35:28+00:00</time>
      </trkpt>
      <trkpt lat="43.34464263916" lon="-7.5336785316467">
        <ele>516</ele>
        <time>2019-09-11T07:35:29+00:00</time>
      </trkpt>
      <trkpt lat="43.344635009766" lon="-7.5336985588074">
        <ele>517</ele>
        <time>2019-09-11T07:35:30+00:00</time>
      </trkpt>
      <trkpt lat="43.344631195068" lon="-7.5337181091309">
        <ele>518</ele>
        <time>2019-09-11T07:35:31+00:00</time>
      </trkpt>
      <trkpt lat="43.344615936279" lon="-7.5337448120117">
        <ele>518</ele>
        <time>2019-09-11T07:35:32+00:00</time>
      </trkpt>
      <trkpt lat="43.344608306885" lon="-7.5337648391724">
        <ele>519</ele>
        <time>2019-09-11T07:35:33+00:00</time>
      </trkpt>
      <trkpt lat="43.344589233398" lon="-7.5338068008423">
        <ele>519</ele>
        <time>2019-09-11T07:35:34+00:00</time>
      </trkpt>
      <trkpt lat="43.344570159912" lon="-7.5338416099548">
        <ele>520</ele>
        <time>2019-09-11T07:35:35+00:00</time>
      </trkpt>
      <trkpt lat="43.34455871582" lon="-7.5338749885559">
        <ele>520</ele>
        <time>2019-09-11T07:35:36+00:00</time>
      </trkpt>
      <trkpt lat="43.344547271729" lon="-7.5338916778564">
        <ele>521</ele>
        <time>2019-09-11T07:35:37+00:00</time>
      </trkpt>
      <trkpt lat="43.344551086426" lon="-7.5338997840881">
        <ele>521</ele>
        <time>2019-09-11T07:35:38+00:00</time>
      </trkpt>
      <trkpt lat="43.344554901123" lon="-7.5338997840881">
        <ele>522</ele>
        <time>2019-09-11T07:35:39+00:00</time>
      </trkpt>
      <trkpt lat="43.344554901123" lon="-7.5338931083679">
        <ele>522</ele>
        <time>2019-09-11T07:35:40+00:00</time>
      </trkpt>
      <trkpt lat="43.344547271729" lon="-7.5339031219482">
        <ele>523</ele>
        <time>2019-09-11T07:35:41+00:00</time>
      </trkpt>
      <trkpt lat="43.344547271729" lon="-7.5338950157166">
        <ele>523</ele>
        <time>2019-09-11T07:35:42+00:00</time>
      </trkpt>
      <trkpt lat="43.344573974609" lon="-7.5338582992554">
        <ele>523</ele>
        <time>2019-09-11T07:35:43+00:00</time>
      </trkpt>
      <trkpt lat="43.344596862793" lon="-7.5338215827942">
        <ele>524</ele>
        <time>2019-09-11T07:35:44+00:00</time>
      </trkpt>
      <trkpt lat="43.344619750977" lon="-7.5337982177734">
        <ele>523</ele>
        <time>2019-09-11T07:35:45+00:00</time>
      </trkpt>
      <trkpt lat="43.344627380371" lon="-7.5337867736816">
        <ele>523</ele>
        <time>2019-09-11T07:35:46+00:00</time>
      </trkpt>
      <trkpt lat="43.344631195068" lon="-7.5337815284729">
        <ele>523</ele>
        <time>2019-09-11T07:35:47+00:00</time>
      </trkpt>
      <trkpt lat="43.34464263916" lon="-7.5337634086609">
        <ele>523</ele>
        <time>2019-09-11T07:35:48+00:00</time>
      </trkpt>
      <trkpt lat="43.344646453857" lon="-7.5337567329407">
        <ele>523</ele>
        <time>2019-09-11T07:35:49+00:00</time>
      </trkpt>
      <trkpt lat="43.344657897949" lon="-7.5337467193604">
        <ele>523</ele>
        <time>2019-09-11T07:35:50+00:00</time>
      </trkpt>
      <trkpt lat="43.344661712646" lon="-7.5337381362915">
        <ele>523</ele>
        <time>2019-09-11T07:35:51+00:00</time>
      </trkpt>
      <trkpt lat="43.344676971436" lon="-7.5337147712708">
        <ele>523</ele>
        <time>2019-09-11T07:35:52+00:00</time>
      </trkpt>
      <trkpt lat="43.344688415527" lon="-7.5336952209473">
        <ele>524</ele>
        <time>2019-09-11T07:35:53+00:00</time>
      </trkpt>
      <trkpt lat="43.344696044922" lon="-7.5336833000183">
        <ele>524</ele>
        <time>2019-09-11T07:35:54+00:00</time>
      </trkpt>
      <trkpt lat="43.344696044922" lon="-7.5336766242981">
        <ele>524</ele>
        <time>2019-09-11T07:35:55+00:00</time>
      </trkpt>
      <trkpt lat="43.344707489014" lon="-7.5336632728577">
        <ele>524</ele>
        <time>2019-09-11T07:35:56+00:00</time>
      </trkpt>
      <trkpt lat="43.344715118408" lon="-7.5336465835571">
        <ele>524</ele>
        <time>2019-09-11T07:35:57+00:00</time>
      </trkpt>
      <trkpt lat="43.344715118408" lon="-7.5336465835571">
        <ele>524</ele>
        <time>2019-09-11T07:35:58+00:00</time>
      </trkpt>
      <trkpt lat="43.344715118408" lon="-7.533643245697">
        <ele>523</ele>
        <time>2019-09-11T07:35:59+00:00</time>
      </trkpt>
      <trkpt lat="43.3447265625" lon="-7.533643245697">
        <ele>523</ele>
        <time>2019-09-11T07:36:00+00:00</time>
      </trkpt>
      <trkpt lat="43.344734191895" lon="-7.5336418151855">
        <ele>523</ele>
        <time>2019-09-11T07:36:01+00:00</time>
      </trkpt>
      <trkpt lat="43.344753265381" lon="-7.5336265563965">
        <ele>523</ele>
        <time>2019-09-11T07:36:02+00:00</time>
      </trkpt>
      <trkpt lat="43.344760894775" lon="-7.5336184501648">
        <ele>523</ele>
        <time>2019-09-11T07:36:03+00:00</time>
      </trkpt>
      <trkpt lat="43.344779968262" lon="-7.533595085144">
        <ele>523</ele>
        <time>2019-09-11T07:36:04+00:00</time>
      </trkpt>
      <trkpt lat="43.344795227051" lon="-7.5335597991943">
        <ele>523</ele>
        <time>2019-09-11T07:36:05+00:00</time>
      </trkpt>
      <trkpt lat="43.344802856445" lon="-7.5335450172424">
        <ele>523</ele>
        <time>2019-09-11T07:36:06+00:00</time>
      </trkpt>
      <trkpt lat="43.344814300537" lon="-7.5335364341736">
        <ele>523</ele>
        <time>2019-09-11T07:36:07+00:00</time>
      </trkpt>
      <trkpt lat="43.344818115234" lon="-7.5335235595703">
        <ele>523</ele>
        <time>2019-09-11T07:36:08+00:00</time>
      </trkpt>
      <trkpt lat="43.344814300537" lon="-7.5335249900818">
        <ele>523</ele>
        <time>2019-09-11T07:36:09+00:00</time>
      </trkpt>
      <trkpt lat="43.344818115234" lon="-7.5335183143616">
        <ele>523</ele>
        <time>2019-09-11T07:36:10+00:00</time>
      </trkpt>
      <trkpt lat="43.34481048584" lon="-7.5335168838501">
        <ele>523</ele>
        <time>2019-09-11T07:36:11+00:00</time>
      </trkpt>
      <trkpt lat="43.344799041748" lon="-7.5335364341736">
        <ele>523</ele>
        <time>2019-09-11T07:36:12+00:00</time>
      </trkpt>
      <trkpt lat="43.344783782959" lon="-7.5335583686829">
        <ele>523</ele>
        <time>2019-09-11T07:36:13+00:00</time>
      </trkpt>
      <trkpt lat="43.344779968262" lon="-7.5335631370544">
        <ele>523</ele>
        <time>2019-09-11T07:36:14+00:00</time>
      </trkpt>
      <trkpt lat="43.344787597656" lon="-7.5335564613342">
        <ele>522</ele>
        <time>2019-09-11T07:36:15+00:00</time>
      </trkpt>
      <trkpt lat="43.344783782959" lon="-7.5335717201233">
        <ele>522</ele>
        <time>2019-09-11T07:36:16+00:00</time>
      </trkpt>
      <trkpt lat="43.344783782959" lon="-7.5335783958435">
        <ele>522</ele>
        <time>2019-09-11T07:36:17+00:00</time>
      </trkpt>
      <trkpt lat="43.344783782959" lon="-7.5335898399353">
        <ele>522</ele>
        <time>2019-09-11T07:36:18+00:00</time>
      </trkpt>
      <trkpt lat="43.344802856445" lon="-7.5335731506348">
        <ele>522</ele>
        <time>2019-09-11T07:36:19+00:00</time>
      </trkpt>
      <trkpt lat="43.344818115234" lon="-7.533561706543">
        <ele>522</ele>
        <time>2019-09-11T07:36:20+00:00</time>
      </trkpt>
      <trkpt lat="43.344825744629" lon="-7.5335564613342">
        <ele>522</ele>
        <time>2019-09-11T07:36:21+00:00</time>
      </trkpt>
      <trkpt lat="43.344829559326" lon="-7.533561706543">
        <ele>521</ele>
        <time>2019-09-11T07:36:22+00:00</time>
      </trkpt>
      <trkpt lat="43.344821929932" lon="-7.5335650444031">
        <ele>521</ele>
        <time>2019-09-11T07:36:23+00:00</time>
      </trkpt>
      <trkpt lat="43.34481048584" lon="-7.5335731506348">
        <ele>521</ele>
        <time>2019-09-11T07:36:24+00:00</time>
      </trkpt>
      <trkpt lat="43.344806671143" lon="-7.5335865020752">
        <ele>520</ele>
        <time>2019-09-11T07:36:25+00:00</time>
      </trkpt>
      <trkpt lat="43.344806671143" lon="-7.5335783958435">
        <ele>520</ele>
        <time>2019-09-11T07:36:26+00:00</time>
      </trkpt>
      <trkpt lat="43.344806671143" lon="-7.533579826355">
        <ele>520</ele>
        <time>2019-09-11T07:36:27+00:00</time>
      </trkpt>
      <trkpt lat="43.344814300537" lon="-7.5335783958435">
        <ele>520</ele>
        <time>2019-09-11T07:36:28+00:00</time>
      </trkpt>
      <trkpt lat="43.344833374023" lon="-7.5335650444031">
        <ele>520</ele>
        <time>2019-09-11T07:36:29+00:00</time>
      </trkpt>
      <trkpt lat="43.344848632812" lon="-7.5335450172424">
        <ele>519</ele>
        <time>2019-09-11T07:36:30+00:00</time>
      </trkpt>
      <trkpt lat="43.34485244751" lon="-7.5335330963135">
        <ele>519</ele>
        <time>2019-09-11T07:36:31+00:00</time>
      </trkpt>
      <trkpt lat="43.344860076904" lon="-7.533531665802">
        <ele>519</ele>
        <time>2019-09-11T07:36:32+00:00</time>
      </trkpt>
      <trkpt lat="43.344871520996" lon="-7.5335283279419">
        <ele>519</ele>
        <time>2019-09-11T07:36:33+00:00</time>
      </trkpt>
      <trkpt lat="43.344871520996" lon="-7.5335249900818">
        <ele>519</ele>
        <time>2019-09-11T07:36:34+00:00</time>
      </trkpt>
      <trkpt lat="43.344863891602" lon="-7.5335383415222">
        <ele>519</ele>
        <time>2019-09-11T07:36:35+00:00</time>
      </trkpt>
      <trkpt lat="43.344844818115" lon="-7.5335831642151">
        <ele>519</ele>
        <time>2019-09-11T07:36:36+00:00</time>
      </trkpt>
      <trkpt lat="43.34485244751" lon="-7.5335597991943">
        <ele>519</ele>
        <time>2019-09-11T07:36:37+00:00</time>
      </trkpt>
      <trkpt lat="43.344837188721" lon="-7.5335831642151">
        <ele>519</ele>
        <time>2019-09-11T07:36:38+00:00</time>
      </trkpt>
      <trkpt lat="43.344867706299" lon="-7.5335397720337">
        <ele>519</ele>
        <time>2019-09-11T07:36:39+00:00</time>
      </trkpt>
      <trkpt lat="43.344879150391" lon="-7.5335235595703">
        <ele>518</ele>
        <time>2019-09-11T07:36:40+00:00</time>
      </trkpt>
      <trkpt lat="43.34489440918" lon="-7.5335083007812">
        <ele>518</ele>
        <time>2019-09-11T07:36:41+00:00</time>
      </trkpt>
      <trkpt lat="43.344905853271" lon="-7.5334982872009">
        <ele>518</ele>
        <time>2019-09-11T07:36:42+00:00</time>
      </trkpt>
      <trkpt lat="43.344898223877" lon="-7.5335216522217">
        <ele>518</ele>
        <time>2019-09-11T07:36:43+00:00</time>
      </trkpt>
      <trkpt lat="43.344940185547" lon="-7.5334568023682">
        <ele>518</ele>
        <time>2019-09-11T07:36:44+00:00</time>
      </trkpt>
      <trkpt lat="43.344966888428" lon="-7.5334215164185">
        <ele>518</ele>
        <time>2019-09-11T07:36:45+00:00</time>
      </trkpt>
      <trkpt lat="43.344951629639" lon="-7.5334501266479">
        <ele>518</ele>
        <time>2019-09-11T07:36:46+00:00</time>
      </trkpt>
      <trkpt lat="43.344951629639" lon="-7.5334515571594">
        <ele>517</ele>
        <time>2019-09-11T07:36:47+00:00</time>
      </trkpt>
      <trkpt lat="43.344924926758" lon="-7.5335068702698">
        <ele>517</ele>
        <time>2019-09-11T07:36:48+00:00</time>
      </trkpt>
      <trkpt lat="43.344951629639" lon="-7.533483505249">
        <ele>517</ele>
        <time>2019-09-11T07:36:49+00:00</time>
      </trkpt>
      <trkpt lat="43.344932556152" lon="-7.5335216522217">
        <ele>517</ele>
        <time>2019-09-11T07:36:50+00:00</time>
      </trkpt>
      <trkpt lat="43.34493637085" lon="-7.5335216522217">
        <ele>517</ele>
        <time>2019-09-11T07:36:51+00:00</time>
      </trkpt>
      <trkpt lat="43.345096588135" lon="-7.5332250595093">
        <ele>517</ele>
        <time>2019-09-11T07:37:19+00:00</time>
      </trkpt>
      <trkpt lat="43.345081329346" lon="-7.5332231521606">
        <ele>517</ele>
        <time>2019-09-11T07:37:20+00:00</time>
      </trkpt>
      <trkpt lat="43.345058441162" lon="-7.5332450866699">
        <ele>516</ele>
        <time>2019-09-11T07:37:21+00:00</time>
      </trkpt>
      <trkpt lat="43.345054626465" lon="-7.5332551002502">
        <ele>516</ele>
        <time>2019-09-11T07:37:22+00:00</time>
      </trkpt>
      <trkpt lat="43.345039367676" lon="-7.5332732200623">
        <ele>516</ele>
        <time>2019-09-11T07:37:23+00:00</time>
      </trkpt>
      <trkpt lat="43.345027923584" lon="-7.5332851409912">
        <ele>516</ele>
        <time>2019-09-11T07:37:24+00:00</time>
      </trkpt>
      <trkpt lat="43.345020294189" lon="-7.5332932472229">
        <ele>516</ele>
        <time>2019-09-11T07:37:25+00:00</time>
      </trkpt>
      <trkpt lat="43.3450050354" lon="-7.5333218574524">
        <ele>516</ele>
        <time>2019-09-11T07:37:26+00:00</time>
      </trkpt>
      <trkpt lat="43.345001220703" lon="-7.5333285331726">
        <ele>516</ele>
        <time>2019-09-11T07:37:27+00:00</time>
      </trkpt>
      <trkpt lat="43.344997406006" lon="-7.5333433151245">
        <ele>515</ele>
        <time>2019-09-11T07:37:28+00:00</time>
      </trkpt>
      <trkpt lat="43.344989776611" lon="-7.533360004425">
        <ele>515</ele>
        <time>2019-09-11T07:37:29+00:00</time>
      </trkpt>
      <trkpt lat="43.344997406006" lon="-7.5333633422852">
        <ele>515</ele>
        <time>2019-09-11T07:37:30+00:00</time>
      </trkpt>
      <trkpt lat="43.344982147217" lon="-7.5333847999573">
        <ele>515</ele>
        <time>2019-09-11T07:37:31+00:00</time>
      </trkpt>
      <trkpt lat="43.344966888428" lon="-7.5334115028381">
        <ele>515</ele>
        <time>2019-09-11T07:37:32+00:00</time>
      </trkpt>
      <trkpt lat="43.34496307373" lon="-7.5334281921387">
        <ele>515</ele>
        <time>2019-09-11T07:37:33+00:00</time>
      </trkpt>
      <trkpt lat="43.344966888428" lon="-7.5334281921387">
        <ele>515</ele>
        <time>2019-09-11T07:37:34+00:00</time>
      </trkpt>
      <trkpt lat="43.344970703125" lon="-7.5334315299988">
        <ele>515</ele>
        <time>2019-09-11T07:37:35+00:00</time>
      </trkpt>
      <trkpt lat="43.34497833252" lon="-7.5334215164185">
        <ele>515</ele>
        <time>2019-09-11T07:37:36+00:00</time>
      </trkpt>
      <trkpt lat="43.344966888428" lon="-7.5334448814392">
        <ele>515</ele>
        <time>2019-09-11T07:37:37+00:00</time>
      </trkpt>
      <trkpt lat="43.344951629639" lon="-7.5334734916687">
        <ele>515</ele>
        <time>2019-09-11T07:37:38+00:00</time>
      </trkpt>
      <trkpt lat="43.344966888428" lon="-7.5334515571594">
        <ele>515</ele>
        <time>2019-09-11T07:37:39+00:00</time>
      </trkpt>
      <trkpt lat="43.3450050354" lon="-7.5334134101868">
        <ele>515</ele>
        <time>2019-09-11T07:37:40+00:00</time>
      </trkpt>
      <trkpt lat="43.345020294189" lon="-7.5333948135376">
        <ele>514</ele>
        <time>2019-09-11T07:37:41+00:00</time>
      </trkpt>
      <trkpt lat="43.345024108887" lon="-7.5333914756775">
        <ele>514</ele>
        <time>2019-09-11T07:37:42+00:00</time>
      </trkpt>
      <trkpt lat="43.345054626465" lon="-7.5333199501038">
        <ele>514</ele>
        <time>2019-09-11T07:37:43+00:00</time>
      </trkpt>
      <trkpt lat="43.345096588135" lon="-7.5332350730896">
        <ele>513</ele>
        <time>2019-09-11T07:37:44+00:00</time>
      </trkpt>
      <trkpt lat="43.34508895874" lon="-7.53324842453">
        <ele>513</ele>
        <time>2019-09-11T07:37:45+00:00</time>
      </trkpt>
      <trkpt lat="43.345100402832" lon="-7.5332217216492">
        <ele>513</ele>
        <time>2019-09-11T07:37:46+00:00</time>
      </trkpt>
      <trkpt lat="43.344997406006" lon="-7.5333733558655">
        <ele>512</ele>
        <time>2019-09-11T07:37:47+00:00</time>
      </trkpt>
      <trkpt lat="43.344989776611" lon="-7.5333766937256">
        <ele>512</ele>
        <time>2019-09-11T07:37:48+00:00</time>
      </trkpt>
      <trkpt lat="43.344985961914" lon="-7.533374786377">
        <ele>512</ele>
        <time>2019-09-11T07:37:49+00:00</time>
      </trkpt>
      <trkpt lat="43.344985961914" lon="-7.5333681106567">
        <ele>512</ele>
        <time>2019-09-11T07:37:50+00:00</time>
      </trkpt>
      <trkpt lat="43.344989776611" lon="-7.5333580970764">
        <ele>512</ele>
        <time>2019-09-11T07:37:51+00:00</time>
      </trkpt>
      <trkpt lat="43.345001220703" lon="-7.5333466529846">
        <ele>512</ele>
        <time>2019-09-11T07:37:52+00:00</time>
      </trkpt>
      <trkpt lat="43.344997406006" lon="-7.5333433151245">
        <ele>511</ele>
        <time>2019-09-11T07:37:53+00:00</time>
      </trkpt>
      <trkpt lat="43.344989776611" lon="-7.5333452224731">
        <ele>511</ele>
        <time>2019-09-11T07:37:54+00:00</time>
      </trkpt>
      <trkpt lat="43.34497833252" lon="-7.533360004425">
        <ele>511</ele>
        <time>2019-09-11T07:37:55+00:00</time>
      </trkpt>
      <trkpt lat="43.344970703125" lon="-7.5333847999573">
        <ele>511</ele>
        <time>2019-09-11T07:37:56+00:00</time>
      </trkpt>
      <trkpt lat="43.34497833252" lon="-7.533374786377">
        <ele>511</ele>
        <time>2019-09-11T07:37:57+00:00</time>
      </trkpt>
      <trkpt lat="43.34497833252" lon="-7.5333399772644">
        <ele>510</ele>
        <time>2019-09-11T07:37:58+00:00</time>
      </trkpt>
      <trkpt lat="43.344982147217" lon="-7.5333452224731">
        <ele>510</ele>
        <time>2019-09-11T07:37:59+00:00</time>
      </trkpt>
      <trkpt lat="43.345008850098" lon="-7.5333118438721">
        <ele>510</ele>
        <time>2019-09-11T07:38:00+00:00</time>
      </trkpt>
      <trkpt lat="43.345027923584" lon="-7.5332632064819">
        <ele>510</ele>
        <time>2019-09-11T07:38:01+00:00</time>
      </trkpt>
      <trkpt lat="43.344905853271" lon="-7.5334367752075">
        <ele>509</ele>
        <time>2019-09-11T07:38:02+00:00</time>
      </trkpt>
      <trkpt lat="43.34485244751" lon="-7.5335364341736">
        <ele>509</ele>
        <time>2019-09-11T07:38:03+00:00</time>
      </trkpt>
      <trkpt lat="43.344860076904" lon="-7.5335364341736">
        <ele>508</ele>
        <time>2019-09-11T07:38:04+00:00</time>
      </trkpt>
      <trkpt lat="43.344867706299" lon="-7.5335397720337">
        <ele>508</ele>
        <time>2019-09-11T07:38:05+00:00</time>
      </trkpt>
      <trkpt lat="43.34485244751" lon="-7.5335717201233">
        <ele>508</ele>
        <time>2019-09-11T07:38:06+00:00</time>
      </trkpt>
      <trkpt lat="43.34485244751" lon="-7.5335817337036">
        <ele>508</ele>
        <time>2019-09-11T07:38:07+00:00</time>
      </trkpt>
      <trkpt lat="43.344841003418" lon="-7.5336065292358">
        <ele>508</ele>
        <time>2019-09-11T07:38:08+00:00</time>
      </trkpt>
      <trkpt lat="43.344844818115" lon="-7.5336031913757">
        <ele>508</ele>
        <time>2019-09-11T07:38:09+00:00</time>
      </trkpt>
      <trkpt lat="43.344860076904" lon="-7.5335884094238">
        <ele>507</ele>
        <time>2019-09-11T07:38:10+00:00</time>
      </trkpt>
      <trkpt lat="43.344860076904" lon="-7.5335850715637">
        <ele>507</ele>
        <time>2019-09-11T07:38:11+00:00</time>
      </trkpt>
      <trkpt lat="43.344863891602" lon="-7.5335865020752">
        <ele>507</ele>
        <time>2019-09-11T07:38:12+00:00</time>
      </trkpt>
      <trkpt lat="43.344856262207" lon="-7.5336098670959">
        <ele>507</ele>
        <time>2019-09-11T07:38:13+00:00</time>
      </trkpt>
      <trkpt lat="43.344871520996" lon="-7.5335865020752">
        <ele>507</ele>
        <time>2019-09-11T07:38:14+00:00</time>
      </trkpt>
      <trkpt lat="43.344882965088" lon="-7.5335865020752">
        <ele>507</ele>
        <time>2019-09-11T07:38:15+00:00</time>
      </trkpt>
      <trkpt lat="43.344863891602" lon="-7.5336165428162">
        <ele>507</ele>
        <time>2019-09-11T07:38:16+00:00</time>
      </trkpt>
      <trkpt lat="43.344829559326" lon="-7.5336785316467">
        <ele>507</ele>
        <time>2019-09-11T07:38:17+00:00</time>
      </trkpt>
      <trkpt lat="43.344844818115" lon="-7.5336666107178">
        <ele>507</ele>
        <time>2019-09-11T07:38:18+00:00</time>
      </trkpt>
      <trkpt lat="43.344837188721" lon="-7.5337181091309">
        <ele>506</ele>
        <time>2019-09-11T07:38:19+00:00</time>
      </trkpt>
      <trkpt lat="43.34485244751" lon="-7.5336966514587">
        <ele>506</ele>
        <time>2019-09-11T07:38:20+00:00</time>
      </trkpt>
      <trkpt lat="43.344860076904" lon="-7.5336985588074">
        <ele>506</ele>
        <time>2019-09-11T07:38:21+00:00</time>
      </trkpt>
      <trkpt lat="43.344856262207" lon="-7.5336985588074">
        <ele>506</ele>
        <time>2019-09-11T07:38:22+00:00</time>
      </trkpt>
      <trkpt lat="43.344844818115" lon="-7.5337066650391">
        <ele>506</ele>
        <time>2019-09-11T07:38:23+00:00</time>
      </trkpt>
      <trkpt lat="43.344848632812" lon="-7.5337018966675">
        <ele>506</ele>
        <time>2019-09-11T07:38:24+00:00</time>
      </trkpt>
      <trkpt lat="43.344841003418" lon="-7.533703327179">
        <ele>506</ele>
        <time>2019-09-11T07:38:25+00:00</time>
      </trkpt>
      <trkpt lat="43.344848632812" lon="-7.5336632728577">
        <ele>506</ele>
        <time>2019-09-11T07:38:26+00:00</time>
      </trkpt>
      <trkpt lat="43.344844818115" lon="-7.5336532592773">
        <ele>506</ele>
        <time>2019-09-11T07:38:27+00:00</time>
      </trkpt>
      <trkpt lat="43.34485244751" lon="-7.5336451530457">
        <ele>506</ele>
        <time>2019-09-11T07:38:28+00:00</time>
      </trkpt>
      <trkpt lat="43.344806671143" lon="-7.5337018966675">
        <ele>506</ele>
        <time>2019-09-11T07:38:29+00:00</time>
      </trkpt>
      <trkpt lat="43.344833374023" lon="-7.5336699485779">
        <ele>506</ele>
        <time>2019-09-11T07:38:30+00:00</time>
      </trkpt>
      <trkpt lat="43.345020294189" lon="-7.5333666801453">
        <ele>507</ele>
        <time>2019-09-11T07:38:31+00:00</time>
      </trkpt>
      <trkpt lat="43.345016479492" lon="-7.533341884613">
        <ele>508</ele>
        <time>2019-09-11T07:38:32+00:00</time>
      </trkpt>
      <trkpt lat="43.345016479492" lon="-7.5333352088928">
        <ele>508</ele>
        <time>2019-09-11T07:38:33+00:00</time>
      </trkpt>
      <trkpt lat="43.345031738281" lon="-7.5333151817322">
        <ele>508</ele>
        <time>2019-09-11T07:38:34+00:00</time>
      </trkpt>
      <trkpt lat="43.345039367676" lon="-7.5332999229431">
        <ele>508</ele>
        <time>2019-09-11T07:38:35+00:00</time>
      </trkpt>
      <trkpt lat="43.3450050354" lon="-7.5333533287048">
        <ele>507</ele>
        <time>2019-09-11T07:38:36+00:00</time>
      </trkpt>
      <trkpt lat="43.3450050354" lon="-7.5333633422852">
        <ele>507</ele>
        <time>2019-09-11T07:38:37+00:00</time>
      </trkpt>
      <trkpt lat="43.344970703125" lon="-7.5334515571594">
        <ele>507</ele>
        <time>2019-09-11T07:38:38+00:00</time>
      </trkpt>
      <trkpt lat="43.344974517822" lon="-7.5334548950195">
        <ele>507</ele>
        <time>2019-09-11T07:38:39+00:00</time>
      </trkpt>
      <trkpt lat="43.34496307373" lon="-7.5334782600403">
        <ele>507</ele>
        <time>2019-09-11T07:38:40+00:00</time>
      </trkpt>
      <trkpt lat="43.344959259033" lon="-7.5334868431091">
        <ele>507</ele>
        <time>2019-09-11T07:38:41+00:00</time>
      </trkpt>
      <trkpt lat="43.344955444336" lon="-7.5334882736206">
        <ele>507</ele>
        <time>2019-09-11T07:38:42+00:00</time>
      </trkpt>
      <trkpt lat="43.344924926758" lon="-7.533531665802">
        <ele>507</ele>
        <time>2019-09-11T07:38:43+00:00</time>
      </trkpt>
      <trkpt lat="43.344917297363" lon="-7.5335397720337">
        <ele>507</ele>
        <time>2019-09-11T07:38:44+00:00</time>
      </trkpt>
      <trkpt lat="43.344905853271" lon="-7.5335597991943">
        <ele>507</ele>
        <time>2019-09-11T07:38:45+00:00</time>
      </trkpt>
      <trkpt lat="43.344902038574" lon="-7.5335597991943">
        <ele>507</ele>
        <time>2019-09-11T07:38:46+00:00</time>
      </trkpt>
      <trkpt lat="43.344909667969" lon="-7.5335564613342">
        <ele>507</ele>
        <time>2019-09-11T07:38:47+00:00</time>
      </trkpt>
      <trkpt lat="43.344890594482" lon="-7.5335831642151">
        <ele>507</ele>
        <time>2019-09-11T07:38:48+00:00</time>
      </trkpt>
      <trkpt lat="43.344867706299" lon="-7.5336165428162">
        <ele>507</ele>
        <time>2019-09-11T07:38:49+00:00</time>
      </trkpt>
      <trkpt lat="43.344844818115" lon="-7.5336532592773">
        <ele>507</ele>
        <time>2019-09-11T07:38:50+00:00</time>
      </trkpt>
      <trkpt lat="43.344844818115" lon="-7.5336499214172">
        <ele>507</ele>
        <time>2019-09-11T07:38:51+00:00</time>
      </trkpt>
      <trkpt lat="43.344821929932" lon="-7.5336833000183">
        <ele>507</ele>
        <time>2019-09-11T07:38:52+00:00</time>
      </trkpt>
      <trkpt lat="43.344802856445" lon="-7.5337133407593">
        <ele>507</ele>
        <time>2019-09-11T07:38:53+00:00</time>
      </trkpt>
      <trkpt lat="43.344795227051" lon="-7.5337233543396">
        <ele>507</ele>
        <time>2019-09-11T07:38:54+00:00</time>
      </trkpt>
      <trkpt lat="43.344753265381" lon="-7.5337767601013">
        <ele>507</ele>
        <time>2019-09-11T07:38:55+00:00</time>
      </trkpt>
      <trkpt lat="43.344657897949" lon="-7.5339384078979">
        <ele>507</ele>
        <time>2019-09-11T07:38:56+00:00</time>
      </trkpt>
      <trkpt lat="43.344631195068" lon="-7.5339798927307">
        <ele>507</ele>
        <time>2019-09-11T07:38:57+00:00</time>
      </trkpt>
      <trkpt lat="43.344608306885" lon="-7.5340166091919">
        <ele>507</ele>
        <time>2019-09-11T07:38:58+00:00</time>
      </trkpt>
      <trkpt lat="43.344573974609" lon="-7.5340585708618">
        <ele>507</ele>
        <time>2019-09-11T07:38:59+00:00</time>
      </trkpt>
      <trkpt lat="43.344596862793" lon="-7.5340332984924">
        <ele>507</ele>
        <time>2019-09-11T07:39:00+00:00</time>
      </trkpt>
      <trkpt lat="43.34455871582" lon="-7.5340981483459">
        <ele>507</ele>
        <time>2019-09-11T07:39:01+00:00</time>
      </trkpt>
      <trkpt lat="43.344535827637" lon="-7.5341334342957">
        <ele>507</ele>
        <time>2019-09-11T07:39:02+00:00</time>
      </trkpt>
      <trkpt lat="43.344543457031" lon="-7.5341267585754">
        <ele>507</ele>
        <time>2019-09-11T07:39:03+00:00</time>
      </trkpt>
      <trkpt lat="43.344543457031" lon="-7.5341215133667">
        <ele>507</ele>
        <time>2019-09-11T07:39:04+00:00</time>
      </trkpt>
      <trkpt lat="43.344604492188" lon="-7.5339984893799">
        <ele>507</ele>
        <time>2019-09-11T07:39:05+00:00</time>
      </trkpt>
      <trkpt lat="43.344627380371" lon="-7.5339365005493">
        <ele>507</ele>
        <time>2019-09-11T07:39:06+00:00</time>
      </trkpt>
      <trkpt lat="43.344814300537" lon="-7.5336999893188">
        <ele>507</ele>
        <time>2019-09-11T07:39:08+00:00</time>
      </trkpt>
      <trkpt lat="43.344947814941" lon="-7.5335001945496">
        <ele>506</ele>
        <time>2019-09-11T07:39:09+00:00</time>
      </trkpt>
      <trkpt lat="43.345024108887" lon="-7.5333881378174">
        <ele>506</ele>
        <time>2019-09-11T07:39:10+00:00</time>
      </trkpt>
      <trkpt lat="43.345077514648" lon="-7.5333232879639">
        <ele>506</ele>
        <time>2019-09-11T07:39:11+00:00</time>
      </trkpt>
      <trkpt lat="43.34513092041" lon="-7.5332498550415">
        <ele>506</ele>
        <time>2019-09-11T07:39:12+00:00</time>
      </trkpt>
      <trkpt lat="43.345157623291" lon="-7.5332164764404">
        <ele>506</ele>
        <time>2019-09-11T07:39:13+00:00</time>
      </trkpt>
      <trkpt lat="43.345203399658" lon="-7.5331583023071">
        <ele>505</ele>
        <time>2019-09-11T07:39:14+00:00</time>
      </trkpt>
      <trkpt lat="43.345226287842" lon="-7.5331315994263">
        <ele>505</ele>
        <time>2019-09-11T07:39:15+00:00</time>
      </trkpt>
      <trkpt lat="43.345226287842" lon="-7.5331301689148">
        <ele>505</ele>
        <time>2019-09-11T07:39:16+00:00</time>
      </trkpt>
      <trkpt lat="43.345222473145" lon="-7.5331349372864">
        <ele>505</ele>
        <time>2019-09-11T07:39:17+00:00</time>
      </trkpt>
      <trkpt lat="43.345153808594" lon="-7.5332231521606">
        <ele>505</ele>
        <time>2019-09-11T07:39:18+00:00</time>
      </trkpt>
      <trkpt lat="43.345096588135" lon="-7.5332951545715">
        <ele>505</ele>
        <time>2019-09-11T07:39:19+00:00</time>
      </trkpt>
      <trkpt lat="43.345092773438" lon="-7.5333018302917">
        <ele>505</ele>
        <time>2019-09-11T07:39:20+00:00</time>
      </trkpt>
      <trkpt lat="43.345077514648" lon="-7.5333199501038">
        <ele>505</ele>
        <time>2019-09-11T07:39:21+00:00</time>
      </trkpt>
      <trkpt lat="43.345066070557" lon="-7.5333285331726">
        <ele>505</ele>
        <time>2019-09-11T07:39:22+00:00</time>
      </trkpt>
      <trkpt lat="43.345020294189" lon="-7.5333881378174">
        <ele>505</ele>
        <time>2019-09-11T07:39:23+00:00</time>
      </trkpt>
      <trkpt lat="43.344959259033" lon="-7.53346824646">
        <ele>504</ele>
        <time>2019-09-11T07:39:24+00:00</time>
      </trkpt>
      <trkpt lat="43.344944000244" lon="-7.5334768295288">
        <ele>504</ele>
        <time>2019-09-11T07:39:25+00:00</time>
      </trkpt>
      <trkpt lat="43.34493637085" lon="-7.5334815979004">
        <ele>504</ele>
        <time>2019-09-11T07:39:26+00:00</time>
      </trkpt>
      <trkpt lat="43.344924926758" lon="-7.5334935188293">
        <ele>504</ele>
        <time>2019-09-11T07:39:27+00:00</time>
      </trkpt>
      <trkpt lat="43.344921112061" lon="-7.5335001945496">
        <ele>504</ele>
        <time>2019-09-11T07:39:28+00:00</time>
      </trkpt>
      <trkpt lat="43.344921112061" lon="-7.5335049629211">
        <ele>504</ele>
        <time>2019-09-11T07:39:29+00:00</time>
      </trkpt>
      <trkpt lat="43.344924926758" lon="-7.5334968566895">
        <ele>504</ele>
        <time>2019-09-11T07:39:30+00:00</time>
      </trkpt>
      <trkpt lat="43.34493637085" lon="-7.5334801673889">
        <ele>504</ele>
        <time>2019-09-11T07:39:31+00:00</time>
      </trkpt>
      <trkpt lat="43.344955444336" lon="-7.5334582328796">
        <ele>504</ele>
        <time>2019-09-11T07:39:32+00:00</time>
      </trkpt>
      <trkpt lat="43.344966888428" lon="-7.5334482192993">
        <ele>503</ele>
        <time>2019-09-11T07:39:33+00:00</time>
      </trkpt>
      <trkpt lat="43.344966888428" lon="-7.5334534645081">
        <ele>503</ele>
        <time>2019-09-11T07:39:34+00:00</time>
      </trkpt>
      <trkpt lat="43.344959259033" lon="-7.5334815979004">
        <ele>503</ele>
        <time>2019-09-11T07:39:35+00:00</time>
      </trkpt>
      <trkpt lat="43.34493637085" lon="-7.5334901809692">
        <ele>503</ele>
        <time>2019-09-11T07:39:36+00:00</time>
      </trkpt>
      <trkpt lat="43.34493637085" lon="-7.5334935188293">
        <ele>503</ele>
        <time>2019-09-11T07:39:37+00:00</time>
      </trkpt>
      <trkpt lat="43.344924926758" lon="-7.5334949493408">
        <ele>503</ele>
        <time>2019-09-11T07:39:38+00:00</time>
      </trkpt>
      <trkpt lat="43.344917297363" lon="-7.5334701538086">
        <ele>503</ele>
        <time>2019-09-11T07:39:39+00:00</time>
      </trkpt>
      <trkpt lat="43.344917297363" lon="-7.5334568023682">
        <ele>503</ele>
        <time>2019-09-11T07:39:40+00:00</time>
      </trkpt>
      <trkpt lat="43.344917297363" lon="-7.5334467887878">
        <ele>503</ele>
        <time>2019-09-11T07:39:41+00:00</time>
      </trkpt>
      <trkpt lat="43.344898223877" lon="-7.5334668159485">
        <ele>503</ele>
        <time>2019-09-11T07:39:42+00:00</time>
      </trkpt>
      <trkpt lat="43.344898223877" lon="-7.5334715843201">
        <ele>503</ele>
        <time>2019-09-11T07:39:43+00:00</time>
      </trkpt>
      <trkpt lat="43.344902038574" lon="-7.5334548950195">
        <ele>503</ele>
        <time>2019-09-11T07:39:44+00:00</time>
      </trkpt>
      <trkpt lat="43.344913482666" lon="-7.5334415435791">
        <ele>503</ele>
        <time>2019-09-11T07:39:45+00:00</time>
      </trkpt>
      <trkpt lat="43.344928741455" lon="-7.5334115028381">
        <ele>503</ele>
        <time>2019-09-11T07:39:46+00:00</time>
      </trkpt>
      <trkpt lat="43.344924926758" lon="-7.5334234237671">
        <ele>503</ele>
        <time>2019-09-11T07:39:47+00:00</time>
      </trkpt>
      <trkpt lat="43.344966888428" lon="-7.5333614349365">
        <ele>503</ele>
        <time>2019-09-11T07:39:48+00:00</time>
      </trkpt>
      <trkpt lat="43.34493637085" lon="-7.5334033966064">
        <ele>504</ele>
        <time>2019-09-11T07:39:49+00:00</time>
      </trkpt>
      <trkpt lat="43.34493637085" lon="-7.5334014892578">
        <ele>503</ele>
        <time>2019-09-11T07:39:50+00:00</time>
      </trkpt>
      <trkpt lat="43.344921112061" lon="-7.5334100723267">
        <ele>503</ele>
        <time>2019-09-11T07:39:51+00:00</time>
      </trkpt>
      <trkpt lat="43.344905853271" lon="-7.533420085907">
        <ele>503</ele>
        <time>2019-09-11T07:39:52+00:00</time>
      </trkpt>
      <trkpt lat="43.344902038574" lon="-7.5334181785583">
        <ele>503</ele>
        <time>2019-09-11T07:39:53+00:00</time>
      </trkpt>
      <trkpt lat="43.34489440918" lon="-7.5334248542786">
        <ele>503</ele>
        <time>2019-09-11T07:39:54+00:00</time>
      </trkpt>
      <trkpt lat="43.344879150391" lon="-7.5334334373474">
        <ele>503</ele>
        <time>2019-09-11T07:39:55+00:00</time>
      </trkpt>
      <trkpt lat="43.344879150391" lon="-7.5334267616272">
        <ele>503</ele>
        <time>2019-09-11T07:39:56+00:00</time>
      </trkpt>
      <trkpt lat="43.344879150391" lon="-7.5334267616272">
        <ele>503</ele>
        <time>2019-09-11T07:39:57+00:00</time>
      </trkpt>
      <trkpt lat="43.344886779785" lon="-7.5334248542786">
        <ele>503</ele>
        <time>2019-09-11T07:39:58+00:00</time>
      </trkpt>
      <trkpt lat="43.34489440918" lon="-7.5334167480469">
        <ele>503</ele>
        <time>2019-09-11T07:39:59+00:00</time>
      </trkpt>
      <trkpt lat="43.344913482666" lon="-7.5333948135376">
        <ele>503</ele>
        <time>2019-09-11T07:40:00+00:00</time>
      </trkpt>
      <trkpt lat="43.344898223877" lon="-7.5334115028381">
        <ele>503</ele>
        <time>2019-09-11T07:40:01+00:00</time>
      </trkpt>
      <trkpt lat="43.344882965088" lon="-7.5334315299988">
        <ele>503</ele>
        <time>2019-09-11T07:40:02+00:00</time>
      </trkpt>
      <trkpt lat="43.344886779785" lon="-7.5334215164185">
        <ele>503</ele>
        <time>2019-09-11T07:40:03+00:00</time>
      </trkpt>
      <trkpt lat="43.344867706299" lon="-7.5334415435791">
        <ele>503</ele>
        <time>2019-09-11T07:40:04+00:00</time>
      </trkpt>
      <trkpt lat="43.344867706299" lon="-7.533438205719">
        <ele>503</ele>
        <time>2019-09-11T07:40:05+00:00</time>
      </trkpt>
      <trkpt lat="43.344890594482" lon="-7.5334067344666">
        <ele>503</ele>
        <time>2019-09-11T07:40:06+00:00</time>
      </trkpt>
      <trkpt lat="43.344913482666" lon="-7.5334248542786">
        <ele>503</ele>
        <time>2019-09-11T07:40:07+00:00</time>
      </trkpt>
      <trkpt lat="43.344940185547" lon="-7.5333981513977">
        <ele>503</ele>
        <time>2019-09-11T07:40:08+00:00</time>
      </trkpt>
      <trkpt lat="43.344955444336" lon="-7.5333733558655">
        <ele>503</ele>
        <time>2019-09-11T07:40:09+00:00</time>
      </trkpt>
      <trkpt lat="43.344974517822" lon="-7.5333533287048">
        <ele>503</ele>
        <time>2019-09-11T07:40:10+00:00</time>
      </trkpt>
      <trkpt lat="43.344989776611" lon="-7.5333433151245">
        <ele>503</ele>
        <time>2019-09-11T07:40:11+00:00</time>
      </trkpt>
      <trkpt lat="43.3450050354" lon="-7.5333299636841">
        <ele>503</ele>
        <time>2019-09-11T07:40:12+00:00</time>
      </trkpt>
      <trkpt lat="43.345031738281" lon="-7.5332918167114">
        <ele>503</ele>
        <time>2019-09-11T07:40:13+00:00</time>
      </trkpt>
      <trkpt lat="43.345043182373" lon="-7.533278465271">
        <ele>503</ele>
        <time>2019-09-11T07:40:14+00:00</time>
      </trkpt>
      <trkpt lat="43.345054626465" lon="-7.5332717895508">
        <ele>503</ele>
        <time>2019-09-11T07:40:15+00:00</time>
      </trkpt>
      <trkpt lat="43.345058441162" lon="-7.5332584381104">
        <ele>503</ele>
        <time>2019-09-11T07:40:16+00:00</time>
      </trkpt>
      <trkpt lat="43.345069885254" lon="-7.5332431793213">
        <ele>503</ele>
        <time>2019-09-11T07:40:17+00:00</time>
      </trkpt>
      <trkpt lat="43.345077514648" lon="-7.5332317352295">
        <ele>503</ele>
        <time>2019-09-11T07:40:18+00:00</time>
      </trkpt>
      <trkpt lat="43.34504699707" lon="-7.5332617759705">
        <ele>503</ele>
        <time>2019-09-11T07:40:19+00:00</time>
      </trkpt>
      <trkpt lat="43.345008850098" lon="-7.5333466529846">
        <ele>503</ele>
        <time>2019-09-11T07:40:20+00:00</time>
      </trkpt>
      <trkpt lat="43.344993591309" lon="-7.5333681106567">
        <ele>503</ele>
        <time>2019-09-11T07:40:21+00:00</time>
      </trkpt>
      <trkpt lat="43.3450050354" lon="-7.5333518981934">
        <ele>503</ele>
        <time>2019-09-11T07:40:22+00:00</time>
      </trkpt>
      <trkpt lat="43.345024108887" lon="-7.533326625824">
        <ele>502</ele>
        <time>2019-09-11T07:40:23+00:00</time>
      </trkpt>
      <trkpt lat="43.345043182373" lon="-7.5333132743835">
        <ele>502</ele>
        <time>2019-09-11T07:40:24+00:00</time>
      </trkpt>
      <trkpt lat="43.345039367676" lon="-7.5333232879639">
        <ele>502</ele>
        <time>2019-09-11T07:40:25+00:00</time>
      </trkpt>
      <trkpt lat="43.345031738281" lon="-7.5333366394043">
        <ele>502</ele>
        <time>2019-09-11T07:40:26+00:00</time>
      </trkpt>
      <trkpt lat="43.345016479492" lon="-7.5333714485168">
        <ele>502</ele>
        <time>2019-09-11T07:40:27+00:00</time>
      </trkpt>
      <trkpt lat="43.345024108887" lon="-7.5333566665649">
        <ele>502</ele>
        <time>2019-09-11T07:40:28+00:00</time>
      </trkpt>
      <trkpt lat="43.345027923584" lon="-7.5333533287048">
        <ele>502</ele>
        <time>2019-09-11T07:40:29+00:00</time>
      </trkpt>
      <trkpt lat="43.345027923584" lon="-7.533360004425">
        <ele>502</ele>
        <time>2019-09-11T07:40:30+00:00</time>
      </trkpt>
      <trkpt lat="43.345031738281" lon="-7.5333614349365">
        <ele>503</ele>
        <time>2019-09-11T07:40:31+00:00</time>
      </trkpt>
      <trkpt lat="43.345058441162" lon="-7.5333518981934">
        <ele>503</ele>
        <time>2019-09-11T07:40:32+00:00</time>
      </trkpt>
      <trkpt lat="43.345100402832" lon="-7.5333099365234">
        <ele>504</ele>
        <time>2019-09-11T07:40:33+00:00</time>
      </trkpt>
      <trkpt lat="43.345115661621" lon="-7.5332851409912">
        <ele>504</ele>
        <time>2019-09-11T07:40:34+00:00</time>
      </trkpt>
      <trkpt lat="43.345134735107" lon="-7.5332632064819">
        <ele>504</ele>
        <time>2019-09-11T07:40:35+00:00</time>
      </trkpt>
      <trkpt lat="43.345149993896" lon="-7.5332551002502">
        <ele>504</ele>
        <time>2019-09-11T07:40:36+00:00</time>
      </trkpt>
      <trkpt lat="43.345161437988" lon="-7.5332350730896">
        <ele>504</ele>
        <time>2019-09-11T07:40:37+00:00</time>
      </trkpt>
      <trkpt lat="43.345169067383" lon="-7.5332317352295">
        <ele>504</ele>
        <time>2019-09-11T07:40:38+00:00</time>
      </trkpt>
      <trkpt lat="43.345195770264" lon="-7.5332016944885">
        <ele>504</ele>
        <time>2019-09-11T07:40:39+00:00</time>
      </trkpt>
      <trkpt lat="43.345184326172" lon="-7.5332198143005">
        <ele>504</ele>
        <time>2019-09-11T07:40:40+00:00</time>
      </trkpt>
      <trkpt lat="43.345161437988" lon="-7.5332450866699">
        <ele>504</ele>
        <time>2019-09-11T07:40:41+00:00</time>
      </trkpt>
      <trkpt lat="43.345165252686" lon="-7.5332498550415">
        <ele>504</ele>
        <time>2019-09-11T07:40:42+00:00</time>
      </trkpt>
      <trkpt lat="43.345146179199" lon="-7.533278465271">
        <ele>504</ele>
        <time>2019-09-11T07:40:43+00:00</time>
      </trkpt>
      <trkpt lat="43.345149993896" lon="-7.5332651138306">
        <ele>504</ele>
        <time>2019-09-11T07:40:44+00:00</time>
      </trkpt>
      <trkpt lat="43.345157623291" lon="-7.5332465171814">
        <ele>504</ele>
        <time>2019-09-11T07:40:45+00:00</time>
      </trkpt>
      <trkpt lat="43.34517288208" lon="-7.5331916809082">
        <ele>504</ele>
        <time>2019-09-11T07:40:46+00:00</time>
      </trkpt>
      <trkpt lat="43.345176696777" lon="-7.533154964447">
        <ele>504</ele>
        <time>2019-09-11T07:40:47+00:00</time>
      </trkpt>
      <trkpt lat="43.345184326172" lon="-7.5331301689148">
        <ele>504</ele>
        <time>2019-09-11T07:40:48+00:00</time>
      </trkpt>
      <trkpt lat="43.345188140869" lon="-7.5331168174744">
        <ele>504</ele>
        <time>2019-09-11T07:40:49+00:00</time>
      </trkpt>
      <trkpt lat="43.345184326172" lon="-7.5331201553345">
        <ele>504</ele>
        <time>2019-09-11T07:40:50+00:00</time>
      </trkpt>
      <trkpt lat="43.345165252686" lon="-7.5331435203552">
        <ele>504</ele>
        <time>2019-09-11T07:40:51+00:00</time>
      </trkpt>
      <trkpt lat="43.345157623291" lon="-7.5331501960754">
        <ele>504</ele>
        <time>2019-09-11T07:40:52+00:00</time>
      </trkpt>
      <trkpt lat="43.345157623291" lon="-7.5331583023071">
        <ele>504</ele>
        <time>2019-09-11T07:40:53+00:00</time>
      </trkpt>
      <trkpt lat="43.345180511475" lon="-7.5331182479858">
        <ele>504</ele>
        <time>2019-09-11T07:40:54+00:00</time>
      </trkpt>
      <trkpt lat="43.345176696777" lon="-7.5331249237061">
        <ele>504</ele>
        <time>2019-09-11T07:40:55+00:00</time>
      </trkpt>
      <trkpt lat="43.345169067383" lon="-7.5331335067749">
        <ele>504</ele>
        <time>2019-09-11T07:40:56+00:00</time>
      </trkpt>
      <trkpt lat="43.345161437988" lon="-7.5331416130066">
        <ele>504</ele>
        <time>2019-09-11T07:40:57+00:00</time>
      </trkpt>
      <trkpt lat="43.345188140869" lon="-7.5331134796143">
        <ele>504</ele>
        <time>2019-09-11T07:40:58+00:00</time>
      </trkpt>
      <trkpt lat="43.345184326172" lon="-7.5331201553345">
        <ele>504</ele>
        <time>2019-09-11T07:40:59+00:00</time>
      </trkpt>
      <trkpt lat="43.345180511475" lon="-7.5331301689148">
        <ele>504</ele>
        <time>2019-09-11T07:41:00+00:00</time>
      </trkpt>
      <trkpt lat="43.345211029053" lon="-7.5330867767334">
        <ele>504</ele>
        <time>2019-09-11T07:41:01+00:00</time>
      </trkpt>
      <trkpt lat="43.345226287842" lon="-7.5330715179443">
        <ele>504</ele>
        <time>2019-09-11T07:41:02+00:00</time>
      </trkpt>
      <trkpt lat="43.345230102539" lon="-7.5330667495728">
        <ele>504</ele>
        <time>2019-09-11T07:41:03+00:00</time>
      </trkpt>
      <trkpt lat="43.345245361328" lon="-7.5330381393433">
        <ele>504</ele>
        <time>2019-09-11T07:41:04+00:00</time>
      </trkpt>
      <trkpt lat="43.345230102539" lon="-7.5330467224121">
        <ele>504</ele>
        <time>2019-09-11T07:41:05+00:00</time>
      </trkpt>
      <trkpt lat="43.34521484375" lon="-7.5331101417542">
        <ele>504</ele>
        <time>2019-09-11T07:41:06+00:00</time>
      </trkpt>
      <trkpt lat="43.345294952393" lon="-7.5330100059509">
        <ele>504</ele>
        <time>2019-09-11T07:41:07+00:00</time>
      </trkpt>
      <trkpt lat="43.345310211182" lon="-7.532995223999">
        <ele>504</ele>
        <time>2019-09-11T07:41:08+00:00</time>
      </trkpt>
      <trkpt lat="43.345333099365" lon="-7.5329751968384">
        <ele>504</ele>
        <time>2019-09-11T07:41:09+00:00</time>
      </trkpt>
      <trkpt lat="43.34534072876" lon="-7.5329766273499">
        <ele>504</ele>
        <time>2019-09-11T07:41:10+00:00</time>
      </trkpt>
      <trkpt lat="43.345348358154" lon="-7.5329666137695">
        <ele>504</ele>
        <time>2019-09-11T07:41:11+00:00</time>
      </trkpt>
      <trkpt lat="43.345359802246" lon="-7.5329566001892">
        <ele>504</ele>
        <time>2019-09-11T07:41:12+00:00</time>
      </trkpt>
      <trkpt lat="43.345355987549" lon="-7.5329685211182">
        <ele>504</ele>
        <time>2019-09-11T07:41:13+00:00</time>
      </trkpt>
      <trkpt lat="43.345378875732" lon="-7.5329217910767">
        <ele>504</ele>
        <time>2019-09-11T07:41:14+00:00</time>
      </trkpt>
      <trkpt lat="43.345386505127" lon="-7.532901763916">
        <ele>504</ele>
        <time>2019-09-11T07:41:15+00:00</time>
      </trkpt>
      <trkpt lat="43.345394134521" lon="-7.5328798294067">
        <ele>504</ele>
        <time>2019-09-11T07:41:16+00:00</time>
      </trkpt>
      <trkpt lat="43.345417022705" lon="-7.5328397750854">
        <ele>504</ele>
        <time>2019-09-11T07:41:17+00:00</time>
      </trkpt>
      <trkpt lat="43.345409393311" lon="-7.532838344574">
        <ele>504</ele>
        <time>2019-09-11T07:41:18+00:00</time>
      </trkpt>
      <trkpt lat="43.345394134521" lon="-7.532856464386">
        <ele>504</ele>
        <time>2019-09-11T07:41:19+00:00</time>
      </trkpt>
      <trkpt lat="43.345371246338" lon="-7.5328850746155">
        <ele>504</ele>
        <time>2019-09-11T07:41:20+00:00</time>
      </trkpt>
      <trkpt lat="43.345344543457" lon="-7.532901763916">
        <ele>504</ele>
        <time>2019-09-11T07:41:21+00:00</time>
      </trkpt>
      <trkpt lat="43.345321655273" lon="-7.5329217910767">
        <ele>504</ele>
        <time>2019-09-11T07:41:22+00:00</time>
      </trkpt>
      <trkpt lat="43.345310211182" lon="-7.5329451560974">
        <ele>504</ele>
        <time>2019-09-11T07:41:23+00:00</time>
      </trkpt>
      <trkpt lat="43.345302581787" lon="-7.5329532623291">
        <ele>504</ele>
        <time>2019-09-11T07:41:24+00:00</time>
      </trkpt>
      <trkpt lat="43.345283508301" lon="-7.5329818725586">
        <ele>504</ele>
        <time>2019-09-11T07:41:25+00:00</time>
      </trkpt>
      <trkpt lat="43.345294952393" lon="-7.5329666137695">
        <ele>504</ele>
        <time>2019-09-11T07:41:26+00:00</time>
      </trkpt>
      <trkpt lat="43.345294952393" lon="-7.5329551696777">
        <ele>504</ele>
        <time>2019-09-11T07:41:27+00:00</time>
      </trkpt>
      <trkpt lat="43.345264434814" lon="-7.5329885482788">
        <ele>504</ele>
        <time>2019-09-11T07:41:28+00:00</time>
      </trkpt>
      <trkpt lat="43.345245361328" lon="-7.5330052375793">
        <ele>504</ele>
        <time>2019-09-11T07:41:29+00:00</time>
      </trkpt>
      <trkpt lat="43.345264434814" lon="-7.5329833030701">
        <ele>504</ele>
        <time>2019-09-11T07:41:30+00:00</time>
      </trkpt>
      <trkpt lat="43.34525680542" lon="-7.533013343811">
        <ele>504</ele>
        <time>2019-09-11T07:41:31+00:00</time>
      </trkpt>
      <trkpt lat="43.345264434814" lon="-7.5330100059509">
        <ele>504</ele>
        <time>2019-09-11T07:41:32+00:00</time>
      </trkpt>
      <trkpt lat="43.345252990723" lon="-7.5330381393433">
        <ele>504</ele>
        <time>2019-09-11T07:41:33+00:00</time>
      </trkpt>
      <trkpt lat="43.345268249512" lon="-7.5330181121826">
        <ele>504</ele>
        <time>2019-09-11T07:41:34+00:00</time>
      </trkpt>
      <trkpt lat="43.345279693604" lon="-7.5330066680908">
        <ele>503</ele>
        <time>2019-09-11T07:41:35+00:00</time>
      </trkpt>
      <trkpt lat="43.345272064209" lon="-7.5330080986023">
        <ele>503</ele>
        <time>2019-09-11T07:41:36+00:00</time>
      </trkpt>
      <trkpt lat="43.345283508301" lon="-7.5330033302307">
        <ele>503</ele>
        <time>2019-09-11T07:41:37+00:00</time>
      </trkpt>
      <trkpt lat="43.34529876709" lon="-7.5329899787903">
        <ele>503</ele>
        <time>2019-09-11T07:41:38+00:00</time>
      </trkpt>
      <trkpt lat="43.345302581787" lon="-7.5329966545105">
        <ele>503</ele>
        <time>2019-09-11T07:41:39+00:00</time>
      </trkpt>
      <trkpt lat="43.345294952393" lon="-7.5330114364624">
        <ele>503</ele>
        <time>2019-09-11T07:41:40+00:00</time>
      </trkpt>
      <trkpt lat="43.34529876709" lon="-7.5329966545105">
        <ele>503</ele>
        <time>2019-09-11T07:41:41+00:00</time>
      </trkpt>
      <trkpt lat="43.345268249512" lon="-7.5330214500427">
        <ele>503</ele>
        <time>2019-09-11T07:41:42+00:00</time>
      </trkpt>
      <trkpt lat="43.345283508301" lon="-7.5329933166504">
        <ele>503</ele>
        <time>2019-09-11T07:41:43+00:00</time>
      </trkpt>
      <trkpt lat="43.345283508301" lon="-7.532995223999">
        <ele>503</ele>
        <time>2019-09-11T07:41:44+00:00</time>
      </trkpt>
      <trkpt lat="43.345264434814" lon="-7.5330333709717">
        <ele>503</ele>
        <time>2019-09-11T07:41:45+00:00</time>
      </trkpt>
      <trkpt lat="43.345260620117" lon="-7.5330400466919">
        <ele>503</ele>
        <time>2019-09-11T07:41:46+00:00</time>
      </trkpt>
      <trkpt lat="43.345268249512" lon="-7.533031463623">
        <ele>503</ele>
        <time>2019-09-11T07:41:47+00:00</time>
      </trkpt>
      <trkpt lat="43.345314025879" lon="-7.5329751968384">
        <ele>503</ele>
        <time>2019-09-11T07:41:48+00:00</time>
      </trkpt>
      <trkpt lat="43.345333099365" lon="-7.5329585075378">
        <ele>503</ele>
        <time>2019-09-11T07:41:49+00:00</time>
      </trkpt>
      <trkpt lat="43.345352172852" lon="-7.5329384803772">
        <ele>503</ele>
        <time>2019-09-11T07:41:50+00:00</time>
      </trkpt>
      <trkpt lat="43.345375061035" lon="-7.5329084396362">
        <ele>503</ele>
        <time>2019-09-11T07:41:51+00:00</time>
      </trkpt>
      <trkpt lat="43.345375061035" lon="-7.5329098701477">
        <ele>503</ele>
        <time>2019-09-11T07:41:52+00:00</time>
      </trkpt>
      <trkpt lat="43.345397949219" lon="-7.532886505127">
        <ele>503</ele>
        <time>2019-09-11T07:41:53+00:00</time>
      </trkpt>
      <trkpt lat="43.3454246521" lon="-7.5328531265259">
        <ele>503</ele>
        <time>2019-09-11T07:41:54+00:00</time>
      </trkpt>
      <trkpt lat="43.3454246521" lon="-7.532856464386">
        <ele>503</ele>
        <time>2019-09-11T07:41:55+00:00</time>
      </trkpt>
      <trkpt lat="43.345443725586" lon="-7.5328397750854">
        <ele>503</ele>
        <time>2019-09-11T07:41:56+00:00</time>
      </trkpt>
      <trkpt lat="43.345447540283" lon="-7.5328431129456">
        <ele>503</ele>
        <time>2019-09-11T07:41:57+00:00</time>
      </trkpt>
      <trkpt lat="43.345439910889" lon="-7.5328431129456">
        <ele>504</ele>
        <time>2019-09-11T07:41:58+00:00</time>
      </trkpt>
      <trkpt lat="43.345455169678" lon="-7.5328350067139">
        <ele>504</ele>
        <time>2019-09-11T07:41:59+00:00</time>
      </trkpt>
      <trkpt lat="43.345436096191" lon="-7.532856464386">
        <ele>504</ele>
        <time>2019-09-11T07:42:00+00:00</time>
      </trkpt>
      <trkpt lat="43.345458984375" lon="-7.5328330993652">
        <ele>504</ele>
        <time>2019-09-11T07:42:01+00:00</time>
      </trkpt>
      <trkpt lat="43.345474243164" lon="-7.5328249931335">
        <ele>504</ele>
        <time>2019-09-11T07:42:02+00:00</time>
      </trkpt>
      <trkpt lat="43.34546661377" lon="-7.5328364372253">
        <ele>504</ele>
        <time>2019-09-11T07:42:03+00:00</time>
      </trkpt>
      <trkpt lat="43.345462799072" lon="-7.5328350067139">
        <ele>504</ele>
        <time>2019-09-11T07:42:04+00:00</time>
      </trkpt>
      <trkpt lat="43.345474243164" lon="-7.532838344574">
        <ele>504</ele>
        <time>2019-09-11T07:42:05+00:00</time>
      </trkpt>
      <trkpt lat="43.345497131348" lon="-7.532790184021">
        <ele>504</ele>
        <time>2019-09-11T07:42:06+00:00</time>
      </trkpt>
      <trkpt lat="43.345512390137" lon="-7.5327882766724">
        <ele>504</ele>
        <time>2019-09-11T07:42:07+00:00</time>
      </trkpt>
      <trkpt lat="43.345520019531" lon="-7.5327982902527">
        <ele>504</ele>
        <time>2019-09-11T07:42:08+00:00</time>
      </trkpt>
      <trkpt lat="43.345527648926" lon="-7.5327982902527">
        <ele>504</ele>
        <time>2019-09-11T07:42:09+00:00</time>
      </trkpt>
      <trkpt lat="43.345542907715" lon="-7.5327916145325">
        <ele>504</ele>
        <time>2019-09-11T07:42:10+00:00</time>
      </trkpt>
      <trkpt lat="43.345554351807" lon="-7.5327835083008">
        <ele>504</ele>
        <time>2019-09-11T07:42:11+00:00</time>
      </trkpt>
      <trkpt lat="43.345520019531" lon="-7.5327415466309">
        <ele>504</ele>
        <time>2019-09-11T07:42:14+00:00</time>
      </trkpt>
      <trkpt lat="43.345474243164" lon="-7.5328035354614">
        <ele>504</ele>
        <time>2019-09-11T07:42:15+00:00</time>
      </trkpt>
      <trkpt lat="43.345462799072" lon="-7.5327882766724">
        <ele>504</ele>
        <time>2019-09-11T07:42:16+00:00</time>
      </trkpt>
      <trkpt lat="43.345447540283" lon="-7.5328035354614">
        <ele>504</ele>
        <time>2019-09-11T07:42:17+00:00</time>
      </trkpt>
      <trkpt lat="43.345462799072" lon="-7.5327615737915">
        <ele>503</ele>
        <time>2019-09-11T07:42:18+00:00</time>
      </trkpt>
      <trkpt lat="43.345428466797" lon="-7.532820224762">
        <ele>503</ele>
        <time>2019-09-11T07:42:19+00:00</time>
      </trkpt>
      <trkpt lat="43.345397949219" lon="-7.5328598022461">
        <ele>503</ele>
        <time>2019-09-11T07:42:20+00:00</time>
      </trkpt>
      <trkpt lat="43.345390319824" lon="-7.5328783988953">
        <ele>503</ele>
        <time>2019-09-11T07:42:21+00:00</time>
      </trkpt>
      <trkpt lat="43.345378875732" lon="-7.5328898429871">
        <ele>503</ele>
        <time>2019-09-11T07:42:22+00:00</time>
      </trkpt>
      <trkpt lat="43.345375061035" lon="-7.5328817367554">
        <ele>503</ele>
        <time>2019-09-11T07:42:23+00:00</time>
      </trkpt>
      <trkpt lat="43.345367431641" lon="-7.5328831672668">
        <ele>503</ele>
        <time>2019-09-11T07:42:24+00:00</time>
      </trkpt>
      <trkpt lat="43.345294952393" lon="-7.5329718589783">
        <ele>503</ele>
        <time>2019-09-11T07:42:35+00:00</time>
      </trkpt>
      <trkpt lat="43.345245361328" lon="-7.5330052375793">
        <ele>503</ele>
        <time>2019-09-11T07:42:36+00:00</time>
      </trkpt>
      <trkpt lat="43.345245361328" lon="-7.5330100059509">
        <ele>503</ele>
        <time>2019-09-11T07:42:37+00:00</time>
      </trkpt>
      <trkpt lat="43.345252990723" lon="-7.5329966545105">
        <ele>503</ele>
        <time>2019-09-11T07:42:38+00:00</time>
      </trkpt>
      <trkpt lat="43.34525680542" lon="-7.5330080986023">
        <ele>503</ele>
        <time>2019-09-11T07:42:39+00:00</time>
      </trkpt>
      <trkpt lat="43.345245361328" lon="-7.5330281257629">
        <ele>503</ele>
        <time>2019-09-11T07:42:40+00:00</time>
      </trkpt>
      <trkpt lat="43.345237731934" lon="-7.5330600738525">
        <ele>503</ele>
        <time>2019-09-11T07:42:41+00:00</time>
      </trkpt>
      <trkpt lat="43.345230102539" lon="-7.5330834388733">
        <ele>503</ele>
        <time>2019-09-11T07:42:42+00:00</time>
      </trkpt>
      <trkpt lat="43.345222473145" lon="-7.5330934524536">
        <ele>503</ele>
        <time>2019-09-11T07:42:43+00:00</time>
      </trkpt>
      <trkpt lat="43.345161437988" lon="-7.5331115722656">
        <ele>503</ele>
        <time>2019-09-11T07:42:44+00:00</time>
      </trkpt>
      <trkpt lat="43.345146179199" lon="-7.5331182479858">
        <ele>503</ele>
        <time>2019-09-11T07:42:45+00:00</time>
      </trkpt>
      <trkpt lat="43.345157623291" lon="-7.5331883430481">
        <ele>503</ele>
        <time>2019-09-11T07:42:46+00:00</time>
      </trkpt>
      <trkpt lat="43.345161437988" lon="-7.5332083702087">
        <ele>503</ele>
        <time>2019-09-11T07:42:47+00:00</time>
      </trkpt>
      <trkpt lat="43.345161437988" lon="-7.5332083702087">
        <ele>503</ele>
        <time>2019-09-11T07:42:48+00:00</time>
      </trkpt>
      <trkpt lat="43.345153808594" lon="-7.5332183837891">
        <ele>503</ele>
        <time>2019-09-11T07:42:49+00:00</time>
      </trkpt>
      <trkpt lat="43.345149993896" lon="-7.5332398414612">
        <ele>503</ele>
        <time>2019-09-11T07:42:50+00:00</time>
      </trkpt>
      <trkpt lat="43.345142364502" lon="-7.5332598686218">
        <ele>503</ele>
        <time>2019-09-11T07:42:51+00:00</time>
      </trkpt>
      <trkpt lat="43.34513092041" lon="-7.5332851409912">
        <ele>503</ele>
        <time>2019-09-11T07:42:52+00:00</time>
      </trkpt>
      <trkpt lat="43.345161437988" lon="-7.5332465171814">
        <ele>503</ele>
        <time>2019-09-11T07:42:53+00:00</time>
      </trkpt>
      <trkpt lat="43.345153808594" lon="-7.5332365036011">
        <ele>503</ele>
        <time>2019-09-11T07:42:54+00:00</time>
      </trkpt>
      <trkpt lat="43.345157623291" lon="-7.5332217216492">
        <ele>503</ele>
        <time>2019-09-11T07:42:55+00:00</time>
      </trkpt>
      <trkpt lat="43.345157623291" lon="-7.5331997871399">
        <ele>503</ele>
        <time>2019-09-11T07:42:56+00:00</time>
      </trkpt>
      <trkpt lat="43.345149993896" lon="-7.5331816673279">
        <ele>503</ele>
        <time>2019-09-11T07:42:57+00:00</time>
      </trkpt>
      <trkpt lat="43.345207214355" lon="-7.5331950187683">
        <ele>503</ele>
        <time>2019-09-11T07:42:58+00:00</time>
      </trkpt>
      <trkpt lat="43.345207214355" lon="-7.533203125">
        <ele>503</ele>
        <time>2019-09-11T07:42:59+00:00</time>
      </trkpt>
      <trkpt lat="43.345184326172" lon="-7.5331683158875">
        <ele>503</ele>
        <time>2019-09-11T07:43:00+00:00</time>
      </trkpt>
      <trkpt lat="43.345188140869" lon="-7.5331702232361">
        <ele>503</ele>
        <time>2019-09-11T07:43:01+00:00</time>
      </trkpt>
      <trkpt lat="43.34521484375" lon="-7.5331683158875">
        <ele>503</ele>
        <time>2019-09-11T07:43:02+00:00</time>
      </trkpt>
      <trkpt lat="43.345237731934" lon="-7.533166885376">
        <ele>503</ele>
        <time>2019-09-11T07:43:03+00:00</time>
      </trkpt>
      <trkpt lat="43.345249176025" lon="-7.5331616401672">
        <ele>503</ele>
        <time>2019-09-11T07:43:04+00:00</time>
      </trkpt>
      <trkpt lat="43.345264434814" lon="-7.5331568717957">
        <ele>503</ele>
        <time>2019-09-11T07:43:05+00:00</time>
      </trkpt>
      <trkpt lat="43.345233917236" lon="-7.5332632064819">
        <ele>502</ele>
        <time>2019-09-11T07:43:06+00:00</time>
      </trkpt>
      <trkpt lat="43.345230102539" lon="-7.5333232879639">
        <ele>502</ele>
        <time>2019-09-11T07:43:07+00:00</time>
      </trkpt>
      <trkpt lat="43.345268249512" lon="-7.5333199501038">
        <ele>501</ele>
        <time>2019-09-11T07:43:10+00:00</time>
      </trkpt>
      <trkpt lat="43.345268249512" lon="-7.5333232879639">
        <ele>501</ele>
        <time>2019-09-11T07:43:11+00:00</time>
      </trkpt>
      <trkpt lat="43.345283508301" lon="-7.533326625824">
        <ele>501</ele>
        <time>2019-09-11T07:43:12+00:00</time>
      </trkpt>
      <trkpt lat="43.345287322998" lon="-7.5333366394043">
        <ele>501</ele>
        <time>2019-09-11T07:43:13+00:00</time>
      </trkpt>
      <trkpt lat="43.345294952393" lon="-7.5333352088928">
        <ele>501</ele>
        <time>2019-09-11T07:43:14+00:00</time>
      </trkpt>
      <trkpt lat="43.345310211182" lon="-7.5333318710327">
        <ele>500</ele>
        <time>2019-09-11T07:43:15+00:00</time>
      </trkpt>
      <trkpt lat="43.345310211182" lon="-7.5333166122437">
        <ele>500</ele>
        <time>2019-09-11T07:43:16+00:00</time>
      </trkpt>
      <trkpt lat="43.345314025879" lon="-7.5333118438721">
        <ele>500</ele>
        <time>2019-09-11T07:43:17+00:00</time>
      </trkpt>
      <trkpt lat="43.345317840576" lon="-7.5333132743835">
        <ele>500</ele>
        <time>2019-09-11T07:43:23+00:00</time>
      </trkpt>
      <trkpt lat="43.345317840576" lon="-7.5333118438721">
        <ele>500</ele>
        <time>2019-09-11T07:43:24+00:00</time>
      </trkpt>
      <trkpt lat="43.345336914062" lon="-7.5332932472229">
        <ele>499</ele>
        <time>2019-09-11T07:43:25+00:00</time>
      </trkpt>
      <trkpt lat="43.345348358154" lon="-7.5332832336426">
        <ele>499</ele>
        <time>2019-09-11T07:43:26+00:00</time>
      </trkpt>
      <trkpt lat="43.345348358154" lon="-7.5332798957825">
        <ele>499</ele>
        <time>2019-09-11T07:43:27+00:00</time>
      </trkpt>
      <trkpt lat="43.345348358154" lon="-7.5332751274109">
        <ele>499</ele>
        <time>2019-09-11T07:43:28+00:00</time>
      </trkpt>
      <trkpt lat="43.345321655273" lon="-7.5332865715027">
        <ele>498</ele>
        <time>2019-09-11T07:43:29+00:00</time>
      </trkpt>
      <trkpt lat="43.345314025879" lon="-7.5332984924316">
        <ele>497</ele>
        <time>2019-09-11T07:43:30+00:00</time>
      </trkpt>
      <trkpt lat="43.345302581787" lon="-7.5333051681519">
        <ele>496</ele>
        <time>2019-09-11T07:43:31+00:00</time>
      </trkpt>
      <trkpt lat="43.345306396484" lon="-7.5333018302917">
        <ele>496</ele>
        <time>2019-09-11T07:43:32+00:00</time>
      </trkpt>
      <trkpt lat="43.345306396484" lon="-7.533296585083">
        <ele>495</ele>
        <time>2019-09-11T07:43:33+00:00</time>
      </trkpt>
      <trkpt lat="43.345306396484" lon="-7.5332951545715">
        <ele>495</ele>
        <time>2019-09-11T07:43:34+00:00</time>
      </trkpt>
      <trkpt lat="43.345317840576" lon="-7.533296585083">
        <ele>495</ele>
        <time>2019-09-11T07:43:36+00:00</time>
      </trkpt>
      <trkpt lat="43.345306396484" lon="-7.5332918167114">
        <ele>494</ele>
        <time>2019-09-11T07:43:37+00:00</time>
      </trkpt>
      <trkpt lat="43.345306396484" lon="-7.5332918167114">
        <ele>494</ele>
        <time>2019-09-11T07:43:38+00:00</time>
      </trkpt>
      <trkpt lat="43.345302581787" lon="-7.5332932472229">
        <ele>494</ele>
        <time>2019-09-11T07:43:39+00:00</time>
      </trkpt>
      <trkpt lat="43.345302581787" lon="-7.5333018302917">
        <ele>494</ele>
        <time>2019-09-11T07:43:40+00:00</time>
      </trkpt>
      <trkpt lat="43.345302581787" lon="-7.5333032608032">
        <ele>493</ele>
        <time>2019-09-11T07:43:41+00:00</time>
      </trkpt>
      <trkpt lat="43.345302581787" lon="-7.5333065986633">
        <ele>493</ele>
        <time>2019-09-11T07:43:42+00:00</time>
      </trkpt>
      <trkpt lat="43.345291137695" lon="-7.5332999229431">
        <ele>493</ele>
        <time>2019-09-11T07:43:43+00:00</time>
      </trkpt>
      <trkpt lat="43.345287322998" lon="-7.533296585083">
        <ele>492</ele>
        <time>2019-09-11T07:43:44+00:00</time>
      </trkpt>
      <trkpt lat="43.345279693604" lon="-7.5332818031311">
        <ele>492</ele>
        <time>2019-09-11T07:43:46+00:00</time>
      </trkpt>
      <trkpt lat="43.345272064209" lon="-7.5332832336426">
        <ele>492</ele>
        <time>2019-09-11T07:43:47+00:00</time>
      </trkpt>
      <trkpt lat="43.345272064209" lon="-7.5332818031311">
        <ele>492</ele>
        <time>2019-09-11T07:43:48+00:00</time>
      </trkpt>
      <trkpt lat="43.345272064209" lon="-7.5332818031311">
        <ele>492</ele>
        <time>2019-09-11T07:43:49+00:00</time>
      </trkpt>
      <trkpt lat="43.345272064209" lon="-7.5332818031311">
        <ele>492</ele>
        <time>2019-09-11T07:43:50+00:00</time>
      </trkpt>
      <trkpt lat="43.345272064209" lon="-7.5332818031311">
        <ele>492</ele>
        <time>2019-09-11T07:43:51+00:00</time>
      </trkpt>
      <trkpt lat="43.345272064209" lon="-7.5332818031311">
        <ele>492</ele>
        <time>2019-09-11T07:43:52+00:00</time>
      </trkpt>
      <trkpt lat="43.345272064209" lon="-7.5332818031311">
        <ele>492</ele>
        <time>2019-09-11T07:43:53+00:00</time>
      </trkpt>
      <trkpt lat="43.345272064209" lon="-7.5332818031311">
        <ele>492</ele>
        <time>2019-09-11T07:43:54+00:00</time>
      </trkpt>
      <trkpt lat="43.345272064209" lon="-7.5332818031311">
        <ele>492</ele>
        <time>2019-09-11T07:43:55+00:00</time>
      </trkpt>
      <trkpt lat="43.345272064209" lon="-7.5332818031311">
        <ele>492</ele>
        <time>2019-09-11T07:43:57+00:00</time>
      </trkpt>
      <trkpt lat="43.345272064209" lon="-7.5332818031311">
        <ele>492</ele>
        <time>2019-09-11T07:43:58+00:00</time>
      </trkpt>
      <trkpt lat="43.345272064209" lon="-7.5332818031311">
        <ele>492</ele>
        <time>2019-09-11T07:43:59+00:00</time>
      </trkpt>
      <trkpt lat="43.345272064209" lon="-7.5332818031311">
        <ele>492</ele>
        <time>2019-09-11T07:44:00+00:00</time>
      </trkpt>
      <trkpt lat="43.345272064209" lon="-7.5332818031311">
        <ele>492</ele>
        <time>2019-09-11T07:44:01+00:00</time>
      </trkpt>
      <trkpt lat="43.345272064209" lon="-7.5332818031311">
        <ele>492</ele>
        <time>2019-09-11T07:44:02+00:00</time>
      </trkpt>
      <trkpt lat="43.345272064209" lon="-7.5332818031311">
        <ele>492</ele>
        <time>2019-09-11T07:44:03+00:00</time>
      </trkpt>
      <trkpt lat="43.345272064209" lon="-7.5332818031311">
        <ele>492</ele>
        <time>2019-09-11T07:44:04+00:00</time>
      </trkpt>
      <trkpt lat="43.345272064209" lon="-7.5332818031311">
        <ele>492</ele>
        <time>2019-09-11T07:44:05+00:00</time>
      </trkpt>
      <trkpt lat="43.345272064209" lon="-7.5332818031311">
        <ele>492</ele>
        <time>2019-09-11T07:44:06+00:00</time>
      </trkpt>
      <trkpt lat="43.345272064209" lon="-7.5332818031311">
        <ele>492</ele>
        <time>2019-09-11T07:44:07+00:00</time>
      </trkpt>
      <trkpt lat="43.345272064209" lon="-7.5332818031311">
        <ele>492</ele>
        <time>2019-09-11T07:44:08+00:00</time>
      </trkpt>
      <trkpt lat="43.345272064209" lon="-7.5332818031311">
        <ele>492</ele>
        <time>2019-09-11T07:44:09+00:00</time>
      </trkpt>
      <trkpt lat="43.345272064209" lon="-7.5332818031311">
        <ele>492</ele>
        <time>2019-09-11T07:44:10+00:00</time>
      </trkpt>
      <trkpt lat="43.345272064209" lon="-7.5332818031311">
        <ele>492</ele>
        <time>2019-09-11T07:44:11+00:00</time>
      </trkpt>
      <trkpt lat="43.345272064209" lon="-7.5332818031311">
        <ele>492</ele>
        <time>2019-09-11T07:44:12+00:00</time>
      </trkpt>
      <trkpt lat="43.345272064209" lon="-7.5332818031311">
        <ele>492</ele>
        <time>2019-09-11T07:44:13+00:00</time>
      </trkpt>
      <trkpt lat="43.345272064209" lon="-7.5332818031311">
        <ele>492</ele>
        <time>2019-09-11T07:44:14+00:00</time>
      </trkpt>
      <trkpt lat="43.345272064209" lon="-7.5332818031311">
        <ele>492</ele>
        <time>2019-09-11T07:44:15+00:00</time>
      </trkpt>
      <trkpt lat="43.345272064209" lon="-7.5332818031311">
        <ele>492</ele>
        <time>2019-09-11T07:44:16+00:00</time>
      </trkpt>
      <trkpt lat="43.345272064209" lon="-7.5332818031311">
        <ele>492</ele>
        <time>2019-09-11T07:44:17+00:00</time>
      </trkpt>
      <trkpt lat="43.345272064209" lon="-7.5332818031311">
        <ele>492</ele>
        <time>2019-09-11T07:44:18+00:00</time>
      </trkpt>
      <trkpt lat="43.345283508301" lon="-7.5332884788513">
        <ele>490</ele>
        <time>2019-09-11T07:44:19+00:00</time>
      </trkpt>
      <trkpt lat="43.345287322998" lon="-7.5333032608032">
        <ele>490</ele>
        <time>2019-09-11T07:44:20+00:00</time>
      </trkpt>
      <trkpt lat="43.345291137695" lon="-7.5333051681519">
        <ele>490</ele>
        <time>2019-09-11T07:44:21+00:00</time>
      </trkpt>
      <trkpt lat="43.345291137695" lon="-7.5333151817322">
        <ele>490</ele>
        <time>2019-09-11T07:44:22+00:00</time>
      </trkpt>
      <trkpt lat="43.345310211182" lon="-7.5333132743835">
        <ele>490</ele>
        <time>2019-09-11T07:44:23+00:00</time>
      </trkpt>
      <trkpt lat="43.345336914062" lon="-7.5333032608032">
        <ele>490</ele>
        <time>2019-09-11T07:44:24+00:00</time>
      </trkpt>
      <trkpt lat="43.345352172852" lon="-7.5332999229431">
        <ele>490</ele>
        <time>2019-09-11T07:44:25+00:00</time>
      </trkpt>
      <trkpt lat="43.345367431641" lon="-7.5332951545715">
        <ele>490</ele>
        <time>2019-09-11T07:44:26+00:00</time>
      </trkpt>
      <trkpt lat="43.345394134521" lon="-7.5333051681519">
        <ele>490</ele>
        <time>2019-09-11T07:44:27+00:00</time>
      </trkpt>
      <trkpt lat="43.345397949219" lon="-7.5333051681519">
        <ele>490</ele>
        <time>2019-09-11T07:44:28+00:00</time>
      </trkpt>
      <trkpt lat="43.345401763916" lon="-7.5333285331726">
        <ele>490</ele>
        <time>2019-09-11T07:44:29+00:00</time>
      </trkpt>
      <trkpt lat="43.345401763916" lon="-7.5333299636841">
        <ele>490</ele>
        <time>2019-09-11T07:44:30+00:00</time>
      </trkpt>
      <trkpt lat="43.345390319824" lon="-7.533341884613">
        <ele>490</ele>
        <time>2019-09-11T07:44:31+00:00</time>
      </trkpt>
      <trkpt lat="43.345394134521" lon="-7.5333399772644">
        <ele>490</ele>
        <time>2019-09-11T07:44:32+00:00</time>
      </trkpt>
      <trkpt lat="43.345386505127" lon="-7.5333399772644">
        <ele>490</ele>
        <time>2019-09-11T07:44:33+00:00</time>
      </trkpt>
      <trkpt lat="43.345375061035" lon="-7.5333299636841">
        <ele>490</ele>
        <time>2019-09-11T07:44:34+00:00</time>
      </trkpt>
      <trkpt lat="43.345375061035" lon="-7.533326625824">
        <ele>490</ele>
        <time>2019-09-11T07:44:35+00:00</time>
      </trkpt>
      <trkpt lat="43.345371246338" lon="-7.533326625824">
        <ele>490</ele>
        <time>2019-09-11T07:44:36+00:00</time>
      </trkpt>
      <trkpt lat="43.345363616943" lon="-7.5333232879639">
        <ele>490</ele>
        <time>2019-09-11T07:44:37+00:00</time>
      </trkpt>
      <trkpt lat="43.345359802246" lon="-7.5333218574524">
        <ele>490</ele>
        <time>2019-09-11T07:44:38+00:00</time>
      </trkpt>
      <trkpt lat="43.345359802246" lon="-7.5333151817322">
        <ele>490</ele>
        <time>2019-09-11T07:44:39+00:00</time>
      </trkpt>
      <trkpt lat="43.345359802246" lon="-7.5333151817322">
        <ele>490</ele>
        <time>2019-09-11T07:44:40+00:00</time>
      </trkpt>
      <trkpt lat="43.345359802246" lon="-7.5333151817322">
        <ele>490</ele>
        <time>2019-09-11T07:44:41+00:00</time>
      </trkpt>
      <trkpt lat="43.345359802246" lon="-7.5333151817322">
        <ele>490</ele>
        <time>2019-09-11T07:44:42+00:00</time>
      </trkpt>
      <trkpt lat="43.345359802246" lon="-7.5333151817322">
        <ele>490</ele>
        <time>2019-09-11T07:44:43+00:00</time>
      </trkpt>
      <trkpt lat="43.345359802246" lon="-7.5333151817322">
        <ele>490</ele>
        <time>2019-09-11T07:44:44+00:00</time>
      </trkpt>
      <trkpt lat="43.345359802246" lon="-7.5333151817322">
        <ele>490</ele>
        <time>2019-09-11T07:44:45+00:00</time>
      </trkpt>
      <trkpt lat="43.345310211182" lon="-7.5332832336426">
        <ele>490</ele>
        <time>2019-09-11T07:44:46+00:00</time>
      </trkpt>
      <trkpt lat="43.34529876709" lon="-7.533296585083">
        <ele>490</ele>
        <time>2019-09-11T07:44:47+00:00</time>
      </trkpt>
      <trkpt lat="43.345291137695" lon="-7.5333032608032">
        <ele>489</ele>
        <time>2019-09-11T07:44:48+00:00</time>
      </trkpt>
      <trkpt lat="43.345283508301" lon="-7.5333218574524">
        <ele>489</ele>
        <time>2019-09-11T07:44:49+00:00</time>
      </trkpt>
      <trkpt lat="43.345283508301" lon="-7.5333366394043">
        <ele>488</ele>
        <time>2019-09-11T07:44:50+00:00</time>
      </trkpt>
      <trkpt lat="43.345283508301" lon="-7.5333366394043">
        <ele>488</ele>
        <time>2019-09-11T07:44:51+00:00</time>
      </trkpt>
      <trkpt lat="43.345264434814" lon="-7.5333499908447">
        <ele>487</ele>
        <time>2019-09-11T07:44:52+00:00</time>
      </trkpt>
      <trkpt lat="43.345268249512" lon="-7.5333566665649">
        <ele>488</ele>
        <time>2019-09-11T07:44:53+00:00</time>
      </trkpt>
      <trkpt lat="43.345279693604" lon="-7.533360004425">
        <ele>488</ele>
        <time>2019-09-11T07:44:54+00:00</time>
      </trkpt>
      <trkpt lat="43.345275878906" lon="-7.5333633422852">
        <ele>488</ele>
        <time>2019-09-11T07:44:55+00:00</time>
      </trkpt>
      <trkpt lat="43.345275878906" lon="-7.5333633422852">
        <ele>488</ele>
        <time>2019-09-11T07:44:56+00:00</time>
      </trkpt>
      <trkpt lat="43.345275878906" lon="-7.5333633422852">
        <ele>488</ele>
        <time>2019-09-11T07:44:57+00:00</time>
      </trkpt>
      <trkpt lat="43.345275878906" lon="-7.5333633422852">
        <ele>488</ele>
        <time>2019-09-11T07:44:58+00:00</time>
      </trkpt>
      <trkpt lat="43.345275878906" lon="-7.5333633422852">
        <ele>488</ele>
        <time>2019-09-11T07:44:59+00:00</time>
      </trkpt>
      <trkpt lat="43.345302581787" lon="-7.5333352088928">
        <ele>487</ele>
        <time>2019-09-11T07:45:00+00:00</time>
      </trkpt>
      <trkpt lat="43.345302581787" lon="-7.5333285331726">
        <ele>486</ele>
        <time>2019-09-11T07:45:01+00:00</time>
      </trkpt>
      <trkpt lat="43.345306396484" lon="-7.5333166122437">
        <ele>486</ele>
        <time>2019-09-11T07:45:02+00:00</time>
      </trkpt>
      <trkpt lat="43.345306396484" lon="-7.5333132743835">
        <ele>486</ele>
        <time>2019-09-11T07:45:03+00:00</time>
      </trkpt>
      <trkpt lat="43.345306396484" lon="-7.5333132743835">
        <ele>486</ele>
        <time>2019-09-11T07:45:04+00:00</time>
      </trkpt>
      <trkpt lat="43.345306396484" lon="-7.5333132743835">
        <ele>486</ele>
        <time>2019-09-11T07:45:05+00:00</time>
      </trkpt>
      <trkpt lat="43.345306396484" lon="-7.5333132743835">
        <ele>486</ele>
        <time>2019-09-11T07:45:06+00:00</time>
      </trkpt>
      <trkpt lat="43.345306396484" lon="-7.5333132743835">
        <ele>486</ele>
        <time>2019-09-11T07:45:07+00:00</time>
      </trkpt>
      <trkpt lat="43.345306396484" lon="-7.5333132743835">
        <ele>486</ele>
        <time>2019-09-11T07:45:08+00:00</time>
      </trkpt>
      <trkpt lat="43.345306396484" lon="-7.5333132743835">
        <ele>486</ele>
        <time>2019-09-11T07:45:09+00:00</time>
      </trkpt>
      <trkpt lat="43.345306396484" lon="-7.5333132743835">
        <ele>486</ele>
        <time>2019-09-11T07:45:10+00:00</time>
      </trkpt>
      <trkpt lat="43.345306396484" lon="-7.5333132743835">
        <ele>486</ele>
        <time>2019-09-11T07:45:11+00:00</time>
      </trkpt>
      <trkpt lat="43.345306396484" lon="-7.5333132743835">
        <ele>486</ele>
        <time>2019-09-11T07:45:12+00:00</time>
      </trkpt>
      <trkpt lat="43.345306396484" lon="-7.5333132743835">
        <ele>486</ele>
        <time>2019-09-11T07:45:13+00:00</time>
      </trkpt>
      <trkpt lat="43.345306396484" lon="-7.5333132743835">
        <ele>486</ele>
        <time>2019-09-11T07:45:14+00:00</time>
      </trkpt>
      <trkpt lat="43.345306396484" lon="-7.5333132743835">
        <ele>486</ele>
        <time>2019-09-11T07:45:16+00:00</time>
      </trkpt>
      <trkpt lat="43.345306396484" lon="-7.5333132743835">
        <ele>486</ele>
        <time>2019-09-11T07:45:17+00:00</time>
      </trkpt>
      <trkpt lat="43.34525680542" lon="-7.5332818031311">
        <ele>487</ele>
        <time>2019-09-11T07:45:18+00:00</time>
      </trkpt>
      <trkpt lat="43.345260620117" lon="-7.5332732200623">
        <ele>487</ele>
        <time>2019-09-11T07:45:19+00:00</time>
      </trkpt>
      <trkpt lat="43.345268249512" lon="-7.533266544342">
        <ele>486</ele>
        <time>2019-09-11T07:45:20+00:00</time>
      </trkpt>
      <trkpt lat="43.345272064209" lon="-7.5332584381104">
        <ele>486</ele>
        <time>2019-09-11T07:45:21+00:00</time>
      </trkpt>
      <trkpt lat="43.345272064209" lon="-7.5332517623901">
        <ele>486</ele>
        <time>2019-09-11T07:45:22+00:00</time>
      </trkpt>
      <trkpt lat="43.345275878906" lon="-7.5332398414612">
        <ele>486</ele>
        <time>2019-09-11T07:45:23+00:00</time>
      </trkpt>
      <trkpt lat="43.345279693604" lon="-7.533233165741">
        <ele>486</ele>
        <time>2019-09-11T07:45:24+00:00</time>
      </trkpt>
      <trkpt lat="43.345279693604" lon="-7.5332317352295">
        <ele>486</ele>
        <time>2019-09-11T07:45:25+00:00</time>
      </trkpt>
      <trkpt lat="43.345283508301" lon="-7.5332231521606">
        <ele>486</ele>
        <time>2019-09-11T07:45:26+00:00</time>
      </trkpt>
      <trkpt lat="43.345283508301" lon="-7.5332198143005">
        <ele>486</ele>
        <time>2019-09-11T07:45:27+00:00</time>
      </trkpt>
      <trkpt lat="43.34529876709" lon="-7.5332131385803">
        <ele>486</ele>
        <time>2019-09-11T07:45:28+00:00</time>
      </trkpt>
      <trkpt lat="43.345302581787" lon="-7.5332083702087">
        <ele>487</ele>
        <time>2019-09-11T07:45:29+00:00</time>
      </trkpt>
      <trkpt lat="43.345306396484" lon="-7.533215045929">
        <ele>487</ele>
        <time>2019-09-11T07:45:30+00:00</time>
      </trkpt>
      <trkpt lat="43.345310211182" lon="-7.5332016944885">
        <ele>487</ele>
        <time>2019-09-11T07:45:31+00:00</time>
      </trkpt>
      <trkpt lat="43.345314025879" lon="-7.5331931114197">
        <ele>488</ele>
        <time>2019-09-11T07:45:32+00:00</time>
      </trkpt>
      <trkpt lat="43.345321655273" lon="-7.5331916809082">
        <ele>488</ele>
        <time>2019-09-11T07:45:33+00:00</time>
      </trkpt>
      <trkpt lat="43.345329284668" lon="-7.5331864356995">
        <ele>488</ele>
        <time>2019-09-11T07:45:34+00:00</time>
      </trkpt>
      <trkpt lat="43.345333099365" lon="-7.5331830978394">
        <ele>488</ele>
        <time>2019-09-11T07:45:35+00:00</time>
      </trkpt>
      <trkpt lat="43.345336914062" lon="-7.5331830978394">
        <ele>488</ele>
        <time>2019-09-11T07:45:38+00:00</time>
      </trkpt>
      <trkpt lat="43.345344543457" lon="-7.5331897735596">
        <ele>488</ele>
        <time>2019-09-11T07:45:39+00:00</time>
      </trkpt>
      <trkpt lat="43.345344543457" lon="-7.5331916809082">
        <ele>488</ele>
        <time>2019-09-11T07:45:40+00:00</time>
      </trkpt>
      <trkpt lat="43.345348358154" lon="-7.5331964492798">
        <ele>488</ele>
        <time>2019-09-11T07:45:41+00:00</time>
      </trkpt>
      <trkpt lat="43.345348358154" lon="-7.5332131385803">
        <ele>488</ele>
        <time>2019-09-11T07:45:42+00:00</time>
      </trkpt>
      <trkpt lat="43.345355987549" lon="-7.533215045929">
        <ele>488</ele>
        <time>2019-09-11T07:45:43+00:00</time>
      </trkpt>
      <trkpt lat="43.345348358154" lon="-7.5332250595093">
        <ele>488</ele>
        <time>2019-09-11T07:45:44+00:00</time>
      </trkpt>
      <trkpt lat="43.345348358154" lon="-7.5332317352295">
        <ele>488</ele>
        <time>2019-09-11T07:45:45+00:00</time>
      </trkpt>
      <trkpt lat="43.345348358154" lon="-7.5332431793213">
        <ele>488</ele>
        <time>2019-09-11T07:45:46+00:00</time>
      </trkpt>
      <trkpt lat="43.345344543457" lon="-7.5332551002502">
        <ele>488</ele>
        <time>2019-09-11T07:45:47+00:00</time>
      </trkpt>
      <trkpt lat="43.345336914062" lon="-7.5332717895508">
        <ele>488</ele>
        <time>2019-09-11T07:45:48+00:00</time>
      </trkpt>
      <trkpt lat="43.345325469971" lon="-7.5332798957825">
        <ele>488</ele>
        <time>2019-09-11T07:45:49+00:00</time>
      </trkpt>
      <trkpt lat="43.345329284668" lon="-7.5332798957825">
        <ele>488</ele>
        <time>2019-09-11T07:45:50+00:00</time>
      </trkpt>
      <trkpt lat="43.345333099365" lon="-7.5332851409912">
        <ele>489</ele>
        <time>2019-09-11T07:45:51+00:00</time>
      </trkpt>
      <trkpt lat="43.34534072876" lon="-7.5332932472229">
        <ele>488</ele>
        <time>2019-09-11T07:45:52+00:00</time>
      </trkpt>
      <trkpt lat="43.345359802246" lon="-7.5332999229431">
        <ele>488</ele>
        <time>2019-09-11T07:45:53+00:00</time>
      </trkpt>
      <trkpt lat="43.345375061035" lon="-7.5332999229431">
        <ele>488</ele>
        <time>2019-09-11T07:45:54+00:00</time>
      </trkpt>
      <trkpt lat="43.345378875732" lon="-7.5333099365234">
        <ele>487</ele>
        <time>2019-09-11T07:45:56+00:00</time>
      </trkpt>
      <trkpt lat="43.345375061035" lon="-7.533326625824">
        <ele>486</ele>
        <time>2019-09-11T07:45:57+00:00</time>
      </trkpt>
      <trkpt lat="43.345367431641" lon="-7.5333366394043">
        <ele>486</ele>
        <time>2019-09-11T07:45:58+00:00</time>
      </trkpt>
      <trkpt lat="43.345371246338" lon="-7.5333433151245">
        <ele>486</ele>
        <time>2019-09-11T07:45:59+00:00</time>
      </trkpt>
      <trkpt lat="43.345375061035" lon="-7.5333518981934">
        <ele>485</ele>
        <time>2019-09-11T07:46:00+00:00</time>
      </trkpt>
      <trkpt lat="43.345367431641" lon="-7.5333633422852">
        <ele>485</ele>
        <time>2019-09-11T07:46:01+00:00</time>
      </trkpt>
      <trkpt lat="43.345363616943" lon="-7.533374786377">
        <ele>485</ele>
        <time>2019-09-11T07:46:02+00:00</time>
      </trkpt>
      <trkpt lat="43.345363616943" lon="-7.5333766937256">
        <ele>484</ele>
        <time>2019-09-11T07:46:03+00:00</time>
      </trkpt>
      <trkpt lat="43.345359802246" lon="-7.5333800315857">
        <ele>484</ele>
        <time>2019-09-11T07:46:04+00:00</time>
      </trkpt>
      <trkpt lat="43.345352172852" lon="-7.5333847999573">
        <ele>484</ele>
        <time>2019-09-11T07:46:05+00:00</time>
      </trkpt>
      <trkpt lat="43.345352172852" lon="-7.5333847999573">
        <ele>484</ele>
        <time>2019-09-11T07:46:06+00:00</time>
      </trkpt>
      <trkpt lat="43.345352172852" lon="-7.5333847999573">
        <ele>484</ele>
        <time>2019-09-11T07:46:07+00:00</time>
      </trkpt>
      <trkpt lat="43.345352172852" lon="-7.5333847999573">
        <ele>484</ele>
        <time>2019-09-11T07:46:08+00:00</time>
      </trkpt>
      <trkpt lat="43.345355987549" lon="-7.533420085907">
        <ele>484</ele>
        <time>2019-09-11T07:46:09+00:00</time>
      </trkpt>
      <trkpt lat="43.345344543457" lon="-7.533438205719">
        <ele>483</ele>
        <time>2019-09-11T07:46:10+00:00</time>
      </trkpt>
      <trkpt lat="43.345344543457" lon="-7.5334515571594">
        <ele>483</ele>
        <time>2019-09-11T07:46:11+00:00</time>
      </trkpt>
      <trkpt lat="43.345371246338" lon="-7.5334234237671">
        <ele>483</ele>
        <time>2019-09-11T07:46:12+00:00</time>
      </trkpt>
      <trkpt lat="43.345378875732" lon="-7.5334148406982">
        <ele>483</ele>
        <time>2019-09-11T07:46:13+00:00</time>
      </trkpt>
      <trkpt lat="43.345394134521" lon="-7.5333981513977">
        <ele>483</ele>
        <time>2019-09-11T07:46:14+00:00</time>
      </trkpt>
      <trkpt lat="43.345397949219" lon="-7.5334067344666">
        <ele>483</ele>
        <time>2019-09-11T07:46:15+00:00</time>
      </trkpt>
      <trkpt lat="43.34538269043" lon="-7.5334167480469">
        <ele>483</ele>
        <time>2019-09-11T07:46:16+00:00</time>
      </trkpt>
      <trkpt lat="43.34538269043" lon="-7.5334248542786">
        <ele>483</ele>
        <time>2019-09-11T07:46:17+00:00</time>
      </trkpt>
      <trkpt lat="43.34538269043" lon="-7.533438205719">
        <ele>483</ele>
        <time>2019-09-11T07:46:18+00:00</time>
      </trkpt>
      <trkpt lat="43.34538269043" lon="-7.5334534645081">
        <ele>482</ele>
        <time>2019-09-11T07:46:19+00:00</time>
      </trkpt>
      <trkpt lat="43.345386505127" lon="-7.5334668159485">
        <ele>482</ele>
        <time>2019-09-11T07:46:20+00:00</time>
      </trkpt>
      <trkpt lat="43.345386505127" lon="-7.5334782600403">
        <ele>482</ele>
        <time>2019-09-11T07:46:21+00:00</time>
      </trkpt>
      <trkpt lat="43.34538269043" lon="-7.5334868431091">
        <ele>482</ele>
        <time>2019-09-11T07:46:22+00:00</time>
      </trkpt>
      <trkpt lat="43.34538269043" lon="-7.5334949493408">
        <ele>482</ele>
        <time>2019-09-11T07:46:23+00:00</time>
      </trkpt>
      <trkpt lat="43.34538269043" lon="-7.533501625061">
        <ele>482</ele>
        <time>2019-09-11T07:46:24+00:00</time>
      </trkpt>
      <trkpt lat="43.345394134521" lon="-7.5335068702698">
        <ele>482</ele>
        <time>2019-09-11T07:46:25+00:00</time>
      </trkpt>
      <trkpt lat="43.345386505127" lon="-7.5335049629211">
        <ele>482</ele>
        <time>2019-09-11T07:46:26+00:00</time>
      </trkpt>
      <trkpt lat="43.345386505127" lon="-7.5335083007812">
        <ele>482</ele>
        <time>2019-09-11T07:46:27+00:00</time>
      </trkpt>
      <trkpt lat="43.345394134521" lon="-7.5335049629211">
        <ele>482</ele>
        <time>2019-09-11T07:46:28+00:00</time>
      </trkpt>
      <trkpt lat="43.345390319824" lon="-7.5335149765015">
        <ele>481</ele>
        <time>2019-09-11T07:46:29+00:00</time>
      </trkpt>
      <trkpt lat="43.345394134521" lon="-7.53351354599">
        <ele>481</ele>
        <time>2019-09-11T07:46:30+00:00</time>
      </trkpt>
      <trkpt lat="43.345394134521" lon="-7.5335149765015">
        <ele>481</ele>
        <time>2019-09-11T07:46:31+00:00</time>
      </trkpt>
      <trkpt lat="43.345394134521" lon="-7.5335202217102">
        <ele>481</ele>
        <time>2019-09-11T07:46:32+00:00</time>
      </trkpt>
      <trkpt lat="43.345390319824" lon="-7.53351354599">
        <ele>481</ele>
        <time>2019-09-11T07:46:33+00:00</time>
      </trkpt>
      <trkpt lat="43.345386505127" lon="-7.5335168838501">
        <ele>481</ele>
        <time>2019-09-11T07:46:34+00:00</time>
      </trkpt>
      <trkpt lat="43.34538269043" lon="-7.5335302352905">
        <ele>481</ele>
        <time>2019-09-11T07:46:35+00:00</time>
      </trkpt>
      <trkpt lat="43.34538269043" lon="-7.5335302352905">
        <ele>481</ele>
        <time>2019-09-11T07:46:36+00:00</time>
      </trkpt>
      <trkpt lat="43.34538269043" lon="-7.5335302352905">
        <ele>481</ele>
        <time>2019-09-11T07:46:37+00:00</time>
      </trkpt>
      <trkpt lat="43.34538269043" lon="-7.5335302352905">
        <ele>481</ele>
        <time>2019-09-11T07:46:38+00:00</time>
      </trkpt>
      <trkpt lat="43.34538269043" lon="-7.5335302352905">
        <ele>481</ele>
        <time>2019-09-11T07:46:39+00:00</time>
      </trkpt>
      <trkpt lat="43.34538269043" lon="-7.5335302352905">
        <ele>481</ele>
        <time>2019-09-11T07:46:40+00:00</time>
      </trkpt>
      <trkpt lat="43.34538269043" lon="-7.5335302352905">
        <ele>481</ele>
        <time>2019-09-11T07:46:41+00:00</time>
      </trkpt>
      <trkpt lat="43.34538269043" lon="-7.5335302352905">
        <ele>481</ele>
        <time>2019-09-11T07:46:42+00:00</time>
      </trkpt>
      <trkpt lat="43.345363616943" lon="-7.5335898399353">
        <ele>481</ele>
        <time>2019-09-11T07:46:43+00:00</time>
      </trkpt>
      <trkpt lat="43.345375061035" lon="-7.5335884094238">
        <ele>481</ele>
        <time>2019-09-11T07:46:44+00:00</time>
      </trkpt>
      <trkpt lat="43.345375061035" lon="-7.5335898399353">
        <ele>481</ele>
        <time>2019-09-11T07:46:45+00:00</time>
      </trkpt>
      <trkpt lat="43.345375061035" lon="-7.5335931777954">
        <ele>481</ele>
        <time>2019-09-11T07:46:46+00:00</time>
      </trkpt>
      <trkpt lat="43.345375061035" lon="-7.5336050987244">
        <ele>481</ele>
        <time>2019-09-11T07:46:47+00:00</time>
      </trkpt>
      <trkpt lat="43.345375061035" lon="-7.5336050987244">
        <ele>481</ele>
        <time>2019-09-11T07:46:48+00:00</time>
      </trkpt>
      <trkpt lat="43.345375061035" lon="-7.5336050987244">
        <ele>481</ele>
        <time>2019-09-11T07:46:49+00:00</time>
      </trkpt>
      <trkpt lat="43.345352172852" lon="-7.5336465835571">
        <ele>481</ele>
        <time>2019-09-11T07:46:50+00:00</time>
      </trkpt>
      <trkpt lat="43.345348358154" lon="-7.5336632728577">
        <ele>481</ele>
        <time>2019-09-11T07:46:51+00:00</time>
      </trkpt>
      <trkpt lat="43.34534072876" lon="-7.5336618423462">
        <ele>481</ele>
        <time>2019-09-11T07:46:52+00:00</time>
      </trkpt>
      <trkpt lat="43.345336914062" lon="-7.5336699485779">
        <ele>481</ele>
        <time>2019-09-11T07:46:53+00:00</time>
      </trkpt>
      <trkpt lat="43.34534072876" lon="-7.5336833000183">
        <ele>481</ele>
        <time>2019-09-11T07:46:54+00:00</time>
      </trkpt>
      <trkpt lat="43.345352172852" lon="-7.5337052345276">
        <ele>481</ele>
        <time>2019-09-11T07:46:55+00:00</time>
      </trkpt>
      <trkpt lat="43.345355987549" lon="-7.5337133407593">
        <ele>481</ele>
        <time>2019-09-11T07:46:56+00:00</time>
      </trkpt>
      <trkpt lat="43.345355987549" lon="-7.5337200164795">
        <ele>481</ele>
        <time>2019-09-11T07:46:57+00:00</time>
      </trkpt>
      <trkpt lat="43.345359802246" lon="-7.5337247848511">
        <ele>481</ele>
        <time>2019-09-11T07:46:58+00:00</time>
      </trkpt>
      <trkpt lat="43.345367431641" lon="-7.5337114334106">
        <ele>481</ele>
        <time>2019-09-11T07:46:59+00:00</time>
      </trkpt>
      <trkpt lat="43.345371246338" lon="-7.5337200164795">
        <ele>481</ele>
        <time>2019-09-11T07:47:00+00:00</time>
      </trkpt>
      <trkpt lat="43.345371246338" lon="-7.5337314605713">
        <ele>481</ele>
        <time>2019-09-11T07:47:01+00:00</time>
      </trkpt>
      <trkpt lat="43.345359802246" lon="-7.5337615013123">
        <ele>481</ele>
        <time>2019-09-11T07:47:02+00:00</time>
      </trkpt>
      <trkpt lat="43.345363616943" lon="-7.5337800979614">
        <ele>480</ele>
        <time>2019-09-11T07:47:03+00:00</time>
      </trkpt>
      <trkpt lat="43.345371246338" lon="-7.5337867736816">
        <ele>480</ele>
        <time>2019-09-11T07:47:04+00:00</time>
      </trkpt>
      <trkpt lat="43.345371246338" lon="-7.5337934494019">
        <ele>480</ele>
        <time>2019-09-11T07:47:05+00:00</time>
      </trkpt>
      <trkpt lat="43.345371246338" lon="-7.5338048934937">
        <ele>480</ele>
        <time>2019-09-11T07:47:06+00:00</time>
      </trkpt>
      <trkpt lat="43.345371246338" lon="-7.533814907074">
        <ele>480</ele>
        <time>2019-09-11T07:47:07+00:00</time>
      </trkpt>
      <trkpt lat="43.345371246338" lon="-7.5338315963745">
        <ele>480</ele>
        <time>2019-09-11T07:47:08+00:00</time>
      </trkpt>
      <trkpt lat="43.345371246338" lon="-7.5338516235352">
        <ele>480</ele>
        <time>2019-09-11T07:47:09+00:00</time>
      </trkpt>
      <trkpt lat="43.345367431641" lon="-7.5338649749756">
        <ele>480</ele>
        <time>2019-09-11T07:47:10+00:00</time>
      </trkpt>
      <trkpt lat="43.345371246338" lon="-7.5338768959045">
        <ele>480</ele>
        <time>2019-09-11T07:47:11+00:00</time>
      </trkpt>
      <trkpt lat="43.345355987549" lon="-7.5338983535767">
        <ele>480</ele>
        <time>2019-09-11T07:47:12+00:00</time>
      </trkpt>
      <trkpt lat="43.345352172852" lon="-7.533908367157">
        <ele>480</ele>
        <time>2019-09-11T07:47:13+00:00</time>
      </trkpt>
      <trkpt lat="43.345348358154" lon="-7.5339164733887">
        <ele>480</ele>
        <time>2019-09-11T07:47:14+00:00</time>
      </trkpt>
      <trkpt lat="43.345333099365" lon="-7.533926486969">
        <ele>480</ele>
        <time>2019-09-11T07:47:15+00:00</time>
      </trkpt>
      <trkpt lat="43.345314025879" lon="-7.5339431762695">
        <ele>480</ele>
        <time>2019-09-11T07:47:16+00:00</time>
      </trkpt>
      <trkpt lat="43.345306396484" lon="-7.5339584350586">
        <ele>480</ele>
        <time>2019-09-11T07:47:17+00:00</time>
      </trkpt>
      <trkpt lat="43.345287322998" lon="-7.5339851379395">
        <ele>480</ele>
        <time>2019-09-11T07:47:18+00:00</time>
      </trkpt>
      <trkpt lat="43.345283508301" lon="-7.5339951515198">
        <ele>480</ele>
        <time>2019-09-11T07:47:19+00:00</time>
      </trkpt>
      <trkpt lat="43.345264434814" lon="-7.5340218544006">
        <ele>480</ele>
        <time>2019-09-11T07:47:20+00:00</time>
      </trkpt>
      <trkpt lat="43.345245361328" lon="-7.5340285301208">
        <ele>479</ele>
        <time>2019-09-11T07:47:21+00:00</time>
      </trkpt>
      <trkpt lat="43.345218658447" lon="-7.5340366363525">
        <ele>479</ele>
        <time>2019-09-11T07:47:22+00:00</time>
      </trkpt>
      <trkpt lat="43.34521484375" lon="-7.5340485572815">
        <ele>479</ele>
        <time>2019-09-11T07:47:23+00:00</time>
      </trkpt>
      <trkpt lat="43.345195770264" lon="-7.5340552330017">
        <ele>479</ele>
        <time>2019-09-11T07:47:24+00:00</time>
      </trkpt>
      <trkpt lat="43.345180511475" lon="-7.5340614318848">
        <ele>479</ele>
        <time>2019-09-11T07:47:25+00:00</time>
      </trkpt>
      <trkpt lat="43.345165252686" lon="-7.5340714454651">
        <ele>479</ele>
        <time>2019-09-11T07:47:26+00:00</time>
      </trkpt>
      <trkpt lat="43.345149993896" lon="-7.5340766906738">
        <ele>479</ele>
        <time>2019-09-11T07:47:27+00:00</time>
      </trkpt>
      <trkpt lat="43.345127105713" lon="-7.5340967178345">
        <ele>479</ele>
        <time>2019-09-11T07:47:28+00:00</time>
      </trkpt>
      <trkpt lat="43.345123291016" lon="-7.5341100692749">
        <ele>479</ele>
        <time>2019-09-11T07:47:29+00:00</time>
      </trkpt>
      <trkpt lat="43.345115661621" lon="-7.5341248512268">
        <ele>478</ele>
        <time>2019-09-11T07:47:30+00:00</time>
      </trkpt>
      <trkpt lat="43.345108032227" lon="-7.5341367721558">
        <ele>478</ele>
        <time>2019-09-11T07:47:31+00:00</time>
      </trkpt>
      <trkpt lat="43.345115661621" lon="-7.5341501235962">
        <ele>478</ele>
        <time>2019-09-11T07:47:32+00:00</time>
      </trkpt>
      <trkpt lat="43.345111846924" lon="-7.5341582298279">
        <ele>478</ele>
        <time>2019-09-11T07:47:33+00:00</time>
      </trkpt>
      <trkpt lat="43.345108032227" lon="-7.5341715812683">
        <ele>478</ele>
        <time>2019-09-11T07:47:34+00:00</time>
      </trkpt>
      <trkpt lat="43.345119476318" lon="-7.5341868400574">
        <ele>478</ele>
        <time>2019-09-11T07:47:35+00:00</time>
      </trkpt>
      <trkpt lat="43.345123291016" lon="-7.5342116355896">
        <ele>478</ele>
        <time>2019-09-11T07:47:36+00:00</time>
      </trkpt>
      <trkpt lat="43.34513092041" lon="-7.5342350006104">
        <ele>478</ele>
        <time>2019-09-11T07:47:37+00:00</time>
      </trkpt>
      <trkpt lat="43.345138549805" lon="-7.5342531204224">
        <ele>478</ele>
        <time>2019-09-11T07:47:38+00:00</time>
      </trkpt>
      <trkpt lat="43.34513092041" lon="-7.5342717170715">
        <ele>478</ele>
        <time>2019-09-11T07:47:39+00:00</time>
      </trkpt>
      <trkpt lat="43.34513092041" lon="-7.5342864990234">
        <ele>478</ele>
        <time>2019-09-11T07:47:40+00:00</time>
      </trkpt>
      <trkpt lat="43.345123291016" lon="-7.5343017578125">
        <ele>478</ele>
        <time>2019-09-11T07:47:41+00:00</time>
      </trkpt>
      <trkpt lat="43.345115661621" lon="-7.5343065261841">
        <ele>478</ele>
        <time>2019-09-11T07:47:42+00:00</time>
      </trkpt>
      <trkpt lat="43.345111846924" lon="-7.5343151092529">
        <ele>478</ele>
        <time>2019-09-11T07:47:43+00:00</time>
      </trkpt>
      <trkpt lat="43.345111846924" lon="-7.5343265533447">
        <ele>478</ele>
        <time>2019-09-11T07:47:44+00:00</time>
      </trkpt>
      <trkpt lat="43.345111846924" lon="-7.5343399047852">
        <ele>478</ele>
        <time>2019-09-11T07:47:45+00:00</time>
      </trkpt>
      <trkpt lat="43.345111846924" lon="-7.5343651771545">
        <ele>478</ele>
        <time>2019-09-11T07:47:46+00:00</time>
      </trkpt>
      <trkpt lat="43.345119476318" lon="-7.5343718528748">
        <ele>478</ele>
        <time>2019-09-11T07:47:47+00:00</time>
      </trkpt>
      <trkpt lat="43.345115661621" lon="-7.5343699455261">
        <ele>478</ele>
        <time>2019-09-11T07:47:48+00:00</time>
      </trkpt>
      <trkpt lat="43.345119476318" lon="-7.5343766212463">
        <ele>478</ele>
        <time>2019-09-11T07:47:49+00:00</time>
      </trkpt>
      <trkpt lat="43.345123291016" lon="-7.5343799591064">
        <ele>478</ele>
        <time>2019-09-11T07:47:50+00:00</time>
      </trkpt>
      <trkpt lat="43.345138549805" lon="-7.534378528595">
        <ele>478</ele>
        <time>2019-09-11T07:47:51+00:00</time>
      </trkpt>
      <trkpt lat="43.34513092041" lon="-7.5344052314758">
        <ele>478</ele>
        <time>2019-09-11T07:47:52+00:00</time>
      </trkpt>
      <trkpt lat="43.345123291016" lon="-7.5344367027283">
        <ele>478</ele>
        <time>2019-09-11T07:47:53+00:00</time>
      </trkpt>
      <trkpt lat="43.345111846924" lon="-7.5344614982605">
        <ele>478</ele>
        <time>2019-09-11T07:47:54+00:00</time>
      </trkpt>
      <trkpt lat="43.345104217529" lon="-7.5344882011414">
        <ele>478</ele>
        <time>2019-09-11T07:47:55+00:00</time>
      </trkpt>
      <trkpt lat="43.345108032227" lon="-7.5344967842102">
        <ele>478</ele>
        <time>2019-09-11T07:47:56+00:00</time>
      </trkpt>
      <trkpt lat="43.345100402832" lon="-7.5345182418823">
        <ele>478</ele>
        <time>2019-09-11T07:47:57+00:00</time>
      </trkpt>
      <trkpt lat="43.345092773438" lon="-7.5345501899719">
        <ele>478</ele>
        <time>2019-09-11T07:47:58+00:00</time>
      </trkpt>
      <trkpt lat="43.345081329346" lon="-7.5345816612244">
        <ele>478</ele>
        <time>2019-09-11T07:47:59+00:00</time>
      </trkpt>
      <trkpt lat="43.345073699951" lon="-7.5346031188965">
        <ele>478</ele>
        <time>2019-09-11T07:48:00+00:00</time>
      </trkpt>
      <trkpt lat="43.345062255859" lon="-7.534619808197">
        <ele>478</ele>
        <time>2019-09-11T07:48:01+00:00</time>
      </trkpt>
      <trkpt lat="43.345043182373" lon="-7.5346465110779">
        <ele>478</ele>
        <time>2019-09-11T07:48:02+00:00</time>
      </trkpt>
      <trkpt lat="43.345031738281" lon="-7.5346651077271">
        <ele>478</ele>
        <time>2019-09-11T07:48:03+00:00</time>
      </trkpt>
      <trkpt lat="43.345008850098" lon="-7.5346832275391">
        <ele>478</ele>
        <time>2019-09-11T07:48:04+00:00</time>
      </trkpt>
      <trkpt lat="43.345008850098" lon="-7.5346899032593">
        <ele>477</ele>
        <time>2019-09-11T07:48:05+00:00</time>
      </trkpt>
      <trkpt lat="43.344997406006" lon="-7.5347018241882">
        <ele>477</ele>
        <time>2019-09-11T07:48:06+00:00</time>
      </trkpt>
      <trkpt lat="43.344997406006" lon="-7.5347084999084">
        <ele>477</ele>
        <time>2019-09-11T07:48:07+00:00</time>
      </trkpt>
      <trkpt lat="43.345012664795" lon="-7.5347065925598">
        <ele>477</ele>
        <time>2019-09-11T07:48:08+00:00</time>
      </trkpt>
      <trkpt lat="43.345024108887" lon="-7.5347185134888">
        <ele>477</ele>
        <time>2019-09-11T07:48:09+00:00</time>
      </trkpt>
      <trkpt lat="43.345027923584" lon="-7.5347299575806">
        <ele>477</ele>
        <time>2019-09-11T07:48:10+00:00</time>
      </trkpt>
      <trkpt lat="43.345039367676" lon="-7.5347118377686">
        <ele>477</ele>
        <time>2019-09-11T07:48:11+00:00</time>
      </trkpt>
      <trkpt lat="43.345050811768" lon="-7.5346965789795">
        <ele>477</ele>
        <time>2019-09-11T07:48:12+00:00</time>
      </trkpt>
      <trkpt lat="43.345058441162" lon="-7.5346784591675">
        <ele>477</ele>
        <time>2019-09-11T07:48:13+00:00</time>
      </trkpt>
      <trkpt lat="43.345062255859" lon="-7.5346598625183">
        <ele>477</ele>
        <time>2019-09-11T07:48:14+00:00</time>
      </trkpt>
      <trkpt lat="43.345069885254" lon="-7.5346384048462">
        <ele>477</ele>
        <time>2019-09-11T07:48:15+00:00</time>
      </trkpt>
      <trkpt lat="43.345069885254" lon="-7.5346431732178">
        <ele>477</ele>
        <time>2019-09-11T07:48:16+00:00</time>
      </trkpt>
      <trkpt lat="43.345085144043" lon="-7.5346484184265">
        <ele>477</ele>
        <time>2019-09-11T07:48:17+00:00</time>
      </trkpt>
      <trkpt lat="43.345108032227" lon="-7.5346550941467">
        <ele>477</ele>
        <time>2019-09-11T07:48:18+00:00</time>
      </trkpt>
      <trkpt lat="43.345111846924" lon="-7.5346517562866">
        <ele>477</ele>
        <time>2019-09-11T07:48:19+00:00</time>
      </trkpt>
      <trkpt lat="43.345111846924" lon="-7.5346517562866">
        <ele>477</ele>
        <time>2019-09-11T07:48:20+00:00</time>
      </trkpt>
      <trkpt lat="43.345111846924" lon="-7.5346517562866">
        <ele>477</ele>
        <time>2019-09-11T07:48:21+00:00</time>
      </trkpt>
      <trkpt lat="43.345111846924" lon="-7.5346517562866">
        <ele>477</ele>
        <time>2019-09-11T07:48:22+00:00</time>
      </trkpt>
      <trkpt lat="43.34508895874" lon="-7.5346598625183">
        <ele>477</ele>
        <time>2019-09-11T07:48:23+00:00</time>
      </trkpt>
      <trkpt lat="43.345092773438" lon="-7.5346531867981">
        <ele>477</ele>
        <time>2019-09-11T07:48:24+00:00</time>
      </trkpt>
      <trkpt lat="43.345073699951" lon="-7.5346732139587">
        <ele>477</ele>
        <time>2019-09-11T07:48:25+00:00</time>
      </trkpt>
      <trkpt lat="43.345069885254" lon="-7.5346884727478">
        <ele>477</ele>
        <time>2019-09-11T07:48:26+00:00</time>
      </trkpt>
      <trkpt lat="43.345066070557" lon="-7.5346965789795">
        <ele>477</ele>
        <time>2019-09-11T07:48:27+00:00</time>
      </trkpt>
      <trkpt lat="43.34504699707" lon="-7.53471326828">
        <ele>477</ele>
        <time>2019-09-11T07:48:28+00:00</time>
      </trkpt>
      <trkpt lat="43.345020294189" lon="-7.5347318649292">
        <ele>477</ele>
        <time>2019-09-11T07:48:29+00:00</time>
      </trkpt>
      <trkpt lat="43.344993591309" lon="-7.5347452163696">
        <ele>477</ele>
        <time>2019-09-11T07:48:30+00:00</time>
      </trkpt>
      <trkpt lat="43.344966888428" lon="-7.5347766876221">
        <ele>477</ele>
        <time>2019-09-11T07:48:31+00:00</time>
      </trkpt>
      <trkpt lat="43.344959259033" lon="-7.5347867012024">
        <ele>477</ele>
        <time>2019-09-11T07:48:32+00:00</time>
      </trkpt>
      <trkpt lat="43.344959259033" lon="-7.5347948074341">
        <ele>477</ele>
        <time>2019-09-11T07:48:33+00:00</time>
      </trkpt>
      <trkpt lat="43.344955444336" lon="-7.5348100662231">
        <ele>477</ele>
        <time>2019-09-11T07:48:34+00:00</time>
      </trkpt>
      <trkpt lat="43.344944000244" lon="-7.5348200798035">
        <ele>477</ele>
        <time>2019-09-11T07:48:35+00:00</time>
      </trkpt>
      <trkpt lat="43.34496307373" lon="-7.5348415374756">
        <ele>477</ele>
        <time>2019-09-11T07:48:36+00:00</time>
      </trkpt>
      <trkpt lat="43.344989776611" lon="-7.5348701477051">
        <ele>477</ele>
        <time>2019-09-11T07:48:37+00:00</time>
      </trkpt>
      <trkpt lat="43.345020294189" lon="-7.5348916053772">
        <ele>477</ele>
        <time>2019-09-11T07:48:38+00:00</time>
      </trkpt>
      <trkpt lat="43.345024108887" lon="-7.5349068641663">
        <ele>477</ele>
        <time>2019-09-11T07:48:39+00:00</time>
      </trkpt>
      <trkpt lat="43.345027923584" lon="-7.5349135398865">
        <ele>477</ele>
        <time>2019-09-11T07:48:40+00:00</time>
      </trkpt>
      <trkpt lat="43.345016479492" lon="-7.5349349975586">
        <ele>477</ele>
        <time>2019-09-11T07:48:41+00:00</time>
      </trkpt>
      <trkpt lat="43.345020294189" lon="-7.5349531173706">
        <ele>477</ele>
        <time>2019-09-11T07:48:42+00:00</time>
      </trkpt>
      <trkpt lat="43.345020294189" lon="-7.5349583625793">
        <ele>477</ele>
        <time>2019-09-11T07:48:43+00:00</time>
      </trkpt>
      <trkpt lat="43.345016479492" lon="-7.5349683761597">
        <ele>477</ele>
        <time>2019-09-11T07:48:44+00:00</time>
      </trkpt>
      <trkpt lat="43.345016479492" lon="-7.5349850654602">
        <ele>477</ele>
        <time>2019-09-11T07:48:45+00:00</time>
      </trkpt>
      <trkpt lat="43.345001220703" lon="-7.535008430481">
        <ele>477</ele>
        <time>2019-09-11T07:48:46+00:00</time>
      </trkpt>
      <trkpt lat="43.344993591309" lon="-7.5350217819214">
        <ele>477</ele>
        <time>2019-09-11T07:48:47+00:00</time>
      </trkpt>
      <trkpt lat="43.344989776611" lon="-7.5350198745728">
        <ele>477</ele>
        <time>2019-09-11T07:48:48+00:00</time>
      </trkpt>
      <trkpt lat="43.344982147217" lon="-7.5350198745728">
        <ele>477</ele>
        <time>2019-09-11T07:48:49+00:00</time>
      </trkpt>
      <trkpt lat="43.344970703125" lon="-7.5350217819214">
        <ele>477</ele>
        <time>2019-09-11T07:48:50+00:00</time>
      </trkpt>
      <trkpt lat="43.344951629639" lon="-7.5350399017334">
        <ele>478</ele>
        <time>2019-09-11T07:48:51+00:00</time>
      </trkpt>
      <trkpt lat="43.344944000244" lon="-7.5350465774536">
        <ele>478</ele>
        <time>2019-09-11T07:48:52+00:00</time>
      </trkpt>
      <trkpt lat="43.344905853271" lon="-7.535059928894">
        <ele>477</ele>
        <time>2019-09-11T07:48:53+00:00</time>
      </trkpt>
      <trkpt lat="43.344886779785" lon="-7.5350766181946">
        <ele>477</ele>
        <time>2019-09-11T07:48:54+00:00</time>
      </trkpt>
      <trkpt lat="43.344848632812" lon="-7.5350885391235">
        <ele>477</ele>
        <time>2019-09-11T07:48:55+00:00</time>
      </trkpt>
      <trkpt lat="43.344841003418" lon="-7.5351033210754">
        <ele>477</ele>
        <time>2019-09-11T07:48:56+00:00</time>
      </trkpt>
      <trkpt lat="43.34485244751" lon="-7.5350999832153">
        <ele>477</ele>
        <time>2019-09-11T07:48:57+00:00</time>
      </trkpt>
      <trkpt lat="43.34485244751" lon="-7.5350999832153">
        <ele>478</ele>
        <time>2019-09-11T07:48:58+00:00</time>
      </trkpt>
      <trkpt lat="43.344867706299" lon="-7.5350885391235">
        <ele>478</ele>
        <time>2019-09-11T07:48:59+00:00</time>
      </trkpt>
      <trkpt lat="43.344871520996" lon="-7.5350918769836">
        <ele>478</ele>
        <time>2019-09-11T07:49:00+00:00</time>
      </trkpt>
      <trkpt lat="43.344882965088" lon="-7.5350933074951">
        <ele>478</ele>
        <time>2019-09-11T07:49:01+00:00</time>
      </trkpt>
      <trkpt lat="43.344875335693" lon="-7.5350999832153">
        <ele>478</ele>
        <time>2019-09-11T07:49:02+00:00</time>
      </trkpt>
      <trkpt lat="43.344875335693" lon="-7.5350952148438">
        <ele>478</ele>
        <time>2019-09-11T07:49:03+00:00</time>
      </trkpt>
      <trkpt lat="43.344871520996" lon="-7.5351066589355">
        <ele>478</ele>
        <time>2019-09-11T07:49:04+00:00</time>
      </trkpt>
      <trkpt lat="43.344860076904" lon="-7.5351147651672">
        <ele>478</ele>
        <time>2019-09-11T07:49:05+00:00</time>
      </trkpt>
      <trkpt lat="43.344860076904" lon="-7.5351214408875">
        <ele>478</ele>
        <time>2019-09-11T07:49:06+00:00</time>
      </trkpt>
      <trkpt lat="43.34485244751" lon="-7.5351347923279">
        <ele>478</ele>
        <time>2019-09-11T07:49:07+00:00</time>
      </trkpt>
      <trkpt lat="43.344848632812" lon="-7.5351433753967">
        <ele>478</ele>
        <time>2019-09-11T07:49:08+00:00</time>
      </trkpt>
      <trkpt lat="43.344844818115" lon="-7.5351448059082">
        <ele>478</ele>
        <time>2019-09-11T07:49:09+00:00</time>
      </trkpt>
      <trkpt lat="43.344841003418" lon="-7.5351514816284">
        <ele>478</ele>
        <time>2019-09-11T07:49:10+00:00</time>
      </trkpt>
      <trkpt lat="43.344844818115" lon="-7.5351614952087">
        <ele>478</ele>
        <time>2019-09-11T07:49:11+00:00</time>
      </trkpt>
      <trkpt lat="43.344833374023" lon="-7.5351700782776">
        <ele>478</ele>
        <time>2019-09-11T07:49:12+00:00</time>
      </trkpt>
      <trkpt lat="43.344837188721" lon="-7.5351781845093">
        <ele>478</ele>
        <time>2019-09-11T07:49:13+00:00</time>
      </trkpt>
      <trkpt lat="43.344829559326" lon="-7.5351815223694">
        <ele>478</ele>
        <time>2019-09-11T07:49:14+00:00</time>
      </trkpt>
      <trkpt lat="43.344829559326" lon="-7.5351867675781">
        <ele>478</ele>
        <time>2019-09-11T07:49:15+00:00</time>
      </trkpt>
      <trkpt lat="43.344841003418" lon="-7.5352001190186">
        <ele>478</ele>
        <time>2019-09-11T07:49:16+00:00</time>
      </trkpt>
      <trkpt lat="43.344860076904" lon="-7.5352249145508">
        <ele>478</ele>
        <time>2019-09-11T07:49:17+00:00</time>
      </trkpt>
      <trkpt lat="43.344863891602" lon="-7.5352382659912">
        <ele>478</ele>
        <time>2019-09-11T07:49:18+00:00</time>
      </trkpt>
      <trkpt lat="43.344871520996" lon="-7.5352568626404">
        <ele>477</ele>
        <time>2019-09-11T07:49:19+00:00</time>
      </trkpt>
      <trkpt lat="43.344871520996" lon="-7.5352849960327">
        <ele>477</ele>
        <time>2019-09-11T07:49:20+00:00</time>
      </trkpt>
      <trkpt lat="43.344867706299" lon="-7.5353116989136">
        <ele>477</ele>
        <time>2019-09-11T07:49:21+00:00</time>
      </trkpt>
      <trkpt lat="43.344844818115" lon="-7.5353517532349">
        <ele>477</ele>
        <time>2019-09-11T07:49:22+00:00</time>
      </trkpt>
      <trkpt lat="43.344844818115" lon="-7.5353684425354">
        <ele>477</ele>
        <time>2019-09-11T07:49:23+00:00</time>
      </trkpt>
      <trkpt lat="43.344833374023" lon="-7.5353751182556">
        <ele>477</ele>
        <time>2019-09-11T07:49:24+00:00</time>
      </trkpt>
      <trkpt lat="43.344833374023" lon="-7.5353932380676">
        <ele>477</ele>
        <time>2019-09-11T07:49:25+00:00</time>
      </trkpt>
      <trkpt lat="43.344829559326" lon="-7.5354232788086">
        <ele>477</ele>
        <time>2019-09-11T07:49:26+00:00</time>
      </trkpt>
      <trkpt lat="43.344818115234" lon="-7.5354452133179">
        <ele>477</ele>
        <time>2019-09-11T07:49:27+00:00</time>
      </trkpt>
      <trkpt lat="43.344814300537" lon="-7.5354647636414">
        <ele>476</ele>
        <time>2019-09-11T07:49:28+00:00</time>
      </trkpt>
      <trkpt lat="43.34481048584" lon="-7.5354900360107">
        <ele>476</ele>
        <time>2019-09-11T07:49:29+00:00</time>
      </trkpt>
      <trkpt lat="43.34481048584" lon="-7.5355100631714">
        <ele>476</ele>
        <time>2019-09-11T07:49:30+00:00</time>
      </trkpt>
      <trkpt lat="43.344806671143" lon="-7.5355248451233">
        <ele>476</ele>
        <time>2019-09-11T07:49:31+00:00</time>
      </trkpt>
      <trkpt lat="43.344806671143" lon="-7.5355334281921">
        <ele>476</ele>
        <time>2019-09-11T07:49:32+00:00</time>
      </trkpt>
      <trkpt lat="43.344802856445" lon="-7.5355415344238">
        <ele>476</ele>
        <time>2019-09-11T07:49:33+00:00</time>
      </trkpt>
      <trkpt lat="43.344802856445" lon="-7.535548210144">
        <ele>476</ele>
        <time>2019-09-11T07:49:34+00:00</time>
      </trkpt>
      <trkpt lat="43.344795227051" lon="-7.5355634689331">
        <ele>476</ele>
        <time>2019-09-11T07:49:35+00:00</time>
      </trkpt>
      <trkpt lat="43.344791412354" lon="-7.5355768203735">
        <ele>476</ele>
        <time>2019-09-11T07:49:36+00:00</time>
      </trkpt>
      <trkpt lat="43.344791412354" lon="-7.5355968475342">
        <ele>476</ele>
        <time>2019-09-11T07:49:37+00:00</time>
      </trkpt>
      <trkpt lat="43.344779968262" lon="-7.5355916023254">
        <ele>476</ele>
        <time>2019-09-11T07:49:38+00:00</time>
      </trkpt>
      <trkpt lat="43.344772338867" lon="-7.5355849266052">
        <ele>476</ele>
        <time>2019-09-11T07:49:39+00:00</time>
      </trkpt>
      <trkpt lat="43.344760894775" lon="-7.535590171814">
        <ele>475</ele>
        <time>2019-09-11T07:49:40+00:00</time>
      </trkpt>
      <trkpt lat="43.344760894775" lon="-7.5355982780457">
        <ele>475</ele>
        <time>2019-09-11T07:49:41+00:00</time>
      </trkpt>
      <trkpt lat="43.34476852417" lon="-7.5356116294861">
        <ele>475</ele>
        <time>2019-09-11T07:49:42+00:00</time>
      </trkpt>
      <trkpt lat="43.344764709473" lon="-7.5356316566467">
        <ele>475</ele>
        <time>2019-09-11T07:49:43+00:00</time>
      </trkpt>
      <trkpt lat="43.34476852417" lon="-7.5356369018555">
        <ele>475</ele>
        <time>2019-09-11T07:49:44+00:00</time>
      </trkpt>
      <trkpt lat="43.344776153564" lon="-7.5356450080872">
        <ele>475</ele>
        <time>2019-09-11T07:49:45+00:00</time>
      </trkpt>
      <trkpt lat="43.344776153564" lon="-7.5356616973877">
        <ele>474</ele>
        <time>2019-09-11T07:49:46+00:00</time>
      </trkpt>
      <trkpt lat="43.344779968262" lon="-7.5356664657593">
        <ele>474</ele>
        <time>2019-09-11T07:49:47+00:00</time>
      </trkpt>
      <trkpt lat="43.344776153564" lon="-7.5356650352478">
        <ele>473</ele>
        <time>2019-09-11T07:49:48+00:00</time>
      </trkpt>
      <trkpt lat="43.34476852417" lon="-7.5356664657593">
        <ele>473</ele>
        <time>2019-09-11T07:49:49+00:00</time>
      </trkpt>
      <trkpt lat="43.344772338867" lon="-7.5356698036194">
        <ele>473</ele>
        <time>2019-09-11T07:49:50+00:00</time>
      </trkpt>
      <trkpt lat="43.344757080078" lon="-7.5356984138489">
        <ele>472</ele>
        <time>2019-09-11T07:49:51+00:00</time>
      </trkpt>
      <trkpt lat="43.344749450684" lon="-7.5357131958008">
        <ele>472</ele>
        <time>2019-09-11T07:49:52+00:00</time>
      </trkpt>
      <trkpt lat="43.344711303711" lon="-7.5357565879822">
        <ele>472</ele>
        <time>2019-09-11T07:49:53+00:00</time>
      </trkpt>
      <trkpt lat="43.344696044922" lon="-7.535795211792">
        <ele>472</ele>
        <time>2019-09-11T07:49:54+00:00</time>
      </trkpt>
      <trkpt lat="43.344680786133" lon="-7.5358214378357">
        <ele>471</ele>
        <time>2019-09-11T07:49:55+00:00</time>
      </trkpt>
      <trkpt lat="43.344657897949" lon="-7.5358414649963">
        <ele>471</ele>
        <time>2019-09-11T07:49:56+00:00</time>
      </trkpt>
      <trkpt lat="43.34464263916" lon="-7.5358581542969">
        <ele>471</ele>
        <time>2019-09-11T07:49:57+00:00</time>
      </trkpt>
      <trkpt lat="43.344635009766" lon="-7.5358748435974">
        <ele>471</ele>
        <time>2019-09-11T07:49:58+00:00</time>
      </trkpt>
      <trkpt lat="43.344619750977" lon="-7.5358901023865">
        <ele>470</ele>
        <time>2019-09-11T07:49:59+00:00</time>
      </trkpt>
      <trkpt lat="43.344612121582" lon="-7.5359034538269">
        <ele>470</ele>
        <time>2019-09-11T07:50:00+00:00</time>
      </trkpt>
      <trkpt lat="43.344604492188" lon="-7.5359148979187">
        <ele>470</ele>
        <time>2019-09-11T07:50:01+00:00</time>
      </trkpt>
      <trkpt lat="43.34460067749" lon="-7.535924911499">
        <ele>470</ele>
        <time>2019-09-11T07:50:02+00:00</time>
      </trkpt>
      <trkpt lat="43.344596862793" lon="-7.5359315872192">
        <ele>470</ele>
        <time>2019-09-11T07:50:03+00:00</time>
      </trkpt>
      <trkpt lat="43.344589233398" lon="-7.5359382629395">
        <ele>470</ele>
        <time>2019-09-11T07:50:04+00:00</time>
      </trkpt>
      <trkpt lat="43.344585418701" lon="-7.5359416007996">
        <ele>470</ele>
        <time>2019-09-11T07:50:05+00:00</time>
      </trkpt>
      <trkpt lat="43.344573974609" lon="-7.5359501838684">
        <ele>470</ele>
        <time>2019-09-11T07:50:06+00:00</time>
      </trkpt>
      <trkpt lat="43.344573974609" lon="-7.5359535217285">
        <ele>469</ele>
        <time>2019-09-11T07:50:07+00:00</time>
      </trkpt>
      <trkpt lat="43.344566345215" lon="-7.5359649658203">
        <ele>469</ele>
        <time>2019-09-11T07:50:08+00:00</time>
      </trkpt>
      <trkpt lat="43.344562530518" lon="-7.5359816551208">
        <ele>469</ele>
        <time>2019-09-11T07:50:09+00:00</time>
      </trkpt>
      <trkpt lat="43.344562530518" lon="-7.5359950065613">
        <ele>469</ele>
        <time>2019-09-11T07:50:10+00:00</time>
      </trkpt>
      <trkpt lat="43.34455871582" lon="-7.5360064506531">
        <ele>469</ele>
        <time>2019-09-11T07:50:11+00:00</time>
      </trkpt>
      <trkpt lat="43.34455871582" lon="-7.5360217094421">
        <ele>469</ele>
        <time>2019-09-11T07:50:12+00:00</time>
      </trkpt>
      <trkpt lat="43.344562530518" lon="-7.5360298156738">
        <ele>468</ele>
        <time>2019-09-11T07:50:13+00:00</time>
      </trkpt>
      <trkpt lat="43.344566345215" lon="-7.5360283851624">
        <ele>468</ele>
        <time>2019-09-11T07:50:14+00:00</time>
      </trkpt>
      <trkpt lat="43.344570159912" lon="-7.536048412323">
        <ele>468</ele>
        <time>2019-09-11T07:50:15+00:00</time>
      </trkpt>
      <trkpt lat="43.344547271729" lon="-7.5360717773438">
        <ele>467</ele>
        <time>2019-09-11T07:50:16+00:00</time>
      </trkpt>
      <trkpt lat="43.344543457031" lon="-7.5360865592957">
        <ele>467</ele>
        <time>2019-09-11T07:50:17+00:00</time>
      </trkpt>
      <trkpt lat="43.344543457031" lon="-7.5360984802246">
        <ele>467</ele>
        <time>2019-09-11T07:50:18+00:00</time>
      </trkpt>
      <trkpt lat="43.344547271729" lon="-7.5361065864563">
        <ele>467</ele>
        <time>2019-09-11T07:50:19+00:00</time>
      </trkpt>
      <trkpt lat="43.344551086426" lon="-7.5361151695251">
        <ele>467</ele>
        <time>2019-09-11T07:50:20+00:00</time>
      </trkpt>
      <trkpt lat="43.344554901123" lon="-7.5361232757568">
        <ele>467</ele>
        <time>2019-09-11T07:50:21+00:00</time>
      </trkpt>
      <trkpt lat="43.344554901123" lon="-7.5361218452454">
        <ele>466</ele>
        <time>2019-09-11T07:50:22+00:00</time>
      </trkpt>
      <trkpt lat="43.344554901123" lon="-7.5361332893372">
        <ele>466</ele>
        <time>2019-09-11T07:50:23+00:00</time>
      </trkpt>
      <trkpt lat="43.344554901123" lon="-7.5361499786377">
        <ele>466</ele>
        <time>2019-09-11T07:50:24+00:00</time>
      </trkpt>
      <trkpt lat="43.344554901123" lon="-7.5361485481262">
        <ele>466</ele>
        <time>2019-09-11T07:50:25+00:00</time>
      </trkpt>
      <trkpt lat="43.344551086426" lon="-7.5361714363098">
        <ele>466</ele>
        <time>2019-09-11T07:50:26+00:00</time>
      </trkpt>
      <trkpt lat="43.344543457031" lon="-7.5361733436584">
        <ele>466</ele>
        <time>2019-09-11T07:50:27+00:00</time>
      </trkpt>
      <trkpt lat="43.344524383545" lon="-7.5361833572388">
        <ele>465</ele>
        <time>2019-09-11T07:50:28+00:00</time>
      </trkpt>
      <trkpt lat="43.344528198242" lon="-7.5361933708191">
        <ele>465</ele>
        <time>2019-09-11T07:50:29+00:00</time>
      </trkpt>
      <trkpt lat="43.344528198242" lon="-7.5362067222595">
        <ele>465</ele>
        <time>2019-09-11T07:50:30+00:00</time>
      </trkpt>
      <trkpt lat="43.344528198242" lon="-7.5362200737">
        <ele>465</ele>
        <time>2019-09-11T07:50:31+00:00</time>
      </trkpt>
      <trkpt lat="43.344520568848" lon="-7.5362415313721">
        <ele>465</ele>
        <time>2019-09-11T07:50:32+00:00</time>
      </trkpt>
      <trkpt lat="43.34451675415" lon="-7.5362548828125">
        <ele>465</ele>
        <time>2019-09-11T07:50:33+00:00</time>
      </trkpt>
      <trkpt lat="43.344520568848" lon="-7.5362668037415">
        <ele>465</ele>
        <time>2019-09-11T07:50:34+00:00</time>
      </trkpt>
      <trkpt lat="43.344512939453" lon="-7.536283493042">
        <ele>464</ele>
        <time>2019-09-11T07:50:35+00:00</time>
      </trkpt>
      <trkpt lat="43.344512939453" lon="-7.5363035202026">
        <ele>464</ele>
        <time>2019-09-11T07:50:36+00:00</time>
      </trkpt>
      <trkpt lat="43.344501495361" lon="-7.5363101959229">
        <ele>464</ele>
        <time>2019-09-11T07:50:37+00:00</time>
      </trkpt>
      <trkpt lat="43.344509124756" lon="-7.5363101959229">
        <ele>464</ele>
        <time>2019-09-11T07:50:38+00:00</time>
      </trkpt>
      <trkpt lat="43.344470977783" lon="-7.5363349914551">
        <ele>463</ele>
        <time>2019-09-11T07:50:39+00:00</time>
      </trkpt>
      <trkpt lat="43.344459533691" lon="-7.5363430976868">
        <ele>463</ele>
        <time>2019-09-11T07:50:40+00:00</time>
      </trkpt>
      <trkpt lat="43.3444480896" lon="-7.5363483428955">
        <ele>462</ele>
        <time>2019-09-11T07:50:41+00:00</time>
      </trkpt>
      <trkpt lat="43.344429016113" lon="-7.5363631248474">
        <ele>462</ele>
        <time>2019-09-11T07:50:42+00:00</time>
      </trkpt>
      <trkpt lat="43.344413757324" lon="-7.5363664627075">
        <ele>462</ele>
        <time>2019-09-11T07:50:43+00:00</time>
      </trkpt>
      <trkpt lat="43.34440612793" lon="-7.5363664627075">
        <ele>462</ele>
        <time>2019-09-11T07:50:44+00:00</time>
      </trkpt>
      <trkpt lat="43.34440612793" lon="-7.536365032196">
        <ele>461</ele>
        <time>2019-09-11T07:50:45+00:00</time>
      </trkpt>
      <trkpt lat="43.34440612793" lon="-7.5363597869873">
        <ele>461</ele>
        <time>2019-09-11T07:50:46+00:00</time>
      </trkpt>
      <trkpt lat="43.344402313232" lon="-7.5363616943359">
        <ele>461</ele>
        <time>2019-09-11T07:50:47+00:00</time>
      </trkpt>
      <trkpt lat="43.34440612793" lon="-7.5363764762878">
        <ele>460</ele>
        <time>2019-09-11T07:50:48+00:00</time>
      </trkpt>
      <trkpt lat="43.34440612793" lon="-7.5363850593567">
        <ele>460</ele>
        <time>2019-09-11T07:50:49+00:00</time>
      </trkpt>
      <trkpt lat="43.34440612793" lon="-7.5364017486572">
        <ele>460</ele>
        <time>2019-09-11T07:50:50+00:00</time>
      </trkpt>
      <trkpt lat="43.344387054443" lon="-7.5364317893982">
        <ele>460</ele>
        <time>2019-09-11T07:50:51+00:00</time>
      </trkpt>
      <trkpt lat="43.344375610352" lon="-7.5364665985107">
        <ele>460</ele>
        <time>2019-09-11T07:50:52+00:00</time>
      </trkpt>
      <trkpt lat="43.344371795654" lon="-7.5364785194397">
        <ele>459</ele>
        <time>2019-09-11T07:50:53+00:00</time>
      </trkpt>
      <trkpt lat="43.344367980957" lon="-7.5364952087402">
        <ele>459</ele>
        <time>2019-09-11T07:50:54+00:00</time>
      </trkpt>
      <trkpt lat="43.344371795654" lon="-7.5365133285522">
        <ele>459</ele>
        <time>2019-09-11T07:50:55+00:00</time>
      </trkpt>
      <trkpt lat="43.344375610352" lon="-7.5365300178528">
        <ele>458</ele>
        <time>2019-09-11T07:50:56+00:00</time>
      </trkpt>
      <trkpt lat="43.344375610352" lon="-7.5365447998047">
        <ele>458</ele>
        <time>2019-09-11T07:50:57+00:00</time>
      </trkpt>
      <trkpt lat="43.34436416626" lon="-7.5365648269653">
        <ele>458</ele>
        <time>2019-09-11T07:50:58+00:00</time>
      </trkpt>
      <trkpt lat="43.344367980957" lon="-7.536584854126">
        <ele>457</ele>
        <time>2019-09-11T07:50:59+00:00</time>
      </trkpt>
      <trkpt lat="43.344367980957" lon="-7.5365948677063">
        <ele>457</ele>
        <time>2019-09-11T07:51:00+00:00</time>
      </trkpt>
      <trkpt lat="43.34436416626" lon="-7.5366115570068">
        <ele>456</ele>
        <time>2019-09-11T07:51:01+00:00</time>
      </trkpt>
      <trkpt lat="43.34436416626" lon="-7.5366282463074">
        <ele>456</ele>
        <time>2019-09-11T07:51:02+00:00</time>
      </trkpt>
      <trkpt lat="43.34436416626" lon="-7.5366435050964">
        <ele>456</ele>
        <time>2019-09-11T07:51:03+00:00</time>
      </trkpt>
      <trkpt lat="43.344360351562" lon="-7.5366568565369">
        <ele>455</ele>
        <time>2019-09-11T07:51:04+00:00</time>
      </trkpt>
      <trkpt lat="43.344356536865" lon="-7.5366735458374">
        <ele>455</ele>
        <time>2019-09-11T07:51:05+00:00</time>
      </trkpt>
      <trkpt lat="43.34436416626" lon="-7.5366849899292">
        <ele>454</ele>
        <time>2019-09-11T07:51:06+00:00</time>
      </trkpt>
      <trkpt lat="43.344345092773" lon="-7.5366883277893">
        <ele>454</ele>
        <time>2019-09-11T07:51:07+00:00</time>
      </trkpt>
      <trkpt lat="43.344341278076" lon="-7.53670835495">
        <ele>453</ele>
        <time>2019-09-11T07:51:08+00:00</time>
      </trkpt>
      <trkpt lat="43.344333648682" lon="-7.5367217063904">
        <ele>452</ele>
        <time>2019-09-11T07:51:09+00:00</time>
      </trkpt>
      <trkpt lat="43.344318389893" lon="-7.5367217063904">
        <ele>451</ele>
        <time>2019-09-11T07:51:10+00:00</time>
      </trkpt>
      <trkpt lat="43.344314575195" lon="-7.5367116928101">
        <ele>451</ele>
        <time>2019-09-11T07:51:11+00:00</time>
      </trkpt>
      <trkpt lat="43.344314575195" lon="-7.5367150306702">
        <ele>450</ele>
        <time>2019-09-11T07:51:12+00:00</time>
      </trkpt>
      <trkpt lat="43.344306945801" lon="-7.5367231369019">
        <ele>450</ele>
        <time>2019-09-11T07:51:13+00:00</time>
      </trkpt>
      <trkpt lat="43.344295501709" lon="-7.5367298126221">
        <ele>449</ele>
        <time>2019-09-11T07:51:14+00:00</time>
      </trkpt>
      <trkpt lat="43.344291687012" lon="-7.5367398262024">
        <ele>449</ele>
        <time>2019-09-11T07:51:15+00:00</time>
      </trkpt>
      <trkpt lat="43.34428024292" lon="-7.5367565155029">
        <ele>448</ele>
        <time>2019-09-11T07:51:16+00:00</time>
      </trkpt>
      <trkpt lat="43.344287872314" lon="-7.5367650985718">
        <ele>448</ele>
        <time>2019-09-11T07:51:17+00:00</time>
      </trkpt>
      <trkpt lat="43.34428024292" lon="-7.5367832183838">
        <ele>448</ele>
        <time>2019-09-11T07:51:18+00:00</time>
      </trkpt>
      <trkpt lat="43.344276428223" lon="-7.5368051528931">
        <ele>447</ele>
        <time>2019-09-11T07:51:19+00:00</time>
      </trkpt>
      <trkpt lat="43.34428024292" lon="-7.5368251800537">
        <ele>447</ele>
        <time>2019-09-11T07:51:20+00:00</time>
      </trkpt>
      <trkpt lat="43.34428024292" lon="-7.5368452072144">
        <ele>447</ele>
        <time>2019-09-11T07:51:21+00:00</time>
      </trkpt>
      <trkpt lat="43.344284057617" lon="-7.5368618965149">
        <ele>447</ele>
        <time>2019-09-11T07:51:22+00:00</time>
      </trkpt>
      <trkpt lat="43.344284057617" lon="-7.5368766784668">
        <ele>446</ele>
        <time>2019-09-11T07:51:23+00:00</time>
      </trkpt>
      <trkpt lat="43.344284057617" lon="-7.5368914604187">
        <ele>446</ele>
        <time>2019-09-11T07:51:24+00:00</time>
      </trkpt>
      <trkpt lat="43.34428024292" lon="-7.536901473999">
        <ele>446</ele>
        <time>2019-09-11T07:51:25+00:00</time>
      </trkpt>
      <trkpt lat="43.344276428223" lon="-7.536913394928">
        <ele>446</ele>
        <time>2019-09-11T07:51:26+00:00</time>
      </trkpt>
      <trkpt lat="43.344276428223" lon="-7.5369114875793">
        <ele>446</ele>
        <time>2019-09-11T07:51:27+00:00</time>
      </trkpt>
      <trkpt lat="43.344291687012" lon="-7.5369033813477">
        <ele>446</ele>
        <time>2019-09-11T07:51:28+00:00</time>
      </trkpt>
      <trkpt lat="43.344306945801" lon="-7.5369033813477">
        <ele>446</ele>
        <time>2019-09-11T07:51:29+00:00</time>
      </trkpt>
      <trkpt lat="43.344314575195" lon="-7.5369033813477">
        <ele>446</ele>
        <time>2019-09-11T07:51:30+00:00</time>
      </trkpt>
      <trkpt lat="43.344318389893" lon="-7.5369067192078">
        <ele>445</ele>
        <time>2019-09-11T07:51:31+00:00</time>
      </trkpt>
      <trkpt lat="43.344329833984" lon="-7.5369033813477">
        <ele>445</ele>
        <time>2019-09-11T07:51:32+00:00</time>
      </trkpt>
      <trkpt lat="43.344345092773" lon="-7.5369215011597">
        <ele>445</ele>
        <time>2019-09-11T07:51:33+00:00</time>
      </trkpt>
      <trkpt lat="43.344348907471" lon="-7.5369334220886">
        <ele>445</ele>
        <time>2019-09-11T07:51:34+00:00</time>
      </trkpt>
      <trkpt lat="43.344356536865" lon="-7.5369381904602">
        <ele>445</ele>
        <time>2019-09-11T07:51:35+00:00</time>
      </trkpt>
      <trkpt lat="43.344367980957" lon="-7.5369467735291">
        <ele>445</ele>
        <time>2019-09-11T07:51:36+00:00</time>
      </trkpt>
      <trkpt lat="43.344371795654" lon="-7.5369548797607">
        <ele>444</ele>
        <time>2019-09-11T07:51:37+00:00</time>
      </trkpt>
      <trkpt lat="43.344375610352" lon="-7.5369634628296">
        <ele>444</ele>
        <time>2019-09-11T07:51:38+00:00</time>
      </trkpt>
      <trkpt lat="43.344383239746" lon="-7.5369715690613">
        <ele>444</ele>
        <time>2019-09-11T07:51:39+00:00</time>
      </trkpt>
      <trkpt lat="43.344387054443" lon="-7.5369834899902">
        <ele>444</ele>
        <time>2019-09-11T07:51:40+00:00</time>
      </trkpt>
      <trkpt lat="43.344394683838" lon="-7.5369968414307">
        <ele>444</ele>
        <time>2019-09-11T07:51:41+00:00</time>
      </trkpt>
      <trkpt lat="43.344398498535" lon="-7.5370116233826">
        <ele>444</ele>
        <time>2019-09-11T07:51:42+00:00</time>
      </trkpt>
      <trkpt lat="43.344398498535" lon="-7.5370235443115">
        <ele>444</ele>
        <time>2019-09-11T07:51:43+00:00</time>
      </trkpt>
      <trkpt lat="43.344402313232" lon="-7.5370402336121">
        <ele>444</ele>
        <time>2019-09-11T07:51:44+00:00</time>
      </trkpt>
      <trkpt lat="43.34440612793" lon="-7.5370564460754">
        <ele>443</ele>
        <time>2019-09-11T07:51:45+00:00</time>
      </trkpt>
      <trkpt lat="43.34440612793" lon="-7.5370717048645">
        <ele>443</ele>
        <time>2019-09-11T07:51:46+00:00</time>
      </trkpt>
      <trkpt lat="43.344409942627" lon="-7.5370798110962">
        <ele>443</ele>
        <time>2019-09-11T07:51:47+00:00</time>
      </trkpt>
      <trkpt lat="43.344417572021" lon="-7.5370917320251">
        <ele>443</ele>
        <time>2019-09-11T07:51:48+00:00</time>
      </trkpt>
      <trkpt lat="43.344432830811" lon="-7.5371084213257">
        <ele>443</ele>
        <time>2019-09-11T07:51:49+00:00</time>
      </trkpt>
      <trkpt lat="43.3444480896" lon="-7.5371284484863">
        <ele>443</ele>
        <time>2019-09-11T07:51:50+00:00</time>
      </trkpt>
      <trkpt lat="43.3444480896" lon="-7.5371417999268">
        <ele>443</ele>
        <time>2019-09-11T07:51:51+00:00</time>
      </trkpt>
      <trkpt lat="43.344451904297" lon="-7.5371465682983">
        <ele>442</ele>
        <time>2019-09-11T07:51:52+00:00</time>
      </trkpt>
      <trkpt lat="43.344451904297" lon="-7.537148475647">
        <ele>442</ele>
        <time>2019-09-11T07:51:53+00:00</time>
      </trkpt>
      <trkpt lat="43.344455718994" lon="-7.5371518135071">
        <ele>442</ele>
        <time>2019-09-11T07:51:54+00:00</time>
      </trkpt>
      <trkpt lat="43.344451904297" lon="-7.5371599197388">
        <ele>442</ele>
        <time>2019-09-11T07:51:55+00:00</time>
      </trkpt>
      <trkpt lat="43.344459533691" lon="-7.5371751785278">
        <ele>442</ele>
        <time>2019-09-11T07:51:56+00:00</time>
      </trkpt>
      <trkpt lat="43.344459533691" lon="-7.5371885299683">
        <ele>441</ele>
        <time>2019-09-11T07:51:57+00:00</time>
      </trkpt>
      <trkpt lat="43.344459533691" lon="-7.5371985435486">
        <ele>441</ele>
        <time>2019-09-11T07:51:58+00:00</time>
      </trkpt>
      <trkpt lat="43.344455718994" lon="-7.5372185707092">
        <ele>441</ele>
        <time>2019-09-11T07:51:59+00:00</time>
      </trkpt>
      <trkpt lat="43.344451904297" lon="-7.5372414588928">
        <ele>441</ele>
        <time>2019-09-11T07:52:00+00:00</time>
      </trkpt>
      <trkpt lat="43.344451904297" lon="-7.5372567176819">
        <ele>441</ele>
        <time>2019-09-11T07:52:01+00:00</time>
      </trkpt>
      <trkpt lat="43.3444480896" lon="-7.5372767448425">
        <ele>441</ele>
        <time>2019-09-11T07:52:02+00:00</time>
      </trkpt>
      <trkpt lat="43.344463348389" lon="-7.5372982025146">
        <ele>441</ele>
        <time>2019-09-11T07:52:03+00:00</time>
      </trkpt>
      <trkpt lat="43.34447479248" lon="-7.5373148918152">
        <ele>442</ele>
        <time>2019-09-11T07:52:04+00:00</time>
      </trkpt>
      <trkpt lat="43.344467163086" lon="-7.5373268127441">
        <ele>442</ele>
        <time>2019-09-11T07:52:05+00:00</time>
      </trkpt>
      <trkpt lat="43.344459533691" lon="-7.5373401641846">
        <ele>442</ele>
        <time>2019-09-11T07:52:06+00:00</time>
      </trkpt>
      <trkpt lat="43.344455718994" lon="-7.5373516082764">
        <ele>442</ele>
        <time>2019-09-11T07:52:07+00:00</time>
      </trkpt>
      <trkpt lat="43.344444274902" lon="-7.5373649597168">
        <ele>442</ele>
        <time>2019-09-11T07:52:08+00:00</time>
      </trkpt>
      <trkpt lat="43.344436645508" lon="-7.537383556366">
        <ele>442</ele>
        <time>2019-09-11T07:52:09+00:00</time>
      </trkpt>
      <trkpt lat="43.344421386719" lon="-7.5373964309692">
        <ele>442</ele>
        <time>2019-09-11T07:52:10+00:00</time>
      </trkpt>
      <trkpt lat="43.344421386719" lon="-7.5374097824097">
        <ele>442</ele>
        <time>2019-09-11T07:52:11+00:00</time>
      </trkpt>
      <trkpt lat="43.344413757324" lon="-7.5374183654785">
        <ele>442</ele>
        <time>2019-09-11T07:52:12+00:00</time>
      </trkpt>
      <trkpt lat="43.344413757324" lon="-7.5374298095703">
        <ele>442</ele>
        <time>2019-09-11T07:52:13+00:00</time>
      </trkpt>
      <trkpt lat="43.344409942627" lon="-7.5374450683594">
        <ele>442</ele>
        <time>2019-09-11T07:52:14+00:00</time>
      </trkpt>
      <trkpt lat="43.344409942627" lon="-7.5374531745911">
        <ele>442</ele>
        <time>2019-09-11T07:52:15+00:00</time>
      </trkpt>
      <trkpt lat="43.34440612793" lon="-7.5374631881714">
        <ele>442</ele>
        <time>2019-09-11T07:52:16+00:00</time>
      </trkpt>
      <trkpt lat="43.344398498535" lon="-7.5374732017517">
        <ele>442</ele>
        <time>2019-09-11T07:52:17+00:00</time>
      </trkpt>
      <trkpt lat="43.344398498535" lon="-7.5374884605408">
        <ele>442</ele>
        <time>2019-09-11T07:52:18+00:00</time>
      </trkpt>
      <trkpt lat="43.344390869141" lon="-7.5375099182129">
        <ele>441</ele>
        <time>2019-09-11T07:52:19+00:00</time>
      </trkpt>
      <trkpt lat="43.344387054443" lon="-7.537525177002">
        <ele>441</ele>
        <time>2019-09-11T07:52:20+00:00</time>
      </trkpt>
      <trkpt lat="43.344379425049" lon="-7.5375418663025">
        <ele>441</ele>
        <time>2019-09-11T07:52:21+00:00</time>
      </trkpt>
      <trkpt lat="43.344379425049" lon="-7.5375566482544">
        <ele>441</ele>
        <time>2019-09-11T07:52:22+00:00</time>
      </trkpt>
      <trkpt lat="43.344360351562" lon="-7.5375685691833">
        <ele>441</ele>
        <time>2019-09-11T07:52:23+00:00</time>
      </trkpt>
      <trkpt lat="43.344360351562" lon="-7.5375781059265">
        <ele>441</ele>
        <time>2019-09-11T07:52:24+00:00</time>
      </trkpt>
      <trkpt lat="43.344356536865" lon="-7.5375847816467">
        <ele>441</ele>
        <time>2019-09-11T07:52:25+00:00</time>
      </trkpt>
      <trkpt lat="43.344348907471" lon="-7.5375933647156">
        <ele>441</ele>
        <time>2019-09-11T07:52:26+00:00</time>
      </trkpt>
      <trkpt lat="43.344341278076" lon="-7.5376000404358">
        <ele>440</ele>
        <time>2019-09-11T07:52:27+00:00</time>
      </trkpt>
      <trkpt lat="43.344333648682" lon="-7.5376081466675">
        <ele>440</ele>
        <time>2019-09-11T07:52:28+00:00</time>
      </trkpt>
      <trkpt lat="43.344329833984" lon="-7.5376181602478">
        <ele>440</ele>
        <time>2019-09-11T07:52:29+00:00</time>
      </trkpt>
      <trkpt lat="43.344329833984" lon="-7.5376281738281">
        <ele>440</ele>
        <time>2019-09-11T07:52:30+00:00</time>
      </trkpt>
      <trkpt lat="43.344329833984" lon="-7.5376400947571">
        <ele>440</ele>
        <time>2019-09-11T07:52:31+00:00</time>
      </trkpt>
      <trkpt lat="43.344329833984" lon="-7.5376515388489">
        <ele>440</ele>
        <time>2019-09-11T07:52:32+00:00</time>
      </trkpt>
      <trkpt lat="43.344329833984" lon="-7.5376648902893">
        <ele>440</ele>
        <time>2019-09-11T07:52:33+00:00</time>
      </trkpt>
      <trkpt lat="43.344326019287" lon="-7.5376801490784">
        <ele>440</ele>
        <time>2019-09-11T07:52:34+00:00</time>
      </trkpt>
      <trkpt lat="43.344326019287" lon="-7.5376915931702">
        <ele>440</ele>
        <time>2019-09-11T07:52:35+00:00</time>
      </trkpt>
      <trkpt lat="43.34432220459" lon="-7.5377035140991">
        <ele>440</ele>
        <time>2019-09-11T07:52:36+00:00</time>
      </trkpt>
      <trkpt lat="43.344318389893" lon="-7.5377268791199">
        <ele>439</ele>
        <time>2019-09-11T07:52:37+00:00</time>
      </trkpt>
      <trkpt lat="43.344314575195" lon="-7.5377368927002">
        <ele>439</ele>
        <time>2019-09-11T07:52:38+00:00</time>
      </trkpt>
      <trkpt lat="43.344318389893" lon="-7.5377435684204">
        <ele>439</ele>
        <time>2019-09-11T07:52:39+00:00</time>
      </trkpt>
      <trkpt lat="43.344318389893" lon="-7.5377435684204">
        <ele>439</ele>
        <time>2019-09-11T07:52:40+00:00</time>
      </trkpt>
      <trkpt lat="43.344318389893" lon="-7.5377464294434">
        <ele>439</ele>
        <time>2019-09-11T07:52:41+00:00</time>
      </trkpt>
      <trkpt lat="43.344318389893" lon="-7.5377531051636">
        <ele>439</ele>
        <time>2019-09-11T07:52:42+00:00</time>
      </trkpt>
      <trkpt lat="43.344318389893" lon="-7.5377564430237">
        <ele>439</ele>
        <time>2019-09-11T07:52:43+00:00</time>
      </trkpt>
      <trkpt lat="43.344318389893" lon="-7.5377616882324">
        <ele>439</ele>
        <time>2019-09-11T07:52:44+00:00</time>
      </trkpt>
      <trkpt lat="43.34432220459" lon="-7.5377650260925">
        <ele>439</ele>
        <time>2019-09-11T07:52:45+00:00</time>
      </trkpt>
      <trkpt lat="43.34432220459" lon="-7.5377631187439">
        <ele>439</ele>
        <time>2019-09-11T07:52:46+00:00</time>
      </trkpt>
      <trkpt lat="43.344314575195" lon="-7.5377697944641">
        <ele>439</ele>
        <time>2019-09-11T07:52:47+00:00</time>
      </trkpt>
      <trkpt lat="43.344306945801" lon="-7.5377831459045">
        <ele>439</ele>
        <time>2019-09-11T07:52:48+00:00</time>
      </trkpt>
      <trkpt lat="43.344291687012" lon="-7.5377998352051">
        <ele>439</ele>
        <time>2019-09-11T07:52:49+00:00</time>
      </trkpt>
      <trkpt lat="43.344276428223" lon="-7.5378217697144">
        <ele>439</ele>
        <time>2019-09-11T07:52:50+00:00</time>
      </trkpt>
      <trkpt lat="43.344272613525" lon="-7.5378351211548">
        <ele>439</ele>
        <time>2019-09-11T07:52:51+00:00</time>
      </trkpt>
      <trkpt lat="43.344268798828" lon="-7.5378432273865">
        <ele>438</ele>
        <time>2019-09-11T07:52:52+00:00</time>
      </trkpt>
      <trkpt lat="43.344261169434" lon="-7.5378532409668">
        <ele>438</ele>
        <time>2019-09-11T07:52:53+00:00</time>
      </trkpt>
      <trkpt lat="43.344253540039" lon="-7.5378651618958">
        <ele>438</ele>
        <time>2019-09-11T07:52:54+00:00</time>
      </trkpt>
      <trkpt lat="43.344245910645" lon="-7.5378751754761">
        <ele>438</ele>
        <time>2019-09-11T07:52:55+00:00</time>
      </trkpt>
      <trkpt lat="43.344245910645" lon="-7.5378851890564">
        <ele>438</ele>
        <time>2019-09-11T07:52:56+00:00</time>
      </trkpt>
      <trkpt lat="43.34423828125" lon="-7.5378985404968">
        <ele>437</ele>
        <time>2019-09-11T07:52:57+00:00</time>
      </trkpt>
      <trkpt lat="43.34423828125" lon="-7.5379133224487">
        <ele>437</ele>
        <time>2019-09-11T07:52:58+00:00</time>
      </trkpt>
      <trkpt lat="43.344230651855" lon="-7.5379300117493">
        <ele>437</ele>
        <time>2019-09-11T07:52:59+00:00</time>
      </trkpt>
      <trkpt lat="43.344223022461" lon="-7.5379467010498">
        <ele>437</ele>
        <time>2019-09-11T07:53:00+00:00</time>
      </trkpt>
      <trkpt lat="43.344219207764" lon="-7.5379581451416">
        <ele>437</ele>
        <time>2019-09-11T07:53:01+00:00</time>
      </trkpt>
      <trkpt lat="43.344211578369" lon="-7.5379681587219">
        <ele>437</ele>
        <time>2019-09-11T07:53:02+00:00</time>
      </trkpt>
      <trkpt lat="43.344192504883" lon="-7.537983417511">
        <ele>436</ele>
        <time>2019-09-11T07:53:03+00:00</time>
      </trkpt>
      <trkpt lat="43.344192504883" lon="-7.5379915237427">
        <ele>436</ele>
        <time>2019-09-11T07:53:04+00:00</time>
      </trkpt>
      <trkpt lat="43.34419631958" lon="-7.5380034446716">
        <ele>436</ele>
        <time>2019-09-11T07:53:05+00:00</time>
      </trkpt>
      <trkpt lat="43.34419631958" lon="-7.5380148887634">
        <ele>436</ele>
        <time>2019-09-11T07:53:06+00:00</time>
      </trkpt>
      <trkpt lat="43.344192504883" lon="-7.5380268096924">
        <ele>436</ele>
        <time>2019-09-11T07:53:07+00:00</time>
      </trkpt>
      <trkpt lat="43.344192504883" lon="-7.5380449295044">
        <ele>436</ele>
        <time>2019-09-11T07:53:08+00:00</time>
      </trkpt>
      <trkpt lat="43.344184875488" lon="-7.538064956665">
        <ele>436</ele>
        <time>2019-09-11T07:53:09+00:00</time>
      </trkpt>
      <trkpt lat="43.344181060791" lon="-7.5380783081055">
        <ele>436</ele>
        <time>2019-09-11T07:53:10+00:00</time>
      </trkpt>
      <trkpt lat="43.344181060791" lon="-7.5380935668945">
        <ele>436</ele>
        <time>2019-09-11T07:53:11+00:00</time>
      </trkpt>
      <trkpt lat="43.344169616699" lon="-7.5381083488464">
        <ele>436</ele>
        <time>2019-09-11T07:53:12+00:00</time>
      </trkpt>
      <trkpt lat="43.344158172607" lon="-7.5381264686584">
        <ele>435</ele>
        <time>2019-09-11T07:53:13+00:00</time>
      </trkpt>
      <trkpt lat="43.344146728516" lon="-7.538143157959">
        <ele>435</ele>
        <time>2019-09-11T07:53:14+00:00</time>
      </trkpt>
      <trkpt lat="43.34415435791" lon="-7.5381565093994">
        <ele>435</ele>
        <time>2019-09-11T07:53:15+00:00</time>
      </trkpt>
      <trkpt lat="43.344158172607" lon="-7.5381717681885">
        <ele>435</ele>
        <time>2019-09-11T07:53:16+00:00</time>
      </trkpt>
      <trkpt lat="43.344150543213" lon="-7.5381865501404">
        <ele>435</ele>
        <time>2019-09-11T07:53:17+00:00</time>
      </trkpt>
      <trkpt lat="43.34415435791" lon="-7.5381984710693">
        <ele>435</ele>
        <time>2019-09-11T07:53:18+00:00</time>
      </trkpt>
      <trkpt lat="43.34415435791" lon="-7.5382118225098">
        <ele>435</ele>
        <time>2019-09-11T07:53:19+00:00</time>
      </trkpt>
      <trkpt lat="43.34415435791" lon="-7.5382251739502">
        <ele>435</ele>
        <time>2019-09-11T07:53:20+00:00</time>
      </trkpt>
      <trkpt lat="43.34415435791" lon="-7.5382466316223">
        <ele>435</ele>
        <time>2019-09-11T07:53:21+00:00</time>
      </trkpt>
      <trkpt lat="43.344146728516" lon="-7.5382633209229">
        <ele>435</ele>
        <time>2019-09-11T07:53:22+00:00</time>
      </trkpt>
      <trkpt lat="43.344146728516" lon="-7.5382833480835">
        <ele>434</ele>
        <time>2019-09-11T07:53:23+00:00</time>
      </trkpt>
      <trkpt lat="43.344146728516" lon="-7.5383014678955">
        <ele>434</ele>
        <time>2019-09-11T07:53:24+00:00</time>
      </trkpt>
      <trkpt lat="43.344146728516" lon="-7.5383148193359">
        <ele>434</ele>
        <time>2019-09-11T07:53:25+00:00</time>
      </trkpt>
      <trkpt lat="43.344158172607" lon="-7.5383334159851">
        <ele>434</ele>
        <time>2019-09-11T07:53:26+00:00</time>
      </trkpt>
      <trkpt lat="43.344161987305" lon="-7.5383501052856">
        <ele>435</ele>
        <time>2019-09-11T07:53:27+00:00</time>
      </trkpt>
      <trkpt lat="43.344158172607" lon="-7.5383667945862">
        <ele>435</ele>
        <time>2019-09-11T07:53:28+00:00</time>
      </trkpt>
      <trkpt lat="43.344161987305" lon="-7.5383815765381">
        <ele>435</ele>
        <time>2019-09-11T07:53:29+00:00</time>
      </trkpt>
      <trkpt lat="43.344165802002" lon="-7.5383915901184">
        <ele>435</ele>
        <time>2019-09-11T07:53:30+00:00</time>
      </trkpt>
      <trkpt lat="43.344169616699" lon="-7.5384049415588">
        <ele>435</ele>
        <time>2019-09-11T07:53:31+00:00</time>
      </trkpt>
      <trkpt lat="43.344177246094" lon="-7.5384182929993">
        <ele>435</ele>
        <time>2019-09-11T07:53:32+00:00</time>
      </trkpt>
      <trkpt lat="43.344181060791" lon="-7.5384316444397">
        <ele>435</ele>
        <time>2019-09-11T07:53:33+00:00</time>
      </trkpt>
      <trkpt lat="43.344181060791" lon="-7.5384550094604">
        <ele>435</ele>
        <time>2019-09-11T07:53:34+00:00</time>
      </trkpt>
      <trkpt lat="43.344184875488" lon="-7.5384650230408">
        <ele>435</ele>
        <time>2019-09-11T07:53:35+00:00</time>
      </trkpt>
      <trkpt lat="43.344188690186" lon="-7.538471698761">
        <ele>435</ele>
        <time>2019-09-11T07:53:36+00:00</time>
      </trkpt>
      <trkpt lat="43.344200134277" lon="-7.5384783744812">
        <ele>435</ele>
        <time>2019-09-11T07:53:37+00:00</time>
      </trkpt>
      <trkpt lat="43.344200134277" lon="-7.5384917259216">
        <ele>435</ele>
        <time>2019-09-11T07:53:38+00:00</time>
      </trkpt>
      <trkpt lat="43.344192504883" lon="-7.5385084152222">
        <ele>435</ele>
        <time>2019-09-11T07:53:39+00:00</time>
      </trkpt>
      <trkpt lat="43.344188690186" lon="-7.5385217666626">
        <ele>435</ele>
        <time>2019-09-11T07:53:40+00:00</time>
      </trkpt>
      <trkpt lat="43.344184875488" lon="-7.5385365486145">
        <ele>435</ele>
        <time>2019-09-11T07:53:41+00:00</time>
      </trkpt>
      <trkpt lat="43.344188690186" lon="-7.5385484695435">
        <ele>435</ele>
        <time>2019-09-11T07:53:42+00:00</time>
      </trkpt>
      <trkpt lat="43.344188690186" lon="-7.5385699272156">
        <ele>435</ele>
        <time>2019-09-11T07:53:43+00:00</time>
      </trkpt>
      <trkpt lat="43.344188690186" lon="-7.5385918617249">
        <ele>435</ele>
        <time>2019-09-11T07:53:44+00:00</time>
      </trkpt>
      <trkpt lat="43.344184875488" lon="-7.5386099815369">
        <ele>435</ele>
        <time>2019-09-11T07:53:45+00:00</time>
      </trkpt>
      <trkpt lat="43.344188690186" lon="-7.5386266708374">
        <ele>435</ele>
        <time>2019-09-11T07:53:46+00:00</time>
      </trkpt>
      <trkpt lat="43.344184875488" lon="-7.5386533737183">
        <ele>435</ele>
        <time>2019-09-11T07:53:47+00:00</time>
      </trkpt>
      <trkpt lat="43.344188690186" lon="-7.5386681556702">
        <ele>435</ele>
        <time>2019-09-11T07:53:48+00:00</time>
      </trkpt>
      <trkpt lat="43.34419631958" lon="-7.5386834144592">
        <ele>435</ele>
        <time>2019-09-11T07:53:49+00:00</time>
      </trkpt>
      <trkpt lat="43.34419631958" lon="-7.5386934280396">
        <ele>435</ele>
        <time>2019-09-11T07:53:50+00:00</time>
      </trkpt>
      <trkpt lat="43.34419631958" lon="-7.5386900901794">
        <ele>436</ele>
        <time>2019-09-11T07:53:51+00:00</time>
      </trkpt>
      <trkpt lat="43.344200134277" lon="-7.5387015342712">
        <ele>436</ele>
        <time>2019-09-11T07:53:52+00:00</time>
      </trkpt>
      <trkpt lat="43.344203948975" lon="-7.5387215614319">
        <ele>436</ele>
        <time>2019-09-11T07:53:53+00:00</time>
      </trkpt>
      <trkpt lat="43.344207763672" lon="-7.5387282371521">
        <ele>436</ele>
        <time>2019-09-11T07:53:54+00:00</time>
      </trkpt>
      <trkpt lat="43.344207763672" lon="-7.5387382507324">
        <ele>436</ele>
        <time>2019-09-11T07:53:55+00:00</time>
      </trkpt>
      <trkpt lat="43.344207763672" lon="-7.5387468338013">
        <ele>436</ele>
        <time>2019-09-11T07:53:56+00:00</time>
      </trkpt>
      <trkpt lat="43.344219207764" lon="-7.538754940033">
        <ele>436</ele>
        <time>2019-09-11T07:53:57+00:00</time>
      </trkpt>
      <trkpt lat="43.344223022461" lon="-7.5387568473816">
        <ele>436</ele>
        <time>2019-09-11T07:53:58+00:00</time>
      </trkpt>
      <trkpt lat="43.344226837158" lon="-7.5387716293335">
        <ele>436</ele>
        <time>2019-09-11T07:53:59+00:00</time>
      </trkpt>
      <trkpt lat="43.34423828125" lon="-7.5387716293335">
        <ele>436</ele>
        <time>2019-09-11T07:54:00+00:00</time>
      </trkpt>
      <trkpt lat="43.344245910645" lon="-7.5387916564941">
        <ele>436</ele>
        <time>2019-09-11T07:54:01+00:00</time>
      </trkpt>
      <trkpt lat="43.344249725342" lon="-7.5388016700745">
        <ele>436</ele>
        <time>2019-09-11T07:54:02+00:00</time>
      </trkpt>
      <trkpt lat="43.344261169434" lon="-7.538806438446">
        <ele>436</ele>
        <time>2019-09-11T07:54:03+00:00</time>
      </trkpt>
      <trkpt lat="43.344268798828" lon="-7.5388164520264">
        <ele>436</ele>
        <time>2019-09-11T07:54:04+00:00</time>
      </trkpt>
      <trkpt lat="43.34428024292" lon="-7.5388250350952">
        <ele>436</ele>
        <time>2019-09-11T07:54:05+00:00</time>
      </trkpt>
      <trkpt lat="43.344287872314" lon="-7.5388298034668">
        <ele>436</ele>
        <time>2019-09-11T07:54:06+00:00</time>
      </trkpt>
      <trkpt lat="43.344291687012" lon="-7.5388417243958">
        <ele>436</ele>
        <time>2019-09-11T07:54:07+00:00</time>
      </trkpt>
      <trkpt lat="43.344299316406" lon="-7.538848400116">
        <ele>436</ele>
        <time>2019-09-11T07:54:08+00:00</time>
      </trkpt>
      <trkpt lat="43.344303131104" lon="-7.5388531684875">
        <ele>436</ele>
        <time>2019-09-11T07:54:09+00:00</time>
      </trkpt>
      <trkpt lat="43.344463348389" lon="-7.5389232635498">
        <ele>446</ele>
        <time>2019-09-11T07:54:30+00:00</time>
      </trkpt>
      <trkpt lat="43.344539642334" lon="-7.5390501022339">
        <ele>454</ele>
        <time>2019-09-11T07:54:31+00:00</time>
      </trkpt>
      <trkpt lat="43.344566345215" lon="-7.5390868186951">
        <ele>457</ele>
        <time>2019-09-11T07:54:32+00:00</time>
      </trkpt>
      <trkpt lat="43.344554901123" lon="-7.539101600647">
        <ele>456</ele>
        <time>2019-09-11T07:54:33+00:00</time>
      </trkpt>
      <trkpt lat="43.344573974609" lon="-7.5391302108765">
        <ele>457</ele>
        <time>2019-09-11T07:54:34+00:00</time>
      </trkpt>
      <trkpt lat="43.34455871582" lon="-7.539134979248">
        <ele>455</ele>
        <time>2019-09-11T07:54:35+00:00</time>
      </trkpt>
      <trkpt lat="43.344520568848" lon="-7.539134979248">
        <ele>451</ele>
        <time>2019-09-11T07:54:36+00:00</time>
      </trkpt>
      <trkpt lat="43.344520568848" lon="-7.5391449928284">
        <ele>450</ele>
        <time>2019-09-11T07:54:37+00:00</time>
      </trkpt>
      <trkpt lat="43.344520568848" lon="-7.5391564369202">
        <ele>449</ele>
        <time>2019-09-11T07:54:38+00:00</time>
      </trkpt>
      <trkpt lat="43.344520568848" lon="-7.539165019989">
        <ele>449</ele>
        <time>2019-09-11T07:54:39+00:00</time>
      </trkpt>
      <trkpt lat="43.34451675415" lon="-7.5391716957092">
        <ele>448</ele>
        <time>2019-09-11T07:54:40+00:00</time>
      </trkpt>
      <trkpt lat="43.34451675415" lon="-7.5391764640808">
        <ele>447</ele>
        <time>2019-09-11T07:54:41+00:00</time>
      </trkpt>
      <trkpt lat="43.34451675415" lon="-7.5391864776611">
        <ele>446</ele>
        <time>2019-09-11T07:54:42+00:00</time>
      </trkpt>
      <trkpt lat="43.344512939453" lon="-7.5391964912415">
        <ele>446</ele>
        <time>2019-09-11T07:54:43+00:00</time>
      </trkpt>
      <trkpt lat="43.344509124756" lon="-7.5392084121704">
        <ele>446</ele>
        <time>2019-09-11T07:54:44+00:00</time>
      </trkpt>
      <trkpt lat="43.344505310059" lon="-7.5392217636108">
        <ele>446</ele>
        <time>2019-09-11T07:54:45+00:00</time>
      </trkpt>
      <trkpt lat="43.344497680664" lon="-7.5392384529114">
        <ele>445</ele>
        <time>2019-09-11T07:54:46+00:00</time>
      </trkpt>
      <trkpt lat="43.344497680664" lon="-7.5392532348633">
        <ele>445</ele>
        <time>2019-09-11T07:54:47+00:00</time>
      </trkpt>
      <trkpt lat="43.344493865967" lon="-7.5392699241638">
        <ele>445</ele>
        <time>2019-09-11T07:54:48+00:00</time>
      </trkpt>
      <trkpt lat="43.34449005127" lon="-7.5392866134644">
        <ele>445</ele>
        <time>2019-09-11T07:54:49+00:00</time>
      </trkpt>
      <trkpt lat="43.344482421875" lon="-7.539306640625">
        <ele>445</ele>
        <time>2019-09-11T07:54:50+00:00</time>
      </trkpt>
      <trkpt lat="43.344478607178" lon="-7.5393252372742">
        <ele>445</ele>
        <time>2019-09-11T07:54:51+00:00</time>
      </trkpt>
      <trkpt lat="43.34447479248" lon="-7.5393400192261">
        <ele>445</ele>
        <time>2019-09-11T07:54:52+00:00</time>
      </trkpt>
      <trkpt lat="43.344478607178" lon="-7.5393581390381">
        <ele>445</ele>
        <time>2019-09-11T07:54:53+00:00</time>
      </trkpt>
      <trkpt lat="43.344478607178" lon="-7.539370059967">
        <ele>445</ele>
        <time>2019-09-11T07:54:54+00:00</time>
      </trkpt>
      <trkpt lat="43.34447479248" lon="-7.5393834114075">
        <ele>445</ele>
        <time>2019-09-11T07:54:55+00:00</time>
      </trkpt>
      <trkpt lat="43.34447479248" lon="-7.5393967628479">
        <ele>445</ele>
        <time>2019-09-11T07:54:56+00:00</time>
      </trkpt>
      <trkpt lat="43.34447479248" lon="-7.5394082069397">
        <ele>445</ele>
        <time>2019-09-11T07:54:57+00:00</time>
      </trkpt>
      <trkpt lat="43.34447479248" lon="-7.5394201278687">
        <ele>446</ele>
        <time>2019-09-11T07:54:58+00:00</time>
      </trkpt>
      <trkpt lat="43.344470977783" lon="-7.5394368171692">
        <ele>446</ele>
        <time>2019-09-11T07:54:59+00:00</time>
      </trkpt>
      <trkpt lat="43.344467163086" lon="-7.5394468307495">
        <ele>446</ele>
        <time>2019-09-11T07:55:00+00:00</time>
      </trkpt>
      <trkpt lat="43.344463348389" lon="-7.5394668579102">
        <ele>446</ele>
        <time>2019-09-11T07:55:01+00:00</time>
      </trkpt>
      <trkpt lat="43.344451904297" lon="-7.5394835472107">
        <ele>446</ele>
        <time>2019-09-11T07:55:02+00:00</time>
      </trkpt>
      <trkpt lat="43.344444274902" lon="-7.5394983291626">
        <ele>446</ele>
        <time>2019-09-11T07:55:03+00:00</time>
      </trkpt>
      <trkpt lat="43.344436645508" lon="-7.5395131111145">
        <ele>446</ele>
        <time>2019-09-11T07:55:04+00:00</time>
      </trkpt>
      <trkpt lat="43.344429016113" lon="-7.5395250320435">
        <ele>446</ele>
        <time>2019-09-11T07:55:05+00:00</time>
      </trkpt>
      <trkpt lat="43.344425201416" lon="-7.5395383834839">
        <ele>446</ele>
        <time>2019-09-11T07:55:06+00:00</time>
      </trkpt>
      <trkpt lat="43.344425201416" lon="-7.5395483970642">
        <ele>446</ele>
        <time>2019-09-11T07:55:07+00:00</time>
      </trkpt>
      <trkpt lat="43.344417572021" lon="-7.5395565032959">
        <ele>447</ele>
        <time>2019-09-11T07:55:08+00:00</time>
      </trkpt>
      <trkpt lat="43.344413757324" lon="-7.5395617485046">
        <ele>447</ele>
        <time>2019-09-11T07:55:09+00:00</time>
      </trkpt>
      <trkpt lat="43.344402313232" lon="-7.539571762085">
        <ele>447</ele>
        <time>2019-09-11T07:55:10+00:00</time>
      </trkpt>
      <trkpt lat="43.344398498535" lon="-7.5395784378052">
        <ele>447</ele>
        <time>2019-09-11T07:55:11+00:00</time>
      </trkpt>
      <trkpt lat="43.344394683838" lon="-7.5395851135254">
        <ele>447</ele>
        <time>2019-09-11T07:55:12+00:00</time>
      </trkpt>
      <trkpt lat="43.344383239746" lon="-7.5395965576172">
        <ele>448</ele>
        <time>2019-09-11T07:55:13+00:00</time>
      </trkpt>
      <trkpt lat="43.344375610352" lon="-7.5396032333374">
        <ele>448</ele>
        <time>2019-09-11T07:55:14+00:00</time>
      </trkpt>
      <trkpt lat="43.344367980957" lon="-7.5396099090576">
        <ele>448</ele>
        <time>2019-09-11T07:55:15+00:00</time>
      </trkpt>
      <trkpt lat="43.34436416626" lon="-7.5396151542664">
        <ele>449</ele>
        <time>2019-09-11T07:55:16+00:00</time>
      </trkpt>
      <trkpt lat="43.344348907471" lon="-7.5396299362183">
        <ele>449</ele>
        <time>2019-09-11T07:55:17+00:00</time>
      </trkpt>
      <trkpt lat="43.344337463379" lon="-7.5396432876587">
        <ele>449</ele>
        <time>2019-09-11T07:55:18+00:00</time>
      </trkpt>
      <trkpt lat="43.344326019287" lon="-7.5396552085876">
        <ele>449</ele>
        <time>2019-09-11T07:55:19+00:00</time>
      </trkpt>
      <trkpt lat="43.344318389893" lon="-7.539665222168">
        <ele>449</ele>
        <time>2019-09-11T07:55:20+00:00</time>
      </trkpt>
      <trkpt lat="43.344314575195" lon="-7.5396766662598">
        <ele>449</ele>
        <time>2019-09-11T07:55:21+00:00</time>
      </trkpt>
      <trkpt lat="43.344310760498" lon="-7.5396881103516">
        <ele>449</ele>
        <time>2019-09-11T07:55:22+00:00</time>
      </trkpt>
      <trkpt lat="43.344306945801" lon="-7.5396947860718">
        <ele>449</ele>
        <time>2019-09-11T07:55:23+00:00</time>
      </trkpt>
      <trkpt lat="43.344303131104" lon="-7.5397067070007">
        <ele>449</ele>
        <time>2019-09-11T07:55:24+00:00</time>
      </trkpt>
      <trkpt lat="43.344295501709" lon="-7.5397200584412">
        <ele>449</ele>
        <time>2019-09-11T07:55:25+00:00</time>
      </trkpt>
      <trkpt lat="43.344284057617" lon="-7.5397334098816">
        <ele>449</ele>
        <time>2019-09-11T07:55:26+00:00</time>
      </trkpt>
      <trkpt lat="43.344276428223" lon="-7.5397434234619">
        <ele>449</ele>
        <time>2019-09-11T07:55:27+00:00</time>
      </trkpt>
      <trkpt lat="43.344268798828" lon="-7.5397515296936">
        <ele>449</ele>
        <time>2019-09-11T07:55:28+00:00</time>
      </trkpt>
      <trkpt lat="43.344257354736" lon="-7.5397601127625">
        <ele>449</ele>
        <time>2019-09-11T07:55:29+00:00</time>
      </trkpt>
      <trkpt lat="43.344253540039" lon="-7.5397682189941">
        <ele>449</ele>
        <time>2019-09-11T07:55:30+00:00</time>
      </trkpt>
      <trkpt lat="43.344245910645" lon="-7.539776802063">
        <ele>449</ele>
        <time>2019-09-11T07:55:31+00:00</time>
      </trkpt>
      <trkpt lat="43.344242095947" lon="-7.5397849082947">
        <ele>449</ele>
        <time>2019-09-11T07:55:32+00:00</time>
      </trkpt>
      <trkpt lat="43.344234466553" lon="-7.5397901535034">
        <ele>449</ele>
        <time>2019-09-11T07:55:33+00:00</time>
      </trkpt>
      <trkpt lat="43.344226837158" lon="-7.539794921875">
        <ele>449</ele>
        <time>2019-09-11T07:55:34+00:00</time>
      </trkpt>
      <trkpt lat="43.344219207764" lon="-7.539806842804">
        <ele>449</ele>
        <time>2019-09-11T07:55:35+00:00</time>
      </trkpt>
      <trkpt lat="43.344215393066" lon="-7.5398135185242">
        <ele>449</ele>
        <time>2019-09-11T07:55:36+00:00</time>
      </trkpt>
      <trkpt lat="43.344207763672" lon="-7.5398235321045">
        <ele>449</ele>
        <time>2019-09-11T07:55:37+00:00</time>
      </trkpt>
      <trkpt lat="43.344200134277" lon="-7.5398335456848">
        <ele>449</ele>
        <time>2019-09-11T07:55:38+00:00</time>
      </trkpt>
      <trkpt lat="43.344188690186" lon="-7.5398435592651">
        <ele>449</ele>
        <time>2019-09-11T07:55:39+00:00</time>
      </trkpt>
      <trkpt lat="43.344184875488" lon="-7.5398550033569">
        <ele>449</ele>
        <time>2019-09-11T07:55:40+00:00</time>
      </trkpt>
      <trkpt lat="43.344181060791" lon="-7.5398664474487">
        <ele>449</ele>
        <time>2019-09-11T07:55:41+00:00</time>
      </trkpt>
      <trkpt lat="43.344173431396" lon="-7.5398783683777">
        <ele>449</ele>
        <time>2019-09-11T07:55:42+00:00</time>
      </trkpt>
      <trkpt lat="43.344173431396" lon="-7.539888381958">
        <ele>449</ele>
        <time>2019-09-11T07:55:43+00:00</time>
      </trkpt>
      <trkpt lat="43.344165802002" lon="-7.5398983955383">
        <ele>449</ele>
        <time>2019-09-11T07:55:44+00:00</time>
      </trkpt>
      <trkpt lat="43.344158172607" lon="-7.53990650177">
        <ele>449</ele>
        <time>2019-09-11T07:55:45+00:00</time>
      </trkpt>
      <trkpt lat="43.34415435791" lon="-7.5399117469788">
        <ele>449</ele>
        <time>2019-09-11T07:55:46+00:00</time>
      </trkpt>
      <trkpt lat="43.344146728516" lon="-7.5399231910706">
        <ele>449</ele>
        <time>2019-09-11T07:55:47+00:00</time>
      </trkpt>
      <trkpt lat="43.344135284424" lon="-7.5399398803711">
        <ele>449</ele>
        <time>2019-09-11T07:55:48+00:00</time>
      </trkpt>
      <trkpt lat="43.344131469727" lon="-7.5399551391602">
        <ele>449</ele>
        <time>2019-09-11T07:55:49+00:00</time>
      </trkpt>
      <trkpt lat="43.344127655029" lon="-7.5399732589722">
        <ele>449</ele>
        <time>2019-09-11T07:55:50+00:00</time>
      </trkpt>
      <trkpt lat="43.344123840332" lon="-7.5399885177612">
        <ele>449</ele>
        <time>2019-09-11T07:55:51+00:00</time>
      </trkpt>
      <trkpt lat="43.344116210938" lon="-7.539999961853">
        <ele>449</ele>
        <time>2019-09-11T07:55:52+00:00</time>
      </trkpt>
      <trkpt lat="43.344108581543" lon="-7.540011882782">
        <ele>448</ele>
        <time>2019-09-11T07:55:53+00:00</time>
      </trkpt>
      <trkpt lat="43.344104766846" lon="-7.5400266647339">
        <ele>448</ele>
        <time>2019-09-11T07:55:54+00:00</time>
      </trkpt>
      <trkpt lat="43.344097137451" lon="-7.5400414466858">
        <ele>448</ele>
        <time>2019-09-11T07:55:55+00:00</time>
      </trkpt>
      <trkpt lat="43.344093322754" lon="-7.5400547981262">
        <ele>448</ele>
        <time>2019-09-11T07:55:56+00:00</time>
      </trkpt>
      <trkpt lat="43.344081878662" lon="-7.5400667190552">
        <ele>448</ele>
        <time>2019-09-11T07:55:57+00:00</time>
      </trkpt>
      <trkpt lat="43.344078063965" lon="-7.5400800704956">
        <ele>448</ele>
        <time>2019-09-11T07:55:58+00:00</time>
      </trkpt>
      <trkpt lat="43.34407043457" lon="-7.5400948524475">
        <ele>448</ele>
        <time>2019-09-11T07:55:59+00:00</time>
      </trkpt>
      <trkpt lat="43.344066619873" lon="-7.5401101112366">
        <ele>448</ele>
        <time>2019-09-11T07:56:00+00:00</time>
      </trkpt>
      <trkpt lat="43.344058990479" lon="-7.540123462677">
        <ele>448</ele>
        <time>2019-09-11T07:56:01+00:00</time>
      </trkpt>
      <trkpt lat="43.344055175781" lon="-7.5401434898376">
        <ele>448</ele>
        <time>2019-09-11T07:56:02+00:00</time>
      </trkpt>
      <trkpt lat="43.344047546387" lon="-7.5401601791382">
        <ele>448</ele>
        <time>2019-09-11T07:56:03+00:00</time>
      </trkpt>
      <trkpt lat="43.344043731689" lon="-7.5401749610901">
        <ele>448</ele>
        <time>2019-09-11T07:56:04+00:00</time>
      </trkpt>
      <trkpt lat="43.344036102295" lon="-7.540186882019">
        <ele>448</ele>
        <time>2019-09-11T07:56:05+00:00</time>
      </trkpt>
      <trkpt lat="43.344036102295" lon="-7.5402064323425">
        <ele>448</ele>
        <time>2019-09-11T07:56:06+00:00</time>
      </trkpt>
      <trkpt lat="43.344032287598" lon="-7.5402250289917">
        <ele>448</ele>
        <time>2019-09-11T07:56:07+00:00</time>
      </trkpt>
      <trkpt lat="43.3440284729" lon="-7.5402364730835">
        <ele>448</ele>
        <time>2019-09-11T07:56:08+00:00</time>
      </trkpt>
      <trkpt lat="43.3440284729" lon="-7.5402483940125">
        <ele>448</ele>
        <time>2019-09-11T07:56:09+00:00</time>
      </trkpt>
      <trkpt lat="43.344020843506" lon="-7.5402517318726">
        <ele>448</ele>
        <time>2019-09-11T07:56:10+00:00</time>
      </trkpt>
      <trkpt lat="43.344013214111" lon="-7.5402617454529">
        <ele>448</ele>
        <time>2019-09-11T07:56:11+00:00</time>
      </trkpt>
      <trkpt lat="43.344013214111" lon="-7.5402750968933">
        <ele>448</ele>
        <time>2019-09-11T07:56:12+00:00</time>
      </trkpt>
      <trkpt lat="43.344009399414" lon="-7.5402851104736">
        <ele>448</ele>
        <time>2019-09-11T07:56:13+00:00</time>
      </trkpt>
      <trkpt lat="43.34400177002" lon="-7.540295124054">
        <ele>448</ele>
        <time>2019-09-11T07:56:14+00:00</time>
      </trkpt>
      <trkpt lat="43.343994140625" lon="-7.5403051376343">
        <ele>448</ele>
        <time>2019-09-11T07:56:15+00:00</time>
      </trkpt>
      <trkpt lat="43.34398651123" lon="-7.5403099060059">
        <ele>448</ele>
        <time>2019-09-11T07:56:16+00:00</time>
      </trkpt>
      <trkpt lat="43.343975067139" lon="-7.5403232574463">
        <ele>448</ele>
        <time>2019-09-11T07:56:17+00:00</time>
      </trkpt>
      <trkpt lat="43.343967437744" lon="-7.5403366088867">
        <ele>448</ele>
        <time>2019-09-11T07:56:18+00:00</time>
      </trkpt>
      <trkpt lat="43.343963623047" lon="-7.5403499603271">
        <ele>448</ele>
        <time>2019-09-11T07:56:19+00:00</time>
      </trkpt>
      <trkpt lat="43.343952178955" lon="-7.5403666496277">
        <ele>449</ele>
        <time>2019-09-11T07:56:20+00:00</time>
      </trkpt>
      <trkpt lat="43.343948364258" lon="-7.5403752326965">
        <ele>449</ele>
        <time>2019-09-11T07:56:21+00:00</time>
      </trkpt>
      <trkpt lat="43.343940734863" lon="-7.5403847694397">
        <ele>449</ele>
        <time>2019-09-11T07:56:22+00:00</time>
      </trkpt>
      <trkpt lat="43.343936920166" lon="-7.5403966903687">
        <ele>449</ele>
        <time>2019-09-11T07:56:23+00:00</time>
      </trkpt>
      <trkpt lat="43.343933105469" lon="-7.5404081344604">
        <ele>449</ele>
        <time>2019-09-11T07:56:24+00:00</time>
      </trkpt>
      <trkpt lat="43.343921661377" lon="-7.5404167175293">
        <ele>450</ele>
        <time>2019-09-11T07:56:25+00:00</time>
      </trkpt>
      <trkpt lat="43.343914031982" lon="-7.5404281616211">
        <ele>450</ele>
        <time>2019-09-11T07:56:26+00:00</time>
      </trkpt>
      <trkpt lat="43.343910217285" lon="-7.5404367446899">
        <ele>450</ele>
        <time>2019-09-11T07:56:27+00:00</time>
      </trkpt>
      <trkpt lat="43.343906402588" lon="-7.5404481887817">
        <ele>450</ele>
        <time>2019-09-11T07:56:28+00:00</time>
      </trkpt>
      <trkpt lat="43.343902587891" lon="-7.5404601097107">
        <ele>450</ele>
        <time>2019-09-11T07:56:29+00:00</time>
      </trkpt>
      <trkpt lat="43.343898773193" lon="-7.540470123291">
        <ele>450</ele>
        <time>2019-09-11T07:56:30+00:00</time>
      </trkpt>
      <trkpt lat="43.343898773193" lon="-7.5404834747314">
        <ele>450</ele>
        <time>2019-09-11T07:56:31+00:00</time>
      </trkpt>
      <trkpt lat="43.343894958496" lon="-7.5404949188232">
        <ele>450</ele>
        <time>2019-09-11T07:56:32+00:00</time>
      </trkpt>
      <trkpt lat="43.343898773193" lon="-7.5405049324036">
        <ele>450</ele>
        <time>2019-09-11T07:56:33+00:00</time>
      </trkpt>
      <trkpt lat="43.343894958496" lon="-7.5405149459839">
        <ele>450</ele>
        <time>2019-09-11T07:56:34+00:00</time>
      </trkpt>
      <trkpt lat="43.343894958496" lon="-7.5405249595642">
        <ele>450</ele>
        <time>2019-09-11T07:56:35+00:00</time>
      </trkpt>
      <trkpt lat="43.343894958496" lon="-7.5405368804932">
        <ele>450</ele>
        <time>2019-09-11T07:56:36+00:00</time>
      </trkpt>
      <trkpt lat="43.343894958496" lon="-7.5405502319336">
        <ele>450</ele>
        <time>2019-09-11T07:56:37+00:00</time>
      </trkpt>
      <trkpt lat="43.343894958496" lon="-7.540566444397">
        <ele>450</ele>
        <time>2019-09-11T07:56:38+00:00</time>
      </trkpt>
      <trkpt lat="43.343894958496" lon="-7.5405783653259">
        <ele>450</ele>
        <time>2019-09-11T07:56:39+00:00</time>
      </trkpt>
      <trkpt lat="43.343891143799" lon="-7.5405917167664">
        <ele>450</ele>
        <time>2019-09-11T07:56:40+00:00</time>
      </trkpt>
      <trkpt lat="43.343894958496" lon="-7.5405950546265">
        <ele>450</ele>
        <time>2019-09-11T07:56:41+00:00</time>
      </trkpt>
      <trkpt lat="43.343891143799" lon="-7.540611743927">
        <ele>450</ele>
        <time>2019-09-11T07:56:42+00:00</time>
      </trkpt>
      <trkpt lat="43.343883514404" lon="-7.540629863739">
        <ele>450</ele>
        <time>2019-09-11T07:56:43+00:00</time>
      </trkpt>
      <trkpt lat="43.343872070312" lon="-7.5406532287598">
        <ele>450</ele>
        <time>2019-09-11T07:56:44+00:00</time>
      </trkpt>
      <trkpt lat="43.343868255615" lon="-7.5406684875488">
        <ele>450</ele>
        <time>2019-09-11T07:56:45+00:00</time>
      </trkpt>
      <trkpt lat="43.343868255615" lon="-7.5406799316406">
        <ele>450</ele>
        <time>2019-09-11T07:56:46+00:00</time>
      </trkpt>
      <trkpt lat="43.343872070312" lon="-7.5406818389893">
        <ele>450</ele>
        <time>2019-09-11T07:56:47+00:00</time>
      </trkpt>
      <trkpt lat="43.343872070312" lon="-7.5406885147095">
        <ele>450</ele>
        <time>2019-09-11T07:56:48+00:00</time>
      </trkpt>
      <trkpt lat="43.343872070312" lon="-7.5406999588013">
        <ele>450</ele>
        <time>2019-09-11T07:56:49+00:00</time>
      </trkpt>
      <trkpt lat="43.343868255615" lon="-7.5406985282898">
        <ele>450</ele>
        <time>2019-09-11T07:56:50+00:00</time>
      </trkpt>
      <trkpt lat="43.343868255615" lon="-7.5407032966614">
        <ele>450</ele>
        <time>2019-09-11T07:56:51+00:00</time>
      </trkpt>
      <trkpt lat="43.343864440918" lon="-7.5407133102417">
        <ele>450</ele>
        <time>2019-09-11T07:56:52+00:00</time>
      </trkpt>
      <trkpt lat="43.343856811523" lon="-7.540723323822">
        <ele>451</ele>
        <time>2019-09-11T07:56:53+00:00</time>
      </trkpt>
      <trkpt lat="43.343852996826" lon="-7.5407314300537">
        <ele>451</ele>
        <time>2019-09-11T07:56:54+00:00</time>
      </trkpt>
      <trkpt lat="43.343856811523" lon="-7.5407333374023">
        <ele>451</ele>
        <time>2019-09-11T07:56:55+00:00</time>
      </trkpt>
      <trkpt lat="43.343841552734" lon="-7.5407514572144">
        <ele>451</ele>
        <time>2019-09-11T07:56:56+00:00</time>
      </trkpt>
      <trkpt lat="43.34383392334" lon="-7.5407600402832">
        <ele>451</ele>
        <time>2019-09-11T07:56:57+00:00</time>
      </trkpt>
      <trkpt lat="43.343830108643" lon="-7.5407748222351">
        <ele>451</ele>
        <time>2019-09-11T07:56:58+00:00</time>
      </trkpt>
      <trkpt lat="43.343830108643" lon="-7.540783405304">
        <ele>452</ele>
        <time>2019-09-11T07:56:59+00:00</time>
      </trkpt>
      <trkpt lat="43.343830108643" lon="-7.5407948493958">
        <ele>452</ele>
        <time>2019-09-11T07:57:00+00:00</time>
      </trkpt>
      <trkpt lat="43.34383392334" lon="-7.5408034324646">
        <ele>452</ele>
        <time>2019-09-11T07:57:01+00:00</time>
      </trkpt>
      <trkpt lat="43.343841552734" lon="-7.5408082008362">
        <ele>452</ele>
        <time>2019-09-11T07:57:02+00:00</time>
      </trkpt>
      <trkpt lat="43.343837738037" lon="-7.5408201217651">
        <ele>453</ele>
        <time>2019-09-11T07:57:03+00:00</time>
      </trkpt>
      <trkpt lat="43.343837738037" lon="-7.5408301353455">
        <ele>453</ele>
        <time>2019-09-11T07:57:04+00:00</time>
      </trkpt>
      <trkpt lat="43.34383392334" lon="-7.5408515930176">
        <ele>453</ele>
        <time>2019-09-11T07:57:05+00:00</time>
      </trkpt>
      <trkpt lat="43.343837738037" lon="-7.5408549308777">
        <ele>453</ele>
        <time>2019-09-11T07:57:06+00:00</time>
      </trkpt>
      <trkpt lat="43.343841552734" lon="-7.5408749580383">
        <ele>453</ele>
        <time>2019-09-11T07:57:07+00:00</time>
      </trkpt>
      <trkpt lat="43.343841552734" lon="-7.5409064292908">
        <ele>453</ele>
        <time>2019-09-11T07:57:08+00:00</time>
      </trkpt>
      <trkpt lat="43.343849182129" lon="-7.5409264564514">
        <ele>452</ele>
        <time>2019-09-11T07:57:09+00:00</time>
      </trkpt>
      <trkpt lat="43.343841552734" lon="-7.5409717559814">
        <ele>452</ele>
        <time>2019-09-11T07:57:10+00:00</time>
      </trkpt>
      <trkpt lat="43.343837738037" lon="-7.5409984588623">
        <ele>452</ele>
        <time>2019-09-11T07:57:11+00:00</time>
      </trkpt>
      <trkpt lat="43.34383392334" lon="-7.5410265922546">
        <ele>452</ele>
        <time>2019-09-11T07:57:12+00:00</time>
      </trkpt>
      <trkpt lat="43.343830108643" lon="-7.5410585403442">
        <ele>452</ele>
        <time>2019-09-11T07:57:13+00:00</time>
      </trkpt>
      <trkpt lat="43.34383392334" lon="-7.5410718917847">
        <ele>452</ele>
        <time>2019-09-11T07:57:14+00:00</time>
      </trkpt>
      <trkpt lat="43.343837738037" lon="-7.5410833358765">
        <ele>451</ele>
        <time>2019-09-11T07:57:15+00:00</time>
      </trkpt>
      <trkpt lat="43.343837738037" lon="-7.5410966873169">
        <ele>451</ele>
        <time>2019-09-11T07:57:16+00:00</time>
      </trkpt>
      <trkpt lat="43.34383392334" lon="-7.541118144989">
        <ele>451</ele>
        <time>2019-09-11T07:57:17+00:00</time>
      </trkpt>
      <trkpt lat="43.343830108643" lon="-7.5411381721497">
        <ele>451</ele>
        <time>2019-09-11T07:57:18+00:00</time>
      </trkpt>
      <trkpt lat="43.343826293945" lon="-7.5411548614502">
        <ele>451</ele>
        <time>2019-09-11T07:57:19+00:00</time>
      </trkpt>
      <trkpt lat="43.343822479248" lon="-7.5411701202393">
        <ele>451</ele>
        <time>2019-09-11T07:57:20+00:00</time>
      </trkpt>
      <trkpt lat="43.343814849854" lon="-7.5411868095398">
        <ele>452</ele>
        <time>2019-09-11T07:57:21+00:00</time>
      </trkpt>
      <trkpt lat="43.343811035156" lon="-7.5412101745605">
        <ele>452</ele>
        <time>2019-09-11T07:57:22+00:00</time>
      </trkpt>
      <trkpt lat="43.343807220459" lon="-7.5412249565125">
        <ele>453</ele>
        <time>2019-09-11T07:57:23+00:00</time>
      </trkpt>
      <trkpt lat="43.343803405762" lon="-7.5412402153015">
        <ele>453</ele>
        <time>2019-09-11T07:57:24+00:00</time>
      </trkpt>
      <trkpt lat="43.343803405762" lon="-7.5412549972534">
        <ele>454</ele>
        <time>2019-09-11T07:57:25+00:00</time>
      </trkpt>
      <trkpt lat="43.343803405762" lon="-7.5412697792053">
        <ele>454</ele>
        <time>2019-09-11T07:57:26+00:00</time>
      </trkpt>
      <trkpt lat="43.343799591064" lon="-7.5412864685059">
        <ele>454</ele>
        <time>2019-09-11T07:57:27+00:00</time>
      </trkpt>
      <trkpt lat="43.343795776367" lon="-7.5412998199463">
        <ele>454</ele>
        <time>2019-09-11T07:57:28+00:00</time>
      </trkpt>
      <trkpt lat="43.343795776367" lon="-7.5413150787354">
        <ele>454</ele>
        <time>2019-09-11T07:57:29+00:00</time>
      </trkpt>
      <trkpt lat="43.343795776367" lon="-7.5413284301758">
        <ele>454</ele>
        <time>2019-09-11T07:57:30+00:00</time>
      </trkpt>
      <trkpt lat="43.34379196167" lon="-7.5413417816162">
        <ele>454</ele>
        <time>2019-09-11T07:57:31+00:00</time>
      </trkpt>
      <trkpt lat="43.343788146973" lon="-7.5413551330566">
        <ele>454</ele>
        <time>2019-09-11T07:57:32+00:00</time>
      </trkpt>
      <trkpt lat="43.343788146973" lon="-7.5413699150085">
        <ele>454</ele>
        <time>2019-09-11T07:57:33+00:00</time>
      </trkpt>
      <trkpt lat="43.343784332275" lon="-7.5413851737976">
        <ele>454</ele>
        <time>2019-09-11T07:57:34+00:00</time>
      </trkpt>
      <trkpt lat="43.343780517578" lon="-7.5414032936096">
        <ele>454</ele>
        <time>2019-09-11T07:57:35+00:00</time>
      </trkpt>
      <trkpt lat="43.343776702881" lon="-7.5414233207703">
        <ele>454</ele>
        <time>2019-09-11T07:57:36+00:00</time>
      </trkpt>
      <trkpt lat="43.343769073486" lon="-7.5414414405823">
        <ele>454</ele>
        <time>2019-09-11T07:57:37+00:00</time>
      </trkpt>
      <trkpt lat="43.343765258789" lon="-7.5414514541626">
        <ele>454</ele>
        <time>2019-09-11T07:57:38+00:00</time>
      </trkpt>
      <trkpt lat="43.343765258789" lon="-7.5414633750916">
        <ele>454</ele>
        <time>2019-09-11T07:57:39+00:00</time>
      </trkpt>
      <trkpt lat="43.343765258789" lon="-7.5414733886719">
        <ele>454</ele>
        <time>2019-09-11T07:57:40+00:00</time>
      </trkpt>
      <trkpt lat="43.343753814697" lon="-7.5414900779724">
        <ele>454</ele>
        <time>2019-09-11T07:57:41+00:00</time>
      </trkpt>
      <trkpt lat="43.343753814697" lon="-7.5415067672729">
        <ele>454</ele>
        <time>2019-09-11T07:57:42+00:00</time>
      </trkpt>
      <trkpt lat="43.34375" lon="-7.5415215492249">
        <ele>453</ele>
        <time>2019-09-11T07:57:43+00:00</time>
      </trkpt>
      <trkpt lat="43.34375" lon="-7.5415315628052">
        <ele>453</ele>
        <time>2019-09-11T07:57:44+00:00</time>
      </trkpt>
      <trkpt lat="43.343746185303" lon="-7.5415501594543">
        <ele>453</ele>
        <time>2019-09-11T07:57:45+00:00</time>
      </trkpt>
      <trkpt lat="43.343738555908" lon="-7.5415635108948">
        <ele>453</ele>
        <time>2019-09-11T07:57:46+00:00</time>
      </trkpt>
      <trkpt lat="43.343738555908" lon="-7.5415768623352">
        <ele>453</ele>
        <time>2019-09-11T07:57:47+00:00</time>
      </trkpt>
      <trkpt lat="43.343738555908" lon="-7.5415916442871">
        <ele>453</ele>
        <time>2019-09-11T07:57:48+00:00</time>
      </trkpt>
      <trkpt lat="43.343738555908" lon="-7.5416069030762">
        <ele>453</ele>
        <time>2019-09-11T07:57:49+00:00</time>
      </trkpt>
      <trkpt lat="43.343738555908" lon="-7.5416197776794">
        <ele>453</ele>
        <time>2019-09-11T07:57:50+00:00</time>
      </trkpt>
      <trkpt lat="43.343738555908" lon="-7.5416331291199">
        <ele>453</ele>
        <time>2019-09-11T07:57:51+00:00</time>
      </trkpt>
      <trkpt lat="43.343738555908" lon="-7.5416431427002">
        <ele>453</ele>
        <time>2019-09-11T07:57:52+00:00</time>
      </trkpt>
      <trkpt lat="43.343738555908" lon="-7.5416564941406">
        <ele>453</ele>
        <time>2019-09-11T07:57:53+00:00</time>
      </trkpt>
      <trkpt lat="43.343738555908" lon="-7.5416684150696">
        <ele>453</ele>
        <time>2019-09-11T07:57:54+00:00</time>
      </trkpt>
      <trkpt lat="43.343734741211" lon="-7.54168176651">
        <ele>454</ele>
        <time>2019-09-11T07:57:55+00:00</time>
      </trkpt>
      <trkpt lat="43.343730926514" lon="-7.5416965484619">
        <ele>454</ele>
        <time>2019-09-11T07:57:56+00:00</time>
      </trkpt>
      <trkpt lat="43.343723297119" lon="-7.5417132377625">
        <ele>454</ele>
        <time>2019-09-11T07:57:57+00:00</time>
      </trkpt>
      <trkpt lat="43.343723297119" lon="-7.5417251586914">
        <ele>454</ele>
        <time>2019-09-11T07:57:58+00:00</time>
      </trkpt>
      <trkpt lat="43.343723297119" lon="-7.5417366027832">
        <ele>454</ele>
        <time>2019-09-11T07:57:59+00:00</time>
      </trkpt>
      <trkpt lat="43.343727111816" lon="-7.5417385101318">
        <ele>454</ele>
        <time>2019-09-11T07:58:00+00:00</time>
      </trkpt>
      <trkpt lat="43.343730926514" lon="-7.5417432785034">
        <ele>454</ele>
        <time>2019-09-11T07:58:01+00:00</time>
      </trkpt>
      <trkpt lat="43.343730926514" lon="-7.5417499542236">
        <ele>454</ele>
        <time>2019-09-11T07:58:02+00:00</time>
      </trkpt>
      <trkpt lat="43.343730926514" lon="-7.5417585372925">
        <ele>454</ele>
        <time>2019-09-11T07:58:03+00:00</time>
      </trkpt>
      <trkpt lat="43.343738555908" lon="-7.5417666435242">
        <ele>454</ele>
        <time>2019-09-11T07:58:04+00:00</time>
      </trkpt>
      <trkpt lat="43.343730926514" lon="-7.541775226593">
        <ele>454</ele>
        <time>2019-09-11T07:58:05+00:00</time>
      </trkpt>
      <trkpt lat="43.343711853027" lon="-7.5417833328247">
        <ele>454</ele>
        <time>2019-09-11T07:58:06+00:00</time>
      </trkpt>
      <trkpt lat="43.343715667725" lon="-7.5417914390564">
        <ele>454</ele>
        <time>2019-09-11T07:58:07+00:00</time>
      </trkpt>
      <trkpt lat="43.34370803833" lon="-7.5417947769165">
        <ele>454</ele>
        <time>2019-09-11T07:58:08+00:00</time>
      </trkpt>
      <trkpt lat="43.343700408936" lon="-7.5418033599854">
        <ele>454</ele>
        <time>2019-09-11T07:58:09+00:00</time>
      </trkpt>
      <trkpt lat="43.343696594238" lon="-7.5418100357056">
        <ele>454</ele>
        <time>2019-09-11T07:58:10+00:00</time>
      </trkpt>
      <trkpt lat="43.343692779541" lon="-7.5418214797974">
        <ele>453</ele>
        <time>2019-09-11T07:58:11+00:00</time>
      </trkpt>
      <trkpt lat="43.343688964844" lon="-7.5418448448181">
        <ele>453</ele>
        <time>2019-09-11T07:58:12+00:00</time>
      </trkpt>
      <trkpt lat="43.343677520752" lon="-7.5418634414673">
        <ele>454</ele>
        <time>2019-09-11T07:58:13+00:00</time>
      </trkpt>
      <trkpt lat="43.343669891357" lon="-7.5418848991394">
        <ele>454</ele>
        <time>2019-09-11T07:58:14+00:00</time>
      </trkpt>
      <trkpt lat="43.34366607666" lon="-7.5419049263">
        <ele>454</ele>
        <time>2019-09-11T07:58:15+00:00</time>
      </trkpt>
      <trkpt lat="43.343658447266" lon="-7.5419235229492">
        <ele>454</ele>
        <time>2019-09-11T07:58:16+00:00</time>
      </trkpt>
      <trkpt lat="43.343658447266" lon="-7.5419383049011">
        <ele>454</ele>
        <time>2019-09-11T07:58:17+00:00</time>
      </trkpt>
      <trkpt lat="43.343662261963" lon="-7.5419549942017">
        <ele>454</ele>
        <time>2019-09-11T07:58:18+00:00</time>
      </trkpt>
      <trkpt lat="43.34366607666" lon="-7.5419716835022">
        <ele>454</ele>
        <time>2019-09-11T07:58:19+00:00</time>
      </trkpt>
      <trkpt lat="43.343673706055" lon="-7.5419931411743">
        <ele>455</ele>
        <time>2019-09-11T07:58:20+00:00</time>
      </trkpt>
      <trkpt lat="43.343677520752" lon="-7.542013168335">
        <ele>455</ele>
        <time>2019-09-11T07:58:21+00:00</time>
      </trkpt>
      <trkpt lat="43.343677520752" lon="-7.5420317649841">
        <ele>455</ele>
        <time>2019-09-11T07:58:22+00:00</time>
      </trkpt>
      <trkpt lat="43.343677520752" lon="-7.5420484542847">
        <ele>455</ele>
        <time>2019-09-11T07:58:23+00:00</time>
      </trkpt>
      <trkpt lat="43.343685150146" lon="-7.5420684814453">
        <ele>455</ele>
        <time>2019-09-11T07:58:24+00:00</time>
      </trkpt>
      <trkpt lat="43.343688964844" lon="-7.5420866012573">
        <ele>455</ele>
        <time>2019-09-11T07:58:25+00:00</time>
      </trkpt>
      <trkpt lat="43.343692779541" lon="-7.5421051979065">
        <ele>456</ele>
        <time>2019-09-11T07:58:26+00:00</time>
      </trkpt>
      <trkpt lat="43.343696594238" lon="-7.5421319007874">
        <ele>456</ele>
        <time>2019-09-11T07:58:27+00:00</time>
      </trkpt>
      <trkpt lat="43.343704223633" lon="-7.5421533584595">
        <ele>456</ele>
        <time>2019-09-11T07:58:28+00:00</time>
      </trkpt>
      <trkpt lat="43.343711853027" lon="-7.54217004776">
        <ele>456</ele>
        <time>2019-09-11T07:58:29+00:00</time>
      </trkpt>
      <trkpt lat="43.34370803833" lon="-7.5421867370605">
        <ele>456</ele>
        <time>2019-09-11T07:58:30+00:00</time>
      </trkpt>
      <trkpt lat="43.343700408936" lon="-7.5422048568726">
        <ele>457</ele>
        <time>2019-09-11T07:58:31+00:00</time>
      </trkpt>
      <trkpt lat="43.343673706055" lon="-7.5422215461731">
        <ele>457</ele>
        <time>2019-09-11T07:58:32+00:00</time>
      </trkpt>
      <trkpt lat="43.343658447266" lon="-7.5422401428223">
        <ele>457</ele>
        <time>2019-09-11T07:58:33+00:00</time>
      </trkpt>
      <trkpt lat="43.343647003174" lon="-7.5422601699829">
        <ele>457</ele>
        <time>2019-09-11T07:58:34+00:00</time>
      </trkpt>
      <trkpt lat="43.343647003174" lon="-7.5422768592834">
        <ele>458</ele>
        <time>2019-09-11T07:58:35+00:00</time>
      </trkpt>
      <trkpt lat="43.343643188477" lon="-7.5422902107239">
        <ele>458</ele>
        <time>2019-09-11T07:58:36+00:00</time>
      </trkpt>
      <trkpt lat="43.343658447266" lon="-7.5423049926758">
        <ele>458</ele>
        <time>2019-09-11T07:58:37+00:00</time>
      </trkpt>
      <trkpt lat="43.343658447266" lon="-7.5423264503479">
        <ele>459</ele>
        <time>2019-09-11T07:58:38+00:00</time>
      </trkpt>
      <trkpt lat="43.343662261963" lon="-7.5423398017883">
        <ele>459</ele>
        <time>2019-09-11T07:58:39+00:00</time>
      </trkpt>
      <trkpt lat="43.343662261963" lon="-7.5423583984375">
        <ele>459</ele>
        <time>2019-09-11T07:58:40+00:00</time>
      </trkpt>
      <trkpt lat="43.343658447266" lon="-7.5423731803894">
        <ele>460</ele>
        <time>2019-09-11T07:58:41+00:00</time>
      </trkpt>
      <trkpt lat="43.343662261963" lon="-7.5423884391785">
        <ele>460</ele>
        <time>2019-09-11T07:58:42+00:00</time>
      </trkpt>
      <trkpt lat="43.343669891357" lon="-7.5424084663391">
        <ele>460</ele>
        <time>2019-09-11T07:58:43+00:00</time>
      </trkpt>
      <trkpt lat="43.343677520752" lon="-7.5424251556396">
        <ele>461</ele>
        <time>2019-09-11T07:58:44+00:00</time>
      </trkpt>
      <trkpt lat="43.343692779541" lon="-7.5424399375916">
        <ele>461</ele>
        <time>2019-09-11T07:58:45+00:00</time>
      </trkpt>
      <trkpt lat="43.343696594238" lon="-7.5424551963806">
        <ele>461</ele>
        <time>2019-09-11T07:58:46+00:00</time>
      </trkpt>
      <trkpt lat="43.343692779541" lon="-7.5424766540527">
        <ele>461</ele>
        <time>2019-09-11T07:58:47+00:00</time>
      </trkpt>
      <trkpt lat="43.343688964844" lon="-7.5424947738647">
        <ele>462</ele>
        <time>2019-09-11T07:58:48+00:00</time>
      </trkpt>
      <trkpt lat="43.343677520752" lon="-7.5425181388855">
        <ele>462</ele>
        <time>2019-09-11T07:58:49+00:00</time>
      </trkpt>
      <trkpt lat="43.343677520752" lon="-7.542534828186">
        <ele>462</ele>
        <time>2019-09-11T07:58:50+00:00</time>
      </trkpt>
      <trkpt lat="43.343677520752" lon="-7.5425548553467">
        <ele>463</ele>
        <time>2019-09-11T07:58:51+00:00</time>
      </trkpt>
      <trkpt lat="43.343669891357" lon="-7.5425734519958">
        <ele>463</ele>
        <time>2019-09-11T07:58:52+00:00</time>
      </trkpt>
      <trkpt lat="43.343677520752" lon="-7.5425848960876">
        <ele>463</ele>
        <time>2019-09-11T07:58:53+00:00</time>
      </trkpt>
      <trkpt lat="43.343692779541" lon="-7.5425982475281">
        <ele>464</ele>
        <time>2019-09-11T07:58:54+00:00</time>
      </trkpt>
      <trkpt lat="43.343696594238" lon="-7.542610168457">
        <ele>464</ele>
        <time>2019-09-11T07:58:55+00:00</time>
      </trkpt>
      <trkpt lat="43.343704223633" lon="-7.5426235198975">
        <ele>464</ele>
        <time>2019-09-11T07:58:56+00:00</time>
      </trkpt>
      <trkpt lat="43.343704223633" lon="-7.5426349639893">
        <ele>464</ele>
        <time>2019-09-11T07:58:57+00:00</time>
      </trkpt>
      <trkpt lat="43.34370803833" lon="-7.5426449775696">
        <ele>464</ele>
        <time>2019-09-11T07:58:58+00:00</time>
      </trkpt>
      <trkpt lat="43.343715667725" lon="-7.5426516532898">
        <ele>464</ele>
        <time>2019-09-11T07:58:59+00:00</time>
      </trkpt>
      <trkpt lat="43.343734741211" lon="-7.5426731109619">
        <ele>464</ele>
        <time>2019-09-11T07:59:00+00:00</time>
      </trkpt>
      <trkpt lat="43.34375" lon="-7.5426850318909">
        <ele>465</ele>
        <time>2019-09-11T07:59:01+00:00</time>
      </trkpt>
      <trkpt lat="43.343757629395" lon="-7.5426983833313">
        <ele>465</ele>
        <time>2019-09-11T07:59:02+00:00</time>
      </trkpt>
      <trkpt lat="43.343769073486" lon="-7.5427117347717">
        <ele>465</ele>
        <time>2019-09-11T07:59:03+00:00</time>
      </trkpt>
      <trkpt lat="43.343776702881" lon="-7.5427265167236">
        <ele>465</ele>
        <time>2019-09-11T07:59:04+00:00</time>
      </trkpt>
      <trkpt lat="43.343772888184" lon="-7.5427498817444">
        <ele>466</ele>
        <time>2019-09-11T07:59:05+00:00</time>
      </trkpt>
      <trkpt lat="43.343772888184" lon="-7.5427732467651">
        <ele>466</ele>
        <time>2019-09-11T07:59:06+00:00</time>
      </trkpt>
      <trkpt lat="43.343776702881" lon="-7.5427885055542">
        <ele>466</ele>
        <time>2019-09-11T07:59:07+00:00</time>
      </trkpt>
      <trkpt lat="43.343780517578" lon="-7.5428051948547">
        <ele>466</ele>
        <time>2019-09-11T07:59:08+00:00</time>
      </trkpt>
      <trkpt lat="43.343784332275" lon="-7.5428152084351">
        <ele>466</ele>
        <time>2019-09-11T07:59:09+00:00</time>
      </trkpt>
      <trkpt lat="43.34379196167" lon="-7.5428166389465">
        <ele>467</ele>
        <time>2019-09-11T07:59:10+00:00</time>
      </trkpt>
      <trkpt lat="43.343799591064" lon="-7.5428252220154">
        <ele>467</ele>
        <time>2019-09-11T07:59:11+00:00</time>
      </trkpt>
      <trkpt lat="43.343811035156" lon="-7.5428333282471">
        <ele>467</ele>
        <time>2019-09-11T07:59:12+00:00</time>
      </trkpt>
      <trkpt lat="43.343807220459" lon="-7.542848110199">
        <ele>467</ele>
        <time>2019-09-11T07:59:13+00:00</time>
      </trkpt>
      <trkpt lat="43.343807220459" lon="-7.5428667068481">
        <ele>467</ele>
        <time>2019-09-11T07:59:14+00:00</time>
      </trkpt>
      <trkpt lat="43.343811035156" lon="-7.5428814888">
        <ele>467</ele>
        <time>2019-09-11T07:59:15+00:00</time>
      </trkpt>
      <trkpt lat="43.343803405762" lon="-7.5428981781006">
        <ele>467</ele>
        <time>2019-09-11T07:59:16+00:00</time>
      </trkpt>
      <trkpt lat="43.343795776367" lon="-7.5429148674011">
        <ele>467</ele>
        <time>2019-09-11T07:59:17+00:00</time>
      </trkpt>
      <trkpt lat="43.34379196167" lon="-7.5429334640503">
        <ele>467</ele>
        <time>2019-09-11T07:59:18+00:00</time>
      </trkpt>
      <trkpt lat="43.343788146973" lon="-7.5429515838623">
        <ele>467</ele>
        <time>2019-09-11T07:59:19+00:00</time>
      </trkpt>
      <trkpt lat="43.343788146973" lon="-7.5429649353027">
        <ele>467</ele>
        <time>2019-09-11T07:59:20+00:00</time>
      </trkpt>
      <trkpt lat="43.343776702881" lon="-7.5429801940918">
        <ele>467</ele>
        <time>2019-09-11T07:59:21+00:00</time>
      </trkpt>
      <trkpt lat="43.343765258789" lon="-7.5429949760437">
        <ele>467</ele>
        <time>2019-09-11T07:59:22+00:00</time>
      </trkpt>
      <trkpt lat="43.343753814697" lon="-7.5430068969727">
        <ele>467</ele>
        <time>2019-09-11T07:59:23+00:00</time>
      </trkpt>
      <trkpt lat="43.343746185303" lon="-7.5430164337158">
        <ele>467</ele>
        <time>2019-09-11T07:59:24+00:00</time>
      </trkpt>
      <trkpt lat="43.343727111816" lon="-7.5430297851562">
        <ele>467</ele>
        <time>2019-09-11T07:59:25+00:00</time>
      </trkpt>
      <trkpt lat="43.343715667725" lon="-7.5430417060852">
        <ele>467</ele>
        <time>2019-09-11T07:59:26+00:00</time>
      </trkpt>
      <trkpt lat="43.343700408936" lon="-7.5430583953857">
        <ele>467</ele>
        <time>2019-09-11T07:59:27+00:00</time>
      </trkpt>
      <trkpt lat="43.343692779541" lon="-7.5430684089661">
        <ele>467</ele>
        <time>2019-09-11T07:59:28+00:00</time>
      </trkpt>
      <trkpt lat="43.343681335449" lon="-7.5430750846863">
        <ele>467</ele>
        <time>2019-09-11T07:59:29+00:00</time>
      </trkpt>
      <trkpt lat="43.343673706055" lon="-7.5430765151978">
        <ele>467</ele>
        <time>2019-09-11T07:59:30+00:00</time>
      </trkpt>
      <trkpt lat="43.343662261963" lon="-7.5430798530579">
        <ele>468</ele>
        <time>2019-09-11T07:59:31+00:00</time>
      </trkpt>
      <trkpt lat="43.343650817871" lon="-7.543083190918">
        <ele>468</ele>
        <time>2019-09-11T07:59:32+00:00</time>
      </trkpt>
      <trkpt lat="43.343631744385" lon="-7.5430951118469">
        <ele>468</ele>
        <time>2019-09-11T07:59:33+00:00</time>
      </trkpt>
      <trkpt lat="43.343620300293" lon="-7.5431051254272">
        <ele>468</ele>
        <time>2019-09-11T07:59:34+00:00</time>
      </trkpt>
      <trkpt lat="43.343608856201" lon="-7.543116569519">
        <ele>468</ele>
        <time>2019-09-11T07:59:35+00:00</time>
      </trkpt>
      <trkpt lat="43.343601226807" lon="-7.543128490448">
        <ele>468</ele>
        <time>2019-09-11T07:59:36+00:00</time>
      </trkpt>
      <trkpt lat="43.343589782715" lon="-7.5431385040283">
        <ele>467</ele>
        <time>2019-09-11T07:59:37+00:00</time>
      </trkpt>
      <trkpt lat="43.343578338623" lon="-7.5431499481201">
        <ele>467</ele>
        <time>2019-09-11T07:59:38+00:00</time>
      </trkpt>
      <trkpt lat="43.343570709229" lon="-7.5431566238403">
        <ele>466</ele>
        <time>2019-09-11T07:59:39+00:00</time>
      </trkpt>
      <trkpt lat="43.343563079834" lon="-7.5431652069092">
        <ele>466</ele>
        <time>2019-09-11T07:59:40+00:00</time>
      </trkpt>
      <trkpt lat="43.343555450439" lon="-7.5431752204895">
        <ele>465</ele>
        <time>2019-09-11T07:59:41+00:00</time>
      </trkpt>
      <trkpt lat="43.343547821045" lon="-7.5431799888611">
        <ele>465</ele>
        <time>2019-09-11T07:59:42+00:00</time>
      </trkpt>
      <trkpt lat="43.343536376953" lon="-7.5431852340698">
        <ele>464</ele>
        <time>2019-09-11T07:59:43+00:00</time>
      </trkpt>
      <trkpt lat="43.343528747559" lon="-7.5431933403015">
        <ele>464</ele>
        <time>2019-09-11T07:59:44+00:00</time>
      </trkpt>
      <trkpt lat="43.343521118164" lon="-7.5432033538818">
        <ele>464</ele>
        <time>2019-09-11T07:59:45+00:00</time>
      </trkpt>
      <trkpt lat="43.34351348877" lon="-7.5432167053223">
        <ele>464</ele>
        <time>2019-09-11T07:59:46+00:00</time>
      </trkpt>
      <trkpt lat="43.343502044678" lon="-7.5432281494141">
        <ele>464</ele>
        <time>2019-09-11T07:59:47+00:00</time>
      </trkpt>
      <trkpt lat="43.343494415283" lon="-7.543240070343">
        <ele>463</ele>
        <time>2019-09-11T07:59:48+00:00</time>
      </trkpt>
      <trkpt lat="43.343482971191" lon="-7.5432500839233">
        <ele>463</ele>
        <time>2019-09-11T07:59:49+00:00</time>
      </trkpt>
      <trkpt lat="43.3434715271" lon="-7.5432567596436">
        <ele>463</ele>
        <time>2019-09-11T07:59:50+00:00</time>
      </trkpt>
      <trkpt lat="43.343463897705" lon="-7.5432667732239">
        <ele>462</ele>
        <time>2019-09-11T07:59:51+00:00</time>
      </trkpt>
      <trkpt lat="43.343460083008" lon="-7.5432767868042">
        <ele>462</ele>
        <time>2019-09-11T07:59:52+00:00</time>
      </trkpt>
      <trkpt lat="43.343444824219" lon="-7.5432901382446">
        <ele>462</ele>
        <time>2019-09-11T07:59:53+00:00</time>
      </trkpt>
      <trkpt lat="43.343437194824" lon="-7.5433049201965">
        <ele>461</ele>
        <time>2019-09-11T07:59:54+00:00</time>
      </trkpt>
      <trkpt lat="43.34342956543" lon="-7.543318271637">
        <ele>461</ele>
        <time>2019-09-11T07:59:55+00:00</time>
      </trkpt>
      <trkpt lat="43.343418121338" lon="-7.5433268547058">
        <ele>461</ele>
        <time>2019-09-11T07:59:56+00:00</time>
      </trkpt>
      <trkpt lat="43.343410491943" lon="-7.5433349609375">
        <ele>461</ele>
        <time>2019-09-11T07:59:57+00:00</time>
      </trkpt>
      <trkpt lat="43.343402862549" lon="-7.5433416366577">
        <ele>461</ele>
        <time>2019-09-11T07:59:58+00:00</time>
      </trkpt>
      <trkpt lat="43.343395233154" lon="-7.543351650238">
        <ele>461</ele>
        <time>2019-09-11T07:59:59+00:00</time>
      </trkpt>
      <trkpt lat="43.343391418457" lon="-7.5433568954468">
        <ele>460</ele>
        <time>2019-09-11T08:00:00+00:00</time>
      </trkpt>
      <trkpt lat="43.343383789062" lon="-7.5433664321899">
        <ele>460</ele>
        <time>2019-09-11T08:00:01+00:00</time>
      </trkpt>
      <trkpt lat="43.343379974365" lon="-7.543381690979">
        <ele>460</ele>
        <time>2019-09-11T08:00:02+00:00</time>
      </trkpt>
      <trkpt lat="43.343372344971" lon="-7.5433850288391">
        <ele>460</ele>
        <time>2019-09-11T08:00:03+00:00</time>
      </trkpt>
      <trkpt lat="43.343368530273" lon="-7.5433931350708">
        <ele>459</ele>
        <time>2019-09-11T08:00:04+00:00</time>
      </trkpt>
      <trkpt lat="43.343372344971" lon="-7.5434031486511">
        <ele>459</ele>
        <time>2019-09-11T08:00:05+00:00</time>
      </trkpt>
      <trkpt lat="43.343372344971" lon="-7.54341173172">
        <ele>459</ele>
        <time>2019-09-11T08:00:06+00:00</time>
      </trkpt>
      <trkpt lat="43.343376159668" lon="-7.5434165000916">
        <ele>459</ele>
        <time>2019-09-11T08:00:07+00:00</time>
      </trkpt>
      <trkpt lat="43.343376159668" lon="-7.5434265136719">
        <ele>459</ele>
        <time>2019-09-11T08:00:08+00:00</time>
      </trkpt>
      <trkpt lat="43.343376159668" lon="-7.5434384346008">
        <ele>458</ele>
        <time>2019-09-11T08:00:09+00:00</time>
      </trkpt>
      <trkpt lat="43.343376159668" lon="-7.5434617996216">
        <ele>459</ele>
        <time>2019-09-11T08:00:10+00:00</time>
      </trkpt>
      <trkpt lat="43.343376159668" lon="-7.5434799194336">
        <ele>459</ele>
        <time>2019-09-11T08:00:11+00:00</time>
      </trkpt>
      <trkpt lat="43.343376159668" lon="-7.5434966087341">
        <ele>459</ele>
        <time>2019-09-11T08:00:12+00:00</time>
      </trkpt>
      <trkpt lat="43.343376159668" lon="-7.5435085296631">
        <ele>459</ele>
        <time>2019-09-11T08:00:13+00:00</time>
      </trkpt>
      <trkpt lat="43.343376159668" lon="-7.5435199737549">
        <ele>459</ele>
        <time>2019-09-11T08:00:14+00:00</time>
      </trkpt>
      <trkpt lat="43.343376159668" lon="-7.5435299873352">
        <ele>459</ele>
        <time>2019-09-11T08:00:15+00:00</time>
      </trkpt>
      <trkpt lat="43.343379974365" lon="-7.5435447692871">
        <ele>460</ele>
        <time>2019-09-11T08:00:16+00:00</time>
      </trkpt>
      <trkpt lat="43.343379974365" lon="-7.5435614585876">
        <ele>460</ele>
        <time>2019-09-11T08:00:17+00:00</time>
      </trkpt>
      <trkpt lat="43.343379974365" lon="-7.5435781478882">
        <ele>460</ele>
        <time>2019-09-11T08:00:18+00:00</time>
      </trkpt>
      <trkpt lat="43.343379974365" lon="-7.5435914993286">
        <ele>460</ele>
        <time>2019-09-11T08:00:19+00:00</time>
      </trkpt>
      <trkpt lat="43.343383789062" lon="-7.5436067581177">
        <ele>460</ele>
        <time>2019-09-11T08:00:20+00:00</time>
      </trkpt>
      <trkpt lat="43.34338760376" lon="-7.5436234474182">
        <ele>460</ele>
        <time>2019-09-11T08:00:21+00:00</time>
      </trkpt>
      <trkpt lat="43.34338760376" lon="-7.5436367988586">
        <ele>460</ele>
        <time>2019-09-11T08:00:22+00:00</time>
      </trkpt>
      <trkpt lat="43.343395233154" lon="-7.5436501502991">
        <ele>460</ele>
        <time>2019-09-11T08:00:23+00:00</time>
      </trkpt>
      <trkpt lat="43.343395233154" lon="-7.543664932251">
        <ele>460</ele>
        <time>2019-09-11T08:00:24+00:00</time>
      </trkpt>
      <trkpt lat="43.343395233154" lon="-7.5436835289001">
        <ele>460</ele>
        <time>2019-09-11T08:00:25+00:00</time>
      </trkpt>
      <trkpt lat="43.343395233154" lon="-7.5437002182007">
        <ele>460</ele>
        <time>2019-09-11T08:00:26+00:00</time>
      </trkpt>
      <trkpt lat="43.343395233154" lon="-7.5437135696411">
        <ele>460</ele>
        <time>2019-09-11T08:00:27+00:00</time>
      </trkpt>
      <trkpt lat="43.343402862549" lon="-7.5437250137329">
        <ele>460</ele>
        <time>2019-09-11T08:00:28+00:00</time>
      </trkpt>
      <trkpt lat="43.343402862549" lon="-7.5437397956848">
        <ele>460</ele>
        <time>2019-09-11T08:00:29+00:00</time>
      </trkpt>
      <trkpt lat="43.343406677246" lon="-7.5437498092651">
        <ele>460</ele>
        <time>2019-09-11T08:00:30+00:00</time>
      </trkpt>
      <trkpt lat="43.343414306641" lon="-7.5437664985657">
        <ele>460</ele>
        <time>2019-09-11T08:00:31+00:00</time>
      </trkpt>
      <trkpt lat="43.343421936035" lon="-7.5437831878662">
        <ele>461</ele>
        <time>2019-09-11T08:00:32+00:00</time>
      </trkpt>
      <trkpt lat="43.34342956543" lon="-7.5437984466553">
        <ele>461</ele>
        <time>2019-09-11T08:00:33+00:00</time>
      </trkpt>
      <trkpt lat="43.343433380127" lon="-7.5438117980957">
        <ele>461</ele>
        <time>2019-09-11T08:00:34+00:00</time>
      </trkpt>
      <trkpt lat="43.343441009521" lon="-7.5438232421875">
        <ele>461</ele>
        <time>2019-09-11T08:00:35+00:00</time>
      </trkpt>
      <trkpt lat="43.343448638916" lon="-7.5438365936279">
        <ele>461</ele>
        <time>2019-09-11T08:00:36+00:00</time>
      </trkpt>
      <trkpt lat="43.343452453613" lon="-7.5438485145569">
        <ele>461</ele>
        <time>2019-09-11T08:00:37+00:00</time>
      </trkpt>
      <trkpt lat="43.343448638916" lon="-7.5438618659973">
        <ele>461</ele>
        <time>2019-09-11T08:00:38+00:00</time>
      </trkpt>
      <trkpt lat="43.343444824219" lon="-7.5438799858093">
        <ele>461</ele>
        <time>2019-09-11T08:00:39+00:00</time>
      </trkpt>
      <trkpt lat="43.343444824219" lon="-7.5438914299011">
        <ele>461</ele>
        <time>2019-09-11T08:00:40+00:00</time>
      </trkpt>
      <trkpt lat="43.343448638916" lon="-7.5439014434814">
        <ele>461</ele>
        <time>2019-09-11T08:00:41+00:00</time>
      </trkpt>
      <trkpt lat="43.343456268311" lon="-7.5439100265503">
        <ele>461</ele>
        <time>2019-09-11T08:00:42+00:00</time>
      </trkpt>
      <trkpt lat="43.343460083008" lon="-7.5439214706421">
        <ele>461</ele>
        <time>2019-09-11T08:00:43+00:00</time>
      </trkpt>
      <trkpt lat="43.343460083008" lon="-7.5439367294312">
        <ele>461</ele>
        <time>2019-09-11T08:00:44+00:00</time>
      </trkpt>
      <trkpt lat="43.343463897705" lon="-7.5439481735229">
        <ele>462</ele>
        <time>2019-09-11T08:00:45+00:00</time>
      </trkpt>
      <trkpt lat="43.343463897705" lon="-7.5439615249634">
        <ele>462</ele>
        <time>2019-09-11T08:00:46+00:00</time>
      </trkpt>
      <trkpt lat="43.343463897705" lon="-7.5439734458923">
        <ele>462</ele>
        <time>2019-09-11T08:00:47+00:00</time>
      </trkpt>
      <trkpt lat="43.343467712402" lon="-7.5439848899841">
        <ele>462</ele>
        <time>2019-09-11T08:00:48+00:00</time>
      </trkpt>
      <trkpt lat="43.3434715271" lon="-7.5439982414246">
        <ele>462</ele>
        <time>2019-09-11T08:00:49+00:00</time>
      </trkpt>
      <trkpt lat="43.343475341797" lon="-7.5440168380737">
        <ele>462</ele>
        <time>2019-09-11T08:00:50+00:00</time>
      </trkpt>
      <trkpt lat="43.343475341797" lon="-7.5440335273743">
        <ele>462</ele>
        <time>2019-09-11T08:00:51+00:00</time>
      </trkpt>
      <trkpt lat="43.343479156494" lon="-7.5440502166748">
        <ele>462</ele>
        <time>2019-09-11T08:00:52+00:00</time>
      </trkpt>
      <trkpt lat="43.343479156494" lon="-7.5440664291382">
        <ele>462</ele>
        <time>2019-09-11T08:00:53+00:00</time>
      </trkpt>
      <trkpt lat="43.343486785889" lon="-7.5440816879272">
        <ele>462</ele>
        <time>2019-09-11T08:00:54+00:00</time>
      </trkpt>
      <trkpt lat="43.343486785889" lon="-7.5441017150879">
        <ele>462</ele>
        <time>2019-09-11T08:00:55+00:00</time>
      </trkpt>
      <trkpt lat="43.343490600586" lon="-7.5441184043884">
        <ele>462</ele>
        <time>2019-09-11T08:00:56+00:00</time>
      </trkpt>
      <trkpt lat="43.343490600586" lon="-7.5441398620605">
        <ele>462</ele>
        <time>2019-09-11T08:00:57+00:00</time>
      </trkpt>
      <trkpt lat="43.343494415283" lon="-7.544153213501">
        <ele>462</ele>
        <time>2019-09-11T08:00:58+00:00</time>
      </trkpt>
      <trkpt lat="43.343502044678" lon="-7.54416847229">
        <ele>462</ele>
        <time>2019-09-11T08:00:59+00:00</time>
      </trkpt>
      <trkpt lat="43.343505859375" lon="-7.5441851615906">
        <ele>462</ele>
        <time>2019-09-11T08:01:00+00:00</time>
      </trkpt>
      <trkpt lat="43.343509674072" lon="-7.5441999435425">
        <ele>462</ele>
        <time>2019-09-11T08:01:01+00:00</time>
      </trkpt>
      <trkpt lat="43.343509674072" lon="-7.544216632843">
        <ele>462</ele>
        <time>2019-09-11T08:01:02+00:00</time>
      </trkpt>
      <trkpt lat="43.343517303467" lon="-7.544228553772">
        <ele>462</ele>
        <time>2019-09-11T08:01:03+00:00</time>
      </trkpt>
      <trkpt lat="43.343524932861" lon="-7.5442414283752">
        <ele>462</ele>
        <time>2019-09-11T08:01:04+00:00</time>
      </trkpt>
      <trkpt lat="43.343536376953" lon="-7.5442566871643">
        <ele>462</ele>
        <time>2019-09-11T08:01:05+00:00</time>
      </trkpt>
      <trkpt lat="43.343544006348" lon="-7.5442700386047">
        <ele>462</ele>
        <time>2019-09-11T08:01:06+00:00</time>
      </trkpt>
      <trkpt lat="43.343551635742" lon="-7.5442833900452">
        <ele>462</ele>
        <time>2019-09-11T08:01:07+00:00</time>
      </trkpt>
      <trkpt lat="43.343555450439" lon="-7.5442967414856">
        <ele>462</ele>
        <time>2019-09-11T08:01:08+00:00</time>
      </trkpt>
      <trkpt lat="43.34354019165" lon="-7.5443115234375">
        <ele>462</ele>
        <time>2019-09-11T08:01:09+00:00</time>
      </trkpt>
      <trkpt lat="43.343524932861" lon="-7.5443267822266">
        <ele>462</ele>
        <time>2019-09-11T08:01:10+00:00</time>
      </trkpt>
      <trkpt lat="43.343524932861" lon="-7.5443449020386">
        <ele>462</ele>
        <time>2019-09-11T08:01:11+00:00</time>
      </trkpt>
      <trkpt lat="43.343524932861" lon="-7.5443601608276">
        <ele>462</ele>
        <time>2019-09-11T08:01:12+00:00</time>
      </trkpt>
      <trkpt lat="43.343521118164" lon="-7.5443782806396">
        <ele>463</ele>
        <time>2019-09-11T08:01:13+00:00</time>
      </trkpt>
      <trkpt lat="43.343524932861" lon="-7.5443949699402">
        <ele>463</ele>
        <time>2019-09-11T08:01:14+00:00</time>
      </trkpt>
      <trkpt lat="43.343521118164" lon="-7.5444102287292">
        <ele>463</ele>
        <time>2019-09-11T08:01:15+00:00</time>
      </trkpt>
      <trkpt lat="43.343490600586" lon="-7.5444250106812">
        <ele>463</ele>
        <time>2019-09-11T08:01:16+00:00</time>
      </trkpt>
      <trkpt lat="43.343475341797" lon="-7.5444416999817">
        <ele>463</ele>
        <time>2019-09-11T08:01:17+00:00</time>
      </trkpt>
      <trkpt lat="43.3434715271" lon="-7.5444564819336">
        <ele>463</ele>
        <time>2019-09-11T08:01:18+00:00</time>
      </trkpt>
      <trkpt lat="43.343460083008" lon="-7.5444731712341">
        <ele>463</ele>
        <time>2019-09-11T08:01:19+00:00</time>
      </trkpt>
      <trkpt lat="43.343456268311" lon="-7.5444898605347">
        <ele>463</ele>
        <time>2019-09-11T08:01:20+00:00</time>
      </trkpt>
      <trkpt lat="43.343460083008" lon="-7.5445032119751">
        <ele>463</ele>
        <time>2019-09-11T08:01:21+00:00</time>
      </trkpt>
      <trkpt lat="43.3434715271" lon="-7.5445165634155">
        <ele>463</ele>
        <time>2019-09-11T08:01:22+00:00</time>
      </trkpt>
      <trkpt lat="43.343486785889" lon="-7.5445318222046">
        <ele>463</ele>
        <time>2019-09-11T08:01:23+00:00</time>
      </trkpt>
      <trkpt lat="43.343490600586" lon="-7.5445466041565">
        <ele>463</ele>
        <time>2019-09-11T08:01:24+00:00</time>
      </trkpt>
      <trkpt lat="43.343482971191" lon="-7.5445652008057">
        <ele>463</ele>
        <time>2019-09-11T08:01:25+00:00</time>
      </trkpt>
      <trkpt lat="43.3434715271" lon="-7.5445785522461">
        <ele>462</ele>
        <time>2019-09-11T08:01:26+00:00</time>
      </trkpt>
      <trkpt lat="43.343479156494" lon="-7.5445885658264">
        <ele>462</ele>
        <time>2019-09-11T08:01:27+00:00</time>
      </trkpt>
      <trkpt lat="43.343475341797" lon="-7.5446014404297">
        <ele>462</ele>
        <time>2019-09-11T08:01:28+00:00</time>
      </trkpt>
      <trkpt lat="43.343482971191" lon="-7.54461145401">
        <ele>462</ele>
        <time>2019-09-11T08:01:29+00:00</time>
      </trkpt>
      <trkpt lat="43.343494415283" lon="-7.5446166992188">
        <ele>462</ele>
        <time>2019-09-11T08:01:30+00:00</time>
      </trkpt>
      <trkpt lat="43.34349822998" lon="-7.5446267127991">
        <ele>462</ele>
        <time>2019-09-11T08:01:31+00:00</time>
      </trkpt>
      <trkpt lat="43.343502044678" lon="-7.5446314811707">
        <ele>462</ele>
        <time>2019-09-11T08:01:32+00:00</time>
      </trkpt>
      <trkpt lat="43.34349822998" lon="-7.5446400642395">
        <ele>462</ele>
        <time>2019-09-11T08:01:33+00:00</time>
      </trkpt>
      <trkpt lat="43.343494415283" lon="-7.5446448326111">
        <ele>462</ele>
        <time>2019-09-11T08:01:34+00:00</time>
      </trkpt>
      <trkpt lat="43.343490600586" lon="-7.5446548461914">
        <ele>462</ele>
        <time>2019-09-11T08:01:35+00:00</time>
      </trkpt>
      <trkpt lat="43.343494415283" lon="-7.54465675354">
        <ele>462</ele>
        <time>2019-09-11T08:01:36+00:00</time>
      </trkpt>
      <trkpt lat="43.343502044678" lon="-7.5446667671204">
        <ele>462</ele>
        <time>2019-09-11T08:01:37+00:00</time>
      </trkpt>
      <trkpt lat="43.34351348877" lon="-7.5446834564209">
        <ele>462</ele>
        <time>2019-09-11T08:01:38+00:00</time>
      </trkpt>
      <trkpt lat="43.343524932861" lon="-7.5446934700012">
        <ele>462</ele>
        <time>2019-09-11T08:01:39+00:00</time>
      </trkpt>
      <trkpt lat="43.343528747559" lon="-7.544704914093">
        <ele>462</ele>
        <time>2019-09-11T08:01:40+00:00</time>
      </trkpt>
      <trkpt lat="43.343544006348" lon="-7.5447216033936">
        <ele>462</ele>
        <time>2019-09-11T08:01:41+00:00</time>
      </trkpt>
      <trkpt lat="43.343555450439" lon="-7.5447402000427">
        <ele>462</ele>
        <time>2019-09-11T08:01:42+00:00</time>
      </trkpt>
      <trkpt lat="43.343566894531" lon="-7.5447468757629">
        <ele>462</ele>
        <time>2019-09-11T08:01:43+00:00</time>
      </trkpt>
      <trkpt lat="43.343578338623" lon="-7.544764995575">
        <ele>462</ele>
        <time>2019-09-11T08:01:44+00:00</time>
      </trkpt>
      <trkpt lat="43.343585968018" lon="-7.544783115387">
        <ele>462</ele>
        <time>2019-09-11T08:01:45+00:00</time>
      </trkpt>
      <trkpt lat="43.343589782715" lon="-7.5447950363159">
        <ele>462</ele>
        <time>2019-09-11T08:01:46+00:00</time>
      </trkpt>
      <trkpt lat="43.343601226807" lon="-7.5448117256165">
        <ele>462</ele>
        <time>2019-09-11T08:01:47+00:00</time>
      </trkpt>
      <trkpt lat="43.343605041504" lon="-7.5448250770569">
        <ele>462</ele>
        <time>2019-09-11T08:01:48+00:00</time>
      </trkpt>
      <trkpt lat="43.343608856201" lon="-7.5448431968689">
        <ele>462</ele>
        <time>2019-09-11T08:01:49+00:00</time>
      </trkpt>
      <trkpt lat="43.343608856201" lon="-7.5448565483093">
        <ele>461</ele>
        <time>2019-09-11T08:01:50+00:00</time>
      </trkpt>
      <trkpt lat="43.343608856201" lon="-7.5448718070984">
        <ele>461</ele>
        <time>2019-09-11T08:01:51+00:00</time>
      </trkpt>
      <trkpt lat="43.343612670898" lon="-7.5448832511902">
        <ele>461</ele>
        <time>2019-09-11T08:01:52+00:00</time>
      </trkpt>
      <trkpt lat="43.343612670898" lon="-7.5448985099792">
        <ele>461</ele>
        <time>2019-09-11T08:01:53+00:00</time>
      </trkpt>
      <trkpt lat="43.343616485596" lon="-7.5449151992798">
        <ele>461</ele>
        <time>2019-09-11T08:01:54+00:00</time>
      </trkpt>
      <trkpt lat="43.343620300293" lon="-7.5449233055115">
        <ele>461</ele>
        <time>2019-09-11T08:01:55+00:00</time>
      </trkpt>
      <trkpt lat="43.343620300293" lon="-7.5449366569519">
        <ele>461</ele>
        <time>2019-09-11T08:01:56+00:00</time>
      </trkpt>
      <trkpt lat="43.34362411499" lon="-7.5449533462524">
        <ele>461</ele>
        <time>2019-09-11T08:01:57+00:00</time>
      </trkpt>
      <trkpt lat="43.34362411499" lon="-7.5449681282043">
        <ele>461</ele>
        <time>2019-09-11T08:01:58+00:00</time>
      </trkpt>
      <trkpt lat="43.34362411499" lon="-7.5449848175049">
        <ele>461</ele>
        <time>2019-09-11T08:01:59+00:00</time>
      </trkpt>
      <trkpt lat="43.343627929688" lon="-7.5450015068054">
        <ele>461</ele>
        <time>2019-09-11T08:02:00+00:00</time>
      </trkpt>
      <trkpt lat="43.343631744385" lon="-7.5450081825256">
        <ele>461</ele>
        <time>2019-09-11T08:02:01+00:00</time>
      </trkpt>
      <trkpt lat="43.343631744385" lon="-7.5450248718262">
        <ele>461</ele>
        <time>2019-09-11T08:02:02+00:00</time>
      </trkpt>
      <trkpt lat="43.343631744385" lon="-7.5450448989868">
        <ele>461</ele>
        <time>2019-09-11T08:02:03+00:00</time>
      </trkpt>
      <trkpt lat="43.343631744385" lon="-7.5450582504272">
        <ele>461</ele>
        <time>2019-09-11T08:02:04+00:00</time>
      </trkpt>
      <trkpt lat="43.343627929688" lon="-7.5450801849365">
        <ele>461</ele>
        <time>2019-09-11T08:02:05+00:00</time>
      </trkpt>
      <trkpt lat="43.343627929688" lon="-7.5450983047485">
        <ele>461</ele>
        <time>2019-09-11T08:02:06+00:00</time>
      </trkpt>
      <trkpt lat="43.34362411499" lon="-7.5451197624207">
        <ele>461</ele>
        <time>2019-09-11T08:02:07+00:00</time>
      </trkpt>
      <trkpt lat="43.343620300293" lon="-7.5451350212097">
        <ele>461</ele>
        <time>2019-09-11T08:02:08+00:00</time>
      </trkpt>
      <trkpt lat="43.343620300293" lon="-7.5451531410217">
        <ele>460</ele>
        <time>2019-09-11T08:02:09+00:00</time>
      </trkpt>
      <trkpt lat="43.343616485596" lon="-7.5451731681824">
        <ele>460</ele>
        <time>2019-09-11T08:02:10+00:00</time>
      </trkpt>
      <trkpt lat="43.343616485596" lon="-7.5451898574829">
        <ele>460</ele>
        <time>2019-09-11T08:02:11+00:00</time>
      </trkpt>
      <trkpt lat="43.343612670898" lon="-7.5452084541321">
        <ele>460</ele>
        <time>2019-09-11T08:02:12+00:00</time>
      </trkpt>
      <trkpt lat="43.343612670898" lon="-7.5452284812927">
        <ele>460</ele>
        <time>2019-09-11T08:02:13+00:00</time>
      </trkpt>
      <trkpt lat="43.343605041504" lon="-7.5452466011047">
        <ele>460</ele>
        <time>2019-09-11T08:02:14+00:00</time>
      </trkpt>
      <trkpt lat="43.343601226807" lon="-7.5452651977539">
        <ele>460</ele>
        <time>2019-09-11T08:02:15+00:00</time>
      </trkpt>
      <trkpt lat="43.343597412109" lon="-7.5452833175659">
        <ele>460</ele>
        <time>2019-09-11T08:02:16+00:00</time>
      </trkpt>
      <trkpt lat="43.343593597412" lon="-7.5452966690063">
        <ele>459</ele>
        <time>2019-09-11T08:02:17+00:00</time>
      </trkpt>
      <trkpt lat="43.343589782715" lon="-7.5453133583069">
        <ele>459</ele>
        <time>2019-09-11T08:02:18+00:00</time>
      </trkpt>
      <trkpt lat="43.343585968018" lon="-7.5453300476074">
        <ele>459</ele>
        <time>2019-09-11T08:02:19+00:00</time>
      </trkpt>
      <trkpt lat="43.343585968018" lon="-7.5453448295593">
        <ele>459</ele>
        <time>2019-09-11T08:02:20+00:00</time>
      </trkpt>
      <trkpt lat="43.34358215332" lon="-7.5453600883484">
        <ele>459</ele>
        <time>2019-09-11T08:02:21+00:00</time>
      </trkpt>
      <trkpt lat="43.34358215332" lon="-7.5453734397888">
        <ele>459</ele>
        <time>2019-09-11T08:02:22+00:00</time>
      </trkpt>
      <trkpt lat="43.343585968018" lon="-7.5453867912292">
        <ele>459</ele>
        <time>2019-09-11T08:02:23+00:00</time>
      </trkpt>
      <trkpt lat="43.343585968018" lon="-7.5454049110413">
        <ele>459</ele>
        <time>2019-09-11T08:02:24+00:00</time>
      </trkpt>
      <trkpt lat="43.34358215332" lon="-7.5454201698303">
        <ele>459</ele>
        <time>2019-09-11T08:02:25+00:00</time>
      </trkpt>
      <trkpt lat="43.34358215332" lon="-7.5454349517822">
        <ele>459</ele>
        <time>2019-09-11T08:02:26+00:00</time>
      </trkpt>
      <trkpt lat="43.343585968018" lon="-7.5454516410828">
        <ele>460</ele>
        <time>2019-09-11T08:02:27+00:00</time>
      </trkpt>
      <trkpt lat="43.34358215332" lon="-7.5454668998718">
        <ele>460</ele>
        <time>2019-09-11T08:02:28+00:00</time>
      </trkpt>
      <trkpt lat="43.343585968018" lon="-7.5454831123352">
        <ele>460</ele>
        <time>2019-09-11T08:02:29+00:00</time>
      </trkpt>
      <trkpt lat="43.343585968018" lon="-7.5454950332642">
        <ele>460</ele>
        <time>2019-09-11T08:02:30+00:00</time>
      </trkpt>
      <trkpt lat="43.343585968018" lon="-7.5455098152161">
        <ele>460</ele>
        <time>2019-09-11T08:02:31+00:00</time>
      </trkpt>
      <trkpt lat="43.34358215332" lon="-7.545521736145">
        <ele>460</ele>
        <time>2019-09-11T08:02:32+00:00</time>
      </trkpt>
      <trkpt lat="43.343578338623" lon="-7.5455365180969">
        <ele>460</ele>
        <time>2019-09-11T08:02:33+00:00</time>
      </trkpt>
      <trkpt lat="43.343570709229" lon="-7.5455498695374">
        <ele>460</ele>
        <time>2019-09-11T08:02:34+00:00</time>
      </trkpt>
      <trkpt lat="43.343570709229" lon="-7.5455617904663">
        <ele>460</ele>
        <time>2019-09-11T08:02:35+00:00</time>
      </trkpt>
      <trkpt lat="43.343563079834" lon="-7.5455651283264">
        <ele>461</ele>
        <time>2019-09-11T08:02:36+00:00</time>
      </trkpt>
      <trkpt lat="43.343559265137" lon="-7.5455751419067">
        <ele>461</ele>
        <time>2019-09-11T08:02:37+00:00</time>
      </trkpt>
      <trkpt lat="43.343555450439" lon="-7.5455832481384">
        <ele>461</ele>
        <time>2019-09-11T08:02:38+00:00</time>
      </trkpt>
      <trkpt lat="43.343551635742" lon="-7.5455932617188">
        <ele>460</ele>
        <time>2019-09-11T08:02:39+00:00</time>
      </trkpt>
      <trkpt lat="43.343551635742" lon="-7.545599937439">
        <ele>460</ele>
        <time>2019-09-11T08:02:40+00:00</time>
      </trkpt>
      <trkpt lat="43.343551635742" lon="-7.5456085205078">
        <ele>461</ele>
        <time>2019-09-11T08:02:41+00:00</time>
      </trkpt>
      <trkpt lat="43.343544006348" lon="-7.5456166267395">
        <ele>461</ele>
        <time>2019-09-11T08:02:42+00:00</time>
      </trkpt>
      <trkpt lat="43.343544006348" lon="-7.5456285476685">
        <ele>461</ele>
        <time>2019-09-11T08:02:43+00:00</time>
      </trkpt>
      <trkpt lat="43.343544006348" lon="-7.54563331604">
        <ele>461</ele>
        <time>2019-09-11T08:02:44+00:00</time>
      </trkpt>
      <trkpt lat="43.343544006348" lon="-7.545645236969">
        <ele>461</ele>
        <time>2019-09-11T08:02:45+00:00</time>
      </trkpt>
      <trkpt lat="43.34354019165" lon="-7.5456547737122">
        <ele>461</ele>
        <time>2019-09-11T08:02:46+00:00</time>
      </trkpt>
      <trkpt lat="43.343536376953" lon="-7.5456614494324">
        <ele>461</ele>
        <time>2019-09-11T08:02:47+00:00</time>
      </trkpt>
      <trkpt lat="43.343524932861" lon="-7.5456733703613">
        <ele>461</ele>
        <time>2019-09-11T08:02:48+00:00</time>
      </trkpt>
      <trkpt lat="43.343521118164" lon="-7.5456833839417">
        <ele>461</ele>
        <time>2019-09-11T08:02:49+00:00</time>
      </trkpt>
      <trkpt lat="43.34351348877" lon="-7.5456981658936">
        <ele>461</ele>
        <time>2019-09-11T08:02:50+00:00</time>
      </trkpt>
      <trkpt lat="43.34351348877" lon="-7.5457048416138">
        <ele>461</ele>
        <time>2019-09-11T08:02:51+00:00</time>
      </trkpt>
      <trkpt lat="43.343509674072" lon="-7.5457100868225">
        <ele>461</ele>
        <time>2019-09-11T08:02:52+00:00</time>
      </trkpt>
      <trkpt lat="43.343502044678" lon="-7.5457215309143">
        <ele>461</ele>
        <time>2019-09-11T08:02:53+00:00</time>
      </trkpt>
      <trkpt lat="43.34349822998" lon="-7.5457367897034">
        <ele>461</ele>
        <time>2019-09-11T08:02:54+00:00</time>
      </trkpt>
      <trkpt lat="43.343494415283" lon="-7.5457501411438">
        <ele>461</ele>
        <time>2019-09-11T08:02:55+00:00</time>
      </trkpt>
      <trkpt lat="43.343490600586" lon="-7.5457601547241">
        <ele>461</ele>
        <time>2019-09-11T08:02:56+00:00</time>
      </trkpt>
      <trkpt lat="43.343486785889" lon="-7.5457649230957">
        <ele>460</ele>
        <time>2019-09-11T08:02:57+00:00</time>
      </trkpt>
      <trkpt lat="43.343482971191" lon="-7.5457782745361">
        <ele>460</ele>
        <time>2019-09-11T08:02:58+00:00</time>
      </trkpt>
      <trkpt lat="43.343475341797" lon="-7.5457916259766">
        <ele>460</ele>
        <time>2019-09-11T08:02:59+00:00</time>
      </trkpt>
      <trkpt lat="43.3434715271" lon="-7.5458068847656">
        <ele>460</ele>
        <time>2019-09-11T08:03:00+00:00</time>
      </trkpt>
      <trkpt lat="43.343467712402" lon="-7.5458149909973">
        <ele>460</ele>
        <time>2019-09-11T08:03:01+00:00</time>
      </trkpt>
      <trkpt lat="43.343460083008" lon="-7.5458283424377">
        <ele>460</ele>
        <time>2019-09-11T08:03:02+00:00</time>
      </trkpt>
      <trkpt lat="43.343456268311" lon="-7.5458364486694">
        <ele>460</ele>
        <time>2019-09-11T08:03:03+00:00</time>
      </trkpt>
      <trkpt lat="43.343448638916" lon="-7.5458450317383">
        <ele>460</ele>
        <time>2019-09-11T08:03:04+00:00</time>
      </trkpt>
      <trkpt lat="43.343444824219" lon="-7.5458583831787">
        <ele>460</ele>
        <time>2019-09-11T08:03:05+00:00</time>
      </trkpt>
      <trkpt lat="43.343441009521" lon="-7.5458765029907">
        <ele>460</ele>
        <time>2019-09-11T08:03:06+00:00</time>
      </trkpt>
      <trkpt lat="43.343433380127" lon="-7.5458931922913">
        <ele>460</ele>
        <time>2019-09-11T08:03:07+00:00</time>
      </trkpt>
      <trkpt lat="43.343433380127" lon="-7.5459032058716">
        <ele>460</ele>
        <time>2019-09-11T08:03:08+00:00</time>
      </trkpt>
      <trkpt lat="43.343425750732" lon="-7.5459184646606">
        <ele>460</ele>
        <time>2019-09-11T08:03:09+00:00</time>
      </trkpt>
      <trkpt lat="43.343418121338" lon="-7.5459384918213">
        <ele>460</ele>
        <time>2019-09-11T08:03:10+00:00</time>
      </trkpt>
      <trkpt lat="43.343410491943" lon="-7.5459518432617">
        <ele>460</ele>
        <time>2019-09-11T08:03:11+00:00</time>
      </trkpt>
      <trkpt lat="43.343406677246" lon="-7.5459651947021">
        <ele>460</ele>
        <time>2019-09-11T08:03:12+00:00</time>
      </trkpt>
      <trkpt lat="43.343402862549" lon="-7.5459785461426">
        <ele>460</ele>
        <time>2019-09-11T08:03:13+00:00</time>
      </trkpt>
      <trkpt lat="43.343395233154" lon="-7.5459833145142">
        <ele>460</ele>
        <time>2019-09-11T08:03:14+00:00</time>
      </trkpt>
      <trkpt lat="43.343391418457" lon="-7.5459952354431">
        <ele>460</ele>
        <time>2019-09-11T08:03:15+00:00</time>
      </trkpt>
      <trkpt lat="43.343376159668" lon="-7.546010017395">
        <ele>459</ele>
        <time>2019-09-11T08:03:16+00:00</time>
      </trkpt>
      <trkpt lat="43.343368530273" lon="-7.5460233688354">
        <ele>459</ele>
        <time>2019-09-11T08:03:17+00:00</time>
      </trkpt>
      <trkpt lat="43.343360900879" lon="-7.5460333824158">
        <ele>459</ele>
        <time>2019-09-11T08:03:18+00:00</time>
      </trkpt>
      <trkpt lat="43.343353271484" lon="-7.5460448265076">
        <ele>459</ele>
        <time>2019-09-11T08:03:19+00:00</time>
      </trkpt>
      <trkpt lat="43.343349456787" lon="-7.5460548400879">
        <ele>459</ele>
        <time>2019-09-11T08:03:20+00:00</time>
      </trkpt>
      <trkpt lat="43.343353271484" lon="-7.5460548400879">
        <ele>458</ele>
        <time>2019-09-11T08:03:21+00:00</time>
      </trkpt>
      <trkpt lat="43.343349456787" lon="-7.546058177948">
        <ele>458</ele>
        <time>2019-09-11T08:03:22+00:00</time>
      </trkpt>
      <trkpt lat="43.343341827393" lon="-7.546070098877">
        <ele>458</ele>
        <time>2019-09-11T08:03:23+00:00</time>
      </trkpt>
      <trkpt lat="43.343341827393" lon="-7.5460782051086">
        <ele>457</ele>
        <time>2019-09-11T08:03:24+00:00</time>
      </trkpt>
      <trkpt lat="43.343334197998" lon="-7.546088218689">
        <ele>457</ele>
        <time>2019-09-11T08:03:25+00:00</time>
      </trkpt>
      <trkpt lat="43.343326568604" lon="-7.5461001396179">
        <ele>457</ele>
        <time>2019-09-11T08:03:26+00:00</time>
      </trkpt>
      <trkpt lat="43.343322753906" lon="-7.5461082458496">
        <ele>457</ele>
        <time>2019-09-11T08:03:27+00:00</time>
      </trkpt>
      <trkpt lat="43.343315124512" lon="-7.54612159729">
        <ele>457</ele>
        <time>2019-09-11T08:03:28+00:00</time>
      </trkpt>
      <trkpt lat="43.343307495117" lon="-7.5461301803589">
        <ele>457</ele>
        <time>2019-09-11T08:03:29+00:00</time>
      </trkpt>
      <trkpt lat="43.34330368042" lon="-7.5461435317993">
        <ele>457</ele>
        <time>2019-09-11T08:03:30+00:00</time>
      </trkpt>
      <trkpt lat="43.343296051025" lon="-7.5461568832397">
        <ele>456</ele>
        <time>2019-09-11T08:03:31+00:00</time>
      </trkpt>
      <trkpt lat="43.343288421631" lon="-7.5461730957031">
        <ele>456</ele>
        <time>2019-09-11T08:03:32+00:00</time>
      </trkpt>
      <trkpt lat="43.343284606934" lon="-7.5461864471436">
        <ele>456</ele>
        <time>2019-09-11T08:03:33+00:00</time>
      </trkpt>
      <trkpt lat="43.343273162842" lon="-7.5462098121643">
        <ele>456</ele>
        <time>2019-09-11T08:03:34+00:00</time>
      </trkpt>
      <trkpt lat="43.343273162842" lon="-7.5462131500244">
        <ele>456</ele>
        <time>2019-09-11T08:03:35+00:00</time>
      </trkpt>
      <trkpt lat="43.343273162842" lon="-7.5462183952332">
        <ele>456</ele>
        <time>2019-09-11T08:03:36+00:00</time>
      </trkpt>
      <trkpt lat="43.343265533447" lon="-7.546229839325">
        <ele>456</ele>
        <time>2019-09-11T08:03:37+00:00</time>
      </trkpt>
      <trkpt lat="43.34326171875" lon="-7.5462417602539">
        <ele>456</ele>
        <time>2019-09-11T08:03:38+00:00</time>
      </trkpt>
      <trkpt lat="43.343257904053" lon="-7.5462532043457">
        <ele>456</ele>
        <time>2019-09-11T08:03:39+00:00</time>
      </trkpt>
      <trkpt lat="43.343254089355" lon="-7.5462617874146">
        <ele>456</ele>
        <time>2019-09-11T08:03:40+00:00</time>
      </trkpt>
      <trkpt lat="43.343242645264" lon="-7.5462784767151">
        <ele>456</ele>
        <time>2019-09-11T08:03:41+00:00</time>
      </trkpt>
      <trkpt lat="43.343235015869" lon="-7.5462918281555">
        <ele>456</ele>
        <time>2019-09-11T08:03:42+00:00</time>
      </trkpt>
      <trkpt lat="43.343227386475" lon="-7.5463032722473">
        <ele>456</ele>
        <time>2019-09-11T08:03:43+00:00</time>
      </trkpt>
      <trkpt lat="43.343223571777" lon="-7.5463118553162">
        <ele>456</ele>
        <time>2019-09-11T08:03:44+00:00</time>
      </trkpt>
      <trkpt lat="43.343215942383" lon="-7.5463199615479">
        <ele>456</ele>
        <time>2019-09-11T08:03:45+00:00</time>
      </trkpt>
      <trkpt lat="43.343208312988" lon="-7.5463285446167">
        <ele>456</ele>
        <time>2019-09-11T08:03:46+00:00</time>
      </trkpt>
      <trkpt lat="43.343204498291" lon="-7.546338558197">
        <ele>456</ele>
        <time>2019-09-11T08:03:47+00:00</time>
      </trkpt>
      <trkpt lat="43.343193054199" lon="-7.5463480949402">
        <ele>456</ele>
        <time>2019-09-11T08:03:48+00:00</time>
      </trkpt>
      <trkpt lat="43.34317779541" lon="-7.5463633537292">
        <ele>456</ele>
        <time>2019-09-11T08:03:49+00:00</time>
      </trkpt>
      <trkpt lat="43.343162536621" lon="-7.5463700294495">
        <ele>456</ele>
        <time>2019-09-11T08:03:50+00:00</time>
      </trkpt>
      <trkpt lat="43.343154907227" lon="-7.5463848114014">
        <ele>456</ele>
        <time>2019-09-11T08:03:51+00:00</time>
      </trkpt>
      <trkpt lat="43.343147277832" lon="-7.5464015007019">
        <ele>456</ele>
        <time>2019-09-11T08:03:52+00:00</time>
      </trkpt>
      <trkpt lat="43.343143463135" lon="-7.5464148521423">
        <ele>456</ele>
        <time>2019-09-11T08:03:53+00:00</time>
      </trkpt>
      <trkpt lat="43.34313583374" lon="-7.5464315414429">
        <ele>455</ele>
        <time>2019-09-11T08:03:54+00:00</time>
      </trkpt>
      <trkpt lat="43.343132019043" lon="-7.5464482307434">
        <ele>455</ele>
        <time>2019-09-11T08:03:55+00:00</time>
      </trkpt>
      <trkpt lat="43.343128204346" lon="-7.5464582443237">
        <ele>455</ele>
        <time>2019-09-11T08:03:56+00:00</time>
      </trkpt>
      <trkpt lat="43.343124389648" lon="-7.5464701652527">
        <ele>455</ele>
        <time>2019-09-11T08:03:57+00:00</time>
      </trkpt>
      <trkpt lat="43.343120574951" lon="-7.546480178833">
        <ele>455</ele>
        <time>2019-09-11T08:03:58+00:00</time>
      </trkpt>
      <trkpt lat="43.343120574951" lon="-7.5464868545532">
        <ele>455</ele>
        <time>2019-09-11T08:03:59+00:00</time>
      </trkpt>
      <trkpt lat="43.343124389648" lon="-7.5464916229248">
        <ele>455</ele>
        <time>2019-09-11T08:04:00+00:00</time>
      </trkpt>
      <trkpt lat="43.343124389648" lon="-7.546498298645">
        <ele>455</ele>
        <time>2019-09-11T08:04:01+00:00</time>
      </trkpt>
      <trkpt lat="43.343124389648" lon="-7.5465035438538">
        <ele>455</ele>
        <time>2019-09-11T08:04:02+00:00</time>
      </trkpt>
      <trkpt lat="43.343124389648" lon="-7.5465068817139">
        <ele>455</ele>
        <time>2019-09-11T08:04:03+00:00</time>
      </trkpt>
      <trkpt lat="43.343124389648" lon="-7.5465068817139">
        <ele>455</ele>
        <time>2019-09-11T08:04:04+00:00</time>
      </trkpt>
      <trkpt lat="43.343120574951" lon="-7.5465068817139">
        <ele>455</ele>
        <time>2019-09-11T08:04:05+00:00</time>
      </trkpt>
      <trkpt lat="43.343116760254" lon="-7.5465083122253">
        <ele>455</ele>
        <time>2019-09-11T08:04:06+00:00</time>
      </trkpt>
      <trkpt lat="43.343109130859" lon="-7.546510219574">
        <ele>455</ele>
        <time>2019-09-11T08:04:07+00:00</time>
      </trkpt>
      <trkpt lat="43.343105316162" lon="-7.5465135574341">
        <ele>456</ele>
        <time>2019-09-11T08:04:08+00:00</time>
      </trkpt>
      <trkpt lat="43.343101501465" lon="-7.5465168952942">
        <ele>456</ele>
        <time>2019-09-11T08:04:09+00:00</time>
      </trkpt>
      <trkpt lat="43.343090057373" lon="-7.5465264320374">
        <ele>456</ele>
        <time>2019-09-11T08:04:10+00:00</time>
      </trkpt>
      <trkpt lat="43.343074798584" lon="-7.5465431213379">
        <ele>456</ele>
        <time>2019-09-11T08:04:11+00:00</time>
      </trkpt>
      <trkpt lat="43.343074798584" lon="-7.5465383529663">
        <ele>456</ele>
        <time>2019-09-11T08:04:12+00:00</time>
      </trkpt>
      <trkpt lat="43.343074798584" lon="-7.5465331077576">
        <ele>456</ele>
        <time>2019-09-11T08:04:13+00:00</time>
      </trkpt>
      <trkpt lat="43.343070983887" lon="-7.5465316772461">
        <ele>456</ele>
        <time>2019-09-11T08:04:14+00:00</time>
      </trkpt>
      <trkpt lat="43.343067169189" lon="-7.5465416908264">
        <ele>455</ele>
        <time>2019-09-11T08:04:15+00:00</time>
      </trkpt>
      <trkpt lat="43.343063354492" lon="-7.5465531349182">
        <ele>456</ele>
        <time>2019-09-11T08:04:16+00:00</time>
      </trkpt>
      <trkpt lat="43.343055725098" lon="-7.5465650558472">
        <ele>456</ele>
        <time>2019-09-11T08:04:17+00:00</time>
      </trkpt>
      <trkpt lat="43.343048095703" lon="-7.5465817451477">
        <ele>456</ele>
        <time>2019-09-11T08:04:18+00:00</time>
      </trkpt>
      <trkpt lat="43.343029022217" lon="-7.5466084480286">
        <ele>456</ele>
        <time>2019-09-11T08:04:19+00:00</time>
      </trkpt>
      <trkpt lat="43.34300994873" lon="-7.5466299057007">
        <ele>455</ele>
        <time>2019-09-11T08:04:20+00:00</time>
      </trkpt>
      <trkpt lat="43.343002319336" lon="-7.5466418266296">
        <ele>455</ele>
        <time>2019-09-11T08:04:21+00:00</time>
      </trkpt>
      <trkpt lat="43.342994689941" lon="-7.5466551780701">
        <ele>455</ele>
        <time>2019-09-11T08:04:22+00:00</time>
      </trkpt>
      <trkpt lat="43.34298324585" lon="-7.5466632843018">
        <ele>455</ele>
        <time>2019-09-11T08:04:23+00:00</time>
      </trkpt>
      <trkpt lat="43.342979431152" lon="-7.5466818809509">
        <ele>455</ele>
        <time>2019-09-11T08:04:24+00:00</time>
      </trkpt>
      <trkpt lat="43.342971801758" lon="-7.5466952323914">
        <ele>455</ele>
        <time>2019-09-11T08:04:25+00:00</time>
      </trkpt>
      <trkpt lat="43.342967987061" lon="-7.5467047691345">
        <ele>455</ele>
        <time>2019-09-11T08:04:26+00:00</time>
      </trkpt>
      <trkpt lat="43.342964172363" lon="-7.546718120575">
        <ele>455</ele>
        <time>2019-09-11T08:04:27+00:00</time>
      </trkpt>
      <trkpt lat="43.342956542969" lon="-7.5467314720154">
        <ele>455</ele>
        <time>2019-09-11T08:04:28+00:00</time>
      </trkpt>
      <trkpt lat="43.342948913574" lon="-7.546751499176">
        <ele>455</ele>
        <time>2019-09-11T08:04:29+00:00</time>
      </trkpt>
      <trkpt lat="43.342948913574" lon="-7.5467667579651">
        <ele>455</ele>
        <time>2019-09-11T08:04:30+00:00</time>
      </trkpt>
      <trkpt lat="43.342945098877" lon="-7.5467848777771">
        <ele>455</ele>
        <time>2019-09-11T08:04:31+00:00</time>
      </trkpt>
      <trkpt lat="43.342937469482" lon="-7.5468082427979">
        <ele>455</ele>
        <time>2019-09-11T08:04:32+00:00</time>
      </trkpt>
      <trkpt lat="43.342937469482" lon="-7.5468301773071">
        <ele>454</ele>
        <time>2019-09-11T08:04:33+00:00</time>
      </trkpt>
      <trkpt lat="43.342922210693" lon="-7.5468635559082">
        <ele>454</ele>
        <time>2019-09-11T08:04:34+00:00</time>
      </trkpt>
      <trkpt lat="43.342914581299" lon="-7.5468816757202">
        <ele>454</ele>
        <time>2019-09-11T08:04:35+00:00</time>
      </trkpt>
      <trkpt lat="43.342903137207" lon="-7.5469083786011">
        <ele>454</ele>
        <time>2019-09-11T08:04:36+00:00</time>
      </trkpt>
      <trkpt lat="43.34289932251" lon="-7.5469264984131">
        <ele>454</ele>
        <time>2019-09-11T08:04:37+00:00</time>
      </trkpt>
      <trkpt lat="43.34289932251" lon="-7.546938419342">
        <ele>454</ele>
        <time>2019-09-11T08:04:38+00:00</time>
      </trkpt>
      <trkpt lat="43.342903137207" lon="-7.5469498634338">
        <ele>454</ele>
        <time>2019-09-11T08:04:39+00:00</time>
      </trkpt>
      <trkpt lat="43.34289932251" lon="-7.5469551086426">
        <ele>454</ele>
        <time>2019-09-11T08:04:40+00:00</time>
      </trkpt>
      <trkpt lat="43.342891693115" lon="-7.546968460083">
        <ele>453</ele>
        <time>2019-09-11T08:04:41+00:00</time>
      </trkpt>
      <trkpt lat="43.342868804932" lon="-7.5469932556152">
        <ele>453</ele>
        <time>2019-09-11T08:04:42+00:00</time>
      </trkpt>
      <trkpt lat="43.34285736084" lon="-7.5469999313354">
        <ele>453</ele>
        <time>2019-09-11T08:04:43+00:00</time>
      </trkpt>
      <trkpt lat="43.342853546143" lon="-7.5470099449158">
        <ele>453</ele>
        <time>2019-09-11T08:04:44+00:00</time>
      </trkpt>
      <trkpt lat="43.34285736084" lon="-7.5470151901245">
        <ele>453</ele>
        <time>2019-09-11T08:04:45+00:00</time>
      </trkpt>
      <trkpt lat="43.342853546143" lon="-7.5470285415649">
        <ele>453</ele>
        <time>2019-09-11T08:04:46+00:00</time>
      </trkpt>
      <trkpt lat="43.342849731445" lon="-7.5470385551453">
        <ele>453</ele>
        <time>2019-09-11T08:04:47+00:00</time>
      </trkpt>
      <trkpt lat="43.342845916748" lon="-7.5470499992371">
        <ele>453</ele>
        <time>2019-09-11T08:04:48+00:00</time>
      </trkpt>
      <trkpt lat="43.342842102051" lon="-7.5470633506775">
        <ele>453</ele>
        <time>2019-09-11T08:04:49+00:00</time>
      </trkpt>
      <trkpt lat="43.342838287354" lon="-7.5470767021179">
        <ele>453</ele>
        <time>2019-09-11T08:04:50+00:00</time>
      </trkpt>
      <trkpt lat="43.342834472656" lon="-7.5470967292786">
        <ele>453</ele>
        <time>2019-09-11T08:04:51+00:00</time>
      </trkpt>
      <trkpt lat="43.342830657959" lon="-7.5471148490906">
        <ele>453</ele>
        <time>2019-09-11T08:04:52+00:00</time>
      </trkpt>
      <trkpt lat="43.342826843262" lon="-7.547128200531">
        <ele>452</ele>
        <time>2019-09-11T08:04:53+00:00</time>
      </trkpt>
      <trkpt lat="43.342830657959" lon="-7.5471382141113">
        <ele>452</ele>
        <time>2019-09-11T08:04:54+00:00</time>
      </trkpt>
      <trkpt lat="43.342838287354" lon="-7.5471482276917">
        <ele>452</ele>
        <time>2019-09-11T08:04:55+00:00</time>
      </trkpt>
      <trkpt lat="43.342842102051" lon="-7.5471634864807">
        <ele>452</ele>
        <time>2019-09-11T08:04:56+00:00</time>
      </trkpt>
      <trkpt lat="43.342834472656" lon="-7.5471816062927">
        <ele>452</ele>
        <time>2019-09-11T08:04:57+00:00</time>
      </trkpt>
      <trkpt lat="43.342826843262" lon="-7.5472016334534">
        <ele>452</ele>
        <time>2019-09-11T08:04:58+00:00</time>
      </trkpt>
      <trkpt lat="43.34281539917" lon="-7.547221660614">
        <ele>452</ele>
        <time>2019-09-11T08:04:59+00:00</time>
      </trkpt>
      <trkpt lat="43.34281539917" lon="-7.5472350120544">
        <ele>452</ele>
        <time>2019-09-11T08:05:00+00:00</time>
      </trkpt>
      <trkpt lat="43.342811584473" lon="-7.5472483634949">
        <ele>452</ele>
        <time>2019-09-11T08:05:01+00:00</time>
      </trkpt>
      <trkpt lat="43.342807769775" lon="-7.5472564697266">
        <ele>452</ele>
        <time>2019-09-11T08:05:02+00:00</time>
      </trkpt>
      <trkpt lat="43.342803955078" lon="-7.5472631454468">
        <ele>452</ele>
        <time>2019-09-11T08:05:03+00:00</time>
      </trkpt>
      <trkpt lat="43.342803955078" lon="-7.5472717285156">
        <ele>452</ele>
        <time>2019-09-11T08:05:04+00:00</time>
      </trkpt>
      <trkpt lat="43.342811584473" lon="-7.5472717285156">
        <ele>452</ele>
        <time>2019-09-11T08:05:05+00:00</time>
      </trkpt>
      <trkpt lat="43.34281539917" lon="-7.5472817420959">
        <ele>452</ele>
        <time>2019-09-11T08:05:06+00:00</time>
      </trkpt>
      <trkpt lat="43.342823028564" lon="-7.5472865104675">
        <ele>452</ele>
        <time>2019-09-11T08:05:07+00:00</time>
      </trkpt>
      <trkpt lat="43.342826843262" lon="-7.5472898483276">
        <ele>452</ele>
        <time>2019-09-11T08:05:08+00:00</time>
      </trkpt>
      <trkpt lat="43.342826843262" lon="-7.5472931861877">
        <ele>453</ele>
        <time>2019-09-11T08:05:09+00:00</time>
      </trkpt>
      <trkpt lat="43.342826843262" lon="-7.5473017692566">
        <ele>452</ele>
        <time>2019-09-11T08:05:10+00:00</time>
      </trkpt>
      <trkpt lat="43.342830657959" lon="-7.5473065376282">
        <ele>452</ele>
        <time>2019-09-11T08:05:11+00:00</time>
      </trkpt>
      <trkpt lat="43.342830657959" lon="-7.5473198890686">
        <ele>452</ele>
        <time>2019-09-11T08:05:12+00:00</time>
      </trkpt>
      <trkpt lat="43.342834472656" lon="-7.5473251342773">
        <ele>453</ele>
        <time>2019-09-11T08:05:13+00:00</time>
      </trkpt>
      <trkpt lat="43.342838287354" lon="-7.5473399162292">
        <ele>453</ele>
        <time>2019-09-11T08:05:14+00:00</time>
      </trkpt>
      <trkpt lat="43.342834472656" lon="-7.5473532676697">
        <ele>453</ele>
        <time>2019-09-11T08:05:15+00:00</time>
      </trkpt>
      <trkpt lat="43.342826843262" lon="-7.54736328125">
        <ele>453</ele>
        <time>2019-09-11T08:05:16+00:00</time>
      </trkpt>
      <trkpt lat="43.342826843262" lon="-7.547375202179">
        <ele>453</ele>
        <time>2019-09-11T08:05:17+00:00</time>
      </trkpt>
      <trkpt lat="43.342811584473" lon="-7.5473899841309">
        <ele>453</ele>
        <time>2019-09-11T08:05:18+00:00</time>
      </trkpt>
      <trkpt lat="43.342807769775" lon="-7.5474033355713">
        <ele>453</ele>
        <time>2019-09-11T08:05:19+00:00</time>
      </trkpt>
      <trkpt lat="43.342800140381" lon="-7.5474181175232">
        <ele>453</ele>
        <time>2019-09-11T08:05:20+00:00</time>
      </trkpt>
      <trkpt lat="43.342792510986" lon="-7.5474348068237">
        <ele>453</ele>
        <time>2019-09-11T08:05:21+00:00</time>
      </trkpt>
      <trkpt lat="43.342781066895" lon="-7.547456741333">
        <ele>453</ele>
        <time>2019-09-11T08:05:22+00:00</time>
      </trkpt>
      <trkpt lat="43.342769622803" lon="-7.5474767684937">
        <ele>453</ele>
        <time>2019-09-11T08:05:23+00:00</time>
      </trkpt>
      <trkpt lat="43.342761993408" lon="-7.5474934577942">
        <ele>454</ele>
        <time>2019-09-11T08:05:24+00:00</time>
      </trkpt>
      <trkpt lat="43.342754364014" lon="-7.5475082397461">
        <ele>454</ele>
        <time>2019-09-11T08:05:25+00:00</time>
      </trkpt>
      <trkpt lat="43.342742919922" lon="-7.5475301742554">
        <ele>454</ele>
        <time>2019-09-11T08:05:26+00:00</time>
      </trkpt>
      <trkpt lat="43.342735290527" lon="-7.5475416183472">
        <ele>454</ele>
        <time>2019-09-11T08:05:27+00:00</time>
      </trkpt>
      <trkpt lat="43.34273147583" lon="-7.5475602149963">
        <ele>454</ele>
        <time>2019-09-11T08:05:28+00:00</time>
      </trkpt>
      <trkpt lat="43.342727661133" lon="-7.5475783348083">
        <ele>455</ele>
        <time>2019-09-11T08:05:29+00:00</time>
      </trkpt>
      <trkpt lat="43.342723846436" lon="-7.5475916862488">
        <ele>455</ele>
        <time>2019-09-11T08:05:30+00:00</time>
      </trkpt>
      <trkpt lat="43.342712402344" lon="-7.5476198196411">
        <ele>455</ele>
        <time>2019-09-11T08:05:31+00:00</time>
      </trkpt>
      <trkpt lat="43.342712402344" lon="-7.5476298332214">
        <ele>455</ele>
        <time>2019-09-11T08:05:32+00:00</time>
      </trkpt>
      <trkpt lat="43.342712402344" lon="-7.5476531982422">
        <ele>455</ele>
        <time>2019-09-11T08:05:33+00:00</time>
      </trkpt>
      <trkpt lat="43.342704772949" lon="-7.5476684570312">
        <ele>455</ele>
        <time>2019-09-11T08:05:34+00:00</time>
      </trkpt>
      <trkpt lat="43.34268951416" lon="-7.5476899147034">
        <ele>455</ele>
        <time>2019-09-11T08:05:35+00:00</time>
      </trkpt>
      <trkpt lat="43.342681884766" lon="-7.5477118492126">
        <ele>456</ele>
        <time>2019-09-11T08:05:36+00:00</time>
      </trkpt>
      <trkpt lat="43.342674255371" lon="-7.5477366447449">
        <ele>456</ele>
        <time>2019-09-11T08:05:37+00:00</time>
      </trkpt>
      <trkpt lat="43.342670440674" lon="-7.5477519035339">
        <ele>456</ele>
        <time>2019-09-11T08:05:38+00:00</time>
      </trkpt>
      <trkpt lat="43.342655181885" lon="-7.5477733612061">
        <ele>456</ele>
        <time>2019-09-11T08:05:39+00:00</time>
      </trkpt>
      <trkpt lat="43.342643737793" lon="-7.5478000640869">
        <ele>456</ele>
        <time>2019-09-11T08:05:40+00:00</time>
      </trkpt>
      <trkpt lat="43.342632293701" lon="-7.5478234291077">
        <ele>456</ele>
        <time>2019-09-11T08:05:41+00:00</time>
      </trkpt>
      <trkpt lat="43.342624664307" lon="-7.5478401184082">
        <ele>455</ele>
        <time>2019-09-11T08:05:42+00:00</time>
      </trkpt>
      <trkpt lat="43.342613220215" lon="-7.5478534698486">
        <ele>455</ele>
        <time>2019-09-11T08:05:43+00:00</time>
      </trkpt>
      <trkpt lat="43.342609405518" lon="-7.5478615760803">
        <ele>455</ele>
        <time>2019-09-11T08:05:44+00:00</time>
      </trkpt>
      <trkpt lat="43.342609405518" lon="-7.5478701591492">
        <ele>455</ele>
        <time>2019-09-11T08:05:45+00:00</time>
      </trkpt>
      <trkpt lat="43.342601776123" lon="-7.547881603241">
        <ele>455</ele>
        <time>2019-09-11T08:05:46+00:00</time>
      </trkpt>
      <trkpt lat="43.342594146729" lon="-7.54789686203">
        <ele>455</ele>
        <time>2019-09-11T08:05:47+00:00</time>
      </trkpt>
      <trkpt lat="43.342586517334" lon="-7.5479083061218">
        <ele>455</ele>
        <time>2019-09-11T08:05:48+00:00</time>
      </trkpt>
      <trkpt lat="43.342586517334" lon="-7.5479216575623">
        <ele>455</ele>
        <time>2019-09-11T08:05:49+00:00</time>
      </trkpt>
      <trkpt lat="43.342586517334" lon="-7.5479364395142">
        <ele>454</ele>
        <time>2019-09-11T08:05:50+00:00</time>
      </trkpt>
      <trkpt lat="43.342586517334" lon="-7.5479497909546">
        <ele>454</ele>
        <time>2019-09-11T08:05:51+00:00</time>
      </trkpt>
      <trkpt lat="43.342586517334" lon="-7.5479664802551">
        <ele>454</ele>
        <time>2019-09-11T08:05:52+00:00</time>
      </trkpt>
      <trkpt lat="43.342586517334" lon="-7.5479764938354">
        <ele>454</ele>
        <time>2019-09-11T08:05:53+00:00</time>
      </trkpt>
      <trkpt lat="43.342575073242" lon="-7.5479831695557">
        <ele>454</ele>
        <time>2019-09-11T08:05:54+00:00</time>
      </trkpt>
      <trkpt lat="43.342567443848" lon="-7.5479984283447">
        <ele>454</ele>
        <time>2019-09-11T08:05:55+00:00</time>
      </trkpt>
      <trkpt lat="43.342559814453" lon="-7.5480031967163">
        <ele>454</ele>
        <time>2019-09-11T08:05:56+00:00</time>
      </trkpt>
      <trkpt lat="43.342559814453" lon="-7.5480165481567">
        <ele>454</ele>
        <time>2019-09-11T08:05:57+00:00</time>
      </trkpt>
      <trkpt lat="43.342559814453" lon="-7.5480351448059">
        <ele>454</ele>
        <time>2019-09-11T08:05:58+00:00</time>
      </trkpt>
      <trkpt lat="43.342555999756" lon="-7.5480484962463">
        <ele>454</ele>
        <time>2019-09-11T08:05:59+00:00</time>
      </trkpt>
      <trkpt lat="43.342559814453" lon="-7.5480599403381">
        <ele>454</ele>
        <time>2019-09-11T08:06:00+00:00</time>
      </trkpt>
      <trkpt lat="43.342555999756" lon="-7.5480732917786">
        <ele>454</ele>
        <time>2019-09-11T08:06:01+00:00</time>
      </trkpt>
      <trkpt lat="43.342552185059" lon="-7.548086643219">
        <ele>453</ele>
        <time>2019-09-11T08:06:02+00:00</time>
      </trkpt>
      <trkpt lat="43.342548370361" lon="-7.5481019020081">
        <ele>453</ele>
        <time>2019-09-11T08:06:03+00:00</time>
      </trkpt>
      <trkpt lat="43.342540740967" lon="-7.5481147766113">
        <ele>453</ele>
        <time>2019-09-11T08:06:04+00:00</time>
      </trkpt>
      <trkpt lat="43.34253692627" lon="-7.5481333732605">
        <ele>453</ele>
        <time>2019-09-11T08:06:05+00:00</time>
      </trkpt>
      <trkpt lat="43.342533111572" lon="-7.5481514930725">
        <ele>453</ele>
        <time>2019-09-11T08:06:06+00:00</time>
      </trkpt>
      <trkpt lat="43.342529296875" lon="-7.5481667518616">
        <ele>453</ele>
        <time>2019-09-11T08:06:07+00:00</time>
      </trkpt>
      <trkpt lat="43.342525482178" lon="-7.5481815338135">
        <ele>453</ele>
        <time>2019-09-11T08:06:08+00:00</time>
      </trkpt>
      <trkpt lat="43.34252166748" lon="-7.5482034683228">
        <ele>453</ele>
        <time>2019-09-11T08:06:09+00:00</time>
      </trkpt>
      <trkpt lat="43.342514038086" lon="-7.5482201576233">
        <ele>452</ele>
        <time>2019-09-11T08:06:10+00:00</time>
      </trkpt>
      <trkpt lat="43.342510223389" lon="-7.5482401847839">
        <ele>452</ele>
        <time>2019-09-11T08:06:11+00:00</time>
      </trkpt>
      <trkpt lat="43.342514038086" lon="-7.5482583045959">
        <ele>452</ele>
        <time>2019-09-11T08:06:12+00:00</time>
      </trkpt>
      <trkpt lat="43.342510223389" lon="-7.5482716560364">
        <ele>453</ele>
        <time>2019-09-11T08:06:13+00:00</time>
      </trkpt>
      <trkpt lat="43.342510223389" lon="-7.5482850074768">
        <ele>453</ele>
        <time>2019-09-11T08:06:14+00:00</time>
      </trkpt>
      <trkpt lat="43.342506408691" lon="-7.5482997894287">
        <ele>453</ele>
        <time>2019-09-11T08:06:15+00:00</time>
      </trkpt>
      <trkpt lat="43.342502593994" lon="-7.5483150482178">
        <ele>453</ele>
        <time>2019-09-11T08:06:16+00:00</time>
      </trkpt>
      <trkpt lat="43.342502593994" lon="-7.5483317375183">
        <ele>453</ele>
        <time>2019-09-11T08:06:17+00:00</time>
      </trkpt>
      <trkpt lat="43.342510223389" lon="-7.5483465194702">
        <ele>453</ele>
        <time>2019-09-11T08:06:18+00:00</time>
      </trkpt>
      <trkpt lat="43.342506408691" lon="-7.5483565330505">
        <ele>453</ele>
        <time>2019-09-11T08:06:19+00:00</time>
      </trkpt>
      <trkpt lat="43.342502593994" lon="-7.5483732223511">
        <ele>453</ele>
        <time>2019-09-11T08:06:20+00:00</time>
      </trkpt>
      <trkpt lat="43.342498779297" lon="-7.5483832359314">
        <ele>453</ele>
        <time>2019-09-11T08:06:21+00:00</time>
      </trkpt>
      <trkpt lat="43.342491149902" lon="-7.5484018325806">
        <ele>453</ele>
        <time>2019-09-11T08:06:22+00:00</time>
      </trkpt>
      <trkpt lat="43.342487335205" lon="-7.5484199523926">
        <ele>453</ele>
        <time>2019-09-11T08:06:23+00:00</time>
      </trkpt>
      <trkpt lat="43.342483520508" lon="-7.5484352111816">
        <ele>453</ele>
        <time>2019-09-11T08:06:24+00:00</time>
      </trkpt>
      <trkpt lat="43.342479705811" lon="-7.5484519004822">
        <ele>453</ele>
        <time>2019-09-11T08:06:25+00:00</time>
      </trkpt>
      <trkpt lat="43.342483520508" lon="-7.548463344574">
        <ele>453</ele>
        <time>2019-09-11T08:06:26+00:00</time>
      </trkpt>
      <trkpt lat="43.342472076416" lon="-7.5484848022461">
        <ele>453</ele>
        <time>2019-09-11T08:06:27+00:00</time>
      </trkpt>
      <trkpt lat="43.342468261719" lon="-7.5485048294067">
        <ele>453</ele>
        <time>2019-09-11T08:06:28+00:00</time>
      </trkpt>
      <trkpt lat="43.342468261719" lon="-7.5485234260559">
        <ele>453</ele>
        <time>2019-09-11T08:06:29+00:00</time>
      </trkpt>
      <trkpt lat="43.342460632324" lon="-7.5485415458679">
        <ele>452</ele>
        <time>2019-09-11T08:06:30+00:00</time>
      </trkpt>
      <trkpt lat="43.342456817627" lon="-7.548556804657">
        <ele>452</ele>
        <time>2019-09-11T08:06:31+00:00</time>
      </trkpt>
      <trkpt lat="43.34245300293" lon="-7.5485682487488">
        <ele>452</ele>
        <time>2019-09-11T08:06:32+00:00</time>
      </trkpt>
      <trkpt lat="43.342441558838" lon="-7.5485816001892">
        <ele>451</ele>
        <time>2019-09-11T08:06:33+00:00</time>
      </trkpt>
      <trkpt lat="43.342441558838" lon="-7.5485882759094">
        <ele>451</ele>
        <time>2019-09-11T08:06:34+00:00</time>
      </trkpt>
      <trkpt lat="43.342437744141" lon="-7.5485949516296">
        <ele>450</ele>
        <time>2019-09-11T08:06:35+00:00</time>
      </trkpt>
      <trkpt lat="43.342433929443" lon="-7.5486068725586">
        <ele>450</ele>
        <time>2019-09-11T08:06:36+00:00</time>
      </trkpt>
      <trkpt lat="43.342430114746" lon="-7.5486268997192">
        <ele>450</ele>
        <time>2019-09-11T08:06:37+00:00</time>
      </trkpt>
      <trkpt lat="43.342426300049" lon="-7.5486316680908">
        <ele>449</ele>
        <time>2019-09-11T08:06:38+00:00</time>
      </trkpt>
      <trkpt lat="43.342430114746" lon="-7.5486431121826">
        <ele>449</ele>
        <time>2019-09-11T08:06:39+00:00</time>
      </trkpt>
      <trkpt lat="43.342426300049" lon="-7.5486583709717">
        <ele>448</ele>
        <time>2019-09-11T08:06:40+00:00</time>
      </trkpt>
      <trkpt lat="43.342426300049" lon="-7.5486783981323">
        <ele>447</ele>
        <time>2019-09-11T08:06:41+00:00</time>
      </trkpt>
      <trkpt lat="43.342426300049" lon="-7.5486931800842">
        <ele>447</ele>
        <time>2019-09-11T08:06:42+00:00</time>
      </trkpt>
      <trkpt lat="43.342430114746" lon="-7.5487117767334">
        <ele>447</ele>
        <time>2019-09-11T08:06:43+00:00</time>
      </trkpt>
      <trkpt lat="43.342437744141" lon="-7.5487265586853">
        <ele>446</ele>
        <time>2019-09-11T08:06:44+00:00</time>
      </trkpt>
      <trkpt lat="43.342437744141" lon="-7.5487451553345">
        <ele>446</ele>
        <time>2019-09-11T08:06:45+00:00</time>
      </trkpt>
      <trkpt lat="43.342437744141" lon="-7.5487599372864">
        <ele>445</ele>
        <time>2019-09-11T08:06:46+00:00</time>
      </trkpt>
      <trkpt lat="43.342430114746" lon="-7.5487751960754">
        <ele>445</ele>
        <time>2019-09-11T08:06:47+00:00</time>
      </trkpt>
      <trkpt lat="43.342433929443" lon="-7.5487985610962">
        <ele>445</ele>
        <time>2019-09-11T08:06:48+00:00</time>
      </trkpt>
      <trkpt lat="43.342430114746" lon="-7.5488200187683">
        <ele>444</ele>
        <time>2019-09-11T08:06:49+00:00</time>
      </trkpt>
      <trkpt lat="43.342430114746" lon="-7.5488333702087">
        <ele>444</ele>
        <time>2019-09-11T08:06:50+00:00</time>
      </trkpt>
      <trkpt lat="43.342426300049" lon="-7.5488481521606">
        <ele>444</ele>
        <time>2019-09-11T08:06:51+00:00</time>
      </trkpt>
      <trkpt lat="43.342422485352" lon="-7.5488634109497">
        <ele>444</ele>
        <time>2019-09-11T08:06:52+00:00</time>
      </trkpt>
      <trkpt lat="43.342422485352" lon="-7.54887342453">
        <ele>444</ele>
        <time>2019-09-11T08:06:53+00:00</time>
      </trkpt>
      <trkpt lat="43.342426300049" lon="-7.5488848686218">
        <ele>444</ele>
        <time>2019-09-11T08:06:54+00:00</time>
      </trkpt>
      <trkpt lat="43.342426300049" lon="-7.5489048957825">
        <ele>444</ele>
        <time>2019-09-11T08:06:55+00:00</time>
      </trkpt>
      <trkpt lat="43.342422485352" lon="-7.5489134788513">
        <ele>443</ele>
        <time>2019-09-11T08:06:56+00:00</time>
      </trkpt>
      <trkpt lat="43.342426300049" lon="-7.5489282608032">
        <ele>443</ele>
        <time>2019-09-11T08:06:57+00:00</time>
      </trkpt>
      <trkpt lat="43.342418670654" lon="-7.548951625824">
        <ele>443</ele>
        <time>2019-09-11T08:06:58+00:00</time>
      </trkpt>
      <trkpt lat="43.342414855957" lon="-7.5489702224731">
        <ele>443</ele>
        <time>2019-09-11T08:06:59+00:00</time>
      </trkpt>
      <trkpt lat="43.342407226562" lon="-7.548985004425">
        <ele>443</ele>
        <time>2019-09-11T08:07:00+00:00</time>
      </trkpt>
      <trkpt lat="43.342403411865" lon="-7.5490016937256">
        <ele>443</ele>
        <time>2019-09-11T08:07:01+00:00</time>
      </trkpt>
      <trkpt lat="43.342399597168" lon="-7.5490164756775">
        <ele>444</ele>
        <time>2019-09-11T08:07:02+00:00</time>
      </trkpt>
      <trkpt lat="43.342403411865" lon="-7.5490317344666">
        <ele>444</ele>
        <time>2019-09-11T08:07:03+00:00</time>
      </trkpt>
      <trkpt lat="43.342403411865" lon="-7.5490465164185">
        <ele>444</ele>
        <time>2019-09-11T08:07:04+00:00</time>
      </trkpt>
      <trkpt lat="43.342407226562" lon="-7.5490665435791">
        <ele>444</ele>
        <time>2019-09-11T08:07:05+00:00</time>
      </trkpt>
      <trkpt lat="43.342414855957" lon="-7.5490765571594">
        <ele>444</ele>
        <time>2019-09-11T08:07:06+00:00</time>
      </trkpt>
      <trkpt lat="43.342414855957" lon="-7.5490884780884">
        <ele>444</ele>
        <time>2019-09-11T08:07:07+00:00</time>
      </trkpt>
      <trkpt lat="43.342414855957" lon="-7.5490951538086">
        <ele>444</ele>
        <time>2019-09-11T08:07:08+00:00</time>
      </trkpt>
      <trkpt lat="43.342414855957" lon="-7.5491018295288">
        <ele>444</ele>
        <time>2019-09-11T08:07:09+00:00</time>
      </trkpt>
      <trkpt lat="43.342414855957" lon="-7.5491118431091">
        <ele>444</ele>
        <time>2019-09-11T08:07:10+00:00</time>
      </trkpt>
      <trkpt lat="43.342414855957" lon="-7.5491232872009">
        <ele>444</ele>
        <time>2019-09-11T08:07:11+00:00</time>
      </trkpt>
      <trkpt lat="43.342407226562" lon="-7.5491333007812">
        <ele>443</ele>
        <time>2019-09-11T08:07:12+00:00</time>
      </trkpt>
      <trkpt lat="43.342403411865" lon="-7.5491452217102">
        <ele>443</ele>
        <time>2019-09-11T08:07:13+00:00</time>
      </trkpt>
      <trkpt lat="43.342403411865" lon="-7.549156665802">
        <ele>443</ele>
        <time>2019-09-11T08:07:14+00:00</time>
      </trkpt>
      <trkpt lat="43.342395782471" lon="-7.549174785614">
        <ele>443</ele>
        <time>2019-09-11T08:07:15+00:00</time>
      </trkpt>
      <trkpt lat="43.342388153076" lon="-7.5491833686829">
        <ele>443</ele>
        <time>2019-09-11T08:07:16+00:00</time>
      </trkpt>
      <trkpt lat="43.342384338379" lon="-7.5491948127747">
        <ele>443</ele>
        <time>2019-09-11T08:07:17+00:00</time>
      </trkpt>
      <trkpt lat="43.342372894287" lon="-7.5492100715637">
        <ele>443</ele>
        <time>2019-09-11T08:07:18+00:00</time>
      </trkpt>
      <trkpt lat="43.342365264893" lon="-7.5492248535156">
        <ele>443</ele>
        <time>2019-09-11T08:07:19+00:00</time>
      </trkpt>
      <trkpt lat="43.342350006104" lon="-7.5492415428162">
        <ele>443</ele>
        <time>2019-09-11T08:07:20+00:00</time>
      </trkpt>
      <trkpt lat="43.342350006104" lon="-7.5492548942566">
        <ele>443</ele>
        <time>2019-09-11T08:07:21+00:00</time>
      </trkpt>
      <trkpt lat="43.342342376709" lon="-7.549268245697">
        <ele>443</ele>
        <time>2019-09-11T08:07:22+00:00</time>
      </trkpt>
      <trkpt lat="43.342323303223" lon="-7.5492849349976">
        <ele>443</ele>
        <time>2019-09-11T08:07:23+00:00</time>
      </trkpt>
      <trkpt lat="43.34232711792" lon="-7.5492901802063">
        <ele>443</ele>
        <time>2019-09-11T08:07:24+00:00</time>
      </trkpt>
      <trkpt lat="43.342323303223" lon="-7.5493001937866">
        <ele>443</ele>
        <time>2019-09-11T08:07:25+00:00</time>
      </trkpt>
      <trkpt lat="43.342319488525" lon="-7.5493135452271">
        <ele>443</ele>
        <time>2019-09-11T08:07:26+00:00</time>
      </trkpt>
      <trkpt lat="43.342311859131" lon="-7.5493416786194">
        <ele>443</ele>
        <time>2019-09-11T08:07:27+00:00</time>
      </trkpt>
      <trkpt lat="43.342311859131" lon="-7.5493531227112">
        <ele>443</ele>
        <time>2019-09-11T08:07:28+00:00</time>
      </trkpt>
      <trkpt lat="43.342315673828" lon="-7.5493664741516">
        <ele>443</ele>
        <time>2019-09-11T08:07:29+00:00</time>
      </trkpt>
      <trkpt lat="43.34232711792" lon="-7.5493750572205">
        <ele>443</ele>
        <time>2019-09-11T08:07:30+00:00</time>
      </trkpt>
      <trkpt lat="43.34232711792" lon="-7.5493865013123">
        <ele>443</ele>
        <time>2019-09-11T08:07:31+00:00</time>
      </trkpt>
      <trkpt lat="43.342323303223" lon="-7.549391746521">
        <ele>443</ele>
        <time>2019-09-11T08:07:32+00:00</time>
      </trkpt>
      <trkpt lat="43.342330932617" lon="-7.5494050979614">
        <ele>443</ele>
        <time>2019-09-11T08:07:33+00:00</time>
      </trkpt>
      <trkpt lat="43.342323303223" lon="-7.5494151115417">
        <ele>443</ele>
        <time>2019-09-11T08:07:34+00:00</time>
      </trkpt>
      <trkpt lat="43.342323303223" lon="-7.5494165420532">
        <ele>443</ele>
        <time>2019-09-11T08:07:35+00:00</time>
      </trkpt>
      <trkpt lat="43.342319488525" lon="-7.5494298934937">
        <ele>443</ele>
        <time>2019-09-11T08:07:36+00:00</time>
      </trkpt>
      <trkpt lat="43.342319488525" lon="-7.5494465827942">
        <ele>443</ele>
        <time>2019-09-11T08:07:37+00:00</time>
      </trkpt>
      <trkpt lat="43.342319488525" lon="-7.5494585037231">
        <ele>443</ele>
        <time>2019-09-11T08:07:38+00:00</time>
      </trkpt>
      <trkpt lat="43.342323303223" lon="-7.5494718551636">
        <ele>443</ele>
        <time>2019-09-11T08:07:39+00:00</time>
      </trkpt>
      <trkpt lat="43.342323303223" lon="-7.549485206604">
        <ele>442</ele>
        <time>2019-09-11T08:07:40+00:00</time>
      </trkpt>
      <trkpt lat="43.342315673828" lon="-7.5495147705078">
        <ele>442</ele>
        <time>2019-09-11T08:07:41+00:00</time>
      </trkpt>
      <trkpt lat="43.342311859131" lon="-7.5495467185974">
        <ele>442</ele>
        <time>2019-09-11T08:07:42+00:00</time>
      </trkpt>
      <trkpt lat="43.342304229736" lon="-7.5495700836182">
        <ele>442</ele>
        <time>2019-09-11T08:07:43+00:00</time>
      </trkpt>
      <trkpt lat="43.342288970947" lon="-7.549596786499">
        <ele>442</ele>
        <time>2019-09-11T08:07:44+00:00</time>
      </trkpt>
      <trkpt lat="43.34228515625" lon="-7.5496182441711">
        <ele>442</ele>
        <time>2019-09-11T08:07:45+00:00</time>
      </trkpt>
      <trkpt lat="43.342281341553" lon="-7.5496416091919">
        <ele>442</ele>
        <time>2019-09-11T08:07:46+00:00</time>
      </trkpt>
      <trkpt lat="43.342277526855" lon="-7.5496683120728">
        <ele>442</ele>
        <time>2019-09-11T08:07:47+00:00</time>
      </trkpt>
      <trkpt lat="43.342269897461" lon="-7.549693107605">
        <ele>442</ele>
        <time>2019-09-11T08:07:48+00:00</time>
      </trkpt>
      <trkpt lat="43.342269897461" lon="-7.5497131347656">
        <ele>442</ele>
        <time>2019-09-11T08:07:49+00:00</time>
      </trkpt>
      <trkpt lat="43.342266082764" lon="-7.5497398376465">
        <ele>443</ele>
        <time>2019-09-11T08:07:50+00:00</time>
      </trkpt>
      <trkpt lat="43.342262268066" lon="-7.5497632026672">
        <ele>443</ele>
        <time>2019-09-11T08:07:51+00:00</time>
      </trkpt>
      <trkpt lat="43.342258453369" lon="-7.5497784614563">
        <ele>443</ele>
        <time>2019-09-11T08:07:52+00:00</time>
      </trkpt>
      <trkpt lat="43.342250823975" lon="-7.5497999191284">
        <ele>443</ele>
        <time>2019-09-11T08:07:53+00:00</time>
      </trkpt>
      <trkpt lat="43.342247009277" lon="-7.5498232841492">
        <ele>443</ele>
        <time>2019-09-11T08:07:54+00:00</time>
      </trkpt>
      <trkpt lat="43.342250823975" lon="-7.5498366355896">
        <ele>444</ele>
        <time>2019-09-11T08:07:55+00:00</time>
      </trkpt>
      <trkpt lat="43.342247009277" lon="-7.54984998703">
        <ele>444</ele>
        <time>2019-09-11T08:07:56+00:00</time>
      </trkpt>
      <trkpt lat="43.34224319458" lon="-7.5498614311218">
        <ele>444</ele>
        <time>2019-09-11T08:07:57+00:00</time>
      </trkpt>
      <trkpt lat="43.342239379883" lon="-7.5498714447021">
        <ele>444</ele>
        <time>2019-09-11T08:07:58+00:00</time>
      </trkpt>
      <trkpt lat="43.342231750488" lon="-7.5498847961426">
        <ele>444</ele>
        <time>2019-09-11T08:07:59+00:00</time>
      </trkpt>
      <trkpt lat="43.342227935791" lon="-7.549898147583">
        <ele>444</ele>
        <time>2019-09-11T08:08:00+00:00</time>
      </trkpt>
      <trkpt lat="43.342224121094" lon="-7.5499114990234">
        <ele>444</ele>
        <time>2019-09-11T08:08:01+00:00</time>
      </trkpt>
      <trkpt lat="43.342220306396" lon="-7.5499300956726">
        <ele>444</ele>
        <time>2019-09-11T08:08:02+00:00</time>
      </trkpt>
      <trkpt lat="43.342216491699" lon="-7.5499501228333">
        <ele>444</ele>
        <time>2019-09-11T08:08:03+00:00</time>
      </trkpt>
      <trkpt lat="43.342216491699" lon="-7.5499715805054">
        <ele>444</ele>
        <time>2019-09-11T08:08:04+00:00</time>
      </trkpt>
      <trkpt lat="43.342216491699" lon="-7.549991607666">
        <ele>444</ele>
        <time>2019-09-11T08:08:05+00:00</time>
      </trkpt>
      <trkpt lat="43.342197418213" lon="-7.5500202178955">
        <ele>444</ele>
        <time>2019-09-11T08:08:06+00:00</time>
      </trkpt>
      <trkpt lat="43.342193603516" lon="-7.5500364303589">
        <ele>443</ele>
        <time>2019-09-11T08:08:07+00:00</time>
      </trkpt>
      <trkpt lat="43.342193603516" lon="-7.5500483512878">
        <ele>443</ele>
        <time>2019-09-11T08:08:08+00:00</time>
      </trkpt>
      <trkpt lat="43.342193603516" lon="-7.5500597953796">
        <ele>443</ele>
        <time>2019-09-11T08:08:09+00:00</time>
      </trkpt>
      <trkpt lat="43.342197418213" lon="-7.5500717163086">
        <ele>443</ele>
        <time>2019-09-11T08:08:10+00:00</time>
      </trkpt>
      <trkpt lat="43.34220123291" lon="-7.5500783920288">
        <ele>442</ele>
        <time>2019-09-11T08:08:11+00:00</time>
      </trkpt>
      <trkpt lat="43.342205047607" lon="-7.5500898361206">
        <ele>442</ele>
        <time>2019-09-11T08:08:12+00:00</time>
      </trkpt>
      <trkpt lat="43.342205047607" lon="-7.5501017570496">
        <ele>442</ele>
        <time>2019-09-11T08:08:13+00:00</time>
      </trkpt>
      <trkpt lat="43.342208862305" lon="-7.5501098632812">
        <ele>441</ele>
        <time>2019-09-11T08:08:14+00:00</time>
      </trkpt>
      <trkpt lat="43.342212677002" lon="-7.55011510849">
        <ele>440</ele>
        <time>2019-09-11T08:08:15+00:00</time>
      </trkpt>
      <trkpt lat="43.342216491699" lon="-7.5501198768616">
        <ele>440</ele>
        <time>2019-09-11T08:08:16+00:00</time>
      </trkpt>
      <trkpt lat="43.342216491699" lon="-7.550133228302">
        <ele>439</ele>
        <time>2019-09-11T08:08:17+00:00</time>
      </trkpt>
      <trkpt lat="43.342216491699" lon="-7.5501465797424">
        <ele>438</ele>
        <time>2019-09-11T08:08:18+00:00</time>
      </trkpt>
      <trkpt lat="43.342216491699" lon="-7.5501618385315">
        <ele>438</ele>
        <time>2019-09-11T08:08:19+00:00</time>
      </trkpt>
      <trkpt lat="43.342212677002" lon="-7.550178527832">
        <ele>438</ele>
        <time>2019-09-11T08:08:20+00:00</time>
      </trkpt>
      <trkpt lat="43.342212677002" lon="-7.5501899719238">
        <ele>438</ele>
        <time>2019-09-11T08:08:21+00:00</time>
      </trkpt>
      <trkpt lat="43.342205047607" lon="-7.5501999855042">
        <ele>438</ele>
        <time>2019-09-11T08:08:22+00:00</time>
      </trkpt>
      <trkpt lat="43.342208862305" lon="-7.5502114295959">
        <ele>437</ele>
        <time>2019-09-11T08:08:23+00:00</time>
      </trkpt>
      <trkpt lat="43.342208862305" lon="-7.5502200126648">
        <ele>436</ele>
        <time>2019-09-11T08:08:24+00:00</time>
      </trkpt>
      <trkpt lat="43.342216491699" lon="-7.5502333641052">
        <ele>436</ele>
        <time>2019-09-11T08:08:25+00:00</time>
      </trkpt>
      <trkpt lat="43.342220306396" lon="-7.550244808197">
        <ele>436</ele>
        <time>2019-09-11T08:08:26+00:00</time>
      </trkpt>
      <trkpt lat="43.342220306396" lon="-7.5502600669861">
        <ele>436</ele>
        <time>2019-09-11T08:08:27+00:00</time>
      </trkpt>
      <trkpt lat="43.342224121094" lon="-7.5502767562866">
        <ele>436</ele>
        <time>2019-09-11T08:08:28+00:00</time>
      </trkpt>
      <trkpt lat="43.342227935791" lon="-7.5502915382385">
        <ele>435</ele>
        <time>2019-09-11T08:08:29+00:00</time>
      </trkpt>
      <trkpt lat="43.342231750488" lon="-7.5503115653992">
        <ele>435</ele>
        <time>2019-09-11T08:08:30+00:00</time>
      </trkpt>
      <trkpt lat="43.342235565186" lon="-7.5503282546997">
        <ele>435</ele>
        <time>2019-09-11T08:08:31+00:00</time>
      </trkpt>
      <trkpt lat="43.342239379883" lon="-7.55033826828">
        <ele>435</ele>
        <time>2019-09-11T08:08:32+00:00</time>
      </trkpt>
      <trkpt lat="43.342239379883" lon="-7.550350189209">
        <ele>435</ele>
        <time>2019-09-11T08:08:33+00:00</time>
      </trkpt>
      <trkpt lat="43.34224319458" lon="-7.5503616333008">
        <ele>435</ele>
        <time>2019-09-11T08:08:34+00:00</time>
      </trkpt>
      <trkpt lat="43.342247009277" lon="-7.5503716468811">
        <ele>435</ele>
        <time>2019-09-11T08:08:35+00:00</time>
      </trkpt>
      <trkpt lat="43.342254638672" lon="-7.5503816604614">
        <ele>435</ele>
        <time>2019-09-11T08:08:36+00:00</time>
      </trkpt>
      <trkpt lat="43.342258453369" lon="-7.5503950119019">
        <ele>435</ele>
        <time>2019-09-11T08:08:37+00:00</time>
      </trkpt>
      <trkpt lat="43.342262268066" lon="-7.5504117012024">
        <ele>435</ele>
        <time>2019-09-11T08:08:38+00:00</time>
      </trkpt>
      <trkpt lat="43.342262268066" lon="-7.5504298210144">
        <ele>435</ele>
        <time>2019-09-11T08:08:39+00:00</time>
      </trkpt>
      <trkpt lat="43.342266082764" lon="-7.5504484176636">
        <ele>435</ele>
        <time>2019-09-11T08:08:40+00:00</time>
      </trkpt>
      <trkpt lat="43.342269897461" lon="-7.5504651069641">
        <ele>435</ele>
        <time>2019-09-11T08:08:41+00:00</time>
      </trkpt>
      <trkpt lat="43.342266082764" lon="-7.5504851341248">
        <ele>435</ele>
        <time>2019-09-11T08:08:42+00:00</time>
      </trkpt>
      <trkpt lat="43.342269897461" lon="-7.5505032539368">
        <ele>435</ele>
        <time>2019-09-11T08:08:43+00:00</time>
      </trkpt>
      <trkpt lat="43.342273712158" lon="-7.550525188446">
        <ele>435</ele>
        <time>2019-09-11T08:08:44+00:00</time>
      </trkpt>
      <trkpt lat="43.342273712158" lon="-7.5505418777466">
        <ele>435</ele>
        <time>2019-09-11T08:08:45+00:00</time>
      </trkpt>
      <trkpt lat="43.342269897461" lon="-7.5505599975586">
        <ele>435</ele>
        <time>2019-09-11T08:08:46+00:00</time>
      </trkpt>
      <trkpt lat="43.342262268066" lon="-7.5505833625793">
        <ele>435</ele>
        <time>2019-09-11T08:08:47+00:00</time>
      </trkpt>
      <trkpt lat="43.342247009277" lon="-7.55060338974">
        <ele>435</ele>
        <time>2019-09-11T08:08:48+00:00</time>
      </trkpt>
      <trkpt lat="43.342235565186" lon="-7.550621509552">
        <ele>435</ele>
        <time>2019-09-11T08:08:49+00:00</time>
      </trkpt>
      <trkpt lat="43.342227935791" lon="-7.5506415367126">
        <ele>436</ele>
        <time>2019-09-11T08:08:50+00:00</time>
      </trkpt>
      <trkpt lat="43.342212677002" lon="-7.5506682395935">
        <ele>436</ele>
        <time>2019-09-11T08:08:51+00:00</time>
      </trkpt>
      <trkpt lat="43.342205047607" lon="-7.5506882667542">
        <ele>436</ele>
        <time>2019-09-11T08:08:52+00:00</time>
      </trkpt>
      <trkpt lat="43.34220123291" lon="-7.5507016181946">
        <ele>436</ele>
        <time>2019-09-11T08:08:53+00:00</time>
      </trkpt>
      <trkpt lat="43.34220123291" lon="-7.5507135391235">
        <ele>437</ele>
        <time>2019-09-11T08:08:54+00:00</time>
      </trkpt>
      <trkpt lat="43.342193603516" lon="-7.5507316589355">
        <ele>437</ele>
        <time>2019-09-11T08:08:55+00:00</time>
      </trkpt>
      <trkpt lat="43.342189788818" lon="-7.5507431030273">
        <ele>437</ele>
        <time>2019-09-11T08:08:56+00:00</time>
      </trkpt>
      <trkpt lat="43.342182159424" lon="-7.5507516860962">
        <ele>437</ele>
        <time>2019-09-11T08:08:57+00:00</time>
      </trkpt>
      <trkpt lat="43.342174530029" lon="-7.550763130188">
        <ele>437</ele>
        <time>2019-09-11T08:08:58+00:00</time>
      </trkpt>
      <trkpt lat="43.342163085938" lon="-7.5507817268372">
        <ele>437</ele>
        <time>2019-09-11T08:08:59+00:00</time>
      </trkpt>
      <trkpt lat="43.342155456543" lon="-7.5507984161377">
        <ele>436</ele>
        <time>2019-09-11T08:09:00+00:00</time>
      </trkpt>
      <trkpt lat="43.342155456543" lon="-7.5508117675781">
        <ele>436</ele>
        <time>2019-09-11T08:09:01+00:00</time>
      </trkpt>
      <trkpt lat="43.342155456543" lon="-7.55082654953">
        <ele>436</ele>
        <time>2019-09-11T08:09:02+00:00</time>
      </trkpt>
      <trkpt lat="43.342151641846" lon="-7.5508418083191">
        <ele>436</ele>
        <time>2019-09-11T08:09:03+00:00</time>
      </trkpt>
      <trkpt lat="43.342151641846" lon="-7.5508465766907">
        <ele>436</ele>
        <time>2019-09-11T08:09:04+00:00</time>
      </trkpt>
      <trkpt lat="43.342151641846" lon="-7.5508499145508">
        <ele>436</ele>
        <time>2019-09-11T08:09:05+00:00</time>
      </trkpt>
      <trkpt lat="43.342147827148" lon="-7.5508666038513">
        <ele>436</ele>
        <time>2019-09-11T08:09:06+00:00</time>
      </trkpt>
      <trkpt lat="43.342144012451" lon="-7.5508818626404">
        <ele>436</ele>
        <time>2019-09-11T08:09:07+00:00</time>
      </trkpt>
      <trkpt lat="43.342140197754" lon="-7.5508952140808">
        <ele>436</ele>
        <time>2019-09-11T08:09:08+00:00</time>
      </trkpt>
      <trkpt lat="43.342140197754" lon="-7.5509066581726">
        <ele>436</ele>
        <time>2019-09-11T08:09:09+00:00</time>
      </trkpt>
      <trkpt lat="43.342140197754" lon="-7.5509266853333">
        <ele>436</ele>
        <time>2019-09-11T08:09:10+00:00</time>
      </trkpt>
      <trkpt lat="43.342140197754" lon="-7.5509400367737">
        <ele>436</ele>
        <time>2019-09-11T08:09:11+00:00</time>
      </trkpt>
      <trkpt lat="43.342132568359" lon="-7.550950050354">
        <ele>436</ele>
        <time>2019-09-11T08:09:12+00:00</time>
      </trkpt>
      <trkpt lat="43.342124938965" lon="-7.5509600639343">
        <ele>436</ele>
        <time>2019-09-11T08:09:13+00:00</time>
      </trkpt>
      <trkpt lat="43.342124938965" lon="-7.5509767532349">
        <ele>436</ele>
        <time>2019-09-11T08:09:14+00:00</time>
      </trkpt>
      <trkpt lat="43.342121124268" lon="-7.5509901046753">
        <ele>436</ele>
        <time>2019-09-11T08:09:15+00:00</time>
      </trkpt>
      <trkpt lat="43.34211730957" lon="-7.5510182380676">
        <ele>436</ele>
        <time>2019-09-11T08:09:16+00:00</time>
      </trkpt>
      <trkpt lat="43.342113494873" lon="-7.5510401725769">
        <ele>436</ele>
        <time>2019-09-11T08:09:17+00:00</time>
      </trkpt>
      <trkpt lat="43.342113494873" lon="-7.5510635375977">
        <ele>436</ele>
        <time>2019-09-11T08:09:18+00:00</time>
      </trkpt>
      <trkpt lat="43.342105865479" lon="-7.5510816574097">
        <ele>437</ele>
        <time>2019-09-11T08:09:19+00:00</time>
      </trkpt>
      <trkpt lat="43.342105865479" lon="-7.5510983467102">
        <ele>437</ele>
        <time>2019-09-11T08:09:20+00:00</time>
      </trkpt>
      <trkpt lat="43.342098236084" lon="-7.551121711731">
        <ele>437</ele>
        <time>2019-09-11T08:09:21+00:00</time>
      </trkpt>
      <trkpt lat="43.342094421387" lon="-7.5511431694031">
        <ele>437</ele>
        <time>2019-09-11T08:09:22+00:00</time>
      </trkpt>
      <trkpt lat="43.342086791992" lon="-7.5511617660522">
        <ele>437</ele>
        <time>2019-09-11T08:09:23+00:00</time>
      </trkpt>
      <trkpt lat="43.342086791992" lon="-7.5511932373047">
        <ele>437</ele>
        <time>2019-09-11T08:09:24+00:00</time>
      </trkpt>
      <trkpt lat="43.342086791992" lon="-7.5512132644653">
        <ele>437</ele>
        <time>2019-09-11T08:09:25+00:00</time>
      </trkpt>
      <trkpt lat="43.342086791992" lon="-7.551233291626">
        <ele>438</ele>
        <time>2019-09-11T08:09:26+00:00</time>
      </trkpt>
      <trkpt lat="43.342082977295" lon="-7.5512452125549">
        <ele>438</ele>
        <time>2019-09-11T08:09:27+00:00</time>
      </trkpt>
      <trkpt lat="43.342086791992" lon="-7.5512552261353">
        <ele>438</ele>
        <time>2019-09-11T08:09:28+00:00</time>
      </trkpt>
      <trkpt lat="43.342086791992" lon="-7.5512681007385">
        <ele>438</ele>
        <time>2019-09-11T08:09:29+00:00</time>
      </trkpt>
      <trkpt lat="43.342098236084" lon="-7.5512747764587">
        <ele>438</ele>
        <time>2019-09-11T08:09:30+00:00</time>
      </trkpt>
      <trkpt lat="43.342090606689" lon="-7.5512781143188">
        <ele>438</ele>
        <time>2019-09-11T08:09:31+00:00</time>
      </trkpt>
      <trkpt lat="43.3420753479" lon="-7.5513033866882">
        <ele>438</ele>
        <time>2019-09-11T08:09:32+00:00</time>
      </trkpt>
      <trkpt lat="43.342071533203" lon="-7.5513215065002">
        <ele>439</ele>
        <time>2019-09-11T08:09:33+00:00</time>
      </trkpt>
      <trkpt lat="43.342067718506" lon="-7.5513315200806">
        <ele>439</ele>
        <time>2019-09-11T08:09:34+00:00</time>
      </trkpt>
      <trkpt lat="43.342056274414" lon="-7.5513501167297">
        <ele>439</ele>
        <time>2019-09-11T08:09:35+00:00</time>
      </trkpt>
      <trkpt lat="43.34204864502" lon="-7.5513701438904">
        <ele>439</ele>
        <time>2019-09-11T08:09:36+00:00</time>
      </trkpt>
      <trkpt lat="43.34204864502" lon="-7.5513949394226">
        <ele>439</ele>
        <time>2019-09-11T08:09:37+00:00</time>
      </trkpt>
      <trkpt lat="43.34204864502" lon="-7.5514168739319">
        <ele>439</ele>
        <time>2019-09-11T08:09:38+00:00</time>
      </trkpt>
      <trkpt lat="43.342056274414" lon="-7.5514349937439">
        <ele>439</ele>
        <time>2019-09-11T08:09:39+00:00</time>
      </trkpt>
      <trkpt lat="43.342056274414" lon="-7.5514516830444">
        <ele>439</ele>
        <time>2019-09-11T08:09:40+00:00</time>
      </trkpt>
      <trkpt lat="43.342060089111" lon="-7.5514650344849">
        <ele>439</ele>
        <time>2019-09-11T08:09:41+00:00</time>
      </trkpt>
      <trkpt lat="43.342052459717" lon="-7.5514717102051">
        <ele>440</ele>
        <time>2019-09-11T08:09:42+00:00</time>
      </trkpt>
      <trkpt lat="43.342060089111" lon="-7.5514650344849">
        <ele>439</ele>
        <time>2019-09-11T08:09:43+00:00</time>
      </trkpt>
      <trkpt lat="43.342060089111" lon="-7.5514650344849">
        <ele>439</ele>
        <time>2019-09-11T08:09:44+00:00</time>
      </trkpt>
      <trkpt lat="43.342056274414" lon="-7.5514798164368">
        <ele>439</ele>
        <time>2019-09-11T08:09:45+00:00</time>
      </trkpt>
      <trkpt lat="43.342060089111" lon="-7.551501750946">
        <ele>439</ele>
        <time>2019-09-11T08:09:46+00:00</time>
      </trkpt>
      <trkpt lat="43.342067718506" lon="-7.5515184402466">
        <ele>439</ele>
        <time>2019-09-11T08:09:47+00:00</time>
      </trkpt>
      <trkpt lat="43.342079162598" lon="-7.5515398979187">
        <ele>439</ele>
        <time>2019-09-11T08:09:48+00:00</time>
      </trkpt>
      <trkpt lat="43.342082977295" lon="-7.5515518188477">
        <ele>439</ele>
        <time>2019-09-11T08:09:49+00:00</time>
      </trkpt>
      <trkpt lat="43.342086791992" lon="-7.5515651702881">
        <ele>438</ele>
        <time>2019-09-11T08:09:50+00:00</time>
      </trkpt>
      <trkpt lat="43.342090606689" lon="-7.55157995224">
        <ele>438</ele>
        <time>2019-09-11T08:09:51+00:00</time>
      </trkpt>
      <trkpt lat="43.342090606689" lon="-7.5516018867493">
        <ele>439</ele>
        <time>2019-09-11T08:09:52+00:00</time>
      </trkpt>
      <trkpt lat="43.342094421387" lon="-7.5516180992126">
        <ele>439</ele>
        <time>2019-09-11T08:09:53+00:00</time>
      </trkpt>
      <trkpt lat="43.342098236084" lon="-7.5516381263733">
        <ele>439</ele>
        <time>2019-09-11T08:09:54+00:00</time>
      </trkpt>
      <trkpt lat="43.342102050781" lon="-7.5516600608826">
        <ele>439</ele>
        <time>2019-09-11T08:09:55+00:00</time>
      </trkpt>
      <trkpt lat="43.342098236084" lon="-7.5516667366028">
        <ele>439</ele>
        <time>2019-09-11T08:09:56+00:00</time>
      </trkpt>
      <trkpt lat="43.342098236084" lon="-7.5516815185547">
        <ele>439</ele>
        <time>2019-09-11T08:09:57+00:00</time>
      </trkpt>
      <trkpt lat="43.342098236084" lon="-7.5516934394836">
        <ele>439</ele>
        <time>2019-09-11T08:09:58+00:00</time>
      </trkpt>
      <trkpt lat="43.342102050781" lon="-7.5517048835754">
        <ele>439</ele>
        <time>2019-09-11T08:09:59+00:00</time>
      </trkpt>
      <trkpt lat="43.342105865479" lon="-7.5517201423645">
        <ele>439</ele>
        <time>2019-09-11T08:10:00+00:00</time>
      </trkpt>
      <trkpt lat="43.342105865479" lon="-7.551736831665">
        <ele>439</ele>
        <time>2019-09-11T08:10:01+00:00</time>
      </trkpt>
      <trkpt lat="43.342102050781" lon="-7.5517516136169">
        <ele>439</ele>
        <time>2019-09-11T08:10:02+00:00</time>
      </trkpt>
      <trkpt lat="43.342102050781" lon="-7.551766872406">
        <ele>439</ele>
        <time>2019-09-11T08:10:03+00:00</time>
      </trkpt>
      <trkpt lat="43.342098236084" lon="-7.5517816543579">
        <ele>439</ele>
        <time>2019-09-11T08:10:04+00:00</time>
      </trkpt>
      <trkpt lat="43.342090606689" lon="-7.5518016815186">
        <ele>439</ele>
        <time>2019-09-11T08:10:05+00:00</time>
      </trkpt>
      <trkpt lat="43.342090606689" lon="-7.5518164634705">
        <ele>439</ele>
        <time>2019-09-11T08:10:06+00:00</time>
      </trkpt>
      <trkpt lat="43.342090606689" lon="-7.5518364906311">
        <ele>439</ele>
        <time>2019-09-11T08:10:07+00:00</time>
      </trkpt>
      <trkpt lat="43.342086791992" lon="-7.5518498420715">
        <ele>439</ele>
        <time>2019-09-11T08:10:08+00:00</time>
      </trkpt>
      <trkpt lat="43.342079162598" lon="-7.5518550872803">
        <ele>439</ele>
        <time>2019-09-11T08:10:09+00:00</time>
      </trkpt>
      <trkpt lat="43.342079162598" lon="-7.551863193512">
        <ele>439</ele>
        <time>2019-09-11T08:10:10+00:00</time>
      </trkpt>
      <trkpt lat="43.3420753479" lon="-7.5518798828125">
        <ele>438</ele>
        <time>2019-09-11T08:10:11+00:00</time>
      </trkpt>
      <trkpt lat="43.342067718506" lon="-7.5518984794617">
        <ele>438</ele>
        <time>2019-09-11T08:10:12+00:00</time>
      </trkpt>
      <trkpt lat="43.342056274414" lon="-7.5519118309021">
        <ele>438</ele>
        <time>2019-09-11T08:10:13+00:00</time>
      </trkpt>
      <trkpt lat="43.342044830322" lon="-7.5519399642944">
        <ele>438</ele>
        <time>2019-09-11T08:10:14+00:00</time>
      </trkpt>
      <trkpt lat="43.342037200928" lon="-7.5519599914551">
        <ele>438</ele>
        <time>2019-09-11T08:10:15+00:00</time>
      </trkpt>
      <trkpt lat="43.342029571533" lon="-7.5519733428955">
        <ele>438</ele>
        <time>2019-09-11T08:10:16+00:00</time>
      </trkpt>
      <trkpt lat="43.342018127441" lon="-7.5519814491272">
        <ele>438</ele>
        <time>2019-09-11T08:10:17+00:00</time>
      </trkpt>
      <trkpt lat="43.342014312744" lon="-7.5519847869873">
        <ele>438</ele>
        <time>2019-09-11T08:10:18+00:00</time>
      </trkpt>
      <trkpt lat="43.342002868652" lon="-7.5519933700562">
        <ele>438</ele>
        <time>2019-09-11T08:10:19+00:00</time>
      </trkpt>
      <trkpt lat="43.341991424561" lon="-7.5520114898682">
        <ele>438</ele>
        <time>2019-09-11T08:10:20+00:00</time>
      </trkpt>
      <trkpt lat="43.341979980469" lon="-7.5520248413086">
        <ele>438</ele>
        <time>2019-09-11T08:10:21+00:00</time>
      </trkpt>
      <trkpt lat="43.341972351074" lon="-7.5520448684692">
        <ele>438</ele>
        <time>2019-09-11T08:10:22+00:00</time>
      </trkpt>
      <trkpt lat="43.341953277588" lon="-7.5520668029785">
        <ele>436</ele>
        <time>2019-09-11T08:10:23+00:00</time>
      </trkpt>
      <trkpt lat="43.341941833496" lon="-7.5520734786987">
        <ele>435</ele>
        <time>2019-09-11T08:10:24+00:00</time>
      </trkpt>
      <trkpt lat="43.341934204102" lon="-7.5520901679993">
        <ele>434</ele>
        <time>2019-09-11T08:10:25+00:00</time>
      </trkpt>
      <trkpt lat="43.341926574707" lon="-7.552098274231">
        <ele>434</ele>
        <time>2019-09-11T08:10:26+00:00</time>
      </trkpt>
      <trkpt lat="43.341918945312" lon="-7.5521001815796">
        <ele>433</ele>
        <time>2019-09-11T08:10:27+00:00</time>
      </trkpt>
      <trkpt lat="43.341911315918" lon="-7.5521035194397">
        <ele>433</ele>
        <time>2019-09-11T08:10:28+00:00</time>
      </trkpt>
      <trkpt lat="43.341899871826" lon="-7.5521149635315">
        <ele>432</ele>
        <time>2019-09-11T08:10:29+00:00</time>
      </trkpt>
      <trkpt lat="43.341892242432" lon="-7.5521249771118">
        <ele>432</ele>
        <time>2019-09-11T08:10:30+00:00</time>
      </trkpt>
      <trkpt lat="43.34188079834" lon="-7.5521416664124">
        <ele>432</ele>
        <time>2019-09-11T08:10:31+00:00</time>
      </trkpt>
      <trkpt lat="43.341869354248" lon="-7.5521531105042">
        <ele>433</ele>
        <time>2019-09-11T08:10:32+00:00</time>
      </trkpt>
      <trkpt lat="43.341861724854" lon="-7.5521631240845">
        <ele>433</ele>
        <time>2019-09-11T08:10:33+00:00</time>
      </trkpt>
      <trkpt lat="43.341857910156" lon="-7.5521750450134">
        <ele>433</ele>
        <time>2019-09-11T08:10:34+00:00</time>
      </trkpt>
      <trkpt lat="43.341846466064" lon="-7.5521965026855">
        <ele>433</ele>
        <time>2019-09-11T08:10:35+00:00</time>
      </trkpt>
      <trkpt lat="43.34183883667" lon="-7.5522117614746">
        <ele>433</ele>
        <time>2019-09-11T08:10:36+00:00</time>
      </trkpt>
      <trkpt lat="43.341831207275" lon="-7.5522198677063">
        <ele>433</ele>
        <time>2019-09-11T08:10:37+00:00</time>
      </trkpt>
      <trkpt lat="43.341819763184" lon="-7.5522317886353">
        <ele>434</ele>
        <time>2019-09-11T08:10:38+00:00</time>
      </trkpt>
      <trkpt lat="43.341808319092" lon="-7.5522432327271">
        <ele>434</ele>
        <time>2019-09-11T08:10:39+00:00</time>
      </trkpt>
      <trkpt lat="43.341800689697" lon="-7.552255153656">
        <ele>434</ele>
        <time>2019-09-11T08:10:40+00:00</time>
      </trkpt>
      <trkpt lat="43.341793060303" lon="-7.552273273468">
        <ele>434</ele>
        <time>2019-09-11T08:10:41+00:00</time>
      </trkpt>
      <trkpt lat="43.341781616211" lon="-7.5522899627686">
        <ele>434</ele>
        <time>2019-09-11T08:10:42+00:00</time>
      </trkpt>
      <trkpt lat="43.341777801514" lon="-7.552303314209">
        <ele>434</ele>
        <time>2019-09-11T08:10:43+00:00</time>
      </trkpt>
      <trkpt lat="43.341770172119" lon="-7.5523133277893">
        <ele>434</ele>
        <time>2019-09-11T08:10:44+00:00</time>
      </trkpt>
      <trkpt lat="43.341758728027" lon="-7.552321434021">
        <ele>435</ele>
        <time>2019-09-11T08:10:45+00:00</time>
      </trkpt>
      <trkpt lat="43.341747283936" lon="-7.5523347854614">
        <ele>435</ele>
        <time>2019-09-11T08:10:46+00:00</time>
      </trkpt>
      <trkpt lat="43.341735839844" lon="-7.5523467063904">
        <ele>435</ele>
        <time>2019-09-11T08:10:47+00:00</time>
      </trkpt>
      <trkpt lat="43.341728210449" lon="-7.552351474762">
        <ele>435</ele>
        <time>2019-09-11T08:10:48+00:00</time>
      </trkpt>
      <trkpt lat="43.341716766357" lon="-7.5523600578308">
        <ele>435</ele>
        <time>2019-09-11T08:10:49+00:00</time>
      </trkpt>
      <trkpt lat="43.341709136963" lon="-7.5523715019226">
        <ele>435</ele>
        <time>2019-09-11T08:10:50+00:00</time>
      </trkpt>
      <trkpt lat="43.341701507568" lon="-7.5523834228516">
        <ele>435</ele>
        <time>2019-09-11T08:10:51+00:00</time>
      </trkpt>
      <trkpt lat="43.341693878174" lon="-7.5523948669434">
        <ele>435</ele>
        <time>2019-09-11T08:10:52+00:00</time>
      </trkpt>
      <trkpt lat="43.341682434082" lon="-7.5524082183838">
        <ele>435</ele>
        <time>2019-09-11T08:10:53+00:00</time>
      </trkpt>
      <trkpt lat="43.341674804688" lon="-7.5524168014526">
        <ele>435</ele>
        <time>2019-09-11T08:10:54+00:00</time>
      </trkpt>
      <trkpt lat="43.341667175293" lon="-7.5524349212646">
        <ele>435</ele>
        <time>2019-09-11T08:10:55+00:00</time>
      </trkpt>
      <trkpt lat="43.341663360596" lon="-7.5524582862854">
        <ele>435</ele>
        <time>2019-09-11T08:10:56+00:00</time>
      </trkpt>
      <trkpt lat="43.341659545898" lon="-7.5524702072144">
        <ele>435</ele>
        <time>2019-09-11T08:10:57+00:00</time>
      </trkpt>
      <trkpt lat="43.341636657715" lon="-7.5524682998657">
        <ele>435</ele>
        <time>2019-09-11T08:10:58+00:00</time>
      </trkpt>
      <trkpt lat="43.341625213623" lon="-7.5524802207947">
        <ele>435</ele>
        <time>2019-09-11T08:10:59+00:00</time>
      </trkpt>
      <trkpt lat="43.341617584229" lon="-7.5524950027466">
        <ele>435</ele>
        <time>2019-09-11T08:11:00+00:00</time>
      </trkpt>
      <trkpt lat="43.341606140137" lon="-7.5524983406067">
        <ele>435</ele>
        <time>2019-09-11T08:11:01+00:00</time>
      </trkpt>
      <trkpt lat="43.341598510742" lon="-7.5525064468384">
        <ele>435</ele>
        <time>2019-09-11T08:11:02+00:00</time>
      </trkpt>
      <trkpt lat="43.34158706665" lon="-7.5525164604187">
        <ele>435</ele>
        <time>2019-09-11T08:11:03+00:00</time>
      </trkpt>
      <trkpt lat="43.341575622559" lon="-7.5525350570679">
        <ele>436</ele>
        <time>2019-09-11T08:11:04+00:00</time>
      </trkpt>
      <trkpt lat="43.341571807861" lon="-7.5525498390198">
        <ele>436</ele>
        <time>2019-09-11T08:11:05+00:00</time>
      </trkpt>
      <trkpt lat="43.34156036377" lon="-7.5525617599487">
        <ele>436</ele>
        <time>2019-09-11T08:11:06+00:00</time>
      </trkpt>
      <trkpt lat="43.341552734375" lon="-7.5525751113892">
        <ele>436</ele>
        <time>2019-09-11T08:11:07+00:00</time>
      </trkpt>
      <trkpt lat="43.34154510498" lon="-7.5525898933411">
        <ele>436</ele>
        <time>2019-09-11T08:11:08+00:00</time>
      </trkpt>
      <trkpt lat="43.341537475586" lon="-7.55260181427">
        <ele>436</ele>
        <time>2019-09-11T08:11:09+00:00</time>
      </trkpt>
      <trkpt lat="43.341526031494" lon="-7.5526118278503">
        <ele>436</ele>
        <time>2019-09-11T08:11:10+00:00</time>
      </trkpt>
      <trkpt lat="43.341514587402" lon="-7.552619934082">
        <ele>436</ele>
        <time>2019-09-11T08:11:11+00:00</time>
      </trkpt>
      <trkpt lat="43.341499328613" lon="-7.5526251792908">
        <ele>436</ele>
        <time>2019-09-11T08:11:12+00:00</time>
      </trkpt>
      <trkpt lat="43.341491699219" lon="-7.5526251792908">
        <ele>436</ele>
        <time>2019-09-11T08:11:13+00:00</time>
      </trkpt>
      <trkpt lat="43.341480255127" lon="-7.5526185035706">
        <ele>436</ele>
        <time>2019-09-11T08:11:14+00:00</time>
      </trkpt>
      <trkpt lat="43.34147644043" lon="-7.5526151657104">
        <ele>436</ele>
        <time>2019-09-11T08:11:15+00:00</time>
      </trkpt>
      <trkpt lat="43.341468811035" lon="-7.5526099205017">
        <ele>436</ele>
        <time>2019-09-11T08:11:16+00:00</time>
      </trkpt>
      <trkpt lat="43.341457366943" lon="-7.5526151657104">
        <ele>436</ele>
        <time>2019-09-11T08:11:17+00:00</time>
      </trkpt>
      <trkpt lat="43.341445922852" lon="-7.5526232719421">
        <ele>436</ele>
        <time>2019-09-11T08:11:18+00:00</time>
      </trkpt>
      <trkpt lat="43.341438293457" lon="-7.552631855011">
        <ele>435</ele>
        <time>2019-09-11T08:11:19+00:00</time>
      </trkpt>
      <trkpt lat="43.341426849365" lon="-7.5526432991028">
        <ele>435</ele>
        <time>2019-09-11T08:11:20+00:00</time>
      </trkpt>
      <trkpt lat="43.341411590576" lon="-7.5526466369629">
        <ele>435</ele>
        <time>2019-09-11T08:11:21+00:00</time>
      </trkpt>
      <trkpt lat="43.341400146484" lon="-7.552661895752">
        <ele>435</ele>
        <time>2019-09-11T08:11:22+00:00</time>
      </trkpt>
      <trkpt lat="43.341388702393" lon="-7.5526685714722">
        <ele>435</ele>
        <time>2019-09-11T08:11:23+00:00</time>
      </trkpt>
      <trkpt lat="43.341377258301" lon="-7.5526847839355">
        <ele>435</ele>
        <time>2019-09-11T08:11:24+00:00</time>
      </trkpt>
      <trkpt lat="43.341358184814" lon="-7.5527000427246">
        <ele>435</ele>
        <time>2019-09-11T08:11:25+00:00</time>
      </trkpt>
      <trkpt lat="43.341354370117" lon="-7.5527067184448">
        <ele>435</ele>
        <time>2019-09-11T08:11:26+00:00</time>
      </trkpt>
      <trkpt lat="43.341346740723" lon="-7.5527100563049">
        <ele>435</ele>
        <time>2019-09-11T08:11:27+00:00</time>
      </trkpt>
      <trkpt lat="43.341327667236" lon="-7.5527181625366">
        <ele>435</ele>
        <time>2019-09-11T08:11:28+00:00</time>
      </trkpt>
      <trkpt lat="43.341316223145" lon="-7.5527367591858">
        <ele>435</ele>
        <time>2019-09-11T08:11:29+00:00</time>
      </trkpt>
      <trkpt lat="43.341316223145" lon="-7.5527501106262">
        <ele>435</ele>
        <time>2019-09-11T08:11:30+00:00</time>
      </trkpt>
      <trkpt lat="43.341312408447" lon="-7.5527601242065">
        <ele>435</ele>
        <time>2019-09-11T08:11:31+00:00</time>
      </trkpt>
      <trkpt lat="43.34130859375" lon="-7.5527715682983">
        <ele>435</ele>
        <time>2019-09-11T08:11:32+00:00</time>
      </trkpt>
      <trkpt lat="43.341297149658" lon="-7.5527849197388">
        <ele>435</ele>
        <time>2019-09-11T08:11:33+00:00</time>
      </trkpt>
      <trkpt lat="43.341289520264" lon="-7.5528035163879">
        <ele>434</ele>
        <time>2019-09-11T08:11:34+00:00</time>
      </trkpt>
      <trkpt lat="43.341281890869" lon="-7.5528182983398">
        <ele>434</ele>
        <time>2019-09-11T08:11:35+00:00</time>
      </trkpt>
      <trkpt lat="43.341281890869" lon="-7.552836894989">
        <ele>434</ele>
        <time>2019-09-11T08:11:36+00:00</time>
      </trkpt>
      <trkpt lat="43.341270446777" lon="-7.5528583526611">
        <ele>434</ele>
        <time>2019-09-11T08:11:37+00:00</time>
      </trkpt>
      <trkpt lat="43.341262817383" lon="-7.5528750419617">
        <ele>434</ele>
        <time>2019-09-11T08:11:38+00:00</time>
      </trkpt>
      <trkpt lat="43.341255187988" lon="-7.5528931617737">
        <ele>434</ele>
        <time>2019-09-11T08:11:39+00:00</time>
      </trkpt>
      <trkpt lat="43.341247558594" lon="-7.5528964996338">
        <ele>434</ele>
        <time>2019-09-11T08:11:40+00:00</time>
      </trkpt>
      <trkpt lat="43.341239929199" lon="-7.5529098510742">
        <ele>434</ele>
        <time>2019-09-11T08:11:41+00:00</time>
      </trkpt>
      <trkpt lat="43.341228485107" lon="-7.5529265403748">
        <ele>434</ele>
        <time>2019-09-11T08:11:42+00:00</time>
      </trkpt>
      <trkpt lat="43.341213226318" lon="-7.5529417991638">
        <ele>434</ele>
        <time>2019-09-11T08:11:43+00:00</time>
      </trkpt>
      <trkpt lat="43.341201782227" lon="-7.5529551506042">
        <ele>434</ele>
        <time>2019-09-11T08:11:44+00:00</time>
      </trkpt>
      <trkpt lat="43.341194152832" lon="-7.5529718399048">
        <ele>434</ele>
        <time>2019-09-11T08:11:45+00:00</time>
      </trkpt>
      <trkpt lat="43.341186523438" lon="-7.5529866218567">
        <ele>434</ele>
        <time>2019-09-11T08:11:46+00:00</time>
      </trkpt>
      <trkpt lat="43.341175079346" lon="-7.5530018806458">
        <ele>434</ele>
        <time>2019-09-11T08:11:47+00:00</time>
      </trkpt>
      <trkpt lat="43.341167449951" lon="-7.5530099868774">
        <ele>433</ele>
        <time>2019-09-11T08:11:48+00:00</time>
      </trkpt>
      <trkpt lat="43.341156005859" lon="-7.5530033111572">
        <ele>433</ele>
        <time>2019-09-11T08:11:49+00:00</time>
      </trkpt>
      <trkpt lat="43.341144561768" lon="-7.5530133247375">
        <ele>433</ele>
        <time>2019-09-11T08:11:50+00:00</time>
      </trkpt>
      <trkpt lat="43.341133117676" lon="-7.5530118942261">
        <ele>433</ele>
        <time>2019-09-11T08:11:51+00:00</time>
      </trkpt>
      <trkpt lat="43.341125488281" lon="-7.5530233383179">
        <ele>433</ele>
        <time>2019-09-11T08:11:52+00:00</time>
      </trkpt>
      <trkpt lat="43.341114044189" lon="-7.5530314445496">
        <ele>433</ele>
        <time>2019-09-11T08:11:53+00:00</time>
      </trkpt>
      <trkpt lat="43.341106414795" lon="-7.55304479599">
        <ele>433</ele>
        <time>2019-09-11T08:11:54+00:00</time>
      </trkpt>
      <trkpt lat="43.3410987854" lon="-7.5530548095703">
        <ele>433</ele>
        <time>2019-09-11T08:11:55+00:00</time>
      </trkpt>
      <trkpt lat="43.341083526611" lon="-7.5530667304993">
        <ele>433</ele>
        <time>2019-09-11T08:11:56+00:00</time>
      </trkpt>
      <trkpt lat="43.341075897217" lon="-7.5530767440796">
        <ele>433</ele>
        <time>2019-09-11T08:11:57+00:00</time>
      </trkpt>
      <trkpt lat="43.341068267822" lon="-7.5530867576599">
        <ele>433</ele>
        <time>2019-09-11T08:11:58+00:00</time>
      </trkpt>
      <trkpt lat="43.341060638428" lon="-7.5530915260315">
        <ele>433</ele>
        <time>2019-09-11T08:11:59+00:00</time>
      </trkpt>
      <trkpt lat="43.341053009033" lon="-7.5530967712402">
        <ele>433</ele>
        <time>2019-09-11T08:12:00+00:00</time>
      </trkpt>
      <trkpt lat="43.341045379639" lon="-7.5531048774719">
        <ele>433</ele>
        <time>2019-09-11T08:12:01+00:00</time>
      </trkpt>
      <trkpt lat="43.341037750244" lon="-7.553108215332">
        <ele>433</ele>
        <time>2019-09-11T08:12:02+00:00</time>
      </trkpt>
      <trkpt lat="43.341026306152" lon="-7.5531134605408">
        <ele>433</ele>
        <time>2019-09-11T08:12:03+00:00</time>
      </trkpt>
      <trkpt lat="43.341022491455" lon="-7.553108215332">
        <ele>433</ele>
        <time>2019-09-11T08:12:04+00:00</time>
      </trkpt>
      <trkpt lat="43.341011047363" lon="-7.5531167984009">
        <ele>433</ele>
        <time>2019-09-11T08:12:05+00:00</time>
      </trkpt>
      <trkpt lat="43.341007232666" lon="-7.5531282424927">
        <ele>433</ele>
        <time>2019-09-11T08:12:06+00:00</time>
      </trkpt>
      <trkpt lat="43.340999603271" lon="-7.5531435012817">
        <ele>433</ele>
        <time>2019-09-11T08:12:07+00:00</time>
      </trkpt>
      <trkpt lat="43.34098815918" lon="-7.5531549453735">
        <ele>433</ele>
        <time>2019-09-11T08:12:08+00:00</time>
      </trkpt>
      <trkpt lat="43.340976715088" lon="-7.5531716346741">
        <ele>433</ele>
        <time>2019-09-11T08:12:09+00:00</time>
      </trkpt>
      <trkpt lat="43.340972900391" lon="-7.5531849861145">
        <ele>433</ele>
        <time>2019-09-11T08:12:10+00:00</time>
      </trkpt>
      <trkpt lat="43.340961456299" lon="-7.5531935691833">
        <ele>433</ele>
        <time>2019-09-11T08:12:11+00:00</time>
      </trkpt>
      <trkpt lat="43.340950012207" lon="-7.5532050132751">
        <ele>433</ele>
        <time>2019-09-11T08:12:12+00:00</time>
      </trkpt>
      <trkpt lat="43.340938568115" lon="-7.5532150268555">
        <ele>432</ele>
        <time>2019-09-11T08:12:13+00:00</time>
      </trkpt>
      <trkpt lat="43.340930938721" lon="-7.5532231330872">
        <ele>432</ele>
        <time>2019-09-11T08:12:14+00:00</time>
      </trkpt>
      <trkpt lat="43.340915679932" lon="-7.5532283782959">
        <ele>432</ele>
        <time>2019-09-11T08:12:15+00:00</time>
      </trkpt>
      <trkpt lat="43.340908050537" lon="-7.5532283782959">
        <ele>432</ele>
        <time>2019-09-11T08:12:16+00:00</time>
      </trkpt>
      <trkpt lat="43.340896606445" lon="-7.5532350540161">
        <ele>432</ele>
        <time>2019-09-11T08:12:17+00:00</time>
      </trkpt>
      <trkpt lat="43.340885162354" lon="-7.5532364845276">
        <ele>432</ele>
        <time>2019-09-11T08:12:18+00:00</time>
      </trkpt>
      <trkpt lat="43.340873718262" lon="-7.5532464981079">
        <ele>432</ele>
        <time>2019-09-11T08:12:19+00:00</time>
      </trkpt>
      <trkpt lat="43.34086227417" lon="-7.5532584190369">
        <ele>432</ele>
        <time>2019-09-11T08:12:20+00:00</time>
      </trkpt>
      <trkpt lat="43.340850830078" lon="-7.5532598495483">
        <ele>432</ele>
        <time>2019-09-11T08:12:21+00:00</time>
      </trkpt>
      <trkpt lat="43.340835571289" lon="-7.5532584190369">
        <ele>432</ele>
        <time>2019-09-11T08:12:22+00:00</time>
      </trkpt>
      <trkpt lat="43.340824127197" lon="-7.5532598495483">
        <ele>432</ele>
        <time>2019-09-11T08:12:23+00:00</time>
      </trkpt>
      <trkpt lat="43.340816497803" lon="-7.5532650947571">
        <ele>432</ele>
        <time>2019-09-11T08:12:24+00:00</time>
      </trkpt>
      <trkpt lat="43.340808868408" lon="-7.5532717704773">
        <ele>432</ele>
        <time>2019-09-11T08:12:25+00:00</time>
      </trkpt>
      <trkpt lat="43.340805053711" lon="-7.553279876709">
        <ele>432</ele>
        <time>2019-09-11T08:12:26+00:00</time>
      </trkpt>
      <trkpt lat="43.340789794922" lon="-7.5532851219177">
        <ele>432</ele>
        <time>2019-09-11T08:12:27+00:00</time>
      </trkpt>
      <trkpt lat="43.340782165527" lon="-7.553295135498">
        <ele>432</ele>
        <time>2019-09-11T08:12:28+00:00</time>
      </trkpt>
      <trkpt lat="43.340770721436" lon="-7.5533051490784">
        <ele>432</ele>
        <time>2019-09-11T08:12:29+00:00</time>
      </trkpt>
      <trkpt lat="43.340763092041" lon="-7.5533185005188">
        <ele>432</ele>
        <time>2019-09-11T08:12:30+00:00</time>
      </trkpt>
      <trkpt lat="43.340744018555" lon="-7.5533351898193">
        <ele>432</ele>
        <time>2019-09-11T08:12:31+00:00</time>
      </trkpt>
      <trkpt lat="43.34073638916" lon="-7.5533332824707">
        <ele>432</ele>
        <time>2019-09-11T08:12:32+00:00</time>
      </trkpt>
      <trkpt lat="43.34073638916" lon="-7.5533332824707">
        <ele>432</ele>
        <time>2019-09-11T08:12:33+00:00</time>
      </trkpt>
      <trkpt lat="43.340728759766" lon="-7.5533418655396">
        <ele>432</ele>
        <time>2019-09-11T08:12:34+00:00</time>
      </trkpt>
      <trkpt lat="43.340728759766" lon="-7.5533466339111">
        <ele>432</ele>
        <time>2019-09-11T08:12:35+00:00</time>
      </trkpt>
      <trkpt lat="43.340732574463" lon="-7.5533618927002">
        <ele>432</ele>
        <time>2019-09-11T08:12:36+00:00</time>
      </trkpt>
      <trkpt lat="43.340724945068" lon="-7.5533685684204">
        <ele>432</ele>
        <time>2019-09-11T08:12:37+00:00</time>
      </trkpt>
      <trkpt lat="43.340721130371" lon="-7.5533781051636">
        <ele>432</ele>
        <time>2019-09-11T08:12:38+00:00</time>
      </trkpt>
      <trkpt lat="43.340724945068" lon="-7.5533947944641">
        <ele>432</ele>
        <time>2019-09-11T08:12:39+00:00</time>
      </trkpt>
      <trkpt lat="43.340732574463" lon="-7.5534014701843">
        <ele>431</ele>
        <time>2019-09-11T08:12:40+00:00</time>
      </trkpt>
      <trkpt lat="43.340728759766" lon="-7.553421497345">
        <ele>431</ele>
        <time>2019-09-11T08:12:41+00:00</time>
      </trkpt>
      <trkpt lat="43.340724945068" lon="-7.5534300804138">
        <ele>431</ele>
        <time>2019-09-11T08:12:42+00:00</time>
      </trkpt>
      <trkpt lat="43.340709686279" lon="-7.5534567832947">
        <ele>431</ele>
        <time>2019-09-11T08:12:43+00:00</time>
      </trkpt>
      <trkpt lat="43.340690612793" lon="-7.5534715652466">
        <ele>431</ele>
        <time>2019-09-11T08:12:44+00:00</time>
      </trkpt>
      <trkpt lat="43.340671539307" lon="-7.5534801483154">
        <ele>431</ele>
        <time>2019-09-11T08:12:45+00:00</time>
      </trkpt>
      <trkpt lat="43.340660095215" lon="-7.5535001754761">
        <ele>431</ele>
        <time>2019-09-11T08:12:46+00:00</time>
      </trkpt>
      <trkpt lat="43.340644836426" lon="-7.5535268783569">
        <ele>431</ele>
        <time>2019-09-11T08:12:47+00:00</time>
      </trkpt>
      <trkpt lat="43.340633392334" lon="-7.5535497665405">
        <ele>430</ele>
        <time>2019-09-11T08:12:48+00:00</time>
      </trkpt>
      <trkpt lat="43.340618133545" lon="-7.5535697937012">
        <ele>430</ele>
        <time>2019-09-11T08:12:49+00:00</time>
      </trkpt>
      <trkpt lat="43.340606689453" lon="-7.5535883903503">
        <ele>430</ele>
        <time>2019-09-11T08:12:50+00:00</time>
      </trkpt>
      <trkpt lat="43.340591430664" lon="-7.5536031723022">
        <ele>430</ele>
        <time>2019-09-11T08:12:51+00:00</time>
      </trkpt>
      <trkpt lat="43.340587615967" lon="-7.5535998344421">
        <ele>430</ele>
        <time>2019-09-11T08:12:52+00:00</time>
      </trkpt>
      <trkpt lat="43.340587615967" lon="-7.5536031723022">
        <ele>430</ele>
        <time>2019-09-11T08:12:53+00:00</time>
      </trkpt>
      <trkpt lat="43.340579986572" lon="-7.5535984039307">
        <ele>430</ele>
        <time>2019-09-11T08:12:54+00:00</time>
      </trkpt>
      <trkpt lat="43.34056854248" lon="-7.5535950660706">
        <ele>430</ele>
        <time>2019-09-11T08:12:55+00:00</time>
      </trkpt>
      <trkpt lat="43.340560913086" lon="-7.5535950660706">
        <ele>430</ele>
        <time>2019-09-11T08:12:56+00:00</time>
      </trkpt>
      <trkpt lat="43.340553283691" lon="-7.5536117553711">
        <ele>430</ele>
        <time>2019-09-11T08:12:57+00:00</time>
      </trkpt>
      <trkpt lat="43.3405418396" lon="-7.5536251068115">
        <ele>430</ele>
        <time>2019-09-11T08:12:58+00:00</time>
      </trkpt>
      <trkpt lat="43.340518951416" lon="-7.5536499023438">
        <ele>430</ele>
        <time>2019-09-11T08:12:59+00:00</time>
      </trkpt>
      <trkpt lat="43.340511322021" lon="-7.5536499023438">
        <ele>430</ele>
        <time>2019-09-11T08:13:00+00:00</time>
      </trkpt>
      <trkpt lat="43.34049987793" lon="-7.5536599159241">
        <ele>430</ele>
        <time>2019-09-11T08:13:01+00:00</time>
      </trkpt>
      <trkpt lat="43.340480804443" lon="-7.5536699295044">
        <ele>430</ele>
        <time>2019-09-11T08:13:02+00:00</time>
      </trkpt>
      <trkpt lat="43.340473175049" lon="-7.5536751747131">
        <ele>430</ele>
        <time>2019-09-11T08:13:03+00:00</time>
      </trkpt>
      <trkpt lat="43.340461730957" lon="-7.5536785125732">
        <ele>430</ele>
        <time>2019-09-11T08:13:04+00:00</time>
      </trkpt>
      <trkpt lat="43.340454101562" lon="-7.553671836853">
        <ele>430</ele>
        <time>2019-09-11T08:13:05+00:00</time>
      </trkpt>
      <trkpt lat="43.340442657471" lon="-7.5536751747131">
        <ele>430</ele>
        <time>2019-09-11T08:13:06+00:00</time>
      </trkpt>
      <trkpt lat="43.340442657471" lon="-7.5536684989929">
        <ele>430</ele>
        <time>2019-09-11T08:13:07+00:00</time>
      </trkpt>
      <trkpt lat="43.340431213379" lon="-7.553671836853">
        <ele>430</ele>
        <time>2019-09-11T08:13:08+00:00</time>
      </trkpt>
      <trkpt lat="43.340412139893" lon="-7.5536832809448">
        <ele>430</ele>
        <time>2019-09-11T08:13:09+00:00</time>
      </trkpt>
      <trkpt lat="43.340404510498" lon="-7.553689956665">
        <ele>430</ele>
        <time>2019-09-11T08:13:10+00:00</time>
      </trkpt>
      <trkpt lat="43.340389251709" lon="-7.5537066459656">
        <ele>430</ele>
        <time>2019-09-11T08:13:11+00:00</time>
      </trkpt>
      <trkpt lat="43.340385437012" lon="-7.5537066459656">
        <ele>430</ele>
        <time>2019-09-11T08:13:12+00:00</time>
      </trkpt>
      <trkpt lat="43.340370178223" lon="-7.5537133216858">
        <ele>430</ele>
        <time>2019-09-11T08:13:13+00:00</time>
      </trkpt>
      <trkpt lat="43.340354919434" lon="-7.5537266731262">
        <ele>430</ele>
        <time>2019-09-11T08:13:14+00:00</time>
      </trkpt>
      <trkpt lat="43.340347290039" lon="-7.5537314414978">
        <ele>430</ele>
        <time>2019-09-11T08:13:15+00:00</time>
      </trkpt>
      <trkpt lat="43.340343475342" lon="-7.5537467002869">
        <ele>430</ele>
        <time>2019-09-11T08:13:16+00:00</time>
      </trkpt>
      <trkpt lat="43.340335845947" lon="-7.5537633895874">
        <ele>430</ele>
        <time>2019-09-11T08:13:17+00:00</time>
      </trkpt>
      <trkpt lat="43.340335845947" lon="-7.553768157959">
        <ele>430</ele>
        <time>2019-09-11T08:13:18+00:00</time>
      </trkpt>
      <trkpt lat="43.34033203125" lon="-7.5537734031677">
        <ele>430</ele>
        <time>2019-09-11T08:13:19+00:00</time>
      </trkpt>
      <trkpt lat="43.34033203125" lon="-7.5537815093994">
        <ele>430</ele>
        <time>2019-09-11T08:13:20+00:00</time>
      </trkpt>
      <trkpt lat="43.340324401855" lon="-7.5537900924683">
        <ele>430</ele>
        <time>2019-09-11T08:13:21+00:00</time>
      </trkpt>
      <trkpt lat="43.340324401855" lon="-7.5537881851196">
        <ele>430</ele>
        <time>2019-09-11T08:13:22+00:00</time>
      </trkpt>
      <trkpt lat="43.340316772461" lon="-7.5538001060486">
        <ele>430</ele>
        <time>2019-09-11T08:13:23+00:00</time>
      </trkpt>
      <trkpt lat="43.340301513672" lon="-7.5538201332092">
        <ele>430</ele>
        <time>2019-09-11T08:13:24+00:00</time>
      </trkpt>
      <trkpt lat="43.340293884277" lon="-7.5538415908813">
        <ele>430</ele>
        <time>2019-09-11T08:13:25+00:00</time>
      </trkpt>
      <trkpt lat="43.340282440186" lon="-7.5538649559021">
        <ele>430</ele>
        <time>2019-09-11T08:13:26+00:00</time>
      </trkpt>
      <trkpt lat="43.340270996094" lon="-7.5538783073425">
        <ele>430</ele>
        <time>2019-09-11T08:13:27+00:00</time>
      </trkpt>
      <trkpt lat="43.340259552002" lon="-7.5538969039917">
        <ele>430</ele>
        <time>2019-09-11T08:13:28+00:00</time>
      </trkpt>
      <trkpt lat="43.340251922607" lon="-7.5539064407349">
        <ele>430</ele>
        <time>2019-09-11T08:13:29+00:00</time>
      </trkpt>
      <trkpt lat="43.340240478516" lon="-7.553925037384">
        <ele>430</ele>
        <time>2019-09-11T08:13:30+00:00</time>
      </trkpt>
      <trkpt lat="43.340229034424" lon="-7.5539417266846">
        <ele>430</ele>
        <time>2019-09-11T08:13:31+00:00</time>
      </trkpt>
      <trkpt lat="43.340225219727" lon="-7.5539484024048">
        <ele>430</ele>
        <time>2019-09-11T08:13:32+00:00</time>
      </trkpt>
      <trkpt lat="43.340217590332" lon="-7.5539565086365">
        <ele>430</ele>
        <time>2019-09-11T08:13:33+00:00</time>
      </trkpt>
      <trkpt lat="43.34020614624" lon="-7.5539717674255">
        <ele>430</ele>
        <time>2019-09-11T08:13:34+00:00</time>
      </trkpt>
      <trkpt lat="43.340187072754" lon="-7.5539898872375">
        <ele>430</ele>
        <time>2019-09-11T08:13:35+00:00</time>
      </trkpt>
      <trkpt lat="43.340190887451" lon="-7.5539751052856">
        <ele>430</ele>
        <time>2019-09-11T08:13:36+00:00</time>
      </trkpt>
      <trkpt lat="43.340179443359" lon="-7.5539765357971">
        <ele>430</ele>
        <time>2019-09-11T08:13:37+00:00</time>
      </trkpt>
      <trkpt lat="43.340171813965" lon="-7.5539598464966">
        <ele>430</ele>
        <time>2019-09-11T08:13:38+00:00</time>
      </trkpt>
      <trkpt lat="43.340156555176" lon="-7.5539617538452">
        <ele>430</ele>
        <time>2019-09-11T08:13:39+00:00</time>
      </trkpt>
      <trkpt lat="43.340141296387" lon="-7.5539617538452">
        <ele>430</ele>
        <time>2019-09-11T08:13:40+00:00</time>
      </trkpt>
      <trkpt lat="43.3401222229" lon="-7.553973197937">
        <ele>429</ele>
        <time>2019-09-11T08:13:41+00:00</time>
      </trkpt>
      <trkpt lat="43.340118408203" lon="-7.5539631843567">
        <ele>429</ele>
        <time>2019-09-11T08:13:42+00:00</time>
      </trkpt>
      <trkpt lat="43.340099334717" lon="-7.5539698600769">
        <ele>429</ele>
        <time>2019-09-11T08:13:43+00:00</time>
      </trkpt>
      <trkpt lat="43.340091705322" lon="-7.5539751052856">
        <ele>429</ele>
        <time>2019-09-11T08:13:44+00:00</time>
      </trkpt>
      <trkpt lat="43.340084075928" lon="-7.5539984703064">
        <ele>429</ele>
        <time>2019-09-11T08:13:45+00:00</time>
      </trkpt>
      <trkpt lat="43.340076446533" lon="-7.5540118217468">
        <ele>429</ele>
        <time>2019-09-11T08:13:46+00:00</time>
      </trkpt>
      <trkpt lat="43.340057373047" lon="-7.5540432929993">
        <ele>429</ele>
        <time>2019-09-11T08:13:47+00:00</time>
      </trkpt>
      <trkpt lat="43.340038299561" lon="-7.5540747642517">
        <ele>429</ele>
        <time>2019-09-11T08:13:48+00:00</time>
      </trkpt>
      <trkpt lat="43.340026855469" lon="-7.5541033744812">
        <ele>429</ele>
        <time>2019-09-11T08:13:49+00:00</time>
      </trkpt>
      <trkpt lat="43.34001159668" lon="-7.554126739502">
        <ele>429</ele>
        <time>2019-09-11T08:13:50+00:00</time>
      </trkpt>
      <trkpt lat="43.340000152588" lon="-7.5541481971741">
        <ele>429</ele>
        <time>2019-09-11T08:13:51+00:00</time>
      </trkpt>
      <trkpt lat="43.339992523193" lon="-7.5541682243347">
        <ele>429</ele>
        <time>2019-09-11T08:13:52+00:00</time>
      </trkpt>
      <trkpt lat="43.339988708496" lon="-7.554178237915">
        <ele>429</ele>
        <time>2019-09-11T08:13:53+00:00</time>
      </trkpt>
      <trkpt lat="43.339984893799" lon="-7.5541949272156">
        <ele>429</ele>
        <time>2019-09-11T08:13:54+00:00</time>
      </trkpt>
      <trkpt lat="43.339977264404" lon="-7.5542049407959">
        <ele>428</ele>
        <time>2019-09-11T08:13:55+00:00</time>
      </trkpt>
      <trkpt lat="43.339965820312" lon="-7.554220199585">
        <ele>428</ele>
        <time>2019-09-11T08:13:56+00:00</time>
      </trkpt>
      <trkpt lat="43.339954376221" lon="-7.5542349815369">
        <ele>428</ele>
        <time>2019-09-11T08:13:57+00:00</time>
      </trkpt>
      <trkpt lat="43.339946746826" lon="-7.5542335510254">
        <ele>428</ele>
        <time>2019-09-11T08:13:58+00:00</time>
      </trkpt>
      <trkpt lat="43.339935302734" lon="-7.5542516708374">
        <ele>428</ele>
        <time>2019-09-11T08:13:59+00:00</time>
      </trkpt>
      <trkpt lat="43.33992767334" lon="-7.5542616844177">
        <ele>428</ele>
        <time>2019-09-11T08:14:00+00:00</time>
      </trkpt>
      <trkpt lat="43.339920043945" lon="-7.554271697998">
        <ele>428</ele>
        <time>2019-09-11T08:14:01+00:00</time>
      </trkpt>
      <trkpt lat="43.339912414551" lon="-7.5542783737183">
        <ele>428</ele>
        <time>2019-09-11T08:14:02+00:00</time>
      </trkpt>
      <trkpt lat="43.339897155762" lon="-7.5542883872986">
        <ele>428</ele>
        <time>2019-09-11T08:14:03+00:00</time>
      </trkpt>
      <trkpt lat="43.33988571167" lon="-7.5542984008789">
        <ele>428</ele>
        <time>2019-09-11T08:14:04+00:00</time>
      </trkpt>
      <trkpt lat="43.339874267578" lon="-7.5543131828308">
        <ele>428</ele>
        <time>2019-09-11T08:14:05+00:00</time>
      </trkpt>
      <trkpt lat="43.339866638184" lon="-7.5543231964111">
        <ele>428</ele>
        <time>2019-09-11T08:14:06+00:00</time>
      </trkpt>
      <trkpt lat="43.339855194092" lon="-7.5543298721313">
        <ele>428</ele>
        <time>2019-09-11T08:14:07+00:00</time>
      </trkpt>
      <trkpt lat="43.339839935303" lon="-7.5543365478516">
        <ele>428</ele>
        <time>2019-09-11T08:14:08+00:00</time>
      </trkpt>
      <trkpt lat="43.339820861816" lon="-7.5543417930603">
        <ele>428</ele>
        <time>2019-09-11T08:14:09+00:00</time>
      </trkpt>
      <trkpt lat="43.339805603027" lon="-7.5543451309204">
        <ele>428</ele>
        <time>2019-09-11T08:14:10+00:00</time>
      </trkpt>
      <trkpt lat="43.339790344238" lon="-7.5543518066406">
        <ele>428</ele>
        <time>2019-09-11T08:14:11+00:00</time>
      </trkpt>
      <trkpt lat="43.339778900146" lon="-7.5543599128723">
        <ele>428</ele>
        <time>2019-09-11T08:14:12+00:00</time>
      </trkpt>
      <trkpt lat="43.339767456055" lon="-7.5543584823608">
        <ele>429</ele>
        <time>2019-09-11T08:14:13+00:00</time>
      </trkpt>
      <trkpt lat="43.33975982666" lon="-7.5543599128723">
        <ele>429</ele>
        <time>2019-09-11T08:14:14+00:00</time>
      </trkpt>
      <trkpt lat="43.339752197266" lon="-7.5543684959412">
        <ele>429</ele>
        <time>2019-09-11T08:14:15+00:00</time>
      </trkpt>
      <trkpt lat="43.339748382568" lon="-7.5543751716614">
        <ele>429</ele>
        <time>2019-09-11T08:14:16+00:00</time>
      </trkpt>
      <trkpt lat="43.339740753174" lon="-7.554379940033">
        <ele>429</ele>
        <time>2019-09-11T08:14:17+00:00</time>
      </trkpt>
      <trkpt lat="43.339736938477" lon="-7.5543866157532">
        <ele>429</ele>
        <time>2019-09-11T08:14:18+00:00</time>
      </trkpt>
      <trkpt lat="43.339733123779" lon="-7.5543966293335">
        <ele>429</ele>
        <time>2019-09-11T08:14:19+00:00</time>
      </trkpt>
      <trkpt lat="43.339733123779" lon="-7.5544066429138">
        <ele>429</ele>
        <time>2019-09-11T08:14:20+00:00</time>
      </trkpt>
      <trkpt lat="43.339721679688" lon="-7.5544185638428">
        <ele>430</ele>
        <time>2019-09-11T08:14:21+00:00</time>
      </trkpt>
      <trkpt lat="43.33971786499" lon="-7.5544247627258">
        <ele>430</ele>
        <time>2019-09-11T08:14:22+00:00</time>
      </trkpt>
      <trkpt lat="43.339714050293" lon="-7.5544381141663">
        <ele>430</ele>
        <time>2019-09-11T08:14:23+00:00</time>
      </trkpt>
      <trkpt lat="43.339706420898" lon="-7.5544500350952">
        <ele>430</ele>
        <time>2019-09-11T08:14:24+00:00</time>
      </trkpt>
      <trkpt lat="43.339691162109" lon="-7.5544548034668">
        <ele>430</ele>
        <time>2019-09-11T08:14:25+00:00</time>
      </trkpt>
      <trkpt lat="43.339664459229" lon="-7.5544714927673">
        <ele>430</ele>
        <time>2019-09-11T08:14:26+00:00</time>
      </trkpt>
      <trkpt lat="43.339641571045" lon="-7.5544867515564">
        <ele>430</ele>
        <time>2019-09-11T08:14:27+00:00</time>
      </trkpt>
      <trkpt lat="43.339626312256" lon="-7.5545015335083">
        <ele>430</ele>
        <time>2019-09-11T08:14:28+00:00</time>
      </trkpt>
      <trkpt lat="43.33960723877" lon="-7.5545167922974">
        <ele>430</ele>
        <time>2019-09-11T08:14:29+00:00</time>
      </trkpt>
      <trkpt lat="43.339595794678" lon="-7.5545282363892">
        <ele>430</ele>
        <time>2019-09-11T08:14:30+00:00</time>
      </trkpt>
      <trkpt lat="43.339576721191" lon="-7.5545334815979">
        <ele>430</ele>
        <time>2019-09-11T08:14:31+00:00</time>
      </trkpt>
      <trkpt lat="43.339561462402" lon="-7.5545415878296">
        <ele>430</ele>
        <time>2019-09-11T08:14:32+00:00</time>
      </trkpt>
      <trkpt lat="43.339557647705" lon="-7.5545468330383">
        <ele>430</ele>
        <time>2019-09-11T08:14:33+00:00</time>
      </trkpt>
      <trkpt lat="43.339546203613" lon="-7.5545535087585">
        <ele>430</ele>
        <time>2019-09-11T08:14:34+00:00</time>
      </trkpt>
      <trkpt lat="43.339530944824" lon="-7.5545649528503">
        <ele>431</ele>
        <time>2019-09-11T08:14:35+00:00</time>
      </trkpt>
      <trkpt lat="43.33952331543" lon="-7.5545716285706">
        <ele>431</ele>
        <time>2019-09-11T08:14:36+00:00</time>
      </trkpt>
      <trkpt lat="43.339519500732" lon="-7.5545768737793">
        <ele>431</ele>
        <time>2019-09-11T08:14:37+00:00</time>
      </trkpt>
      <trkpt lat="43.339515686035" lon="-7.5545749664307">
        <ele>431</ele>
        <time>2019-09-11T08:14:38+00:00</time>
      </trkpt>
      <trkpt lat="43.339511871338" lon="-7.5545749664307">
        <ele>431</ele>
        <time>2019-09-11T08:14:39+00:00</time>
      </trkpt>
      <trkpt lat="43.339500427246" lon="-7.5545802116394">
        <ele>431</ele>
        <time>2019-09-11T08:14:40+00:00</time>
      </trkpt>
      <trkpt lat="43.339492797852" lon="-7.5545768737793">
        <ele>431</ele>
        <time>2019-09-11T08:14:41+00:00</time>
      </trkpt>
      <trkpt lat="43.339485168457" lon="-7.554584980011">
        <ele>431</ele>
        <time>2019-09-11T08:14:42+00:00</time>
      </trkpt>
      <trkpt lat="43.339473724365" lon="-7.5545997619629">
        <ele>431</ele>
        <time>2019-09-11T08:14:43+00:00</time>
      </trkpt>
      <trkpt lat="43.339458465576" lon="-7.5546116828918">
        <ele>431</ele>
        <time>2019-09-11T08:14:44+00:00</time>
      </trkpt>
      <trkpt lat="43.339458465576" lon="-7.5546116828918">
        <ele>431</ele>
        <time>2019-09-11T08:14:45+00:00</time>
      </trkpt>
      <trkpt lat="43.339454650879" lon="-7.554615020752">
        <ele>431</ele>
        <time>2019-09-11T08:14:46+00:00</time>
      </trkpt>
      <trkpt lat="43.339443206787" lon="-7.5546216964722">
        <ele>431</ele>
        <time>2019-09-11T08:14:47+00:00</time>
      </trkpt>
      <trkpt lat="43.339424133301" lon="-7.5546431541443">
        <ele>431</ele>
        <time>2019-09-11T08:14:48+00:00</time>
      </trkpt>
      <trkpt lat="43.339408874512" lon="-7.5546617507935">
        <ele>431</ele>
        <time>2019-09-11T08:14:49+00:00</time>
      </trkpt>
      <trkpt lat="43.339393615723" lon="-7.5546751022339">
        <ele>431</ele>
        <time>2019-09-11T08:14:50+00:00</time>
      </trkpt>
      <trkpt lat="43.339385986328" lon="-7.5546832084656">
        <ele>431</ele>
        <time>2019-09-11T08:14:51+00:00</time>
      </trkpt>
      <trkpt lat="43.339374542236" lon="-7.5546932220459">
        <ele>431</ele>
        <time>2019-09-11T08:14:52+00:00</time>
      </trkpt>
      <trkpt lat="43.339366912842" lon="-7.5547032356262">
        <ele>431</ele>
        <time>2019-09-11T08:14:53+00:00</time>
      </trkpt>
      <trkpt lat="43.339363098145" lon="-7.5547099113464">
        <ele>431</ele>
        <time>2019-09-11T08:14:54+00:00</time>
      </trkpt>
      <trkpt lat="43.339351654053" lon="-7.5547184944153">
        <ele>431</ele>
        <time>2019-09-11T08:14:55+00:00</time>
      </trkpt>
      <trkpt lat="43.339344024658" lon="-7.5547199249268">
        <ele>431</ele>
        <time>2019-09-11T08:14:56+00:00</time>
      </trkpt>
      <trkpt lat="43.339336395264" lon="-7.5547251701355">
        <ele>431</ele>
        <time>2019-09-11T08:14:57+00:00</time>
      </trkpt>
      <trkpt lat="43.339328765869" lon="-7.5547285079956">
        <ele>432</ele>
        <time>2019-09-11T08:14:58+00:00</time>
      </trkpt>
      <trkpt lat="43.339324951172" lon="-7.5547332763672">
        <ele>432</ele>
        <time>2019-09-11T08:14:59+00:00</time>
      </trkpt>
      <trkpt lat="43.339309692383" lon="-7.5547485351562">
        <ele>432</ele>
        <time>2019-09-11T08:15:00+00:00</time>
      </trkpt>
      <trkpt lat="43.339294433594" lon="-7.5547652244568">
        <ele>432</ele>
        <time>2019-09-11T08:15:01+00:00</time>
      </trkpt>
      <trkpt lat="43.339275360107" lon="-7.5547766685486">
        <ele>432</ele>
        <time>2019-09-11T08:15:02+00:00</time>
      </trkpt>
      <trkpt lat="43.339260101318" lon="-7.5547881126404">
        <ele>432</ele>
        <time>2019-09-11T08:15:03+00:00</time>
      </trkpt>
      <trkpt lat="43.339248657227" lon="-7.5547981262207">
        <ele>432</ele>
        <time>2019-09-11T08:15:04+00:00</time>
      </trkpt>
      <trkpt lat="43.339244842529" lon="-7.5548014640808">
        <ele>432</ele>
        <time>2019-09-11T08:15:05+00:00</time>
      </trkpt>
      <trkpt lat="43.339233398438" lon="-7.5548048019409">
        <ele>432</ele>
        <time>2019-09-11T08:15:06+00:00</time>
      </trkpt>
      <trkpt lat="43.339221954346" lon="-7.5548100471497">
        <ele>432</ele>
        <time>2019-09-11T08:15:07+00:00</time>
      </trkpt>
      <trkpt lat="43.339206695557" lon="-7.5548181533813">
        <ele>432</ele>
        <time>2019-09-11T08:15:08+00:00</time>
      </trkpt>
      <trkpt lat="43.339191436768" lon="-7.5548281669617">
        <ele>432</ele>
        <time>2019-09-11T08:15:09+00:00</time>
      </trkpt>
      <trkpt lat="43.33918762207" lon="-7.5548348426819">
        <ele>432</ele>
        <time>2019-09-11T08:15:10+00:00</time>
      </trkpt>
      <trkpt lat="43.339179992676" lon="-7.5548367500305">
        <ele>432</ele>
        <time>2019-09-11T08:15:11+00:00</time>
      </trkpt>
      <trkpt lat="43.339172363281" lon="-7.554838180542">
        <ele>432</ele>
        <time>2019-09-11T08:15:12+00:00</time>
      </trkpt>
      <trkpt lat="43.339164733887" lon="-7.5548434257507">
        <ele>432</ele>
        <time>2019-09-11T08:15:13+00:00</time>
      </trkpt>
      <trkpt lat="43.339164733887" lon="-7.5548515319824">
        <ele>432</ele>
        <time>2019-09-11T08:15:14+00:00</time>
      </trkpt>
      <trkpt lat="43.339160919189" lon="-7.5548534393311">
        <ele>432</ele>
        <time>2019-09-11T08:15:15+00:00</time>
      </trkpt>
      <trkpt lat="43.339157104492" lon="-7.5548601150513">
        <ele>432</ele>
        <time>2019-09-11T08:15:16+00:00</time>
      </trkpt>
      <trkpt lat="43.339141845703" lon="-7.5548715591431">
        <ele>432</ele>
        <time>2019-09-11T08:15:17+00:00</time>
      </trkpt>
      <trkpt lat="43.33911895752" lon="-7.5548982620239">
        <ele>431</ele>
        <time>2019-09-11T08:15:19+00:00</time>
      </trkpt>
      <trkpt lat="43.33910369873" lon="-7.5548915863037">
        <ele>431</ele>
        <time>2019-09-11T08:15:20+00:00</time>
      </trkpt>
      <trkpt lat="43.339096069336" lon="-7.5548982620239">
        <ele>431</ele>
        <time>2019-09-11T08:15:21+00:00</time>
      </trkpt>
      <trkpt lat="43.339088439941" lon="-7.5549035072327">
        <ele>431</ele>
        <time>2019-09-11T08:15:22+00:00</time>
      </trkpt>
      <trkpt lat="43.339088439941" lon="-7.5549116134644">
        <ele>431</ele>
        <time>2019-09-11T08:15:23+00:00</time>
      </trkpt>
      <trkpt lat="43.339092254639" lon="-7.5549201965332">
        <ele>431</ele>
        <time>2019-09-11T08:15:24+00:00</time>
      </trkpt>
      <trkpt lat="43.339088439941" lon="-7.5549283027649">
        <ele>431</ele>
        <time>2019-09-11T08:15:25+00:00</time>
      </trkpt>
      <trkpt lat="43.339088439941" lon="-7.5549349784851">
        <ele>431</ele>
        <time>2019-09-11T08:15:26+00:00</time>
      </trkpt>
      <trkpt lat="43.339084625244" lon="-7.5549416542053">
        <ele>430</ele>
        <time>2019-09-11T08:15:27+00:00</time>
      </trkpt>
      <trkpt lat="43.339080810547" lon="-7.5549468994141">
        <ele>430</ele>
        <time>2019-09-11T08:15:28+00:00</time>
      </trkpt>
      <trkpt lat="43.339069366455" lon="-7.5549550056458">
        <ele>430</ele>
        <time>2019-09-11T08:15:29+00:00</time>
      </trkpt>
      <trkpt lat="43.339057922363" lon="-7.5549631118774">
        <ele>430</ele>
        <time>2019-09-11T08:15:30+00:00</time>
      </trkpt>
      <trkpt lat="43.339046478271" lon="-7.5549750328064">
        <ele>430</ele>
        <time>2019-09-11T08:15:31+00:00</time>
      </trkpt>
      <trkpt lat="43.339031219482" lon="-7.5549817085266">
        <ele>430</ele>
        <time>2019-09-11T08:15:32+00:00</time>
      </trkpt>
      <trkpt lat="43.339012145996" lon="-7.5549898147583">
        <ele>429</ele>
        <time>2019-09-11T08:15:33+00:00</time>
      </trkpt>
      <trkpt lat="43.33899307251" lon="-7.5550017356873">
        <ele>429</ele>
        <time>2019-09-11T08:15:34+00:00</time>
      </trkpt>
      <trkpt lat="43.338981628418" lon="-7.5550165176392">
        <ele>429</ele>
        <time>2019-09-11T08:15:35+00:00</time>
      </trkpt>
      <trkpt lat="43.338970184326" lon="-7.5550351142883">
        <ele>429</ele>
        <time>2019-09-11T08:15:36+00:00</time>
      </trkpt>
      <trkpt lat="43.338958740234" lon="-7.5550518035889">
        <ele>429</ele>
        <time>2019-09-11T08:15:37+00:00</time>
      </trkpt>
      <trkpt lat="43.33895111084" lon="-7.555073261261">
        <ele>429</ele>
        <time>2019-09-11T08:15:38+00:00</time>
      </trkpt>
      <trkpt lat="43.338939666748" lon="-7.5550866127014">
        <ele>429</ele>
        <time>2019-09-11T08:15:39+00:00</time>
      </trkpt>
      <trkpt lat="43.338928222656" lon="-7.5550999641418">
        <ele>428</ele>
        <time>2019-09-11T08:15:40+00:00</time>
      </trkpt>
      <trkpt lat="43.338924407959" lon="-7.5551118850708">
        <ele>428</ele>
        <time>2019-09-11T08:15:41+00:00</time>
      </trkpt>
      <trkpt lat="43.338916778564" lon="-7.5551233291626">
        <ele>428</ele>
        <time>2019-09-11T08:15:42+00:00</time>
      </trkpt>
      <trkpt lat="43.33890914917" lon="-7.5551381111145">
        <ele>428</ele>
        <time>2019-09-11T08:15:43+00:00</time>
      </trkpt>
      <trkpt lat="43.338893890381" lon="-7.5551514625549">
        <ele>428</ele>
        <time>2019-09-11T08:15:44+00:00</time>
      </trkpt>
      <trkpt lat="43.338882446289" lon="-7.5551600456238">
        <ele>428</ele>
        <time>2019-09-11T08:15:45+00:00</time>
      </trkpt>
      <trkpt lat="43.338874816895" lon="-7.5551714897156">
        <ele>428</ele>
        <time>2019-09-11T08:15:46+00:00</time>
      </trkpt>
      <trkpt lat="43.338874816895" lon="-7.555184841156">
        <ele>428</ele>
        <time>2019-09-11T08:15:47+00:00</time>
      </trkpt>
      <trkpt lat="43.3388671875" lon="-7.5551934242249">
        <ele>428</ele>
        <time>2019-09-11T08:15:48+00:00</time>
      </trkpt>
      <trkpt lat="43.338855743408" lon="-7.5552034378052">
        <ele>428</ele>
        <time>2019-09-11T08:15:49+00:00</time>
      </trkpt>
      <trkpt lat="43.338851928711" lon="-7.555214881897">
        <ele>428</ele>
        <time>2019-09-11T08:15:50+00:00</time>
      </trkpt>
      <trkpt lat="43.338844299316" lon="-7.5552248954773">
        <ele>428</ele>
        <time>2019-09-11T08:15:51+00:00</time>
      </trkpt>
      <trkpt lat="43.338840484619" lon="-7.5552334785461">
        <ele>428</ele>
        <time>2019-09-11T08:15:52+00:00</time>
      </trkpt>
      <trkpt lat="43.338836669922" lon="-7.5552368164062">
        <ele>428</ele>
        <time>2019-09-11T08:15:53+00:00</time>
      </trkpt>
      <trkpt lat="43.338829040527" lon="-7.5552535057068">
        <ele>428</ele>
        <time>2019-09-11T08:15:54+00:00</time>
      </trkpt>
      <trkpt lat="43.338817596436" lon="-7.5552682876587">
        <ele>428</ele>
        <time>2019-09-11T08:15:55+00:00</time>
      </trkpt>
      <trkpt lat="43.338813781738" lon="-7.5552768707275">
        <ele>428</ele>
        <time>2019-09-11T08:15:56+00:00</time>
      </trkpt>
      <trkpt lat="43.338806152344" lon="-7.5552768707275">
        <ele>428</ele>
        <time>2019-09-11T08:15:57+00:00</time>
      </trkpt>
      <trkpt lat="43.338779449463" lon="-7.5552835464478">
        <ele>428</ele>
        <time>2019-09-11T08:15:58+00:00</time>
      </trkpt>
      <trkpt lat="43.338764190674" lon="-7.5552983283997">
        <ele>428</ele>
        <time>2019-09-11T08:15:59+00:00</time>
      </trkpt>
      <trkpt lat="43.338745117188" lon="-7.5553097724915">
        <ele>428</ele>
        <time>2019-09-11T08:16:00+00:00</time>
      </trkpt>
      <trkpt lat="43.338733673096" lon="-7.5553150177002">
        <ele>428</ele>
        <time>2019-09-11T08:16:01+00:00</time>
      </trkpt>
      <trkpt lat="43.338718414307" lon="-7.5553231239319">
        <ele>428</ele>
        <time>2019-09-11T08:16:02+00:00</time>
      </trkpt>
      <trkpt lat="43.338703155518" lon="-7.5553417205811">
        <ele>428</ele>
        <time>2019-09-11T08:16:03+00:00</time>
      </trkpt>
      <trkpt lat="43.338691711426" lon="-7.5553598403931">
        <ele>428</ele>
        <time>2019-09-11T08:16:04+00:00</time>
      </trkpt>
      <trkpt lat="43.338668823242" lon="-7.5553851127625">
        <ele>428</ele>
        <time>2019-09-11T08:16:05+00:00</time>
      </trkpt>
      <trkpt lat="43.338649749756" lon="-7.5554118156433">
        <ele>428</ele>
        <time>2019-09-11T08:16:06+00:00</time>
      </trkpt>
      <trkpt lat="43.338638305664" lon="-7.5554299354553">
        <ele>428</ele>
        <time>2019-09-11T08:16:07+00:00</time>
      </trkpt>
      <trkpt lat="43.338626861572" lon="-7.5554533004761">
        <ele>428</ele>
        <time>2019-09-11T08:16:08+00:00</time>
      </trkpt>
      <trkpt lat="43.338619232178" lon="-7.5554733276367">
        <ele>428</ele>
        <time>2019-09-11T08:16:09+00:00</time>
      </trkpt>
      <trkpt lat="43.338611602783" lon="-7.5554933547974">
        <ele>428</ele>
        <time>2019-09-11T08:16:10+00:00</time>
      </trkpt>
      <trkpt lat="43.338600158691" lon="-7.5555047988892">
        <ele>428</ele>
        <time>2019-09-11T08:16:11+00:00</time>
      </trkpt>
      <trkpt lat="43.338592529297" lon="-7.5555148124695">
        <ele>428</ele>
        <time>2019-09-11T08:16:12+00:00</time>
      </trkpt>
      <trkpt lat="43.338584899902" lon="-7.5555181503296">
        <ele>428</ele>
        <time>2019-09-11T08:16:13+00:00</time>
      </trkpt>
      <trkpt lat="43.338573455811" lon="-7.5555233955383">
        <ele>428</ele>
        <time>2019-09-11T08:16:14+00:00</time>
      </trkpt>
      <trkpt lat="43.338581085205" lon="-7.5555148124695">
        <ele>428</ele>
        <time>2019-09-11T08:16:15+00:00</time>
      </trkpt>
      <trkpt lat="43.338577270508" lon="-7.5555214881897">
        <ele>428</ele>
        <time>2019-09-11T08:16:16+00:00</time>
      </trkpt>
      <trkpt lat="43.338573455811" lon="-7.5555300712585">
        <ele>428</ele>
        <time>2019-09-11T08:16:17+00:00</time>
      </trkpt>
      <trkpt lat="43.338565826416" lon="-7.5555334091187">
        <ele>427</ele>
        <time>2019-09-11T08:16:18+00:00</time>
      </trkpt>
      <trkpt lat="43.338554382324" lon="-7.5555334091187">
        <ele>427</ele>
        <time>2019-09-11T08:16:19+00:00</time>
      </trkpt>
      <trkpt lat="43.33854675293" lon="-7.5555367469788">
        <ele>427</ele>
        <time>2019-09-11T08:16:20+00:00</time>
      </trkpt>
      <trkpt lat="43.338531494141" lon="-7.5555481910706">
        <ele>427</ele>
        <time>2019-09-11T08:16:21+00:00</time>
      </trkpt>
      <trkpt lat="43.338527679443" lon="-7.5555634498596">
        <ele>427</ele>
        <time>2019-09-11T08:16:22+00:00</time>
      </trkpt>
      <trkpt lat="43.338527679443" lon="-7.5555734634399">
        <ele>426</ele>
        <time>2019-09-11T08:16:23+00:00</time>
      </trkpt>
      <trkpt lat="43.338527679443" lon="-7.5555868148804">
        <ele>426</ele>
        <time>2019-09-11T08:16:24+00:00</time>
      </trkpt>
      <trkpt lat="43.338527679443" lon="-7.5555982589722">
        <ele>426</ele>
        <time>2019-09-11T08:16:25+00:00</time>
      </trkpt>
      <trkpt lat="43.338527679443" lon="-7.5556135177612">
        <ele>426</ele>
        <time>2019-09-11T08:16:26+00:00</time>
      </trkpt>
      <trkpt lat="43.338531494141" lon="-7.5556216239929">
        <ele>426</ele>
        <time>2019-09-11T08:16:27+00:00</time>
      </trkpt>
      <trkpt lat="43.338531494141" lon="-7.5556316375732">
        <ele>426</ele>
        <time>2019-09-11T08:16:28+00:00</time>
      </trkpt>
      <trkpt lat="43.338531494141" lon="-7.5556449890137">
        <ele>425</ele>
        <time>2019-09-11T08:16:29+00:00</time>
      </trkpt>
      <trkpt lat="43.338531494141" lon="-7.5556530952454">
        <ele>425</ele>
        <time>2019-09-11T08:16:30+00:00</time>
      </trkpt>
      <trkpt lat="43.338520050049" lon="-7.5556664466858">
        <ele>425</ele>
        <time>2019-09-11T08:16:31+00:00</time>
      </trkpt>
      <trkpt lat="43.338508605957" lon="-7.5556716918945">
        <ele>425</ele>
        <time>2019-09-11T08:16:32+00:00</time>
      </trkpt>
      <trkpt lat="43.338497161865" lon="-7.5556764602661">
        <ele>425</ele>
        <time>2019-09-11T08:16:33+00:00</time>
      </trkpt>
      <trkpt lat="43.338493347168" lon="-7.5556817054749">
        <ele>425</ele>
        <time>2019-09-11T08:16:34+00:00</time>
      </trkpt>
      <trkpt lat="43.338481903076" lon="-7.5556864738464">
        <ele>425</ele>
        <time>2019-09-11T08:16:35+00:00</time>
      </trkpt>
      <trkpt lat="43.338474273682" lon="-7.5556931495667">
        <ele>425</ele>
        <time>2019-09-11T08:16:36+00:00</time>
      </trkpt>
      <trkpt lat="43.338466644287" lon="-7.5556964874268">
        <ele>426</ele>
        <time>2019-09-11T08:16:37+00:00</time>
      </trkpt>
      <trkpt lat="43.338459014893" lon="-7.5556983947754">
        <ele>426</ele>
        <time>2019-09-11T08:16:38+00:00</time>
      </trkpt>
      <trkpt lat="43.338455200195" lon="-7.5557084083557">
        <ele>426</ele>
        <time>2019-09-11T08:16:39+00:00</time>
      </trkpt>
      <trkpt lat="43.338428497314" lon="-7.5557284355164">
        <ele>425</ele>
        <time>2019-09-11T08:16:40+00:00</time>
      </trkpt>
      <trkpt lat="43.338401794434" lon="-7.5557551383972">
        <ele>425</ele>
        <time>2019-09-11T08:16:41+00:00</time>
      </trkpt>
      <trkpt lat="43.338375091553" lon="-7.5557818412781">
        <ele>425</ele>
        <time>2019-09-11T08:16:42+00:00</time>
      </trkpt>
      <trkpt lat="43.338363647461" lon="-7.5557885169983">
        <ele>425</ele>
        <time>2019-09-11T08:16:43+00:00</time>
      </trkpt>
      <trkpt lat="43.338356018066" lon="-7.5557751655579">
        <ele>424</ele>
        <time>2019-09-11T08:16:44+00:00</time>
      </trkpt>
      <trkpt lat="43.338340759277" lon="-7.5557751655579">
        <ele>424</ele>
        <time>2019-09-11T08:16:45+00:00</time>
      </trkpt>
      <trkpt lat="43.338329315186" lon="-7.555778503418">
        <ele>423</ele>
        <time>2019-09-11T08:16:46+00:00</time>
      </trkpt>
      <trkpt lat="43.338314056396" lon="-7.5557832717896">
        <ele>423</ele>
        <time>2019-09-11T08:16:47+00:00</time>
      </trkpt>
      <trkpt lat="43.338298797607" lon="-7.5557799339294">
        <ele>423</ele>
        <time>2019-09-11T08:16:48+00:00</time>
      </trkpt>
      <trkpt lat="43.33829498291" lon="-7.5557718276978">
        <ele>423</ele>
        <time>2019-09-11T08:16:49+00:00</time>
      </trkpt>
      <trkpt lat="43.338279724121" lon="-7.5557851791382">
        <ele>423</ele>
        <time>2019-09-11T08:16:50+00:00</time>
      </trkpt>
      <trkpt lat="43.338260650635" lon="-7.5557918548584">
        <ele>422</ele>
        <time>2019-09-11T08:16:51+00:00</time>
      </trkpt>
      <trkpt lat="43.338249206543" lon="-7.5557985305786">
        <ele>422</ele>
        <time>2019-09-11T08:16:52+00:00</time>
      </trkpt>
      <trkpt lat="43.338233947754" lon="-7.5558018684387">
        <ele>421</ele>
        <time>2019-09-11T08:16:53+00:00</time>
      </trkpt>
      <trkpt lat="43.338226318359" lon="-7.5558032989502">
        <ele>421</ele>
        <time>2019-09-11T08:16:54+00:00</time>
      </trkpt>
      <trkpt lat="43.338218688965" lon="-7.5558018684387">
        <ele>421</ele>
        <time>2019-09-11T08:16:55+00:00</time>
      </trkpt>
      <trkpt lat="43.338214874268" lon="-7.5558133125305">
        <ele>421</ele>
        <time>2019-09-11T08:16:56+00:00</time>
      </trkpt>
      <trkpt lat="43.33821105957" lon="-7.5558300018311">
        <ele>420</ele>
        <time>2019-09-11T08:16:57+00:00</time>
      </trkpt>
      <trkpt lat="43.338203430176" lon="-7.5558481216431">
        <ele>420</ele>
        <time>2019-09-11T08:16:58+00:00</time>
      </trkpt>
      <trkpt lat="43.338199615479" lon="-7.555878162384">
        <ele>420</ele>
        <time>2019-09-11T08:16:59+00:00</time>
      </trkpt>
      <trkpt lat="43.338191986084" lon="-7.5559048652649">
        <ele>419</ele>
        <time>2019-09-11T08:17:00+00:00</time>
      </trkpt>
      <trkpt lat="43.338180541992" lon="-7.5559267997742">
        <ele>419</ele>
        <time>2019-09-11T08:17:01+00:00</time>
      </trkpt>
      <trkpt lat="43.338172912598" lon="-7.5559449195862">
        <ele>419</ele>
        <time>2019-09-11T08:17:02+00:00</time>
      </trkpt>
      <trkpt lat="43.338172912598" lon="-7.5559682846069">
        <ele>419</ele>
        <time>2019-09-11T08:17:03+00:00</time>
      </trkpt>
      <trkpt lat="43.338161468506" lon="-7.5559849739075">
        <ele>419</ele>
        <time>2019-09-11T08:17:04+00:00</time>
      </trkpt>
      <trkpt lat="43.338161468506" lon="-7.5559916496277">
        <ele>418</ele>
        <time>2019-09-11T08:17:05+00:00</time>
      </trkpt>
      <trkpt lat="43.338157653809" lon="-7.5560064315796">
        <ele>418</ele>
        <time>2019-09-11T08:17:06+00:00</time>
      </trkpt>
      <trkpt lat="43.338150024414" lon="-7.5560216903687">
        <ele>418</ele>
        <time>2019-09-11T08:17:07+00:00</time>
      </trkpt>
      <trkpt lat="43.338153839111" lon="-7.5560297966003">
        <ele>418</ele>
        <time>2019-09-11T08:17:08+00:00</time>
      </trkpt>
      <trkpt lat="43.338161468506" lon="-7.5560297966003">
        <ele>418</ele>
        <time>2019-09-11T08:17:09+00:00</time>
      </trkpt>
      <trkpt lat="43.338161468506" lon="-7.5560464859009">
        <ele>418</ele>
        <time>2019-09-11T08:17:10+00:00</time>
      </trkpt>
      <trkpt lat="43.338161468506" lon="-7.5560631752014">
        <ele>418</ele>
        <time>2019-09-11T08:17:11+00:00</time>
      </trkpt>
      <trkpt lat="43.338165283203" lon="-7.5560851097107">
        <ele>418</ele>
        <time>2019-09-11T08:17:12+00:00</time>
      </trkpt>
      <trkpt lat="43.3381690979" lon="-7.5561051368713">
        <ele>418</ele>
        <time>2019-09-11T08:17:13+00:00</time>
      </trkpt>
      <trkpt lat="43.338161468506" lon="-7.5561285018921">
        <ele>418</ele>
        <time>2019-09-11T08:17:14+00:00</time>
      </trkpt>
      <trkpt lat="43.338157653809" lon="-7.5561466217041">
        <ele>418</ele>
        <time>2019-09-11T08:17:15+00:00</time>
      </trkpt>
      <trkpt lat="43.33814239502" lon="-7.5561652183533">
        <ele>418</ele>
        <time>2019-09-11T08:17:16+00:00</time>
      </trkpt>
      <trkpt lat="43.338134765625" lon="-7.5561785697937">
        <ele>418</ele>
        <time>2019-09-11T08:17:17+00:00</time>
      </trkpt>
      <trkpt lat="43.338130950928" lon="-7.5561933517456">
        <ele>418</ele>
        <time>2019-09-11T08:17:18+00:00</time>
      </trkpt>
      <trkpt lat="43.338130950928" lon="-7.5562081336975">
        <ele>418</ele>
        <time>2019-09-11T08:17:19+00:00</time>
      </trkpt>
      <trkpt lat="43.338130950928" lon="-7.5562281608582">
        <ele>419</ele>
        <time>2019-09-11T08:17:20+00:00</time>
      </trkpt>
      <trkpt lat="43.338130950928" lon="-7.5562467575073">
        <ele>419</ele>
        <time>2019-09-11T08:17:21+00:00</time>
      </trkpt>
      <trkpt lat="43.33812713623" lon="-7.5562634468079">
        <ele>419</ele>
        <time>2019-09-11T08:17:22+00:00</time>
      </trkpt>
      <trkpt lat="43.33812713623" lon="-7.5562834739685">
        <ele>419</ele>
        <time>2019-09-11T08:17:23+00:00</time>
      </trkpt>
      <trkpt lat="43.33812713623" lon="-7.556300163269">
        <ele>419</ele>
        <time>2019-09-11T08:17:24+00:00</time>
      </trkpt>
      <trkpt lat="43.338130950928" lon="-7.5563149452209">
        <ele>419</ele>
        <time>2019-09-11T08:17:25+00:00</time>
      </trkpt>
      <trkpt lat="43.338134765625" lon="-7.5563282966614">
        <ele>420</ele>
        <time>2019-09-11T08:17:26+00:00</time>
      </trkpt>
      <trkpt lat="43.33814239502" lon="-7.5563449859619">
        <ele>420</ele>
        <time>2019-09-11T08:17:27+00:00</time>
      </trkpt>
      <trkpt lat="43.33814239502" lon="-7.5563549995422">
        <ele>420</ele>
        <time>2019-09-11T08:17:28+00:00</time>
      </trkpt>
      <trkpt lat="43.338138580322" lon="-7.5563683509827">
        <ele>420</ele>
        <time>2019-09-11T08:17:29+00:00</time>
      </trkpt>
      <trkpt lat="43.338134765625" lon="-7.5563831329346">
        <ele>420</ele>
        <time>2019-09-11T08:17:30+00:00</time>
      </trkpt>
      <trkpt lat="43.338130950928" lon="-7.5563950538635">
        <ele>420</ele>
        <time>2019-09-11T08:17:31+00:00</time>
      </trkpt>
      <trkpt lat="43.33812713623" lon="-7.5564131736755">
        <ele>420</ele>
        <time>2019-09-11T08:17:32+00:00</time>
      </trkpt>
      <trkpt lat="43.338123321533" lon="-7.5564298629761">
        <ele>420</ele>
        <time>2019-09-11T08:17:33+00:00</time>
      </trkpt>
      <trkpt lat="43.338115692139" lon="-7.5564451217651">
        <ele>421</ele>
        <time>2019-09-11T08:17:34+00:00</time>
      </trkpt>
      <trkpt lat="43.338111877441" lon="-7.556459903717">
        <ele>421</ele>
        <time>2019-09-11T08:17:35+00:00</time>
      </trkpt>
      <trkpt lat="43.338108062744" lon="-7.556471824646">
        <ele>421</ele>
        <time>2019-09-11T08:17:36+00:00</time>
      </trkpt>
      <trkpt lat="43.338104248047" lon="-7.5564866065979">
        <ele>421</ele>
        <time>2019-09-11T08:17:37+00:00</time>
      </trkpt>
      <trkpt lat="43.338088989258" lon="-7.5564999580383">
        <ele>421</ele>
        <time>2019-09-11T08:17:38+00:00</time>
      </trkpt>
      <trkpt lat="43.338073730469" lon="-7.556519985199">
        <ele>422</ele>
        <time>2019-09-11T08:17:39+00:00</time>
      </trkpt>
      <trkpt lat="43.338069915771" lon="-7.556538105011">
        <ele>422</ele>
        <time>2019-09-11T08:17:40+00:00</time>
      </trkpt>
      <trkpt lat="43.338069915771" lon="-7.5565614700317">
        <ele>422</ele>
        <time>2019-09-11T08:17:41+00:00</time>
      </trkpt>
      <trkpt lat="43.338069915771" lon="-7.556583404541">
        <ele>422</ele>
        <time>2019-09-11T08:17:42+00:00</time>
      </trkpt>
      <trkpt lat="43.338069915771" lon="-7.5565981864929">
        <ele>422</ele>
        <time>2019-09-11T08:17:43+00:00</time>
      </trkpt>
      <trkpt lat="43.338066101074" lon="-7.556613445282">
        <ele>422</ele>
        <time>2019-09-11T08:17:44+00:00</time>
      </trkpt>
      <trkpt lat="43.33805847168" lon="-7.5566282272339">
        <ele>423</ele>
        <time>2019-09-11T08:17:45+00:00</time>
      </trkpt>
      <trkpt lat="43.338050842285" lon="-7.5566434860229">
        <ele>423</ele>
        <time>2019-09-11T08:17:46+00:00</time>
      </trkpt>
      <trkpt lat="43.338047027588" lon="-7.5566635131836">
        <ele>423</ele>
        <time>2019-09-11T08:17:47+00:00</time>
      </trkpt>
      <trkpt lat="43.338043212891" lon="-7.5566802024841">
        <ele>423</ele>
        <time>2019-09-11T08:17:48+00:00</time>
      </trkpt>
      <trkpt lat="43.338039398193" lon="-7.5566968917847">
        <ele>423</ele>
        <time>2019-09-11T08:17:49+00:00</time>
      </trkpt>
      <trkpt lat="43.338031768799" lon="-7.5567049980164">
        <ele>423</ele>
        <time>2019-09-11T08:17:50+00:00</time>
      </trkpt>
      <trkpt lat="43.338027954102" lon="-7.5567150115967">
        <ele>423</ele>
        <time>2019-09-11T08:17:51+00:00</time>
      </trkpt>
      <trkpt lat="43.33801651001" lon="-7.5567317008972">
        <ele>423</ele>
        <time>2019-09-11T08:17:52+00:00</time>
      </trkpt>
      <trkpt lat="43.338005065918" lon="-7.556755065918">
        <ele>423</ele>
        <time>2019-09-11T08:17:53+00:00</time>
      </trkpt>
      <trkpt lat="43.337997436523" lon="-7.55677318573">
        <ele>423</ele>
        <time>2019-09-11T08:17:54+00:00</time>
      </trkpt>
      <trkpt lat="43.337985992432" lon="-7.5567898750305">
        <ele>423</ele>
        <time>2019-09-11T08:17:55+00:00</time>
      </trkpt>
      <trkpt lat="43.337978363037" lon="-7.5568017959595">
        <ele>424</ele>
        <time>2019-09-11T08:17:56+00:00</time>
      </trkpt>
      <trkpt lat="43.337978363037" lon="-7.5568199157715">
        <ele>424</ele>
        <time>2019-09-11T08:17:57+00:00</time>
      </trkpt>
      <trkpt lat="43.337978363037" lon="-7.5568332672119">
        <ele>424</ele>
        <time>2019-09-11T08:17:58+00:00</time>
      </trkpt>
      <trkpt lat="43.337978363037" lon="-7.5568499565125">
        <ele>425</ele>
        <time>2019-09-11T08:17:59+00:00</time>
      </trkpt>
      <trkpt lat="43.337978363037" lon="-7.556866645813">
        <ele>425</ele>
        <time>2019-09-11T08:18:00+00:00</time>
      </trkpt>
      <trkpt lat="43.337978363037" lon="-7.5568833351135">
        <ele>425</ele>
        <time>2019-09-11T08:18:01+00:00</time>
      </trkpt>
      <trkpt lat="43.337978363037" lon="-7.5568981170654">
        <ele>425</ele>
        <time>2019-09-11T08:18:02+00:00</time>
      </trkpt>
      <trkpt lat="43.33797454834" lon="-7.5569133758545">
        <ele>426</ele>
        <time>2019-09-11T08:18:03+00:00</time>
      </trkpt>
      <trkpt lat="43.337970733643" lon="-7.5569281578064">
        <ele>426</ele>
        <time>2019-09-11T08:18:04+00:00</time>
      </trkpt>
      <trkpt lat="43.337966918945" lon="-7.5569415092468">
        <ele>426</ele>
        <time>2019-09-11T08:18:05+00:00</time>
      </trkpt>
      <trkpt lat="43.337963104248" lon="-7.5569567680359">
        <ele>426</ele>
        <time>2019-09-11T08:18:06+00:00</time>
      </trkpt>
      <trkpt lat="43.337955474854" lon="-7.5569667816162">
        <ele>426</ele>
        <time>2019-09-11T08:18:07+00:00</time>
      </trkpt>
      <trkpt lat="43.337951660156" lon="-7.556978225708">
        <ele>427</ele>
        <time>2019-09-11T08:18:08+00:00</time>
      </trkpt>
      <trkpt lat="43.337944030762" lon="-7.556990146637">
        <ele>427</ele>
        <time>2019-09-11T08:18:09+00:00</time>
      </trkpt>
      <trkpt lat="43.337940216064" lon="-7.5570034980774">
        <ele>427</ele>
        <time>2019-09-11T08:18:10+00:00</time>
      </trkpt>
      <trkpt lat="43.337940216064" lon="-7.5570168495178">
        <ele>427</ele>
        <time>2019-09-11T08:18:11+00:00</time>
      </trkpt>
      <trkpt lat="43.33793258667" lon="-7.5570316314697">
        <ele>427</ele>
        <time>2019-09-11T08:18:12+00:00</time>
      </trkpt>
      <trkpt lat="43.337924957275" lon="-7.5570435523987">
        <ele>427</ele>
        <time>2019-09-11T08:18:13+00:00</time>
      </trkpt>
      <trkpt lat="43.337924957275" lon="-7.5570549964905">
        <ele>427</ele>
        <time>2019-09-11T08:18:14+00:00</time>
      </trkpt>
      <trkpt lat="43.337921142578" lon="-7.5570683479309">
        <ele>427</ele>
        <time>2019-09-11T08:18:15+00:00</time>
      </trkpt>
      <trkpt lat="43.337917327881" lon="-7.5570831298828">
        <ele>427</ele>
        <time>2019-09-11T08:18:16+00:00</time>
      </trkpt>
      <trkpt lat="43.337905883789" lon="-7.5570983886719">
        <ele>427</ele>
        <time>2019-09-11T08:18:17+00:00</time>
      </trkpt>
      <trkpt lat="43.337898254395" lon="-7.5571150779724">
        <ele>427</ele>
        <time>2019-09-11T08:18:18+00:00</time>
      </trkpt>
      <trkpt lat="43.337890625" lon="-7.5571331977844">
        <ele>427</ele>
        <time>2019-09-11T08:18:19+00:00</time>
      </trkpt>
      <trkpt lat="43.337890625" lon="-7.5571565628052">
        <ele>427</ele>
        <time>2019-09-11T08:18:20+00:00</time>
      </trkpt>
      <trkpt lat="43.337890625" lon="-7.5571718215942">
        <ele>427</ele>
        <time>2019-09-11T08:18:21+00:00</time>
      </trkpt>
      <trkpt lat="43.337890625" lon="-7.557183265686">
        <ele>427</ele>
        <time>2019-09-11T08:18:22+00:00</time>
      </trkpt>
      <trkpt lat="43.337886810303" lon="-7.5571899414062">
        <ele>427</ele>
        <time>2019-09-11T08:18:23+00:00</time>
      </trkpt>
      <trkpt lat="43.337882995605" lon="-7.5571985244751">
        <ele>428</ele>
        <time>2019-09-11T08:18:24+00:00</time>
      </trkpt>
      <trkpt lat="43.337886810303" lon="-7.5572118759155">
        <ele>428</ele>
        <time>2019-09-11T08:18:25+00:00</time>
      </trkpt>
      <trkpt lat="43.337886810303" lon="-7.5572233200073">
        <ele>428</ele>
        <time>2019-09-11T08:18:26+00:00</time>
      </trkpt>
      <trkpt lat="43.337886810303" lon="-7.5572285652161">
        <ele>428</ele>
        <time>2019-09-11T08:18:27+00:00</time>
      </trkpt>
      <trkpt lat="43.337882995605" lon="-7.557243347168">
        <ele>428</ele>
        <time>2019-09-11T08:18:28+00:00</time>
      </trkpt>
      <trkpt lat="43.337879180908" lon="-7.5572566986084">
        <ele>428</ele>
        <time>2019-09-11T08:18:29+00:00</time>
      </trkpt>
      <trkpt lat="43.337871551514" lon="-7.5572748184204">
        <ele>429</ele>
        <time>2019-09-11T08:18:30+00:00</time>
      </trkpt>
      <trkpt lat="43.337863922119" lon="-7.5572867393494">
        <ele>429</ele>
        <time>2019-09-11T08:18:31+00:00</time>
      </trkpt>
      <trkpt lat="43.33784866333" lon="-7.5573000907898">
        <ele>429</ele>
        <time>2019-09-11T08:18:32+00:00</time>
      </trkpt>
      <trkpt lat="43.337837219238" lon="-7.5573148727417">
        <ele>429</ele>
        <time>2019-09-11T08:18:33+00:00</time>
      </trkpt>
      <trkpt lat="43.337825775146" lon="-7.5573334693909">
        <ele>429</ele>
        <time>2019-09-11T08:18:34+00:00</time>
      </trkpt>
      <trkpt lat="43.337833404541" lon="-7.5573616027832">
        <ele>429</ele>
        <time>2019-09-11T08:18:35+00:00</time>
      </trkpt>
      <trkpt lat="43.337844848633" lon="-7.5573902130127">
        <ele>429</ele>
        <time>2019-09-11T08:18:36+00:00</time>
      </trkpt>
      <trkpt lat="43.337844848633" lon="-7.5574150085449">
        <ele>429</ele>
        <time>2019-09-11T08:18:37+00:00</time>
      </trkpt>
      <trkpt lat="43.337844848633" lon="-7.5574398040771">
        <ele>429</ele>
        <time>2019-09-11T08:18:38+00:00</time>
      </trkpt>
      <trkpt lat="43.337841033936" lon="-7.5574617385864">
        <ele>429</ele>
        <time>2019-09-11T08:18:39+00:00</time>
      </trkpt>
      <trkpt lat="43.337833404541" lon="-7.5574765205383">
        <ele>430</ele>
        <time>2019-09-11T08:18:40+00:00</time>
      </trkpt>
      <trkpt lat="43.337825775146" lon="-7.5574898719788">
        <ele>430</ele>
        <time>2019-09-11T08:18:41+00:00</time>
      </trkpt>
      <trkpt lat="43.337818145752" lon="-7.5575065612793">
        <ele>430</ele>
        <time>2019-09-11T08:18:42+00:00</time>
      </trkpt>
      <trkpt lat="43.33780670166" lon="-7.5575265884399">
        <ele>431</ele>
        <time>2019-09-11T08:18:43+00:00</time>
      </trkpt>
      <trkpt lat="43.337799072266" lon="-7.5575432777405">
        <ele>431</ele>
        <time>2019-09-11T08:18:44+00:00</time>
      </trkpt>
      <trkpt lat="43.337791442871" lon="-7.5575618743896">
        <ele>431</ele>
        <time>2019-09-11T08:18:45+00:00</time>
      </trkpt>
      <trkpt lat="43.337779998779" lon="-7.5575766563416">
        <ele>431</ele>
        <time>2019-09-11T08:18:46+00:00</time>
      </trkpt>
      <trkpt lat="43.337772369385" lon="-7.5575914382935">
        <ele>431</ele>
        <time>2019-09-11T08:18:47+00:00</time>
      </trkpt>
      <trkpt lat="43.337768554688" lon="-7.5576066970825">
        <ele>431</ele>
        <time>2019-09-11T08:18:48+00:00</time>
      </trkpt>
      <trkpt lat="43.33776473999" lon="-7.5576233863831">
        <ele>431</ele>
        <time>2019-09-11T08:18:49+00:00</time>
      </trkpt>
      <trkpt lat="43.337757110596" lon="-7.557638168335">
        <ele>431</ele>
        <time>2019-09-11T08:18:50+00:00</time>
      </trkpt>
      <trkpt lat="43.337749481201" lon="-7.5576515197754">
        <ele>431</ele>
        <time>2019-09-11T08:18:51+00:00</time>
      </trkpt>
      <trkpt lat="43.337738037109" lon="-7.5576648712158">
        <ele>431</ele>
        <time>2019-09-11T08:18:52+00:00</time>
      </trkpt>
      <trkpt lat="43.337730407715" lon="-7.5576782226562">
        <ele>431</ele>
        <time>2019-09-11T08:18:53+00:00</time>
      </trkpt>
      <trkpt lat="43.337718963623" lon="-7.5576815605164">
        <ele>431</ele>
        <time>2019-09-11T08:18:54+00:00</time>
      </trkpt>
      <trkpt lat="43.337711334229" lon="-7.5576848983765">
        <ele>431</ele>
        <time>2019-09-11T08:18:55+00:00</time>
      </trkpt>
      <trkpt lat="43.337699890137" lon="-7.5576848983765">
        <ele>431</ele>
        <time>2019-09-11T08:18:56+00:00</time>
      </trkpt>
      <trkpt lat="43.337688446045" lon="-7.557683467865">
        <ele>431</ele>
        <time>2019-09-11T08:18:57+00:00</time>
      </trkpt>
      <trkpt lat="43.337677001953" lon="-7.5576848983765">
        <ele>431</ele>
        <time>2019-09-11T08:18:58+00:00</time>
      </trkpt>
      <trkpt lat="43.337673187256" lon="-7.5576782226562">
        <ele>431</ele>
        <time>2019-09-11T08:18:59+00:00</time>
      </trkpt>
      <trkpt lat="43.337673187256" lon="-7.5576701164246">
        <ele>431</ele>
        <time>2019-09-11T08:19:00+00:00</time>
      </trkpt>
      <trkpt lat="43.337677001953" lon="-7.5576601028442">
        <ele>431</ele>
        <time>2019-09-11T08:19:01+00:00</time>
      </trkpt>
      <trkpt lat="43.337665557861" lon="-7.5576548576355">
        <ele>431</ele>
        <time>2019-09-11T08:19:02+00:00</time>
      </trkpt>
      <trkpt lat="43.337677001953" lon="-7.5576615333557">
        <ele>431</ele>
        <time>2019-09-11T08:19:03+00:00</time>
      </trkpt>
      <trkpt lat="43.337696075439" lon="-7.5577034950256">
        <ele>431</ele>
        <time>2019-09-11T08:19:04+00:00</time>
      </trkpt>
      <trkpt lat="43.337707519531" lon="-7.5577349662781">
        <ele>431</ele>
        <time>2019-09-11T08:19:05+00:00</time>
      </trkpt>
      <trkpt lat="43.337379455566" lon="-7.5575485229492">
        <ele>412</ele>
        <time>2019-09-11T08:19:31+00:00</time>
      </trkpt>
      <trkpt lat="43.337333679199" lon="-7.5575799942017">
        <ele>407</ele>
        <time>2019-09-11T08:19:32+00:00</time>
      </trkpt>
      <trkpt lat="43.337253570557" lon="-7.5576815605164">
        <ele>443</ele>
        <time>2019-09-11T08:19:33+00:00</time>
      </trkpt>
      <trkpt lat="43.337329864502" lon="-7.5575332641602">
        <ele>454</ele>
        <time>2019-09-11T08:19:34+00:00</time>
      </trkpt>
      <trkpt lat="43.337333679199" lon="-7.557496547699">
        <ele>457</ele>
        <time>2019-09-11T08:19:35+00:00</time>
      </trkpt>
      <trkpt lat="43.337303161621" lon="-7.5575518608093">
        <ele>464</ele>
        <time>2019-09-11T08:19:36+00:00</time>
      </trkpt>
      <trkpt lat="43.337245941162" lon="-7.5575966835022">
        <ele>465</ele>
        <time>2019-09-11T08:19:37+00:00</time>
      </trkpt>
      <trkpt lat="43.3371925354" lon="-7.5576634407043">
        <ele>481</ele>
        <time>2019-09-11T08:19:38+00:00</time>
      </trkpt>
      <trkpt lat="43.337184906006" lon="-7.5576782226562">
        <ele>487</ele>
        <time>2019-09-11T08:19:39+00:00</time>
      </trkpt>
      <trkpt lat="43.337169647217" lon="-7.5576848983765">
        <ele>485</ele>
        <time>2019-09-11T08:19:40+00:00</time>
      </trkpt>
      <trkpt lat="43.337162017822" lon="-7.5577034950256">
        <ele>480</ele>
        <time>2019-09-11T08:19:41+00:00</time>
      </trkpt>
      <trkpt lat="43.337154388428" lon="-7.5577082633972">
        <ele>476</ele>
        <time>2019-09-11T08:19:42+00:00</time>
      </trkpt>
      <trkpt lat="43.337154388428" lon="-7.5577049255371">
        <ele>471</ele>
        <time>2019-09-11T08:19:43+00:00</time>
      </trkpt>
      <trkpt lat="43.33715057373" lon="-7.557713508606">
        <ele>468</ele>
        <time>2019-09-11T08:19:44+00:00</time>
      </trkpt>
      <trkpt lat="43.337146759033" lon="-7.557731628418">
        <ele>464</ele>
        <time>2019-09-11T08:19:45+00:00</time>
      </trkpt>
      <trkpt lat="43.337139129639" lon="-7.5577535629272">
        <ele>462</ele>
        <time>2019-09-11T08:19:46+00:00</time>
      </trkpt>
      <trkpt lat="43.337131500244" lon="-7.5577697753906">
        <ele>458</ele>
        <time>2019-09-11T08:19:47+00:00</time>
      </trkpt>
      <trkpt lat="43.33712387085" lon="-7.5577964782715">
        <ele>453</ele>
        <time>2019-09-11T08:19:48+00:00</time>
      </trkpt>
      <trkpt lat="43.337116241455" lon="-7.5578117370605">
        <ele>451</ele>
        <time>2019-09-11T08:19:49+00:00</time>
      </trkpt>
      <trkpt lat="43.337112426758" lon="-7.5578331947327">
        <ele>446</ele>
        <time>2019-09-11T08:19:50+00:00</time>
      </trkpt>
      <trkpt lat="43.337112426758" lon="-7.5578618049622">
        <ele>443</ele>
        <time>2019-09-11T08:19:51+00:00</time>
      </trkpt>
      <trkpt lat="43.337104797363" lon="-7.5578799247742">
        <ele>440</ele>
        <time>2019-09-11T08:19:52+00:00</time>
      </trkpt>
      <trkpt lat="43.337104797363" lon="-7.5578584671021">
        <ele>433</ele>
        <time>2019-09-11T08:19:53+00:00</time>
      </trkpt>
      <trkpt lat="43.337104797363" lon="-7.5578532218933">
        <ele>429</ele>
        <time>2019-09-11T08:19:54+00:00</time>
      </trkpt>
      <trkpt lat="43.337108612061" lon="-7.5578484535217">
        <ele>425</ele>
        <time>2019-09-11T08:19:55+00:00</time>
      </trkpt>
      <trkpt lat="43.337112426758" lon="-7.5578532218933">
        <ele>423</ele>
        <time>2019-09-11T08:19:56+00:00</time>
      </trkpt>
      <trkpt lat="43.337104797363" lon="-7.5578551292419">
        <ele>421</ele>
        <time>2019-09-11T08:19:57+00:00</time>
      </trkpt>
      <trkpt lat="43.337100982666" lon="-7.5578618049622">
        <ele>420</ele>
        <time>2019-09-11T08:19:58+00:00</time>
      </trkpt>
      <trkpt lat="43.337097167969" lon="-7.557873249054">
        <ele>420</ele>
        <time>2019-09-11T08:19:59+00:00</time>
      </trkpt>
      <trkpt lat="43.337093353271" lon="-7.5578832626343">
        <ele>420</ele>
        <time>2019-09-11T08:20:00+00:00</time>
      </trkpt>
      <trkpt lat="43.337085723877" lon="-7.5578985214233">
        <ele>420</ele>
        <time>2019-09-11T08:20:01+00:00</time>
      </trkpt>
      <trkpt lat="43.337074279785" lon="-7.5579118728638">
        <ele>420</ele>
        <time>2019-09-11T08:20:02+00:00</time>
      </trkpt>
      <trkpt lat="43.337062835693" lon="-7.5579266548157">
        <ele>420</ele>
        <time>2019-09-11T08:20:03+00:00</time>
      </trkpt>
      <trkpt lat="43.337055206299" lon="-7.5579414367676">
        <ele>420</ele>
        <time>2019-09-11T08:20:04+00:00</time>
      </trkpt>
      <trkpt lat="43.33703994751" lon="-7.5579566955566">
        <ele>420</ele>
        <time>2019-09-11T08:20:05+00:00</time>
      </trkpt>
      <trkpt lat="43.337036132812" lon="-7.5579681396484">
        <ele>420</ele>
        <time>2019-09-11T08:20:06+00:00</time>
      </trkpt>
      <trkpt lat="43.337028503418" lon="-7.5579814910889">
        <ele>419</ele>
        <time>2019-09-11T08:20:07+00:00</time>
      </trkpt>
      <trkpt lat="43.337017059326" lon="-7.5579948425293">
        <ele>419</ele>
        <time>2019-09-11T08:20:08+00:00</time>
      </trkpt>
      <trkpt lat="43.337009429932" lon="-7.5580115318298">
        <ele>419</ele>
        <time>2019-09-11T08:20:09+00:00</time>
      </trkpt>
      <trkpt lat="43.337001800537" lon="-7.5580267906189">
        <ele>418</ele>
        <time>2019-09-11T08:20:10+00:00</time>
      </trkpt>
      <trkpt lat="43.336990356445" lon="-7.5580434799194">
        <ele>418</ele>
        <time>2019-09-11T08:20:11+00:00</time>
      </trkpt>
      <trkpt lat="43.336982727051" lon="-7.5580582618713">
        <ele>419</ele>
        <time>2019-09-11T08:20:12+00:00</time>
      </trkpt>
      <trkpt lat="43.336971282959" lon="-7.5580701828003">
        <ele>419</ele>
        <time>2019-09-11T08:20:13+00:00</time>
      </trkpt>
      <trkpt lat="43.336959838867" lon="-7.5580801963806">
        <ele>419</ele>
        <time>2019-09-11T08:20:14+00:00</time>
      </trkpt>
      <trkpt lat="43.336948394775" lon="-7.5580849647522">
        <ele>418</ele>
        <time>2019-09-11T08:20:15+00:00</time>
      </trkpt>
      <trkpt lat="43.336940765381" lon="-7.5580883026123">
        <ele>418</ele>
        <time>2019-09-11T08:20:16+00:00</time>
      </trkpt>
      <trkpt lat="43.336929321289" lon="-7.5580949783325">
        <ele>419</ele>
        <time>2019-09-11T08:20:17+00:00</time>
      </trkpt>
      <trkpt lat="43.336917877197" lon="-7.5581068992615">
        <ele>419</ele>
        <time>2019-09-11T08:20:18+00:00</time>
      </trkpt>
      <trkpt lat="43.3369140625" lon="-7.5581231117249">
        <ele>418</ele>
        <time>2019-09-11T08:20:19+00:00</time>
      </trkpt>
      <trkpt lat="43.336910247803" lon="-7.558141708374">
        <ele>418</ele>
        <time>2019-09-11T08:20:20+00:00</time>
      </trkpt>
      <trkpt lat="43.336910247803" lon="-7.5581483840942">
        <ele>418</ele>
        <time>2019-09-11T08:20:21+00:00</time>
      </trkpt>
      <trkpt lat="43.336902618408" lon="-7.558159828186">
        <ele>418</ele>
        <time>2019-09-11T08:20:22+00:00</time>
      </trkpt>
      <trkpt lat="43.336894989014" lon="-7.5581698417664">
        <ele>418</ele>
        <time>2019-09-11T08:20:23+00:00</time>
      </trkpt>
      <trkpt lat="43.336887359619" lon="-7.5581831932068">
        <ele>418</ele>
        <time>2019-09-11T08:20:24+00:00</time>
      </trkpt>
      <trkpt lat="43.336879730225" lon="-7.5581984519958">
        <ele>418</ele>
        <time>2019-09-11T08:20:25+00:00</time>
      </trkpt>
      <trkpt lat="43.33687210083" lon="-7.5582032203674">
        <ele>418</ele>
        <time>2019-09-11T08:20:26+00:00</time>
      </trkpt>
      <trkpt lat="43.336864471436" lon="-7.5582084655762">
        <ele>418</ele>
        <time>2019-09-11T08:20:27+00:00</time>
      </trkpt>
      <trkpt lat="43.336853027344" lon="-7.5582184791565">
        <ele>417</ele>
        <time>2019-09-11T08:20:28+00:00</time>
      </trkpt>
      <trkpt lat="43.336841583252" lon="-7.5582332611084">
        <ele>417</ele>
        <time>2019-09-11T08:20:29+00:00</time>
      </trkpt>
      <trkpt lat="43.336837768555" lon="-7.5582499504089">
        <ele>417</ele>
        <time>2019-09-11T08:20:30+00:00</time>
      </trkpt>
      <trkpt lat="43.33683013916" lon="-7.5582585334778">
        <ele>417</ele>
        <time>2019-09-11T08:20:31+00:00</time>
      </trkpt>
      <trkpt lat="43.336818695068" lon="-7.5582666397095">
        <ele>416</ele>
        <time>2019-09-11T08:20:32+00:00</time>
      </trkpt>
      <trkpt lat="43.336807250977" lon="-7.5582766532898">
        <ele>416</ele>
        <time>2019-09-11T08:20:33+00:00</time>
      </trkpt>
      <trkpt lat="43.336791992188" lon="-7.5582866668701">
        <ele>415</ele>
        <time>2019-09-11T08:20:34+00:00</time>
      </trkpt>
      <trkpt lat="43.336780548096" lon="-7.5582981109619">
        <ele>415</ele>
        <time>2019-09-11T08:20:35+00:00</time>
      </trkpt>
      <trkpt lat="43.336769104004" lon="-7.5583100318909">
        <ele>415</ele>
        <time>2019-09-11T08:20:36+00:00</time>
      </trkpt>
      <trkpt lat="43.336757659912" lon="-7.5583248138428">
        <ele>415</ele>
        <time>2019-09-11T08:20:37+00:00</time>
      </trkpt>
      <trkpt lat="43.336742401123" lon="-7.5583415031433">
        <ele>415</ele>
        <time>2019-09-11T08:20:38+00:00</time>
      </trkpt>
      <trkpt lat="43.336727142334" lon="-7.5583581924438">
        <ele>415</ele>
        <time>2019-09-11T08:20:39+00:00</time>
      </trkpt>
      <trkpt lat="43.336719512939" lon="-7.5583748817444">
        <ele>415</ele>
        <time>2019-09-11T08:20:40+00:00</time>
      </trkpt>
      <trkpt lat="43.336711883545" lon="-7.5583915710449">
        <ele>415</ele>
        <time>2019-09-11T08:20:41+00:00</time>
      </trkpt>
      <trkpt lat="43.336708068848" lon="-7.5584049224854">
        <ele>415</ele>
        <time>2019-09-11T08:20:42+00:00</time>
      </trkpt>
      <trkpt lat="43.33670425415" lon="-7.5584182739258">
        <ele>415</ele>
        <time>2019-09-11T08:20:43+00:00</time>
      </trkpt>
      <trkpt lat="43.336696624756" lon="-7.5584335327148">
        <ele>415</ele>
        <time>2019-09-11T08:20:44+00:00</time>
      </trkpt>
      <trkpt lat="43.336696624756" lon="-7.5584449768066">
        <ele>415</ele>
        <time>2019-09-11T08:20:45+00:00</time>
      </trkpt>
      <trkpt lat="43.336685180664" lon="-7.5584602355957">
        <ele>415</ele>
        <time>2019-09-11T08:20:46+00:00</time>
      </trkpt>
      <trkpt lat="43.336673736572" lon="-7.5584697723389">
        <ele>415</ele>
        <time>2019-09-11T08:20:47+00:00</time>
      </trkpt>
      <trkpt lat="43.33666229248" lon="-7.5584831237793">
        <ele>415</ele>
        <time>2019-09-11T08:20:48+00:00</time>
      </trkpt>
      <trkpt lat="43.336654663086" lon="-7.5584931373596">
        <ele>415</ele>
        <time>2019-09-11T08:20:49+00:00</time>
      </trkpt>
      <trkpt lat="43.336647033691" lon="-7.5585050582886">
        <ele>415</ele>
        <time>2019-09-11T08:20:50+00:00</time>
      </trkpt>
      <trkpt lat="43.3366355896" lon="-7.5585150718689">
        <ele>415</ele>
        <time>2019-09-11T08:20:51+00:00</time>
      </trkpt>
      <trkpt lat="43.336631774902" lon="-7.5585198402405">
        <ele>415</ele>
        <time>2019-09-11T08:20:52+00:00</time>
      </trkpt>
      <trkpt lat="43.336627960205" lon="-7.5585298538208">
        <ele>415</ele>
        <time>2019-09-11T08:20:53+00:00</time>
      </trkpt>
      <trkpt lat="43.336624145508" lon="-7.5585384368896">
        <ele>415</ele>
        <time>2019-09-11T08:20:54+00:00</time>
      </trkpt>
      <trkpt lat="43.336616516113" lon="-7.5585498809814">
        <ele>415</ele>
        <time>2019-09-11T08:20:55+00:00</time>
      </trkpt>
      <trkpt lat="43.336612701416" lon="-7.5585532188416">
        <ele>415</ele>
        <time>2019-09-11T08:20:56+00:00</time>
      </trkpt>
      <trkpt lat="43.336605072021" lon="-7.5585551261902">
        <ele>416</ele>
        <time>2019-09-11T08:20:57+00:00</time>
      </trkpt>
      <trkpt lat="43.336597442627" lon="-7.5585598945618">
        <ele>416</ele>
        <time>2019-09-11T08:20:58+00:00</time>
      </trkpt>
      <trkpt lat="43.336589813232" lon="-7.5585684776306">
        <ele>416</ele>
        <time>2019-09-11T08:20:59+00:00</time>
      </trkpt>
      <trkpt lat="43.336582183838" lon="-7.5585718154907">
        <ele>416</ele>
        <time>2019-09-11T08:21:00+00:00</time>
      </trkpt>
      <trkpt lat="43.336574554443" lon="-7.5585751533508">
        <ele>417</ele>
        <time>2019-09-11T08:21:01+00:00</time>
      </trkpt>
      <trkpt lat="43.336563110352" lon="-7.5585832595825">
        <ele>417</ele>
        <time>2019-09-11T08:21:02+00:00</time>
      </trkpt>
      <trkpt lat="43.336555480957" lon="-7.5585918426514">
        <ele>417</ele>
        <time>2019-09-11T08:21:03+00:00</time>
      </trkpt>
      <trkpt lat="43.336547851562" lon="-7.5585999488831">
        <ele>417</ele>
        <time>2019-09-11T08:21:04+00:00</time>
      </trkpt>
      <trkpt lat="43.336540222168" lon="-7.5586085319519">
        <ele>417</ele>
        <time>2019-09-11T08:21:05+00:00</time>
      </trkpt>
      <trkpt lat="43.336532592773" lon="-7.5586185455322">
        <ele>417</ele>
        <time>2019-09-11T08:21:06+00:00</time>
      </trkpt>
      <trkpt lat="43.336524963379" lon="-7.5586318969727">
        <ele>417</ele>
        <time>2019-09-11T08:21:07+00:00</time>
      </trkpt>
      <trkpt lat="43.336517333984" lon="-7.5586414337158">
        <ele>416</ele>
        <time>2019-09-11T08:21:08+00:00</time>
      </trkpt>
      <trkpt lat="43.336505889893" lon="-7.5586566925049">
        <ele>417</ele>
        <time>2019-09-11T08:21:09+00:00</time>
      </trkpt>
      <trkpt lat="43.336498260498" lon="-7.5586667060852">
        <ele>417</ele>
        <time>2019-09-11T08:21:10+00:00</time>
      </trkpt>
      <trkpt lat="43.336486816406" lon="-7.5586767196655">
        <ele>417</ele>
        <time>2019-09-11T08:21:11+00:00</time>
      </trkpt>
      <trkpt lat="43.336479187012" lon="-7.5586881637573">
        <ele>417</ele>
        <time>2019-09-11T08:21:12+00:00</time>
      </trkpt>
      <trkpt lat="43.336471557617" lon="-7.5587000846863">
        <ele>417</ele>
        <time>2019-09-11T08:21:13+00:00</time>
      </trkpt>
      <trkpt lat="43.336463928223" lon="-7.5587100982666">
        <ele>417</ele>
        <time>2019-09-11T08:21:14+00:00</time>
      </trkpt>
      <trkpt lat="43.336456298828" lon="-7.5587182044983">
        <ele>417</ele>
        <time>2019-09-11T08:21:15+00:00</time>
      </trkpt>
      <trkpt lat="43.336448669434" lon="-7.5587334632874">
        <ele>417</ele>
        <time>2019-09-11T08:21:16+00:00</time>
      </trkpt>
      <trkpt lat="43.336441040039" lon="-7.5587434768677">
        <ele>417</ele>
        <time>2019-09-11T08:21:17+00:00</time>
      </trkpt>
      <trkpt lat="43.336433410645" lon="-7.558753490448">
        <ele>417</ele>
        <time>2019-09-11T08:21:18+00:00</time>
      </trkpt>
      <trkpt lat="43.336421966553" lon="-7.5587635040283">
        <ele>417</ele>
        <time>2019-09-11T08:21:19+00:00</time>
      </trkpt>
      <trkpt lat="43.336414337158" lon="-7.5587735176086">
        <ele>417</ele>
        <time>2019-09-11T08:21:20+00:00</time>
      </trkpt>
      <trkpt lat="43.336399078369" lon="-7.5587849617004">
        <ele>417</ele>
        <time>2019-09-11T08:21:21+00:00</time>
      </trkpt>
      <trkpt lat="43.336387634277" lon="-7.5587935447693">
        <ele>417</ele>
        <time>2019-09-11T08:21:22+00:00</time>
      </trkpt>
      <trkpt lat="43.336380004883" lon="-7.5588035583496">
        <ele>417</ele>
        <time>2019-09-11T08:21:23+00:00</time>
      </trkpt>
      <trkpt lat="43.336364746094" lon="-7.5588102340698">
        <ele>417</ele>
        <time>2019-09-11T08:21:24+00:00</time>
      </trkpt>
      <trkpt lat="43.336360931396" lon="-7.558819770813">
        <ele>417</ele>
        <time>2019-09-11T08:21:25+00:00</time>
      </trkpt>
      <trkpt lat="43.336349487305" lon="-7.5588250160217">
        <ele>417</ele>
        <time>2019-09-11T08:21:26+00:00</time>
      </trkpt>
      <trkpt lat="43.33634185791" lon="-7.5588383674622">
        <ele>418</ele>
        <time>2019-09-11T08:21:27+00:00</time>
      </trkpt>
      <trkpt lat="43.336345672607" lon="-7.5588417053223">
        <ele>418</ele>
        <time>2019-09-11T08:21:28+00:00</time>
      </trkpt>
      <trkpt lat="43.336349487305" lon="-7.558849811554">
        <ele>418</ele>
        <time>2019-09-11T08:21:29+00:00</time>
      </trkpt>
      <trkpt lat="43.336353302002" lon="-7.5588631629944">
        <ele>419</ele>
        <time>2019-09-11T08:21:30+00:00</time>
      </trkpt>
      <trkpt lat="43.336360931396" lon="-7.5588698387146">
        <ele>419</ele>
        <time>2019-09-11T08:21:31+00:00</time>
      </trkpt>
      <trkpt lat="43.336368560791" lon="-7.5588765144348">
        <ele>419</ele>
        <time>2019-09-11T08:21:32+00:00</time>
      </trkpt>
      <trkpt lat="43.336368560791" lon="-7.5588731765747">
        <ele>419</ele>
        <time>2019-09-11T08:21:33+00:00</time>
      </trkpt>
      <trkpt lat="43.336368560791" lon="-7.5588765144348">
        <ele>420</ele>
        <time>2019-09-11T08:21:34+00:00</time>
      </trkpt>
      <trkpt lat="43.336380004883" lon="-7.5588750839233">
        <ele>420</ele>
        <time>2019-09-11T08:21:35+00:00</time>
      </trkpt>
      <trkpt lat="43.33638381958" lon="-7.5588698387146">
        <ele>420</ele>
        <time>2019-09-11T08:21:36+00:00</time>
      </trkpt>
      <trkpt lat="43.336380004883" lon="-7.5588784217834">
        <ele>421</ele>
        <time>2019-09-11T08:21:37+00:00</time>
      </trkpt>
      <trkpt lat="43.336376190186" lon="-7.558883190155">
        <ele>421</ele>
        <time>2019-09-11T08:21:38+00:00</time>
      </trkpt>
      <trkpt lat="43.336380004883" lon="-7.5588865280151">
        <ele>421</ele>
        <time>2019-09-11T08:21:39+00:00</time>
      </trkpt>
      <trkpt lat="43.336376190186" lon="-7.5588884353638">
        <ele>421</ele>
        <time>2019-09-11T08:21:40+00:00</time>
      </trkpt>
      <trkpt lat="43.336364746094" lon="-7.5588932037354">
        <ele>422</ele>
        <time>2019-09-11T08:21:41+00:00</time>
      </trkpt>
      <trkpt lat="43.336364746094" lon="-7.5588932037354">
        <ele>422</ele>
        <time>2019-09-11T08:21:42+00:00</time>
      </trkpt>
      <trkpt lat="43.336364746094" lon="-7.5588932037354">
        <ele>422</ele>
        <time>2019-09-11T08:21:43+00:00</time>
      </trkpt>
      <trkpt lat="43.336364746094" lon="-7.5588932037354">
        <ele>422</ele>
        <time>2019-09-11T08:21:44+00:00</time>
      </trkpt>
      <trkpt lat="43.336364746094" lon="-7.5588932037354">
        <ele>422</ele>
        <time>2019-09-11T08:21:45+00:00</time>
      </trkpt>
      <trkpt lat="43.336364746094" lon="-7.5588932037354">
        <ele>422</ele>
        <time>2019-09-11T08:21:46+00:00</time>
      </trkpt>
      <trkpt lat="43.336326599121" lon="-7.5589032173157">
        <ele>422</ele>
        <time>2019-09-11T08:21:47+00:00</time>
      </trkpt>
      <trkpt lat="43.336318969727" lon="-7.5589032173157">
        <ele>422</ele>
        <time>2019-09-11T08:21:48+00:00</time>
      </trkpt>
      <trkpt lat="43.336315155029" lon="-7.5588998794556">
        <ele>422</ele>
        <time>2019-09-11T08:21:49+00:00</time>
      </trkpt>
      <trkpt lat="43.336315155029" lon="-7.558895111084">
        <ele>423</ele>
        <time>2019-09-11T08:21:50+00:00</time>
      </trkpt>
      <trkpt lat="43.336311340332" lon="-7.558895111084">
        <ele>423</ele>
        <time>2019-09-11T08:21:51+00:00</time>
      </trkpt>
      <trkpt lat="43.336311340332" lon="-7.558895111084">
        <ele>423</ele>
        <time>2019-09-11T08:21:52+00:00</time>
      </trkpt>
      <trkpt lat="43.33629989624" lon="-7.558895111084">
        <ele>423</ele>
        <time>2019-09-11T08:21:53+00:00</time>
      </trkpt>
      <trkpt lat="43.336303710938" lon="-7.5588932037354">
        <ele>423</ele>
        <time>2019-09-11T08:21:54+00:00</time>
      </trkpt>
      <trkpt lat="43.336303710938" lon="-7.5588917732239">
        <ele>423</ele>
        <time>2019-09-11T08:21:55+00:00</time>
      </trkpt>
      <trkpt lat="43.33629989624" lon="-7.5588898658752">
        <ele>424</ele>
        <time>2019-09-11T08:21:56+00:00</time>
      </trkpt>
      <trkpt lat="43.336296081543" lon="-7.5588898658752">
        <ele>424</ele>
        <time>2019-09-11T08:21:57+00:00</time>
      </trkpt>
      <trkpt lat="43.336296081543" lon="-7.558895111084">
        <ele>424</ele>
        <time>2019-09-11T08:21:58+00:00</time>
      </trkpt>
      <trkpt lat="43.336296081543" lon="-7.558895111084">
        <ele>424</ele>
        <time>2019-09-11T08:21:59+00:00</time>
      </trkpt>
      <trkpt lat="43.336296081543" lon="-7.558895111084">
        <ele>424</ele>
        <time>2019-09-11T08:22:00+00:00</time>
      </trkpt>
      <trkpt lat="43.336273193359" lon="-7.5589151382446">
        <ele>424</ele>
        <time>2019-09-11T08:22:01+00:00</time>
      </trkpt>
      <trkpt lat="43.336269378662" lon="-7.5589218139648">
        <ele>425</ele>
        <time>2019-09-11T08:22:02+00:00</time>
      </trkpt>
      <trkpt lat="43.336261749268" lon="-7.558925151825">
        <ele>425</ele>
        <time>2019-09-11T08:22:03+00:00</time>
      </trkpt>
      <trkpt lat="43.336265563965" lon="-7.5589218139648">
        <ele>425</ele>
        <time>2019-09-11T08:22:04+00:00</time>
      </trkpt>
      <trkpt lat="43.336261749268" lon="-7.5589151382446">
        <ele>425</ele>
        <time>2019-09-11T08:22:05+00:00</time>
      </trkpt>
      <trkpt lat="43.336280822754" lon="-7.5588998794556">
        <ele>425</ele>
        <time>2019-09-11T08:22:06+00:00</time>
      </trkpt>
      <trkpt lat="43.336250305176" lon="-7.5589199066162">
        <ele>425</ele>
        <time>2019-09-11T08:22:07+00:00</time>
      </trkpt>
      <trkpt lat="43.336242675781" lon="-7.5589265823364">
        <ele>425</ele>
        <time>2019-09-11T08:22:08+00:00</time>
      </trkpt>
      <trkpt lat="43.336227416992" lon="-7.5589385032654">
        <ele>425</ele>
        <time>2019-09-11T08:22:09+00:00</time>
      </trkpt>
      <trkpt lat="43.3362159729" lon="-7.5589451789856">
        <ele>425</ele>
        <time>2019-09-11T08:22:10+00:00</time>
      </trkpt>
      <trkpt lat="43.336204528809" lon="-7.5589551925659">
        <ele>425</ele>
        <time>2019-09-11T08:22:11+00:00</time>
      </trkpt>
      <trkpt lat="43.336193084717" lon="-7.5589666366577">
        <ele>425</ele>
        <time>2019-09-11T08:22:12+00:00</time>
      </trkpt>
      <trkpt lat="43.336181640625" lon="-7.5589785575867">
        <ele>425</ele>
        <time>2019-09-11T08:22:13+00:00</time>
      </trkpt>
      <trkpt lat="43.33617401123" lon="-7.558988571167">
        <ele>425</ele>
        <time>2019-09-11T08:22:14+00:00</time>
      </trkpt>
      <trkpt lat="43.336170196533" lon="-7.5589966773987">
        <ele>425</ele>
        <time>2019-09-11T08:22:15+00:00</time>
      </trkpt>
      <trkpt lat="43.336170196533" lon="-7.559006690979">
        <ele>425</ele>
        <time>2019-09-11T08:22:16+00:00</time>
      </trkpt>
      <trkpt lat="43.336170196533" lon="-7.5590081214905">
        <ele>425</ele>
        <time>2019-09-11T08:22:17+00:00</time>
      </trkpt>
      <trkpt lat="43.336170196533" lon="-7.5590133666992">
        <ele>425</ele>
        <time>2019-09-11T08:22:18+00:00</time>
      </trkpt>
      <trkpt lat="43.336170196533" lon="-7.5590214729309">
        <ele>425</ele>
        <time>2019-09-11T08:22:19+00:00</time>
      </trkpt>
      <trkpt lat="43.336170196533" lon="-7.5590281486511">
        <ele>425</ele>
        <time>2019-09-11T08:22:20+00:00</time>
      </trkpt>
      <trkpt lat="43.336162567139" lon="-7.5590281486511">
        <ele>425</ele>
        <time>2019-09-11T08:22:21+00:00</time>
      </trkpt>
      <trkpt lat="43.336143493652" lon="-7.5590314865112">
        <ele>426</ele>
        <time>2019-09-11T08:22:22+00:00</time>
      </trkpt>
      <trkpt lat="43.336128234863" lon="-7.5590348243713">
        <ele>426</ele>
        <time>2019-09-11T08:22:23+00:00</time>
      </trkpt>
      <trkpt lat="43.336120605469" lon="-7.5590400695801">
        <ele>426</ele>
        <time>2019-09-11T08:22:24+00:00</time>
      </trkpt>
      <trkpt lat="43.336112976074" lon="-7.5590467453003">
        <ele>426</ele>
        <time>2019-09-11T08:22:25+00:00</time>
      </trkpt>
      <trkpt lat="43.336109161377" lon="-7.559054851532">
        <ele>426</ele>
        <time>2019-09-11T08:22:26+00:00</time>
      </trkpt>
      <trkpt lat="43.336109161377" lon="-7.5590667724609">
        <ele>426</ele>
        <time>2019-09-11T08:22:27+00:00</time>
      </trkpt>
      <trkpt lat="43.336101531982" lon="-7.5590815544128">
        <ele>426</ele>
        <time>2019-09-11T08:22:28+00:00</time>
      </trkpt>
      <trkpt lat="43.336101531982" lon="-7.5590949058533">
        <ele>426</ele>
        <time>2019-09-11T08:22:29+00:00</time>
      </trkpt>
      <trkpt lat="43.336093902588" lon="-7.5591068267822">
        <ele>426</ele>
        <time>2019-09-11T08:22:30+00:00</time>
      </trkpt>
      <trkpt lat="43.336090087891" lon="-7.5591201782227">
        <ele>426</ele>
        <time>2019-09-11T08:22:31+00:00</time>
      </trkpt>
      <trkpt lat="43.336078643799" lon="-7.5591249465942">
        <ele>426</ele>
        <time>2019-09-11T08:22:32+00:00</time>
      </trkpt>
      <trkpt lat="43.336074829102" lon="-7.5591268539429">
        <ele>426</ele>
        <time>2019-09-11T08:22:33+00:00</time>
      </trkpt>
      <trkpt lat="43.336067199707" lon="-7.5591335296631">
        <ele>426</ele>
        <time>2019-09-11T08:22:34+00:00</time>
      </trkpt>
      <trkpt lat="43.336055755615" lon="-7.5591468811035">
        <ele>426</ele>
        <time>2019-09-11T08:22:35+00:00</time>
      </trkpt>
      <trkpt lat="43.336048126221" lon="-7.5591650009155">
        <ele>426</ele>
        <time>2019-09-11T08:22:36+00:00</time>
      </trkpt>
      <trkpt lat="43.336036682129" lon="-7.5591816902161">
        <ele>426</ele>
        <time>2019-09-11T08:22:37+00:00</time>
      </trkpt>
      <trkpt lat="43.336025238037" lon="-7.559196472168">
        <ele>426</ele>
        <time>2019-09-11T08:22:38+00:00</time>
      </trkpt>
      <trkpt lat="43.336017608643" lon="-7.5592064857483">
        <ele>426</ele>
        <time>2019-09-11T08:22:39+00:00</time>
      </trkpt>
      <trkpt lat="43.336009979248" lon="-7.5592198371887">
        <ele>426</ele>
        <time>2019-09-11T08:22:40+00:00</time>
      </trkpt>
      <trkpt lat="43.336002349854" lon="-7.5592317581177">
        <ele>426</ele>
        <time>2019-09-11T08:22:41+00:00</time>
      </trkpt>
      <trkpt lat="43.335994720459" lon="-7.5592451095581">
        <ele>426</ele>
        <time>2019-09-11T08:22:42+00:00</time>
      </trkpt>
      <trkpt lat="43.335994720459" lon="-7.5592565536499">
        <ele>426</ele>
        <time>2019-09-11T08:22:43+00:00</time>
      </trkpt>
      <trkpt lat="43.335990905762" lon="-7.5592584609985">
        <ele>426</ele>
        <time>2019-09-11T08:22:44+00:00</time>
      </trkpt>
      <trkpt lat="43.335968017578" lon="-7.5592765808105">
        <ele>426</ele>
        <time>2019-09-11T08:22:45+00:00</time>
      </trkpt>
      <trkpt lat="43.335964202881" lon="-7.5592784881592">
        <ele>427</ele>
        <time>2019-09-11T08:22:46+00:00</time>
      </trkpt>
      <trkpt lat="43.335952758789" lon="-7.5592832565308">
        <ele>427</ele>
        <time>2019-09-11T08:22:47+00:00</time>
      </trkpt>
      <trkpt lat="43.335945129395" lon="-7.5592951774597">
        <ele>427</ele>
        <time>2019-09-11T08:22:48+00:00</time>
      </trkpt>
      <trkpt lat="43.335929870605" lon="-7.5593066215515">
        <ele>427</ele>
        <time>2019-09-11T08:22:49+00:00</time>
      </trkpt>
      <trkpt lat="43.335922241211" lon="-7.5593233108521">
        <ele>427</ele>
        <time>2019-09-11T08:22:50+00:00</time>
      </trkpt>
      <trkpt lat="43.335914611816" lon="-7.5593385696411">
        <ele>427</ele>
        <time>2019-09-11T08:22:51+00:00</time>
      </trkpt>
      <trkpt lat="43.335903167725" lon="-7.5593447685242">
        <ele>428</ele>
        <time>2019-09-11T08:22:52+00:00</time>
      </trkpt>
      <trkpt lat="43.33589553833" lon="-7.5593566894531">
        <ele>428</ele>
        <time>2019-09-11T08:22:53+00:00</time>
      </trkpt>
      <trkpt lat="43.335891723633" lon="-7.5593700408936">
        <ele>428</ele>
        <time>2019-09-11T08:22:54+00:00</time>
      </trkpt>
      <trkpt lat="43.335884094238" lon="-7.5593781471252">
        <ele>428</ele>
        <time>2019-09-11T08:22:55+00:00</time>
      </trkpt>
      <trkpt lat="43.335868835449" lon="-7.5593848228455">
        <ele>429</ele>
        <time>2019-09-11T08:22:56+00:00</time>
      </trkpt>
      <trkpt lat="43.335861206055" lon="-7.5593914985657">
        <ele>429</ele>
        <time>2019-09-11T08:22:57+00:00</time>
      </trkpt>
      <trkpt lat="43.335849761963" lon="-7.5594000816345">
        <ele>429</ele>
        <time>2019-09-11T08:22:58+00:00</time>
      </trkpt>
      <trkpt lat="43.335845947266" lon="-7.5594115257263">
        <ele>429</ele>
        <time>2019-09-11T08:22:59+00:00</time>
      </trkpt>
      <trkpt lat="43.335830688477" lon="-7.5594248771667">
        <ele>430</ele>
        <time>2019-09-11T08:23:00+00:00</time>
      </trkpt>
      <trkpt lat="43.335823059082" lon="-7.559431552887">
        <ele>430</ele>
        <time>2019-09-11T08:23:01+00:00</time>
      </trkpt>
      <trkpt lat="43.33581161499" lon="-7.5594367980957">
        <ele>430</ele>
        <time>2019-09-11T08:23:02+00:00</time>
      </trkpt>
      <trkpt lat="43.335803985596" lon="-7.5594415664673">
        <ele>430</ele>
        <time>2019-09-11T08:23:03+00:00</time>
      </trkpt>
      <trkpt lat="43.335792541504" lon="-7.5594534873962">
        <ele>430</ele>
        <time>2019-09-11T08:23:04+00:00</time>
      </trkpt>
      <trkpt lat="43.335792541504" lon="-7.5594668388367">
        <ele>431</ele>
        <time>2019-09-11T08:23:05+00:00</time>
      </trkpt>
      <trkpt lat="43.335788726807" lon="-7.559476852417">
        <ele>431</ele>
        <time>2019-09-11T08:23:06+00:00</time>
      </trkpt>
      <trkpt lat="43.335765838623" lon="-7.5594849586487">
        <ele>431</ele>
        <time>2019-09-11T08:23:07+00:00</time>
      </trkpt>
      <trkpt lat="43.335746765137" lon="-7.5594849586487">
        <ele>432</ele>
        <time>2019-09-11T08:23:08+00:00</time>
      </trkpt>
      <trkpt lat="43.335735321045" lon="-7.5594935417175">
        <ele>433</ele>
        <time>2019-09-11T08:23:09+00:00</time>
      </trkpt>
      <trkpt lat="43.335723876953" lon="-7.5595049858093">
        <ele>433</ele>
        <time>2019-09-11T08:23:10+00:00</time>
      </trkpt>
      <trkpt lat="43.335708618164" lon="-7.5595197677612">
        <ele>433</ele>
        <time>2019-09-11T08:23:11+00:00</time>
      </trkpt>
      <trkpt lat="43.335697174072" lon="-7.5595283508301">
        <ele>433</ele>
        <time>2019-09-11T08:23:12+00:00</time>
      </trkpt>
      <trkpt lat="43.33568572998" lon="-7.5595383644104">
        <ele>433</ele>
        <time>2019-09-11T08:23:13+00:00</time>
      </trkpt>
      <trkpt lat="43.335674285889" lon="-7.5595464706421">
        <ele>433</ele>
        <time>2019-09-11T08:23:14+00:00</time>
      </trkpt>
      <trkpt lat="43.335666656494" lon="-7.5595550537109">
        <ele>433</ele>
        <time>2019-09-11T08:23:15+00:00</time>
      </trkpt>
      <trkpt lat="43.335655212402" lon="-7.5595598220825">
        <ele>433</ele>
        <time>2019-09-11T08:23:16+00:00</time>
      </trkpt>
      <trkpt lat="43.335643768311" lon="-7.5595650672913">
        <ele>433</ele>
        <time>2019-09-11T08:23:17+00:00</time>
      </trkpt>
      <trkpt lat="43.335632324219" lon="-7.5595717430115">
        <ele>433</ele>
        <time>2019-09-11T08:23:18+00:00</time>
      </trkpt>
      <trkpt lat="43.335620880127" lon="-7.5595765113831">
        <ele>433</ele>
        <time>2019-09-11T08:23:19+00:00</time>
      </trkpt>
      <trkpt lat="43.335601806641" lon="-7.5595831871033">
        <ele>433</ele>
        <time>2019-09-11T08:23:20+00:00</time>
      </trkpt>
      <trkpt lat="43.335586547852" lon="-7.5595865249634">
        <ele>433</ele>
        <time>2019-09-11T08:23:21+00:00</time>
      </trkpt>
      <trkpt lat="43.33557510376" lon="-7.5595898628235">
        <ele>433</ele>
        <time>2019-09-11T08:23:22+00:00</time>
      </trkpt>
      <trkpt lat="43.335563659668" lon="-7.5595932006836">
        <ele>433</ele>
        <time>2019-09-11T08:23:23+00:00</time>
      </trkpt>
      <trkpt lat="43.335556030273" lon="-7.5595984458923">
        <ele>432</ele>
        <time>2019-09-11T08:23:24+00:00</time>
      </trkpt>
      <trkpt lat="43.335548400879" lon="-7.5596098899841">
        <ele>432</ele>
        <time>2019-09-11T08:23:25+00:00</time>
      </trkpt>
      <trkpt lat="43.335540771484" lon="-7.559618473053">
        <ele>432</ele>
        <time>2019-09-11T08:23:26+00:00</time>
      </trkpt>
      <trkpt lat="43.33553314209" lon="-7.5596218109131">
        <ele>432</ele>
        <time>2019-09-11T08:23:27+00:00</time>
      </trkpt>
      <trkpt lat="43.335525512695" lon="-7.5596318244934">
        <ele>431</ele>
        <time>2019-09-11T08:23:28+00:00</time>
      </trkpt>
      <trkpt lat="43.335521697998" lon="-7.5596485137939">
        <ele>430</ele>
        <time>2019-09-11T08:23:29+00:00</time>
      </trkpt>
      <trkpt lat="43.335517883301" lon="-7.5596551895142">
        <ele>430</ele>
        <time>2019-09-11T08:23:30+00:00</time>
      </trkpt>
      <trkpt lat="43.335510253906" lon="-7.5596685409546">
        <ele>429</ele>
        <time>2019-09-11T08:23:31+00:00</time>
      </trkpt>
      <trkpt lat="43.335506439209" lon="-7.5596766471863">
        <ele>429</ele>
        <time>2019-09-11T08:23:32+00:00</time>
      </trkpt>
      <trkpt lat="43.335498809814" lon="-7.5596833229065">
        <ele>429</ele>
        <time>2019-09-11T08:23:33+00:00</time>
      </trkpt>
      <trkpt lat="43.335494995117" lon="-7.5596914291382">
        <ele>428</ele>
        <time>2019-09-11T08:23:34+00:00</time>
      </trkpt>
      <trkpt lat="43.335487365723" lon="-7.559700012207">
        <ele>428</ele>
        <time>2019-09-11T08:23:35+00:00</time>
      </trkpt>
      <trkpt lat="43.335487365723" lon="-7.5597014427185">
        <ele>428</ele>
        <time>2019-09-11T08:23:36+00:00</time>
      </trkpt>
      <trkpt lat="43.33549118042" lon="-7.5597014427185">
        <ele>428</ele>
        <time>2019-09-11T08:23:37+00:00</time>
      </trkpt>
      <trkpt lat="43.33549118042" lon="-7.559700012207">
        <ele>427</ele>
        <time>2019-09-11T08:23:38+00:00</time>
      </trkpt>
      <trkpt lat="43.33549118042" lon="-7.5597014427185">
        <ele>427</ele>
        <time>2019-09-11T08:23:39+00:00</time>
      </trkpt>
      <trkpt lat="43.335475921631" lon="-7.5597066879272">
        <ele>427</ele>
        <time>2019-09-11T08:23:40+00:00</time>
      </trkpt>
      <trkpt lat="43.335468292236" lon="-7.5597100257874">
        <ele>427</ele>
        <time>2019-09-11T08:23:41+00:00</time>
      </trkpt>
      <trkpt lat="43.335453033447" lon="-7.5597133636475">
        <ele>427</ele>
        <time>2019-09-11T08:23:42+00:00</time>
      </trkpt>
      <trkpt lat="43.335437774658" lon="-7.5597214698792">
        <ele>427</ele>
        <time>2019-09-11T08:23:43+00:00</time>
      </trkpt>
      <trkpt lat="43.335403442383" lon="-7.5597400665283">
        <ele>427</ele>
        <time>2019-09-11T08:23:44+00:00</time>
      </trkpt>
      <trkpt lat="43.335372924805" lon="-7.5597581863403">
        <ele>426</ele>
        <time>2019-09-11T08:23:45+00:00</time>
      </trkpt>
      <trkpt lat="43.335350036621" lon="-7.5597848892212">
        <ele>426</ele>
        <time>2019-09-11T08:23:46+00:00</time>
      </trkpt>
      <trkpt lat="43.335338592529" lon="-7.5597982406616">
        <ele>426</ele>
        <time>2019-09-11T08:23:47+00:00</time>
      </trkpt>
      <trkpt lat="43.335330963135" lon="-7.5598034858704">
        <ele>426</ele>
        <time>2019-09-11T08:23:48+00:00</time>
      </trkpt>
      <trkpt lat="43.33532333374" lon="-7.5598182678223">
        <ele>426</ele>
        <time>2019-09-11T08:23:49+00:00</time>
      </trkpt>
      <trkpt lat="43.335315704346" lon="-7.5598301887512">
        <ele>426</ele>
        <time>2019-09-11T08:23:50+00:00</time>
      </trkpt>
      <trkpt lat="43.335308074951" lon="-7.5598382949829">
        <ele>426</ele>
        <time>2019-09-11T08:23:51+00:00</time>
      </trkpt>
      <trkpt lat="43.335296630859" lon="-7.5598435401917">
        <ele>427</ele>
        <time>2019-09-11T08:23:52+00:00</time>
      </trkpt>
      <trkpt lat="43.33528137207" lon="-7.5598583221436">
        <ele>427</ele>
        <time>2019-09-11T08:23:53+00:00</time>
      </trkpt>
      <trkpt lat="43.335269927979" lon="-7.5598783493042">
        <ele>427</ele>
        <time>2019-09-11T08:23:54+00:00</time>
      </trkpt>
      <trkpt lat="43.335258483887" lon="-7.5598850250244">
        <ele>427</ele>
        <time>2019-09-11T08:23:55+00:00</time>
      </trkpt>
      <trkpt lat="43.3352394104" lon="-7.5599098205566">
        <ele>427</ele>
        <time>2019-09-11T08:23:56+00:00</time>
      </trkpt>
      <trkpt lat="43.335224151611" lon="-7.5599365234375">
        <ele>427</ele>
        <time>2019-09-11T08:23:57+00:00</time>
      </trkpt>
      <trkpt lat="43.33521270752" lon="-7.5599551200867">
        <ele>427</ele>
        <time>2019-09-11T08:23:58+00:00</time>
      </trkpt>
      <trkpt lat="43.33519744873" lon="-7.5599718093872">
        <ele>427</ele>
        <time>2019-09-11T08:23:59+00:00</time>
      </trkpt>
      <trkpt lat="43.335189819336" lon="-7.559983253479">
        <ele>428</ele>
        <time>2019-09-11T08:24:00+00:00</time>
      </trkpt>
      <trkpt lat="43.335174560547" lon="-7.5599999427795">
        <ele>428</ele>
        <time>2019-09-11T08:24:01+00:00</time>
      </trkpt>
      <trkpt lat="43.335163116455" lon="-7.5600085258484">
        <ele>428</ele>
        <time>2019-09-11T08:24:02+00:00</time>
      </trkpt>
      <trkpt lat="43.335151672363" lon="-7.5600252151489">
        <ele>428</ele>
        <time>2019-09-11T08:24:03+00:00</time>
      </trkpt>
      <trkpt lat="43.335140228271" lon="-7.5600352287292">
        <ele>427</ele>
        <time>2019-09-11T08:24:04+00:00</time>
      </trkpt>
      <trkpt lat="43.33512878418" lon="-7.5600447654724">
        <ele>427</ele>
        <time>2019-09-11T08:24:05+00:00</time>
      </trkpt>
      <trkpt lat="43.33512878418" lon="-7.5600581169128">
        <ele>427</ele>
        <time>2019-09-11T08:24:06+00:00</time>
      </trkpt>
      <trkpt lat="43.335121154785" lon="-7.5600647926331">
        <ele>426</ele>
        <time>2019-09-11T08:24:07+00:00</time>
      </trkpt>
      <trkpt lat="43.335113525391" lon="-7.5600748062134">
        <ele>426</ele>
        <time>2019-09-11T08:24:08+00:00</time>
      </trkpt>
      <trkpt lat="43.335102081299" lon="-7.5600848197937">
        <ele>426</ele>
        <time>2019-09-11T08:24:09+00:00</time>
      </trkpt>
      <trkpt lat="43.335090637207" lon="-7.5600934028625">
        <ele>426</ele>
        <time>2019-09-11T08:24:10+00:00</time>
      </trkpt>
      <trkpt lat="43.335083007812" lon="-7.5601048469543">
        <ele>426</ele>
        <time>2019-09-11T08:24:11+00:00</time>
      </trkpt>
      <trkpt lat="43.335067749023" lon="-7.5601134300232">
        <ele>426</ele>
        <time>2019-09-11T08:24:12+00:00</time>
      </trkpt>
      <trkpt lat="43.335060119629" lon="-7.5601201057434">
        <ele>426</ele>
        <time>2019-09-11T08:24:13+00:00</time>
      </trkpt>
      <trkpt lat="43.335052490234" lon="-7.560124874115">
        <ele>426</ele>
        <time>2019-09-11T08:24:14+00:00</time>
      </trkpt>
      <trkpt lat="43.33504486084" lon="-7.5601315498352">
        <ele>426</ele>
        <time>2019-09-11T08:24:15+00:00</time>
      </trkpt>
      <trkpt lat="43.335041046143" lon="-7.5601449012756">
        <ele>426</ele>
        <time>2019-09-11T08:24:16+00:00</time>
      </trkpt>
      <trkpt lat="43.335029602051" lon="-7.560154914856">
        <ele>427</ele>
        <time>2019-09-11T08:24:17+00:00</time>
      </trkpt>
      <trkpt lat="43.335021972656" lon="-7.5601649284363">
        <ele>427</ele>
        <time>2019-09-11T08:24:18+00:00</time>
      </trkpt>
      <trkpt lat="43.335014343262" lon="-7.5601768493652">
        <ele>427</ele>
        <time>2019-09-11T08:24:19+00:00</time>
      </trkpt>
      <trkpt lat="43.335006713867" lon="-7.5601835250854">
        <ele>427</ele>
        <time>2019-09-11T08:24:20+00:00</time>
      </trkpt>
      <trkpt lat="43.334995269775" lon="-7.560200214386">
        <ele>427</ele>
        <time>2019-09-11T08:24:21+00:00</time>
      </trkpt>
      <trkpt lat="43.334980010986" lon="-7.5602083206177">
        <ele>427</ele>
        <time>2019-09-11T08:24:22+00:00</time>
      </trkpt>
      <trkpt lat="43.334968566895" lon="-7.5602216720581">
        <ele>427</ele>
        <time>2019-09-11T08:24:23+00:00</time>
      </trkpt>
      <trkpt lat="43.334953308105" lon="-7.5602350234985">
        <ele>427</ele>
        <time>2019-09-11T08:24:24+00:00</time>
      </trkpt>
      <trkpt lat="43.334945678711" lon="-7.5602450370789">
        <ele>427</ele>
        <time>2019-09-11T08:24:25+00:00</time>
      </trkpt>
      <trkpt lat="43.334930419922" lon="-7.5602564811707">
        <ele>427</ele>
        <time>2019-09-11T08:24:26+00:00</time>
      </trkpt>
      <trkpt lat="43.33491897583" lon="-7.5602684020996">
        <ele>427</ele>
        <time>2019-09-11T08:24:27+00:00</time>
      </trkpt>
      <trkpt lat="43.334907531738" lon="-7.5602798461914">
        <ele>427</ele>
        <time>2019-09-11T08:24:28+00:00</time>
      </trkpt>
      <trkpt lat="43.334899902344" lon="-7.5602865219116">
        <ele>427</ele>
        <time>2019-09-11T08:24:29+00:00</time>
      </trkpt>
      <trkpt lat="43.334892272949" lon="-7.5602884292603">
        <ele>427</ele>
        <time>2019-09-11T08:24:30+00:00</time>
      </trkpt>
      <trkpt lat="43.334884643555" lon="-7.5602951049805">
        <ele>427</ele>
        <time>2019-09-11T08:24:31+00:00</time>
      </trkpt>
      <trkpt lat="43.33487701416" lon="-7.5603065490723">
        <ele>427</ele>
        <time>2019-09-11T08:24:32+00:00</time>
      </trkpt>
      <trkpt lat="43.33487701416" lon="-7.5603151321411">
        <ele>426</ele>
        <time>2019-09-11T08:24:33+00:00</time>
      </trkpt>
      <trkpt lat="43.334873199463" lon="-7.5603232383728">
        <ele>426</ele>
        <time>2019-09-11T08:24:34+00:00</time>
      </trkpt>
      <trkpt lat="43.334869384766" lon="-7.5603365898132">
        <ele>426</ele>
        <time>2019-09-11T08:24:35+00:00</time>
      </trkpt>
      <trkpt lat="43.334865570068" lon="-7.5603485107422">
        <ele>426</ele>
        <time>2019-09-11T08:24:36+00:00</time>
      </trkpt>
      <trkpt lat="43.334854125977" lon="-7.5603585243225">
        <ele>426</ele>
        <time>2019-09-11T08:24:37+00:00</time>
      </trkpt>
      <trkpt lat="43.334842681885" lon="-7.5603718757629">
        <ele>426</ele>
        <time>2019-09-11T08:24:38+00:00</time>
      </trkpt>
      <trkpt lat="43.33483505249" lon="-7.5603785514832">
        <ele>426</ele>
        <time>2019-09-11T08:24:39+00:00</time>
      </trkpt>
      <trkpt lat="43.334831237793" lon="-7.5603852272034">
        <ele>426</ele>
        <time>2019-09-11T08:24:40+00:00</time>
      </trkpt>
      <trkpt lat="43.334823608398" lon="-7.5603933334351">
        <ele>426</ele>
        <time>2019-09-11T08:24:41+00:00</time>
      </trkpt>
      <trkpt lat="43.334815979004" lon="-7.5603981018066">
        <ele>426</ele>
        <time>2019-09-11T08:24:42+00:00</time>
      </trkpt>
      <trkpt lat="43.334808349609" lon="-7.5604047775269">
        <ele>426</ele>
        <time>2019-09-11T08:24:43+00:00</time>
      </trkpt>
      <trkpt lat="43.334800720215" lon="-7.5604100227356">
        <ele>425</ele>
        <time>2019-09-11T08:24:44+00:00</time>
      </trkpt>
      <trkpt lat="43.33479309082" lon="-7.5604147911072">
        <ele>425</ele>
        <time>2019-09-11T08:24:45+00:00</time>
      </trkpt>
      <trkpt lat="43.334785461426" lon="-7.5604214668274">
        <ele>425</ele>
        <time>2019-09-11T08:24:46+00:00</time>
      </trkpt>
      <trkpt lat="43.334774017334" lon="-7.5604281425476">
        <ele>425</ele>
        <time>2019-09-11T08:24:47+00:00</time>
      </trkpt>
      <trkpt lat="43.334762573242" lon="-7.5604348182678">
        <ele>425</ele>
        <time>2019-09-11T08:24:48+00:00</time>
      </trkpt>
      <trkpt lat="43.33475112915" lon="-7.5604434013367">
        <ele>425</ele>
        <time>2019-09-11T08:24:49+00:00</time>
      </trkpt>
      <trkpt lat="43.334739685059" lon="-7.5604515075684">
        <ele>425</ele>
        <time>2019-09-11T08:24:50+00:00</time>
      </trkpt>
      <trkpt lat="43.33472442627" lon="-7.5604615211487">
        <ele>425</ele>
        <time>2019-09-11T08:24:51+00:00</time>
      </trkpt>
      <trkpt lat="43.334712982178" lon="-7.5604748725891">
        <ele>425</ele>
        <time>2019-09-11T08:24:52+00:00</time>
      </trkpt>
      <trkpt lat="43.334697723389" lon="-7.5604948997498">
        <ele>425</ele>
        <time>2019-09-11T08:24:53+00:00</time>
      </trkpt>
      <trkpt lat="43.334690093994" lon="-7.5605049133301">
        <ele>425</ele>
        <time>2019-09-11T08:24:54+00:00</time>
      </trkpt>
      <trkpt lat="43.3346824646" lon="-7.5605201721191">
        <ele>425</ele>
        <time>2019-09-11T08:24:55+00:00</time>
      </trkpt>
      <trkpt lat="43.334671020508" lon="-7.5605335235596">
        <ele>425</ele>
        <time>2019-09-11T08:24:56+00:00</time>
      </trkpt>
      <trkpt lat="43.334659576416" lon="-7.5605483055115">
        <ele>425</ele>
        <time>2019-09-11T08:24:57+00:00</time>
      </trkpt>
      <trkpt lat="43.334644317627" lon="-7.5605616569519">
        <ele>425</ele>
        <time>2019-09-11T08:24:58+00:00</time>
      </trkpt>
      <trkpt lat="43.334632873535" lon="-7.5605764389038">
        <ele>425</ele>
        <time>2019-09-11T08:24:59+00:00</time>
      </trkpt>
      <trkpt lat="43.334613800049" lon="-7.5605931282043">
        <ele>425</ele>
        <time>2019-09-11T08:25:00+00:00</time>
      </trkpt>
      <trkpt lat="43.33459854126" lon="-7.5606050491333">
        <ele>425</ele>
        <time>2019-09-11T08:25:01+00:00</time>
      </trkpt>
      <trkpt lat="43.334587097168" lon="-7.5606198310852">
        <ele>425</ele>
        <time>2019-09-11T08:25:02+00:00</time>
      </trkpt>
      <trkpt lat="43.334579467773" lon="-7.5606298446655">
        <ele>425</ele>
        <time>2019-09-11T08:25:03+00:00</time>
      </trkpt>
      <trkpt lat="43.334571838379" lon="-7.5606384277344">
        <ele>425</ele>
        <time>2019-09-11T08:25:04+00:00</time>
      </trkpt>
      <trkpt lat="43.334564208984" lon="-7.5606484413147">
        <ele>425</ele>
        <time>2019-09-11T08:25:05+00:00</time>
      </trkpt>
      <trkpt lat="43.33455657959" lon="-7.5606617927551">
        <ele>425</ele>
        <time>2019-09-11T08:25:06+00:00</time>
      </trkpt>
      <trkpt lat="43.334548950195" lon="-7.5606732368469">
        <ele>425</ele>
        <time>2019-09-11T08:25:07+00:00</time>
      </trkpt>
      <trkpt lat="43.334545135498" lon="-7.560688495636">
        <ele>425</ele>
        <time>2019-09-11T08:25:08+00:00</time>
      </trkpt>
      <trkpt lat="43.334537506104" lon="-7.5606999397278">
        <ele>425</ele>
        <time>2019-09-11T08:25:09+00:00</time>
      </trkpt>
      <trkpt lat="43.334522247314" lon="-7.5607099533081">
        <ele>425</ele>
        <time>2019-09-11T08:25:10+00:00</time>
      </trkpt>
      <trkpt lat="43.334518432617" lon="-7.5607218742371">
        <ele>426</ele>
        <time>2019-09-11T08:25:11+00:00</time>
      </trkpt>
      <trkpt lat="43.334510803223" lon="-7.5607252120972">
        <ele>426</ele>
        <time>2019-09-11T08:25:12+00:00</time>
      </trkpt>
      <trkpt lat="43.334499359131" lon="-7.5607333183289">
        <ele>426</ele>
        <time>2019-09-11T08:25:13+00:00</time>
      </trkpt>
      <trkpt lat="43.334491729736" lon="-7.5607399940491">
        <ele>426</ele>
        <time>2019-09-11T08:25:14+00:00</time>
      </trkpt>
      <trkpt lat="43.334480285645" lon="-7.5607500076294">
        <ele>426</ele>
        <time>2019-09-11T08:25:15+00:00</time>
      </trkpt>
      <trkpt lat="43.33447265625" lon="-7.5607581138611">
        <ele>426</ele>
        <time>2019-09-11T08:25:16+00:00</time>
      </trkpt>
      <trkpt lat="43.334461212158" lon="-7.5607633590698">
        <ele>426</ele>
        <time>2019-09-11T08:25:17+00:00</time>
      </trkpt>
      <trkpt lat="43.334449768066" lon="-7.5607714653015">
        <ele>426</ele>
        <time>2019-09-11T08:25:18+00:00</time>
      </trkpt>
      <trkpt lat="43.33443069458" lon="-7.5607781410217">
        <ele>426</ele>
        <time>2019-09-11T08:25:19+00:00</time>
      </trkpt>
      <trkpt lat="43.334411621094" lon="-7.5607833862305">
        <ele>426</ele>
        <time>2019-09-11T08:25:20+00:00</time>
      </trkpt>
      <trkpt lat="43.334400177002" lon="-7.5607900619507">
        <ele>426</ele>
        <time>2019-09-11T08:25:21+00:00</time>
      </trkpt>
      <trkpt lat="43.334384918213" lon="-7.5608015060425">
        <ele>426</ele>
        <time>2019-09-11T08:25:22+00:00</time>
      </trkpt>
      <trkpt lat="43.334373474121" lon="-7.5608100891113">
        <ele>426</ele>
        <time>2019-09-11T08:25:23+00:00</time>
      </trkpt>
      <trkpt lat="43.334358215332" lon="-7.560818195343">
        <ele>425</ele>
        <time>2019-09-11T08:25:24+00:00</time>
      </trkpt>
      <trkpt lat="43.334350585938" lon="-7.5608248710632">
        <ele>425</ele>
        <time>2019-09-11T08:25:25+00:00</time>
      </trkpt>
      <trkpt lat="43.33434677124" lon="-7.5608267784119">
        <ele>425</ele>
        <time>2019-09-11T08:25:26+00:00</time>
      </trkpt>
      <trkpt lat="43.334339141846" lon="-7.5608267784119">
        <ele>425</ele>
        <time>2019-09-11T08:25:27+00:00</time>
      </trkpt>
      <trkpt lat="43.334331512451" lon="-7.5608315467834">
        <ele>425</ele>
        <time>2019-09-11T08:25:28+00:00</time>
      </trkpt>
      <trkpt lat="43.334327697754" lon="-7.5608401298523">
        <ele>425</ele>
        <time>2019-09-11T08:25:29+00:00</time>
      </trkpt>
      <trkpt lat="43.334316253662" lon="-7.5608415603638">
        <ele>425</ele>
        <time>2019-09-11T08:25:30+00:00</time>
      </trkpt>
      <trkpt lat="43.33430480957" lon="-7.5608448982239">
        <ele>425</ele>
        <time>2019-09-11T08:25:31+00:00</time>
      </trkpt>
      <trkpt lat="43.334297180176" lon="-7.560848236084">
        <ele>424</ele>
        <time>2019-09-11T08:25:32+00:00</time>
      </trkpt>
      <trkpt lat="43.334293365479" lon="-7.5608549118042">
        <ele>425</ele>
        <time>2019-09-11T08:25:33+00:00</time>
      </trkpt>
      <trkpt lat="43.334285736084" lon="-7.5608568191528">
        <ele>425</ele>
        <time>2019-09-11T08:25:34+00:00</time>
      </trkpt>
      <trkpt lat="43.334274291992" lon="-7.5608615875244">
        <ele>424</ele>
        <time>2019-09-11T08:25:35+00:00</time>
      </trkpt>
      <trkpt lat="43.3342628479" lon="-7.5608701705933">
        <ele>424</ele>
        <time>2019-09-11T08:25:36+00:00</time>
      </trkpt>
      <trkpt lat="43.334255218506" lon="-7.5608768463135">
        <ele>424</ele>
        <time>2019-09-11T08:25:37+00:00</time>
      </trkpt>
      <trkpt lat="43.334239959717" lon="-7.5608849525452">
        <ele>424</ele>
        <time>2019-09-11T08:25:38+00:00</time>
      </trkpt>
      <trkpt lat="43.334232330322" lon="-7.5608916282654">
        <ele>424</ele>
        <time>2019-09-11T08:25:39+00:00</time>
      </trkpt>
      <trkpt lat="43.33422088623" lon="-7.5609016418457">
        <ele>424</ele>
        <time>2019-09-11T08:25:40+00:00</time>
      </trkpt>
      <trkpt lat="43.334205627441" lon="-7.5609135627747">
        <ele>424</ele>
        <time>2019-09-11T08:25:41+00:00</time>
      </trkpt>
      <trkpt lat="43.33419418335" lon="-7.5609183311462">
        <ele>424</ele>
        <time>2019-09-11T08:25:42+00:00</time>
      </trkpt>
      <trkpt lat="43.334182739258" lon="-7.5609216690063">
        <ele>424</ele>
        <time>2019-09-11T08:25:43+00:00</time>
      </trkpt>
      <trkpt lat="43.334171295166" lon="-7.5609383583069">
        <ele>424</ele>
        <time>2019-09-11T08:25:44+00:00</time>
      </trkpt>
      <trkpt lat="43.334163665771" lon="-7.5609550476074">
        <ele>424</ele>
        <time>2019-09-11T08:25:45+00:00</time>
      </trkpt>
      <trkpt lat="43.334159851074" lon="-7.560971736908">
        <ele>424</ele>
        <time>2019-09-11T08:25:46+00:00</time>
      </trkpt>
      <trkpt lat="43.334148406982" lon="-7.5609798431396">
        <ele>424</ele>
        <time>2019-09-11T08:25:47+00:00</time>
      </trkpt>
      <trkpt lat="43.334140777588" lon="-7.56098985672">
        <ele>424</ele>
        <time>2019-09-11T08:25:48+00:00</time>
      </trkpt>
      <trkpt lat="43.334133148193" lon="-7.5610032081604">
        <ele>424</ele>
        <time>2019-09-11T08:25:49+00:00</time>
      </trkpt>
      <trkpt lat="43.334121704102" lon="-7.5610165596008">
        <ele>424</ele>
        <time>2019-09-11T08:25:50+00:00</time>
      </trkpt>
      <trkpt lat="43.334117889404" lon="-7.5610265731812">
        <ele>424</ele>
        <time>2019-09-11T08:25:51+00:00</time>
      </trkpt>
      <trkpt lat="43.334117889404" lon="-7.5610384941101">
        <ele>424</ele>
        <time>2019-09-11T08:25:52+00:00</time>
      </trkpt>
      <trkpt lat="43.33411026001" lon="-7.5610485076904">
        <ele>424</ele>
        <time>2019-09-11T08:25:53+00:00</time>
      </trkpt>
      <trkpt lat="43.334102630615" lon="-7.5610485076904">
        <ele>424</ele>
        <time>2019-09-11T08:25:54+00:00</time>
      </trkpt>
      <trkpt lat="43.334091186523" lon="-7.5610566139221">
        <ele>424</ele>
        <time>2019-09-11T08:25:55+00:00</time>
      </trkpt>
      <trkpt lat="43.334079742432" lon="-7.5610599517822">
        <ele>424</ele>
        <time>2019-09-11T08:25:56+00:00</time>
      </trkpt>
      <trkpt lat="43.334064483643" lon="-7.561065196991">
        <ele>424</ele>
        <time>2019-09-11T08:25:57+00:00</time>
      </trkpt>
      <trkpt lat="43.334053039551" lon="-7.5610718727112">
        <ele>424</ele>
        <time>2019-09-11T08:25:58+00:00</time>
      </trkpt>
      <trkpt lat="43.334041595459" lon="-7.5610785484314">
        <ele>424</ele>
        <time>2019-09-11T08:25:59+00:00</time>
      </trkpt>
      <trkpt lat="43.334033966064" lon="-7.5610866546631">
        <ele>425</ele>
        <time>2019-09-11T08:26:00+00:00</time>
      </trkpt>
      <trkpt lat="43.334030151367" lon="-7.5611000061035">
        <ele>425</ele>
        <time>2019-09-11T08:26:01+00:00</time>
      </trkpt>
      <trkpt lat="43.334018707275" lon="-7.5611114501953">
        <ele>425</ele>
        <time>2019-09-11T08:26:02+00:00</time>
      </trkpt>
      <trkpt lat="43.334007263184" lon="-7.5611281394958">
        <ele>425</ele>
        <time>2019-09-11T08:26:03+00:00</time>
      </trkpt>
      <trkpt lat="43.333992004395" lon="-7.5611381530762">
        <ele>425</ele>
        <time>2019-09-11T08:26:04+00:00</time>
      </trkpt>
      <trkpt lat="43.333988189697" lon="-7.5611481666565">
        <ele>425</ele>
        <time>2019-09-11T08:26:05+00:00</time>
      </trkpt>
      <trkpt lat="43.333980560303" lon="-7.5611548423767">
        <ele>425</ele>
        <time>2019-09-11T08:26:06+00:00</time>
      </trkpt>
      <trkpt lat="43.333984375" lon="-7.5611414909363">
        <ele>426</ele>
        <time>2019-09-11T08:26:07+00:00</time>
      </trkpt>
      <trkpt lat="43.333980560303" lon="-7.5611333847046">
        <ele>427</ele>
        <time>2019-09-11T08:26:08+00:00</time>
      </trkpt>
      <trkpt lat="43.333969116211" lon="-7.5611381530762">
        <ele>427</ele>
        <time>2019-09-11T08:26:09+00:00</time>
      </trkpt>
      <trkpt lat="43.333957672119" lon="-7.561146736145">
        <ele>428</ele>
        <time>2019-09-11T08:26:10+00:00</time>
      </trkpt>
      <trkpt lat="43.333946228027" lon="-7.5611581802368">
        <ele>428</ele>
        <time>2019-09-11T08:26:11+00:00</time>
      </trkpt>
      <trkpt lat="43.333934783936" lon="-7.5611615180969">
        <ele>428</ele>
        <time>2019-09-11T08:26:12+00:00</time>
      </trkpt>
      <trkpt lat="43.333919525146" lon="-7.5611734390259">
        <ele>428</ele>
        <time>2019-09-11T08:26:13+00:00</time>
      </trkpt>
      <trkpt lat="43.333904266357" lon="-7.5611882209778">
        <ele>427</ele>
        <time>2019-09-11T08:26:14+00:00</time>
      </trkpt>
      <trkpt lat="43.333885192871" lon="-7.5612082481384">
        <ele>427</ele>
        <time>2019-09-11T08:26:15+00:00</time>
      </trkpt>
      <trkpt lat="43.333866119385" lon="-7.5612201690674">
        <ele>427</ele>
        <time>2019-09-11T08:26:16+00:00</time>
      </trkpt>
      <trkpt lat="43.333850860596" lon="-7.5612316131592">
        <ele>427</ele>
        <time>2019-09-11T08:26:17+00:00</time>
      </trkpt>
      <trkpt lat="43.333831787109" lon="-7.5612435340881">
        <ele>427</ele>
        <time>2019-09-11T08:26:18+00:00</time>
      </trkpt>
      <trkpt lat="43.33381652832" lon="-7.5612549781799">
        <ele>427</ele>
        <time>2019-09-11T08:26:19+00:00</time>
      </trkpt>
      <trkpt lat="43.333805084229" lon="-7.5612649917603">
        <ele>427</ele>
        <time>2019-09-11T08:26:20+00:00</time>
      </trkpt>
      <trkpt lat="43.333793640137" lon="-7.5612750053406">
        <ele>428</ele>
        <time>2019-09-11T08:26:21+00:00</time>
      </trkpt>
      <trkpt lat="43.333786010742" lon="-7.5612864494324">
        <ele>428</ele>
        <time>2019-09-11T08:26:22+00:00</time>
      </trkpt>
      <trkpt lat="43.333778381348" lon="-7.5612998008728">
        <ele>428</ele>
        <time>2019-09-11T08:26:23+00:00</time>
      </trkpt>
      <trkpt lat="43.333766937256" lon="-7.5613098144531">
        <ele>428</ele>
        <time>2019-09-11T08:26:24+00:00</time>
      </trkpt>
      <trkpt lat="43.333751678467" lon="-7.5613217353821">
        <ele>428</ele>
        <time>2019-09-11T08:26:25+00:00</time>
      </trkpt>
      <trkpt lat="43.333736419678" lon="-7.561336517334">
        <ele>428</ele>
        <time>2019-09-11T08:26:26+00:00</time>
      </trkpt>
      <trkpt lat="43.333724975586" lon="-7.5613498687744">
        <ele>428</ele>
        <time>2019-09-11T08:26:27+00:00</time>
      </trkpt>
      <trkpt lat="43.333709716797" lon="-7.5613651275635">
        <ele>428</ele>
        <time>2019-09-11T08:26:28+00:00</time>
      </trkpt>
      <trkpt lat="43.333690643311" lon="-7.5613765716553">
        <ele>429</ele>
        <time>2019-09-11T08:26:29+00:00</time>
      </trkpt>
      <trkpt lat="43.333671569824" lon="-7.5613899230957">
        <ele>429</ele>
        <time>2019-09-11T08:26:30+00:00</time>
      </trkpt>
      <trkpt lat="43.333660125732" lon="-7.561399936676">
        <ele>429</ele>
        <time>2019-09-11T08:26:31+00:00</time>
      </trkpt>
      <trkpt lat="43.333644866943" lon="-7.561411857605">
        <ele>429</ele>
        <time>2019-09-11T08:26:32+00:00</time>
      </trkpt>
      <trkpt lat="43.333633422852" lon="-7.5614218711853">
        <ele>429</ele>
        <time>2019-09-11T08:26:33+00:00</time>
      </trkpt>
      <trkpt lat="43.333614349365" lon="-7.5614285469055">
        <ele>429</ele>
        <time>2019-09-11T08:26:34+00:00</time>
      </trkpt>
      <trkpt lat="43.333602905273" lon="-7.5614366531372">
        <ele>429</ele>
        <time>2019-09-11T08:26:35+00:00</time>
      </trkpt>
      <trkpt lat="43.333591461182" lon="-7.5614433288574">
        <ele>429</ele>
        <time>2019-09-11T08:26:36+00:00</time>
      </trkpt>
      <trkpt lat="43.333583831787" lon="-7.5614452362061">
        <ele>428</ele>
        <time>2019-09-11T08:26:37+00:00</time>
      </trkpt>
      <trkpt lat="43.33358001709" lon="-7.5614500045776">
        <ele>429</ele>
        <time>2019-09-11T08:26:38+00:00</time>
      </trkpt>
      <trkpt lat="43.333572387695" lon="-7.5614514350891">
        <ele>428</ele>
        <time>2019-09-11T08:26:39+00:00</time>
      </trkpt>
      <trkpt lat="43.333576202393" lon="-7.561460018158">
        <ele>428</ele>
        <time>2019-09-11T08:26:40+00:00</time>
      </trkpt>
      <trkpt lat="43.333576202393" lon="-7.5614666938782">
        <ele>427</ele>
        <time>2019-09-11T08:26:41+00:00</time>
      </trkpt>
      <trkpt lat="43.333568572998" lon="-7.5614700317383">
        <ele>427</ele>
        <time>2019-09-11T08:26:42+00:00</time>
      </trkpt>
      <trkpt lat="43.333564758301" lon="-7.5614748001099">
        <ele>428</ele>
        <time>2019-09-11T08:26:43+00:00</time>
      </trkpt>
      <trkpt lat="43.333553314209" lon="-7.5614833831787">
        <ele>428</ele>
        <time>2019-09-11T08:26:44+00:00</time>
      </trkpt>
      <trkpt lat="43.333541870117" lon="-7.5614981651306">
        <ele>429</ele>
        <time>2019-09-11T08:26:45+00:00</time>
      </trkpt>
      <trkpt lat="43.333526611328" lon="-7.561511516571">
        <ele>429</ele>
        <time>2019-09-11T08:26:46+00:00</time>
      </trkpt>
      <trkpt lat="43.333515167236" lon="-7.5615282058716">
        <ele>429</ele>
        <time>2019-09-11T08:26:47+00:00</time>
      </trkpt>
      <trkpt lat="43.333503723145" lon="-7.5615448951721">
        <ele>429</ele>
        <time>2019-09-11T08:26:48+00:00</time>
      </trkpt>
      <trkpt lat="43.333488464355" lon="-7.5615582466125">
        <ele>429</ele>
        <time>2019-09-11T08:26:49+00:00</time>
      </trkpt>
      <trkpt lat="43.333477020264" lon="-7.561571598053">
        <ele>429</ele>
        <time>2019-09-11T08:26:50+00:00</time>
      </trkpt>
      <trkpt lat="43.333469390869" lon="-7.5615816116333">
        <ele>429</ele>
        <time>2019-09-11T08:26:51+00:00</time>
      </trkpt>
      <trkpt lat="43.333465576172" lon="-7.5615916252136">
        <ele>429</ele>
        <time>2019-09-11T08:26:52+00:00</time>
      </trkpt>
      <trkpt lat="43.333461761475" lon="-7.5615983009338">
        <ele>429</ele>
        <time>2019-09-11T08:26:53+00:00</time>
      </trkpt>
      <trkpt lat="43.333457946777" lon="-7.5616035461426">
        <ele>429</ele>
        <time>2019-09-11T08:26:54+00:00</time>
      </trkpt>
      <trkpt lat="43.333450317383" lon="-7.5616083145142">
        <ele>429</ele>
        <time>2019-09-11T08:26:55+00:00</time>
      </trkpt>
      <trkpt lat="43.333446502686" lon="-7.5616083145142">
        <ele>429</ele>
        <time>2019-09-11T08:26:56+00:00</time>
      </trkpt>
      <trkpt lat="43.333438873291" lon="-7.5616116523743">
        <ele>429</ele>
        <time>2019-09-11T08:26:57+00:00</time>
      </trkpt>
      <trkpt lat="43.333435058594" lon="-7.5616135597229">
        <ele>429</ele>
        <time>2019-09-11T08:26:58+00:00</time>
      </trkpt>
      <trkpt lat="43.333423614502" lon="-7.5616230964661">
        <ele>429</ele>
        <time>2019-09-11T08:26:59+00:00</time>
      </trkpt>
      <trkpt lat="43.33341217041" lon="-7.5616331100464">
        <ele>429</ele>
        <time>2019-09-11T08:27:00+00:00</time>
      </trkpt>
      <trkpt lat="43.333396911621" lon="-7.5616431236267">
        <ele>430</ele>
        <time>2019-09-11T08:27:01+00:00</time>
      </trkpt>
      <trkpt lat="43.333381652832" lon="-7.5616550445557">
        <ele>430</ele>
        <time>2019-09-11T08:27:02+00:00</time>
      </trkpt>
      <trkpt lat="43.333374023438" lon="-7.561665058136">
        <ele>430</ele>
        <time>2019-09-11T08:27:03+00:00</time>
      </trkpt>
      <trkpt lat="43.333362579346" lon="-7.5616798400879">
        <ele>430</ele>
        <time>2019-09-11T08:27:04+00:00</time>
      </trkpt>
      <trkpt lat="43.333351135254" lon="-7.5616917610168">
        <ele>430</ele>
        <time>2019-09-11T08:27:05+00:00</time>
      </trkpt>
      <trkpt lat="43.333347320557" lon="-7.5616998672485">
        <ele>430</ele>
        <time>2019-09-11T08:27:06+00:00</time>
      </trkpt>
      <trkpt lat="43.333339691162" lon="-7.5617051124573">
        <ele>430</ele>
        <time>2019-09-11T08:27:07+00:00</time>
      </trkpt>
      <trkpt lat="43.333332061768" lon="-7.5617165565491">
        <ele>430</ele>
        <time>2019-09-11T08:27:08+00:00</time>
      </trkpt>
      <trkpt lat="43.33332824707" lon="-7.5617251396179">
        <ele>430</ele>
        <time>2019-09-11T08:27:09+00:00</time>
      </trkpt>
      <trkpt lat="43.333324432373" lon="-7.5617351531982">
        <ele>430</ele>
        <time>2019-09-11T08:27:10+00:00</time>
      </trkpt>
      <trkpt lat="43.333309173584" lon="-7.5617432594299">
        <ele>430</ele>
        <time>2019-09-11T08:27:11+00:00</time>
      </trkpt>
      <trkpt lat="43.333297729492" lon="-7.5617532730103">
        <ele>430</ele>
        <time>2019-09-11T08:27:12+00:00</time>
      </trkpt>
      <trkpt lat="43.3332862854" lon="-7.5617618560791">
        <ele>430</ele>
        <time>2019-09-11T08:27:13+00:00</time>
      </trkpt>
      <trkpt lat="43.333274841309" lon="-7.5617685317993">
        <ele>430</ele>
        <time>2019-09-11T08:27:14+00:00</time>
      </trkpt>
      <trkpt lat="43.333263397217" lon="-7.5617752075195">
        <ele>430</ele>
        <time>2019-09-11T08:27:15+00:00</time>
      </trkpt>
      <trkpt lat="43.333251953125" lon="-7.5617785453796">
        <ele>430</ele>
        <time>2019-09-11T08:27:16+00:00</time>
      </trkpt>
      <trkpt lat="43.333240509033" lon="-7.5617866516113">
        <ele>430</ele>
        <time>2019-09-11T08:27:17+00:00</time>
      </trkpt>
      <trkpt lat="43.333229064941" lon="-7.5617933273315">
        <ele>430</ele>
        <time>2019-09-11T08:27:18+00:00</time>
      </trkpt>
      <trkpt lat="43.333221435547" lon="-7.5618033409119">
        <ele>430</ele>
        <time>2019-09-11T08:27:19+00:00</time>
      </trkpt>
      <trkpt lat="43.333209991455" lon="-7.5618114471436">
        <ele>430</ele>
        <time>2019-09-11T08:27:20+00:00</time>
      </trkpt>
      <trkpt lat="43.333194732666" lon="-7.5618181228638">
        <ele>430</ele>
        <time>2019-09-11T08:27:21+00:00</time>
      </trkpt>
      <trkpt lat="43.33317565918" lon="-7.561824798584">
        <ele>429</ele>
        <time>2019-09-11T08:27:22+00:00</time>
      </trkpt>
      <trkpt lat="43.333164215088" lon="-7.5618333816528">
        <ele>429</ele>
        <time>2019-09-11T08:27:23+00:00</time>
      </trkpt>
      <trkpt lat="43.333148956299" lon="-7.5618381500244">
        <ele>430</ele>
        <time>2019-09-11T08:27:24+00:00</time>
      </trkpt>
      <trkpt lat="43.333141326904" lon="-7.5618448257446">
        <ele>430</ele>
        <time>2019-09-11T08:27:25+00:00</time>
      </trkpt>
      <trkpt lat="43.333141326904" lon="-7.561854839325">
        <ele>430</ele>
        <time>2019-09-11T08:27:26+00:00</time>
      </trkpt>
      <trkpt lat="43.333137512207" lon="-7.5618648529053">
        <ele>430</ele>
        <time>2019-09-11T08:27:27+00:00</time>
      </trkpt>
      <trkpt lat="43.333126068115" lon="-7.5618782043457">
        <ele>430</ele>
        <time>2019-09-11T08:27:28+00:00</time>
      </trkpt>
      <trkpt lat="43.333114624023" lon="-7.561888217926">
        <ele>430</ele>
        <time>2019-09-11T08:27:29+00:00</time>
      </trkpt>
      <trkpt lat="43.333103179932" lon="-7.5618982315063">
        <ele>431</ele>
        <time>2019-09-11T08:27:30+00:00</time>
      </trkpt>
      <trkpt lat="43.333095550537" lon="-7.5619082450867">
        <ele>431</ele>
        <time>2019-09-11T08:27:31+00:00</time>
      </trkpt>
      <trkpt lat="43.333084106445" lon="-7.5619168281555">
        <ele>431</ele>
        <time>2019-09-11T08:27:32+00:00</time>
      </trkpt>
      <trkpt lat="43.333076477051" lon="-7.5619249343872">
        <ele>431</ele>
        <time>2019-09-11T08:27:33+00:00</time>
      </trkpt>
      <trkpt lat="43.333065032959" lon="-7.5619335174561">
        <ele>432</ele>
        <time>2019-09-11T08:27:34+00:00</time>
      </trkpt>
      <trkpt lat="43.333057403564" lon="-7.5619416236877">
        <ele>432</ele>
        <time>2019-09-11T08:27:35+00:00</time>
      </trkpt>
      <trkpt lat="43.33304977417" lon="-7.5619502067566">
        <ele>432</ele>
        <time>2019-09-11T08:27:36+00:00</time>
      </trkpt>
      <trkpt lat="43.333042144775" lon="-7.5619602203369">
        <ele>432</ele>
        <time>2019-09-11T08:27:37+00:00</time>
      </trkpt>
      <trkpt lat="43.333038330078" lon="-7.5619716644287">
        <ele>432</ele>
        <time>2019-09-11T08:27:38+00:00</time>
      </trkpt>
      <trkpt lat="43.333030700684" lon="-7.5619783401489">
        <ele>432</ele>
        <time>2019-09-11T08:27:39+00:00</time>
      </trkpt>
      <trkpt lat="43.333023071289" lon="-7.5619883537292">
        <ele>432</ele>
        <time>2019-09-11T08:27:40+00:00</time>
      </trkpt>
      <trkpt lat="43.333015441895" lon="-7.5619950294495">
        <ele>432</ele>
        <time>2019-09-11T08:27:41+00:00</time>
      </trkpt>
      <trkpt lat="43.333000183105" lon="-7.5620064735413">
        <ele>432</ele>
        <time>2019-09-11T08:27:42+00:00</time>
      </trkpt>
      <trkpt lat="43.332996368408" lon="-7.5620150566101">
        <ele>432</ele>
        <time>2019-09-11T08:27:43+00:00</time>
      </trkpt>
      <trkpt lat="43.332988739014" lon="-7.5620231628418">
        <ele>432</ele>
        <time>2019-09-11T08:27:44+00:00</time>
      </trkpt>
      <trkpt lat="43.332981109619" lon="-7.5620331764221">
        <ele>432</ele>
        <time>2019-09-11T08:27:45+00:00</time>
      </trkpt>
      <trkpt lat="43.332969665527" lon="-7.5620398521423">
        <ele>432</ele>
        <time>2019-09-11T08:27:46+00:00</time>
      </trkpt>
      <trkpt lat="43.332958221436" lon="-7.5620450973511">
        <ele>432</ele>
        <time>2019-09-11T08:27:47+00:00</time>
      </trkpt>
      <trkpt lat="43.332946777344" lon="-7.5620517730713">
        <ele>432</ele>
        <time>2019-09-11T08:27:48+00:00</time>
      </trkpt>
      <trkpt lat="43.332939147949" lon="-7.5620565414429">
        <ele>432</ele>
        <time>2019-09-11T08:27:49+00:00</time>
      </trkpt>
      <trkpt lat="43.332931518555" lon="-7.5620617866516">
        <ele>432</ele>
        <time>2019-09-11T08:27:50+00:00</time>
      </trkpt>
      <trkpt lat="43.33292388916" lon="-7.5620632171631">
        <ele>432</ele>
        <time>2019-09-11T08:27:51+00:00</time>
      </trkpt>
      <trkpt lat="43.332920074463" lon="-7.5620684623718">
        <ele>432</ele>
        <time>2019-09-11T08:27:52+00:00</time>
      </trkpt>
      <trkpt lat="43.332916259766" lon="-7.5620698928833">
        <ele>432</ele>
        <time>2019-09-11T08:27:53+00:00</time>
      </trkpt>
      <trkpt lat="43.332912445068" lon="-7.5620732307434">
        <ele>432</ele>
        <time>2019-09-11T08:27:54+00:00</time>
      </trkpt>
      <trkpt lat="43.332908630371" lon="-7.5620732307434">
        <ele>432</ele>
        <time>2019-09-11T08:27:55+00:00</time>
      </trkpt>
      <trkpt lat="43.332904815674" lon="-7.562075138092">
        <ele>432</ele>
        <time>2019-09-11T08:27:56+00:00</time>
      </trkpt>
      <trkpt lat="43.332904815674" lon="-7.5620718002319">
        <ele>432</ele>
        <time>2019-09-11T08:27:57+00:00</time>
      </trkpt>
      <trkpt lat="43.332904815674" lon="-7.5620718002319">
        <ele>432</ele>
        <time>2019-09-11T08:27:58+00:00</time>
      </trkpt>
      <trkpt lat="43.332901000977" lon="-7.5620684623718">
        <ele>432</ele>
        <time>2019-09-11T08:27:59+00:00</time>
      </trkpt>
      <trkpt lat="43.332901000977" lon="-7.5620684623718">
        <ele>432</ele>
        <time>2019-09-11T08:28:00+00:00</time>
      </trkpt>
      <trkpt lat="43.332901000977" lon="-7.5620698928833">
        <ele>432</ele>
        <time>2019-09-11T08:28:01+00:00</time>
      </trkpt>
      <trkpt lat="43.332897186279" lon="-7.562075138092">
        <ele>432</ele>
        <time>2019-09-11T08:28:02+00:00</time>
      </trkpt>
      <trkpt lat="43.332893371582" lon="-7.5620784759521">
        <ele>432</ele>
        <time>2019-09-11T08:28:03+00:00</time>
      </trkpt>
      <trkpt lat="43.332893371582" lon="-7.5620784759521">
        <ele>432</ele>
        <time>2019-09-11T08:28:04+00:00</time>
      </trkpt>
      <trkpt lat="43.332893371582" lon="-7.5620784759521">
        <ele>432</ele>
        <time>2019-09-11T08:28:05+00:00</time>
      </trkpt>
      <trkpt lat="43.332893371582" lon="-7.5620784759521">
        <ele>432</ele>
        <time>2019-09-11T08:28:06+00:00</time>
      </trkpt>
      <trkpt lat="43.332874298096" lon="-7.5620899200439">
        <ele>432</ele>
        <time>2019-09-11T08:28:07+00:00</time>
      </trkpt>
      <trkpt lat="43.332866668701" lon="-7.5620999336243">
        <ele>432</ele>
        <time>2019-09-11T08:28:08+00:00</time>
      </trkpt>
      <trkpt lat="43.332859039307" lon="-7.5621099472046">
        <ele>432</ele>
        <time>2019-09-11T08:28:09+00:00</time>
      </trkpt>
      <trkpt lat="43.332855224609" lon="-7.5621199607849">
        <ele>432</ele>
        <time>2019-09-11T08:28:10+00:00</time>
      </trkpt>
      <trkpt lat="43.332843780518" lon="-7.5621266365051">
        <ele>432</ele>
        <time>2019-09-11T08:28:11+00:00</time>
      </trkpt>
      <trkpt lat="43.332836151123" lon="-7.5621385574341">
        <ele>431</ele>
        <time>2019-09-11T08:28:12+00:00</time>
      </trkpt>
      <trkpt lat="43.332824707031" lon="-7.5621500015259">
        <ele>431</ele>
        <time>2019-09-11T08:28:13+00:00</time>
      </trkpt>
      <trkpt lat="43.332813262939" lon="-7.5621581077576">
        <ele>431</ele>
        <time>2019-09-11T08:28:14+00:00</time>
      </trkpt>
      <trkpt lat="43.332809448242" lon="-7.5621647834778">
        <ele>431</ele>
        <time>2019-09-11T08:28:15+00:00</time>
      </trkpt>
      <trkpt lat="43.332801818848" lon="-7.5621733665466">
        <ele>431</ele>
        <time>2019-09-11T08:28:16+00:00</time>
      </trkpt>
      <trkpt lat="43.332794189453" lon="-7.562183380127">
        <ele>431</ele>
        <time>2019-09-11T08:28:17+00:00</time>
      </trkpt>
      <trkpt lat="43.332786560059" lon="-7.5621933937073">
        <ele>431</ele>
        <time>2019-09-11T08:28:18+00:00</time>
      </trkpt>
      <trkpt lat="43.332775115967" lon="-7.5622048377991">
        <ele>432</ele>
        <time>2019-09-11T08:28:19+00:00</time>
      </trkpt>
      <trkpt lat="43.332767486572" lon="-7.562216758728">
        <ele>432</ele>
        <time>2019-09-11T08:28:20+00:00</time>
      </trkpt>
      <trkpt lat="43.33275604248" lon="-7.5622301101685">
        <ele>432</ele>
        <time>2019-09-11T08:28:21+00:00</time>
      </trkpt>
      <trkpt lat="43.332748413086" lon="-7.5622448921204">
        <ele>431</ele>
        <time>2019-09-11T08:28:22+00:00</time>
      </trkpt>
      <trkpt lat="43.332736968994" lon="-7.5622568130493">
        <ele>431</ele>
        <time>2019-09-11T08:28:23+00:00</time>
      </trkpt>
      <trkpt lat="43.332725524902" lon="-7.562264919281">
        <ele>431</ele>
        <time>2019-09-11T08:28:24+00:00</time>
      </trkpt>
      <trkpt lat="43.332714080811" lon="-7.56227684021">
        <ele>431</ele>
        <time>2019-09-11T08:28:25+00:00</time>
      </trkpt>
      <trkpt lat="43.332706451416" lon="-7.5622849464417">
        <ele>432</ele>
        <time>2019-09-11T08:28:26+00:00</time>
      </trkpt>
      <trkpt lat="43.332695007324" lon="-7.562294960022">
        <ele>432</ele>
        <time>2019-09-11T08:28:27+00:00</time>
      </trkpt>
      <trkpt lat="43.332683563232" lon="-7.5623035430908">
        <ele>432</ele>
        <time>2019-09-11T08:28:28+00:00</time>
      </trkpt>
      <trkpt lat="43.332672119141" lon="-7.5623135566711">
        <ele>432</ele>
        <time>2019-09-11T08:28:29+00:00</time>
      </trkpt>
      <trkpt lat="43.332664489746" lon="-7.5623235702515">
        <ele>432</ele>
        <time>2019-09-11T08:28:30+00:00</time>
      </trkpt>
      <trkpt lat="43.332656860352" lon="-7.5623331069946">
        <ele>432</ele>
        <time>2019-09-11T08:28:31+00:00</time>
      </trkpt>
      <trkpt lat="43.332649230957" lon="-7.562343120575">
        <ele>432</ele>
        <time>2019-09-11T08:28:32+00:00</time>
      </trkpt>
      <trkpt lat="43.332641601562" lon="-7.5623517036438">
        <ele>432</ele>
        <time>2019-09-11T08:28:33+00:00</time>
      </trkpt>
      <trkpt lat="43.332630157471" lon="-7.5623598098755">
        <ele>432</ele>
        <time>2019-09-11T08:28:34+00:00</time>
      </trkpt>
      <trkpt lat="43.332618713379" lon="-7.5623698234558">
        <ele>432</ele>
        <time>2019-09-11T08:28:35+00:00</time>
      </trkpt>
      <trkpt lat="43.33260345459" lon="-7.5623831748962">
        <ele>433</ele>
        <time>2019-09-11T08:28:36+00:00</time>
      </trkpt>
      <trkpt lat="43.332592010498" lon="-7.5623898506165">
        <ele>433</ele>
        <time>2019-09-11T08:28:37+00:00</time>
      </trkpt>
      <trkpt lat="43.332576751709" lon="-7.5623950958252">
        <ele>433</ele>
        <time>2019-09-11T08:28:38+00:00</time>
      </trkpt>
      <trkpt lat="43.332565307617" lon="-7.5624032020569">
        <ele>433</ele>
        <time>2019-09-11T08:28:39+00:00</time>
      </trkpt>
      <trkpt lat="43.332553863525" lon="-7.5624117851257">
        <ele>433</ele>
        <time>2019-09-11T08:28:40+00:00</time>
      </trkpt>
      <trkpt lat="43.332542419434" lon="-7.5624198913574">
        <ele>433</ele>
        <time>2019-09-11T08:28:41+00:00</time>
      </trkpt>
      <trkpt lat="43.332534790039" lon="-7.5624265670776">
        <ele>433</ele>
        <time>2019-09-11T08:28:42+00:00</time>
      </trkpt>
      <trkpt lat="43.332523345947" lon="-7.5624332427979">
        <ele>433</ele>
        <time>2019-09-11T08:28:43+00:00</time>
      </trkpt>
      <trkpt lat="43.332511901855" lon="-7.5624399185181">
        <ele>432</ele>
        <time>2019-09-11T08:28:44+00:00</time>
      </trkpt>
      <trkpt lat="43.332500457764" lon="-7.5624499320984">
        <ele>432</ele>
        <time>2019-09-11T08:28:45+00:00</time>
      </trkpt>
      <trkpt lat="43.332489013672" lon="-7.5624551773071">
        <ele>432</ele>
        <time>2019-09-11T08:28:46+00:00</time>
      </trkpt>
      <trkpt lat="43.33247756958" lon="-7.5624599456787">
        <ele>432</ele>
        <time>2019-09-11T08:28:47+00:00</time>
      </trkpt>
      <trkpt lat="43.332469940186" lon="-7.5624666213989">
        <ele>432</ele>
        <time>2019-09-11T08:28:48+00:00</time>
      </trkpt>
      <trkpt lat="43.332462310791" lon="-7.5624718666077">
        <ele>432</ele>
        <time>2019-09-11T08:28:49+00:00</time>
      </trkpt>
      <trkpt lat="43.332454681396" lon="-7.5624766349792">
        <ele>432</ele>
        <time>2019-09-11T08:28:50+00:00</time>
      </trkpt>
      <trkpt lat="43.332447052002" lon="-7.5624785423279">
        <ele>432</ele>
        <time>2019-09-11T08:28:51+00:00</time>
      </trkpt>
      <trkpt lat="43.332443237305" lon="-7.5624785423279">
        <ele>432</ele>
        <time>2019-09-11T08:28:52+00:00</time>
      </trkpt>
      <trkpt lat="43.33243560791" lon="-7.5624799728394">
        <ele>432</ele>
        <time>2019-09-11T08:28:53+00:00</time>
      </trkpt>
      <trkpt lat="43.332424163818" lon="-7.5624899864197">
        <ele>432</ele>
        <time>2019-09-11T08:28:54+00:00</time>
      </trkpt>
      <trkpt lat="43.332416534424" lon="-7.5625">
        <ele>432</ele>
        <time>2019-09-11T08:28:55+00:00</time>
      </trkpt>
      <trkpt lat="43.332405090332" lon="-7.5625147819519">
        <ele>432</ele>
        <time>2019-09-11T08:28:56+00:00</time>
      </trkpt>
      <trkpt lat="43.33239364624" lon="-7.5625247955322">
        <ele>432</ele>
        <time>2019-09-11T08:28:57+00:00</time>
      </trkpt>
      <trkpt lat="43.332378387451" lon="-7.5625500679016">
        <ele>432</ele>
        <time>2019-09-11T08:28:58+00:00</time>
      </trkpt>
      <trkpt lat="43.332363128662" lon="-7.5625615119934">
        <ele>432</ele>
        <time>2019-09-11T08:28:59+00:00</time>
      </trkpt>
      <trkpt lat="43.332347869873" lon="-7.5625648498535">
        <ele>432</ele>
        <time>2019-09-11T08:29:00+00:00</time>
      </trkpt>
      <trkpt lat="43.332328796387" lon="-7.5625681877136">
        <ele>432</ele>
        <time>2019-09-11T08:29:01+00:00</time>
      </trkpt>
      <trkpt lat="43.332317352295" lon="-7.5625782012939">
        <ele>432</ele>
        <time>2019-09-11T08:29:02+00:00</time>
      </trkpt>
      <trkpt lat="43.332298278809" lon="-7.5625848770142">
        <ele>432</ele>
        <time>2019-09-11T08:29:03+00:00</time>
      </trkpt>
      <trkpt lat="43.332286834717" lon="-7.5625848770142">
        <ele>432</ele>
        <time>2019-09-11T08:29:04+00:00</time>
      </trkpt>
      <trkpt lat="43.332271575928" lon="-7.5625882148743">
        <ele>432</ele>
        <time>2019-09-11T08:29:05+00:00</time>
      </trkpt>
      <trkpt lat="43.332256317139" lon="-7.5625882148743">
        <ele>432</ele>
        <time>2019-09-11T08:29:06+00:00</time>
      </trkpt>
      <trkpt lat="43.332248687744" lon="-7.5625915527344">
        <ele>432</ele>
        <time>2019-09-11T08:29:07+00:00</time>
      </trkpt>
      <trkpt lat="43.332237243652" lon="-7.562593460083">
        <ele>432</ele>
        <time>2019-09-11T08:29:08+00:00</time>
      </trkpt>
      <trkpt lat="43.332221984863" lon="-7.5625967979431">
        <ele>432</ele>
        <time>2019-09-11T08:29:09+00:00</time>
      </trkpt>
      <trkpt lat="43.332206726074" lon="-7.5626015663147">
        <ele>433</ele>
        <time>2019-09-11T08:29:10+00:00</time>
      </trkpt>
      <trkpt lat="43.33219909668" lon="-7.5626068115234">
        <ele>433</ele>
        <time>2019-09-11T08:29:11+00:00</time>
      </trkpt>
      <trkpt lat="43.332180023193" lon="-7.5626134872437">
        <ele>433</ele>
        <time>2019-09-11T08:29:12+00:00</time>
      </trkpt>
      <trkpt lat="43.332164764404" lon="-7.5626168251038">
        <ele>433</ele>
        <time>2019-09-11T08:29:13+00:00</time>
      </trkpt>
      <trkpt lat="43.332153320312" lon="-7.5626201629639">
        <ele>433</ele>
        <time>2019-09-11T08:29:14+00:00</time>
      </trkpt>
      <trkpt lat="43.332145690918" lon="-7.5626215934753">
        <ele>432</ele>
        <time>2019-09-11T08:29:15+00:00</time>
      </trkpt>
      <trkpt lat="43.332134246826" lon="-7.5626268386841">
        <ele>432</ele>
        <time>2019-09-11T08:29:16+00:00</time>
      </trkpt>
      <trkpt lat="43.332126617432" lon="-7.5626316070557">
        <ele>432</ele>
        <time>2019-09-11T08:29:17+00:00</time>
      </trkpt>
      <trkpt lat="43.332130432129" lon="-7.5626382827759">
        <ele>432</ele>
        <time>2019-09-11T08:29:18+00:00</time>
      </trkpt>
      <trkpt lat="43.332126617432" lon="-7.5626401901245">
        <ele>432</ele>
        <time>2019-09-11T08:29:19+00:00</time>
      </trkpt>
      <trkpt lat="43.332122802734" lon="-7.5626482963562">
        <ele>432</ele>
        <time>2019-09-11T08:29:20+00:00</time>
      </trkpt>
      <trkpt lat="43.33211517334" lon="-7.5626482963562">
        <ele>432</ele>
        <time>2019-09-11T08:29:21+00:00</time>
      </trkpt>
      <trkpt lat="43.33211517334" lon="-7.5626502037048">
        <ele>432</ele>
        <time>2019-09-11T08:29:22+00:00</time>
      </trkpt>
      <trkpt lat="43.332107543945" lon="-7.5626502037048">
        <ele>432</ele>
        <time>2019-09-11T08:29:23+00:00</time>
      </trkpt>
      <trkpt lat="43.332107543945" lon="-7.5626535415649">
        <ele>432</ele>
        <time>2019-09-11T08:29:24+00:00</time>
      </trkpt>
      <trkpt lat="43.332092285156" lon="-7.5626549720764">
        <ele>432</ele>
        <time>2019-09-11T08:29:25+00:00</time>
      </trkpt>
      <trkpt lat="43.332088470459" lon="-7.5626549720764">
        <ele>432</ele>
        <time>2019-09-11T08:29:26+00:00</time>
      </trkpt>
      <trkpt lat="43.332088470459" lon="-7.5626502037048">
        <ele>432</ele>
        <time>2019-09-11T08:29:27+00:00</time>
      </trkpt>
      <trkpt lat="43.332088470459" lon="-7.5626435279846">
        <ele>431</ele>
        <time>2019-09-11T08:29:28+00:00</time>
      </trkpt>
      <trkpt lat="43.332088470459" lon="-7.5626435279846">
        <ele>431</ele>
        <time>2019-09-11T08:29:29+00:00</time>
      </trkpt>
      <trkpt lat="43.332088470459" lon="-7.5626435279846">
        <ele>431</ele>
        <time>2019-09-11T08:29:30+00:00</time>
      </trkpt>
      <trkpt lat="43.332088470459" lon="-7.5626435279846">
        <ele>431</ele>
        <time>2019-09-11T08:29:31+00:00</time>
      </trkpt>
      <trkpt lat="43.332088470459" lon="-7.5626435279846">
        <ele>431</ele>
        <time>2019-09-11T08:29:32+00:00</time>
      </trkpt>
      <trkpt lat="43.332088470459" lon="-7.5626435279846">
        <ele>431</ele>
        <time>2019-09-11T08:29:33+00:00</time>
      </trkpt>
      <trkpt lat="43.332088470459" lon="-7.5626435279846">
        <ele>431</ele>
        <time>2019-09-11T08:29:34+00:00</time>
      </trkpt>
      <trkpt lat="43.332088470459" lon="-7.5626435279846">
        <ele>431</ele>
        <time>2019-09-11T08:29:35+00:00</time>
      </trkpt>
      <trkpt lat="43.332088470459" lon="-7.5626435279846">
        <ele>431</ele>
        <time>2019-09-11T08:29:36+00:00</time>
      </trkpt>
      <trkpt lat="43.332088470459" lon="-7.5626435279846">
        <ele>431</ele>
        <time>2019-09-11T08:29:37+00:00</time>
      </trkpt>
      <trkpt lat="43.332088470459" lon="-7.5626435279846">
        <ele>431</ele>
        <time>2019-09-11T08:29:38+00:00</time>
      </trkpt>
      <trkpt lat="43.332088470459" lon="-7.5626435279846">
        <ele>431</ele>
        <time>2019-09-11T08:29:39+00:00</time>
      </trkpt>
      <trkpt lat="43.332088470459" lon="-7.5626435279846">
        <ele>431</ele>
        <time>2019-09-11T08:29:40+00:00</time>
      </trkpt>
      <trkpt lat="43.332088470459" lon="-7.5626435279846">
        <ele>431</ele>
        <time>2019-09-11T08:29:41+00:00</time>
      </trkpt>
      <trkpt lat="43.332088470459" lon="-7.5626435279846">
        <ele>431</ele>
        <time>2019-09-11T08:29:42+00:00</time>
      </trkpt>
      <trkpt lat="43.332088470459" lon="-7.5626435279846">
        <ele>431</ele>
        <time>2019-09-11T08:29:43+00:00</time>
      </trkpt>
      <trkpt lat="43.332088470459" lon="-7.5626435279846">
        <ele>431</ele>
        <time>2019-09-11T08:29:44+00:00</time>
      </trkpt>
      <trkpt lat="43.332088470459" lon="-7.5626435279846">
        <ele>431</ele>
        <time>2019-09-11T08:29:45+00:00</time>
      </trkpt>
      <trkpt lat="43.332088470459" lon="-7.5626950263977">
        <ele>433</ele>
        <time>2019-09-11T08:29:46+00:00</time>
      </trkpt>
      <trkpt lat="43.332096099854" lon="-7.5627017021179">
        <ele>433</ele>
        <time>2019-09-11T08:29:47+00:00</time>
      </trkpt>
      <trkpt lat="43.332096099854" lon="-7.5627017021179">
        <ele>434</ele>
        <time>2019-09-11T08:29:48+00:00</time>
      </trkpt>
      <trkpt lat="43.332092285156" lon="-7.562705039978">
        <ele>434</ele>
        <time>2019-09-11T08:29:49+00:00</time>
      </trkpt>
      <trkpt lat="43.332088470459" lon="-7.5627064704895">
        <ele>434</ele>
        <time>2019-09-11T08:29:50+00:00</time>
      </trkpt>
      <trkpt lat="43.332088470459" lon="-7.5627064704895">
        <ele>434</ele>
        <time>2019-09-11T08:29:51+00:00</time>
      </trkpt>
      <trkpt lat="43.332088470459" lon="-7.5627064704895">
        <ele>434</ele>
        <time>2019-09-11T08:29:52+00:00</time>
      </trkpt>
      <trkpt lat="43.332088470459" lon="-7.5627064704895">
        <ele>434</ele>
        <time>2019-09-11T08:29:53+00:00</time>
      </trkpt>
      <trkpt lat="43.332088470459" lon="-7.5627064704895">
        <ele>434</ele>
        <time>2019-09-11T08:29:54+00:00</time>
      </trkpt>
      <trkpt lat="43.332061767578" lon="-7.5627284049988">
        <ele>434</ele>
        <time>2019-09-11T08:29:55+00:00</time>
      </trkpt>
      <trkpt lat="43.332057952881" lon="-7.5627264976501">
        <ele>434</ele>
        <time>2019-09-11T08:29:56+00:00</time>
      </trkpt>
      <trkpt lat="43.332046508789" lon="-7.5627317428589">
        <ele>434</ele>
        <time>2019-09-11T08:29:57+00:00</time>
      </trkpt>
      <trkpt lat="43.332038879395" lon="-7.562735080719">
        <ele>434</ele>
        <time>2019-09-11T08:29:58+00:00</time>
      </trkpt>
      <trkpt lat="43.33203125" lon="-7.5627417564392">
        <ele>434</ele>
        <time>2019-09-11T08:29:59+00:00</time>
      </trkpt>
      <trkpt lat="43.332015991211" lon="-7.5627384185791">
        <ele>434</ele>
        <time>2019-09-11T08:30:00+00:00</time>
      </trkpt>
      <trkpt lat="43.332008361816" lon="-7.5627431869507">
        <ele>434</ele>
        <time>2019-09-11T08:30:01+00:00</time>
      </trkpt>
      <trkpt lat="43.332000732422" lon="-7.5627450942993">
        <ele>434</ele>
        <time>2019-09-11T08:30:02+00:00</time>
      </trkpt>
      <trkpt lat="43.331996917725" lon="-7.5627465248108">
        <ele>434</ele>
        <time>2019-09-11T08:30:03+00:00</time>
      </trkpt>
      <trkpt lat="43.331996917725" lon="-7.5627384185791">
        <ele>434</ele>
        <time>2019-09-11T08:30:04+00:00</time>
      </trkpt>
      <trkpt lat="43.331993103027" lon="-7.5627384185791">
        <ele>434</ele>
        <time>2019-09-11T08:30:05+00:00</time>
      </trkpt>
      <trkpt lat="43.331985473633" lon="-7.5627417564392">
        <ele>434</ele>
        <time>2019-09-11T08:30:06+00:00</time>
      </trkpt>
      <trkpt lat="43.331981658936" lon="-7.5627450942993">
        <ele>434</ele>
        <time>2019-09-11T08:30:07+00:00</time>
      </trkpt>
      <trkpt lat="43.331974029541" lon="-7.5627484321594">
        <ele>434</ele>
        <time>2019-09-11T08:30:08+00:00</time>
      </trkpt>
      <trkpt lat="43.331970214844" lon="-7.562753200531">
        <ele>434</ele>
        <time>2019-09-11T08:30:09+00:00</time>
      </trkpt>
      <trkpt lat="43.331958770752" lon="-7.5627551078796">
        <ele>435</ele>
        <time>2019-09-11T08:30:10+00:00</time>
      </trkpt>
      <trkpt lat="43.331966400146" lon="-7.5627617835999">
        <ele>435</ele>
        <time>2019-09-11T08:30:11+00:00</time>
      </trkpt>
      <trkpt lat="43.331966400146" lon="-7.5627551078796">
        <ele>435</ele>
        <time>2019-09-11T08:30:12+00:00</time>
      </trkpt>
      <trkpt lat="43.331962585449" lon="-7.562753200531">
        <ele>435</ele>
        <time>2019-09-11T08:30:13+00:00</time>
      </trkpt>
      <trkpt lat="43.331958770752" lon="-7.5627417564392">
        <ele>435</ele>
        <time>2019-09-11T08:30:14+00:00</time>
      </trkpt>
      <trkpt lat="43.331943511963" lon="-7.5627450942993">
        <ele>435</ele>
        <time>2019-09-11T08:30:15+00:00</time>
      </trkpt>
      <trkpt lat="43.331935882568" lon="-7.5627450942993">
        <ele>435</ele>
        <time>2019-09-11T08:30:16+00:00</time>
      </trkpt>
      <trkpt lat="43.331928253174" lon="-7.5627465248108">
        <ele>436</ele>
        <time>2019-09-11T08:30:17+00:00</time>
      </trkpt>
      <trkpt lat="43.331928253174" lon="-7.5627384185791">
        <ele>435</ele>
        <time>2019-09-11T08:30:18+00:00</time>
      </trkpt>
      <trkpt lat="43.331920623779" lon="-7.5627431869507">
        <ele>435</ele>
        <time>2019-09-11T08:30:19+00:00</time>
      </trkpt>
      <trkpt lat="43.331916809082" lon="-7.5627484321594">
        <ele>435</ele>
        <time>2019-09-11T08:30:20+00:00</time>
      </trkpt>
      <trkpt lat="43.33190536499" lon="-7.5627565383911">
        <ele>435</ele>
        <time>2019-09-11T08:30:21+00:00</time>
      </trkpt>
      <trkpt lat="43.331890106201" lon="-7.56276512146">
        <ele>435</ele>
        <time>2019-09-11T08:30:22+00:00</time>
      </trkpt>
      <trkpt lat="43.331878662109" lon="-7.5627751350403">
        <ele>435</ele>
        <time>2019-09-11T08:30:23+00:00</time>
      </trkpt>
      <trkpt lat="43.331867218018" lon="-7.5627818107605">
        <ele>435</ele>
        <time>2019-09-11T08:30:24+00:00</time>
      </trkpt>
      <trkpt lat="43.33186340332" lon="-7.5627851486206">
        <ele>435</ele>
        <time>2019-09-11T08:30:25+00:00</time>
      </trkpt>
      <trkpt lat="43.331859588623" lon="-7.5627951622009">
        <ele>435</ele>
        <time>2019-09-11T08:30:26+00:00</time>
      </trkpt>
      <trkpt lat="43.331848144531" lon="-7.5628032684326">
        <ele>435</ele>
        <time>2019-09-11T08:30:27+00:00</time>
      </trkpt>
      <trkpt lat="43.331832885742" lon="-7.562816619873">
        <ele>434</ele>
        <time>2019-09-11T08:30:28+00:00</time>
      </trkpt>
      <trkpt lat="43.331817626953" lon="-7.5628299713135">
        <ele>434</ele>
        <time>2019-09-11T08:30:29+00:00</time>
      </trkpt>
      <trkpt lat="43.331809997559" lon="-7.5628352165222">
        <ele>434</ele>
        <time>2019-09-11T08:30:30+00:00</time>
      </trkpt>
      <trkpt lat="43.331806182861" lon="-7.5628418922424">
        <ele>433</ele>
        <time>2019-09-11T08:30:31+00:00</time>
      </trkpt>
      <trkpt lat="43.331798553467" lon="-7.5628399848938">
        <ele>432</ele>
        <time>2019-09-11T08:30:32+00:00</time>
      </trkpt>
      <trkpt lat="43.33179473877" lon="-7.5628385543823">
        <ele>432</ele>
        <time>2019-09-11T08:30:33+00:00</time>
      </trkpt>
      <trkpt lat="43.331787109375" lon="-7.5628299713135">
        <ele>432</ele>
        <time>2019-09-11T08:30:34+00:00</time>
      </trkpt>
      <trkpt lat="43.33177947998" lon="-7.5628266334534">
        <ele>431</ele>
        <time>2019-09-11T08:30:35+00:00</time>
      </trkpt>
      <trkpt lat="43.331771850586" lon="-7.5628218650818">
        <ele>431</ele>
        <time>2019-09-11T08:30:36+00:00</time>
      </trkpt>
      <trkpt lat="43.331768035889" lon="-7.5628199577332">
        <ele>430</ele>
        <time>2019-09-11T08:30:37+00:00</time>
      </trkpt>
      <trkpt lat="43.3317527771" lon="-7.5628199577332">
        <ele>430</ele>
        <time>2019-09-11T08:30:38+00:00</time>
      </trkpt>
      <trkpt lat="43.331741333008" lon="-7.5628218650818">
        <ele>429</ele>
        <time>2019-09-11T08:30:39+00:00</time>
      </trkpt>
      <trkpt lat="43.331729888916" lon="-7.5628299713135">
        <ele>429</ele>
        <time>2019-09-11T08:30:40+00:00</time>
      </trkpt>
      <trkpt lat="43.331718444824" lon="-7.5628333091736">
        <ele>429</ele>
        <time>2019-09-11T08:30:41+00:00</time>
      </trkpt>
      <trkpt lat="43.33171081543" lon="-7.5628399848938">
        <ele>429</ele>
        <time>2019-09-11T08:30:42+00:00</time>
      </trkpt>
      <trkpt lat="43.331680297852" lon="-7.5628433227539">
        <ele>429</ele>
        <time>2019-09-11T08:30:43+00:00</time>
      </trkpt>
      <trkpt lat="43.33166885376" lon="-7.5628433227539">
        <ele>429</ele>
        <time>2019-09-11T08:30:44+00:00</time>
      </trkpt>
      <trkpt lat="43.331661224365" lon="-7.5628499984741">
        <ele>429</ele>
        <time>2019-09-11T08:30:45+00:00</time>
      </trkpt>
      <trkpt lat="43.331645965576" lon="-7.562846660614">
        <ele>428</ele>
        <time>2019-09-11T08:30:46+00:00</time>
      </trkpt>
      <trkpt lat="43.331630706787" lon="-7.5628514289856">
        <ele>428</ele>
        <time>2019-09-11T08:30:47+00:00</time>
      </trkpt>
      <trkpt lat="43.331623077393" lon="-7.5628600120544">
        <ele>428</ele>
        <time>2019-09-11T08:30:48+00:00</time>
      </trkpt>
      <trkpt lat="43.331607818604" lon="-7.5628633499146">
        <ele>428</ele>
        <time>2019-09-11T08:30:49+00:00</time>
      </trkpt>
      <trkpt lat="43.331600189209" lon="-7.5628700256348">
        <ele>428</ele>
        <time>2019-09-11T08:30:50+00:00</time>
      </trkpt>
      <trkpt lat="43.331588745117" lon="-7.562876701355">
        <ele>428</ele>
        <time>2019-09-11T08:30:51+00:00</time>
      </trkpt>
      <trkpt lat="43.331577301025" lon="-7.5628833770752">
        <ele>428</ele>
        <time>2019-09-11T08:30:52+00:00</time>
      </trkpt>
      <trkpt lat="43.331569671631" lon="-7.5628914833069">
        <ele>428</ele>
        <time>2019-09-11T08:30:53+00:00</time>
      </trkpt>
      <trkpt lat="43.331565856934" lon="-7.5629100799561">
        <ele>428</ele>
        <time>2019-09-11T08:30:54+00:00</time>
      </trkpt>
      <trkpt lat="43.331558227539" lon="-7.5629267692566">
        <ele>428</ele>
        <time>2019-09-11T08:30:55+00:00</time>
      </trkpt>
      <trkpt lat="43.331546783447" lon="-7.5629415512085">
        <ele>427</ele>
        <time>2019-09-11T08:30:56+00:00</time>
      </trkpt>
      <trkpt lat="43.331539154053" lon="-7.5629434585571">
        <ele>427</ele>
        <time>2019-09-11T08:30:57+00:00</time>
      </trkpt>
      <trkpt lat="43.331531524658" lon="-7.5629634857178">
        <ele>427</ele>
        <time>2019-09-11T08:30:58+00:00</time>
      </trkpt>
      <trkpt lat="43.331520080566" lon="-7.5629801750183">
        <ele>427</ele>
        <time>2019-09-11T08:30:59+00:00</time>
      </trkpt>
      <trkpt lat="43.331508636475" lon="-7.56298828125">
        <ele>427</ele>
        <time>2019-09-11T08:31:00+00:00</time>
      </trkpt>
      <trkpt lat="43.331504821777" lon="-7.5629935264587">
        <ele>426</ele>
        <time>2019-09-11T08:31:01+00:00</time>
      </trkpt>
      <trkpt lat="43.331493377686" lon="-7.5629982948303">
        <ele>426</ele>
        <time>2019-09-11T08:31:02+00:00</time>
      </trkpt>
      <trkpt lat="43.331481933594" lon="-7.5630116462708">
        <ele>426</ele>
        <time>2019-09-11T08:31:03+00:00</time>
      </trkpt>
      <trkpt lat="43.331470489502" lon="-7.5630283355713">
        <ele>426</ele>
        <time>2019-09-11T08:31:04+00:00</time>
      </trkpt>
      <trkpt lat="43.331466674805" lon="-7.5630383491516">
        <ele>426</ele>
        <time>2019-09-11T08:31:05+00:00</time>
      </trkpt>
      <trkpt lat="43.33145904541" lon="-7.5630483627319">
        <ele>426</ele>
        <time>2019-09-11T08:31:06+00:00</time>
      </trkpt>
      <trkpt lat="43.331455230713" lon="-7.5630564689636">
        <ele>426</ele>
        <time>2019-09-11T08:31:07+00:00</time>
      </trkpt>
      <trkpt lat="43.331451416016" lon="-7.5630650520325">
        <ele>426</ele>
        <time>2019-09-11T08:31:08+00:00</time>
      </trkpt>
      <trkpt lat="43.331443786621" lon="-7.5630731582642">
        <ele>425</ele>
        <time>2019-09-11T08:31:09+00:00</time>
      </trkpt>
      <trkpt lat="43.331439971924" lon="-7.5630884170532">
        <ele>426</ele>
        <time>2019-09-11T08:31:10+00:00</time>
      </trkpt>
      <trkpt lat="43.331432342529" lon="-7.563099861145">
        <ele>426</ele>
        <time>2019-09-11T08:31:11+00:00</time>
      </trkpt>
      <trkpt lat="43.331428527832" lon="-7.5631132125854">
        <ele>425</ele>
        <time>2019-09-11T08:31:12+00:00</time>
      </trkpt>
      <trkpt lat="43.331420898438" lon="-7.5631198883057">
        <ele>425</ele>
        <time>2019-09-11T08:31:14+00:00</time>
      </trkpt>
      <trkpt lat="43.331413269043" lon="-7.5631318092346">
        <ele>425</ele>
        <time>2019-09-11T08:31:15+00:00</time>
      </trkpt>
      <trkpt lat="43.331401824951" lon="-7.5631432533264">
        <ele>425</ele>
        <time>2019-09-11T08:31:16+00:00</time>
      </trkpt>
      <trkpt lat="43.331390380859" lon="-7.5631551742554">
        <ele>425</ele>
        <time>2019-09-11T08:31:17+00:00</time>
      </trkpt>
      <trkpt lat="43.331378936768" lon="-7.5631685256958">
        <ele>425</ele>
        <time>2019-09-11T08:31:18+00:00</time>
      </trkpt>
      <trkpt lat="43.331371307373" lon="-7.5631818771362">
        <ele>425</ele>
        <time>2019-09-11T08:31:19+00:00</time>
      </trkpt>
      <trkpt lat="43.331356048584" lon="-7.5631885528564">
        <ele>425</ele>
        <time>2019-09-11T08:31:20+00:00</time>
      </trkpt>
      <trkpt lat="43.331344604492" lon="-7.563193321228">
        <ele>425</ele>
        <time>2019-09-11T08:31:21+00:00</time>
      </trkpt>
      <trkpt lat="43.3313331604" lon="-7.5631999969482">
        <ele>424</ele>
        <time>2019-09-11T08:31:22+00:00</time>
      </trkpt>
      <trkpt lat="43.331321716309" lon="-7.56321144104">
        <ele>424</ele>
        <time>2019-09-11T08:31:23+00:00</time>
      </trkpt>
      <trkpt lat="43.331317901611" lon="-7.5632266998291">
        <ele>424</ele>
        <time>2019-09-11T08:31:24+00:00</time>
      </trkpt>
      <trkpt lat="43.331310272217" lon="-7.5632400512695">
        <ele>424</ele>
        <time>2019-09-11T08:31:25+00:00</time>
      </trkpt>
      <trkpt lat="43.331302642822" lon="-7.56325340271">
        <ele>424</ele>
        <time>2019-09-11T08:31:26+00:00</time>
      </trkpt>
      <trkpt lat="43.331298828125" lon="-7.5632648468018">
        <ele>424</ele>
        <time>2019-09-11T08:31:27+00:00</time>
      </trkpt>
      <trkpt lat="43.331298828125" lon="-7.5632834434509">
        <ele>424</ele>
        <time>2019-09-11T08:31:28+00:00</time>
      </trkpt>
      <trkpt lat="43.331298828125" lon="-7.5632982254028">
        <ele>423</ele>
        <time>2019-09-11T08:31:29+00:00</time>
      </trkpt>
      <trkpt lat="43.331295013428" lon="-7.563316822052">
        <ele>423</ele>
        <time>2019-09-11T08:31:30+00:00</time>
      </trkpt>
      <trkpt lat="43.33129119873" lon="-7.5633301734924">
        <ele>423</ele>
        <time>2019-09-11T08:31:31+00:00</time>
      </trkpt>
      <trkpt lat="43.331283569336" lon="-7.5633401870728">
        <ele>423</ele>
        <time>2019-09-11T08:31:32+00:00</time>
      </trkpt>
      <trkpt lat="43.331279754639" lon="-7.5633502006531">
        <ele>424</ele>
        <time>2019-09-11T08:31:33+00:00</time>
      </trkpt>
      <trkpt lat="43.331272125244" lon="-7.5633616447449">
        <ele>424</ele>
        <time>2019-09-11T08:31:34+00:00</time>
      </trkpt>
      <trkpt lat="43.33126449585" lon="-7.5633735656738">
        <ele>424</ele>
        <time>2019-09-11T08:31:35+00:00</time>
      </trkpt>
      <trkpt lat="43.331256866455" lon="-7.5633864402771">
        <ele>425</ele>
        <time>2019-09-11T08:31:36+00:00</time>
      </trkpt>
      <trkpt lat="43.331249237061" lon="-7.5633964538574">
        <ele>425</ele>
        <time>2019-09-11T08:31:37+00:00</time>
      </trkpt>
      <trkpt lat="43.331241607666" lon="-7.5634064674377">
        <ele>425</ele>
        <time>2019-09-11T08:31:38+00:00</time>
      </trkpt>
      <trkpt lat="43.331233978271" lon="-7.5634150505066">
        <ele>425</ele>
        <time>2019-09-11T08:31:39+00:00</time>
      </trkpt>
      <trkpt lat="43.331230163574" lon="-7.563428401947">
        <ele>425</ele>
        <time>2019-09-11T08:31:40+00:00</time>
      </trkpt>
      <trkpt lat="43.33122253418" lon="-7.5634384155273">
        <ele>425</ele>
        <time>2019-09-11T08:31:41+00:00</time>
      </trkpt>
      <trkpt lat="43.331218719482" lon="-7.5634551048279">
        <ele>425</ele>
        <time>2019-09-11T08:31:42+00:00</time>
      </trkpt>
      <trkpt lat="43.331214904785" lon="-7.5634732246399">
        <ele>426</ele>
        <time>2019-09-11T08:31:43+00:00</time>
      </trkpt>
      <trkpt lat="43.331207275391" lon="-7.5634899139404">
        <ele>426</ele>
        <time>2019-09-11T08:31:44+00:00</time>
      </trkpt>
      <trkpt lat="43.331207275391" lon="-7.5635099411011">
        <ele>426</ele>
        <time>2019-09-11T08:31:45+00:00</time>
      </trkpt>
      <trkpt lat="43.331203460693" lon="-7.5635251998901">
        <ele>426</ele>
        <time>2019-09-11T08:31:46+00:00</time>
      </trkpt>
      <trkpt lat="43.331199645996" lon="-7.5635366439819">
        <ele>427</ele>
        <time>2019-09-11T08:31:47+00:00</time>
      </trkpt>
      <trkpt lat="43.331192016602" lon="-7.563551902771">
        <ele>427</ele>
        <time>2019-09-11T08:31:48+00:00</time>
      </trkpt>
      <trkpt lat="43.331184387207" lon="-7.5635666847229">
        <ele>427</ele>
        <time>2019-09-11T08:31:49+00:00</time>
      </trkpt>
      <trkpt lat="43.331172943115" lon="-7.5635766983032">
        <ele>427</ele>
        <time>2019-09-11T08:31:50+00:00</time>
      </trkpt>
      <trkpt lat="43.331165313721" lon="-7.5635900497437">
        <ele>427</ele>
        <time>2019-09-11T08:31:51+00:00</time>
      </trkpt>
      <trkpt lat="43.331157684326" lon="-7.5636014938354">
        <ele>427</ele>
        <time>2019-09-11T08:31:52+00:00</time>
      </trkpt>
      <trkpt lat="43.331150054932" lon="-7.5636200904846">
        <ele>427</ele>
        <time>2019-09-11T08:31:53+00:00</time>
      </trkpt>
      <trkpt lat="43.331142425537" lon="-7.5636348724365">
        <ele>427</ele>
        <time>2019-09-11T08:31:54+00:00</time>
      </trkpt>
      <trkpt lat="43.331134796143" lon="-7.563648223877">
        <ele>428</ele>
        <time>2019-09-11T08:31:55+00:00</time>
      </trkpt>
      <trkpt lat="43.331127166748" lon="-7.5636649131775">
        <ele>428</ele>
        <time>2019-09-11T08:31:56+00:00</time>
      </trkpt>
      <trkpt lat="43.331123352051" lon="-7.5636782646179">
        <ele>428</ele>
        <time>2019-09-11T08:31:57+00:00</time>
      </trkpt>
      <trkpt lat="43.331119537354" lon="-7.563693523407">
        <ele>428</ele>
        <time>2019-09-11T08:31:58+00:00</time>
      </trkpt>
      <trkpt lat="43.331108093262" lon="-7.5637068748474">
        <ele>428</ele>
        <time>2019-09-11T08:31:59+00:00</time>
      </trkpt>
      <trkpt lat="43.33109664917" lon="-7.5637168884277">
        <ele>428</ele>
        <time>2019-09-11T08:32:00+00:00</time>
      </trkpt>
      <trkpt lat="43.331092834473" lon="-7.5637249946594">
        <ele>429</ele>
        <time>2019-09-11T08:32:01+00:00</time>
      </trkpt>
      <trkpt lat="43.331077575684" lon="-7.5637364387512">
        <ele>429</ele>
        <time>2019-09-11T08:32:02+00:00</time>
      </trkpt>
      <trkpt lat="43.331062316895" lon="-7.5637483596802">
        <ele>429</ele>
        <time>2019-09-11T08:32:03+00:00</time>
      </trkpt>
      <trkpt lat="43.331050872803" lon="-7.5637583732605">
        <ele>429</ele>
        <time>2019-09-11T08:32:04+00:00</time>
      </trkpt>
      <trkpt lat="43.331043243408" lon="-7.5637698173523">
        <ele>429</ele>
        <time>2019-09-11T08:32:05+00:00</time>
      </trkpt>
      <trkpt lat="43.331035614014" lon="-7.5637798309326">
        <ele>429</ele>
        <time>2019-09-11T08:32:06+00:00</time>
      </trkpt>
      <trkpt lat="43.331024169922" lon="-7.5637917518616">
        <ele>429</ele>
        <time>2019-09-11T08:32:07+00:00</time>
      </trkpt>
      <trkpt lat="43.331016540527" lon="-7.563805103302">
        <ele>429</ele>
        <time>2019-09-11T08:32:08+00:00</time>
      </trkpt>
      <trkpt lat="43.331008911133" lon="-7.5638151168823">
        <ele>429</ele>
        <time>2019-09-11T08:32:09+00:00</time>
      </trkpt>
      <trkpt lat="43.331005096436" lon="-7.5638265609741">
        <ele>429</ele>
        <time>2019-09-11T08:32:10+00:00</time>
      </trkpt>
      <trkpt lat="43.331005096436" lon="-7.5638399124146">
        <ele>429</ele>
        <time>2019-09-11T08:32:11+00:00</time>
      </trkpt>
      <trkpt lat="43.330997467041" lon="-7.5638499259949">
        <ele>429</ele>
        <time>2019-09-11T08:32:12+00:00</time>
      </trkpt>
      <trkpt lat="43.330989837646" lon="-7.5638618469238">
        <ele>429</ele>
        <time>2019-09-11T08:32:13+00:00</time>
      </trkpt>
      <trkpt lat="43.330982208252" lon="-7.5638718605042">
        <ele>429</ele>
        <time>2019-09-11T08:32:14+00:00</time>
      </trkpt>
      <trkpt lat="43.330978393555" lon="-7.5638866424561">
        <ele>429</ele>
        <time>2019-09-11T08:32:15+00:00</time>
      </trkpt>
      <trkpt lat="43.33097076416" lon="-7.5638999938965">
        <ele>429</ele>
        <time>2019-09-11T08:32:16+00:00</time>
      </trkpt>
      <trkpt lat="43.330966949463" lon="-7.5639147758484">
        <ele>429</ele>
        <time>2019-09-11T08:32:17+00:00</time>
      </trkpt>
      <trkpt lat="43.330959320068" lon="-7.5639247894287">
        <ele>430</ele>
        <time>2019-09-11T08:32:18+00:00</time>
      </trkpt>
      <trkpt lat="43.330951690674" lon="-7.5639367103577">
        <ele>430</ele>
        <time>2019-09-11T08:32:19+00:00</time>
      </trkpt>
      <trkpt lat="43.330947875977" lon="-7.5639448165894">
        <ele>430</ele>
        <time>2019-09-11T08:32:20+00:00</time>
      </trkpt>
      <trkpt lat="43.330944061279" lon="-7.5639567375183">
        <ele>430</ele>
        <time>2019-09-11T08:32:21+00:00</time>
      </trkpt>
      <trkpt lat="43.330936431885" lon="-7.5639681816101">
        <ele>430</ele>
        <time>2019-09-11T08:32:22+00:00</time>
      </trkpt>
      <trkpt lat="43.330936431885" lon="-7.5639781951904">
        <ele>430</ele>
        <time>2019-09-11T08:32:23+00:00</time>
      </trkpt>
      <trkpt lat="43.33092880249" lon="-7.5639882087708">
        <ele>430</ele>
        <time>2019-09-11T08:32:24+00:00</time>
      </trkpt>
      <trkpt lat="43.330917358398" lon="-7.5640034675598">
        <ele>430</ele>
        <time>2019-09-11T08:32:25+00:00</time>
      </trkpt>
      <trkpt lat="43.330909729004" lon="-7.5640182495117">
        <ele>430</ele>
        <time>2019-09-11T08:32:26+00:00</time>
      </trkpt>
      <trkpt lat="43.330898284912" lon="-7.5640301704407">
        <ele>430</ele>
        <time>2019-09-11T08:32:27+00:00</time>
      </trkpt>
      <trkpt lat="43.330894470215" lon="-7.5640435218811">
        <ele>430</ele>
        <time>2019-09-11T08:32:28+00:00</time>
      </trkpt>
      <trkpt lat="43.330883026123" lon="-7.564058303833">
        <ele>430</ele>
        <time>2019-09-11T08:32:29+00:00</time>
      </trkpt>
      <trkpt lat="43.330871582031" lon="-7.5640749931335">
        <ele>430</ele>
        <time>2019-09-11T08:32:30+00:00</time>
      </trkpt>
      <trkpt lat="43.330863952637" lon="-7.5640897750854">
        <ele>431</ele>
        <time>2019-09-11T08:32:31+00:00</time>
      </trkpt>
      <trkpt lat="43.330856323242" lon="-7.5641031265259">
        <ele>431</ele>
        <time>2019-09-11T08:32:32+00:00</time>
      </trkpt>
      <trkpt lat="43.33084487915" lon="-7.5641183853149">
        <ele>431</ele>
        <time>2019-09-11T08:32:33+00:00</time>
      </trkpt>
      <trkpt lat="43.330841064453" lon="-7.5641298294067">
        <ele>431</ele>
        <time>2019-09-11T08:32:34+00:00</time>
      </trkpt>
      <trkpt lat="43.330837249756" lon="-7.5641431808472">
        <ele>431</ele>
        <time>2019-09-11T08:32:35+00:00</time>
      </trkpt>
      <trkpt lat="43.330825805664" lon="-7.5641551017761">
        <ele>431</ele>
        <time>2019-09-11T08:32:36+00:00</time>
      </trkpt>
      <trkpt lat="43.330814361572" lon="-7.5641717910767">
        <ele>431</ele>
        <time>2019-09-11T08:32:37+00:00</time>
      </trkpt>
      <trkpt lat="43.33080291748" lon="-7.5641865730286">
        <ele>431</ele>
        <time>2019-09-11T08:32:38+00:00</time>
      </trkpt>
      <trkpt lat="43.330795288086" lon="-7.5642018318176">
        <ele>431</ele>
        <time>2019-09-11T08:32:39+00:00</time>
      </trkpt>
      <trkpt lat="43.330783843994" lon="-7.5642132759094">
        <ele>431</ele>
        <time>2019-09-11T08:32:40+00:00</time>
      </trkpt>
      <trkpt lat="43.330780029297" lon="-7.5642251968384">
        <ele>431</ele>
        <time>2019-09-11T08:32:41+00:00</time>
      </trkpt>
      <trkpt lat="43.330768585205" lon="-7.5642366409302">
        <ele>431</ele>
        <time>2019-09-11T08:32:42+00:00</time>
      </trkpt>
      <trkpt lat="43.330760955811" lon="-7.5642485618591">
        <ele>431</ele>
        <time>2019-09-11T08:32:43+00:00</time>
      </trkpt>
      <trkpt lat="43.330753326416" lon="-7.5642552375793">
        <ele>431</ele>
        <time>2019-09-11T08:32:44+00:00</time>
      </trkpt>
      <trkpt lat="43.330745697021" lon="-7.5642681121826">
        <ele>431</ele>
        <time>2019-09-11T08:32:45+00:00</time>
      </trkpt>
      <trkpt lat="43.330738067627" lon="-7.564281463623">
        <ele>431</ele>
        <time>2019-09-11T08:32:46+00:00</time>
      </trkpt>
      <trkpt lat="43.330730438232" lon="-7.5642948150635">
        <ele>431</ele>
        <time>2019-09-11T08:32:47+00:00</time>
      </trkpt>
      <trkpt lat="43.330726623535" lon="-7.5643000602722">
        <ele>431</ele>
        <time>2019-09-11T08:32:48+00:00</time>
      </trkpt>
      <trkpt lat="43.330718994141" lon="-7.5643100738525">
        <ele>431</ele>
        <time>2019-09-11T08:32:49+00:00</time>
      </trkpt>
      <trkpt lat="43.330715179443" lon="-7.5643181800842">
        <ele>431</ele>
        <time>2019-09-11T08:32:50+00:00</time>
      </trkpt>
      <trkpt lat="43.330707550049" lon="-7.5643301010132">
        <ele>431</ele>
        <time>2019-09-11T08:32:51+00:00</time>
      </trkpt>
      <trkpt lat="43.330699920654" lon="-7.5643401145935">
        <ele>431</ele>
        <time>2019-09-11T08:32:52+00:00</time>
      </trkpt>
      <trkpt lat="43.33069229126" lon="-7.5643482208252">
        <ele>431</ele>
        <time>2019-09-11T08:32:53+00:00</time>
      </trkpt>
      <trkpt lat="43.330684661865" lon="-7.5643582344055">
        <ele>431</ele>
        <time>2019-09-11T08:32:54+00:00</time>
      </trkpt>
      <trkpt lat="43.330677032471" lon="-7.5643682479858">
        <ele>431</ele>
        <time>2019-09-11T08:32:55+00:00</time>
      </trkpt>
      <trkpt lat="43.330669403076" lon="-7.5643815994263">
        <ele>430</ele>
        <time>2019-09-11T08:32:56+00:00</time>
      </trkpt>
      <trkpt lat="43.330661773682" lon="-7.5643935203552">
        <ele>430</ele>
        <time>2019-09-11T08:32:57+00:00</time>
      </trkpt>
      <trkpt lat="43.33065032959" lon="-7.5644035339355">
        <ele>430</ele>
        <time>2019-09-11T08:32:58+00:00</time>
      </trkpt>
      <trkpt lat="43.330646514893" lon="-7.564416885376">
        <ele>430</ele>
        <time>2019-09-11T08:32:59+00:00</time>
      </trkpt>
      <trkpt lat="43.330638885498" lon="-7.5644283294678">
        <ele>430</ele>
        <time>2019-09-11T08:33:00+00:00</time>
      </trkpt>
      <trkpt lat="43.330631256104" lon="-7.5644397735596">
        <ele>430</ele>
        <time>2019-09-11T08:33:01+00:00</time>
      </trkpt>
      <trkpt lat="43.330623626709" lon="-7.5644483566284">
        <ele>430</ele>
        <time>2019-09-11T08:33:02+00:00</time>
      </trkpt>
      <trkpt lat="43.330615997314" lon="-7.5644598007202">
        <ele>430</ele>
        <time>2019-09-11T08:33:03+00:00</time>
      </trkpt>
      <trkpt lat="43.33060836792" lon="-7.5644717216492">
        <ele>430</ele>
        <time>2019-09-11T08:33:04+00:00</time>
      </trkpt>
      <trkpt lat="43.330600738525" lon="-7.5644850730896">
        <ele>430</ele>
        <time>2019-09-11T08:33:05+00:00</time>
      </trkpt>
      <trkpt lat="43.330593109131" lon="-7.5645017623901">
        <ele>430</ele>
        <time>2019-09-11T08:33:06+00:00</time>
      </trkpt>
      <trkpt lat="43.330593109131" lon="-7.5645151138306">
        <ele>431</ele>
        <time>2019-09-11T08:33:07+00:00</time>
      </trkpt>
      <trkpt lat="43.330585479736" lon="-7.5645318031311">
        <ele>431</ele>
        <time>2019-09-11T08:33:08+00:00</time>
      </trkpt>
      <trkpt lat="43.330585479736" lon="-7.5645532608032">
        <ele>431</ele>
        <time>2019-09-11T08:33:09+00:00</time>
      </trkpt>
      <trkpt lat="43.330581665039" lon="-7.5645685195923">
        <ele>431</ele>
        <time>2019-09-11T08:33:10+00:00</time>
      </trkpt>
      <trkpt lat="43.330570220947" lon="-7.5645818710327">
        <ele>431</ele>
        <time>2019-09-11T08:33:11+00:00</time>
      </trkpt>
      <trkpt lat="43.330554962158" lon="-7.5645952224731">
        <ele>431</ele>
        <time>2019-09-11T08:33:12+00:00</time>
      </trkpt>
      <trkpt lat="43.330543518066" lon="-7.564610004425">
        <ele>430</ele>
        <time>2019-09-11T08:33:13+00:00</time>
      </trkpt>
      <trkpt lat="43.330535888672" lon="-7.5646266937256">
        <ele>430</ele>
        <time>2019-09-11T08:33:14+00:00</time>
      </trkpt>
      <trkpt lat="43.330528259277" lon="-7.5646414756775">
        <ele>431</ele>
        <time>2019-09-11T08:33:15+00:00</time>
      </trkpt>
      <trkpt lat="43.330516815186" lon="-7.5646567344666">
        <ele>431</ele>
        <time>2019-09-11T08:33:16+00:00</time>
      </trkpt>
      <trkpt lat="43.330509185791" lon="-7.564670085907">
        <ele>431</ele>
        <time>2019-09-11T08:33:17+00:00</time>
      </trkpt>
      <trkpt lat="43.330497741699" lon="-7.5646815299988">
        <ele>431</ele>
        <time>2019-09-11T08:33:18+00:00</time>
      </trkpt>
      <trkpt lat="43.330490112305" lon="-7.5646967887878">
        <ele>431</ele>
        <time>2019-09-11T08:33:19+00:00</time>
      </trkpt>
      <trkpt lat="43.33048248291" lon="-7.5647115707397">
        <ele>431</ele>
        <time>2019-09-11T08:33:20+00:00</time>
      </trkpt>
      <trkpt lat="43.330474853516" lon="-7.5647234916687">
        <ele>430</ele>
        <time>2019-09-11T08:33:21+00:00</time>
      </trkpt>
      <trkpt lat="43.330467224121" lon="-7.5647368431091">
        <ele>430</ele>
        <time>2019-09-11T08:33:22+00:00</time>
      </trkpt>
      <trkpt lat="43.330455780029" lon="-7.564751625061">
        <ele>430</ele>
        <time>2019-09-11T08:33:23+00:00</time>
      </trkpt>
      <trkpt lat="43.330444335938" lon="-7.5647649765015">
        <ele>430</ele>
        <time>2019-09-11T08:33:24+00:00</time>
      </trkpt>
      <trkpt lat="43.330436706543" lon="-7.5647783279419">
        <ele>430</ele>
        <time>2019-09-11T08:33:25+00:00</time>
      </trkpt>
      <trkpt lat="43.330432891846" lon="-7.5647897720337">
        <ele>430</ele>
        <time>2019-09-11T08:33:26+00:00</time>
      </trkpt>
      <trkpt lat="43.330421447754" lon="-7.5648031234741">
        <ele>430</ele>
        <time>2019-09-11T08:33:27+00:00</time>
      </trkpt>
      <trkpt lat="43.330413818359" lon="-7.5648164749146">
        <ele>430</ele>
        <time>2019-09-11T08:33:28+00:00</time>
      </trkpt>
      <trkpt lat="43.330410003662" lon="-7.5648283958435">
        <ele>430</ele>
        <time>2019-09-11T08:33:29+00:00</time>
      </trkpt>
      <trkpt lat="43.330402374268" lon="-7.5648398399353">
        <ele>430</ele>
        <time>2019-09-11T08:33:30+00:00</time>
      </trkpt>
      <trkpt lat="43.33039855957" lon="-7.5648517608643">
        <ele>430</ele>
        <time>2019-09-11T08:33:31+00:00</time>
      </trkpt>
      <trkpt lat="43.330390930176" lon="-7.5648651123047">
        <ele>430</ele>
        <time>2019-09-11T08:33:32+00:00</time>
      </trkpt>
      <trkpt lat="43.330383300781" lon="-7.5648765563965">
        <ele>430</ele>
        <time>2019-09-11T08:33:33+00:00</time>
      </trkpt>
      <trkpt lat="43.330375671387" lon="-7.5648865699768">
        <ele>430</ele>
        <time>2019-09-11T08:33:34+00:00</time>
      </trkpt>
      <trkpt lat="43.330364227295" lon="-7.5649018287659">
        <ele>430</ele>
        <time>2019-09-11T08:33:35+00:00</time>
      </trkpt>
      <trkpt lat="43.3303565979" lon="-7.5649166107178">
        <ele>430</ele>
        <time>2019-09-11T08:33:36+00:00</time>
      </trkpt>
      <trkpt lat="43.330352783203" lon="-7.5649299621582">
        <ele>430</ele>
        <time>2019-09-11T08:33:37+00:00</time>
      </trkpt>
      <trkpt lat="43.330345153809" lon="-7.5649433135986">
        <ele>430</ele>
        <time>2019-09-11T08:33:38+00:00</time>
      </trkpt>
      <trkpt lat="43.330333709717" lon="-7.5649518966675">
        <ele>431</ele>
        <time>2019-09-11T08:33:39+00:00</time>
      </trkpt>
      <trkpt lat="43.330326080322" lon="-7.5649580955505">
        <ele>431</ele>
        <time>2019-09-11T08:33:40+00:00</time>
      </trkpt>
      <trkpt lat="43.330318450928" lon="-7.5649681091309">
        <ele>431</ele>
        <time>2019-09-11T08:33:41+00:00</time>
      </trkpt>
      <trkpt lat="43.330307006836" lon="-7.5649800300598">
        <ele>431</ele>
        <time>2019-09-11T08:33:42+00:00</time>
      </trkpt>
      <trkpt lat="43.330303192139" lon="-7.5649881362915">
        <ele>431</ele>
        <time>2019-09-11T08:33:43+00:00</time>
      </trkpt>
      <trkpt lat="43.330291748047" lon="-7.5649981498718">
        <ele>431</ele>
        <time>2019-09-11T08:33:44+00:00</time>
      </trkpt>
      <trkpt lat="43.330284118652" lon="-7.5650100708008">
        <ele>431</ele>
        <time>2019-09-11T08:33:45+00:00</time>
      </trkpt>
      <trkpt lat="43.330268859863" lon="-7.5650200843811">
        <ele>431</ele>
        <time>2019-09-11T08:33:46+00:00</time>
      </trkpt>
      <trkpt lat="43.330257415771" lon="-7.5650267601013">
        <ele>431</ele>
        <time>2019-09-11T08:33:47+00:00</time>
      </trkpt>
      <trkpt lat="43.330249786377" lon="-7.5650334358215">
        <ele>432</ele>
        <time>2019-09-11T08:33:48+00:00</time>
      </trkpt>
      <trkpt lat="43.330238342285" lon="-7.5650382041931">
        <ele>432</ele>
        <time>2019-09-11T08:33:49+00:00</time>
      </trkpt>
      <trkpt lat="43.330226898193" lon="-7.5650415420532">
        <ele>432</ele>
        <time>2019-09-11T08:33:50+00:00</time>
      </trkpt>
      <trkpt lat="43.330215454102" lon="-7.5650448799133">
        <ele>432</ele>
        <time>2019-09-11T08:33:51+00:00</time>
      </trkpt>
      <trkpt lat="43.33020401001" lon="-7.5650501251221">
        <ele>432</ele>
        <time>2019-09-11T08:33:52+00:00</time>
      </trkpt>
      <trkpt lat="43.330192565918" lon="-7.5650568008423">
        <ele>432</ele>
        <time>2019-09-11T08:33:53+00:00</time>
      </trkpt>
      <trkpt lat="43.330184936523" lon="-7.5650601387024">
        <ele>432</ele>
        <time>2019-09-11T08:33:54+00:00</time>
      </trkpt>
      <trkpt lat="43.330173492432" lon="-7.565064907074">
        <ele>432</ele>
        <time>2019-09-11T08:33:55+00:00</time>
      </trkpt>
      <trkpt lat="43.330165863037" lon="-7.5650715827942">
        <ele>432</ele>
        <time>2019-09-11T08:33:56+00:00</time>
      </trkpt>
      <trkpt lat="43.330158233643" lon="-7.565080165863">
        <ele>432</ele>
        <time>2019-09-11T08:33:57+00:00</time>
      </trkpt>
      <trkpt lat="43.330146789551" lon="-7.5650882720947">
        <ele>432</ele>
        <time>2019-09-11T08:33:58+00:00</time>
      </trkpt>
      <trkpt lat="43.330135345459" lon="-7.5650968551636">
        <ele>432</ele>
        <time>2019-09-11T08:33:59+00:00</time>
      </trkpt>
      <trkpt lat="43.330127716064" lon="-7.5651035308838">
        <ele>432</ele>
        <time>2019-09-11T08:34:00+00:00</time>
      </trkpt>
      <trkpt lat="43.330116271973" lon="-7.5651016235352">
        <ele>433</ele>
        <time>2019-09-11T08:34:01+00:00</time>
      </trkpt>
      <trkpt lat="43.330101013184" lon="-7.5651016235352">
        <ele>433</ele>
        <time>2019-09-11T08:34:02+00:00</time>
      </trkpt>
      <trkpt lat="43.330093383789" lon="-7.5651035308838">
        <ele>433</ele>
        <time>2019-09-11T08:34:03+00:00</time>
      </trkpt>
      <trkpt lat="43.330078125" lon="-7.5651082992554">
        <ele>433</ele>
        <time>2019-09-11T08:34:04+00:00</time>
      </trkpt>
      <trkpt lat="43.330066680908" lon="-7.5651149749756">
        <ele>433</ele>
        <time>2019-09-11T08:34:05+00:00</time>
      </trkpt>
      <trkpt lat="43.330059051514" lon="-7.5651202201843">
        <ele>434</ele>
        <time>2019-09-11T08:34:06+00:00</time>
      </trkpt>
      <trkpt lat="43.330051422119" lon="-7.5651235580444">
        <ele>433</ele>
        <time>2019-09-11T08:34:07+00:00</time>
      </trkpt>
      <trkpt lat="43.330039978027" lon="-7.565128326416">
        <ele>433</ele>
        <time>2019-09-11T08:34:08+00:00</time>
      </trkpt>
      <trkpt lat="43.330028533936" lon="-7.5651350021362">
        <ele>433</ele>
        <time>2019-09-11T08:34:09+00:00</time>
      </trkpt>
      <trkpt lat="43.330013275146" lon="-7.5651431083679">
        <ele>433</ele>
        <time>2019-09-11T08:34:10+00:00</time>
      </trkpt>
      <trkpt lat="43.330005645752" lon="-7.5651531219482">
        <ele>433</ele>
        <time>2019-09-11T08:34:11+00:00</time>
      </trkpt>
      <trkpt lat="43.32999420166" lon="-7.5651597976685">
        <ele>433</ele>
        <time>2019-09-11T08:34:12+00:00</time>
      </trkpt>
      <trkpt lat="43.329986572266" lon="-7.5651631355286">
        <ele>433</ele>
        <time>2019-09-11T08:34:13+00:00</time>
      </trkpt>
      <trkpt lat="43.329978942871" lon="-7.5651664733887">
        <ele>433</ele>
        <time>2019-09-11T08:34:14+00:00</time>
      </trkpt>
      <trkpt lat="43.329975128174" lon="-7.5651717185974">
        <ele>433</ele>
        <time>2019-09-11T08:34:15+00:00</time>
      </trkpt>
      <trkpt lat="43.329967498779" lon="-7.565176486969">
        <ele>433</ele>
        <time>2019-09-11T08:34:16+00:00</time>
      </trkpt>
      <trkpt lat="43.329956054688" lon="-7.5651831626892">
        <ele>433</ele>
        <time>2019-09-11T08:34:17+00:00</time>
      </trkpt>
      <trkpt lat="43.329948425293" lon="-7.5651898384094">
        <ele>433</ele>
        <time>2019-09-11T08:34:18+00:00</time>
      </trkpt>
      <trkpt lat="43.329936981201" lon="-7.5651965141296">
        <ele>433</ele>
        <time>2019-09-11T08:34:19+00:00</time>
      </trkpt>
      <trkpt lat="43.329925537109" lon="-7.5652084350586">
        <ele>433</ele>
        <time>2019-09-11T08:34:20+00:00</time>
      </trkpt>
      <trkpt lat="43.329921722412" lon="-7.5652151107788">
        <ele>433</ele>
        <time>2019-09-11T08:34:21+00:00</time>
      </trkpt>
      <trkpt lat="43.32991027832" lon="-7.565221786499">
        <ele>433</ele>
        <time>2019-09-11T08:34:22+00:00</time>
      </trkpt>
      <trkpt lat="43.329898834229" lon="-7.5652318000793">
        <ele>433</ele>
        <time>2019-09-11T08:34:23+00:00</time>
      </trkpt>
      <trkpt lat="43.329887390137" lon="-7.565239906311">
        <ele>433</ele>
        <time>2019-09-11T08:34:24+00:00</time>
      </trkpt>
      <trkpt lat="43.329879760742" lon="-7.5652484893799">
        <ele>433</ele>
        <time>2019-09-11T08:34:25+00:00</time>
      </trkpt>
      <trkpt lat="43.329864501953" lon="-7.5652618408203">
        <ele>433</ele>
        <time>2019-09-11T08:34:26+00:00</time>
      </trkpt>
      <trkpt lat="43.329853057861" lon="-7.565269947052">
        <ele>433</ele>
        <time>2019-09-11T08:34:27+00:00</time>
      </trkpt>
      <trkpt lat="43.32984161377" lon="-7.5652866363525">
        <ele>433</ele>
        <time>2019-09-11T08:34:28+00:00</time>
      </trkpt>
      <trkpt lat="43.329833984375" lon="-7.565299987793">
        <ele>433</ele>
        <time>2019-09-11T08:34:29+00:00</time>
      </trkpt>
      <trkpt lat="43.32982635498" lon="-7.5653114318848">
        <ele>433</ele>
        <time>2019-09-11T08:34:30+00:00</time>
      </trkpt>
      <trkpt lat="43.329814910889" lon="-7.5653247833252">
        <ele>433</ele>
        <time>2019-09-11T08:34:31+00:00</time>
      </trkpt>
      <trkpt lat="43.329807281494" lon="-7.5653381347656">
        <ele>433</ele>
        <time>2019-09-11T08:34:32+00:00</time>
      </trkpt>
      <trkpt lat="43.329792022705" lon="-7.5653548240662">
        <ele>433</ele>
        <time>2019-09-11T08:34:33+00:00</time>
      </trkpt>
      <trkpt lat="43.329788208008" lon="-7.5653667449951">
        <ele>433</ele>
        <time>2019-09-11T08:34:34+00:00</time>
      </trkpt>
      <trkpt lat="43.329776763916" lon="-7.5653800964355">
        <ele>433</ele>
        <time>2019-09-11T08:34:35+00:00</time>
      </trkpt>
      <trkpt lat="43.329765319824" lon="-7.5653834342957">
        <ele>433</ele>
        <time>2019-09-11T08:34:36+00:00</time>
      </trkpt>
      <trkpt lat="43.329753875732" lon="-7.5653882026672">
        <ele>433</ele>
        <time>2019-09-11T08:34:37+00:00</time>
      </trkpt>
      <trkpt lat="43.329746246338" lon="-7.565393447876">
        <ele>433</ele>
        <time>2019-09-11T08:34:38+00:00</time>
      </trkpt>
      <trkpt lat="43.329730987549" lon="-7.5653982162476">
        <ele>434</ele>
        <time>2019-09-11T08:34:39+00:00</time>
      </trkpt>
      <trkpt lat="43.32971572876" lon="-7.5654067993164">
        <ele>434</ele>
        <time>2019-09-11T08:34:40+00:00</time>
      </trkpt>
      <trkpt lat="43.329700469971" lon="-7.5654134750366">
        <ele>434</ele>
        <time>2019-09-11T08:34:41+00:00</time>
      </trkpt>
      <trkpt lat="43.329689025879" lon="-7.5654168128967">
        <ele>434</ele>
        <time>2019-09-11T08:34:42+00:00</time>
      </trkpt>
      <trkpt lat="43.32967376709" lon="-7.5654249191284">
        <ele>434</ele>
        <time>2019-09-11T08:34:43+00:00</time>
      </trkpt>
      <trkpt lat="43.329658508301" lon="-7.5654315948486">
        <ele>434</ele>
        <time>2019-09-11T08:34:44+00:00</time>
      </trkpt>
      <trkpt lat="43.329639434814" lon="-7.5654435157776">
        <ele>434</ele>
        <time>2019-09-11T08:34:45+00:00</time>
      </trkpt>
      <trkpt lat="43.329627990723" lon="-7.5654449462891">
        <ele>434</ele>
        <time>2019-09-11T08:34:46+00:00</time>
      </trkpt>
      <trkpt lat="43.329616546631" lon="-7.5654535293579">
        <ele>434</ele>
        <time>2019-09-11T08:34:47+00:00</time>
      </trkpt>
      <trkpt lat="43.329612731934" lon="-7.5654582977295">
        <ele>434</ele>
        <time>2019-09-11T08:34:48+00:00</time>
      </trkpt>
      <trkpt lat="43.329608917236" lon="-7.5654635429382">
        <ele>434</ele>
        <time>2019-09-11T08:34:49+00:00</time>
      </trkpt>
      <trkpt lat="43.329608917236" lon="-7.5654649734497">
        <ele>434</ele>
        <time>2019-09-11T08:34:50+00:00</time>
      </trkpt>
      <trkpt lat="43.329597473145" lon="-7.5654668807983">
        <ele>434</ele>
        <time>2019-09-11T08:34:51+00:00</time>
      </trkpt>
      <trkpt lat="43.329586029053" lon="-7.56547498703">
        <ele>434</ele>
        <time>2019-09-11T08:34:52+00:00</time>
      </trkpt>
      <trkpt lat="43.329578399658" lon="-7.5654850006104">
        <ele>434</ele>
        <time>2019-09-11T08:34:53+00:00</time>
      </trkpt>
      <trkpt lat="43.329578399658" lon="-7.5654850006104">
        <ele>434</ele>
        <time>2019-09-11T08:34:54+00:00</time>
      </trkpt>
      <trkpt lat="43.329574584961" lon="-7.5654850006104">
        <ele>434</ele>
        <time>2019-09-11T08:34:55+00:00</time>
      </trkpt>
      <trkpt lat="43.329563140869" lon="-7.5654950141907">
        <ele>434</ele>
        <time>2019-09-11T08:34:56+00:00</time>
      </trkpt>
      <trkpt lat="43.329555511475" lon="-7.5655031204224">
        <ele>434</ele>
        <time>2019-09-11T08:34:57+00:00</time>
      </trkpt>
      <trkpt lat="43.32954788208" lon="-7.5655083656311">
        <ele>434</ele>
        <time>2019-09-11T08:34:58+00:00</time>
      </trkpt>
      <trkpt lat="43.329540252686" lon="-7.5655183792114">
        <ele>434</ele>
        <time>2019-09-11T08:34:59+00:00</time>
      </trkpt>
      <trkpt lat="43.329532623291" lon="-7.565523147583">
        <ele>434</ele>
        <time>2019-09-11T08:35:00+00:00</time>
      </trkpt>
      <trkpt lat="43.329521179199" lon="-7.5655283927917">
        <ele>434</ele>
        <time>2019-09-11T08:35:01+00:00</time>
      </trkpt>
      <trkpt lat="43.329513549805" lon="-7.5655331611633">
        <ele>435</ele>
        <time>2019-09-11T08:35:02+00:00</time>
      </trkpt>
      <trkpt lat="43.32950592041" lon="-7.5655398368835">
        <ele>435</ele>
        <time>2019-09-11T08:35:03+00:00</time>
      </trkpt>
      <trkpt lat="43.329494476318" lon="-7.5655484199524">
        <ele>435</ele>
        <time>2019-09-11T08:35:04+00:00</time>
      </trkpt>
      <trkpt lat="43.329483032227" lon="-7.5655584335327">
        <ele>435</ele>
        <time>2019-09-11T08:35:05+00:00</time>
      </trkpt>
      <trkpt lat="43.329479217529" lon="-7.5655617713928">
        <ele>435</ele>
        <time>2019-09-11T08:35:06+00:00</time>
      </trkpt>
      <trkpt lat="43.329471588135" lon="-7.5655632019043">
        <ele>434</ele>
        <time>2019-09-11T08:35:07+00:00</time>
      </trkpt>
      <trkpt lat="43.329460144043" lon="-7.565568447113">
        <ele>434</ele>
        <time>2019-09-11T08:35:08+00:00</time>
      </trkpt>
      <trkpt lat="43.329441070557" lon="-7.5655732154846">
        <ele>434</ele>
        <time>2019-09-11T08:35:09+00:00</time>
      </trkpt>
      <trkpt lat="43.329433441162" lon="-7.5655798912048">
        <ele>434</ele>
        <time>2019-09-11T08:35:10+00:00</time>
      </trkpt>
      <trkpt lat="43.329425811768" lon="-7.5655884742737">
        <ele>434</ele>
        <time>2019-09-11T08:35:11+00:00</time>
      </trkpt>
      <trkpt lat="43.329418182373" lon="-7.5655918121338">
        <ele>434</ele>
        <time>2019-09-11T08:35:12+00:00</time>
      </trkpt>
      <trkpt lat="43.329410552979" lon="-7.5655999183655">
        <ele>434</ele>
        <time>2019-09-11T08:35:13+00:00</time>
      </trkpt>
      <trkpt lat="43.329402923584" lon="-7.5656065940857">
        <ele>434</ele>
        <time>2019-09-11T08:35:14+00:00</time>
      </trkpt>
      <trkpt lat="43.329391479492" lon="-7.5656118392944">
        <ele>434</ele>
        <time>2019-09-11T08:35:15+00:00</time>
      </trkpt>
      <trkpt lat="43.329387664795" lon="-7.5656266212463">
        <ele>434</ele>
        <time>2019-09-11T08:35:16+00:00</time>
      </trkpt>
      <trkpt lat="43.3293800354" lon="-7.5656385421753">
        <ele>434</ele>
        <time>2019-09-11T08:35:17+00:00</time>
      </trkpt>
      <trkpt lat="43.329364776611" lon="-7.5656533241272">
        <ele>433</ele>
        <time>2019-09-11T08:35:18+00:00</time>
      </trkpt>
      <trkpt lat="43.329360961914" lon="-7.5656633377075">
        <ele>433</ele>
        <time>2019-09-11T08:35:19+00:00</time>
      </trkpt>
      <trkpt lat="43.329349517822" lon="-7.5656781196594">
        <ele>433</ele>
        <time>2019-09-11T08:35:20+00:00</time>
      </trkpt>
      <trkpt lat="43.329330444336" lon="-7.5656967163086">
        <ele>433</ele>
        <time>2019-09-11T08:35:21+00:00</time>
      </trkpt>
      <trkpt lat="43.329315185547" lon="-7.5657048225403">
        <ele>433</ele>
        <time>2019-09-11T08:35:22+00:00</time>
      </trkpt>
      <trkpt lat="43.329296112061" lon="-7.5657167434692">
        <ele>433</ele>
        <time>2019-09-11T08:35:23+00:00</time>
      </trkpt>
      <trkpt lat="43.329277038574" lon="-7.5657300949097">
        <ele>433</ele>
        <time>2019-09-11T08:35:24+00:00</time>
      </trkpt>
      <trkpt lat="43.329261779785" lon="-7.5657467842102">
        <ele>432</ele>
        <time>2019-09-11T08:35:25+00:00</time>
      </trkpt>
      <trkpt lat="43.329242706299" lon="-7.5657634735107">
        <ele>432</ele>
        <time>2019-09-11T08:35:26+00:00</time>
      </trkpt>
      <trkpt lat="43.329235076904" lon="-7.5657815933228">
        <ele>432</ele>
        <time>2019-09-11T08:35:27+00:00</time>
      </trkpt>
      <trkpt lat="43.329235076904" lon="-7.5657916069031">
        <ele>432</ele>
        <time>2019-09-11T08:35:28+00:00</time>
      </trkpt>
      <trkpt lat="43.329231262207" lon="-7.5658001899719">
        <ele>432</ele>
        <time>2019-09-11T08:35:29+00:00</time>
      </trkpt>
      <trkpt lat="43.329223632812" lon="-7.5658102035522">
        <ele>432</ele>
        <time>2019-09-11T08:35:30+00:00</time>
      </trkpt>
      <trkpt lat="43.329223632812" lon="-7.5658202171326">
        <ele>433</ele>
        <time>2019-09-11T08:35:31+00:00</time>
      </trkpt>
      <trkpt lat="43.32922744751" lon="-7.5658302307129">
        <ele>433</ele>
        <time>2019-09-11T08:35:32+00:00</time>
      </trkpt>
      <trkpt lat="43.329223632812" lon="-7.5658364295959">
        <ele>433</ele>
        <time>2019-09-11T08:35:33+00:00</time>
      </trkpt>
      <trkpt lat="43.329219818115" lon="-7.5658349990845">
        <ele>433</ele>
        <time>2019-09-11T08:35:34+00:00</time>
      </trkpt>
      <trkpt lat="43.329208374023" lon="-7.5658450126648">
        <ele>433</ele>
        <time>2019-09-11T08:35:35+00:00</time>
      </trkpt>
      <trkpt lat="43.329196929932" lon="-7.565851688385">
        <ele>433</ele>
        <time>2019-09-11T08:35:36+00:00</time>
      </trkpt>
      <trkpt lat="43.329200744629" lon="-7.565851688385">
        <ele>433</ele>
        <time>2019-09-11T08:35:37+00:00</time>
      </trkpt>
      <trkpt lat="43.329200744629" lon="-7.5658564567566">
        <ele>434</ele>
        <time>2019-09-11T08:35:38+00:00</time>
      </trkpt>
      <trkpt lat="43.329193115234" lon="-7.5658650398254">
        <ele>434</ele>
        <time>2019-09-11T08:35:39+00:00</time>
      </trkpt>
      <trkpt lat="43.329196929932" lon="-7.5658717155457">
        <ele>434</ele>
        <time>2019-09-11T08:35:40+00:00</time>
      </trkpt>
      <trkpt lat="43.329196929932" lon="-7.5658731460571">
        <ele>434</ele>
        <time>2019-09-11T08:35:41+00:00</time>
      </trkpt>
      <trkpt lat="43.329196929932" lon="-7.5658798217773">
        <ele>434</ele>
        <time>2019-09-11T08:35:42+00:00</time>
      </trkpt>
      <trkpt lat="43.329200744629" lon="-7.5658831596375">
        <ele>434</ele>
        <time>2019-09-11T08:35:43+00:00</time>
      </trkpt>
      <trkpt lat="43.329193115234" lon="-7.5658864974976">
        <ele>434</ele>
        <time>2019-09-11T08:35:44+00:00</time>
      </trkpt>
      <trkpt lat="43.32918548584" lon="-7.5658917427063">
        <ele>434</ele>
        <time>2019-09-11T08:35:45+00:00</time>
      </trkpt>
      <trkpt lat="43.329177856445" lon="-7.5658950805664">
        <ele>434</ele>
        <time>2019-09-11T08:35:46+00:00</time>
      </trkpt>
      <trkpt lat="43.329170227051" lon="-7.5658950805664">
        <ele>434</ele>
        <time>2019-09-11T08:35:47+00:00</time>
      </trkpt>
      <trkpt lat="43.329162597656" lon="-7.5659031867981">
        <ele>434</ele>
        <time>2019-09-11T08:35:48+00:00</time>
      </trkpt>
      <trkpt lat="43.329139709473" lon="-7.5659165382385">
        <ele>434</ele>
        <time>2019-09-11T08:35:49+00:00</time>
      </trkpt>
      <trkpt lat="43.329128265381" lon="-7.5659265518188">
        <ele>434</ele>
        <time>2019-09-11T08:35:50+00:00</time>
      </trkpt>
      <trkpt lat="43.329116821289" lon="-7.5659365653992">
        <ele>433</ele>
        <time>2019-09-11T08:35:51+00:00</time>
      </trkpt>
      <trkpt lat="43.329090118408" lon="-7.5659399032593">
        <ele>433</ele>
        <time>2019-09-11T08:35:52+00:00</time>
      </trkpt>
      <trkpt lat="43.329082489014" lon="-7.5659465789795">
        <ele>433</ele>
        <time>2019-09-11T08:35:53+00:00</time>
      </trkpt>
      <trkpt lat="43.329074859619" lon="-7.5659551620483">
        <ele>433</ele>
        <time>2019-09-11T08:35:54+00:00</time>
      </trkpt>
      <trkpt lat="43.32905960083" lon="-7.5659618377686">
        <ele>432</ele>
        <time>2019-09-11T08:35:55+00:00</time>
      </trkpt>
      <trkpt lat="43.329048156738" lon="-7.5659666061401">
        <ele>432</ele>
        <time>2019-09-11T08:35:56+00:00</time>
      </trkpt>
      <trkpt lat="43.329036712646" lon="-7.5659732818604">
        <ele>432</ele>
        <time>2019-09-11T08:35:57+00:00</time>
      </trkpt>
      <trkpt lat="43.329032897949" lon="-7.5659832954407">
        <ele>432</ele>
        <time>2019-09-11T08:35:58+00:00</time>
      </trkpt>
      <trkpt lat="43.329021453857" lon="-7.5659885406494">
        <ele>432</ele>
        <time>2019-09-11T08:35:59+00:00</time>
      </trkpt>
      <trkpt lat="43.329013824463" lon="-7.5659918785095">
        <ele>432</ele>
        <time>2019-09-11T08:36:00+00:00</time>
      </trkpt>
      <trkpt lat="43.329006195068" lon="-7.5660033226013">
        <ele>431</ele>
        <time>2019-09-11T08:36:01+00:00</time>
      </trkpt>
      <trkpt lat="43.328998565674" lon="-7.5660099983215">
        <ele>431</ele>
        <time>2019-09-11T08:36:02+00:00</time>
      </trkpt>
      <trkpt lat="43.328990936279" lon="-7.5660247802734">
        <ele>430</ele>
        <time>2019-09-11T08:36:03+00:00</time>
      </trkpt>
      <trkpt lat="43.328983306885" lon="-7.5660333633423">
        <ele>430</ele>
        <time>2019-09-11T08:36:04+00:00</time>
      </trkpt>
      <trkpt lat="43.32897567749" lon="-7.566041469574">
        <ele>430</ele>
        <time>2019-09-11T08:36:05+00:00</time>
      </trkpt>
      <trkpt lat="43.328971862793" lon="-7.5660514831543">
        <ele>429</ele>
        <time>2019-09-11T08:36:06+00:00</time>
      </trkpt>
      <trkpt lat="43.328971862793" lon="-7.5660648345947">
        <ele>429</ele>
        <time>2019-09-11T08:36:07+00:00</time>
      </trkpt>
      <trkpt lat="43.328964233398" lon="-7.5660715103149">
        <ele>429</ele>
        <time>2019-09-11T08:36:08+00:00</time>
      </trkpt>
      <trkpt lat="43.328968048096" lon="-7.5660800933838">
        <ele>429</ele>
        <time>2019-09-11T08:36:09+00:00</time>
      </trkpt>
      <trkpt lat="43.328968048096" lon="-7.5660915374756">
        <ele>429</ele>
        <time>2019-09-11T08:36:10+00:00</time>
      </trkpt>
      <trkpt lat="43.328960418701" lon="-7.5661015510559">
        <ele>428</ele>
        <time>2019-09-11T08:36:11+00:00</time>
      </trkpt>
      <trkpt lat="43.328956604004" lon="-7.5661101341248">
        <ele>428</ele>
        <time>2019-09-11T08:36:12+00:00</time>
      </trkpt>
      <trkpt lat="43.328948974609" lon="-7.5661182403564">
        <ele>428</ele>
        <time>2019-09-11T08:36:13+00:00</time>
      </trkpt>
      <trkpt lat="43.328945159912" lon="-7.5661301612854">
        <ele>428</ele>
        <time>2019-09-11T08:36:14+00:00</time>
      </trkpt>
      <trkpt lat="43.32893371582" lon="-7.5661401748657">
        <ele>428</ele>
        <time>2019-09-11T08:36:15+00:00</time>
      </trkpt>
      <trkpt lat="43.328926086426" lon="-7.5661482810974">
        <ele>427</ele>
        <time>2019-09-11T08:36:16+00:00</time>
      </trkpt>
      <trkpt lat="43.328918457031" lon="-7.5661568641663">
        <ele>427</ele>
        <time>2019-09-11T08:36:17+00:00</time>
      </trkpt>
      <trkpt lat="43.328903198242" lon="-7.5661616325378">
        <ele>427</ele>
        <time>2019-09-11T08:36:18+00:00</time>
      </trkpt>
      <trkpt lat="43.328899383545" lon="-7.5661649703979">
        <ele>427</ele>
        <time>2019-09-11T08:36:19+00:00</time>
      </trkpt>
      <trkpt lat="43.32889175415" lon="-7.5661716461182">
        <ele>427</ele>
        <time>2019-09-11T08:36:20+00:00</time>
      </trkpt>
      <trkpt lat="43.328887939453" lon="-7.5661783218384">
        <ele>427</ele>
        <time>2019-09-11T08:36:21+00:00</time>
      </trkpt>
      <trkpt lat="43.328876495361" lon="-7.5661869049072">
        <ele>426</ele>
        <time>2019-09-11T08:36:22+00:00</time>
      </trkpt>
      <trkpt lat="43.328868865967" lon="-7.5661964416504">
        <ele>426</ele>
        <time>2019-09-11T08:36:23+00:00</time>
      </trkpt>
      <trkpt lat="43.328861236572" lon="-7.5662083625793">
        <ele>426</ele>
        <time>2019-09-11T08:36:24+00:00</time>
      </trkpt>
      <trkpt lat="43.328853607178" lon="-7.5662198066711">
        <ele>426</ele>
        <time>2019-09-11T08:36:25+00:00</time>
      </trkpt>
      <trkpt lat="43.32884979248" lon="-7.5662317276001">
        <ele>426</ele>
        <time>2019-09-11T08:36:26+00:00</time>
      </trkpt>
      <trkpt lat="43.328842163086" lon="-7.5662417411804">
        <ele>426</ele>
        <time>2019-09-11T08:36:27+00:00</time>
      </trkpt>
      <trkpt lat="43.328834533691" lon="-7.5662531852722">
        <ele>426</ele>
        <time>2019-09-11T08:36:28+00:00</time>
      </trkpt>
      <trkpt lat="43.328826904297" lon="-7.5662598609924">
        <ele>426</ele>
        <time>2019-09-11T08:36:29+00:00</time>
      </trkpt>
      <trkpt lat="43.328811645508" lon="-7.5662665367126">
        <ele>426</ele>
        <time>2019-09-11T08:36:30+00:00</time>
      </trkpt>
      <trkpt lat="43.328796386719" lon="-7.566276550293">
        <ele>425</ele>
        <time>2019-09-11T08:36:31+00:00</time>
      </trkpt>
      <trkpt lat="43.328788757324" lon="-7.5662899017334">
        <ele>425</ele>
        <time>2019-09-11T08:36:32+00:00</time>
      </trkpt>
      <trkpt lat="43.328777313232" lon="-7.5663051605225">
        <ele>425</ele>
        <time>2019-09-11T08:36:33+00:00</time>
      </trkpt>
      <trkpt lat="43.328762054443" lon="-7.5663151741028">
        <ele>425</ele>
        <time>2019-09-11T08:36:34+00:00</time>
      </trkpt>
      <trkpt lat="43.328750610352" lon="-7.5663232803345">
        <ele>425</ele>
        <time>2019-09-11T08:36:35+00:00</time>
      </trkpt>
      <trkpt lat="43.328750610352" lon="-7.5663352012634">
        <ele>425</ele>
        <time>2019-09-11T08:36:36+00:00</time>
      </trkpt>
      <trkpt lat="43.328746795654" lon="-7.5663499832153">
        <ele>425</ele>
        <time>2019-09-11T08:36:37+00:00</time>
      </trkpt>
      <trkpt lat="43.328746795654" lon="-7.5663619041443">
        <ele>425</ele>
        <time>2019-09-11T08:36:38+00:00</time>
      </trkpt>
      <trkpt lat="43.328746795654" lon="-7.5663681030273">
        <ele>425</ele>
        <time>2019-09-11T08:36:39+00:00</time>
      </trkpt>
      <trkpt lat="43.328742980957" lon="-7.5663781166077">
        <ele>424</ele>
        <time>2019-09-11T08:36:40+00:00</time>
      </trkpt>
      <trkpt lat="43.32873916626" lon="-7.5663847923279">
        <ele>424</ele>
        <time>2019-09-11T08:36:41+00:00</time>
      </trkpt>
      <trkpt lat="43.32873916626" lon="-7.5663967132568">
        <ele>424</ele>
        <time>2019-09-11T08:36:42+00:00</time>
      </trkpt>
      <trkpt lat="43.328735351562" lon="-7.5664081573486">
        <ele>424</ele>
        <time>2019-09-11T08:36:43+00:00</time>
      </trkpt>
      <trkpt lat="43.328731536865" lon="-7.5664148330688">
        <ele>425</ele>
        <time>2019-09-11T08:36:44+00:00</time>
      </trkpt>
      <trkpt lat="43.328723907471" lon="-7.5664234161377">
        <ele>425</ele>
        <time>2019-09-11T08:36:45+00:00</time>
      </trkpt>
      <trkpt lat="43.328720092773" lon="-7.566433429718">
        <ele>425</ele>
        <time>2019-09-11T08:36:46+00:00</time>
      </trkpt>
      <trkpt lat="43.328716278076" lon="-7.5664434432983">
        <ele>425</ele>
        <time>2019-09-11T08:36:47+00:00</time>
      </trkpt>
      <trkpt lat="43.328708648682" lon="-7.5664534568787">
        <ele>425</ele>
        <time>2019-09-11T08:36:48+00:00</time>
      </trkpt>
      <trkpt lat="43.32869720459" lon="-7.5664682388306">
        <ele>425</ele>
        <time>2019-09-11T08:36:49+00:00</time>
      </trkpt>
      <trkpt lat="43.328689575195" lon="-7.5664749145508">
        <ele>424</ele>
        <time>2019-09-11T08:36:50+00:00</time>
      </trkpt>
      <trkpt lat="43.328678131104" lon="-7.5664868354797">
        <ele>424</ele>
        <time>2019-09-11T08:36:51+00:00</time>
      </trkpt>
      <trkpt lat="43.328666687012" lon="-7.5664968490601">
        <ele>424</ele>
        <time>2019-09-11T08:36:52+00:00</time>
      </trkpt>
      <trkpt lat="43.32865524292" lon="-7.5665102005005">
        <ele>424</ele>
        <time>2019-09-11T08:36:53+00:00</time>
      </trkpt>
      <trkpt lat="43.328643798828" lon="-7.5665235519409">
        <ele>424</ele>
        <time>2019-09-11T08:36:54+00:00</time>
      </trkpt>
      <trkpt lat="43.328628540039" lon="-7.5665349960327">
        <ele>424</ele>
        <time>2019-09-11T08:36:55+00:00</time>
      </trkpt>
      <trkpt lat="43.328620910645" lon="-7.566545009613">
        <ele>424</ele>
        <time>2019-09-11T08:36:56+00:00</time>
      </trkpt>
      <trkpt lat="43.32861328125" lon="-7.5665550231934">
        <ele>424</ele>
        <time>2019-09-11T08:36:57+00:00</time>
      </trkpt>
      <trkpt lat="43.328601837158" lon="-7.5665664672852">
        <ele>424</ele>
        <time>2019-09-11T08:36:58+00:00</time>
      </trkpt>
      <trkpt lat="43.328598022461" lon="-7.5665764808655">
        <ele>424</ele>
        <time>2019-09-11T08:36:59+00:00</time>
      </trkpt>
      <trkpt lat="43.328590393066" lon="-7.5665850639343">
        <ele>424</ele>
        <time>2019-09-11T08:37:00+00:00</time>
      </trkpt>
      <trkpt lat="43.328586578369" lon="-7.566593170166">
        <ele>424</ele>
        <time>2019-09-11T08:37:01+00:00</time>
      </trkpt>
      <trkpt lat="43.328578948975" lon="-7.5666017532349">
        <ele>424</ele>
        <time>2019-09-11T08:37:02+00:00</time>
      </trkpt>
      <trkpt lat="43.32857131958" lon="-7.5666065216064">
        <ele>424</ele>
        <time>2019-09-11T08:37:03+00:00</time>
      </trkpt>
      <trkpt lat="43.328563690186" lon="-7.5666217803955">
        <ele>424</ele>
        <time>2019-09-11T08:37:04+00:00</time>
      </trkpt>
      <trkpt lat="43.328559875488" lon="-7.5666298866272">
        <ele>423</ele>
        <time>2019-09-11T08:37:05+00:00</time>
      </trkpt>
      <trkpt lat="43.328556060791" lon="-7.566638469696">
        <ele>423</ele>
        <time>2019-09-11T08:37:06+00:00</time>
      </trkpt>
      <trkpt lat="43.328548431396" lon="-7.5666518211365">
        <ele>423</ele>
        <time>2019-09-11T08:37:07+00:00</time>
      </trkpt>
      <trkpt lat="43.328540802002" lon="-7.5666632652283">
        <ele>423</ele>
        <time>2019-09-11T08:37:08+00:00</time>
      </trkpt>
      <trkpt lat="43.328533172607" lon="-7.5666718482971">
        <ele>423</ele>
        <time>2019-09-11T08:37:09+00:00</time>
      </trkpt>
      <trkpt lat="43.32852935791" lon="-7.5666785240173">
        <ele>423</ele>
        <time>2019-09-11T08:37:10+00:00</time>
      </trkpt>
      <trkpt lat="43.328525543213" lon="-7.5666885375977">
        <ele>423</ele>
        <time>2019-09-11T08:37:11+00:00</time>
      </trkpt>
      <trkpt lat="43.328517913818" lon="-7.5667018890381">
        <ele>423</ele>
        <time>2019-09-11T08:37:12+00:00</time>
      </trkpt>
      <trkpt lat="43.328506469727" lon="-7.56671667099">
        <ele>423</ele>
        <time>2019-09-11T08:37:13+00:00</time>
      </trkpt>
      <trkpt lat="43.328491210938" lon="-7.5667266845703">
        <ele>423</ele>
        <time>2019-09-11T08:37:14+00:00</time>
      </trkpt>
      <trkpt lat="43.328483581543" lon="-7.5667366981506">
        <ele>423</ele>
        <time>2019-09-11T08:37:15+00:00</time>
      </trkpt>
      <trkpt lat="43.328479766846" lon="-7.566746711731">
        <ele>423</ele>
        <time>2019-09-11T08:37:16+00:00</time>
      </trkpt>
      <trkpt lat="43.328472137451" lon="-7.5667567253113">
        <ele>423</ele>
        <time>2019-09-11T08:37:17+00:00</time>
      </trkpt>
      <trkpt lat="43.328464508057" lon="-7.5667667388916">
        <ele>423</ele>
        <time>2019-09-11T08:37:18+00:00</time>
      </trkpt>
      <trkpt lat="43.328456878662" lon="-7.5667781829834">
        <ele>423</ele>
        <time>2019-09-11T08:37:19+00:00</time>
      </trkpt>
      <trkpt lat="43.32844543457" lon="-7.5667901039124">
        <ele>423</ele>
        <time>2019-09-11T08:37:20+00:00</time>
      </trkpt>
      <trkpt lat="43.328441619873" lon="-7.5668015480042">
        <ele>423</ele>
        <time>2019-09-11T08:37:21+00:00</time>
      </trkpt>
      <trkpt lat="43.328433990479" lon="-7.566810131073">
        <ele>422</ele>
        <time>2019-09-11T08:37:22+00:00</time>
      </trkpt>
      <trkpt lat="43.328426361084" lon="-7.5668168067932">
        <ele>422</ele>
        <time>2019-09-11T08:37:23+00:00</time>
      </trkpt>
      <trkpt lat="43.328422546387" lon="-7.5668301582336">
        <ele>422</ele>
        <time>2019-09-11T08:37:24+00:00</time>
      </trkpt>
      <trkpt lat="43.328414916992" lon="-7.5668382644653">
        <ele>422</ele>
        <time>2019-09-11T08:37:25+00:00</time>
      </trkpt>
      <trkpt lat="43.3284034729" lon="-7.5668482780457">
        <ele>422</ele>
        <time>2019-09-11T08:37:26+00:00</time>
      </trkpt>
      <trkpt lat="43.328399658203" lon="-7.566858291626">
        <ele>422</ele>
        <time>2019-09-11T08:37:27+00:00</time>
      </trkpt>
      <trkpt lat="43.328395843506" lon="-7.5668702125549">
        <ele>422</ele>
        <time>2019-09-11T08:37:28+00:00</time>
      </trkpt>
      <trkpt lat="43.328388214111" lon="-7.5668802261353">
        <ele>422</ele>
        <time>2019-09-11T08:37:29+00:00</time>
      </trkpt>
      <trkpt lat="43.328384399414" lon="-7.5668931007385">
        <ele>422</ele>
        <time>2019-09-11T08:37:30+00:00</time>
      </trkpt>
      <trkpt lat="43.32837677002" lon="-7.5668997764587">
        <ele>422</ele>
        <time>2019-09-11T08:37:31+00:00</time>
      </trkpt>
      <trkpt lat="43.328372955322" lon="-7.5669097900391">
        <ele>422</ele>
        <time>2019-09-11T08:37:32+00:00</time>
      </trkpt>
      <trkpt lat="43.328357696533" lon="-7.566921710968">
        <ele>422</ele>
        <time>2019-09-11T08:37:33+00:00</time>
      </trkpt>
      <trkpt lat="43.328350067139" lon="-7.5669298171997">
        <ele>422</ele>
        <time>2019-09-11T08:37:34+00:00</time>
      </trkpt>
      <trkpt lat="43.328346252441" lon="-7.56693983078">
        <ele>421</ele>
        <time>2019-09-11T08:37:35+00:00</time>
      </trkpt>
      <trkpt lat="43.328342437744" lon="-7.5669465065002">
        <ele>421</ele>
        <time>2019-09-11T08:37:36+00:00</time>
      </trkpt>
      <trkpt lat="43.328342437744" lon="-7.5669550895691">
        <ele>421</ele>
        <time>2019-09-11T08:37:37+00:00</time>
      </trkpt>
      <trkpt lat="43.32833480835" lon="-7.5669651031494">
        <ele>421</ele>
        <time>2019-09-11T08:37:38+00:00</time>
      </trkpt>
      <trkpt lat="43.328327178955" lon="-7.5669684410095">
        <ele>421</ele>
        <time>2019-09-11T08:37:39+00:00</time>
      </trkpt>
      <trkpt lat="43.328319549561" lon="-7.5669751167297">
        <ele>421</ele>
        <time>2019-09-11T08:37:40+00:00</time>
      </trkpt>
      <trkpt lat="43.328315734863" lon="-7.5669851303101">
        <ele>421</ele>
        <time>2019-09-11T08:37:41+00:00</time>
      </trkpt>
      <trkpt lat="43.328308105469" lon="-7.5669965744019">
        <ele>421</ele>
        <time>2019-09-11T08:37:42+00:00</time>
      </trkpt>
      <trkpt lat="43.328308105469" lon="-7.5670118331909">
        <ele>420</ele>
        <time>2019-09-11T08:37:43+00:00</time>
      </trkpt>
      <trkpt lat="43.328300476074" lon="-7.567033290863">
        <ele>420</ele>
        <time>2019-09-11T08:37:44+00:00</time>
      </trkpt>
      <trkpt lat="43.328296661377" lon="-7.5670485496521">
        <ele>420</ele>
        <time>2019-09-11T08:37:45+00:00</time>
      </trkpt>
      <trkpt lat="43.328285217285" lon="-7.5670619010925">
        <ele>420</ele>
        <time>2019-09-11T08:37:46+00:00</time>
      </trkpt>
      <trkpt lat="43.328285217285" lon="-7.5670714378357">
        <ele>419</ele>
        <time>2019-09-11T08:37:47+00:00</time>
      </trkpt>
      <trkpt lat="43.328277587891" lon="-7.567081451416">
        <ele>419</ele>
        <time>2019-09-11T08:37:48+00:00</time>
      </trkpt>
      <trkpt lat="43.328269958496" lon="-7.567093372345">
        <ele>419</ele>
        <time>2019-09-11T08:37:49+00:00</time>
      </trkpt>
      <trkpt lat="43.328266143799" lon="-7.5671081542969">
        <ele>419</ele>
        <time>2019-09-11T08:37:50+00:00</time>
      </trkpt>
      <trkpt lat="43.328266143799" lon="-7.5671215057373">
        <ele>419</ele>
        <time>2019-09-11T08:37:51+00:00</time>
      </trkpt>
      <trkpt lat="43.328262329102" lon="-7.5671334266663">
        <ele>419</ele>
        <time>2019-09-11T08:37:52+00:00</time>
      </trkpt>
      <trkpt lat="43.328262329102" lon="-7.5671448707581">
        <ele>419</ele>
        <time>2019-09-11T08:37:53+00:00</time>
      </trkpt>
      <trkpt lat="43.328266143799" lon="-7.5671534538269">
        <ele>418</ele>
        <time>2019-09-11T08:37:54+00:00</time>
      </trkpt>
      <trkpt lat="43.328266143799" lon="-7.5671615600586">
        <ele>418</ele>
        <time>2019-09-11T08:37:55+00:00</time>
      </trkpt>
      <trkpt lat="43.328258514404" lon="-7.5671715736389">
        <ele>418</ele>
        <time>2019-09-11T08:37:56+00:00</time>
      </trkpt>
      <trkpt lat="43.328254699707" lon="-7.5671834945679">
        <ele>418</ele>
        <time>2019-09-11T08:37:57+00:00</time>
      </trkpt>
      <trkpt lat="43.32825088501" lon="-7.5671935081482">
        <ele>418</ele>
        <time>2019-09-11T08:37:58+00:00</time>
      </trkpt>
      <trkpt lat="43.328239440918" lon="-7.5672001838684">
        <ele>418</ele>
        <time>2019-09-11T08:37:59+00:00</time>
      </trkpt>
      <trkpt lat="43.328231811523" lon="-7.56720495224">
        <ele>418</ele>
        <time>2019-09-11T08:38:00+00:00</time>
      </trkpt>
      <trkpt lat="43.328227996826" lon="-7.5672116279602">
        <ele>418</ele>
        <time>2019-09-11T08:38:01+00:00</time>
      </trkpt>
      <trkpt lat="43.328212738037" lon="-7.5672183036804">
        <ele>417</ele>
        <time>2019-09-11T08:38:02+00:00</time>
      </trkpt>
      <trkpt lat="43.328197479248" lon="-7.5672235488892">
        <ele>417</ele>
        <time>2019-09-11T08:38:03+00:00</time>
      </trkpt>
      <trkpt lat="43.328189849854" lon="-7.567234992981">
        <ele>417</ele>
        <time>2019-09-11T08:38:04+00:00</time>
      </trkpt>
      <trkpt lat="43.328178405762" lon="-7.5672464370728">
        <ele>417</ele>
        <time>2019-09-11T08:38:05+00:00</time>
      </trkpt>
      <trkpt lat="43.32816696167" lon="-7.5672583580017">
        <ele>417</ele>
        <time>2019-09-11T08:38:06+00:00</time>
      </trkpt>
      <trkpt lat="43.328159332275" lon="-7.567268371582">
        <ele>416</ele>
        <time>2019-09-11T08:38:07+00:00</time>
      </trkpt>
      <trkpt lat="43.328151702881" lon="-7.5672783851624">
        <ele>416</ele>
        <time>2019-09-11T08:38:08+00:00</time>
      </trkpt>
      <trkpt lat="43.328144073486" lon="-7.5672850608826">
        <ele>416</ele>
        <time>2019-09-11T08:38:09+00:00</time>
      </trkpt>
      <trkpt lat="43.328136444092" lon="-7.5672965049744">
        <ele>416</ele>
        <time>2019-09-11T08:38:10+00:00</time>
      </trkpt>
      <trkpt lat="43.328128814697" lon="-7.5673098564148">
        <ele>416</ele>
        <time>2019-09-11T08:38:11+00:00</time>
      </trkpt>
      <trkpt lat="43.328125" lon="-7.5673198699951">
        <ele>416</ele>
        <time>2019-09-11T08:38:12+00:00</time>
      </trkpt>
      <trkpt lat="43.328117370605" lon="-7.5673317909241">
        <ele>416</ele>
        <time>2019-09-11T08:38:13+00:00</time>
      </trkpt>
      <trkpt lat="43.328105926514" lon="-7.5673484802246">
        <ele>416</ele>
        <time>2019-09-11T08:38:14+00:00</time>
      </trkpt>
      <trkpt lat="43.328094482422" lon="-7.5673584938049">
        <ele>416</ele>
        <time>2019-09-11T08:38:15+00:00</time>
      </trkpt>
      <trkpt lat="43.328086853027" lon="-7.5673685073853">
        <ele>415</ele>
        <time>2019-09-11T08:38:16+00:00</time>
      </trkpt>
      <trkpt lat="43.328075408936" lon="-7.5673832893372">
        <ele>415</ele>
        <time>2019-09-11T08:38:17+00:00</time>
      </trkpt>
      <trkpt lat="43.328071594238" lon="-7.5673952102661">
        <ele>415</ele>
        <time>2019-09-11T08:38:18+00:00</time>
      </trkpt>
      <trkpt lat="43.328063964844" lon="-7.5673999786377">
        <ele>415</ele>
        <time>2019-09-11T08:38:19+00:00</time>
      </trkpt>
      <trkpt lat="43.328056335449" lon="-7.5674033164978">
        <ele>415</ele>
        <time>2019-09-11T08:38:20+00:00</time>
      </trkpt>
      <trkpt lat="43.328044891357" lon="-7.5674133300781">
        <ele>415</ele>
        <time>2019-09-11T08:38:21+00:00</time>
      </trkpt>
      <trkpt lat="43.328037261963" lon="-7.5674166679382">
        <ele>415</ele>
        <time>2019-09-11T08:38:22+00:00</time>
      </trkpt>
      <trkpt lat="43.328029632568" lon="-7.5674214363098">
        <ele>415</ele>
        <time>2019-09-11T08:38:23+00:00</time>
      </trkpt>
      <trkpt lat="43.328018188477" lon="-7.5674300193787">
        <ele>415</ele>
        <time>2019-09-11T08:38:24+00:00</time>
      </trkpt>
      <trkpt lat="43.328010559082" lon="-7.5674381256104">
        <ele>415</ele>
        <time>2019-09-11T08:38:25+00:00</time>
      </trkpt>
      <trkpt lat="43.328006744385" lon="-7.5674448013306">
        <ele>414</ele>
        <time>2019-09-11T08:38:26+00:00</time>
      </trkpt>
      <trkpt lat="43.328002929688" lon="-7.5674533843994">
        <ele>414</ele>
        <time>2019-09-11T08:38:27+00:00</time>
      </trkpt>
      <trkpt lat="43.327991485596" lon="-7.5674633979797">
        <ele>414</ele>
        <time>2019-09-11T08:38:28+00:00</time>
      </trkpt>
      <trkpt lat="43.327987670898" lon="-7.5674700737">
        <ele>414</ele>
        <time>2019-09-11T08:38:29+00:00</time>
      </trkpt>
      <trkpt lat="43.327972412109" lon="-7.5674734115601">
        <ele>414</ele>
        <time>2019-09-11T08:38:30+00:00</time>
      </trkpt>
      <trkpt lat="43.32795715332" lon="-7.5674815177917">
        <ele>414</ele>
        <time>2019-09-11T08:38:31+00:00</time>
      </trkpt>
      <trkpt lat="43.327941894531" lon="-7.5674867630005">
        <ele>414</ele>
        <time>2019-09-11T08:38:32+00:00</time>
      </trkpt>
      <trkpt lat="43.327938079834" lon="-7.5674934387207">
        <ele>414</ele>
        <time>2019-09-11T08:38:33+00:00</time>
      </trkpt>
      <trkpt lat="43.327926635742" lon="-7.5675001144409">
        <ele>414</ele>
        <time>2019-09-11T08:38:34+00:00</time>
      </trkpt>
      <trkpt lat="43.32791519165" lon="-7.5675082206726">
        <ele>414</ele>
        <time>2019-09-11T08:38:35+00:00</time>
      </trkpt>
      <trkpt lat="43.327907562256" lon="-7.5675168037415">
        <ele>413</ele>
        <time>2019-09-11T08:38:36+00:00</time>
      </trkpt>
      <trkpt lat="43.327899932861" lon="-7.5675249099731">
        <ele>413</ele>
        <time>2019-09-11T08:38:37+00:00</time>
      </trkpt>
      <trkpt lat="43.32788848877" lon="-7.5675368309021">
        <ele>413</ele>
        <time>2019-09-11T08:38:38+00:00</time>
      </trkpt>
      <trkpt lat="43.327877044678" lon="-7.5675435066223">
        <ele>413</ele>
        <time>2019-09-11T08:38:39+00:00</time>
      </trkpt>
      <trkpt lat="43.327861785889" lon="-7.567563533783">
        <ele>413</ele>
        <time>2019-09-11T08:38:41+00:00</time>
      </trkpt>
      <trkpt lat="43.327850341797" lon="-7.5675702095032">
        <ele>413</ele>
        <time>2019-09-11T08:38:42+00:00</time>
      </trkpt>
      <trkpt lat="43.327842712402" lon="-7.5675768852234">
        <ele>412</ele>
        <time>2019-09-11T08:38:43+00:00</time>
      </trkpt>
      <trkpt lat="43.327838897705" lon="-7.5675835609436">
        <ele>412</ele>
        <time>2019-09-11T08:38:44+00:00</time>
      </trkpt>
      <trkpt lat="43.327831268311" lon="-7.5675916671753">
        <ele>412</ele>
        <time>2019-09-11T08:38:45+00:00</time>
      </trkpt>
      <trkpt lat="43.327819824219" lon="-7.567599773407">
        <ele>412</ele>
        <time>2019-09-11T08:38:46+00:00</time>
      </trkpt>
      <trkpt lat="43.327808380127" lon="-7.5676097869873">
        <ele>412</ele>
        <time>2019-09-11T08:38:47+00:00</time>
      </trkpt>
      <trkpt lat="43.327800750732" lon="-7.5676198005676">
        <ele>412</ele>
        <time>2019-09-11T08:38:48+00:00</time>
      </trkpt>
      <trkpt lat="43.327793121338" lon="-7.5676283836365">
        <ele>411</ele>
        <time>2019-09-11T08:38:49+00:00</time>
      </trkpt>
      <trkpt lat="43.327781677246" lon="-7.5676383972168">
        <ele>411</ele>
        <time>2019-09-11T08:38:50+00:00</time>
      </trkpt>
      <trkpt lat="43.327770233154" lon="-7.5676465034485">
        <ele>411</ele>
        <time>2019-09-11T08:38:51+00:00</time>
      </trkpt>
      <trkpt lat="43.327754974365" lon="-7.5676550865173">
        <ele>411</ele>
        <time>2019-09-11T08:38:52+00:00</time>
      </trkpt>
      <trkpt lat="43.327751159668" lon="-7.567663192749">
        <ele>411</ele>
        <time>2019-09-11T08:38:53+00:00</time>
      </trkpt>
      <trkpt lat="43.327735900879" lon="-7.5676765441895">
        <ele>411</ele>
        <time>2019-09-11T08:38:54+00:00</time>
      </trkpt>
      <trkpt lat="43.32772064209" lon="-7.5676851272583">
        <ele>411</ele>
        <time>2019-09-11T08:38:55+00:00</time>
      </trkpt>
      <trkpt lat="43.327716827393" lon="-7.5676918029785">
        <ele>411</ele>
        <time>2019-09-11T08:38:56+00:00</time>
      </trkpt>
      <trkpt lat="43.327693939209" lon="-7.5677199363708">
        <ele>411</ele>
        <time>2019-09-11T08:38:57+00:00</time>
      </trkpt>
      <trkpt lat="43.327690124512" lon="-7.5677251815796">
        <ele>411</ele>
        <time>2019-09-11T08:38:58+00:00</time>
      </trkpt>
      <trkpt lat="43.327686309814" lon="-7.5677266120911">
        <ele>411</ele>
        <time>2019-09-11T08:38:59+00:00</time>
      </trkpt>
      <trkpt lat="43.32767868042" lon="-7.5677266120911">
        <ele>411</ele>
        <time>2019-09-11T08:39:00+00:00</time>
      </trkpt>
      <trkpt lat="43.327674865723" lon="-7.5677251815796">
        <ele>411</ele>
        <time>2019-09-11T08:39:01+00:00</time>
      </trkpt>
      <trkpt lat="43.327667236328" lon="-7.5677199363708">
        <ele>411</ele>
        <time>2019-09-11T08:39:02+00:00</time>
      </trkpt>
      <trkpt lat="43.327663421631" lon="-7.5677165985107">
        <ele>411</ele>
        <time>2019-09-11T08:39:03+00:00</time>
      </trkpt>
      <trkpt lat="43.327667236328" lon="-7.5677185058594">
        <ele>411</ele>
        <time>2019-09-11T08:39:04+00:00</time>
      </trkpt>
      <trkpt lat="43.327667236328" lon="-7.567723274231">
        <ele>411</ele>
        <time>2019-09-11T08:39:05+00:00</time>
      </trkpt>
      <trkpt lat="43.327667236328" lon="-7.5677266120911">
        <ele>411</ele>
        <time>2019-09-11T08:39:06+00:00</time>
      </trkpt>
      <trkpt lat="43.327663421631" lon="-7.5677285194397">
        <ele>411</ele>
        <time>2019-09-11T08:39:07+00:00</time>
      </trkpt>
      <trkpt lat="43.327659606934" lon="-7.5677318572998">
        <ele>411</ele>
        <time>2019-09-11T08:39:08+00:00</time>
      </trkpt>
      <trkpt lat="43.327659606934" lon="-7.5677418708801">
        <ele>411</ele>
        <time>2019-09-11T08:39:09+00:00</time>
      </trkpt>
      <trkpt lat="43.327655792236" lon="-7.5677332878113">
        <ele>411</ele>
        <time>2019-09-11T08:39:10+00:00</time>
      </trkpt>
      <trkpt lat="43.327659606934" lon="-7.5677351951599">
        <ele>411</ele>
        <time>2019-09-11T08:39:11+00:00</time>
      </trkpt>
      <trkpt lat="43.327659606934" lon="-7.5677351951599">
        <ele>411</ele>
        <time>2019-09-11T08:39:12+00:00</time>
      </trkpt>
      <trkpt lat="43.327659606934" lon="-7.5677351951599">
        <ele>411</ele>
        <time>2019-09-11T08:39:13+00:00</time>
      </trkpt>
      <trkpt lat="43.327659606934" lon="-7.5677585601807">
        <ele>411</ele>
        <time>2019-09-11T08:39:14+00:00</time>
      </trkpt>
      <trkpt lat="43.327655792236" lon="-7.5677680969238">
        <ele>411</ele>
        <time>2019-09-11T08:39:15+00:00</time>
      </trkpt>
      <trkpt lat="43.327655792236" lon="-7.5677814483643">
        <ele>411</ele>
        <time>2019-09-11T08:39:16+00:00</time>
      </trkpt>
      <trkpt lat="43.327655792236" lon="-7.5677947998047">
        <ele>411</ele>
        <time>2019-09-11T08:39:17+00:00</time>
      </trkpt>
      <trkpt lat="43.327655792236" lon="-7.5678081512451">
        <ele>411</ele>
        <time>2019-09-11T08:39:18+00:00</time>
      </trkpt>
      <trkpt lat="43.327648162842" lon="-7.5678200721741">
        <ele>411</ele>
        <time>2019-09-11T08:39:19+00:00</time>
      </trkpt>
      <trkpt lat="43.327648162842" lon="-7.5678334236145">
        <ele>410</ele>
        <time>2019-09-11T08:39:20+00:00</time>
      </trkpt>
      <trkpt lat="43.327644348145" lon="-7.5678448677063">
        <ele>410</ele>
        <time>2019-09-11T08:39:21+00:00</time>
      </trkpt>
      <trkpt lat="43.32763671875" lon="-7.5678548812866">
        <ele>410</ele>
        <time>2019-09-11T08:39:22+00:00</time>
      </trkpt>
      <trkpt lat="43.32763671875" lon="-7.5678668022156">
        <ele>410</ele>
        <time>2019-09-11T08:39:23+00:00</time>
      </trkpt>
      <trkpt lat="43.327632904053" lon="-7.5678768157959">
        <ele>410</ele>
        <time>2019-09-11T08:39:24+00:00</time>
      </trkpt>
      <trkpt lat="43.327632904053" lon="-7.5678834915161">
        <ele>410</ele>
        <time>2019-09-11T08:39:25+00:00</time>
      </trkpt>
      <trkpt lat="43.327629089355" lon="-7.5678949356079">
        <ele>410</ele>
        <time>2019-09-11T08:39:26+00:00</time>
      </trkpt>
      <trkpt lat="43.327621459961" lon="-7.5679082870483">
        <ele>410</ele>
        <time>2019-09-11T08:39:27+00:00</time>
      </trkpt>
      <trkpt lat="43.327617645264" lon="-7.5679202079773">
        <ele>410</ele>
        <time>2019-09-11T08:39:28+00:00</time>
      </trkpt>
      <trkpt lat="43.327613830566" lon="-7.5679302215576">
        <ele>410</ele>
        <time>2019-09-11T08:39:29+00:00</time>
      </trkpt>
      <trkpt lat="43.327606201172" lon="-7.5679402351379">
        <ele>410</ele>
        <time>2019-09-11T08:39:30+00:00</time>
      </trkpt>
      <trkpt lat="43.327598571777" lon="-7.5679497718811">
        <ele>410</ele>
        <time>2019-09-11T08:39:31+00:00</time>
      </trkpt>
      <trkpt lat="43.327590942383" lon="-7.5679631233215">
        <ele>410</ele>
        <time>2019-09-11T08:39:32+00:00</time>
      </trkpt>
      <trkpt lat="43.327583312988" lon="-7.5679750442505">
        <ele>410</ele>
        <time>2019-09-11T08:39:33+00:00</time>
      </trkpt>
      <trkpt lat="43.327579498291" lon="-7.5679864883423">
        <ele>410</ele>
        <time>2019-09-11T08:39:34+00:00</time>
      </trkpt>
      <trkpt lat="43.327571868896" lon="-7.5679984092712">
        <ele>410</ele>
        <time>2019-09-11T08:39:35+00:00</time>
      </trkpt>
      <trkpt lat="43.327571868896" lon="-7.5680084228516">
        <ele>410</ele>
        <time>2019-09-11T08:39:36+00:00</time>
      </trkpt>
      <trkpt lat="43.327564239502" lon="-7.5680184364319">
        <ele>410</ele>
        <time>2019-09-11T08:39:37+00:00</time>
      </trkpt>
      <trkpt lat="43.327560424805" lon="-7.5680265426636">
        <ele>410</ele>
        <time>2019-09-11T08:39:38+00:00</time>
      </trkpt>
      <trkpt lat="43.32755279541" lon="-7.5680351257324">
        <ele>409</ele>
        <time>2019-09-11T08:39:39+00:00</time>
      </trkpt>
      <trkpt lat="43.327545166016" lon="-7.5680451393127">
        <ele>409</ele>
        <time>2019-09-11T08:39:40+00:00</time>
      </trkpt>
      <trkpt lat="43.327537536621" lon="-7.5680499076843">
        <ele>409</ele>
        <time>2019-09-11T08:39:41+00:00</time>
      </trkpt>
      <trkpt lat="43.327537536621" lon="-7.5680599212646">
        <ele>409</ele>
        <time>2019-09-11T08:39:42+00:00</time>
      </trkpt>
      <trkpt lat="43.327529907227" lon="-7.5680685043335">
        <ele>409</ele>
        <time>2019-09-11T08:39:43+00:00</time>
      </trkpt>
      <trkpt lat="43.327526092529" lon="-7.5680766105652">
        <ele>409</ele>
        <time>2019-09-11T08:39:44+00:00</time>
      </trkpt>
      <trkpt lat="43.327526092529" lon="-7.5680832862854">
        <ele>409</ele>
        <time>2019-09-11T08:39:45+00:00</time>
      </trkpt>
      <trkpt lat="43.327522277832" lon="-7.5680966377258">
        <ele>409</ele>
        <time>2019-09-11T08:39:46+00:00</time>
      </trkpt>
      <trkpt lat="43.327526092529" lon="-7.5681099891663">
        <ele>409</ele>
        <time>2019-09-11T08:39:47+00:00</time>
      </trkpt>
      <trkpt lat="43.327522277832" lon="-7.5681247711182">
        <ele>409</ele>
        <time>2019-09-11T08:39:48+00:00</time>
      </trkpt>
      <trkpt lat="43.327518463135" lon="-7.5681381225586">
        <ele>409</ele>
        <time>2019-09-11T08:39:49+00:00</time>
      </trkpt>
      <trkpt lat="43.327514648438" lon="-7.5681500434875">
        <ele>409</ele>
        <time>2019-09-11T08:39:50+00:00</time>
      </trkpt>
      <trkpt lat="43.32751083374" lon="-7.568163394928">
        <ele>409</ele>
        <time>2019-09-11T08:39:51+00:00</time>
      </trkpt>
      <trkpt lat="43.327507019043" lon="-7.5681800842285">
        <ele>410</ele>
        <time>2019-09-11T08:39:52+00:00</time>
      </trkpt>
      <trkpt lat="43.327503204346" lon="-7.5681900978088">
        <ele>410</ele>
        <time>2019-09-11T08:39:53+00:00</time>
      </trkpt>
      <trkpt lat="43.327503204346" lon="-7.5682015419006">
        <ele>410</ele>
        <time>2019-09-11T08:39:54+00:00</time>
      </trkpt>
      <trkpt lat="43.327499389648" lon="-7.5682168006897">
        <ele>410</ele>
        <time>2019-09-11T08:39:55+00:00</time>
      </trkpt>
      <trkpt lat="43.327499389648" lon="-7.5682334899902">
        <ele>410</ele>
        <time>2019-09-11T08:39:56+00:00</time>
      </trkpt>
      <trkpt lat="43.327499389648" lon="-7.5682482719421">
        <ele>410</ele>
        <time>2019-09-11T08:39:57+00:00</time>
      </trkpt>
      <trkpt lat="43.327503204346" lon="-7.5682668685913">
        <ele>410</ele>
        <time>2019-09-11T08:39:58+00:00</time>
      </trkpt>
      <trkpt lat="43.327503204346" lon="-7.5682816505432">
        <ele>410</ele>
        <time>2019-09-11T08:39:59+00:00</time>
      </trkpt>
      <trkpt lat="43.327499389648" lon="-7.5682950019836">
        <ele>410</ele>
        <time>2019-09-11T08:40:00+00:00</time>
      </trkpt>
      <trkpt lat="43.327499389648" lon="-7.5683116912842">
        <ele>410</ele>
        <time>2019-09-11T08:40:01+00:00</time>
      </trkpt>
      <trkpt lat="43.327499389648" lon="-7.5683283805847">
        <ele>410</ele>
        <time>2019-09-11T08:40:02+00:00</time>
      </trkpt>
      <trkpt lat="43.327499389648" lon="-7.5683450698853">
        <ele>410</ele>
        <time>2019-09-11T08:40:03+00:00</time>
      </trkpt>
      <trkpt lat="43.327503204346" lon="-7.5683617591858">
        <ele>410</ele>
        <time>2019-09-11T08:40:04+00:00</time>
      </trkpt>
      <trkpt lat="43.327503204346" lon="-7.5683751106262">
        <ele>410</ele>
        <time>2019-09-11T08:40:05+00:00</time>
      </trkpt>
      <trkpt lat="43.327503204346" lon="-7.5683932304382">
        <ele>410</ele>
        <time>2019-09-11T08:40:06+00:00</time>
      </trkpt>
      <trkpt lat="43.327499389648" lon="-7.5684099197388">
        <ele>410</ele>
        <time>2019-09-11T08:40:07+00:00</time>
      </trkpt>
      <trkpt lat="43.327503204346" lon="-7.5684266090393">
        <ele>411</ele>
        <time>2019-09-11T08:40:08+00:00</time>
      </trkpt>
      <trkpt lat="43.327499389648" lon="-7.5684432983398">
        <ele>411</ele>
        <time>2019-09-11T08:40:09+00:00</time>
      </trkpt>
      <trkpt lat="43.327499389648" lon="-7.5684533119202">
        <ele>411</ele>
        <time>2019-09-11T08:40:10+00:00</time>
      </trkpt>
      <trkpt lat="43.327499389648" lon="-7.5684652328491">
        <ele>411</ele>
        <time>2019-09-11T08:40:11+00:00</time>
      </trkpt>
      <trkpt lat="43.327491760254" lon="-7.5684833526611">
        <ele>411</ele>
        <time>2019-09-11T08:40:12+00:00</time>
      </trkpt>
      <trkpt lat="43.327487945557" lon="-7.568498134613">
        <ele>411</ele>
        <time>2019-09-11T08:40:13+00:00</time>
      </trkpt>
      <trkpt lat="43.327480316162" lon="-7.568510055542">
        <ele>411</ele>
        <time>2019-09-11T08:40:14+00:00</time>
      </trkpt>
      <trkpt lat="43.327480316162" lon="-7.5685267448425">
        <ele>411</ele>
        <time>2019-09-11T08:40:15+00:00</time>
      </trkpt>
      <trkpt lat="43.327476501465" lon="-7.5685434341431">
        <ele>411</ele>
        <time>2019-09-11T08:40:16+00:00</time>
      </trkpt>
      <trkpt lat="43.327472686768" lon="-7.5685615539551">
        <ele>411</ele>
        <time>2019-09-11T08:40:17+00:00</time>
      </trkpt>
      <trkpt lat="43.32746887207" lon="-7.5685749053955">
        <ele>411</ele>
        <time>2019-09-11T08:40:18+00:00</time>
      </trkpt>
      <trkpt lat="43.327465057373" lon="-7.5685868263245">
        <ele>411</ele>
        <time>2019-09-11T08:40:19+00:00</time>
      </trkpt>
      <trkpt lat="43.327465057373" lon="-7.5685982704163">
        <ele>411</ele>
        <time>2019-09-11T08:40:20+00:00</time>
      </trkpt>
      <trkpt lat="43.327457427979" lon="-7.5686101913452">
        <ele>411</ele>
        <time>2019-09-11T08:40:21+00:00</time>
      </trkpt>
      <trkpt lat="43.327457427979" lon="-7.5686249732971">
        <ele>412</ele>
        <time>2019-09-11T08:40:22+00:00</time>
      </trkpt>
      <trkpt lat="43.327449798584" lon="-7.5686383247375">
        <ele>412</ele>
        <time>2019-09-11T08:40:23+00:00</time>
      </trkpt>
      <trkpt lat="43.327445983887" lon="-7.5686497688293">
        <ele>412</ele>
        <time>2019-09-11T08:40:24+00:00</time>
      </trkpt>
      <trkpt lat="43.327438354492" lon="-7.5686664581299">
        <ele>412</ele>
        <time>2019-09-11T08:40:25+00:00</time>
      </trkpt>
      <trkpt lat="43.327434539795" lon="-7.5686798095703">
        <ele>412</ele>
        <time>2019-09-11T08:40:26+00:00</time>
      </trkpt>
      <trkpt lat="43.327434539795" lon="-7.5686864852905">
        <ele>412</ele>
        <time>2019-09-11T08:40:27+00:00</time>
      </trkpt>
      <trkpt lat="43.3274269104" lon="-7.5686984062195">
        <ele>412</ele>
        <time>2019-09-11T08:40:28+00:00</time>
      </trkpt>
      <trkpt lat="43.327423095703" lon="-7.5687065124512">
        <ele>412</ele>
        <time>2019-09-11T08:40:29+00:00</time>
      </trkpt>
      <trkpt lat="43.327419281006" lon="-7.5687198638916">
        <ele>412</ele>
        <time>2019-09-11T08:40:30+00:00</time>
      </trkpt>
      <trkpt lat="43.327419281006" lon="-7.5687298774719">
        <ele>412</ele>
        <time>2019-09-11T08:40:31+00:00</time>
      </trkpt>
      <trkpt lat="43.327419281006" lon="-7.5687417984009">
        <ele>413</ele>
        <time>2019-09-11T08:40:32+00:00</time>
      </trkpt>
      <trkpt lat="43.327415466309" lon="-7.5687532424927">
        <ele>413</ele>
        <time>2019-09-11T08:40:33+00:00</time>
      </trkpt>
      <trkpt lat="43.327415466309" lon="-7.5687651634216">
        <ele>413</ele>
        <time>2019-09-11T08:40:34+00:00</time>
      </trkpt>
      <trkpt lat="43.327411651611" lon="-7.5687766075134">
        <ele>413</ele>
        <time>2019-09-11T08:40:35+00:00</time>
      </trkpt>
      <trkpt lat="43.327415466309" lon="-7.5687899589539">
        <ele>413</ele>
        <time>2019-09-11T08:40:36+00:00</time>
      </trkpt>
      <trkpt lat="43.327415466309" lon="-7.5687999725342">
        <ele>413</ele>
        <time>2019-09-11T08:40:37+00:00</time>
      </trkpt>
      <trkpt lat="43.327419281006" lon="-7.5688118934631">
        <ele>413</ele>
        <time>2019-09-11T08:40:38+00:00</time>
      </trkpt>
      <trkpt lat="43.327415466309" lon="-7.5688247680664">
        <ele>413</ele>
        <time>2019-09-11T08:40:39+00:00</time>
      </trkpt>
      <trkpt lat="43.327411651611" lon="-7.5688381195068">
        <ele>413</ele>
        <time>2019-09-11T08:40:40+00:00</time>
      </trkpt>
      <trkpt lat="43.327407836914" lon="-7.5688481330872">
        <ele>413</ele>
        <time>2019-09-11T08:40:41+00:00</time>
      </trkpt>
      <trkpt lat="43.32740020752" lon="-7.5688581466675">
        <ele>413</ele>
        <time>2019-09-11T08:40:42+00:00</time>
      </trkpt>
      <trkpt lat="43.327396392822" lon="-7.5688667297363">
        <ele>413</ele>
        <time>2019-09-11T08:40:43+00:00</time>
      </trkpt>
      <trkpt lat="43.327396392822" lon="-7.5688800811768">
        <ele>413</ele>
        <time>2019-09-11T08:40:44+00:00</time>
      </trkpt>
      <trkpt lat="43.327392578125" lon="-7.5688934326172">
        <ele>413</ele>
        <time>2019-09-11T08:40:45+00:00</time>
      </trkpt>
      <trkpt lat="43.327388763428" lon="-7.5689082145691">
        <ele>413</ele>
        <time>2019-09-11T08:40:46+00:00</time>
      </trkpt>
      <trkpt lat="43.327392578125" lon="-7.5689215660095">
        <ele>413</ele>
        <time>2019-09-11T08:40:47+00:00</time>
      </trkpt>
      <trkpt lat="43.327388763428" lon="-7.5689334869385">
        <ele>413</ele>
        <time>2019-09-11T08:40:48+00:00</time>
      </trkpt>
      <trkpt lat="43.327392578125" lon="-7.5689435005188">
        <ele>413</ele>
        <time>2019-09-11T08:40:49+00:00</time>
      </trkpt>
      <trkpt lat="43.327388763428" lon="-7.5689568519592">
        <ele>413</ele>
        <time>2019-09-11T08:40:50+00:00</time>
      </trkpt>
      <trkpt lat="43.32738494873" lon="-7.568968296051">
        <ele>413</ele>
        <time>2019-09-11T08:40:51+00:00</time>
      </trkpt>
      <trkpt lat="43.327377319336" lon="-7.5689849853516">
        <ele>413</ele>
        <time>2019-09-11T08:40:52+00:00</time>
      </trkpt>
      <trkpt lat="43.327381134033" lon="-7.5690031051636">
        <ele>413</ele>
        <time>2019-09-11T08:40:53+00:00</time>
      </trkpt>
      <trkpt lat="43.327373504639" lon="-7.5690197944641">
        <ele>413</ele>
        <time>2019-09-11T08:40:54+00:00</time>
      </trkpt>
      <trkpt lat="43.327365875244" lon="-7.5690331459045">
        <ele>413</ele>
        <time>2019-09-11T08:40:55+00:00</time>
      </trkpt>
      <trkpt lat="43.327362060547" lon="-7.569046497345">
        <ele>413</ele>
        <time>2019-09-11T08:40:56+00:00</time>
      </trkpt>
      <trkpt lat="43.327354431152" lon="-7.5690565109253">
        <ele>413</ele>
        <time>2019-09-11T08:40:57+00:00</time>
      </trkpt>
      <trkpt lat="43.327346801758" lon="-7.5690665245056">
        <ele>413</ele>
        <time>2019-09-11T08:40:58+00:00</time>
      </trkpt>
      <trkpt lat="43.327346801758" lon="-7.5690765380859">
        <ele>413</ele>
        <time>2019-09-11T08:40:59+00:00</time>
      </trkpt>
      <trkpt lat="43.327342987061" lon="-7.5690865516663">
        <ele>413</ele>
        <time>2019-09-11T08:41:00+00:00</time>
      </trkpt>
      <trkpt lat="43.327331542969" lon="-7.5690984725952">
        <ele>413</ele>
        <time>2019-09-11T08:41:01+00:00</time>
      </trkpt>
      <trkpt lat="43.327331542969" lon="-7.569109916687">
        <ele>413</ele>
        <time>2019-09-11T08:41:02+00:00</time>
      </trkpt>
      <trkpt lat="43.327323913574" lon="-7.5691251754761">
        <ele>413</ele>
        <time>2019-09-11T08:41:03+00:00</time>
      </trkpt>
      <trkpt lat="43.327320098877" lon="-7.5691432952881">
        <ele>414</ele>
        <time>2019-09-11T08:41:04+00:00</time>
      </trkpt>
      <trkpt lat="43.32731628418" lon="-7.5691733360291">
        <ele>414</ele>
        <time>2019-09-11T08:41:06+00:00</time>
      </trkpt>
      <trkpt lat="43.32731628418" lon="-7.569188117981">
        <ele>414</ele>
        <time>2019-09-11T08:41:07+00:00</time>
      </trkpt>
      <trkpt lat="43.327320098877" lon="-7.56920337677">
        <ele>414</ele>
        <time>2019-09-11T08:41:08+00:00</time>
      </trkpt>
      <trkpt lat="43.32731628418" lon="-7.5692114830017">
        <ele>414</ele>
        <time>2019-09-11T08:41:09+00:00</time>
      </trkpt>
      <trkpt lat="43.32731628418" lon="-7.5692267417908">
        <ele>414</ele>
        <time>2019-09-11T08:41:10+00:00</time>
      </trkpt>
      <trkpt lat="43.327320098877" lon="-7.5692434310913">
        <ele>414</ele>
        <time>2019-09-11T08:41:11+00:00</time>
      </trkpt>
      <trkpt lat="43.327323913574" lon="-7.5692582130432">
        <ele>414</ele>
        <time>2019-09-11T08:41:12+00:00</time>
      </trkpt>
      <trkpt lat="43.327327728271" lon="-7.5692734718323">
        <ele>414</ele>
        <time>2019-09-11T08:41:13+00:00</time>
      </trkpt>
      <trkpt lat="43.327323913574" lon="-7.5692834854126">
        <ele>414</ele>
        <time>2019-09-11T08:41:14+00:00</time>
      </trkpt>
      <trkpt lat="43.327320098877" lon="-7.5692949295044">
        <ele>414</ele>
        <time>2019-09-11T08:41:15+00:00</time>
      </trkpt>
      <trkpt lat="43.327308654785" lon="-7.5693082809448">
        <ele>414</ele>
        <time>2019-09-11T08:41:16+00:00</time>
      </trkpt>
      <trkpt lat="43.327304840088" lon="-7.569326877594">
        <ele>414</ele>
        <time>2019-09-11T08:41:17+00:00</time>
      </trkpt>
      <trkpt lat="43.327304840088" lon="-7.5693435668945">
        <ele>414</ele>
        <time>2019-09-11T08:41:18+00:00</time>
      </trkpt>
      <trkpt lat="43.327304840088" lon="-7.5693583488464">
        <ele>414</ele>
        <time>2019-09-11T08:41:19+00:00</time>
      </trkpt>
      <trkpt lat="43.327297210693" lon="-7.5693764686584">
        <ele>414</ele>
        <time>2019-09-11T08:41:20+00:00</time>
      </trkpt>
      <trkpt lat="43.327293395996" lon="-7.5693883895874">
        <ele>414</ele>
        <time>2019-09-11T08:41:21+00:00</time>
      </trkpt>
      <trkpt lat="43.327289581299" lon="-7.5694031715393">
        <ele>414</ele>
        <time>2019-09-11T08:41:22+00:00</time>
      </trkpt>
      <trkpt lat="43.327278137207" lon="-7.5694150924683">
        <ele>414</ele>
        <time>2019-09-11T08:41:23+00:00</time>
      </trkpt>
      <trkpt lat="43.32727432251" lon="-7.5694284439087">
        <ele>414</ele>
        <time>2019-09-11T08:41:24+00:00</time>
      </trkpt>
      <trkpt lat="43.327266693115" lon="-7.5694451332092">
        <ele>414</ele>
        <time>2019-09-11T08:41:25+00:00</time>
      </trkpt>
      <trkpt lat="43.327262878418" lon="-7.5694632530212">
        <ele>414</ele>
        <time>2019-09-11T08:41:26+00:00</time>
      </trkpt>
      <trkpt lat="43.327259063721" lon="-7.5694766044617">
        <ele>414</ele>
        <time>2019-09-11T08:41:27+00:00</time>
      </trkpt>
      <trkpt lat="43.327255249023" lon="-7.5694899559021">
        <ele>414</ele>
        <time>2019-09-11T08:41:28+00:00</time>
      </trkpt>
      <trkpt lat="43.327251434326" lon="-7.5695099830627">
        <ele>415</ele>
        <time>2019-09-11T08:41:29+00:00</time>
      </trkpt>
      <trkpt lat="43.327251434326" lon="-7.5695266723633">
        <ele>415</ele>
        <time>2019-09-11T08:41:30+00:00</time>
      </trkpt>
      <trkpt lat="43.327251434326" lon="-7.5695381164551">
        <ele>415</ele>
        <time>2019-09-11T08:41:31+00:00</time>
      </trkpt>
      <trkpt lat="43.327251434326" lon="-7.5695567131042">
        <ele>415</ele>
        <time>2019-09-11T08:41:32+00:00</time>
      </trkpt>
      <trkpt lat="43.327251434326" lon="-7.5695714950562">
        <ele>415</ele>
        <time>2019-09-11T08:41:33+00:00</time>
      </trkpt>
      <trkpt lat="43.327251434326" lon="-7.5695915222168">
        <ele>415</ele>
        <time>2019-09-11T08:41:34+00:00</time>
      </trkpt>
      <trkpt lat="43.327251434326" lon="-7.5696115493774">
        <ele>416</ele>
        <time>2019-09-11T08:41:35+00:00</time>
      </trkpt>
      <trkpt lat="43.327251434326" lon="-7.569628238678">
        <ele>416</ele>
        <time>2019-09-11T08:41:36+00:00</time>
      </trkpt>
      <trkpt lat="43.327247619629" lon="-7.5696449279785">
        <ele>416</ele>
        <time>2019-09-11T08:41:37+00:00</time>
      </trkpt>
      <trkpt lat="43.327247619629" lon="-7.5696649551392">
        <ele>416</ele>
        <time>2019-09-11T08:41:38+00:00</time>
      </trkpt>
      <trkpt lat="43.327239990234" lon="-7.5696783065796">
        <ele>416</ele>
        <time>2019-09-11T08:41:39+00:00</time>
      </trkpt>
      <trkpt lat="43.327239990234" lon="-7.56969165802">
        <ele>417</ele>
        <time>2019-09-11T08:41:40+00:00</time>
      </trkpt>
      <trkpt lat="43.327239990234" lon="-7.5697050094604">
        <ele>417</ele>
        <time>2019-09-11T08:41:41+00:00</time>
      </trkpt>
      <trkpt lat="43.327236175537" lon="-7.5697150230408">
        <ele>417</ele>
        <time>2019-09-11T08:41:42+00:00</time>
      </trkpt>
      <trkpt lat="43.327228546143" lon="-7.5697283744812">
        <ele>417</ele>
        <time>2019-09-11T08:41:43+00:00</time>
      </trkpt>
      <trkpt lat="43.327228546143" lon="-7.5697450637817">
        <ele>417</ele>
        <time>2019-09-11T08:41:44+00:00</time>
      </trkpt>
      <trkpt lat="43.327220916748" lon="-7.5697584152222">
        <ele>417</ele>
        <time>2019-09-11T08:41:45+00:00</time>
      </trkpt>
      <trkpt lat="43.327217102051" lon="-7.5697751045227">
        <ele>417</ele>
        <time>2019-09-11T08:41:46+00:00</time>
      </trkpt>
      <trkpt lat="43.327213287354" lon="-7.5697917938232">
        <ele>417</ele>
        <time>2019-09-11T08:41:47+00:00</time>
      </trkpt>
      <trkpt lat="43.327209472656" lon="-7.5698065757751">
        <ele>417</ele>
        <time>2019-09-11T08:41:48+00:00</time>
      </trkpt>
      <trkpt lat="43.327201843262" lon="-7.5698218345642">
        <ele>417</ele>
        <time>2019-09-11T08:41:49+00:00</time>
      </trkpt>
      <trkpt lat="43.327201843262" lon="-7.5698366165161">
        <ele>417</ele>
        <time>2019-09-11T08:41:50+00:00</time>
      </trkpt>
      <trkpt lat="43.327194213867" lon="-7.5698499679565">
        <ele>418</ele>
        <time>2019-09-11T08:41:51+00:00</time>
      </trkpt>
      <trkpt lat="43.327182769775" lon="-7.5698599815369">
        <ele>418</ele>
        <time>2019-09-11T08:41:52+00:00</time>
      </trkpt>
      <trkpt lat="43.327182769775" lon="-7.5698733329773">
        <ele>418</ele>
        <time>2019-09-11T08:41:53+00:00</time>
      </trkpt>
      <trkpt lat="43.327175140381" lon="-7.5698847770691">
        <ele>418</ele>
        <time>2019-09-11T08:41:54+00:00</time>
      </trkpt>
      <trkpt lat="43.327175140381" lon="-7.569896697998">
        <ele>418</ele>
        <time>2019-09-11T08:41:55+00:00</time>
      </trkpt>
      <trkpt lat="43.327178955078" lon="-7.56991147995">
        <ele>419</ele>
        <time>2019-09-11T08:41:56+00:00</time>
      </trkpt>
      <trkpt lat="43.327178955078" lon="-7.5699248313904">
        <ele>419</ele>
        <time>2019-09-11T08:41:57+00:00</time>
      </trkpt>
      <trkpt lat="43.327178955078" lon="-7.5699381828308">
        <ele>419</ele>
        <time>2019-09-11T08:41:58+00:00</time>
      </trkpt>
      <trkpt lat="43.327182769775" lon="-7.5699515342712">
        <ele>419</ele>
        <time>2019-09-11T08:41:59+00:00</time>
      </trkpt>
      <trkpt lat="43.327186584473" lon="-7.5699634552002">
        <ele>419</ele>
        <time>2019-09-11T08:42:00+00:00</time>
      </trkpt>
      <trkpt lat="43.32719039917" lon="-7.5699782371521">
        <ele>419</ele>
        <time>2019-09-11T08:42:01+00:00</time>
      </trkpt>
      <trkpt lat="43.327194213867" lon="-7.5699901580811">
        <ele>419</ele>
        <time>2019-09-11T08:42:02+00:00</time>
      </trkpt>
      <trkpt lat="43.32719039917" lon="-7.5700035095215">
        <ele>420</ele>
        <time>2019-09-11T08:42:03+00:00</time>
      </trkpt>
      <trkpt lat="43.327182769775" lon="-7.5700135231018">
        <ele>420</ele>
        <time>2019-09-11T08:42:04+00:00</time>
      </trkpt>
      <trkpt lat="43.327182769775" lon="-7.5700249671936">
        <ele>420</ele>
        <time>2019-09-11T08:42:05+00:00</time>
      </trkpt>
      <trkpt lat="43.327175140381" lon="-7.5700368881226">
        <ele>420</ele>
        <time>2019-09-11T08:42:06+00:00</time>
      </trkpt>
      <trkpt lat="43.327171325684" lon="-7.5700449943542">
        <ele>420</ele>
        <time>2019-09-11T08:42:07+00:00</time>
      </trkpt>
      <trkpt lat="43.327163696289" lon="-7.5700597763062">
        <ele>420</ele>
        <time>2019-09-11T08:42:08+00:00</time>
      </trkpt>
      <trkpt lat="43.327159881592" lon="-7.570068359375">
        <ele>421</ele>
        <time>2019-09-11T08:42:09+00:00</time>
      </trkpt>
      <trkpt lat="43.3271484375" lon="-7.5700798034668">
        <ele>421</ele>
        <time>2019-09-11T08:42:10+00:00</time>
      </trkpt>
      <trkpt lat="43.327144622803" lon="-7.5700883865356">
        <ele>421</ele>
        <time>2019-09-11T08:42:11+00:00</time>
      </trkpt>
      <trkpt lat="43.327133178711" lon="-7.5700950622559">
        <ele>421</ele>
        <time>2019-09-11T08:42:12+00:00</time>
      </trkpt>
      <trkpt lat="43.327121734619" lon="-7.5701050758362">
        <ele>421</ele>
        <time>2019-09-11T08:42:13+00:00</time>
      </trkpt>
      <trkpt lat="43.327117919922" lon="-7.5701184272766">
        <ele>421</ele>
        <time>2019-09-11T08:42:14+00:00</time>
      </trkpt>
      <trkpt lat="43.327110290527" lon="-7.570131778717">
        <ele>421</ele>
        <time>2019-09-11T08:42:15+00:00</time>
      </trkpt>
      <trkpt lat="43.327102661133" lon="-7.5701484680176">
        <ele>421</ele>
        <time>2019-09-11T08:42:16+00:00</time>
      </trkpt>
      <trkpt lat="43.327098846436" lon="-7.5701665878296">
        <ele>421</ele>
        <time>2019-09-11T08:42:17+00:00</time>
      </trkpt>
      <trkpt lat="43.327095031738" lon="-7.5701832771301">
        <ele>422</ele>
        <time>2019-09-11T08:42:18+00:00</time>
      </trkpt>
      <trkpt lat="43.327095031738" lon="-7.5702018737793">
        <ele>422</ele>
        <time>2019-09-11T08:42:19+00:00</time>
      </trkpt>
      <trkpt lat="43.327091217041" lon="-7.5702199935913">
        <ele>422</ele>
        <time>2019-09-11T08:42:20+00:00</time>
      </trkpt>
      <trkpt lat="43.327091217041" lon="-7.5702347755432">
        <ele>422</ele>
        <time>2019-09-11T08:42:21+00:00</time>
      </trkpt>
      <trkpt lat="43.327087402344" lon="-7.5702500343323">
        <ele>422</ele>
        <time>2019-09-11T08:42:22+00:00</time>
      </trkpt>
      <trkpt lat="43.327083587646" lon="-7.5702648162842">
        <ele>422</ele>
        <time>2019-09-11T08:42:23+00:00</time>
      </trkpt>
      <trkpt lat="43.327079772949" lon="-7.5702834129333">
        <ele>422</ele>
        <time>2019-09-11T08:42:24+00:00</time>
      </trkpt>
      <trkpt lat="43.327079772949" lon="-7.5703001022339">
        <ele>422</ele>
        <time>2019-09-11T08:42:25+00:00</time>
      </trkpt>
      <trkpt lat="43.327075958252" lon="-7.5703101158142">
        <ele>423</ele>
        <time>2019-09-11T08:42:26+00:00</time>
      </trkpt>
      <trkpt lat="43.327072143555" lon="-7.5703234672546">
        <ele>423</ele>
        <time>2019-09-11T08:42:27+00:00</time>
      </trkpt>
      <trkpt lat="43.327068328857" lon="-7.5703368186951">
        <ele>423</ele>
        <time>2019-09-11T08:42:28+00:00</time>
      </trkpt>
      <trkpt lat="43.32706451416" lon="-7.5703482627869">
        <ele>423</ele>
        <time>2019-09-11T08:42:29+00:00</time>
      </trkpt>
      <trkpt lat="43.32706451416" lon="-7.5703649520874">
        <ele>423</ele>
        <time>2019-09-11T08:42:30+00:00</time>
      </trkpt>
      <trkpt lat="43.327060699463" lon="-7.5703835487366">
        <ele>423</ele>
        <time>2019-09-11T08:42:31+00:00</time>
      </trkpt>
      <trkpt lat="43.327060699463" lon="-7.5704030990601">
        <ele>423</ele>
        <time>2019-09-11T08:42:32+00:00</time>
      </trkpt>
      <trkpt lat="43.327056884766" lon="-7.5704131126404">
        <ele>423</ele>
        <time>2019-09-11T08:42:33+00:00</time>
      </trkpt>
      <trkpt lat="43.327056884766" lon="-7.5704264640808">
        <ele>424</ele>
        <time>2019-09-11T08:42:34+00:00</time>
      </trkpt>
      <trkpt lat="43.327056884766" lon="-7.5704364776611">
        <ele>424</ele>
        <time>2019-09-11T08:42:35+00:00</time>
      </trkpt>
      <trkpt lat="43.327053070068" lon="-7.5704483985901">
        <ele>424</ele>
        <time>2019-09-11T08:42:36+00:00</time>
      </trkpt>
      <trkpt lat="43.327049255371" lon="-7.5704598426819">
        <ele>424</ele>
        <time>2019-09-11T08:42:37+00:00</time>
      </trkpt>
      <trkpt lat="43.327049255371" lon="-7.5704717636108">
        <ele>424</ele>
        <time>2019-09-11T08:42:38+00:00</time>
      </trkpt>
      <trkpt lat="43.327045440674" lon="-7.5704865455627">
        <ele>424</ele>
        <time>2019-09-11T08:42:39+00:00</time>
      </trkpt>
      <trkpt lat="43.327049255371" lon="-7.5705051422119">
        <ele>425</ele>
        <time>2019-09-11T08:42:40+00:00</time>
      </trkpt>
      <trkpt lat="43.327049255371" lon="-7.5705218315125">
        <ele>425</ele>
        <time>2019-09-11T08:42:41+00:00</time>
      </trkpt>
      <trkpt lat="43.327045440674" lon="-7.5705351829529">
        <ele>425</ele>
        <time>2019-09-11T08:42:42+00:00</time>
      </trkpt>
      <trkpt lat="43.327045440674" lon="-7.5705499649048">
        <ele>425</ele>
        <time>2019-09-11T08:42:43+00:00</time>
      </trkpt>
      <trkpt lat="43.327041625977" lon="-7.5705618858337">
        <ele>425</ele>
        <time>2019-09-11T08:42:44+00:00</time>
      </trkpt>
      <trkpt lat="43.327033996582" lon="-7.570568561554">
        <ele>425</ele>
        <time>2019-09-11T08:42:45+00:00</time>
      </trkpt>
      <trkpt lat="43.327030181885" lon="-7.5705780982971">
        <ele>426</ele>
        <time>2019-09-11T08:42:46+00:00</time>
      </trkpt>
      <trkpt lat="43.32702255249" lon="-7.570586681366">
        <ele>426</ele>
        <time>2019-09-11T08:42:47+00:00</time>
      </trkpt>
      <trkpt lat="43.327018737793" lon="-7.5706000328064">
        <ele>425</ele>
        <time>2019-09-11T08:42:48+00:00</time>
      </trkpt>
      <trkpt lat="43.327014923096" lon="-7.5706100463867">
        <ele>426</ele>
        <time>2019-09-11T08:42:49+00:00</time>
      </trkpt>
      <trkpt lat="43.327014923096" lon="-7.5706214904785">
        <ele>426</ele>
        <time>2019-09-11T08:42:50+00:00</time>
      </trkpt>
      <trkpt lat="43.327014923096" lon="-7.5706334114075">
        <ele>426</ele>
        <time>2019-09-11T08:42:51+00:00</time>
      </trkpt>
      <trkpt lat="43.327011108398" lon="-7.5706481933594">
        <ele>426</ele>
        <time>2019-09-11T08:42:52+00:00</time>
      </trkpt>
      <trkpt lat="43.327003479004" lon="-7.5706615447998">
        <ele>426</ele>
        <time>2019-09-11T08:42:53+00:00</time>
      </trkpt>
      <trkpt lat="43.327003479004" lon="-7.5706782341003">
        <ele>426</ele>
        <time>2019-09-11T08:42:54+00:00</time>
      </trkpt>
      <trkpt lat="43.327003479004" lon="-7.5706915855408">
        <ele>426</ele>
        <time>2019-09-11T08:42:55+00:00</time>
      </trkpt>
      <trkpt lat="43.326999664307" lon="-7.5707035064697">
        <ele>426</ele>
        <time>2019-09-11T08:42:56+00:00</time>
      </trkpt>
      <trkpt lat="43.326992034912" lon="-7.5707149505615">
        <ele>426</ele>
        <time>2019-09-11T08:42:57+00:00</time>
      </trkpt>
      <trkpt lat="43.326988220215" lon="-7.570728302002">
        <ele>426</ele>
        <time>2019-09-11T08:42:58+00:00</time>
      </trkpt>
      <trkpt lat="43.326984405518" lon="-7.5707402229309">
        <ele>427</ele>
        <time>2019-09-11T08:42:59+00:00</time>
      </trkpt>
      <trkpt lat="43.326984405518" lon="-7.5707530975342">
        <ele>427</ele>
        <time>2019-09-11T08:43:00+00:00</time>
      </trkpt>
      <trkpt lat="43.326984405518" lon="-7.5707664489746">
        <ele>427</ele>
        <time>2019-09-11T08:43:01+00:00</time>
      </trkpt>
      <trkpt lat="43.32698059082" lon="-7.5707817077637">
        <ele>427</ele>
        <time>2019-09-11T08:43:02+00:00</time>
      </trkpt>
      <trkpt lat="43.326984405518" lon="-7.5708017349243">
        <ele>427</ele>
        <time>2019-09-11T08:43:03+00:00</time>
      </trkpt>
      <trkpt lat="43.326988220215" lon="-7.570821762085">
        <ele>427</ele>
        <time>2019-09-11T08:43:04+00:00</time>
      </trkpt>
      <trkpt lat="43.326995849609" lon="-7.5708432197571">
        <ele>427</ele>
        <time>2019-09-11T08:43:05+00:00</time>
      </trkpt>
      <trkpt lat="43.326995849609" lon="-7.5708565711975">
        <ele>427</ele>
        <time>2019-09-11T08:43:06+00:00</time>
      </trkpt>
      <trkpt lat="43.326995849609" lon="-7.570873260498">
        <ele>427</ele>
        <time>2019-09-11T08:43:07+00:00</time>
      </trkpt>
      <trkpt lat="43.327003479004" lon="-7.5708918571472">
        <ele>427</ele>
        <time>2019-09-11T08:43:08+00:00</time>
      </trkpt>
      <trkpt lat="43.327003479004" lon="-7.5709085464478">
        <ele>427</ele>
        <time>2019-09-11T08:43:09+00:00</time>
      </trkpt>
      <trkpt lat="43.327003479004" lon="-7.5709252357483">
        <ele>427</ele>
        <time>2019-09-11T08:43:10+00:00</time>
      </trkpt>
      <trkpt lat="43.326995849609" lon="-7.5709381103516">
        <ele>428</ele>
        <time>2019-09-11T08:43:11+00:00</time>
      </trkpt>
      <trkpt lat="43.326992034912" lon="-7.5709500312805">
        <ele>428</ele>
        <time>2019-09-11T08:43:12+00:00</time>
      </trkpt>
      <trkpt lat="43.326992034912" lon="-7.5709614753723">
        <ele>428</ele>
        <time>2019-09-11T08:43:13+00:00</time>
      </trkpt>
      <trkpt lat="43.326988220215" lon="-7.5709748268127">
        <ele>428</ele>
        <time>2019-09-11T08:43:14+00:00</time>
      </trkpt>
      <trkpt lat="43.326988220215" lon="-7.5709881782532">
        <ele>428</ele>
        <time>2019-09-11T08:43:15+00:00</time>
      </trkpt>
      <trkpt lat="43.326988220215" lon="-7.5709981918335">
        <ele>428</ele>
        <time>2019-09-11T08:43:16+00:00</time>
      </trkpt>
      <trkpt lat="43.326988220215" lon="-7.5710067749023">
        <ele>429</ele>
        <time>2019-09-11T08:43:17+00:00</time>
      </trkpt>
      <trkpt lat="43.326984405518" lon="-7.5710167884827">
        <ele>429</ele>
        <time>2019-09-11T08:43:18+00:00</time>
      </trkpt>
      <trkpt lat="43.326984405518" lon="-7.571026802063">
        <ele>429</ele>
        <time>2019-09-11T08:43:19+00:00</time>
      </trkpt>
      <trkpt lat="43.326984405518" lon="-7.5710368156433">
        <ele>429</ele>
        <time>2019-09-11T08:43:20+00:00</time>
      </trkpt>
      <trkpt lat="43.326984405518" lon="-7.5710535049438">
        <ele>429</ele>
        <time>2019-09-11T08:43:21+00:00</time>
      </trkpt>
      <trkpt lat="43.326988220215" lon="-7.5710716247559">
        <ele>429</ele>
        <time>2019-09-11T08:43:22+00:00</time>
      </trkpt>
      <trkpt lat="43.326995849609" lon="-7.5710916519165">
        <ele>429</ele>
        <time>2019-09-11T08:43:23+00:00</time>
      </trkpt>
      <trkpt lat="43.326995849609" lon="-7.5711050033569">
        <ele>429</ele>
        <time>2019-09-11T08:43:24+00:00</time>
      </trkpt>
      <trkpt lat="43.326992034912" lon="-7.5711197853088">
        <ele>429</ele>
        <time>2019-09-11T08:43:25+00:00</time>
      </trkpt>
      <trkpt lat="43.326992034912" lon="-7.5711398124695">
        <ele>430</ele>
        <time>2019-09-11T08:43:26+00:00</time>
      </trkpt>
      <trkpt lat="43.326992034912" lon="-7.5711598396301">
        <ele>430</ele>
        <time>2019-09-11T08:43:27+00:00</time>
      </trkpt>
      <trkpt lat="43.326992034912" lon="-7.5711750984192">
        <ele>430</ele>
        <time>2019-09-11T08:43:28+00:00</time>
      </trkpt>
      <trkpt lat="43.326988220215" lon="-7.5711951255798">
        <ele>430</ele>
        <time>2019-09-11T08:43:29+00:00</time>
      </trkpt>
      <trkpt lat="43.326984405518" lon="-7.5712065696716">
        <ele>430</ele>
        <time>2019-09-11T08:43:30+00:00</time>
      </trkpt>
      <trkpt lat="43.326976776123" lon="-7.5712218284607">
        <ele>430</ele>
        <time>2019-09-11T08:43:31+00:00</time>
      </trkpt>
      <trkpt lat="43.326972961426" lon="-7.5712399482727">
        <ele>430</ele>
        <time>2019-09-11T08:43:32+00:00</time>
      </trkpt>
      <trkpt lat="43.326965332031" lon="-7.5712518692017">
        <ele>431</ele>
        <time>2019-09-11T08:43:33+00:00</time>
      </trkpt>
      <trkpt lat="43.326961517334" lon="-7.5712652206421">
        <ele>431</ele>
        <time>2019-09-11T08:43:34+00:00</time>
      </trkpt>
      <trkpt lat="43.326961517334" lon="-7.5712780952454">
        <ele>431</ele>
        <time>2019-09-11T08:43:35+00:00</time>
      </trkpt>
      <trkpt lat="43.326953887939" lon="-7.5712933540344">
        <ele>431</ele>
        <time>2019-09-11T08:43:36+00:00</time>
      </trkpt>
      <trkpt lat="43.326950073242" lon="-7.5713081359863">
        <ele>431</ele>
        <time>2019-09-11T08:43:37+00:00</time>
      </trkpt>
      <trkpt lat="43.326950073242" lon="-7.5713233947754">
        <ele>431</ele>
        <time>2019-09-11T08:43:38+00:00</time>
      </trkpt>
      <trkpt lat="43.326950073242" lon="-7.5713381767273">
        <ele>431</ele>
        <time>2019-09-11T08:43:39+00:00</time>
      </trkpt>
      <trkpt lat="43.326950073242" lon="-7.5713715553284">
        <ele>432</ele>
        <time>2019-09-11T08:43:41+00:00</time>
      </trkpt>
      <trkpt lat="43.326950073242" lon="-7.5713868141174">
        <ele>432</ele>
        <time>2019-09-11T08:43:42+00:00</time>
      </trkpt>
      <trkpt lat="43.326946258545" lon="-7.5714015960693">
        <ele>432</ele>
        <time>2019-09-11T08:43:43+00:00</time>
      </trkpt>
      <trkpt lat="43.326942443848" lon="-7.5714168548584">
        <ele>432</ele>
        <time>2019-09-11T08:43:44+00:00</time>
      </trkpt>
      <trkpt lat="43.32693862915" lon="-7.5714316368103">
        <ele>432</ele>
        <time>2019-09-11T08:43:45+00:00</time>
      </trkpt>
      <trkpt lat="43.326934814453" lon="-7.5714468955994">
        <ele>432</ele>
        <time>2019-09-11T08:43:46+00:00</time>
      </trkpt>
      <trkpt lat="43.326934814453" lon="-7.5714631080627">
        <ele>432</ele>
        <time>2019-09-11T08:43:47+00:00</time>
      </trkpt>
      <trkpt lat="43.326934814453" lon="-7.5714783668518">
        <ele>432</ele>
        <time>2019-09-11T08:43:48+00:00</time>
      </trkpt>
      <trkpt lat="43.326930999756" lon="-7.5714931488037">
        <ele>432</ele>
        <time>2019-09-11T08:43:49+00:00</time>
      </trkpt>
      <trkpt lat="43.326927185059" lon="-7.5715084075928">
        <ele>432</ele>
        <time>2019-09-11T08:43:50+00:00</time>
      </trkpt>
      <trkpt lat="43.326923370361" lon="-7.5715265274048">
        <ele>432</ele>
        <time>2019-09-11T08:43:51+00:00</time>
      </trkpt>
      <trkpt lat="43.326923370361" lon="-7.5715398788452">
        <ele>432</ele>
        <time>2019-09-11T08:43:52+00:00</time>
      </trkpt>
      <trkpt lat="43.326919555664" lon="-7.5715551376343">
        <ele>433</ele>
        <time>2019-09-11T08:43:53+00:00</time>
      </trkpt>
      <trkpt lat="43.326919555664" lon="-7.5715699195862">
        <ele>433</ele>
        <time>2019-09-11T08:43:54+00:00</time>
      </trkpt>
      <trkpt lat="43.326919555664" lon="-7.5715866088867">
        <ele>433</ele>
        <time>2019-09-11T08:43:55+00:00</time>
      </trkpt>
      <trkpt lat="43.326915740967" lon="-7.5715999603271">
        <ele>433</ele>
        <time>2019-09-11T08:43:56+00:00</time>
      </trkpt>
      <trkpt lat="43.326919555664" lon="-7.5716185569763">
        <ele>433</ele>
        <time>2019-09-11T08:43:57+00:00</time>
      </trkpt>
      <trkpt lat="43.326919555664" lon="-7.5716366767883">
        <ele>433</ele>
        <time>2019-09-11T08:43:58+00:00</time>
      </trkpt>
      <trkpt lat="43.326919555664" lon="-7.5716533660889">
        <ele>433</ele>
        <time>2019-09-11T08:43:59+00:00</time>
      </trkpt>
      <trkpt lat="43.326919555664" lon="-7.5716681480408">
        <ele>433</ele>
        <time>2019-09-11T08:44:00+00:00</time>
      </trkpt>
      <trkpt lat="43.326919555664" lon="-7.5716834068298">
        <ele>433</ele>
        <time>2019-09-11T08:44:01+00:00</time>
      </trkpt>
      <trkpt lat="43.326923370361" lon="-7.5716981887817">
        <ele>433</ele>
        <time>2019-09-11T08:44:02+00:00</time>
      </trkpt>
      <trkpt lat="43.326919555664" lon="-7.5717148780823">
        <ele>433</ele>
        <time>2019-09-11T08:44:03+00:00</time>
      </trkpt>
      <trkpt lat="43.326915740967" lon="-7.5717315673828">
        <ele>433</ele>
        <time>2019-09-11T08:44:04+00:00</time>
      </trkpt>
      <trkpt lat="43.326915740967" lon="-7.5717468261719">
        <ele>433</ele>
        <time>2019-09-11T08:44:05+00:00</time>
      </trkpt>
      <trkpt lat="43.32691192627" lon="-7.5717616081238">
        <ele>433</ele>
        <time>2019-09-11T08:44:06+00:00</time>
      </trkpt>
      <trkpt lat="43.326908111572" lon="-7.5717735290527">
        <ele>433</ele>
        <time>2019-09-11T08:44:07+00:00</time>
      </trkpt>
      <trkpt lat="43.326908111572" lon="-7.5717883110046">
        <ele>433</ele>
        <time>2019-09-11T08:44:08+00:00</time>
      </trkpt>
      <trkpt lat="43.326908111572" lon="-7.5718016624451">
        <ele>433</ele>
        <time>2019-09-11T08:44:09+00:00</time>
      </trkpt>
      <trkpt lat="43.326908111572" lon="-7.5718150138855">
        <ele>433</ele>
        <time>2019-09-11T08:44:10+00:00</time>
      </trkpt>
      <trkpt lat="43.326904296875" lon="-7.5718297958374">
        <ele>433</ele>
        <time>2019-09-11T08:44:11+00:00</time>
      </trkpt>
      <trkpt lat="43.326908111572" lon="-7.5718464851379">
        <ele>433</ele>
        <time>2019-09-11T08:44:12+00:00</time>
      </trkpt>
      <trkpt lat="43.326908111572" lon="-7.571861743927">
        <ele>433</ele>
        <time>2019-09-11T08:44:13+00:00</time>
      </trkpt>
      <trkpt lat="43.326904296875" lon="-7.5718750953674">
        <ele>433</ele>
        <time>2019-09-11T08:44:14+00:00</time>
      </trkpt>
      <trkpt lat="43.326904296875" lon="-7.5718884468079">
        <ele>433</ele>
        <time>2019-09-11T08:44:15+00:00</time>
      </trkpt>
      <trkpt lat="43.326900482178" lon="-7.5718998908997">
        <ele>433</ele>
        <time>2019-09-11T08:44:16+00:00</time>
      </trkpt>
      <trkpt lat="43.326900482178" lon="-7.5719132423401">
        <ele>433</ele>
        <time>2019-09-11T08:44:17+00:00</time>
      </trkpt>
      <trkpt lat="43.32689666748" lon="-7.5719318389893">
        <ele>433</ele>
        <time>2019-09-11T08:44:18+00:00</time>
      </trkpt>
      <trkpt lat="43.32689666748" lon="-7.5719499588013">
        <ele>433</ele>
        <time>2019-09-11T08:44:19+00:00</time>
      </trkpt>
      <trkpt lat="43.326892852783" lon="-7.5719652175903">
        <ele>434</ele>
        <time>2019-09-11T08:44:20+00:00</time>
      </trkpt>
      <trkpt lat="43.326892852783" lon="-7.5719814300537">
        <ele>434</ele>
        <time>2019-09-11T08:44:21+00:00</time>
      </trkpt>
      <trkpt lat="43.326885223389" lon="-7.5719966888428">
        <ele>434</ele>
        <time>2019-09-11T08:44:22+00:00</time>
      </trkpt>
      <trkpt lat="43.326885223389" lon="-7.5720114707947">
        <ele>434</ele>
        <time>2019-09-11T08:44:23+00:00</time>
      </trkpt>
      <trkpt lat="43.326877593994" lon="-7.5720281600952">
        <ele>434</ele>
        <time>2019-09-11T08:44:24+00:00</time>
      </trkpt>
      <trkpt lat="43.326873779297" lon="-7.5720415115356">
        <ele>434</ele>
        <time>2019-09-11T08:44:25+00:00</time>
      </trkpt>
      <trkpt lat="43.3268699646" lon="-7.5720548629761">
        <ele>435</ele>
        <time>2019-09-11T08:44:26+00:00</time>
      </trkpt>
      <trkpt lat="43.3268699646" lon="-7.572066783905">
        <ele>435</ele>
        <time>2019-09-11T08:44:27+00:00</time>
      </trkpt>
      <trkpt lat="43.326862335205" lon="-7.5720767974854">
        <ele>435</ele>
        <time>2019-09-11T08:44:28+00:00</time>
      </trkpt>
      <trkpt lat="43.326862335205" lon="-7.5720915794373">
        <ele>435</ele>
        <time>2019-09-11T08:44:29+00:00</time>
      </trkpt>
      <trkpt lat="43.326858520508" lon="-7.5721049308777">
        <ele>435</ele>
        <time>2019-09-11T08:44:30+00:00</time>
      </trkpt>
      <trkpt lat="43.326858520508" lon="-7.5721201896667">
        <ele>435</ele>
        <time>2019-09-11T08:44:31+00:00</time>
      </trkpt>
      <trkpt lat="43.326858520508" lon="-7.5721335411072">
        <ele>435</ele>
        <time>2019-09-11T08:44:32+00:00</time>
      </trkpt>
      <trkpt lat="43.326858520508" lon="-7.5721483230591">
        <ele>436</ele>
        <time>2019-09-11T08:44:33+00:00</time>
      </trkpt>
      <trkpt lat="43.326854705811" lon="-7.5721597671509">
        <ele>436</ele>
        <time>2019-09-11T08:44:34+00:00</time>
      </trkpt>
      <trkpt lat="43.326854705811" lon="-7.5721716880798">
        <ele>436</ele>
        <time>2019-09-11T08:44:35+00:00</time>
      </trkpt>
      <trkpt lat="43.326847076416" lon="-7.5721831321716">
        <ele>436</ele>
        <time>2019-09-11T08:44:36+00:00</time>
      </trkpt>
      <trkpt lat="43.326847076416" lon="-7.5721964836121">
        <ele>436</ele>
        <time>2019-09-11T08:44:37+00:00</time>
      </trkpt>
      <trkpt lat="43.326847076416" lon="-7.5722098350525">
        <ele>436</ele>
        <time>2019-09-11T08:44:38+00:00</time>
      </trkpt>
      <trkpt lat="43.326847076416" lon="-7.5722284317017">
        <ele>436</ele>
        <time>2019-09-11T08:44:39+00:00</time>
      </trkpt>
      <trkpt lat="43.326850891113" lon="-7.5722465515137">
        <ele>437</ele>
        <time>2019-09-11T08:44:40+00:00</time>
      </trkpt>
      <trkpt lat="43.326847076416" lon="-7.5722632408142">
        <ele>437</ele>
        <time>2019-09-11T08:44:41+00:00</time>
      </trkpt>
      <trkpt lat="43.326847076416" lon="-7.5722784996033">
        <ele>437</ele>
        <time>2019-09-11T08:44:42+00:00</time>
      </trkpt>
      <trkpt lat="43.326843261719" lon="-7.5722966194153">
        <ele>437</ele>
        <time>2019-09-11T08:44:43+00:00</time>
      </trkpt>
      <trkpt lat="43.326843261719" lon="-7.5723133087158">
        <ele>437</ele>
        <time>2019-09-11T08:44:44+00:00</time>
      </trkpt>
      <trkpt lat="43.326843261719" lon="-7.5723266601562">
        <ele>437</ele>
        <time>2019-09-11T08:44:45+00:00</time>
      </trkpt>
      <trkpt lat="43.326843261719" lon="-7.5723433494568">
        <ele>438</ele>
        <time>2019-09-11T08:44:46+00:00</time>
      </trkpt>
      <trkpt lat="43.326835632324" lon="-7.5723581314087">
        <ele>438</ele>
        <time>2019-09-11T08:44:47+00:00</time>
      </trkpt>
      <trkpt lat="43.32682800293" lon="-7.5723714828491">
        <ele>438</ele>
        <time>2019-09-11T08:44:48+00:00</time>
      </trkpt>
      <trkpt lat="43.32682800293" lon="-7.5723867416382">
        <ele>438</ele>
        <time>2019-09-11T08:44:49+00:00</time>
      </trkpt>
      <trkpt lat="43.32682800293" lon="-7.5724034309387">
        <ele>438</ele>
        <time>2019-09-11T08:44:50+00:00</time>
      </trkpt>
      <trkpt lat="43.326831817627" lon="-7.5724167823792">
        <ele>438</ele>
        <time>2019-09-11T08:44:51+00:00</time>
      </trkpt>
      <trkpt lat="43.326831817627" lon="-7.5724349021912">
        <ele>439</ele>
        <time>2019-09-11T08:44:52+00:00</time>
      </trkpt>
      <trkpt lat="43.326839447021" lon="-7.5724534988403">
        <ele>439</ele>
        <time>2019-09-11T08:44:53+00:00</time>
      </trkpt>
      <trkpt lat="43.326839447021" lon="-7.5724701881409">
        <ele>439</ele>
        <time>2019-09-11T08:44:54+00:00</time>
      </trkpt>
      <trkpt lat="43.326835632324" lon="-7.5724868774414">
        <ele>439</ele>
        <time>2019-09-11T08:44:55+00:00</time>
      </trkpt>
      <trkpt lat="43.326831817627" lon="-7.5725016593933">
        <ele>439</ele>
        <time>2019-09-11T08:44:56+00:00</time>
      </trkpt>
      <trkpt lat="43.326831817627" lon="-7.5725164413452">
        <ele>439</ele>
        <time>2019-09-11T08:44:57+00:00</time>
      </trkpt>
      <trkpt lat="43.326831817627" lon="-7.5725317001343">
        <ele>439</ele>
        <time>2019-09-11T08:44:58+00:00</time>
      </trkpt>
      <trkpt lat="43.326831817627" lon="-7.5725483894348">
        <ele>439</ele>
        <time>2019-09-11T08:44:59+00:00</time>
      </trkpt>
      <trkpt lat="43.32682800293" lon="-7.5725631713867">
        <ele>439</ele>
        <time>2019-09-11T08:45:00+00:00</time>
      </trkpt>
      <trkpt lat="43.326820373535" lon="-7.5725784301758">
        <ele>439</ele>
        <time>2019-09-11T08:45:01+00:00</time>
      </trkpt>
      <trkpt lat="43.326820373535" lon="-7.5725932121277">
        <ele>439</ele>
        <time>2019-09-11T08:45:02+00:00</time>
      </trkpt>
      <trkpt lat="43.326820373535" lon="-7.5726065635681">
        <ele>439</ele>
        <time>2019-09-11T08:45:03+00:00</time>
      </trkpt>
      <trkpt lat="43.326824188232" lon="-7.5726199150085">
        <ele>439</ele>
        <time>2019-09-11T08:45:04+00:00</time>
      </trkpt>
      <trkpt lat="43.326816558838" lon="-7.5726351737976">
        <ele>439</ele>
        <time>2019-09-11T08:45:05+00:00</time>
      </trkpt>
      <trkpt lat="43.326812744141" lon="-7.5726499557495">
        <ele>439</ele>
        <time>2019-09-11T08:45:06+00:00</time>
      </trkpt>
      <trkpt lat="43.326805114746" lon="-7.57266664505">
        <ele>439</ele>
        <time>2019-09-11T08:45:07+00:00</time>
      </trkpt>
      <trkpt lat="43.326797485352" lon="-7.5726819038391">
        <ele>439</ele>
        <time>2019-09-11T08:45:08+00:00</time>
      </trkpt>
      <trkpt lat="43.326793670654" lon="-7.572696685791">
        <ele>440</ele>
        <time>2019-09-11T08:45:09+00:00</time>
      </trkpt>
      <trkpt lat="43.326789855957" lon="-7.5727133750916">
        <ele>440</ele>
        <time>2019-09-11T08:45:10+00:00</time>
      </trkpt>
      <trkpt lat="43.326789855957" lon="-7.5727300643921">
        <ele>440</ele>
        <time>2019-09-11T08:45:11+00:00</time>
      </trkpt>
      <trkpt lat="43.326789855957" lon="-7.572744846344">
        <ele>440</ele>
        <time>2019-09-11T08:45:12+00:00</time>
      </trkpt>
      <trkpt lat="43.326789855957" lon="-7.5727615356445">
        <ele>440</ele>
        <time>2019-09-11T08:45:13+00:00</time>
      </trkpt>
      <trkpt lat="43.326789855957" lon="-7.5727767944336">
        <ele>441</ele>
        <time>2019-09-11T08:45:14+00:00</time>
      </trkpt>
      <trkpt lat="43.32678604126" lon="-7.572790145874">
        <ele>441</ele>
        <time>2019-09-11T08:45:15+00:00</time>
      </trkpt>
      <trkpt lat="43.326782226562" lon="-7.5728049278259">
        <ele>441</ele>
        <time>2019-09-11T08:45:16+00:00</time>
      </trkpt>
      <trkpt lat="43.326782226562" lon="-7.5728235244751">
        <ele>441</ele>
        <time>2019-09-11T08:45:17+00:00</time>
      </trkpt>
      <trkpt lat="43.326782226562" lon="-7.5728416442871">
        <ele>441</ele>
        <time>2019-09-11T08:45:18+00:00</time>
      </trkpt>
      <trkpt lat="43.326782226562" lon="-7.5728569030762">
        <ele>441</ele>
        <time>2019-09-11T08:45:19+00:00</time>
      </trkpt>
      <trkpt lat="43.326778411865" lon="-7.5728716850281">
        <ele>441</ele>
        <time>2019-09-11T08:45:20+00:00</time>
      </trkpt>
      <trkpt lat="43.326774597168" lon="-7.5728883743286">
        <ele>441</ele>
        <time>2019-09-11T08:45:21+00:00</time>
      </trkpt>
      <trkpt lat="43.326770782471" lon="-7.5729031562805">
        <ele>441</ele>
        <time>2019-09-11T08:45:22+00:00</time>
      </trkpt>
      <trkpt lat="43.326766967773" lon="-7.5729217529297">
        <ele>441</ele>
        <time>2019-09-11T08:45:23+00:00</time>
      </trkpt>
      <trkpt lat="43.326766967773" lon="-7.5729398727417">
        <ele>441</ele>
        <time>2019-09-11T08:45:24+00:00</time>
      </trkpt>
      <trkpt lat="43.326766967773" lon="-7.572961807251">
        <ele>441</ele>
        <time>2019-09-11T08:45:25+00:00</time>
      </trkpt>
      <trkpt lat="43.326766967773" lon="-7.572979927063">
        <ele>441</ele>
        <time>2019-09-11T08:45:26+00:00</time>
      </trkpt>
      <trkpt lat="43.326766967773" lon="-7.5729985237122">
        <ele>441</ele>
        <time>2019-09-11T08:45:27+00:00</time>
      </trkpt>
      <trkpt lat="43.326763153076" lon="-7.5730133056641">
        <ele>441</ele>
        <time>2019-09-11T08:45:28+00:00</time>
      </trkpt>
      <trkpt lat="43.326763153076" lon="-7.5730285644531">
        <ele>441</ele>
        <time>2019-09-11T08:45:29+00:00</time>
      </trkpt>
      <trkpt lat="43.326755523682" lon="-7.573043346405">
        <ele>441</ele>
        <time>2019-09-11T08:45:30+00:00</time>
      </trkpt>
      <trkpt lat="43.326751708984" lon="-7.5730581283569">
        <ele>441</ele>
        <time>2019-09-11T08:45:31+00:00</time>
      </trkpt>
      <trkpt lat="43.326747894287" lon="-7.5730681419373">
        <ele>441</ele>
        <time>2019-09-11T08:45:32+00:00</time>
      </trkpt>
      <trkpt lat="43.32674407959" lon="-7.5730800628662">
        <ele>441</ele>
        <time>2019-09-11T08:45:33+00:00</time>
      </trkpt>
      <trkpt lat="43.32674407959" lon="-7.5730934143066">
        <ele>441</ele>
        <time>2019-09-11T08:45:34+00:00</time>
      </trkpt>
      <trkpt lat="43.326740264893" lon="-7.5731101036072">
        <ele>441</ele>
        <time>2019-09-11T08:45:35+00:00</time>
      </trkpt>
      <trkpt lat="43.326740264893" lon="-7.5731248855591">
        <ele>441</ele>
        <time>2019-09-11T08:45:36+00:00</time>
      </trkpt>
      <trkpt lat="43.326740264893" lon="-7.5731415748596">
        <ele>441</ele>
        <time>2019-09-11T08:45:37+00:00</time>
      </trkpt>
      <trkpt lat="43.32674407959" lon="-7.5731601715088">
        <ele>441</ele>
        <time>2019-09-11T08:45:38+00:00</time>
      </trkpt>
      <trkpt lat="43.32674407959" lon="-7.5731768608093">
        <ele>441</ele>
        <time>2019-09-11T08:45:39+00:00</time>
      </trkpt>
      <trkpt lat="43.32674407959" lon="-7.57319688797">
        <ele>441</ele>
        <time>2019-09-11T08:45:40+00:00</time>
      </trkpt>
      <trkpt lat="43.326740264893" lon="-7.5732164382935">
        <ele>441</ele>
        <time>2019-09-11T08:45:41+00:00</time>
      </trkpt>
      <trkpt lat="43.326736450195" lon="-7.5732316970825">
        <ele>441</ele>
        <time>2019-09-11T08:45:42+00:00</time>
      </trkpt>
      <trkpt lat="43.326736450195" lon="-7.5732464790344">
        <ele>441</ele>
        <time>2019-09-11T08:45:43+00:00</time>
      </trkpt>
      <trkpt lat="43.326732635498" lon="-7.5732598304749">
        <ele>441</ele>
        <time>2019-09-11T08:45:44+00:00</time>
      </trkpt>
      <trkpt lat="43.326728820801" lon="-7.5732698440552">
        <ele>441</ele>
        <time>2019-09-11T08:45:45+00:00</time>
      </trkpt>
      <trkpt lat="43.326725006104" lon="-7.5732831954956">
        <ele>441</ele>
        <time>2019-09-11T08:45:46+00:00</time>
      </trkpt>
      <trkpt lat="43.326725006104" lon="-7.5732984542847">
        <ele>441</ele>
        <time>2019-09-11T08:45:47+00:00</time>
      </trkpt>
      <trkpt lat="43.326721191406" lon="-7.5733151435852">
        <ele>441</ele>
        <time>2019-09-11T08:45:48+00:00</time>
      </trkpt>
      <trkpt lat="43.326721191406" lon="-7.5733318328857">
        <ele>441</ele>
        <time>2019-09-11T08:45:49+00:00</time>
      </trkpt>
      <trkpt lat="43.326721191406" lon="-7.5733499526978">
        <ele>441</ele>
        <time>2019-09-11T08:45:50+00:00</time>
      </trkpt>
      <trkpt lat="43.326721191406" lon="-7.5733685493469">
        <ele>441</ele>
        <time>2019-09-11T08:45:51+00:00</time>
      </trkpt>
      <trkpt lat="43.326717376709" lon="-7.5733833312988">
        <ele>441</ele>
        <time>2019-09-11T08:45:52+00:00</time>
      </trkpt>
      <trkpt lat="43.326717376709" lon="-7.5734014511108">
        <ele>441</ele>
        <time>2019-09-11T08:45:53+00:00</time>
      </trkpt>
      <trkpt lat="43.326721191406" lon="-7.5734214782715">
        <ele>441</ele>
        <time>2019-09-11T08:45:54+00:00</time>
      </trkpt>
      <trkpt lat="43.326721191406" lon="-7.5734367370605">
        <ele>441</ele>
        <time>2019-09-11T08:45:55+00:00</time>
      </trkpt>
      <trkpt lat="43.326717376709" lon="-7.5734534263611">
        <ele>441</ele>
        <time>2019-09-11T08:45:56+00:00</time>
      </trkpt>
      <trkpt lat="43.326713562012" lon="-7.5734701156616">
        <ele>441</ele>
        <time>2019-09-11T08:45:57+00:00</time>
      </trkpt>
      <trkpt lat="43.326713562012" lon="-7.5734848976135">
        <ele>441</ele>
        <time>2019-09-11T08:45:58+00:00</time>
      </trkpt>
      <trkpt lat="43.326709747314" lon="-7.5734968185425">
        <ele>441</ele>
        <time>2019-09-11T08:45:59+00:00</time>
      </trkpt>
      <trkpt lat="43.326709747314" lon="-7.5735116004944">
        <ele>441</ele>
        <time>2019-09-11T08:46:00+00:00</time>
      </trkpt>
      <trkpt lat="43.32670211792" lon="-7.5735249519348">
        <ele>441</ele>
        <time>2019-09-11T08:46:01+00:00</time>
      </trkpt>
      <trkpt lat="43.326698303223" lon="-7.5735383033752">
        <ele>441</ele>
        <time>2019-09-11T08:46:02+00:00</time>
      </trkpt>
      <trkpt lat="43.326690673828" lon="-7.5735535621643">
        <ele>441</ele>
        <time>2019-09-11T08:46:03+00:00</time>
      </trkpt>
      <trkpt lat="43.326690673828" lon="-7.5735683441162">
        <ele>442</ele>
        <time>2019-09-11T08:46:04+00:00</time>
      </trkpt>
      <trkpt lat="43.326690673828" lon="-7.5735850334167">
        <ele>442</ele>
        <time>2019-09-11T08:46:05+00:00</time>
      </trkpt>
      <trkpt lat="43.326690673828" lon="-7.5735998153687">
        <ele>442</ele>
        <time>2019-09-11T08:46:06+00:00</time>
      </trkpt>
      <trkpt lat="43.326686859131" lon="-7.5736165046692">
        <ele>442</ele>
        <time>2019-09-11T08:46:07+00:00</time>
      </trkpt>
      <trkpt lat="43.326686859131" lon="-7.5736317634583">
        <ele>442</ele>
        <time>2019-09-11T08:46:08+00:00</time>
      </trkpt>
      <trkpt lat="43.326690673828" lon="-7.5736465454102">
        <ele>442</ele>
        <time>2019-09-11T08:46:09+00:00</time>
      </trkpt>
      <trkpt lat="43.326690673828" lon="-7.5736618041992">
        <ele>442</ele>
        <time>2019-09-11T08:46:10+00:00</time>
      </trkpt>
      <trkpt lat="43.326694488525" lon="-7.5736784934998">
        <ele>441</ele>
        <time>2019-09-11T08:46:11+00:00</time>
      </trkpt>
      <trkpt lat="43.326694488525" lon="-7.5736985206604">
        <ele>441</ele>
        <time>2019-09-11T08:46:12+00:00</time>
      </trkpt>
      <trkpt lat="43.326694488525" lon="-7.5737166404724">
        <ele>441</ele>
        <time>2019-09-11T08:46:13+00:00</time>
      </trkpt>
      <trkpt lat="43.326694488525" lon="-7.5737352371216">
        <ele>441</ele>
        <time>2019-09-11T08:46:14+00:00</time>
      </trkpt>
      <trkpt lat="43.326698303223" lon="-7.5737547874451">
        <ele>441</ele>
        <time>2019-09-11T08:46:15+00:00</time>
      </trkpt>
      <trkpt lat="43.326698303223" lon="-7.5737700462341">
        <ele>441</ele>
        <time>2019-09-11T08:46:16+00:00</time>
      </trkpt>
      <trkpt lat="43.326705932617" lon="-7.5737948417664">
        <ele>441</ele>
        <time>2019-09-11T08:46:17+00:00</time>
      </trkpt>
      <trkpt lat="43.32670211792" lon="-7.5738101005554">
        <ele>441</ele>
        <time>2019-09-11T08:46:18+00:00</time>
      </trkpt>
      <trkpt lat="43.326694488525" lon="-7.5738234519958">
        <ele>440</ele>
        <time>2019-09-11T08:46:19+00:00</time>
      </trkpt>
      <trkpt lat="43.326694488525" lon="-7.5738434791565">
        <ele>439</ele>
        <time>2019-09-11T08:46:20+00:00</time>
      </trkpt>
      <trkpt lat="43.326690673828" lon="-7.573860168457">
        <ele>439</ele>
        <time>2019-09-11T08:46:21+00:00</time>
      </trkpt>
      <trkpt lat="43.326686859131" lon="-7.573878288269">
        <ele>439</ele>
        <time>2019-09-11T08:46:22+00:00</time>
      </trkpt>
      <trkpt lat="43.326683044434" lon="-7.5738949775696">
        <ele>438</ele>
        <time>2019-09-11T08:46:23+00:00</time>
      </trkpt>
      <trkpt lat="43.326679229736" lon="-7.5739116668701">
        <ele>438</ele>
        <time>2019-09-11T08:46:24+00:00</time>
      </trkpt>
      <trkpt lat="43.326671600342" lon="-7.5739297866821">
        <ele>438</ele>
        <time>2019-09-11T08:46:25+00:00</time>
      </trkpt>
      <trkpt lat="43.326671600342" lon="-7.5739450454712">
        <ele>438</ele>
        <time>2019-09-11T08:46:26+00:00</time>
      </trkpt>
      <trkpt lat="43.326663970947" lon="-7.5739617347717">
        <ele>438</ele>
        <time>2019-09-11T08:46:27+00:00</time>
      </trkpt>
      <trkpt lat="43.32666015625" lon="-7.5739798545837">
        <ele>438</ele>
        <time>2019-09-11T08:46:28+00:00</time>
      </trkpt>
      <trkpt lat="43.326656341553" lon="-7.5739951133728">
        <ele>438</ele>
        <time>2019-09-11T08:46:29+00:00</time>
      </trkpt>
      <trkpt lat="43.326652526855" lon="-7.5740065574646">
        <ele>438</ele>
        <time>2019-09-11T08:46:30+00:00</time>
      </trkpt>
      <trkpt lat="43.326648712158" lon="-7.574019908905">
        <ele>438</ele>
        <time>2019-09-11T08:46:31+00:00</time>
      </trkpt>
      <trkpt lat="43.326648712158" lon="-7.5740365982056">
        <ele>438</ele>
        <time>2019-09-11T08:46:32+00:00</time>
      </trkpt>
      <trkpt lat="43.326644897461" lon="-7.574049949646">
        <ele>437</ele>
        <time>2019-09-11T08:46:33+00:00</time>
      </trkpt>
      <trkpt lat="43.326641082764" lon="-7.5740666389465">
        <ele>437</ele>
        <time>2019-09-11T08:46:34+00:00</time>
      </trkpt>
      <trkpt lat="43.326633453369" lon="-7.5740833282471">
        <ele>437</ele>
        <time>2019-09-11T08:46:35+00:00</time>
      </trkpt>
      <trkpt lat="43.326629638672" lon="-7.5741000175476">
        <ele>437</ele>
        <time>2019-09-11T08:46:36+00:00</time>
      </trkpt>
      <trkpt lat="43.326629638672" lon="-7.5741181373596">
        <ele>437</ele>
        <time>2019-09-11T08:46:37+00:00</time>
      </trkpt>
      <trkpt lat="43.326622009277" lon="-7.5741381645203">
        <ele>437</ele>
        <time>2019-09-11T08:46:38+00:00</time>
      </trkpt>
      <trkpt lat="43.32661819458" lon="-7.5741567611694">
        <ele>437</ele>
        <time>2019-09-11T08:46:39+00:00</time>
      </trkpt>
      <trkpt lat="43.326614379883" lon="-7.57417345047">
        <ele>437</ele>
        <time>2019-09-11T08:46:40+00:00</time>
      </trkpt>
      <trkpt lat="43.326606750488" lon="-7.5741848945618">
        <ele>437</ele>
        <time>2019-09-11T08:46:41+00:00</time>
      </trkpt>
      <trkpt lat="43.326595306396" lon="-7.5741968154907">
        <ele>437</ele>
        <time>2019-09-11T08:46:42+00:00</time>
      </trkpt>
      <trkpt lat="43.326587677002" lon="-7.5742101669312">
        <ele>437</ele>
        <time>2019-09-11T08:46:43+00:00</time>
      </trkpt>
      <trkpt lat="43.326580047607" lon="-7.5742216110229">
        <ele>437</ele>
        <time>2019-09-11T08:46:44+00:00</time>
      </trkpt>
      <trkpt lat="43.326572418213" lon="-7.574236869812">
        <ele>437</ele>
        <time>2019-09-11T08:46:45+00:00</time>
      </trkpt>
      <trkpt lat="43.326564788818" lon="-7.5742449760437">
        <ele>437</ele>
        <time>2019-09-11T08:46:46+00:00</time>
      </trkpt>
      <trkpt lat="43.326560974121" lon="-7.5742568969727">
        <ele>437</ele>
        <time>2019-09-11T08:46:47+00:00</time>
      </trkpt>
      <trkpt lat="43.326553344727" lon="-7.5742683410645">
        <ele>437</ele>
        <time>2019-09-11T08:46:48+00:00</time>
      </trkpt>
      <trkpt lat="43.326545715332" lon="-7.5742783546448">
        <ele>437</ele>
        <time>2019-09-11T08:46:49+00:00</time>
      </trkpt>
      <trkpt lat="43.326541900635" lon="-7.5742931365967">
        <ele>437</ele>
        <time>2019-09-11T08:46:50+00:00</time>
      </trkpt>
      <trkpt lat="43.326541900635" lon="-7.5743064880371">
        <ele>437</ele>
        <time>2019-09-11T08:46:51+00:00</time>
      </trkpt>
      <trkpt lat="43.32653427124" lon="-7.5743384361267">
        <ele>436</ele>
        <time>2019-09-11T08:46:53+00:00</time>
      </trkpt>
      <trkpt lat="43.32653427124" lon="-7.5743584632874">
        <ele>436</ele>
        <time>2019-09-11T08:46:54+00:00</time>
      </trkpt>
      <trkpt lat="43.32653427124" lon="-7.574378490448">
        <ele>436</ele>
        <time>2019-09-11T08:46:55+00:00</time>
      </trkpt>
      <trkpt lat="43.326526641846" lon="-7.5743951797485">
        <ele>436</ele>
        <time>2019-09-11T08:46:56+00:00</time>
      </trkpt>
      <trkpt lat="43.326522827148" lon="-7.5744118690491">
        <ele>436</ele>
        <time>2019-09-11T08:46:57+00:00</time>
      </trkpt>
      <trkpt lat="43.326515197754" lon="-7.5744252204895">
        <ele>436</ele>
        <time>2019-09-11T08:46:58+00:00</time>
      </trkpt>
      <trkpt lat="43.326511383057" lon="-7.5744533538818">
        <ele>436</ele>
        <time>2019-09-11T08:47:00+00:00</time>
      </trkpt>
      <trkpt lat="43.326511383057" lon="-7.5744614601135">
        <ele>435</ele>
        <time>2019-09-11T08:47:01+00:00</time>
      </trkpt>
      <trkpt lat="43.326503753662" lon="-7.5744733810425">
        <ele>435</ele>
        <time>2019-09-11T08:47:02+00:00</time>
      </trkpt>
      <trkpt lat="43.32649230957" lon="-7.5744881629944">
        <ele>435</ele>
        <time>2019-09-11T08:47:03+00:00</time>
      </trkpt>
      <trkpt lat="43.326477050781" lon="-7.5745048522949">
        <ele>435</ele>
        <time>2019-09-11T08:47:04+00:00</time>
      </trkpt>
      <trkpt lat="43.326461791992" lon="-7.5745148658752">
        <ele>435</ele>
        <time>2019-09-11T08:47:05+00:00</time>
      </trkpt>
      <trkpt lat="43.3264503479" lon="-7.5745415687561">
        <ele>435</ele>
        <time>2019-09-11T08:47:07+00:00</time>
      </trkpt>
      <trkpt lat="43.326446533203" lon="-7.5745568275452">
        <ele>435</ele>
        <time>2019-09-11T08:47:08+00:00</time>
      </trkpt>
      <trkpt lat="43.326435089111" lon="-7.5745968818665">
        <ele>435</ele>
        <time>2019-09-11T08:47:10+00:00</time>
      </trkpt>
      <trkpt lat="43.326427459717" lon="-7.5746164321899">
        <ele>435</ele>
        <time>2019-09-11T08:47:11+00:00</time>
      </trkpt>
      <trkpt lat="43.326416015625" lon="-7.5746464729309">
        <ele>435</ele>
        <time>2019-09-11T08:47:13+00:00</time>
      </trkpt>
      <trkpt lat="43.32640838623" lon="-7.5746598243713">
        <ele>435</ele>
        <time>2019-09-11T08:47:14+00:00</time>
      </trkpt>
      <trkpt lat="43.326404571533" lon="-7.5746750831604">
        <ele>435</ele>
        <time>2019-09-11T08:47:15+00:00</time>
      </trkpt>
      <trkpt lat="43.326400756836" lon="-7.5746884346008">
        <ele>435</ele>
        <time>2019-09-11T08:47:16+00:00</time>
      </trkpt>
      <trkpt lat="43.326393127441" lon="-7.5747017860413">
        <ele>435</ele>
        <time>2019-09-11T08:47:17+00:00</time>
      </trkpt>
      <trkpt lat="43.326393127441" lon="-7.5747165679932">
        <ele>435</ele>
        <time>2019-09-11T08:47:18+00:00</time>
      </trkpt>
      <trkpt lat="43.326389312744" lon="-7.5747299194336">
        <ele>435</ele>
        <time>2019-09-11T08:47:19+00:00</time>
      </trkpt>
      <trkpt lat="43.32638168335" lon="-7.574743270874">
        <ele>434</ele>
        <time>2019-09-11T08:47:20+00:00</time>
      </trkpt>
      <trkpt lat="43.32638168335" lon="-7.5747532844543">
        <ele>434</ele>
        <time>2019-09-11T08:47:21+00:00</time>
      </trkpt>
      <trkpt lat="43.32638168335" lon="-7.5747666358948">
        <ele>434</ele>
        <time>2019-09-11T08:47:22+00:00</time>
      </trkpt>
      <trkpt lat="43.326374053955" lon="-7.5747852325439">
        <ele>435</ele>
        <time>2019-09-11T08:47:23+00:00</time>
      </trkpt>
      <trkpt lat="43.326370239258" lon="-7.5747981071472">
        <ele>434</ele>
        <time>2019-09-11T08:47:24+00:00</time>
      </trkpt>
      <trkpt lat="43.326370239258" lon="-7.5748133659363">
        <ele>434</ele>
        <time>2019-09-11T08:47:25+00:00</time>
      </trkpt>
      <trkpt lat="43.326366424561" lon="-7.5748467445374">
        <ele>435</ele>
        <time>2019-09-11T08:47:27+00:00</time>
      </trkpt>
      <trkpt lat="43.326358795166" lon="-7.5748634338379">
        <ele>435</ele>
        <time>2019-09-11T08:47:28+00:00</time>
      </trkpt>
      <trkpt lat="43.326351165771" lon="-7.5748815536499">
        <ele>435</ele>
        <time>2019-09-11T08:47:29+00:00</time>
      </trkpt>
      <trkpt lat="43.32633972168" lon="-7.5749101638794">
        <ele>435</ele>
        <time>2019-09-11T08:47:31+00:00</time>
      </trkpt>
      <trkpt lat="43.326335906982" lon="-7.5749216079712">
        <ele>435</ele>
        <time>2019-09-11T08:47:32+00:00</time>
      </trkpt>
      <trkpt lat="43.326332092285" lon="-7.5749368667603">
        <ele>435</ele>
        <time>2019-09-11T08:47:33+00:00</time>
      </trkpt>
      <trkpt lat="43.326328277588" lon="-7.5749502182007">
        <ele>435</ele>
        <time>2019-09-11T08:47:34+00:00</time>
      </trkpt>
      <trkpt lat="43.326324462891" lon="-7.5749616622925">
        <ele>435</ele>
        <time>2019-09-11T08:47:35+00:00</time>
      </trkpt>
      <trkpt lat="43.326324462891" lon="-7.5749764442444">
        <ele>435</ele>
        <time>2019-09-11T08:47:36+00:00</time>
      </trkpt>
      <trkpt lat="43.326324462891" lon="-7.5749883651733">
        <ele>435</ele>
        <time>2019-09-11T08:47:37+00:00</time>
      </trkpt>
      <trkpt lat="43.326316833496" lon="-7.5749950408936">
        <ele>434</ele>
        <time>2019-09-11T08:47:38+00:00</time>
      </trkpt>
      <trkpt lat="43.326313018799" lon="-7.5750098228455">
        <ele>434</ele>
        <time>2019-09-11T08:47:39+00:00</time>
      </trkpt>
      <trkpt lat="43.326305389404" lon="-7.5750250816345">
        <ele>434</ele>
        <time>2019-09-11T08:47:40+00:00</time>
      </trkpt>
      <trkpt lat="43.326301574707" lon="-7.5750365257263">
        <ele>434</ele>
        <time>2019-09-11T08:47:41+00:00</time>
      </trkpt>
      <trkpt lat="43.326301574707" lon="-7.5750517845154">
        <ele>434</ele>
        <time>2019-09-11T08:47:42+00:00</time>
      </trkpt>
      <trkpt lat="43.32629776001" lon="-7.5750684738159">
        <ele>434</ele>
        <time>2019-09-11T08:47:43+00:00</time>
      </trkpt>
      <trkpt lat="43.326290130615" lon="-7.575089931488">
        <ele>434</ele>
        <time>2019-09-11T08:47:44+00:00</time>
      </trkpt>
      <trkpt lat="43.326274871826" lon="-7.5751099586487">
        <ele>434</ele>
        <time>2019-09-11T08:47:45+00:00</time>
      </trkpt>
      <trkpt lat="43.326274871826" lon="-7.5751333236694">
        <ele>434</ele>
        <time>2019-09-11T08:47:46+00:00</time>
      </trkpt>
      <trkpt lat="43.326271057129" lon="-7.57515001297">
        <ele>434</ele>
        <time>2019-09-11T08:47:47+00:00</time>
      </trkpt>
      <trkpt lat="43.326274871826" lon="-7.5751647949219">
        <ele>433</ele>
        <time>2019-09-11T08:47:48+00:00</time>
      </trkpt>
      <trkpt lat="43.326271057129" lon="-7.5751800537109">
        <ele>433</ele>
        <time>2019-09-11T08:47:49+00:00</time>
      </trkpt>
      <trkpt lat="43.326267242432" lon="-7.5751948356628">
        <ele>433</ele>
        <time>2019-09-11T08:47:50+00:00</time>
      </trkpt>
      <trkpt lat="43.326263427734" lon="-7.5752100944519">
        <ele>433</ele>
        <time>2019-09-11T08:47:51+00:00</time>
      </trkpt>
      <trkpt lat="43.326259613037" lon="-7.5752215385437">
        <ele>433</ele>
        <time>2019-09-11T08:47:52+00:00</time>
      </trkpt>
      <trkpt lat="43.326251983643" lon="-7.5752348899841">
        <ele>433</ele>
        <time>2019-09-11T08:47:53+00:00</time>
      </trkpt>
      <trkpt lat="43.326248168945" lon="-7.5752515792847">
        <ele>433</ele>
        <time>2019-09-11T08:47:54+00:00</time>
      </trkpt>
      <trkpt lat="43.326240539551" lon="-7.5752649307251">
        <ele>433</ele>
        <time>2019-09-11T08:47:55+00:00</time>
      </trkpt>
      <trkpt lat="43.326232910156" lon="-7.5752882957458">
        <ele>433</ele>
        <time>2019-09-11T08:47:57+00:00</time>
      </trkpt>
      <trkpt lat="43.326229095459" lon="-7.5753002166748">
        <ele>433</ele>
        <time>2019-09-11T08:47:58+00:00</time>
      </trkpt>
      <trkpt lat="43.326221466064" lon="-7.5753049850464">
        <ele>432</ele>
        <time>2019-09-11T08:47:59+00:00</time>
      </trkpt>
      <trkpt lat="43.32621383667" lon="-7.5753135681152">
        <ele>432</ele>
        <time>2019-09-11T08:48:00+00:00</time>
      </trkpt>
      <trkpt lat="43.326210021973" lon="-7.5753231048584">
        <ele>432</ele>
        <time>2019-09-11T08:48:02+00:00</time>
      </trkpt>
      <trkpt lat="43.326206207275" lon="-7.5753364562988">
        <ele>432</ele>
        <time>2019-09-11T08:48:03+00:00</time>
      </trkpt>
      <trkpt lat="43.326198577881" lon="-7.5753531455994">
        <ele>432</ele>
        <time>2019-09-11T08:48:04+00:00</time>
      </trkpt>
      <trkpt lat="43.326190948486" lon="-7.5753684043884">
        <ele>432</ele>
        <time>2019-09-11T08:48:05+00:00</time>
      </trkpt>
      <trkpt lat="43.326183319092" lon="-7.5753831863403">
        <ele>432</ele>
        <time>2019-09-11T08:48:06+00:00</time>
      </trkpt>
      <trkpt lat="43.326183319092" lon="-7.5753951072693">
        <ele>432</ele>
        <time>2019-09-11T08:48:07+00:00</time>
      </trkpt>
      <trkpt lat="43.326183319092" lon="-7.5754117965698">
        <ele>432</ele>
        <time>2019-09-11T08:48:08+00:00</time>
      </trkpt>
      <trkpt lat="43.326175689697" lon="-7.5754251480103">
        <ele>432</ele>
        <time>2019-09-11T08:48:09+00:00</time>
      </trkpt>
      <trkpt lat="43.326171875" lon="-7.5754332542419">
        <ele>432</ele>
        <time>2019-09-11T08:48:10+00:00</time>
      </trkpt>
      <trkpt lat="43.326168060303" lon="-7.5754432678223">
        <ele>432</ele>
        <time>2019-09-11T08:48:11+00:00</time>
      </trkpt>
      <trkpt lat="43.326164245605" lon="-7.5754532814026">
        <ele>431</ele>
        <time>2019-09-11T08:48:12+00:00</time>
      </trkpt>
      <trkpt lat="43.326156616211" lon="-7.5754599571228">
        <ele>431</ele>
        <time>2019-09-11T08:48:13+00:00</time>
      </trkpt>
      <trkpt lat="43.326156616211" lon="-7.5754718780518">
        <ele>431</ele>
        <time>2019-09-11T08:48:14+00:00</time>
      </trkpt>
      <trkpt lat="43.326148986816" lon="-7.5754885673523">
        <ele>431</ele>
        <time>2019-09-11T08:48:15+00:00</time>
      </trkpt>
      <trkpt lat="43.326141357422" lon="-7.5755033493042">
        <ele>430</ele>
        <time>2019-09-11T08:48:16+00:00</time>
      </trkpt>
      <trkpt lat="43.326133728027" lon="-7.5755114555359">
        <ele>430</ele>
        <time>2019-09-11T08:48:17+00:00</time>
      </trkpt>
      <trkpt lat="43.326122283936" lon="-7.5755214691162">
        <ele>430</ele>
        <time>2019-09-11T08:48:18+00:00</time>
      </trkpt>
      <trkpt lat="43.326114654541" lon="-7.5755300521851">
        <ele>430</ele>
        <time>2019-09-11T08:48:19+00:00</time>
      </trkpt>
      <trkpt lat="43.326114654541" lon="-7.5755400657654">
        <ele>429</ele>
        <time>2019-09-11T08:48:20+00:00</time>
      </trkpt>
      <trkpt lat="43.326110839844" lon="-7.5755481719971">
        <ele>429</ele>
        <time>2019-09-11T08:48:21+00:00</time>
      </trkpt>
      <trkpt lat="43.326103210449" lon="-7.5755615234375">
        <ele>429</ele>
        <time>2019-09-11T08:48:22+00:00</time>
      </trkpt>
      <trkpt lat="43.326099395752" lon="-7.5755767822266">
        <ele>429</ele>
        <time>2019-09-11T08:48:23+00:00</time>
      </trkpt>
      <trkpt lat="43.326091766357" lon="-7.5755882263184">
        <ele>429</ele>
        <time>2019-09-11T08:48:24+00:00</time>
      </trkpt>
      <trkpt lat="43.326084136963" lon="-7.5756001472473">
        <ele>429</ele>
        <time>2019-09-11T08:48:25+00:00</time>
      </trkpt>
      <trkpt lat="43.326076507568" lon="-7.575608253479">
        <ele>429</ele>
        <time>2019-09-11T08:48:26+00:00</time>
      </trkpt>
      <trkpt lat="43.326065063477" lon="-7.575620174408">
        <ele>429</ele>
        <time>2019-09-11T08:48:27+00:00</time>
      </trkpt>
      <trkpt lat="43.326061248779" lon="-7.5756316184998">
        <ele>429</ele>
        <time>2019-09-11T08:48:28+00:00</time>
      </trkpt>
      <trkpt lat="43.326053619385" lon="-7.5756449699402">
        <ele>428</ele>
        <time>2019-09-11T08:48:29+00:00</time>
      </trkpt>
      <trkpt lat="43.326053619385" lon="-7.5756616592407">
        <ele>428</ele>
        <time>2019-09-11T08:48:30+00:00</time>
      </trkpt>
      <trkpt lat="43.326049804688" lon="-7.5756850242615">
        <ele>428</ele>
        <time>2019-09-11T08:48:31+00:00</time>
      </trkpt>
      <trkpt lat="43.326042175293" lon="-7.5756998062134">
        <ele>428</ele>
        <time>2019-09-11T08:48:32+00:00</time>
      </trkpt>
      <trkpt lat="43.326038360596" lon="-7.5757098197937">
        <ele>428</ele>
        <time>2019-09-11T08:48:33+00:00</time>
      </trkpt>
      <trkpt lat="43.326038360596" lon="-7.5757217407227">
        <ele>428</ele>
        <time>2019-09-11T08:48:34+00:00</time>
      </trkpt>
      <trkpt lat="43.326034545898" lon="-7.5757331848145">
        <ele>428</ele>
        <time>2019-09-11T08:48:35+00:00</time>
      </trkpt>
      <trkpt lat="43.326026916504" lon="-7.5757484436035">
        <ele>428</ele>
        <time>2019-09-11T08:48:36+00:00</time>
      </trkpt>
      <trkpt lat="43.326019287109" lon="-7.5757584571838">
        <ele>427</ele>
        <time>2019-09-11T08:48:37+00:00</time>
      </trkpt>
      <trkpt lat="43.326015472412" lon="-7.5757751464844">
        <ele>427</ele>
        <time>2019-09-11T08:48:38+00:00</time>
      </trkpt>
      <trkpt lat="43.326011657715" lon="-7.5757918357849">
        <ele>427</ele>
        <time>2019-09-11T08:48:39+00:00</time>
      </trkpt>
      <trkpt lat="43.326007843018" lon="-7.5758266448975">
        <ele>428</ele>
        <time>2019-09-11T08:48:40+00:00</time>
      </trkpt>
      <trkpt lat="43.32600402832" lon="-7.5758466720581">
        <ele>428</ele>
        <time>2019-09-11T08:48:41+00:00</time>
      </trkpt>
      <trkpt lat="43.326000213623" lon="-7.5758666992188">
        <ele>428</ele>
        <time>2019-09-11T08:48:42+00:00</time>
      </trkpt>
      <trkpt lat="43.326000213623" lon="-7.5758900642395">
        <ele>428</ele>
        <time>2019-09-11T08:48:43+00:00</time>
      </trkpt>
      <trkpt lat="43.325988769531" lon="-7.5759034156799">
        <ele>428</ele>
        <time>2019-09-11T08:48:44+00:00</time>
      </trkpt>
      <trkpt lat="43.325981140137" lon="-7.5759167671204">
        <ele>428</ele>
        <time>2019-09-11T08:48:45+00:00</time>
      </trkpt>
      <trkpt lat="43.325973510742" lon="-7.5759282112122">
        <ele>428</ele>
        <time>2019-09-11T08:48:46+00:00</time>
      </trkpt>
      <trkpt lat="43.325969696045" lon="-7.5759434700012">
        <ele>428</ele>
        <time>2019-09-11T08:48:47+00:00</time>
      </trkpt>
      <trkpt lat="43.32596206665" lon="-7.5759568214417">
        <ele>427</ele>
        <time>2019-09-11T08:48:48+00:00</time>
      </trkpt>
      <trkpt lat="43.325958251953" lon="-7.575966835022">
        <ele>427</ele>
        <time>2019-09-11T08:48:49+00:00</time>
      </trkpt>
      <trkpt lat="43.325954437256" lon="-7.5759768486023">
        <ele>427</ele>
        <time>2019-09-11T08:48:50+00:00</time>
      </trkpt>
      <trkpt lat="43.325950622559" lon="-7.5759868621826">
        <ele>427</ele>
        <time>2019-09-11T08:48:51+00:00</time>
      </trkpt>
      <trkpt lat="43.325942993164" lon="-7.5760016441345">
        <ele>428</ele>
        <time>2019-09-11T08:48:52+00:00</time>
      </trkpt>
      <trkpt lat="43.32593536377" lon="-7.5760169029236">
        <ele>428</ele>
        <time>2019-09-11T08:48:53+00:00</time>
      </trkpt>
      <trkpt lat="43.325931549072" lon="-7.5760397911072">
        <ele>428</ele>
        <time>2019-09-11T08:48:54+00:00</time>
      </trkpt>
      <trkpt lat="43.325923919678" lon="-7.5760598182678">
        <ele>428</ele>
        <time>2019-09-11T08:48:55+00:00</time>
      </trkpt>
      <trkpt lat="43.325916290283" lon="-7.576078414917">
        <ele>428</ele>
        <time>2019-09-11T08:48:56+00:00</time>
      </trkpt>
      <trkpt lat="43.325908660889" lon="-7.576096534729">
        <ele>428</ele>
        <time>2019-09-11T08:48:57+00:00</time>
      </trkpt>
      <trkpt lat="43.325901031494" lon="-7.5761132240295">
        <ele>428</ele>
        <time>2019-09-11T08:48:58+00:00</time>
      </trkpt>
      <trkpt lat="43.3258934021" lon="-7.5761299133301">
        <ele>428</ele>
        <time>2019-09-11T08:48:59+00:00</time>
      </trkpt>
      <trkpt lat="43.325885772705" lon="-7.5761451721191">
        <ele>428</ele>
        <time>2019-09-11T08:49:00+00:00</time>
      </trkpt>
      <trkpt lat="43.325878143311" lon="-7.5761618614197">
        <ele>428</ele>
        <time>2019-09-11T08:49:01+00:00</time>
      </trkpt>
      <trkpt lat="43.325870513916" lon="-7.5761733055115">
        <ele>428</ele>
        <time>2019-09-11T08:49:02+00:00</time>
      </trkpt>
      <trkpt lat="43.325862884521" lon="-7.5761833190918">
        <ele>428</ele>
        <time>2019-09-11T08:49:03+00:00</time>
      </trkpt>
      <trkpt lat="43.325855255127" lon="-7.5761947631836">
        <ele>428</ele>
        <time>2019-09-11T08:49:04+00:00</time>
      </trkpt>
      <trkpt lat="43.32585144043" lon="-7.5762066841125">
        <ele>428</ele>
        <time>2019-09-11T08:49:05+00:00</time>
      </trkpt>
      <trkpt lat="43.325847625732" lon="-7.5762233734131">
        <ele>428</ele>
        <time>2019-09-11T08:49:06+00:00</time>
      </trkpt>
      <trkpt lat="43.325843811035" lon="-7.5762367248535">
        <ele>428</ele>
        <time>2019-09-11T08:49:07+00:00</time>
      </trkpt>
      <trkpt lat="43.325836181641" lon="-7.5762500762939">
        <ele>428</ele>
        <time>2019-09-11T08:49:08+00:00</time>
      </trkpt>
      <trkpt lat="43.325828552246" lon="-7.5762581825256">
        <ele>428</ele>
        <time>2019-09-11T08:49:09+00:00</time>
      </trkpt>
      <trkpt lat="43.325824737549" lon="-7.5762734413147">
        <ele>428</ele>
        <time>2019-09-11T08:49:10+00:00</time>
      </trkpt>
      <trkpt lat="43.325817108154" lon="-7.5762901306152">
        <ele>428</ele>
        <time>2019-09-11T08:49:11+00:00</time>
      </trkpt>
      <trkpt lat="43.32580947876" lon="-7.5763034820557">
        <ele>428</ele>
        <time>2019-09-11T08:49:12+00:00</time>
      </trkpt>
      <trkpt lat="43.325801849365" lon="-7.5763168334961">
        <ele>428</ele>
        <time>2019-09-11T08:49:13+00:00</time>
      </trkpt>
      <trkpt lat="43.325790405273" lon="-7.5763301849365">
        <ele>428</ele>
        <time>2019-09-11T08:49:14+00:00</time>
      </trkpt>
      <trkpt lat="43.325778961182" lon="-7.5763449668884">
        <ele>428</ele>
        <time>2019-09-11T08:49:15+00:00</time>
      </trkpt>
      <trkpt lat="43.325771331787" lon="-7.5763583183289">
        <ele>428</ele>
        <time>2019-09-11T08:49:16+00:00</time>
      </trkpt>
      <trkpt lat="43.325771331787" lon="-7.5763683319092">
        <ele>428</ele>
        <time>2019-09-11T08:49:17+00:00</time>
      </trkpt>
      <trkpt lat="43.325759887695" lon="-7.5763783454895">
        <ele>429</ele>
        <time>2019-09-11T08:49:18+00:00</time>
      </trkpt>
      <trkpt lat="43.325759887695" lon="-7.5763916969299">
        <ele>429</ele>
        <time>2019-09-11T08:49:19+00:00</time>
      </trkpt>
      <trkpt lat="43.325759887695" lon="-7.5764050483704">
        <ele>429</ele>
        <time>2019-09-11T08:49:20+00:00</time>
      </trkpt>
      <trkpt lat="43.325756072998" lon="-7.5764183998108">
        <ele>429</ele>
        <time>2019-09-11T08:49:21+00:00</time>
      </trkpt>
      <trkpt lat="43.325756072998" lon="-7.5764298439026">
        <ele>428</ele>
        <time>2019-09-11T08:49:22+00:00</time>
      </trkpt>
      <trkpt lat="43.325748443604" lon="-7.576443195343">
        <ele>428</ele>
        <time>2019-09-11T08:49:23+00:00</time>
      </trkpt>
      <trkpt lat="43.325748443604" lon="-7.576455116272">
        <ele>428</ele>
        <time>2019-09-11T08:49:24+00:00</time>
      </trkpt>
      <trkpt lat="43.325744628906" lon="-7.5764698982239">
        <ele>428</ele>
        <time>2019-09-11T08:49:25+00:00</time>
      </trkpt>
      <trkpt lat="43.325736999512" lon="-7.5764865875244">
        <ele>428</ele>
        <time>2019-09-11T08:49:26+00:00</time>
      </trkpt>
      <trkpt lat="43.325729370117" lon="-7.576503276825">
        <ele>428</ele>
        <time>2019-09-11T08:49:27+00:00</time>
      </trkpt>
      <trkpt lat="43.325721740723" lon="-7.5765199661255">
        <ele>428</ele>
        <time>2019-09-11T08:49:28+00:00</time>
      </trkpt>
      <trkpt lat="43.325717926025" lon="-7.5765352249146">
        <ele>428</ele>
        <time>2019-09-11T08:49:29+00:00</time>
      </trkpt>
      <trkpt lat="43.325706481934" lon="-7.5765480995178">
        <ele>428</ele>
        <time>2019-09-11T08:49:30+00:00</time>
      </trkpt>
      <trkpt lat="43.325702667236" lon="-7.5765647888184">
        <ele>428</ele>
        <time>2019-09-11T08:49:31+00:00</time>
      </trkpt>
      <trkpt lat="43.325698852539" lon="-7.5765800476074">
        <ele>428</ele>
        <time>2019-09-11T08:49:32+00:00</time>
      </trkpt>
      <trkpt lat="43.325691223145" lon="-7.576596736908">
        <ele>428</ele>
        <time>2019-09-11T08:49:33+00:00</time>
      </trkpt>
      <trkpt lat="43.325687408447" lon="-7.5766100883484">
        <ele>428</ele>
        <time>2019-09-11T08:49:34+00:00</time>
      </trkpt>
      <trkpt lat="43.32568359375" lon="-7.5766248703003">
        <ele>428</ele>
        <time>2019-09-11T08:49:35+00:00</time>
      </trkpt>
      <trkpt lat="43.325679779053" lon="-7.5766382217407">
        <ele>428</ele>
        <time>2019-09-11T08:49:36+00:00</time>
      </trkpt>
      <trkpt lat="43.325668334961" lon="-7.5766568183899">
        <ele>428</ele>
        <time>2019-09-11T08:49:37+00:00</time>
      </trkpt>
      <trkpt lat="43.325664520264" lon="-7.5766801834106">
        <ele>428</ele>
        <time>2019-09-11T08:49:38+00:00</time>
      </trkpt>
      <trkpt lat="43.325656890869" lon="-7.5766968727112">
        <ele>428</ele>
        <time>2019-09-11T08:49:39+00:00</time>
      </trkpt>
      <trkpt lat="43.325649261475" lon="-7.5767116546631">
        <ele>428</ele>
        <time>2019-09-11T08:49:40+00:00</time>
      </trkpt>
      <trkpt lat="43.325645446777" lon="-7.5767316818237">
        <ele>428</ele>
        <time>2019-09-11T08:49:41+00:00</time>
      </trkpt>
      <trkpt lat="43.325637817383" lon="-7.5767483711243">
        <ele>428</ele>
        <time>2019-09-11T08:49:42+00:00</time>
      </trkpt>
      <trkpt lat="43.325630187988" lon="-7.5767650604248">
        <ele>428</ele>
        <time>2019-09-11T08:49:43+00:00</time>
      </trkpt>
      <trkpt lat="43.325630187988" lon="-7.5767798423767">
        <ele>428</ele>
        <time>2019-09-11T08:49:44+00:00</time>
      </trkpt>
      <trkpt lat="43.325618743896" lon="-7.5767951011658">
        <ele>428</ele>
        <time>2019-09-11T08:49:45+00:00</time>
      </trkpt>
      <trkpt lat="43.325603485107" lon="-7.5768065452576">
        <ele>428</ele>
        <time>2019-09-11T08:49:46+00:00</time>
      </trkpt>
      <trkpt lat="43.325592041016" lon="-7.5768232345581">
        <ele>428</ele>
        <time>2019-09-11T08:49:47+00:00</time>
      </trkpt>
      <trkpt lat="43.325588226318" lon="-7.5768351554871">
        <ele>428</ele>
        <time>2019-09-11T08:49:48+00:00</time>
      </trkpt>
      <trkpt lat="43.325580596924" lon="-7.5768432617188">
        <ele>428</ele>
        <time>2019-09-11T08:49:49+00:00</time>
      </trkpt>
      <trkpt lat="43.325572967529" lon="-7.5768566131592">
        <ele>428</ele>
        <time>2019-09-11T08:49:50+00:00</time>
      </trkpt>
      <trkpt lat="43.325572967529" lon="-7.5768699645996">
        <ele>428</ele>
        <time>2019-09-11T08:49:51+00:00</time>
      </trkpt>
      <trkpt lat="43.325569152832" lon="-7.5768818855286">
        <ele>428</ele>
        <time>2019-09-11T08:49:52+00:00</time>
      </trkpt>
      <trkpt lat="43.325561523438" lon="-7.5768966674805">
        <ele>428</ele>
        <time>2019-09-11T08:49:53+00:00</time>
      </trkpt>
      <trkpt lat="43.325561523438" lon="-7.576913356781">
        <ele>428</ele>
        <time>2019-09-11T08:49:54+00:00</time>
      </trkpt>
      <trkpt lat="43.325565338135" lon="-7.5769281387329">
        <ele>428</ele>
        <time>2019-09-11T08:49:55+00:00</time>
      </trkpt>
      <trkpt lat="43.325565338135" lon="-7.5769414901733">
        <ele>428</ele>
        <time>2019-09-11T08:49:56+00:00</time>
      </trkpt>
      <trkpt lat="43.325561523438" lon="-7.5769567489624">
        <ele>428</ele>
        <time>2019-09-11T08:49:57+00:00</time>
      </trkpt>
      <trkpt lat="43.325561523438" lon="-7.576976776123">
        <ele>428</ele>
        <time>2019-09-11T08:49:58+00:00</time>
      </trkpt>
      <trkpt lat="43.325561523438" lon="-7.5769882202148">
        <ele>428</ele>
        <time>2019-09-11T08:49:59+00:00</time>
      </trkpt>
      <trkpt lat="43.325561523438" lon="-7.5770049095154">
        <ele>428</ele>
        <time>2019-09-11T08:50:00+00:00</time>
      </trkpt>
      <trkpt lat="43.325561523438" lon="-7.5770215988159">
        <ele>428</ele>
        <time>2019-09-11T08:50:01+00:00</time>
      </trkpt>
      <trkpt lat="43.32555770874" lon="-7.577036857605">
        <ele>428</ele>
        <time>2019-09-11T08:50:02+00:00</time>
      </trkpt>
      <trkpt lat="43.325550079346" lon="-7.5770483016968">
        <ele>428</ele>
        <time>2019-09-11T08:50:03+00:00</time>
      </trkpt>
      <trkpt lat="43.325553894043" lon="-7.5770616531372">
        <ele>428</ele>
        <time>2019-09-11T08:50:04+00:00</time>
      </trkpt>
      <trkpt lat="43.325550079346" lon="-7.577073097229">
        <ele>427</ele>
        <time>2019-09-11T08:50:05+00:00</time>
      </trkpt>
      <trkpt lat="43.325550079346" lon="-7.5770831108093">
        <ele>427</ele>
        <time>2019-09-11T08:50:06+00:00</time>
      </trkpt>
      <trkpt lat="43.325550079346" lon="-7.5770950317383">
        <ele>427</ele>
        <time>2019-09-11T08:50:07+00:00</time>
      </trkpt>
      <trkpt lat="43.325542449951" lon="-7.5771064758301">
        <ele>427</ele>
        <time>2019-09-11T08:50:08+00:00</time>
      </trkpt>
      <trkpt lat="43.325538635254" lon="-7.5771164894104">
        <ele>427</ele>
        <time>2019-09-11T08:50:09+00:00</time>
      </trkpt>
      <trkpt lat="43.325534820557" lon="-7.5771284103394">
        <ele>427</ele>
        <time>2019-09-11T08:50:10+00:00</time>
      </trkpt>
      <trkpt lat="43.325527191162" lon="-7.5771331787109">
        <ele>427</ele>
        <time>2019-09-11T08:50:11+00:00</time>
      </trkpt>
      <trkpt lat="43.325519561768" lon="-7.5771431922913">
        <ele>427</ele>
        <time>2019-09-11T08:50:12+00:00</time>
      </trkpt>
      <trkpt lat="43.32551574707" lon="-7.5771584510803">
        <ele>427</ele>
        <time>2019-09-11T08:50:13+00:00</time>
      </trkpt>
      <trkpt lat="43.32551574707" lon="-7.5771718025208">
        <ele>427</ele>
        <time>2019-09-11T08:50:14+00:00</time>
      </trkpt>
      <trkpt lat="43.32551574707" lon="-7.5771865844727">
        <ele>427</ele>
        <time>2019-09-11T08:50:15+00:00</time>
      </trkpt>
      <trkpt lat="43.325511932373" lon="-7.5772032737732">
        <ele>427</ele>
        <time>2019-09-11T08:50:16+00:00</time>
      </trkpt>
      <trkpt lat="43.325511932373" lon="-7.5772166252136">
        <ele>427</ele>
        <time>2019-09-11T08:50:17+00:00</time>
      </trkpt>
      <trkpt lat="43.325511932373" lon="-7.5772333145142">
        <ele>427</ele>
        <time>2019-09-11T08:50:18+00:00</time>
      </trkpt>
      <trkpt lat="43.32551574707" lon="-7.577241897583">
        <ele>427</ele>
        <time>2019-09-11T08:50:19+00:00</time>
      </trkpt>
      <trkpt lat="43.32551574707" lon="-7.5772533416748">
        <ele>427</ele>
        <time>2019-09-11T08:50:20+00:00</time>
      </trkpt>
      <trkpt lat="43.325519561768" lon="-7.5772681236267">
        <ele>427</ele>
        <time>2019-09-11T08:50:21+00:00</time>
      </trkpt>
      <trkpt lat="43.32551574707" lon="-7.5772848129272">
        <ele>427</ele>
        <time>2019-09-11T08:50:22+00:00</time>
      </trkpt>
      <trkpt lat="43.32551574707" lon="-7.5773034095764">
        <ele>427</ele>
        <time>2019-09-11T08:50:23+00:00</time>
      </trkpt>
      <trkpt lat="43.325519561768" lon="-7.5773148536682">
        <ele>427</ele>
        <time>2019-09-11T08:50:24+00:00</time>
      </trkpt>
      <trkpt lat="43.325519561768" lon="-7.5773215293884">
        <ele>427</ele>
        <time>2019-09-11T08:50:25+00:00</time>
      </trkpt>
      <trkpt lat="43.325519561768" lon="-7.577338218689">
        <ele>427</ele>
        <time>2019-09-11T08:50:26+00:00</time>
      </trkpt>
      <trkpt lat="43.325519561768" lon="-7.5773549079895">
        <ele>426</ele>
        <time>2019-09-11T08:50:27+00:00</time>
      </trkpt>
      <trkpt lat="43.32551574707" lon="-7.5773701667786">
        <ele>426</ele>
        <time>2019-09-11T08:50:28+00:00</time>
      </trkpt>
      <trkpt lat="43.325511932373" lon="-7.5773949623108">
        <ele>426</ele>
        <time>2019-09-11T08:50:29+00:00</time>
      </trkpt>
      <trkpt lat="43.325508117676" lon="-7.5774149894714">
        <ele>426</ele>
        <time>2019-09-11T08:50:30+00:00</time>
      </trkpt>
      <trkpt lat="43.325504302979" lon="-7.5774331092834">
        <ele>426</ele>
        <time>2019-09-11T08:50:31+00:00</time>
      </trkpt>
      <trkpt lat="43.325504302979" lon="-7.5774431228638">
        <ele>426</ele>
        <time>2019-09-11T08:50:32+00:00</time>
      </trkpt>
      <trkpt lat="43.325511932373" lon="-7.5774550437927">
        <ele>426</ele>
        <time>2019-09-11T08:50:33+00:00</time>
      </trkpt>
      <trkpt lat="43.325519561768" lon="-7.5774698257446">
        <ele>426</ele>
        <time>2019-09-11T08:50:34+00:00</time>
      </trkpt>
      <trkpt lat="43.325511932373" lon="-7.5774784088135">
        <ele>426</ele>
        <time>2019-09-11T08:50:35+00:00</time>
      </trkpt>
      <trkpt lat="43.325504302979" lon="-7.5774884223938">
        <ele>426</ele>
        <time>2019-09-11T08:50:36+00:00</time>
      </trkpt>
      <trkpt lat="43.325489044189" lon="-7.5775084495544">
        <ele>426</ele>
        <time>2019-09-11T08:50:37+00:00</time>
      </trkpt>
      <trkpt lat="43.325481414795" lon="-7.5775232315063">
        <ele>426</ele>
        <time>2019-09-11T08:50:38+00:00</time>
      </trkpt>
      <trkpt lat="43.325477600098" lon="-7.5775384902954">
        <ele>426</ele>
        <time>2019-09-11T08:50:39+00:00</time>
      </trkpt>
      <trkpt lat="43.3254737854" lon="-7.5775518417358">
        <ele>426</ele>
        <time>2019-09-11T08:50:40+00:00</time>
      </trkpt>
      <trkpt lat="43.325466156006" lon="-7.5775618553162">
        <ele>426</ele>
        <time>2019-09-11T08:50:41+00:00</time>
      </trkpt>
      <trkpt lat="43.325458526611" lon="-7.5775752067566">
        <ele>426</ele>
        <time>2019-09-11T08:50:42+00:00</time>
      </trkpt>
      <trkpt lat="43.325450897217" lon="-7.5775866508484">
        <ele>426</ele>
        <time>2019-09-11T08:50:43+00:00</time>
      </trkpt>
      <trkpt lat="43.325450897217" lon="-7.5776033401489">
        <ele>426</ele>
        <time>2019-09-11T08:50:44+00:00</time>
      </trkpt>
      <trkpt lat="43.325450897217" lon="-7.5776233673096">
        <ele>426</ele>
        <time>2019-09-11T08:50:45+00:00</time>
      </trkpt>
      <trkpt lat="43.32544708252" lon="-7.5776348114014">
        <ele>426</ele>
        <time>2019-09-11T08:50:46+00:00</time>
      </trkpt>
      <trkpt lat="43.325443267822" lon="-7.5776481628418">
        <ele>426</ele>
        <time>2019-09-11T08:50:47+00:00</time>
      </trkpt>
      <trkpt lat="43.325439453125" lon="-7.577666759491">
        <ele>426</ele>
        <time>2019-09-11T08:50:48+00:00</time>
      </trkpt>
      <trkpt lat="43.32543182373" lon="-7.5776767730713">
        <ele>426</ele>
        <time>2019-09-11T08:50:49+00:00</time>
      </trkpt>
      <trkpt lat="43.325428009033" lon="-7.5776882171631">
        <ele>426</ele>
        <time>2019-09-11T08:50:50+00:00</time>
      </trkpt>
      <trkpt lat="43.325420379639" lon="-7.5776968002319">
        <ele>426</ele>
        <time>2019-09-11T08:50:51+00:00</time>
      </trkpt>
      <trkpt lat="43.325416564941" lon="-7.5777182579041">
        <ele>426</ele>
        <time>2019-09-11T08:50:52+00:00</time>
      </trkpt>
      <trkpt lat="43.325408935547" lon="-7.5777349472046">
        <ele>426</ele>
        <time>2019-09-11T08:50:53+00:00</time>
      </trkpt>
      <trkpt lat="43.325408935547" lon="-7.5777516365051">
        <ele>426</ele>
        <time>2019-09-11T08:50:54+00:00</time>
      </trkpt>
      <trkpt lat="43.325397491455" lon="-7.5777668952942">
        <ele>426</ele>
        <time>2019-09-11T08:50:55+00:00</time>
      </trkpt>
      <trkpt lat="43.325389862061" lon="-7.5777816772461">
        <ele>426</ele>
        <time>2019-09-11T08:50:56+00:00</time>
      </trkpt>
      <trkpt lat="43.325382232666" lon="-7.5777997970581">
        <ele>426</ele>
        <time>2019-09-11T08:50:57+00:00</time>
      </trkpt>
      <trkpt lat="43.325378417969" lon="-7.5778117179871">
        <ele>426</ele>
        <time>2019-09-11T08:50:58+00:00</time>
      </trkpt>
      <trkpt lat="43.325374603271" lon="-7.5778350830078">
        <ele>427</ele>
        <time>2019-09-11T08:50:59+00:00</time>
      </trkpt>
      <trkpt lat="43.325370788574" lon="-7.5778532028198">
        <ele>427</ele>
        <time>2019-09-11T08:51:00+00:00</time>
      </trkpt>
      <trkpt lat="43.325366973877" lon="-7.5778698921204">
        <ele>427</ele>
        <time>2019-09-11T08:51:01+00:00</time>
      </trkpt>
      <trkpt lat="43.32536315918" lon="-7.577889919281">
        <ele>427</ele>
        <time>2019-09-11T08:51:02+00:00</time>
      </trkpt>
      <trkpt lat="43.325355529785" lon="-7.57790184021">
        <ele>427</ele>
        <time>2019-09-11T08:51:03+00:00</time>
      </trkpt>
      <trkpt lat="43.325359344482" lon="-7.5779185295105">
        <ele>427</ele>
        <time>2019-09-11T08:51:04+00:00</time>
      </trkpt>
      <trkpt lat="43.325359344482" lon="-7.5779285430908">
        <ele>427</ele>
        <time>2019-09-11T08:51:05+00:00</time>
      </trkpt>
      <trkpt lat="43.325355529785" lon="-7.5779399871826">
        <ele>427</ele>
        <time>2019-09-11T08:51:06+00:00</time>
      </trkpt>
      <trkpt lat="43.325351715088" lon="-7.577953338623">
        <ele>427</ele>
        <time>2019-09-11T08:51:07+00:00</time>
      </trkpt>
      <trkpt lat="43.325351715088" lon="-7.5779666900635">
        <ele>428</ele>
        <time>2019-09-11T08:51:08+00:00</time>
      </trkpt>
      <trkpt lat="43.325351715088" lon="-7.577983379364">
        <ele>428</ele>
        <time>2019-09-11T08:51:09+00:00</time>
      </trkpt>
      <trkpt lat="43.325347900391" lon="-7.5779967308044">
        <ele>428</ele>
        <time>2019-09-11T08:51:10+00:00</time>
      </trkpt>
      <trkpt lat="43.325344085693" lon="-7.578013420105">
        <ele>428</ele>
        <time>2019-09-11T08:51:11+00:00</time>
      </trkpt>
      <trkpt lat="43.325340270996" lon="-7.5780282020569">
        <ele>428</ele>
        <time>2019-09-11T08:51:12+00:00</time>
      </trkpt>
      <trkpt lat="43.325340270996" lon="-7.5780401229858">
        <ele>427</ele>
        <time>2019-09-11T08:51:13+00:00</time>
      </trkpt>
      <trkpt lat="43.325332641602" lon="-7.5780568122864">
        <ele>427</ele>
        <time>2019-09-11T08:51:14+00:00</time>
      </trkpt>
      <trkpt lat="43.325328826904" lon="-7.5780668258667">
        <ele>427</ele>
        <time>2019-09-11T08:51:15+00:00</time>
      </trkpt>
      <trkpt lat="43.325328826904" lon="-7.5780868530273">
        <ele>427</ele>
        <time>2019-09-11T08:51:16+00:00</time>
      </trkpt>
      <trkpt lat="43.325325012207" lon="-7.5781016349792">
        <ele>427</ele>
        <time>2019-09-11T08:51:17+00:00</time>
      </trkpt>
      <trkpt lat="43.32532119751" lon="-7.5781135559082">
        <ele>427</ele>
        <time>2019-09-11T08:51:18+00:00</time>
      </trkpt>
      <trkpt lat="43.325313568115" lon="-7.5781283378601">
        <ele>427</ele>
        <time>2019-09-11T08:51:19+00:00</time>
      </trkpt>
      <trkpt lat="43.325305938721" lon="-7.5781531333923">
        <ele>427</ele>
        <time>2019-09-11T08:51:20+00:00</time>
      </trkpt>
      <trkpt lat="43.325294494629" lon="-7.578173160553">
        <ele>427</ele>
        <time>2019-09-11T08:51:21+00:00</time>
      </trkpt>
      <trkpt lat="43.325283050537" lon="-7.5781865119934">
        <ele>428</ele>
        <time>2019-09-11T08:51:22+00:00</time>
      </trkpt>
      <trkpt lat="43.325263977051" lon="-7.5781950950623">
        <ele>428</ele>
        <time>2019-09-11T08:51:23+00:00</time>
      </trkpt>
      <trkpt lat="43.325256347656" lon="-7.5782098770142">
        <ele>428</ele>
        <time>2019-09-11T08:51:24+00:00</time>
      </trkpt>
      <trkpt lat="43.325244903564" lon="-7.5782232284546">
        <ele>428</ele>
        <time>2019-09-11T08:51:25+00:00</time>
      </trkpt>
      <trkpt lat="43.325233459473" lon="-7.5782332420349">
        <ele>428</ele>
        <time>2019-09-11T08:51:26+00:00</time>
      </trkpt>
      <trkpt lat="43.325229644775" lon="-7.5782532691956">
        <ele>428</ele>
        <time>2019-09-11T08:51:27+00:00</time>
      </trkpt>
      <trkpt lat="43.325218200684" lon="-7.5782632827759">
        <ele>428</ele>
        <time>2019-09-11T08:51:28+00:00</time>
      </trkpt>
      <trkpt lat="43.325206756592" lon="-7.5782799720764">
        <ele>428</ele>
        <time>2019-09-11T08:51:29+00:00</time>
      </trkpt>
      <trkpt lat="43.325199127197" lon="-7.5782952308655">
        <ele>428</ele>
        <time>2019-09-11T08:51:30+00:00</time>
      </trkpt>
      <trkpt lat="43.325191497803" lon="-7.578314781189">
        <ele>428</ele>
        <time>2019-09-11T08:51:31+00:00</time>
      </trkpt>
      <trkpt lat="43.325187683105" lon="-7.5783333778381">
        <ele>428</ele>
        <time>2019-09-11T08:51:32+00:00</time>
      </trkpt>
      <trkpt lat="43.325187683105" lon="-7.57834815979">
        <ele>428</ele>
        <time>2019-09-11T08:51:33+00:00</time>
      </trkpt>
      <trkpt lat="43.325187683105" lon="-7.5783648490906">
        <ele>428</ele>
        <time>2019-09-11T08:51:34+00:00</time>
      </trkpt>
      <trkpt lat="43.325183868408" lon="-7.5783834457397">
        <ele>428</ele>
        <time>2019-09-11T08:51:35+00:00</time>
      </trkpt>
      <trkpt lat="43.325180053711" lon="-7.5783915519714">
        <ele>428</ele>
        <time>2019-09-11T08:51:36+00:00</time>
      </trkpt>
      <trkpt lat="43.325176239014" lon="-7.5784001350403">
        <ele>428</ele>
        <time>2019-09-11T08:51:37+00:00</time>
      </trkpt>
      <trkpt lat="43.325172424316" lon="-7.5784115791321">
        <ele>428</ele>
        <time>2019-09-11T08:51:38+00:00</time>
      </trkpt>
      <trkpt lat="43.325164794922" lon="-7.5784316062927">
        <ele>428</ele>
        <time>2019-09-11T08:51:39+00:00</time>
      </trkpt>
      <trkpt lat="43.325160980225" lon="-7.5784468650818">
        <ele>428</ele>
        <time>2019-09-11T08:51:40+00:00</time>
      </trkpt>
      <trkpt lat="43.325160980225" lon="-7.5784602165222">
        <ele>428</ele>
        <time>2019-09-11T08:51:41+00:00</time>
      </trkpt>
      <trkpt lat="43.325157165527" lon="-7.5784749984741">
        <ele>428</ele>
        <time>2019-09-11T08:51:42+00:00</time>
      </trkpt>
      <trkpt lat="43.325157165527" lon="-7.5784931182861">
        <ele>428</ele>
        <time>2019-09-11T08:51:43+00:00</time>
      </trkpt>
      <trkpt lat="43.325149536133" lon="-7.5785031318665">
        <ele>428</ele>
        <time>2019-09-11T08:51:44+00:00</time>
      </trkpt>
      <trkpt lat="43.325141906738" lon="-7.5785098075867">
        <ele>428</ele>
        <time>2019-09-11T08:51:45+00:00</time>
      </trkpt>
      <trkpt lat="43.325141906738" lon="-7.5785217285156">
        <ele>428</ele>
        <time>2019-09-11T08:51:46+00:00</time>
      </trkpt>
      <trkpt lat="43.325138092041" lon="-7.5785417556763">
        <ele>428</ele>
        <time>2019-09-11T08:51:47+00:00</time>
      </trkpt>
      <trkpt lat="43.325134277344" lon="-7.578549861908">
        <ele>427</ele>
        <time>2019-09-11T08:51:48+00:00</time>
      </trkpt>
      <trkpt lat="43.325134277344" lon="-7.578565120697">
        <ele>427</ele>
        <time>2019-09-11T08:51:49+00:00</time>
      </trkpt>
      <trkpt lat="43.325130462646" lon="-7.578583240509">
        <ele>427</ele>
        <time>2019-09-11T08:51:50+00:00</time>
      </trkpt>
      <trkpt lat="43.325130462646" lon="-7.5786032676697">
        <ele>427</ele>
        <time>2019-09-11T08:51:51+00:00</time>
      </trkpt>
      <trkpt lat="43.325126647949" lon="-7.5786218643188">
        <ele>427</ele>
        <time>2019-09-11T08:51:52+00:00</time>
      </trkpt>
      <trkpt lat="43.325122833252" lon="-7.5786366462708">
        <ele>427</ele>
        <time>2019-09-11T08:51:53+00:00</time>
      </trkpt>
      <trkpt lat="43.325115203857" lon="-7.5786499977112">
        <ele>427</ele>
        <time>2019-09-11T08:51:54+00:00</time>
      </trkpt>
      <trkpt lat="43.325115203857" lon="-7.5786666870117">
        <ele>427</ele>
        <time>2019-09-11T08:51:55+00:00</time>
      </trkpt>
      <trkpt lat="43.325119018555" lon="-7.5786848068237">
        <ele>427</ele>
        <time>2019-09-11T08:51:56+00:00</time>
      </trkpt>
      <trkpt lat="43.325115203857" lon="-7.5787014961243">
        <ele>426</ele>
        <time>2019-09-11T08:51:57+00:00</time>
      </trkpt>
      <trkpt lat="43.325115203857" lon="-7.5787181854248">
        <ele>426</ele>
        <time>2019-09-11T08:51:58+00:00</time>
      </trkpt>
      <trkpt lat="43.32511138916" lon="-7.5787334442139">
        <ele>426</ele>
        <time>2019-09-11T08:51:59+00:00</time>
      </trkpt>
      <trkpt lat="43.32511138916" lon="-7.5787515640259">
        <ele>426</ele>
        <time>2019-09-11T08:52:00+00:00</time>
      </trkpt>
      <trkpt lat="43.32511138916" lon="-7.5787715911865">
        <ele>426</ele>
        <time>2019-09-11T08:52:01+00:00</time>
      </trkpt>
      <trkpt lat="43.325107574463" lon="-7.5787868499756">
        <ele>426</ele>
        <time>2019-09-11T08:52:02+00:00</time>
      </trkpt>
      <trkpt lat="43.325107574463" lon="-7.5787968635559">
        <ele>426</ele>
        <time>2019-09-11T08:52:03+00:00</time>
      </trkpt>
      <trkpt lat="43.325099945068" lon="-7.5788102149963">
        <ele>426</ele>
        <time>2019-09-11T08:52:04+00:00</time>
      </trkpt>
      <trkpt lat="43.325096130371" lon="-7.5788216590881">
        <ele>426</ele>
        <time>2019-09-11T08:52:05+00:00</time>
      </trkpt>
      <trkpt lat="43.325088500977" lon="-7.5788331031799">
        <ele>425</ele>
        <time>2019-09-11T08:52:06+00:00</time>
      </trkpt>
      <trkpt lat="43.325080871582" lon="-7.5788516998291">
        <ele>425</ele>
        <time>2019-09-11T08:52:07+00:00</time>
      </trkpt>
      <trkpt lat="43.325077056885" lon="-7.5788650512695">
        <ele>425</ele>
        <time>2019-09-11T08:52:08+00:00</time>
      </trkpt>
      <trkpt lat="43.32506942749" lon="-7.5788798332214">
        <ele>425</ele>
        <time>2019-09-11T08:52:09+00:00</time>
      </trkpt>
      <trkpt lat="43.32506942749" lon="-7.5788998603821">
        <ele>425</ele>
        <time>2019-09-11T08:52:10+00:00</time>
      </trkpt>
      <trkpt lat="43.32506942749" lon="-7.5789132118225">
        <ele>425</ele>
        <time>2019-09-11T08:52:11+00:00</time>
      </trkpt>
      <trkpt lat="43.325065612793" lon="-7.5789318084717">
        <ele>425</ele>
        <time>2019-09-11T08:52:12+00:00</time>
      </trkpt>
      <trkpt lat="43.325057983398" lon="-7.5789451599121">
        <ele>425</ele>
        <time>2019-09-11T08:52:13+00:00</time>
      </trkpt>
      <trkpt lat="43.325054168701" lon="-7.5789666175842">
        <ele>426</ele>
        <time>2019-09-11T08:52:14+00:00</time>
      </trkpt>
      <trkpt lat="43.325046539307" lon="-7.5789799690247">
        <ele>426</ele>
        <time>2019-09-11T08:52:15+00:00</time>
      </trkpt>
      <trkpt lat="43.325042724609" lon="-7.5789966583252">
        <ele>426</ele>
        <time>2019-09-11T08:52:16+00:00</time>
      </trkpt>
      <trkpt lat="43.325035095215" lon="-7.5790133476257">
        <ele>426</ele>
        <time>2019-09-11T08:52:17+00:00</time>
      </trkpt>
      <trkpt lat="43.325023651123" lon="-7.5790300369263">
        <ele>426</ele>
        <time>2019-09-11T08:52:18+00:00</time>
      </trkpt>
      <trkpt lat="43.325019836426" lon="-7.5790467262268">
        <ele>426</ele>
        <time>2019-09-11T08:52:19+00:00</time>
      </trkpt>
      <trkpt lat="43.325019836426" lon="-7.5790667533875">
        <ele>426</ele>
        <time>2019-09-11T08:52:20+00:00</time>
      </trkpt>
      <trkpt lat="43.325008392334" lon="-7.5790815353394">
        <ele>426</ele>
        <time>2019-09-11T08:52:21+00:00</time>
      </trkpt>
      <trkpt lat="43.325000762939" lon="-7.5791001319885">
        <ele>426</ele>
        <time>2019-09-11T08:52:22+00:00</time>
      </trkpt>
      <trkpt lat="43.324989318848" lon="-7.5791182518005">
        <ele>426</ele>
        <time>2019-09-11T08:52:23+00:00</time>
      </trkpt>
      <trkpt lat="43.324981689453" lon="-7.5791349411011">
        <ele>426</ele>
        <time>2019-09-11T08:52:24+00:00</time>
      </trkpt>
      <trkpt lat="43.324977874756" lon="-7.5791549682617">
        <ele>426</ele>
        <time>2019-09-11T08:52:25+00:00</time>
      </trkpt>
      <trkpt lat="43.324966430664" lon="-7.579164981842">
        <ele>426</ele>
        <time>2019-09-11T08:52:26+00:00</time>
      </trkpt>
      <trkpt lat="43.324962615967" lon="-7.5791831016541">
        <ele>426</ele>
        <time>2019-09-11T08:52:27+00:00</time>
      </trkpt>
      <trkpt lat="43.324951171875" lon="-7.579195022583">
        <ele>426</ele>
        <time>2019-09-11T08:52:28+00:00</time>
      </trkpt>
      <trkpt lat="43.324947357178" lon="-7.5792117118835">
        <ele>427</ele>
        <time>2019-09-11T08:52:29+00:00</time>
      </trkpt>
      <trkpt lat="43.324939727783" lon="-7.5792298316956">
        <ele>427</ele>
        <time>2019-09-11T08:52:30+00:00</time>
      </trkpt>
      <trkpt lat="43.324935913086" lon="-7.5792517662048">
        <ele>427</ele>
        <time>2019-09-11T08:52:31+00:00</time>
      </trkpt>
      <trkpt lat="43.324932098389" lon="-7.5792717933655">
        <ele>427</ele>
        <time>2019-09-11T08:52:32+00:00</time>
      </trkpt>
      <trkpt lat="43.324932098389" lon="-7.5792984962463">
        <ele>427</ele>
        <time>2019-09-11T08:52:33+00:00</time>
      </trkpt>
      <trkpt lat="43.324932098389" lon="-7.5793199539185">
        <ele>427</ele>
        <time>2019-09-11T08:52:34+00:00</time>
      </trkpt>
      <trkpt lat="43.324928283691" lon="-7.5793418884277">
        <ele>427</ele>
        <time>2019-09-11T08:52:35+00:00</time>
      </trkpt>
      <trkpt lat="43.324928283691" lon="-7.5793566703796">
        <ele>427</ele>
        <time>2019-09-11T08:52:36+00:00</time>
      </trkpt>
      <trkpt lat="43.324924468994" lon="-7.5793747901917">
        <ele>427</ele>
        <time>2019-09-11T08:52:37+00:00</time>
      </trkpt>
      <trkpt lat="43.324920654297" lon="-7.5793881416321">
        <ele>427</ele>
        <time>2019-09-11T08:52:38+00:00</time>
      </trkpt>
      <trkpt lat="43.324920654297" lon="-7.5794034004211">
        <ele>427</ele>
        <time>2019-09-11T08:52:39+00:00</time>
      </trkpt>
      <trkpt lat="43.324920654297" lon="-7.5794200897217">
        <ele>427</ele>
        <time>2019-09-11T08:52:40+00:00</time>
      </trkpt>
      <trkpt lat="43.324924468994" lon="-7.5794382095337">
        <ele>427</ele>
        <time>2019-09-11T08:52:41+00:00</time>
      </trkpt>
      <trkpt lat="43.324920654297" lon="-7.5794515609741">
        <ele>427</ele>
        <time>2019-09-11T08:52:42+00:00</time>
      </trkpt>
      <trkpt lat="43.324920654297" lon="-7.5794668197632">
        <ele>428</ele>
        <time>2019-09-11T08:52:43+00:00</time>
      </trkpt>
      <trkpt lat="43.3249168396" lon="-7.5794835090637">
        <ele>428</ele>
        <time>2019-09-11T08:52:44+00:00</time>
      </trkpt>
      <trkpt lat="43.3249168396" lon="-7.5795001983643">
        <ele>428</ele>
        <time>2019-09-11T08:52:45+00:00</time>
      </trkpt>
      <trkpt lat="43.324924468994" lon="-7.5795168876648">
        <ele>428</ele>
        <time>2019-09-11T08:52:46+00:00</time>
      </trkpt>
      <trkpt lat="43.324920654297" lon="-7.5795316696167">
        <ele>428</ele>
        <time>2019-09-11T08:52:47+00:00</time>
      </trkpt>
      <trkpt lat="43.3249168396" lon="-7.5795450210571">
        <ele>428</ele>
        <time>2019-09-11T08:52:48+00:00</time>
      </trkpt>
      <trkpt lat="43.324913024902" lon="-7.5795617103577">
        <ele>428</ele>
        <time>2019-09-11T08:52:49+00:00</time>
      </trkpt>
      <trkpt lat="43.324909210205" lon="-7.5795783996582">
        <ele>428</ele>
        <time>2019-09-11T08:52:50+00:00</time>
      </trkpt>
      <trkpt lat="43.324909210205" lon="-7.5795950889587">
        <ele>428</ele>
        <time>2019-09-11T08:52:51+00:00</time>
      </trkpt>
      <trkpt lat="43.324905395508" lon="-7.5796098709106">
        <ele>428</ele>
        <time>2019-09-11T08:52:52+00:00</time>
      </trkpt>
      <trkpt lat="43.324901580811" lon="-7.5796232223511">
        <ele>428</ele>
        <time>2019-09-11T08:52:53+00:00</time>
      </trkpt>
      <trkpt lat="43.324893951416" lon="-7.5796432495117">
        <ele>428</ele>
        <time>2019-09-11T08:52:54+00:00</time>
      </trkpt>
      <trkpt lat="43.324886322021" lon="-7.579653263092">
        <ele>429</ele>
        <time>2019-09-11T08:52:55+00:00</time>
      </trkpt>
      <trkpt lat="43.324878692627" lon="-7.5796666145325">
        <ele>429</ele>
        <time>2019-09-11T08:52:56+00:00</time>
      </trkpt>
      <trkpt lat="43.32487487793" lon="-7.5796799659729">
        <ele>429</ele>
        <time>2019-09-11T08:52:57+00:00</time>
      </trkpt>
      <trkpt lat="43.324863433838" lon="-7.5796866416931">
        <ele>429</ele>
        <time>2019-09-11T08:52:58+00:00</time>
      </trkpt>
      <trkpt lat="43.324859619141" lon="-7.5796985626221">
        <ele>429</ele>
        <time>2019-09-11T08:52:59+00:00</time>
      </trkpt>
      <trkpt lat="43.324851989746" lon="-7.5797147750854">
        <ele>429</ele>
        <time>2019-09-11T08:53:00+00:00</time>
      </trkpt>
      <trkpt lat="43.324848175049" lon="-7.5797300338745">
        <ele>429</ele>
        <time>2019-09-11T08:53:01+00:00</time>
      </trkpt>
      <trkpt lat="43.324844360352" lon="-7.5797433853149">
        <ele>429</ele>
        <time>2019-09-11T08:53:02+00:00</time>
      </trkpt>
      <trkpt lat="43.324836730957" lon="-7.5797567367554">
        <ele>430</ele>
        <time>2019-09-11T08:53:03+00:00</time>
      </trkpt>
      <trkpt lat="43.32483291626" lon="-7.5797700881958">
        <ele>430</ele>
        <time>2019-09-11T08:53:04+00:00</time>
      </trkpt>
      <trkpt lat="43.324825286865" lon="-7.5797848701477">
        <ele>430</ele>
        <time>2019-09-11T08:53:05+00:00</time>
      </trkpt>
      <trkpt lat="43.324821472168" lon="-7.5798015594482">
        <ele>430</ele>
        <time>2019-09-11T08:53:06+00:00</time>
      </trkpt>
      <trkpt lat="43.324821472168" lon="-7.5798201560974">
        <ele>430</ele>
        <time>2019-09-11T08:53:07+00:00</time>
      </trkpt>
      <trkpt lat="43.324817657471" lon="-7.5798316001892">
        <ele>430</ele>
        <time>2019-09-11T08:53:08+00:00</time>
      </trkpt>
      <trkpt lat="43.324813842773" lon="-7.5798482894897">
        <ele>430</ele>
        <time>2019-09-11T08:53:09+00:00</time>
      </trkpt>
      <trkpt lat="43.324806213379" lon="-7.5798649787903">
        <ele>430</ele>
        <time>2019-09-11T08:53:10+00:00</time>
      </trkpt>
      <trkpt lat="43.324802398682" lon="-7.5798802375793">
        <ele>430</ele>
        <time>2019-09-11T08:53:11+00:00</time>
      </trkpt>
      <trkpt lat="43.324794769287" lon="-7.5798983573914">
        <ele>430</ele>
        <time>2019-09-11T08:53:12+00:00</time>
      </trkpt>
      <trkpt lat="43.32479095459" lon="-7.5799131393433">
        <ele>430</ele>
        <time>2019-09-11T08:53:13+00:00</time>
      </trkpt>
      <trkpt lat="43.324783325195" lon="-7.5799264907837">
        <ele>430</ele>
        <time>2019-09-11T08:53:14+00:00</time>
      </trkpt>
      <trkpt lat="43.324783325195" lon="-7.5799417495728">
        <ele>430</ele>
        <time>2019-09-11T08:53:15+00:00</time>
      </trkpt>
      <trkpt lat="43.324779510498" lon="-7.5799584388733">
        <ele>430</ele>
        <time>2019-09-11T08:53:16+00:00</time>
      </trkpt>
      <trkpt lat="43.324779510498" lon="-7.5799732208252">
        <ele>430</ele>
        <time>2019-09-11T08:53:17+00:00</time>
      </trkpt>
      <trkpt lat="43.324775695801" lon="-7.5799884796143">
        <ele>430</ele>
        <time>2019-09-11T08:53:18+00:00</time>
      </trkpt>
      <trkpt lat="43.324775695801" lon="-7.5799999237061">
        <ele>430</ele>
        <time>2019-09-11T08:53:19+00:00</time>
      </trkpt>
      <trkpt lat="43.324775695801" lon="-7.5800132751465">
        <ele>430</ele>
        <time>2019-09-11T08:53:20+00:00</time>
      </trkpt>
      <trkpt lat="43.324771881104" lon="-7.5800285339355">
        <ele>430</ele>
        <time>2019-09-11T08:53:21+00:00</time>
      </trkpt>
      <trkpt lat="43.324764251709" lon="-7.5800452232361">
        <ele>430</ele>
        <time>2019-09-11T08:53:22+00:00</time>
      </trkpt>
      <trkpt lat="43.324756622314" lon="-7.5800580978394">
        <ele>430</ele>
        <time>2019-09-11T08:53:23+00:00</time>
      </trkpt>
      <trkpt lat="43.324752807617" lon="-7.5800747871399">
        <ele>430</ele>
        <time>2019-09-11T08:53:24+00:00</time>
      </trkpt>
      <trkpt lat="43.324752807617" lon="-7.580090045929">
        <ele>430</ele>
        <time>2019-09-11T08:53:25+00:00</time>
      </trkpt>
      <trkpt lat="43.324752807617" lon="-7.5801048278809">
        <ele>430</ele>
        <time>2019-09-11T08:53:26+00:00</time>
      </trkpt>
      <trkpt lat="43.324745178223" lon="-7.5801167488098">
        <ele>430</ele>
        <time>2019-09-11T08:53:27+00:00</time>
      </trkpt>
      <trkpt lat="43.324741363525" lon="-7.5801315307617">
        <ele>430</ele>
        <time>2019-09-11T08:53:28+00:00</time>
      </trkpt>
      <trkpt lat="43.324733734131" lon="-7.5801482200623">
        <ele>430</ele>
        <time>2019-09-11T08:53:29+00:00</time>
      </trkpt>
      <trkpt lat="43.324729919434" lon="-7.5801649093628">
        <ele>430</ele>
        <time>2019-09-11T08:53:30+00:00</time>
      </trkpt>
      <trkpt lat="43.324718475342" lon="-7.5801782608032">
        <ele>430</ele>
        <time>2019-09-11T08:53:31+00:00</time>
      </trkpt>
      <trkpt lat="43.324710845947" lon="-7.5801916122437">
        <ele>430</ele>
        <time>2019-09-11T08:53:32+00:00</time>
      </trkpt>
      <trkpt lat="43.32470703125" lon="-7.5802068710327">
        <ele>430</ele>
        <time>2019-09-11T08:53:33+00:00</time>
      </trkpt>
      <trkpt lat="43.32470703125" lon="-7.5802216529846">
        <ele>430</ele>
        <time>2019-09-11T08:53:34+00:00</time>
      </trkpt>
      <trkpt lat="43.324699401855" lon="-7.5802364349365">
        <ele>430</ele>
        <time>2019-09-11T08:53:35+00:00</time>
      </trkpt>
      <trkpt lat="43.324695587158" lon="-7.5802483558655">
        <ele>430</ele>
        <time>2019-09-11T08:53:36+00:00</time>
      </trkpt>
      <trkpt lat="43.324687957764" lon="-7.5802597999573">
        <ele>430</ele>
        <time>2019-09-11T08:53:37+00:00</time>
      </trkpt>
      <trkpt lat="43.324680328369" lon="-7.5802717208862">
        <ele>430</ele>
        <time>2019-09-11T08:53:38+00:00</time>
      </trkpt>
      <trkpt lat="43.324668884277" lon="-7.5802817344666">
        <ele>430</ele>
        <time>2019-09-11T08:53:39+00:00</time>
      </trkpt>
      <trkpt lat="43.324661254883" lon="-7.5802917480469">
        <ele>431</ele>
        <time>2019-09-11T08:53:40+00:00</time>
      </trkpt>
      <trkpt lat="43.324649810791" lon="-7.5802998542786">
        <ele>431</ele>
        <time>2019-09-11T08:53:41+00:00</time>
      </trkpt>
      <trkpt lat="43.324638366699" lon="-7.5803050994873">
        <ele>431</ele>
        <time>2019-09-11T08:53:42+00:00</time>
      </trkpt>
      <trkpt lat="43.324626922607" lon="-7.580313205719">
        <ele>431</ele>
        <time>2019-09-11T08:53:43+00:00</time>
      </trkpt>
      <trkpt lat="43.324619293213" lon="-7.5803198814392">
        <ele>431</ele>
        <time>2019-09-11T08:53:44+00:00</time>
      </trkpt>
      <trkpt lat="43.324615478516" lon="-7.5803332328796">
        <ele>431</ele>
        <time>2019-09-11T08:53:45+00:00</time>
      </trkpt>
      <trkpt lat="43.324607849121" lon="-7.5803451538086">
        <ele>431</ele>
        <time>2019-09-11T08:53:46+00:00</time>
      </trkpt>
      <trkpt lat="43.324600219727" lon="-7.5803518295288">
        <ele>431</ele>
        <time>2019-09-11T08:53:47+00:00</time>
      </trkpt>
      <trkpt lat="43.324588775635" lon="-7.5803632736206">
        <ele>431</ele>
        <time>2019-09-11T08:53:48+00:00</time>
      </trkpt>
      <trkpt lat="43.324584960938" lon="-7.5803785324097">
        <ele>431</ele>
        <time>2019-09-11T08:53:49+00:00</time>
      </trkpt>
      <trkpt lat="43.324584960938" lon="-7.5803966522217">
        <ele>431</ele>
        <time>2019-09-11T08:53:50+00:00</time>
      </trkpt>
      <trkpt lat="43.32458114624" lon="-7.5804166793823">
        <ele>432</ele>
        <time>2019-09-11T08:53:51+00:00</time>
      </trkpt>
      <trkpt lat="43.324573516846" lon="-7.580436706543">
        <ele>432</ele>
        <time>2019-09-11T08:53:52+00:00</time>
      </trkpt>
      <trkpt lat="43.324569702148" lon="-7.5804500579834">
        <ele>432</ele>
        <time>2019-09-11T08:53:53+00:00</time>
      </trkpt>
      <trkpt lat="43.324562072754" lon="-7.5804648399353">
        <ele>432</ele>
        <time>2019-09-11T08:53:54+00:00</time>
      </trkpt>
      <trkpt lat="43.324558258057" lon="-7.5804781913757">
        <ele>432</ele>
        <time>2019-09-11T08:53:55+00:00</time>
      </trkpt>
      <trkpt lat="43.324558258057" lon="-7.5804915428162">
        <ele>432</ele>
        <time>2019-09-11T08:53:56+00:00</time>
      </trkpt>
      <trkpt lat="43.324550628662" lon="-7.5805068016052">
        <ele>432</ele>
        <time>2019-09-11T08:53:57+00:00</time>
      </trkpt>
      <trkpt lat="43.324546813965" lon="-7.5805234909058">
        <ele>433</ele>
        <time>2019-09-11T08:53:58+00:00</time>
      </trkpt>
      <trkpt lat="43.32453918457" lon="-7.5805368423462">
        <ele>433</ele>
        <time>2019-09-11T08:53:59+00:00</time>
      </trkpt>
      <trkpt lat="43.32453918457" lon="-7.580548286438">
        <ele>433</ele>
        <time>2019-09-11T08:54:00+00:00</time>
      </trkpt>
      <trkpt lat="43.324535369873" lon="-7.5805616378784">
        <ele>434</ele>
        <time>2019-09-11T08:54:01+00:00</time>
      </trkpt>
      <trkpt lat="43.324531555176" lon="-7.5805768966675">
        <ele>434</ele>
        <time>2019-09-11T08:54:02+00:00</time>
      </trkpt>
      <trkpt lat="43.324531555176" lon="-7.5805931091309">
        <ele>434</ele>
        <time>2019-09-11T08:54:03+00:00</time>
      </trkpt>
      <trkpt lat="43.324516296387" lon="-7.5806231498718">
        <ele>435</ele>
        <time>2019-09-11T08:54:04+00:00</time>
      </trkpt>
      <trkpt lat="43.324508666992" lon="-7.580641746521">
        <ele>435</ele>
        <time>2019-09-11T08:54:05+00:00</time>
      </trkpt>
      <trkpt lat="43.3244972229" lon="-7.5806550979614">
        <ele>435</ele>
        <time>2019-09-11T08:54:06+00:00</time>
      </trkpt>
      <trkpt lat="43.324489593506" lon="-7.5806698799133">
        <ele>435</ele>
        <time>2019-09-11T08:54:07+00:00</time>
      </trkpt>
      <trkpt lat="43.324478149414" lon="-7.5806865692139">
        <ele>435</ele>
        <time>2019-09-11T08:54:08+00:00</time>
      </trkpt>
      <trkpt lat="43.324466705322" lon="-7.580705165863">
        <ele>435</ele>
        <time>2019-09-11T08:54:09+00:00</time>
      </trkpt>
      <trkpt lat="43.324462890625" lon="-7.5807166099548">
        <ele>435</ele>
        <time>2019-09-11T08:54:10+00:00</time>
      </trkpt>
      <trkpt lat="43.324459075928" lon="-7.5807266235352">
        <ele>435</ele>
        <time>2019-09-11T08:54:11+00:00</time>
      </trkpt>
      <trkpt lat="43.324459075928" lon="-7.5807418823242">
        <ele>435</ele>
        <time>2019-09-11T08:54:12+00:00</time>
      </trkpt>
      <trkpt lat="43.324451446533" lon="-7.5807585716248">
        <ele>435</ele>
        <time>2019-09-11T08:54:13+00:00</time>
      </trkpt>
      <trkpt lat="43.324447631836" lon="-7.5807733535767">
        <ele>435</ele>
        <time>2019-09-11T08:54:14+00:00</time>
      </trkpt>
      <trkpt lat="43.324440002441" lon="-7.5807881355286">
        <ele>435</ele>
        <time>2019-09-11T08:54:15+00:00</time>
      </trkpt>
      <trkpt lat="43.324436187744" lon="-7.5808033943176">
        <ele>435</ele>
        <time>2019-09-11T08:54:16+00:00</time>
      </trkpt>
      <trkpt lat="43.324432373047" lon="-7.5808148384094">
        <ele>435</ele>
        <time>2019-09-11T08:54:17+00:00</time>
      </trkpt>
      <trkpt lat="43.324424743652" lon="-7.5808281898499">
        <ele>435</ele>
        <time>2019-09-11T08:54:18+00:00</time>
      </trkpt>
      <trkpt lat="43.324417114258" lon="-7.5808382034302">
        <ele>435</ele>
        <time>2019-09-11T08:54:19+00:00</time>
      </trkpt>
      <trkpt lat="43.324417114258" lon="-7.5808515548706">
        <ele>435</ele>
        <time>2019-09-11T08:54:20+00:00</time>
      </trkpt>
      <trkpt lat="43.324420928955" lon="-7.5808701515198">
        <ele>436</ele>
        <time>2019-09-11T08:54:21+00:00</time>
      </trkpt>
      <trkpt lat="43.324424743652" lon="-7.5808882713318">
        <ele>436</ele>
        <time>2019-09-11T08:54:22+00:00</time>
      </trkpt>
      <trkpt lat="43.324417114258" lon="-7.5808982849121">
        <ele>436</ele>
        <time>2019-09-11T08:54:23+00:00</time>
      </trkpt>
      <trkpt lat="43.324417114258" lon="-7.5809116363525">
        <ele>436</ele>
        <time>2019-09-11T08:54:24+00:00</time>
      </trkpt>
      <trkpt lat="43.324413299561" lon="-7.5809216499329">
        <ele>436</ele>
        <time>2019-09-11T08:54:25+00:00</time>
      </trkpt>
      <trkpt lat="43.324401855469" lon="-7.5809316635132">
        <ele>437</ele>
        <time>2019-09-11T08:54:26+00:00</time>
      </trkpt>
      <trkpt lat="43.324382781982" lon="-7.5809416770935">
        <ele>437</ele>
        <time>2019-09-11T08:54:27+00:00</time>
      </trkpt>
      <trkpt lat="43.324375152588" lon="-7.5809516906738">
        <ele>437</ele>
        <time>2019-09-11T08:54:28+00:00</time>
      </trkpt>
      <trkpt lat="43.324367523193" lon="-7.5809631347656">
        <ele>437</ele>
        <time>2019-09-11T08:54:29+00:00</time>
      </trkpt>
      <trkpt lat="43.324356079102" lon="-7.5809717178345">
        <ele>437</ele>
        <time>2019-09-11T08:54:30+00:00</time>
      </trkpt>
      <trkpt lat="43.32434463501" lon="-7.5809764862061">
        <ele>437</ele>
        <time>2019-09-11T08:54:31+00:00</time>
      </trkpt>
      <trkpt lat="43.324337005615" lon="-7.580988407135">
        <ele>438</ele>
        <time>2019-09-11T08:54:32+00:00</time>
      </trkpt>
      <trkpt lat="43.324329376221" lon="-7.5809998512268">
        <ele>438</ele>
        <time>2019-09-11T08:54:33+00:00</time>
      </trkpt>
      <trkpt lat="43.324321746826" lon="-7.5810098648071">
        <ele>438</ele>
        <time>2019-09-11T08:54:34+00:00</time>
      </trkpt>
      <trkpt lat="43.324314117432" lon="-7.581018447876">
        <ele>439</ele>
        <time>2019-09-11T08:54:35+00:00</time>
      </trkpt>
      <trkpt lat="43.324314117432" lon="-7.5810332298279">
        <ele>439</ele>
        <time>2019-09-11T08:54:36+00:00</time>
      </trkpt>
      <trkpt lat="43.324306488037" lon="-7.5810484886169">
        <ele>439</ele>
        <time>2019-09-11T08:54:37+00:00</time>
      </trkpt>
      <trkpt lat="43.324298858643" lon="-7.5810651779175">
        <ele>440</ele>
        <time>2019-09-11T08:54:38+00:00</time>
      </trkpt>
      <trkpt lat="43.324291229248" lon="-7.581081867218">
        <ele>440</ele>
        <time>2019-09-11T08:54:39+00:00</time>
      </trkpt>
      <trkpt lat="43.324283599854" lon="-7.5810918807983">
        <ele>441</ele>
        <time>2019-09-11T08:54:40+00:00</time>
      </trkpt>
      <trkpt lat="43.324279785156" lon="-7.58109998703">
        <ele>441</ele>
        <time>2019-09-11T08:54:41+00:00</time>
      </trkpt>
      <trkpt lat="43.324272155762" lon="-7.5811114311218">
        <ele>441</ele>
        <time>2019-09-11T08:54:42+00:00</time>
      </trkpt>
      <trkpt lat="43.324268341064" lon="-7.581130027771">
        <ele>441</ele>
        <time>2019-09-11T08:54:43+00:00</time>
      </trkpt>
      <trkpt lat="43.324256896973" lon="-7.5811381340027">
        <ele>441</ele>
        <time>2019-09-11T08:54:44+00:00</time>
      </trkpt>
      <trkpt lat="43.324249267578" lon="-7.5811500549316">
        <ele>441</ele>
        <time>2019-09-11T08:54:45+00:00</time>
      </trkpt>
      <trkpt lat="43.324249267578" lon="-7.5811634063721">
        <ele>441</ele>
        <time>2019-09-11T08:54:46+00:00</time>
      </trkpt>
      <trkpt lat="43.324241638184" lon="-7.5811800956726">
        <ele>441</ele>
        <time>2019-09-11T08:54:47+00:00</time>
      </trkpt>
      <trkpt lat="43.324241638184" lon="-7.5811901092529">
        <ele>441</ele>
        <time>2019-09-11T08:54:48+00:00</time>
      </trkpt>
      <trkpt lat="43.324241638184" lon="-7.5812034606934">
        <ele>441</ele>
        <time>2019-09-11T08:54:49+00:00</time>
      </trkpt>
      <trkpt lat="43.324234008789" lon="-7.5812149047852">
        <ele>441</ele>
        <time>2019-09-11T08:54:50+00:00</time>
      </trkpt>
      <trkpt lat="43.324226379395" lon="-7.5812249183655">
        <ele>441</ele>
        <time>2019-09-11T08:54:51+00:00</time>
      </trkpt>
      <trkpt lat="43.32421875" lon="-7.5812401771545">
        <ele>441</ele>
        <time>2019-09-11T08:54:52+00:00</time>
      </trkpt>
      <trkpt lat="43.324214935303" lon="-7.5812549591064">
        <ele>441</ele>
        <time>2019-09-11T08:54:53+00:00</time>
      </trkpt>
      <trkpt lat="43.324214935303" lon="-7.581271648407">
        <ele>441</ele>
        <time>2019-09-11T08:54:54+00:00</time>
      </trkpt>
      <trkpt lat="43.324211120605" lon="-7.581289768219">
        <ele>442</ele>
        <time>2019-09-11T08:54:55+00:00</time>
      </trkpt>
      <trkpt lat="43.324203491211" lon="-7.5813097953796">
        <ele>442</ele>
        <time>2019-09-11T08:54:56+00:00</time>
      </trkpt>
      <trkpt lat="43.324199676514" lon="-7.5813283920288">
        <ele>441</ele>
        <time>2019-09-11T08:54:57+00:00</time>
      </trkpt>
      <trkpt lat="43.324195861816" lon="-7.5813450813293">
        <ele>441</ele>
        <time>2019-09-11T08:54:58+00:00</time>
      </trkpt>
      <trkpt lat="43.324188232422" lon="-7.5813598632812">
        <ele>441</ele>
        <time>2019-09-11T08:54:59+00:00</time>
      </trkpt>
      <trkpt lat="43.324180603027" lon="-7.5813717842102">
        <ele>441</ele>
        <time>2019-09-11T08:55:00+00:00</time>
      </trkpt>
      <trkpt lat="43.324172973633" lon="-7.5813817977905">
        <ele>442</ele>
        <time>2019-09-11T08:55:01+00:00</time>
      </trkpt>
      <trkpt lat="43.324169158936" lon="-7.5813884735107">
        <ele>442</ele>
        <time>2019-09-11T08:55:02+00:00</time>
      </trkpt>
      <trkpt lat="43.324169158936" lon="-7.581395149231">
        <ele>442</ele>
        <time>2019-09-11T08:55:03+00:00</time>
      </trkpt>
      <trkpt lat="43.324161529541" lon="-7.5814065933228">
        <ele>442</ele>
        <time>2019-09-11T08:55:04+00:00</time>
      </trkpt>
      <trkpt lat="43.324161529541" lon="-7.5814151763916">
        <ele>442</ele>
        <time>2019-09-11T08:55:05+00:00</time>
      </trkpt>
      <trkpt lat="43.324150085449" lon="-7.5814232826233">
        <ele>442</ele>
        <time>2019-09-11T08:55:06+00:00</time>
      </trkpt>
      <trkpt lat="43.324138641357" lon="-7.5814299583435">
        <ele>442</ele>
        <time>2019-09-11T08:55:07+00:00</time>
      </trkpt>
      <trkpt lat="43.32413482666" lon="-7.5814433097839">
        <ele>442</ele>
        <time>2019-09-11T08:55:08+00:00</time>
      </trkpt>
      <trkpt lat="43.324127197266" lon="-7.5814566612244">
        <ele>442</ele>
        <time>2019-09-11T08:55:09+00:00</time>
      </trkpt>
      <trkpt lat="43.324127197266" lon="-7.5814733505249">
        <ele>442</ele>
        <time>2019-09-11T08:55:10+00:00</time>
      </trkpt>
      <trkpt lat="43.324123382568" lon="-7.5814900398254">
        <ele>442</ele>
        <time>2019-09-11T08:55:11+00:00</time>
      </trkpt>
      <trkpt lat="43.324119567871" lon="-7.5815081596375">
        <ele>442</ele>
        <time>2019-09-11T08:55:12+00:00</time>
      </trkpt>
      <trkpt lat="43.324108123779" lon="-7.5815281867981">
        <ele>443</ele>
        <time>2019-09-11T08:55:13+00:00</time>
      </trkpt>
      <trkpt lat="43.324100494385" lon="-7.5815448760986">
        <ele>443</ele>
        <time>2019-09-11T08:55:14+00:00</time>
      </trkpt>
      <trkpt lat="43.324096679688" lon="-7.5815601348877">
        <ele>443</ele>
        <time>2019-09-11T08:55:15+00:00</time>
      </trkpt>
      <trkpt lat="43.324089050293" lon="-7.5815768241882">
        <ele>443</ele>
        <time>2019-09-11T08:55:16+00:00</time>
      </trkpt>
      <trkpt lat="43.324085235596" lon="-7.5815949440002">
        <ele>443</ele>
        <time>2019-09-11T08:55:17+00:00</time>
      </trkpt>
      <trkpt lat="43.324077606201" lon="-7.5816082954407">
        <ele>443</ele>
        <time>2019-09-11T08:55:18+00:00</time>
      </trkpt>
      <trkpt lat="43.324069976807" lon="-7.5816249847412">
        <ele>443</ele>
        <time>2019-09-11T08:55:19+00:00</time>
      </trkpt>
      <trkpt lat="43.324066162109" lon="-7.5816383361816">
        <ele>443</ele>
        <time>2019-09-11T08:55:20+00:00</time>
      </trkpt>
      <trkpt lat="43.324062347412" lon="-7.5816497802734">
        <ele>443</ele>
        <time>2019-09-11T08:55:21+00:00</time>
      </trkpt>
      <trkpt lat="43.324054718018" lon="-7.5816617012024">
        <ele>443</ele>
        <time>2019-09-11T08:55:22+00:00</time>
      </trkpt>
      <trkpt lat="43.32405090332" lon="-7.5816783905029">
        <ele>443</ele>
        <time>2019-09-11T08:55:23+00:00</time>
      </trkpt>
      <trkpt lat="43.324047088623" lon="-7.5816931724548">
        <ele>443</ele>
        <time>2019-09-11T08:55:24+00:00</time>
      </trkpt>
      <trkpt lat="43.324043273926" lon="-7.5817017555237">
        <ele>443</ele>
        <time>2019-09-11T08:55:25+00:00</time>
      </trkpt>
      <trkpt lat="43.324039459229" lon="-7.5817098617554">
        <ele>443</ele>
        <time>2019-09-11T08:55:26+00:00</time>
      </trkpt>
      <trkpt lat="43.324043273926" lon="-7.5817232131958">
        <ele>443</ele>
        <time>2019-09-11T08:55:27+00:00</time>
      </trkpt>
      <trkpt lat="43.324039459229" lon="-7.5817365646362">
        <ele>443</ele>
        <time>2019-09-11T08:55:28+00:00</time>
      </trkpt>
      <trkpt lat="43.324039459229" lon="-7.5817518234253">
        <ele>443</ele>
        <time>2019-09-11T08:55:29+00:00</time>
      </trkpt>
      <trkpt lat="43.324043273926" lon="-7.5817685127258">
        <ele>443</ele>
        <time>2019-09-11T08:55:30+00:00</time>
      </trkpt>
      <trkpt lat="43.324043273926" lon="-7.5817866325378">
        <ele>444</ele>
        <time>2019-09-11T08:55:31+00:00</time>
      </trkpt>
      <trkpt lat="43.324047088623" lon="-7.5818033218384">
        <ele>444</ele>
        <time>2019-09-11T08:55:32+00:00</time>
      </trkpt>
      <trkpt lat="43.324047088623" lon="-7.5818166732788">
        <ele>444</ele>
        <time>2019-09-11T08:55:33+00:00</time>
      </trkpt>
      <trkpt lat="43.324043273926" lon="-7.5818314552307">
        <ele>444</ele>
        <time>2019-09-11T08:55:34+00:00</time>
      </trkpt>
      <trkpt lat="43.324043273926" lon="-7.5818448066711">
        <ele>444</ele>
        <time>2019-09-11T08:55:35+00:00</time>
      </trkpt>
      <trkpt lat="43.324035644531" lon="-7.5818614959717">
        <ele>444</ele>
        <time>2019-09-11T08:55:36+00:00</time>
      </trkpt>
      <trkpt lat="43.324024200439" lon="-7.5818700790405">
        <ele>445</ele>
        <time>2019-09-11T08:55:37+00:00</time>
      </trkpt>
      <trkpt lat="43.324016571045" lon="-7.5818800926208">
        <ele>445</ele>
        <time>2019-09-11T08:55:38+00:00</time>
      </trkpt>
      <trkpt lat="43.324005126953" lon="-7.5818881988525">
        <ele>445</ele>
        <time>2019-09-11T08:55:39+00:00</time>
      </trkpt>
      <trkpt lat="43.323993682861" lon="-7.5818948745728">
        <ele>445</ele>
        <time>2019-09-11T08:55:40+00:00</time>
      </trkpt>
      <trkpt lat="43.323989868164" lon="-7.5819034576416">
        <ele>445</ele>
        <time>2019-09-11T08:55:41+00:00</time>
      </trkpt>
      <trkpt lat="43.32398223877" lon="-7.5819215774536">
        <ele>445</ele>
        <time>2019-09-11T08:55:42+00:00</time>
      </trkpt>
      <trkpt lat="43.323978424072" lon="-7.5819334983826">
        <ele>446</ele>
        <time>2019-09-11T08:55:43+00:00</time>
      </trkpt>
      <trkpt lat="43.323974609375" lon="-7.5819482803345">
        <ele>446</ele>
        <time>2019-09-11T08:55:44+00:00</time>
      </trkpt>
      <trkpt lat="43.323963165283" lon="-7.5819616317749">
        <ele>446</ele>
        <time>2019-09-11T08:55:45+00:00</time>
      </trkpt>
      <trkpt lat="43.323955535889" lon="-7.5819702148438">
        <ele>447</ele>
        <time>2019-09-11T08:55:46+00:00</time>
      </trkpt>
      <trkpt lat="43.323951721191" lon="-7.5819835662842">
        <ele>447</ele>
        <time>2019-09-11T08:55:47+00:00</time>
      </trkpt>
      <trkpt lat="43.323947906494" lon="-7.581995010376">
        <ele>447</ele>
        <time>2019-09-11T08:55:48+00:00</time>
      </trkpt>
      <trkpt lat="43.323944091797" lon="-7.5820064544678">
        <ele>447</ele>
        <time>2019-09-11T08:55:49+00:00</time>
      </trkpt>
      <trkpt lat="43.323932647705" lon="-7.5820250511169">
        <ele>448</ele>
        <time>2019-09-11T08:55:50+00:00</time>
      </trkpt>
      <trkpt lat="43.323925018311" lon="-7.5820384025574">
        <ele>448</ele>
        <time>2019-09-11T08:55:51+00:00</time>
      </trkpt>
      <trkpt lat="43.323921203613" lon="-7.5820517539978">
        <ele>448</ele>
        <time>2019-09-11T08:55:52+00:00</time>
      </trkpt>
      <trkpt lat="43.323917388916" lon="-7.5820665359497">
        <ele>448</ele>
        <time>2019-09-11T08:55:53+00:00</time>
      </trkpt>
      <trkpt lat="43.323909759521" lon="-7.5820817947388">
        <ele>448</ele>
        <time>2019-09-11T08:55:54+00:00</time>
      </trkpt>
      <trkpt lat="43.323905944824" lon="-7.5820951461792">
        <ele>448</ele>
        <time>2019-09-11T08:55:55+00:00</time>
      </trkpt>
      <trkpt lat="43.32389831543" lon="-7.5821151733398">
        <ele>449</ele>
        <time>2019-09-11T08:55:56+00:00</time>
      </trkpt>
      <trkpt lat="43.323890686035" lon="-7.5821332931519">
        <ele>449</ele>
        <time>2019-09-11T08:55:57+00:00</time>
      </trkpt>
      <trkpt lat="43.323886871338" lon="-7.5821533203125">
        <ele>449</ele>
        <time>2019-09-11T08:55:58+00:00</time>
      </trkpt>
      <trkpt lat="43.323886871338" lon="-7.582170009613">
        <ele>449</ele>
        <time>2019-09-11T08:55:59+00:00</time>
      </trkpt>
      <trkpt lat="43.323879241943" lon="-7.5821914672852">
        <ele>449</ele>
        <time>2019-09-11T08:56:00+00:00</time>
      </trkpt>
      <trkpt lat="43.323867797852" lon="-7.5822081565857">
        <ele>450</ele>
        <time>2019-09-11T08:56:01+00:00</time>
      </trkpt>
      <trkpt lat="43.323860168457" lon="-7.5822248458862">
        <ele>450</ele>
        <time>2019-09-11T08:56:02+00:00</time>
      </trkpt>
      <trkpt lat="43.323852539062" lon="-7.5822334289551">
        <ele>450</ele>
        <time>2019-09-11T08:56:03+00:00</time>
      </trkpt>
      <trkpt lat="43.323848724365" lon="-7.5822448730469">
        <ele>450</ele>
        <time>2019-09-11T08:56:04+00:00</time>
      </trkpt>
      <trkpt lat="43.323844909668" lon="-7.5822582244873">
        <ele>450</ele>
        <time>2019-09-11T08:56:05+00:00</time>
      </trkpt>
      <trkpt lat="43.323844909668" lon="-7.5822668075562">
        <ele>451</ele>
        <time>2019-09-11T08:56:06+00:00</time>
      </trkpt>
      <trkpt lat="43.323841094971" lon="-7.5822768211365">
        <ele>451</ele>
        <time>2019-09-11T08:56:07+00:00</time>
      </trkpt>
      <trkpt lat="43.323837280273" lon="-7.5822868347168">
        <ele>451</ele>
        <time>2019-09-11T08:56:08+00:00</time>
      </trkpt>
      <trkpt lat="43.323837280273" lon="-7.5823001861572">
        <ele>451</ele>
        <time>2019-09-11T08:56:09+00:00</time>
      </trkpt>
      <trkpt lat="43.323833465576" lon="-7.582311630249">
        <ele>451</ele>
        <time>2019-09-11T08:56:10+00:00</time>
      </trkpt>
      <trkpt lat="43.323833465576" lon="-7.5823168754578">
        <ele>451</ele>
        <time>2019-09-11T08:56:11+00:00</time>
      </trkpt>
      <trkpt lat="43.323829650879" lon="-7.5823216438293">
        <ele>451</ele>
        <time>2019-09-11T08:56:12+00:00</time>
      </trkpt>
      <trkpt lat="43.323825836182" lon="-7.5823268890381">
        <ele>451</ele>
        <time>2019-09-11T08:56:13+00:00</time>
      </trkpt>
      <trkpt lat="43.323822021484" lon="-7.5823383331299">
        <ele>452</ele>
        <time>2019-09-11T08:56:14+00:00</time>
      </trkpt>
      <trkpt lat="43.323822021484" lon="-7.5823497772217">
        <ele>452</ele>
        <time>2019-09-11T08:56:15+00:00</time>
      </trkpt>
      <trkpt lat="43.323818206787" lon="-7.582359790802">
        <ele>452</ele>
        <time>2019-09-11T08:56:16+00:00</time>
      </trkpt>
      <trkpt lat="43.323810577393" lon="-7.5823650360107">
        <ele>452</ele>
        <time>2019-09-11T08:56:17+00:00</time>
      </trkpt>
      <trkpt lat="43.323799133301" lon="-7.5823931694031">
        <ele>452</ele>
        <time>2019-09-11T08:56:18+00:00</time>
      </trkpt>
      <trkpt lat="43.323787689209" lon="-7.5824165344238">
        <ele>452</ele>
        <time>2019-09-11T08:56:19+00:00</time>
      </trkpt>
      <trkpt lat="43.323783874512" lon="-7.5824484825134">
        <ele>452</ele>
        <time>2019-09-11T08:56:20+00:00</time>
      </trkpt>
      <trkpt lat="43.323783874512" lon="-7.5824751853943">
        <ele>453</ele>
        <time>2019-09-11T08:56:21+00:00</time>
      </trkpt>
      <trkpt lat="43.323780059814" lon="-7.5824966430664">
        <ele>453</ele>
        <time>2019-09-11T08:56:22+00:00</time>
      </trkpt>
      <trkpt lat="43.323776245117" lon="-7.5825147628784">
        <ele>453</ele>
        <time>2019-09-11T08:56:23+00:00</time>
      </trkpt>
      <trkpt lat="43.32377243042" lon="-7.5825333595276">
        <ele>453</ele>
        <time>2019-09-11T08:56:24+00:00</time>
      </trkpt>
      <trkpt lat="43.323768615723" lon="-7.582546710968">
        <ele>453</ele>
        <time>2019-09-11T08:56:25+00:00</time>
      </trkpt>
      <trkpt lat="43.323768615723" lon="-7.5825600624084">
        <ele>453</ele>
        <time>2019-09-11T08:56:26+00:00</time>
      </trkpt>
      <trkpt lat="43.323764801025" lon="-7.5825867652893">
        <ele>453</ele>
        <time>2019-09-11T08:56:27+00:00</time>
      </trkpt>
      <trkpt lat="43.323757171631" lon="-7.5826148986816">
        <ele>453</ele>
        <time>2019-09-11T08:56:28+00:00</time>
      </trkpt>
      <trkpt lat="43.323753356934" lon="-7.5826315879822">
        <ele>453</ele>
        <time>2019-09-11T08:56:29+00:00</time>
      </trkpt>
      <trkpt lat="43.323749542236" lon="-7.5826435089111">
        <ele>453</ele>
        <time>2019-09-11T08:56:30+00:00</time>
      </trkpt>
      <trkpt lat="43.323741912842" lon="-7.5826535224915">
        <ele>453</ele>
        <time>2019-09-11T08:56:31+00:00</time>
      </trkpt>
      <trkpt lat="43.323745727539" lon="-7.582670211792">
        <ele>453</ele>
        <time>2019-09-11T08:56:32+00:00</time>
      </trkpt>
      <trkpt lat="43.323741912842" lon="-7.5826802253723">
        <ele>453</ele>
        <time>2019-09-11T08:56:33+00:00</time>
      </trkpt>
      <trkpt lat="43.32373046875" lon="-7.582688331604">
        <ele>453</ele>
        <time>2019-09-11T08:56:34+00:00</time>
      </trkpt>
      <trkpt lat="43.323722839355" lon="-7.5826983451843">
        <ele>454</ele>
        <time>2019-09-11T08:56:35+00:00</time>
      </trkpt>
      <trkpt lat="43.323722839355" lon="-7.5827150344849">
        <ele>454</ele>
        <time>2019-09-11T08:56:36+00:00</time>
      </trkpt>
      <trkpt lat="43.323715209961" lon="-7.5827383995056">
        <ele>454</ele>
        <time>2019-09-11T08:56:37+00:00</time>
      </trkpt>
      <trkpt lat="43.323711395264" lon="-7.5827531814575">
        <ele>454</ele>
        <time>2019-09-11T08:56:38+00:00</time>
      </trkpt>
      <trkpt lat="43.323707580566" lon="-7.5827665328979">
        <ele>454</ele>
        <time>2019-09-11T08:56:39+00:00</time>
      </trkpt>
      <trkpt lat="43.323692321777" lon="-7.5827784538269">
        <ele>454</ele>
        <time>2019-09-11T08:56:40+00:00</time>
      </trkpt>
      <trkpt lat="43.323684692383" lon="-7.5827918052673">
        <ele>454</ele>
        <time>2019-09-11T08:56:41+00:00</time>
      </trkpt>
      <trkpt lat="43.323680877686" lon="-7.5828051567078">
        <ele>454</ele>
        <time>2019-09-11T08:56:42+00:00</time>
      </trkpt>
      <trkpt lat="43.323673248291" lon="-7.5828132629395">
        <ele>454</ele>
        <time>2019-09-11T08:56:43+00:00</time>
      </trkpt>
      <trkpt lat="43.323673248291" lon="-7.5828218460083">
        <ele>454</ele>
        <time>2019-09-11T08:56:44+00:00</time>
      </trkpt>
      <trkpt lat="43.323665618896" lon="-7.58282995224">
        <ele>454</ele>
        <time>2019-09-11T08:56:45+00:00</time>
      </trkpt>
      <trkpt lat="43.323661804199" lon="-7.5828418731689">
        <ele>454</ele>
        <time>2019-09-11T08:56:46+00:00</time>
      </trkpt>
      <trkpt lat="43.323654174805" lon="-7.5828485488892">
        <ele>454</ele>
        <time>2019-09-11T08:56:47+00:00</time>
      </trkpt>
      <trkpt lat="43.32364654541" lon="-7.5828552246094">
        <ele>454</ele>
        <time>2019-09-11T08:56:48+00:00</time>
      </trkpt>
      <trkpt lat="43.323638916016" lon="-7.5828619003296">
        <ele>454</ele>
        <time>2019-09-11T08:56:49+00:00</time>
      </trkpt>
      <trkpt lat="43.323635101318" lon="-7.5828680992126">
        <ele>455</ele>
        <time>2019-09-11T08:56:50+00:00</time>
      </trkpt>
      <trkpt lat="43.323627471924" lon="-7.5828766822815">
        <ele>455</ele>
        <time>2019-09-11T08:56:51+00:00</time>
      </trkpt>
      <trkpt lat="43.323619842529" lon="-7.5828866958618">
        <ele>455</ele>
        <time>2019-09-11T08:56:52+00:00</time>
      </trkpt>
      <trkpt lat="43.323616027832" lon="-7.5828914642334">
        <ele>455</ele>
        <time>2019-09-11T08:56:53+00:00</time>
      </trkpt>
      <trkpt lat="43.323612213135" lon="-7.5829033851624">
        <ele>455</ele>
        <time>2019-09-11T08:56:54+00:00</time>
      </trkpt>
      <trkpt lat="43.323608398438" lon="-7.5829081535339">
        <ele>455</ele>
        <time>2019-09-11T08:56:55+00:00</time>
      </trkpt>
      <trkpt lat="43.323600769043" lon="-7.5829181671143">
        <ele>455</ele>
        <time>2019-09-11T08:56:56+00:00</time>
      </trkpt>
      <trkpt lat="43.323593139648" lon="-7.5829334259033">
        <ele>455</ele>
        <time>2019-09-11T08:56:57+00:00</time>
      </trkpt>
      <trkpt lat="43.323585510254" lon="-7.5829401016235">
        <ele>455</ele>
        <time>2019-09-11T08:56:58+00:00</time>
      </trkpt>
      <trkpt lat="43.323581695557" lon="-7.5829501152039">
        <ele>456</ele>
        <time>2019-09-11T08:56:59+00:00</time>
      </trkpt>
      <trkpt lat="43.323570251465" lon="-7.5829615592957">
        <ele>456</ele>
        <time>2019-09-11T08:57:00+00:00</time>
      </trkpt>
      <trkpt lat="43.32356262207" lon="-7.5829749107361">
        <ele>456</ele>
        <time>2019-09-11T08:57:01+00:00</time>
      </trkpt>
      <trkpt lat="43.323547363281" lon="-7.5829834938049">
        <ele>456</ele>
        <time>2019-09-11T08:57:02+00:00</time>
      </trkpt>
      <trkpt lat="43.323535919189" lon="-7.5829916000366">
        <ele>456</ele>
        <time>2019-09-11T08:57:03+00:00</time>
      </trkpt>
      <trkpt lat="43.323524475098" lon="-7.5830001831055">
        <ele>456</ele>
        <time>2019-09-11T08:57:04+00:00</time>
      </trkpt>
      <trkpt lat="43.323513031006" lon="-7.5830135345459">
        <ele>456</ele>
        <time>2019-09-11T08:57:05+00:00</time>
      </trkpt>
      <trkpt lat="43.323505401611" lon="-7.5830335617065">
        <ele>457</ele>
        <time>2019-09-11T08:57:06+00:00</time>
      </trkpt>
      <trkpt lat="43.323490142822" lon="-7.58305311203">
        <ele>457</ele>
        <time>2019-09-11T08:57:07+00:00</time>
      </trkpt>
      <trkpt lat="43.32347869873" lon="-7.5830683708191">
        <ele>457</ele>
        <time>2019-09-11T08:57:08+00:00</time>
      </trkpt>
      <trkpt lat="43.323463439941" lon="-7.5830817222595">
        <ele>457</ele>
        <time>2019-09-11T08:57:09+00:00</time>
      </trkpt>
      <trkpt lat="43.32345199585" lon="-7.5830917358398">
        <ele>457</ele>
        <time>2019-09-11T08:57:10+00:00</time>
      </trkpt>
      <trkpt lat="43.323444366455" lon="-7.5830984115601">
        <ele>457</ele>
        <time>2019-09-11T08:57:11+00:00</time>
      </trkpt>
      <trkpt lat="43.323432922363" lon="-7.5831084251404">
        <ele>457</ele>
        <time>2019-09-11T08:57:12+00:00</time>
      </trkpt>
      <trkpt lat="43.323417663574" lon="-7.5831165313721">
        <ele>457</ele>
        <time>2019-09-11T08:57:13+00:00</time>
      </trkpt>
      <trkpt lat="43.32341003418" lon="-7.5831232070923">
        <ele>457</ele>
        <time>2019-09-11T08:57:14+00:00</time>
      </trkpt>
      <trkpt lat="43.323402404785" lon="-7.583128452301">
        <ele>457</ele>
        <time>2019-09-11T08:57:15+00:00</time>
      </trkpt>
      <trkpt lat="43.323394775391" lon="-7.5831298828125">
        <ele>457</ele>
        <time>2019-09-11T08:57:16+00:00</time>
      </trkpt>
      <trkpt lat="43.323387145996" lon="-7.5831332206726">
        <ele>457</ele>
        <time>2019-09-11T08:57:17+00:00</time>
      </trkpt>
      <trkpt lat="43.323383331299" lon="-7.5831418037415">
        <ele>457</ele>
        <time>2019-09-11T08:57:18+00:00</time>
      </trkpt>
      <trkpt lat="43.323371887207" lon="-7.583158493042">
        <ele>457</ele>
        <time>2019-09-11T08:57:19+00:00</time>
      </trkpt>
      <trkpt lat="43.323356628418" lon="-7.5831718444824">
        <ele>458</ele>
        <time>2019-09-11T08:57:20+00:00</time>
      </trkpt>
      <trkpt lat="43.323356628418" lon="-7.5832018852234">
        <ele>458</ele>
        <time>2019-09-11T08:57:21+00:00</time>
      </trkpt>
      <trkpt lat="43.323356628418" lon="-7.5832266807556">
        <ele>458</ele>
        <time>2019-09-11T08:57:22+00:00</time>
      </trkpt>
      <trkpt lat="43.323356628418" lon="-7.5832533836365">
        <ele>458</ele>
        <time>2019-09-11T08:57:23+00:00</time>
      </trkpt>
      <trkpt lat="43.323352813721" lon="-7.5833048820496">
        <ele>458</ele>
        <time>2019-09-11T08:57:24+00:00</time>
      </trkpt>
      <trkpt lat="43.323345184326" lon="-7.5833334922791">
        <ele>459</ele>
        <time>2019-09-11T08:57:25+00:00</time>
      </trkpt>
      <trkpt lat="43.323329925537" lon="-7.5833616256714">
        <ele>459</ele>
        <time>2019-09-11T08:57:27+00:00</time>
      </trkpt>
      <trkpt lat="43.323318481445" lon="-7.5833802223206">
        <ele>459</ele>
        <time>2019-09-11T08:57:28+00:00</time>
      </trkpt>
      <trkpt lat="43.323307037354" lon="-7.5833916664124">
        <ele>459</ele>
        <time>2019-09-11T08:57:29+00:00</time>
      </trkpt>
      <trkpt lat="43.323307037354" lon="-7.5834016799927">
        <ele>459</ele>
        <time>2019-09-11T08:57:30+00:00</time>
      </trkpt>
      <trkpt lat="43.323314666748" lon="-7.5834250450134">
        <ele>459</ele>
        <time>2019-09-11T08:57:31+00:00</time>
      </trkpt>
      <trkpt lat="43.323318481445" lon="-7.583441734314">
        <ele>459</ele>
        <time>2019-09-11T08:57:32+00:00</time>
      </trkpt>
      <trkpt lat="43.323318481445" lon="-7.5834631919861">
        <ele>459</ele>
        <time>2019-09-11T08:57:33+00:00</time>
      </trkpt>
      <trkpt lat="43.323314666748" lon="-7.5834798812866">
        <ele>459</ele>
        <time>2019-09-11T08:57:34+00:00</time>
      </trkpt>
      <trkpt lat="43.323318481445" lon="-7.583505153656">
        <ele>459</ele>
        <time>2019-09-11T08:57:35+00:00</time>
      </trkpt>
      <trkpt lat="43.323307037354" lon="-7.5835318565369">
        <ele>459</ele>
        <time>2019-09-11T08:57:36+00:00</time>
      </trkpt>
      <trkpt lat="43.323303222656" lon="-7.583553314209">
        <ele>459</ele>
        <time>2019-09-11T08:57:37+00:00</time>
      </trkpt>
      <trkpt lat="43.323295593262" lon="-7.5835666656494">
        <ele>459</ele>
        <time>2019-09-11T08:57:38+00:00</time>
      </trkpt>
      <trkpt lat="43.323291778564" lon="-7.5835766792297">
        <ele>458</ele>
        <time>2019-09-11T08:57:39+00:00</time>
      </trkpt>
      <trkpt lat="43.323291778564" lon="-7.5835900306702">
        <ele>458</ele>
        <time>2019-09-11T08:57:40+00:00</time>
      </trkpt>
      <trkpt lat="43.323280334473" lon="-7.583601474762">
        <ele>458</ele>
        <time>2019-09-11T08:57:41+00:00</time>
      </trkpt>
      <trkpt lat="43.323272705078" lon="-7.5836100578308">
        <ele>458</ele>
        <time>2019-09-11T08:57:42+00:00</time>
      </trkpt>
      <trkpt lat="43.323272705078" lon="-7.5836215019226">
        <ele>458</ele>
        <time>2019-09-11T08:57:43+00:00</time>
      </trkpt>
      <trkpt lat="43.323268890381" lon="-7.5836281776428">
        <ele>457</ele>
        <time>2019-09-11T08:57:44+00:00</time>
      </trkpt>
      <trkpt lat="43.323265075684" lon="-7.5836400985718">
        <ele>457</ele>
        <time>2019-09-11T08:57:45+00:00</time>
      </trkpt>
      <trkpt lat="43.323268890381" lon="-7.5836615562439">
        <ele>457</ele>
        <time>2019-09-11T08:57:46+00:00</time>
      </trkpt>
      <trkpt lat="43.323265075684" lon="-7.5836801528931">
        <ele>457</ele>
        <time>2019-09-11T08:57:47+00:00</time>
      </trkpt>
      <trkpt lat="43.323261260986" lon="-7.5836982727051">
        <ele>457</ele>
        <time>2019-09-11T08:57:48+00:00</time>
      </trkpt>
      <trkpt lat="43.323261260986" lon="-7.5837149620056">
        <ele>457</ele>
        <time>2019-09-11T08:57:49+00:00</time>
      </trkpt>
      <trkpt lat="43.323257446289" lon="-7.5837302207947">
        <ele>457</ele>
        <time>2019-09-11T08:57:50+00:00</time>
      </trkpt>
      <trkpt lat="43.323257446289" lon="-7.5837483406067">
        <ele>457</ele>
        <time>2019-09-11T08:57:51+00:00</time>
      </trkpt>
      <trkpt lat="43.323257446289" lon="-7.5837650299072">
        <ele>457</ele>
        <time>2019-09-11T08:57:52+00:00</time>
      </trkpt>
      <trkpt lat="43.323253631592" lon="-7.5837783813477">
        <ele>457</ele>
        <time>2019-09-11T08:57:53+00:00</time>
      </trkpt>
      <trkpt lat="43.323246002197" lon="-7.583788394928">
        <ele>457</ele>
        <time>2019-09-11T08:57:54+00:00</time>
      </trkpt>
      <trkpt lat="43.323238372803" lon="-7.5837998390198">
        <ele>457</ele>
        <time>2019-09-11T08:57:55+00:00</time>
      </trkpt>
      <trkpt lat="43.323234558105" lon="-7.5838084220886">
        <ele>457</ele>
        <time>2019-09-11T08:57:56+00:00</time>
      </trkpt>
      <trkpt lat="43.323226928711" lon="-7.5838251113892">
        <ele>457</ele>
        <time>2019-09-11T08:57:57+00:00</time>
      </trkpt>
      <trkpt lat="43.323211669922" lon="-7.5838351249695">
        <ele>457</ele>
        <time>2019-09-11T08:57:58+00:00</time>
      </trkpt>
      <trkpt lat="43.323207855225" lon="-7.5838551521301">
        <ele>457</ele>
        <time>2019-09-11T08:57:59+00:00</time>
      </trkpt>
      <trkpt lat="43.323192596436" lon="-7.5838665962219">
        <ele>457</ele>
        <time>2019-09-11T08:58:00+00:00</time>
      </trkpt>
      <trkpt lat="43.323192596436" lon="-7.583881855011">
        <ele>457</ele>
        <time>2019-09-11T08:58:01+00:00</time>
      </trkpt>
      <trkpt lat="43.32320022583" lon="-7.5839033126831">
        <ele>457</ele>
        <time>2019-09-11T08:58:02+00:00</time>
      </trkpt>
      <trkpt lat="43.323196411133" lon="-7.5839200019836">
        <ele>457</ele>
        <time>2019-09-11T08:58:03+00:00</time>
      </trkpt>
      <trkpt lat="43.323184967041" lon="-7.5839414596558">
        <ele>457</ele>
        <time>2019-09-11T08:58:04+00:00</time>
      </trkpt>
      <trkpt lat="43.323181152344" lon="-7.5839567184448">
        <ele>457</ele>
        <time>2019-09-11T08:58:05+00:00</time>
      </trkpt>
      <trkpt lat="43.323173522949" lon="-7.5839800834656">
        <ele>457</ele>
        <time>2019-09-11T08:58:06+00:00</time>
      </trkpt>
      <trkpt lat="43.32315826416" lon="-7.583993434906">
        <ele>457</ele>
        <time>2019-09-11T08:58:07+00:00</time>
      </trkpt>
      <trkpt lat="43.323146820068" lon="-7.5840048789978">
        <ele>457</ele>
        <time>2019-09-11T08:58:08+00:00</time>
      </trkpt>
      <trkpt lat="43.323139190674" lon="-7.5840148925781">
        <ele>457</ele>
        <time>2019-09-11T08:58:09+00:00</time>
      </trkpt>
      <trkpt lat="43.323131561279" lon="-7.5840215682983">
        <ele>457</ele>
        <time>2019-09-11T08:58:10+00:00</time>
      </trkpt>
      <trkpt lat="43.32311630249" lon="-7.584023475647">
        <ele>457</ele>
        <time>2019-09-11T08:58:11+00:00</time>
      </trkpt>
      <trkpt lat="43.323101043701" lon="-7.5840268135071">
        <ele>457</ele>
        <time>2019-09-11T08:58:12+00:00</time>
      </trkpt>
      <trkpt lat="43.323097229004" lon="-7.5840382575989">
        <ele>457</ele>
        <time>2019-09-11T08:58:13+00:00</time>
      </trkpt>
      <trkpt lat="43.323089599609" lon="-7.5840468406677">
        <ele>457</ele>
        <time>2019-09-11T08:58:14+00:00</time>
      </trkpt>
      <trkpt lat="43.323081970215" lon="-7.5840582847595">
        <ele>457</ele>
        <time>2019-09-11T08:58:15+00:00</time>
      </trkpt>
      <trkpt lat="43.323070526123" lon="-7.5840616226196">
        <ele>457</ele>
        <time>2019-09-11T08:58:16+00:00</time>
      </trkpt>
      <trkpt lat="43.323051452637" lon="-7.5840635299683">
        <ele>456</ele>
        <time>2019-09-11T08:58:17+00:00</time>
      </trkpt>
      <trkpt lat="43.323047637939" lon="-7.5840716362">
        <ele>456</ele>
        <time>2019-09-11T08:58:18+00:00</time>
      </trkpt>
      <trkpt lat="43.323040008545" lon="-7.5840802192688">
        <ele>456</ele>
        <time>2019-09-11T08:58:19+00:00</time>
      </trkpt>
      <trkpt lat="43.323036193848" lon="-7.5840916633606">
        <ele>456</ele>
        <time>2019-09-11T08:58:20+00:00</time>
      </trkpt>
      <trkpt lat="43.32303237915" lon="-7.5841097831726">
        <ele>456</ele>
        <time>2019-09-11T08:58:21+00:00</time>
      </trkpt>
      <trkpt lat="43.323024749756" lon="-7.5841250419617">
        <ele>456</ele>
        <time>2019-09-11T08:58:22+00:00</time>
      </trkpt>
      <trkpt lat="43.323024749756" lon="-7.5841431617737">
        <ele>456</ele>
        <time>2019-09-11T08:58:23+00:00</time>
      </trkpt>
      <trkpt lat="43.323017120361" lon="-7.5841498374939">
        <ele>456</ele>
        <time>2019-09-11T08:58:24+00:00</time>
      </trkpt>
      <trkpt lat="43.323001861572" lon="-7.5841565132141">
        <ele>455</ele>
        <time>2019-09-11T08:58:25+00:00</time>
      </trkpt>
      <trkpt lat="43.323001861572" lon="-7.5841784477234">
        <ele>455</ele>
        <time>2019-09-11T08:58:26+00:00</time>
      </trkpt>
      <trkpt lat="43.323001861572" lon="-7.5841965675354">
        <ele>455</ele>
        <time>2019-09-11T08:58:27+00:00</time>
      </trkpt>
      <trkpt lat="43.323001861572" lon="-7.5842199325562">
        <ele>455</ele>
        <time>2019-09-11T08:58:28+00:00</time>
      </trkpt>
      <trkpt lat="43.322998046875" lon="-7.5842351913452">
        <ele>455</ele>
        <time>2019-09-11T08:58:29+00:00</time>
      </trkpt>
      <trkpt lat="43.323001861572" lon="-7.5842499732971">
        <ele>455</ele>
        <time>2019-09-11T08:58:30+00:00</time>
      </trkpt>
      <trkpt lat="43.322998046875" lon="-7.5842599868774">
        <ele>455</ele>
        <time>2019-09-11T08:58:31+00:00</time>
      </trkpt>
      <trkpt lat="43.32299041748" lon="-7.5842714309692">
        <ele>455</ele>
        <time>2019-09-11T08:58:32+00:00</time>
      </trkpt>
      <trkpt lat="43.322986602783" lon="-7.5842866897583">
        <ele>455</ele>
        <time>2019-09-11T08:58:33+00:00</time>
      </trkpt>
      <trkpt lat="43.322975158691" lon="-7.5842967033386">
        <ele>455</ele>
        <time>2019-09-11T08:58:34+00:00</time>
      </trkpt>
      <trkpt lat="43.3229637146" lon="-7.58429479599">
        <ele>455</ele>
        <time>2019-09-11T08:58:35+00:00</time>
      </trkpt>
      <trkpt lat="43.322956085205" lon="-7.5843048095703">
        <ele>455</ele>
        <time>2019-09-11T08:58:36+00:00</time>
      </trkpt>
      <trkpt lat="43.322944641113" lon="-7.5843133926392">
        <ele>455</ele>
        <time>2019-09-11T08:58:37+00:00</time>
      </trkpt>
      <trkpt lat="43.322937011719" lon="-7.5843234062195">
        <ele>455</ele>
        <time>2019-09-11T08:58:38+00:00</time>
      </trkpt>
      <trkpt lat="43.322933197021" lon="-7.5843381881714">
        <ele>456</ele>
        <time>2019-09-11T08:58:39+00:00</time>
      </trkpt>
      <trkpt lat="43.322925567627" lon="-7.5843515396118">
        <ele>456</ele>
        <time>2019-09-11T08:58:40+00:00</time>
      </trkpt>
      <trkpt lat="43.322914123535" lon="-7.5843734741211">
        <ele>456</ele>
        <time>2019-09-11T08:58:41+00:00</time>
      </trkpt>
      <trkpt lat="43.322906494141" lon="-7.5843968391418">
        <ele>456</ele>
        <time>2019-09-11T08:58:42+00:00</time>
      </trkpt>
      <trkpt lat="43.322898864746" lon="-7.5844202041626">
        <ele>456</ele>
        <time>2019-09-11T08:58:43+00:00</time>
      </trkpt>
      <trkpt lat="43.322895050049" lon="-7.5844349861145">
        <ele>456</ele>
        <time>2019-09-11T08:58:44+00:00</time>
      </trkpt>
      <trkpt lat="43.322887420654" lon="-7.5844531059265">
        <ele>456</ele>
        <time>2019-09-11T08:58:45+00:00</time>
      </trkpt>
      <trkpt lat="43.322875976562" lon="-7.5844664573669">
        <ele>457</ele>
        <time>2019-09-11T08:58:46+00:00</time>
      </trkpt>
      <trkpt lat="43.322872161865" lon="-7.5844783782959">
        <ele>457</ele>
        <time>2019-09-11T08:58:47+00:00</time>
      </trkpt>
      <trkpt lat="43.322868347168" lon="-7.5844917297363">
        <ele>457</ele>
        <time>2019-09-11T08:58:48+00:00</time>
      </trkpt>
      <trkpt lat="43.322868347168" lon="-7.5845017433167">
        <ele>457</ele>
        <time>2019-09-11T08:58:49+00:00</time>
      </trkpt>
      <trkpt lat="43.322864532471" lon="-7.5845165252686">
        <ele>457</ele>
        <time>2019-09-11T08:58:50+00:00</time>
      </trkpt>
      <trkpt lat="43.322860717773" lon="-7.5845365524292">
        <ele>457</ele>
        <time>2019-09-11T08:58:51+00:00</time>
      </trkpt>
      <trkpt lat="43.322856903076" lon="-7.5845465660095">
        <ele>457</ele>
        <time>2019-09-11T08:58:52+00:00</time>
      </trkpt>
      <trkpt lat="43.322853088379" lon="-7.5845565795898">
        <ele>458</ele>
        <time>2019-09-11T08:58:53+00:00</time>
      </trkpt>
      <trkpt lat="43.322845458984" lon="-7.5845785140991">
        <ele>458</ele>
        <time>2019-09-11T08:58:54+00:00</time>
      </trkpt>
      <trkpt lat="43.322841644287" lon="-7.5845966339111">
        <ele>458</ele>
        <time>2019-09-11T08:58:55+00:00</time>
      </trkpt>
      <trkpt lat="43.322841644287" lon="-7.5846099853516">
        <ele>458</ele>
        <time>2019-09-11T08:58:56+00:00</time>
      </trkpt>
      <trkpt lat="43.322834014893" lon="-7.5846300125122">
        <ele>458</ele>
        <time>2019-09-11T08:58:57+00:00</time>
      </trkpt>
      <trkpt lat="43.322830200195" lon="-7.584641456604">
        <ele>458</ele>
        <time>2019-09-11T08:58:58+00:00</time>
      </trkpt>
      <trkpt lat="43.322818756104" lon="-7.5846548080444">
        <ele>457</ele>
        <time>2019-09-11T08:58:59+00:00</time>
      </trkpt>
      <trkpt lat="43.322814941406" lon="-7.5846667289734">
        <ele>457</ele>
        <time>2019-09-11T08:59:00+00:00</time>
      </trkpt>
      <trkpt lat="43.322811126709" lon="-7.584671497345">
        <ele>457</ele>
        <time>2019-09-11T08:59:01+00:00</time>
      </trkpt>
      <trkpt lat="43.32279586792" lon="-7.5846781730652">
        <ele>457</ele>
        <time>2019-09-11T08:59:02+00:00</time>
      </trkpt>
      <trkpt lat="43.322788238525" lon="-7.5846881866455">
        <ele>457</ele>
        <time>2019-09-11T08:59:03+00:00</time>
      </trkpt>
      <trkpt lat="43.322799682617" lon="-7.5847015380859">
        <ele>457</ele>
        <time>2019-09-11T08:59:04+00:00</time>
      </trkpt>
      <trkpt lat="43.322799682617" lon="-7.584716796875">
        <ele>457</ele>
        <time>2019-09-11T08:59:05+00:00</time>
      </trkpt>
      <trkpt lat="43.32279586792" lon="-7.5847334861755">
        <ele>457</ele>
        <time>2019-09-11T08:59:06+00:00</time>
      </trkpt>
      <trkpt lat="43.32279586792" lon="-7.5847449302673">
        <ele>457</ele>
        <time>2019-09-11T08:59:07+00:00</time>
      </trkpt>
      <trkpt lat="43.322792053223" lon="-7.5847582817078">
        <ele>457</ele>
        <time>2019-09-11T08:59:08+00:00</time>
      </trkpt>
      <trkpt lat="43.322784423828" lon="-7.5847682952881">
        <ele>457</ele>
        <time>2019-09-11T08:59:09+00:00</time>
      </trkpt>
      <trkpt lat="43.322776794434" lon="-7.5847783088684">
        <ele>457</ele>
        <time>2019-09-11T08:59:10+00:00</time>
      </trkpt>
      <trkpt lat="43.322769165039" lon="-7.5847902297974">
        <ele>457</ele>
        <time>2019-09-11T08:59:11+00:00</time>
      </trkpt>
      <trkpt lat="43.322761535645" lon="-7.5847997665405">
        <ele>457</ele>
        <time>2019-09-11T08:59:12+00:00</time>
      </trkpt>
      <trkpt lat="43.32275390625" lon="-7.584813117981">
        <ele>457</ele>
        <time>2019-09-11T08:59:13+00:00</time>
      </trkpt>
      <trkpt lat="43.322750091553" lon="-7.5848331451416">
        <ele>456</ele>
        <time>2019-09-11T08:59:14+00:00</time>
      </trkpt>
      <trkpt lat="43.322746276855" lon="-7.584846496582">
        <ele>456</ele>
        <time>2019-09-11T08:59:15+00:00</time>
      </trkpt>
      <trkpt lat="43.322742462158" lon="-7.5848550796509">
        <ele>456</ele>
        <time>2019-09-11T08:59:16+00:00</time>
      </trkpt>
      <trkpt lat="43.322734832764" lon="-7.584858417511">
        <ele>456</ele>
        <time>2019-09-11T08:59:17+00:00</time>
      </trkpt>
      <trkpt lat="43.322731018066" lon="-7.5848650932312">
        <ele>456</ele>
        <time>2019-09-11T08:59:18+00:00</time>
      </trkpt>
      <trkpt lat="43.322723388672" lon="-7.5848698616028">
        <ele>456</ele>
        <time>2019-09-11T08:59:19+00:00</time>
      </trkpt>
      <trkpt lat="43.322719573975" lon="-7.5848798751831">
        <ele>456</ele>
        <time>2019-09-11T08:59:20+00:00</time>
      </trkpt>
      <trkpt lat="43.32271194458" lon="-7.5848932266235">
        <ele>456</ele>
        <time>2019-09-11T08:59:21+00:00</time>
      </trkpt>
      <trkpt lat="43.32271194458" lon="-7.5849132537842">
        <ele>456</ele>
        <time>2019-09-11T08:59:22+00:00</time>
      </trkpt>
      <trkpt lat="43.322708129883" lon="-7.5849266052246">
        <ele>455</ele>
        <time>2019-09-11T08:59:23+00:00</time>
      </trkpt>
      <trkpt lat="43.322696685791" lon="-7.5849418640137">
        <ele>455</ele>
        <time>2019-09-11T08:59:24+00:00</time>
      </trkpt>
      <trkpt lat="43.322696685791" lon="-7.5849485397339">
        <ele>454</ele>
        <time>2019-09-11T08:59:25+00:00</time>
      </trkpt>
      <trkpt lat="43.322700500488" lon="-7.5849566459656">
        <ele>454</ele>
        <time>2019-09-11T08:59:26+00:00</time>
      </trkpt>
      <trkpt lat="43.322704315186" lon="-7.5849652290344">
        <ele>453</ele>
        <time>2019-09-11T08:59:27+00:00</time>
      </trkpt>
      <trkpt lat="43.322696685791" lon="-7.5849766731262">
        <ele>453</ele>
        <time>2019-09-11T08:59:28+00:00</time>
      </trkpt>
      <trkpt lat="43.322696685791" lon="-7.5849866867065">
        <ele>453</ele>
        <time>2019-09-11T08:59:29+00:00</time>
      </trkpt>
      <trkpt lat="43.322692871094" lon="-7.5849933624268">
        <ele>453</ele>
        <time>2019-09-11T08:59:30+00:00</time>
      </trkpt>
      <trkpt lat="43.322685241699" lon="-7.5849967002869">
        <ele>452</ele>
        <time>2019-09-11T08:59:31+00:00</time>
      </trkpt>
      <trkpt lat="43.322685241699" lon="-7.5850014686584">
        <ele>452</ele>
        <time>2019-09-11T08:59:32+00:00</time>
      </trkpt>
      <trkpt lat="43.322685241699" lon="-7.5850114822388">
        <ele>452</ele>
        <time>2019-09-11T08:59:33+00:00</time>
      </trkpt>
      <trkpt lat="43.322677612305" lon="-7.5850200653076">
        <ele>451</ele>
        <time>2019-09-11T08:59:34+00:00</time>
      </trkpt>
      <trkpt lat="43.322673797607" lon="-7.5850167274475">
        <ele>451</ele>
        <time>2019-09-11T08:59:35+00:00</time>
      </trkpt>
      <trkpt lat="43.322673797607" lon="-7.5850148200989">
        <ele>451</ele>
        <time>2019-09-11T08:59:36+00:00</time>
      </trkpt>
      <trkpt lat="43.32266998291" lon="-7.5850214958191">
        <ele>451</ele>
        <time>2019-09-11T08:59:37+00:00</time>
      </trkpt>
      <trkpt lat="43.322662353516" lon="-7.5850267410278">
        <ele>451</ele>
        <time>2019-09-11T08:59:38+00:00</time>
      </trkpt>
      <trkpt lat="43.322647094727" lon="-7.5850415229797">
        <ele>451</ele>
        <time>2019-09-11T08:59:39+00:00</time>
      </trkpt>
      <trkpt lat="43.322635650635" lon="-7.5850582122803">
        <ele>452</ele>
        <time>2019-09-11T08:59:40+00:00</time>
      </trkpt>
      <trkpt lat="43.322631835938" lon="-7.5850734710693">
        <ele>452</ele>
        <time>2019-09-11T08:59:41+00:00</time>
      </trkpt>
      <trkpt lat="43.322620391846" lon="-7.5850915908813">
        <ele>452</ele>
        <time>2019-09-11T08:59:42+00:00</time>
      </trkpt>
      <trkpt lat="43.322605133057" lon="-7.5851049423218">
        <ele>452</ele>
        <time>2019-09-11T08:59:43+00:00</time>
      </trkpt>
      <trkpt lat="43.322597503662" lon="-7.5851202011108">
        <ele>452</ele>
        <time>2019-09-11T08:59:44+00:00</time>
      </trkpt>
      <trkpt lat="43.322589874268" lon="-7.5851349830627">
        <ele>452</ele>
        <time>2019-09-11T08:59:45+00:00</time>
      </trkpt>
      <trkpt lat="43.322574615479" lon="-7.5851469039917">
        <ele>451</ele>
        <time>2019-09-11T08:59:46+00:00</time>
      </trkpt>
      <trkpt lat="43.322566986084" lon="-7.5851564407349">
        <ele>451</ele>
        <time>2019-09-11T08:59:47+00:00</time>
      </trkpt>
      <trkpt lat="43.322555541992" lon="-7.5851697921753">
        <ele>451</ele>
        <time>2019-09-11T08:59:48+00:00</time>
      </trkpt>
      <trkpt lat="43.322540283203" lon="-7.5851850509644">
        <ele>451</ele>
        <time>2019-09-11T08:59:49+00:00</time>
      </trkpt>
      <trkpt lat="43.322525024414" lon="-7.5851950645447">
        <ele>451</ele>
        <time>2019-09-11T08:59:50+00:00</time>
      </trkpt>
      <trkpt lat="43.322513580322" lon="-7.5851984024048">
        <ele>450</ele>
        <time>2019-09-11T08:59:51+00:00</time>
      </trkpt>
      <trkpt lat="43.322513580322" lon="-7.585193157196">
        <ele>450</ele>
        <time>2019-09-11T08:59:52+00:00</time>
      </trkpt>
      <trkpt lat="43.322513580322" lon="-7.585193157196">
        <ele>450</ele>
        <time>2019-09-11T08:59:53+00:00</time>
      </trkpt>
      <trkpt lat="43.322513580322" lon="-7.5851950645447">
        <ele>450</ele>
        <time>2019-09-11T08:59:54+00:00</time>
      </trkpt>
      <trkpt lat="43.322513580322" lon="-7.5851964950562">
        <ele>451</ele>
        <time>2019-09-11T08:59:55+00:00</time>
      </trkpt>
      <trkpt lat="43.322513580322" lon="-7.585205078125">
        <ele>451</ele>
        <time>2019-09-11T08:59:56+00:00</time>
      </trkpt>
      <trkpt lat="43.322513580322" lon="-7.5852065086365">
        <ele>451</ele>
        <time>2019-09-11T08:59:57+00:00</time>
      </trkpt>
      <trkpt lat="43.322513580322" lon="-7.5852131843567">
        <ele>451</ele>
        <time>2019-09-11T08:59:58+00:00</time>
      </trkpt>
      <trkpt lat="43.322509765625" lon="-7.5852298736572">
        <ele>451</ele>
        <time>2019-09-11T08:59:59+00:00</time>
      </trkpt>
      <trkpt lat="43.322509765625" lon="-7.5852451324463">
        <ele>451</ele>
        <time>2019-09-11T09:00:00+00:00</time>
      </trkpt>
      <trkpt lat="43.322505950928" lon="-7.5852584838867">
        <ele>451</ele>
        <time>2019-09-11T09:00:01+00:00</time>
      </trkpt>
      <trkpt lat="43.322498321533" lon="-7.5852699279785">
        <ele>451</ele>
        <time>2019-09-11T09:00:02+00:00</time>
      </trkpt>
      <trkpt lat="43.322490692139" lon="-7.5852832794189">
        <ele>451</ele>
        <time>2019-09-11T09:00:03+00:00</time>
      </trkpt>
      <trkpt lat="43.322479248047" lon="-7.5853018760681">
        <ele>451</ele>
        <time>2019-09-11T09:00:04+00:00</time>
      </trkpt>
      <trkpt lat="43.322471618652" lon="-7.5853152275085">
        <ele>452</ele>
        <time>2019-09-11T09:00:05+00:00</time>
      </trkpt>
      <trkpt lat="43.322463989258" lon="-7.5853300094604">
        <ele>452</ele>
        <time>2019-09-11T09:00:06+00:00</time>
      </trkpt>
      <trkpt lat="43.322452545166" lon="-7.5853433609009">
        <ele>452</ele>
        <time>2019-09-11T09:00:07+00:00</time>
      </trkpt>
      <trkpt lat="43.322441101074" lon="-7.5853600502014">
        <ele>452</ele>
        <time>2019-09-11T09:00:08+00:00</time>
      </trkpt>
      <trkpt lat="43.322429656982" lon="-7.5853734016418">
        <ele>452</ele>
        <time>2019-09-11T09:00:09+00:00</time>
      </trkpt>
      <trkpt lat="43.322414398193" lon="-7.5853848457336">
        <ele>452</ele>
        <time>2019-09-11T09:00:10+00:00</time>
      </trkpt>
      <trkpt lat="43.322402954102" lon="-7.585394859314">
        <ele>452</ele>
        <time>2019-09-11T09:00:11+00:00</time>
      </trkpt>
      <trkpt lat="43.32239151001" lon="-7.5854001045227">
        <ele>452</ele>
        <time>2019-09-11T09:00:12+00:00</time>
      </trkpt>
      <trkpt lat="43.322380065918" lon="-7.5854082107544">
        <ele>453</ele>
        <time>2019-09-11T09:00:13+00:00</time>
      </trkpt>
      <trkpt lat="43.322368621826" lon="-7.5854134559631">
        <ele>453</ele>
        <time>2019-09-11T09:00:14+00:00</time>
      </trkpt>
      <trkpt lat="43.322364807129" lon="-7.5854148864746">
        <ele>453</ele>
        <time>2019-09-11T09:00:15+00:00</time>
      </trkpt>
      <trkpt lat="43.322360992432" lon="-7.585428237915">
        <ele>453</ele>
        <time>2019-09-11T09:00:16+00:00</time>
      </trkpt>
      <trkpt lat="43.322353363037" lon="-7.5854382514954">
        <ele>453</ele>
        <time>2019-09-11T09:00:17+00:00</time>
      </trkpt>
      <trkpt lat="43.322341918945" lon="-7.5854501724243">
        <ele>453</ele>
        <time>2019-09-11T09:00:18+00:00</time>
      </trkpt>
      <trkpt lat="43.322334289551" lon="-7.5854568481445">
        <ele>454</ele>
        <time>2019-09-11T09:00:19+00:00</time>
      </trkpt>
      <trkpt lat="43.322326660156" lon="-7.5854649543762">
        <ele>454</ele>
        <time>2019-09-11T09:00:20+00:00</time>
      </trkpt>
      <trkpt lat="43.322315216064" lon="-7.5854716300964">
        <ele>454</ele>
        <time>2019-09-11T09:00:21+00:00</time>
      </trkpt>
      <trkpt lat="43.322303771973" lon="-7.585488319397">
        <ele>454</ele>
        <time>2019-09-11T09:00:22+00:00</time>
      </trkpt>
      <trkpt lat="43.322299957275" lon="-7.5854997634888">
        <ele>454</ele>
        <time>2019-09-11T09:00:23+00:00</time>
      </trkpt>
      <trkpt lat="43.322292327881" lon="-7.5855097770691">
        <ele>454</ele>
        <time>2019-09-11T09:00:24+00:00</time>
      </trkpt>
      <trkpt lat="43.322280883789" lon="-7.5855183601379">
        <ele>454</ele>
        <time>2019-09-11T09:00:25+00:00</time>
      </trkpt>
      <trkpt lat="43.322277069092" lon="-7.5855231285095">
        <ele>454</ele>
        <time>2019-09-11T09:00:26+00:00</time>
      </trkpt>
      <trkpt lat="43.322273254395" lon="-7.5855298042297">
        <ele>454</ele>
        <time>2019-09-11T09:00:27+00:00</time>
      </trkpt>
      <trkpt lat="43.322269439697" lon="-7.58553647995">
        <ele>454</ele>
        <time>2019-09-11T09:00:28+00:00</time>
      </trkpt>
      <trkpt lat="43.322269439697" lon="-7.5855450630188">
        <ele>454</ele>
        <time>2019-09-11T09:00:29+00:00</time>
      </trkpt>
      <trkpt lat="43.322265625" lon="-7.5855484008789">
        <ele>454</ele>
        <time>2019-09-11T09:00:30+00:00</time>
      </trkpt>
      <trkpt lat="43.322257995605" lon="-7.5855631828308">
        <ele>454</ele>
        <time>2019-09-11T09:00:31+00:00</time>
      </trkpt>
      <trkpt lat="43.322254180908" lon="-7.58558177948">
        <ele>454</ele>
        <time>2019-09-11T09:00:32+00:00</time>
      </trkpt>
      <trkpt lat="43.322250366211" lon="-7.5856018066406">
        <ele>454</ele>
        <time>2019-09-11T09:00:33+00:00</time>
      </trkpt>
      <trkpt lat="43.322238922119" lon="-7.5856232643127">
        <ele>454</ele>
        <time>2019-09-11T09:00:34+00:00</time>
      </trkpt>
      <trkpt lat="43.322235107422" lon="-7.5856366157532">
        <ele>454</ele>
        <time>2019-09-11T09:00:35+00:00</time>
      </trkpt>
      <trkpt lat="43.322227478027" lon="-7.5856499671936">
        <ele>454</ele>
        <time>2019-09-11T09:00:36+00:00</time>
      </trkpt>
      <trkpt lat="43.32222366333" lon="-7.5856566429138">
        <ele>454</ele>
        <time>2019-09-11T09:00:37+00:00</time>
      </trkpt>
      <trkpt lat="43.322212219238" lon="-7.5856719017029">
        <ele>454</ele>
        <time>2019-09-11T09:00:38+00:00</time>
      </trkpt>
      <trkpt lat="43.322193145752" lon="-7.5856766700745">
        <ele>453</ele>
        <time>2019-09-11T09:00:39+00:00</time>
      </trkpt>
      <trkpt lat="43.32218170166" lon="-7.5856881141663">
        <ele>453</ele>
        <time>2019-09-11T09:00:40+00:00</time>
      </trkpt>
      <trkpt lat="43.322166442871" lon="-7.5857081413269">
        <ele>453</ele>
        <time>2019-09-11T09:00:41+00:00</time>
      </trkpt>
      <trkpt lat="43.322154998779" lon="-7.5857334136963">
        <ele>454</ele>
        <time>2019-09-11T09:00:42+00:00</time>
      </trkpt>
      <trkpt lat="43.322147369385" lon="-7.5857501029968">
        <ele>454</ele>
        <time>2019-09-11T09:00:43+00:00</time>
      </trkpt>
      <trkpt lat="43.322143554688" lon="-7.5857648849487">
        <ele>454</ele>
        <time>2019-09-11T09:00:44+00:00</time>
      </trkpt>
      <trkpt lat="43.322143554688" lon="-7.5857782363892">
        <ele>454</ele>
        <time>2019-09-11T09:00:45+00:00</time>
      </trkpt>
      <trkpt lat="43.32213973999" lon="-7.585786819458">
        <ele>454</ele>
        <time>2019-09-11T09:00:46+00:00</time>
      </trkpt>
      <trkpt lat="43.322132110596" lon="-7.5857934951782">
        <ele>454</ele>
        <time>2019-09-11T09:00:47+00:00</time>
      </trkpt>
      <trkpt lat="43.322135925293" lon="-7.58580493927">
        <ele>454</ele>
        <time>2019-09-11T09:00:48+00:00</time>
      </trkpt>
      <trkpt lat="43.322128295898" lon="-7.5858116149902">
        <ele>454</ele>
        <time>2019-09-11T09:00:49+00:00</time>
      </trkpt>
      <trkpt lat="43.322124481201" lon="-7.585816860199">
        <ele>454</ele>
        <time>2019-09-11T09:00:50+00:00</time>
      </trkpt>
      <trkpt lat="43.322116851807" lon="-7.5858235359192">
        <ele>454</ele>
        <time>2019-09-11T09:00:51+00:00</time>
      </trkpt>
      <trkpt lat="43.322105407715" lon="-7.5858435630798">
        <ele>454</ele>
        <time>2019-09-11T09:00:52+00:00</time>
      </trkpt>
      <trkpt lat="43.322093963623" lon="-7.5858631134033">
        <ele>454</ele>
        <time>2019-09-11T09:00:53+00:00</time>
      </trkpt>
      <trkpt lat="43.322074890137" lon="-7.5858798027039">
        <ele>454</ele>
        <time>2019-09-11T09:00:54+00:00</time>
      </trkpt>
      <trkpt lat="43.322052001953" lon="-7.585898399353">
        <ele>454</ele>
        <time>2019-09-11T09:00:55+00:00</time>
      </trkpt>
      <trkpt lat="43.322032928467" lon="-7.5859150886536">
        <ele>454</ele>
        <time>2019-09-11T09:00:56+00:00</time>
      </trkpt>
      <trkpt lat="43.322010040283" lon="-7.585928440094">
        <ele>454</ele>
        <time>2019-09-11T09:00:57+00:00</time>
      </trkpt>
      <trkpt lat="43.3219871521" lon="-7.5859398841858">
        <ele>454</ele>
        <time>2019-09-11T09:00:58+00:00</time>
      </trkpt>
      <trkpt lat="43.321968078613" lon="-7.5859518051147">
        <ele>454</ele>
        <time>2019-09-11T09:00:59+00:00</time>
      </trkpt>
      <trkpt lat="43.321949005127" lon="-7.5859632492065">
        <ele>454</ele>
        <time>2019-09-11T09:01:00+00:00</time>
      </trkpt>
      <trkpt lat="43.321929931641" lon="-7.5859718322754">
        <ele>454</ele>
        <time>2019-09-11T09:01:01+00:00</time>
      </trkpt>
      <trkpt lat="43.321922302246" lon="-7.585991859436">
        <ele>454</ele>
        <time>2019-09-11T09:01:02+00:00</time>
      </trkpt>
      <trkpt lat="43.321914672852" lon="-7.5859985351562">
        <ele>454</ele>
        <time>2019-09-11T09:01:03+00:00</time>
      </trkpt>
      <trkpt lat="43.321918487549" lon="-7.5860085487366">
        <ele>454</ele>
        <time>2019-09-11T09:01:04+00:00</time>
      </trkpt>
      <trkpt lat="43.321918487549" lon="-7.5860185623169">
        <ele>453</ele>
        <time>2019-09-11T09:01:05+00:00</time>
      </trkpt>
      <trkpt lat="43.321910858154" lon="-7.5860280990601">
        <ele>453</ele>
        <time>2019-09-11T09:01:06+00:00</time>
      </trkpt>
      <trkpt lat="43.321907043457" lon="-7.5860381126404">
        <ele>452</ele>
        <time>2019-09-11T09:01:07+00:00</time>
      </trkpt>
      <trkpt lat="43.321899414062" lon="-7.5860500335693">
        <ele>452</ele>
        <time>2019-09-11T09:01:08+00:00</time>
      </trkpt>
      <trkpt lat="43.321891784668" lon="-7.586058139801">
        <ele>452</ele>
        <time>2019-09-11T09:01:09+00:00</time>
      </trkpt>
      <trkpt lat="43.321887969971" lon="-7.5860681533813">
        <ele>452</ele>
        <time>2019-09-11T09:01:10+00:00</time>
      </trkpt>
      <trkpt lat="43.321880340576" lon="-7.5860767364502">
        <ele>452</ele>
        <time>2019-09-11T09:01:11+00:00</time>
      </trkpt>
      <trkpt lat="43.321872711182" lon="-7.5860867500305">
        <ele>452</ele>
        <time>2019-09-11T09:01:12+00:00</time>
      </trkpt>
      <trkpt lat="43.32186126709" lon="-7.5860948562622">
        <ele>452</ele>
        <time>2019-09-11T09:01:13+00:00</time>
      </trkpt>
      <trkpt lat="43.321849822998" lon="-7.5861034393311">
        <ele>451</ele>
        <time>2019-09-11T09:01:14+00:00</time>
      </trkpt>
      <trkpt lat="43.321842193604" lon="-7.586118221283">
        <ele>451</ele>
        <time>2019-09-11T09:01:15+00:00</time>
      </trkpt>
      <trkpt lat="43.321830749512" lon="-7.5861248970032">
        <ele>451</ele>
        <time>2019-09-11T09:01:16+00:00</time>
      </trkpt>
      <trkpt lat="43.321815490723" lon="-7.5861368179321">
        <ele>451</ele>
        <time>2019-09-11T09:01:17+00:00</time>
      </trkpt>
      <trkpt lat="43.321807861328" lon="-7.5861482620239">
        <ele>451</ele>
        <time>2019-09-11T09:01:18+00:00</time>
      </trkpt>
      <trkpt lat="43.321804046631" lon="-7.5861649513245">
        <ele>450</ele>
        <time>2019-09-11T09:01:19+00:00</time>
      </trkpt>
      <trkpt lat="43.321804046631" lon="-7.5861849784851">
        <ele>450</ele>
        <time>2019-09-11T09:01:20+00:00</time>
      </trkpt>
      <trkpt lat="43.321796417236" lon="-7.5861949920654">
        <ele>450</ele>
        <time>2019-09-11T09:01:21+00:00</time>
      </trkpt>
      <trkpt lat="43.321792602539" lon="-7.5862097740173">
        <ele>450</ele>
        <time>2019-09-11T09:01:22+00:00</time>
      </trkpt>
      <trkpt lat="43.321788787842" lon="-7.5862283706665">
        <ele>450</ele>
        <time>2019-09-11T09:01:23+00:00</time>
      </trkpt>
      <trkpt lat="43.321781158447" lon="-7.5862364768982">
        <ele>449</ele>
        <time>2019-09-11T09:01:24+00:00</time>
      </trkpt>
      <trkpt lat="43.321773529053" lon="-7.586245059967">
        <ele>449</ele>
        <time>2019-09-11T09:01:25+00:00</time>
      </trkpt>
      <trkpt lat="43.321769714355" lon="-7.5862517356873">
        <ele>449</ele>
        <time>2019-09-11T09:01:26+00:00</time>
      </trkpt>
      <trkpt lat="43.321765899658" lon="-7.5862498283386">
        <ele>449</ele>
        <time>2019-09-11T09:01:27+00:00</time>
      </trkpt>
      <trkpt lat="43.321773529053" lon="-7.5862464904785">
        <ele>449</ele>
        <time>2019-09-11T09:01:28+00:00</time>
      </trkpt>
      <trkpt lat="43.321765899658" lon="-7.5862584114075">
        <ele>449</ele>
        <time>2019-09-11T09:01:29+00:00</time>
      </trkpt>
      <trkpt lat="43.321754455566" lon="-7.5862665176392">
        <ele>448</ele>
        <time>2019-09-11T09:01:30+00:00</time>
      </trkpt>
      <trkpt lat="43.321743011475" lon="-7.5862798690796">
        <ele>448</ele>
        <time>2019-09-11T09:01:31+00:00</time>
      </trkpt>
      <trkpt lat="43.321727752686" lon="-7.58629322052">
        <ele>448</ele>
        <time>2019-09-11T09:01:32+00:00</time>
      </trkpt>
      <trkpt lat="43.321723937988" lon="-7.5863065719604">
        <ele>448</ele>
        <time>2019-09-11T09:01:33+00:00</time>
      </trkpt>
      <trkpt lat="43.321720123291" lon="-7.5863132476807">
        <ele>448</ele>
        <time>2019-09-11T09:01:34+00:00</time>
      </trkpt>
      <trkpt lat="43.321712493896" lon="-7.5863265991211">
        <ele>448</ele>
        <time>2019-09-11T09:01:35+00:00</time>
      </trkpt>
      <trkpt lat="43.321708679199" lon="-7.58633852005">
        <ele>448</ele>
        <time>2019-09-11T09:01:36+00:00</time>
      </trkpt>
      <trkpt lat="43.321689605713" lon="-7.5863585472107">
        <ele>448</ele>
        <time>2019-09-11T09:01:37+00:00</time>
      </trkpt>
      <trkpt lat="43.321670532227" lon="-7.5863699913025">
        <ele>448</ele>
        <time>2019-09-11T09:01:38+00:00</time>
      </trkpt>
      <trkpt lat="43.321670532227" lon="-7.5863833427429">
        <ele>448</ele>
        <time>2019-09-11T09:01:39+00:00</time>
      </trkpt>
      <trkpt lat="43.321674346924" lon="-7.5864014625549">
        <ele>448</ele>
        <time>2019-09-11T09:01:40+00:00</time>
      </trkpt>
      <trkpt lat="43.321655273438" lon="-7.5864267349243">
        <ele>448</ele>
        <time>2019-09-11T09:01:41+00:00</time>
      </trkpt>
      <trkpt lat="43.32165145874" lon="-7.5864448547363">
        <ele>448</ele>
        <time>2019-09-11T09:01:42+00:00</time>
      </trkpt>
      <trkpt lat="43.321640014648" lon="-7.5864634513855">
        <ele>447</ele>
        <time>2019-09-11T09:01:43+00:00</time>
      </trkpt>
      <trkpt lat="43.321636199951" lon="-7.5864782333374">
        <ele>447</ele>
        <time>2019-09-11T09:01:44+00:00</time>
      </trkpt>
      <trkpt lat="43.321628570557" lon="-7.5864901542664">
        <ele>447</ele>
        <time>2019-09-11T09:01:45+00:00</time>
      </trkpt>
      <trkpt lat="43.321613311768" lon="-7.586498260498">
        <ele>447</ele>
        <time>2019-09-11T09:01:46+00:00</time>
      </trkpt>
      <trkpt lat="43.321613311768" lon="-7.5865135192871">
        <ele>447</ele>
        <time>2019-09-11T09:01:47+00:00</time>
      </trkpt>
      <trkpt lat="43.321598052979" lon="-7.5865302085876">
        <ele>446</ele>
        <time>2019-09-11T09:01:48+00:00</time>
      </trkpt>
      <trkpt lat="43.321586608887" lon="-7.5865383148193">
        <ele>446</ele>
        <time>2019-09-11T09:01:49+00:00</time>
      </trkpt>
      <trkpt lat="43.321575164795" lon="-7.5865483283997">
        <ele>446</ele>
        <time>2019-09-11T09:01:50+00:00</time>
      </trkpt>
      <trkpt lat="43.321575164795" lon="-7.5865597724915">
        <ele>445</ele>
        <time>2019-09-11T09:01:51+00:00</time>
      </trkpt>
      <trkpt lat="43.3215675354" lon="-7.5865731239319">
        <ele>445</ele>
        <time>2019-09-11T09:01:52+00:00</time>
      </trkpt>
      <trkpt lat="43.321552276611" lon="-7.5865797996521">
        <ele>445</ele>
        <time>2019-09-11T09:01:53+00:00</time>
      </trkpt>
      <trkpt lat="43.321548461914" lon="-7.5865883827209">
        <ele>445</ele>
        <time>2019-09-11T09:01:54+00:00</time>
      </trkpt>
      <trkpt lat="43.321537017822" lon="-7.5865998268127">
        <ele>445</ele>
        <time>2019-09-11T09:01:55+00:00</time>
      </trkpt>
      <trkpt lat="43.321533203125" lon="-7.5866117477417">
        <ele>445</ele>
        <time>2019-09-11T09:01:56+00:00</time>
      </trkpt>
      <trkpt lat="43.321529388428" lon="-7.5866184234619">
        <ele>445</ele>
        <time>2019-09-11T09:01:57+00:00</time>
      </trkpt>
      <trkpt lat="43.321521759033" lon="-7.5866231918335">
        <ele>445</ele>
        <time>2019-09-11T09:01:58+00:00</time>
      </trkpt>
      <trkpt lat="43.321514129639" lon="-7.5866317749023">
        <ele>444</ele>
        <time>2019-09-11T09:01:59+00:00</time>
      </trkpt>
      <trkpt lat="43.321514129639" lon="-7.5866451263428">
        <ele>444</ele>
        <time>2019-09-11T09:02:00+00:00</time>
      </trkpt>
      <trkpt lat="43.321510314941" lon="-7.5866565704346">
        <ele>444</ele>
        <time>2019-09-11T09:02:01+00:00</time>
      </trkpt>
      <trkpt lat="43.321506500244" lon="-7.5866665840149">
        <ele>444</ele>
        <time>2019-09-11T09:02:02+00:00</time>
      </trkpt>
      <trkpt lat="43.321506500244" lon="-7.5866832733154">
        <ele>444</ele>
        <time>2019-09-11T09:02:03+00:00</time>
      </trkpt>
      <trkpt lat="43.32149887085" lon="-7.5866966247559">
        <ele>444</ele>
        <time>2019-09-11T09:02:04+00:00</time>
      </trkpt>
      <trkpt lat="43.321495056152" lon="-7.5867099761963">
        <ele>443</ele>
        <time>2019-09-11T09:02:05+00:00</time>
      </trkpt>
      <trkpt lat="43.321495056152" lon="-7.5867199897766">
        <ele>443</ele>
        <time>2019-09-11T09:02:06+00:00</time>
      </trkpt>
      <trkpt lat="43.32149887085" lon="-7.5867252349854">
        <ele>443</ele>
        <time>2019-09-11T09:02:07+00:00</time>
      </trkpt>
      <trkpt lat="43.321495056152" lon="-7.5867314338684">
        <ele>443</ele>
        <time>2019-09-11T09:02:08+00:00</time>
      </trkpt>
      <trkpt lat="43.321491241455" lon="-7.5867381095886">
        <ele>443</ele>
        <time>2019-09-11T09:02:09+00:00</time>
      </trkpt>
      <trkpt lat="43.321483612061" lon="-7.5867481231689">
        <ele>443</ele>
        <time>2019-09-11T09:02:10+00:00</time>
      </trkpt>
      <trkpt lat="43.321479797363" lon="-7.5867547988892">
        <ele>443</ele>
        <time>2019-09-11T09:02:11+00:00</time>
      </trkpt>
      <trkpt lat="43.321475982666" lon="-7.586763381958">
        <ele>443</ele>
        <time>2019-09-11T09:02:12+00:00</time>
      </trkpt>
      <trkpt lat="43.321472167969" lon="-7.5867714881897">
        <ele>443</ele>
        <time>2019-09-11T09:02:13+00:00</time>
      </trkpt>
      <trkpt lat="43.321468353271" lon="-7.5867834091187">
        <ele>443</ele>
        <time>2019-09-11T09:02:14+00:00</time>
      </trkpt>
      <trkpt lat="43.321453094482" lon="-7.586793422699">
        <ele>443</ele>
        <time>2019-09-11T09:02:15+00:00</time>
      </trkpt>
      <trkpt lat="43.321449279785" lon="-7.5867981910706">
        <ele>442</ele>
        <time>2019-09-11T09:02:16+00:00</time>
      </trkpt>
      <trkpt lat="43.321441650391" lon="-7.5868082046509">
        <ele>442</ele>
        <time>2019-09-11T09:02:17+00:00</time>
      </trkpt>
      <trkpt lat="43.321430206299" lon="-7.5868148803711">
        <ele>442</ele>
        <time>2019-09-11T09:02:18+00:00</time>
      </trkpt>
      <trkpt lat="43.321418762207" lon="-7.5868301391602">
        <ele>442</ele>
        <time>2019-09-11T09:02:19+00:00</time>
      </trkpt>
      <trkpt lat="43.321403503418" lon="-7.586841583252">
        <ele>442</ele>
        <time>2019-09-11T09:02:20+00:00</time>
      </trkpt>
      <trkpt lat="43.321395874023" lon="-7.586856842041">
        <ele>442</ele>
        <time>2019-09-11T09:02:21+00:00</time>
      </trkpt>
      <trkpt lat="43.321392059326" lon="-7.5868701934814">
        <ele>442</ele>
        <time>2019-09-11T09:02:22+00:00</time>
      </trkpt>
      <trkpt lat="43.321388244629" lon="-7.5868782997131">
        <ele>442</ele>
        <time>2019-09-11T09:02:23+00:00</time>
      </trkpt>
      <trkpt lat="43.321388244629" lon="-7.5868902206421">
        <ele>442</ele>
        <time>2019-09-11T09:02:24+00:00</time>
      </trkpt>
      <trkpt lat="43.32137298584" lon="-7.5869030952454">
        <ele>442</ele>
        <time>2019-09-11T09:02:25+00:00</time>
      </trkpt>
      <trkpt lat="43.321361541748" lon="-7.5869183540344">
        <ele>442</ele>
        <time>2019-09-11T09:02:26+00:00</time>
      </trkpt>
      <trkpt lat="43.321350097656" lon="-7.5869331359863">
        <ele>442</ele>
        <time>2019-09-11T09:02:27+00:00</time>
      </trkpt>
      <trkpt lat="43.321334838867" lon="-7.5869498252869">
        <ele>442</ele>
        <time>2019-09-11T09:02:28+00:00</time>
      </trkpt>
      <trkpt lat="43.321323394775" lon="-7.5869517326355">
        <ele>442</ele>
        <time>2019-09-11T09:02:29+00:00</time>
      </trkpt>
      <trkpt lat="43.321311950684" lon="-7.586968421936">
        <ele>442</ele>
        <time>2019-09-11T09:02:30+00:00</time>
      </trkpt>
      <trkpt lat="43.321296691895" lon="-7.5869798660278">
        <ele>442</ele>
        <time>2019-09-11T09:02:31+00:00</time>
      </trkpt>
      <trkpt lat="43.321285247803" lon="-7.5869965553284">
        <ele>442</ele>
        <time>2019-09-11T09:02:32+00:00</time>
      </trkpt>
      <trkpt lat="43.321273803711" lon="-7.5870084762573">
        <ele>442</ele>
        <time>2019-09-11T09:02:33+00:00</time>
      </trkpt>
      <trkpt lat="43.321258544922" lon="-7.5870318412781">
        <ele>443</ele>
        <time>2019-09-11T09:02:34+00:00</time>
      </trkpt>
      <trkpt lat="43.321243286133" lon="-7.5870532989502">
        <ele>443</ele>
        <time>2019-09-11T09:02:35+00:00</time>
      </trkpt>
      <trkpt lat="43.321231842041" lon="-7.5870633125305">
        <ele>443</ele>
        <time>2019-09-11T09:02:36+00:00</time>
      </trkpt>
      <trkpt lat="43.321220397949" lon="-7.5870733261108">
        <ele>443</ele>
        <time>2019-09-11T09:02:37+00:00</time>
      </trkpt>
      <trkpt lat="43.32120513916" lon="-7.5870914459229">
        <ele>443</ele>
        <time>2019-09-11T09:02:38+00:00</time>
      </trkpt>
      <trkpt lat="43.321189880371" lon="-7.5871033668518">
        <ele>444</ele>
        <time>2019-09-11T09:02:39+00:00</time>
      </trkpt>
      <trkpt lat="43.321174621582" lon="-7.5871181488037">
        <ele>444</ele>
        <time>2019-09-11T09:02:40+00:00</time>
      </trkpt>
      <trkpt lat="43.321155548096" lon="-7.5871381759644">
        <ele>444</ele>
        <time>2019-09-11T09:02:41+00:00</time>
      </trkpt>
      <trkpt lat="43.321144104004" lon="-7.587158203125">
        <ele>444</ele>
        <time>2019-09-11T09:02:42+00:00</time>
      </trkpt>
      <trkpt lat="43.321128845215" lon="-7.5871748924255">
        <ele>444</ele>
        <time>2019-09-11T09:02:43+00:00</time>
      </trkpt>
      <trkpt lat="43.321113586426" lon="-7.5871901512146">
        <ele>445</ele>
        <time>2019-09-11T09:02:44+00:00</time>
      </trkpt>
      <trkpt lat="43.321105957031" lon="-7.5871982574463">
        <ele>445</ele>
        <time>2019-09-11T09:02:45+00:00</time>
      </trkpt>
      <trkpt lat="43.321098327637" lon="-7.5872082710266">
        <ele>445</ele>
        <time>2019-09-11T09:02:46+00:00</time>
      </trkpt>
      <trkpt lat="43.321098327637" lon="-7.5872201919556">
        <ele>446</ele>
        <time>2019-09-11T09:02:47+00:00</time>
      </trkpt>
      <trkpt lat="43.321098327637" lon="-7.5872316360474">
        <ele>446</ele>
        <time>2019-09-11T09:02:48+00:00</time>
      </trkpt>
      <trkpt lat="43.321090698242" lon="-7.5872449874878">
        <ele>446</ele>
        <time>2019-09-11T09:02:49+00:00</time>
      </trkpt>
      <trkpt lat="43.321086883545" lon="-7.5872583389282">
        <ele>447</ele>
        <time>2019-09-11T09:02:50+00:00</time>
      </trkpt>
      <trkpt lat="43.321086883545" lon="-7.5872683525085">
        <ele>447</ele>
        <time>2019-09-11T09:02:51+00:00</time>
      </trkpt>
      <trkpt lat="43.321083068848" lon="-7.5872850418091">
        <ele>447</ele>
        <time>2019-09-11T09:02:52+00:00</time>
      </trkpt>
      <trkpt lat="43.321075439453" lon="-7.5872983932495">
        <ele>448</ele>
        <time>2019-09-11T09:02:53+00:00</time>
      </trkpt>
      <trkpt lat="43.321071624756" lon="-7.5873117446899">
        <ele>448</ele>
        <time>2019-09-11T09:02:54+00:00</time>
      </trkpt>
      <trkpt lat="43.321063995361" lon="-7.5873265266418">
        <ele>448</ele>
        <time>2019-09-11T09:02:55+00:00</time>
      </trkpt>
      <trkpt lat="43.321056365967" lon="-7.5873417854309">
        <ele>448</ele>
        <time>2019-09-11T09:02:56+00:00</time>
      </trkpt>
      <trkpt lat="43.321048736572" lon="-7.5873517990112">
        <ele>449</ele>
        <time>2019-09-11T09:02:57+00:00</time>
      </trkpt>
      <trkpt lat="43.321044921875" lon="-7.5873651504517">
        <ele>449</ele>
        <time>2019-09-11T09:02:58+00:00</time>
      </trkpt>
      <trkpt lat="43.321033477783" lon="-7.5873818397522">
        <ele>449</ele>
        <time>2019-09-11T09:02:59+00:00</time>
      </trkpt>
      <trkpt lat="43.321025848389" lon="-7.587393283844">
        <ele>449</ele>
        <time>2019-09-11T09:03:00+00:00</time>
      </trkpt>
      <trkpt lat="43.321018218994" lon="-7.5874018669128">
        <ele>449</ele>
        <time>2019-09-11T09:03:01+00:00</time>
      </trkpt>
      <trkpt lat="43.321006774902" lon="-7.5874166488647">
        <ele>449</ele>
        <time>2019-09-11T09:03:02+00:00</time>
      </trkpt>
      <trkpt lat="43.321002960205" lon="-7.5874266624451">
        <ele>450</ele>
        <time>2019-09-11T09:03:03+00:00</time>
      </trkpt>
      <trkpt lat="43.320995330811" lon="-7.5874366760254">
        <ele>450</ele>
        <time>2019-09-11T09:03:04+00:00</time>
      </trkpt>
      <trkpt lat="43.320991516113" lon="-7.5874466896057">
        <ele>450</ele>
        <time>2019-09-11T09:03:05+00:00</time>
      </trkpt>
      <trkpt lat="43.320983886719" lon="-7.5874614715576">
        <ele>450</ele>
        <time>2019-09-11T09:03:06+00:00</time>
      </trkpt>
      <trkpt lat="43.320983886719" lon="-7.5874767303467">
        <ele>450</ele>
        <time>2019-09-11T09:03:07+00:00</time>
      </trkpt>
      <trkpt lat="43.320976257324" lon="-7.5874934196472">
        <ele>450</ele>
        <time>2019-09-11T09:03:08+00:00</time>
      </trkpt>
      <trkpt lat="43.320972442627" lon="-7.5875015258789">
        <ele>450</ele>
        <time>2019-09-11T09:03:09+00:00</time>
      </trkpt>
      <trkpt lat="43.32096862793" lon="-7.5875148773193">
        <ele>450</ele>
        <time>2019-09-11T09:03:10+00:00</time>
      </trkpt>
      <trkpt lat="43.32096862793" lon="-7.5875215530396">
        <ele>451</ele>
        <time>2019-09-11T09:03:11+00:00</time>
      </trkpt>
      <trkpt lat="43.320964813232" lon="-7.5875315666199">
        <ele>451</ele>
        <time>2019-09-11T09:03:12+00:00</time>
      </trkpt>
      <trkpt lat="43.320960998535" lon="-7.5875449180603">
        <ele>451</ele>
        <time>2019-09-11T09:03:13+00:00</time>
      </trkpt>
      <trkpt lat="43.320949554443" lon="-7.5875568389893">
        <ele>451</ele>
        <time>2019-09-11T09:03:14+00:00</time>
      </trkpt>
      <trkpt lat="43.320941925049" lon="-7.5875701904297">
        <ele>451</ele>
        <time>2019-09-11T09:03:15+00:00</time>
      </trkpt>
      <trkpt lat="43.320930480957" lon="-7.5875883102417">
        <ele>451</ele>
        <time>2019-09-11T09:03:16+00:00</time>
      </trkpt>
      <trkpt lat="43.320915222168" lon="-7.5876116752625">
        <ele>451</ele>
        <time>2019-09-11T09:03:17+00:00</time>
      </trkpt>
      <trkpt lat="43.320903778076" lon="-7.5876216888428">
        <ele>451</ele>
        <time>2019-09-11T09:03:18+00:00</time>
      </trkpt>
      <trkpt lat="43.320899963379" lon="-7.5876417160034">
        <ele>452</ele>
        <time>2019-09-11T09:03:19+00:00</time>
      </trkpt>
      <trkpt lat="43.32088470459" lon="-7.5876517295837">
        <ele>452</ele>
        <time>2019-09-11T09:03:20+00:00</time>
      </trkpt>
      <trkpt lat="43.320869445801" lon="-7.5876598358154">
        <ele>452</ele>
        <time>2019-09-11T09:03:21+00:00</time>
      </trkpt>
      <trkpt lat="43.320850372314" lon="-7.5876717567444">
        <ele>452</ele>
        <time>2019-09-11T09:03:22+00:00</time>
      </trkpt>
      <trkpt lat="43.320831298828" lon="-7.5876784324646">
        <ele>452</ele>
        <time>2019-09-11T09:03:23+00:00</time>
      </trkpt>
      <trkpt lat="43.320812225342" lon="-7.5876884460449">
        <ele>452</ele>
        <time>2019-09-11T09:03:24+00:00</time>
      </trkpt>
      <trkpt lat="43.32080078125" lon="-7.5876884460449">
        <ele>452</ele>
        <time>2019-09-11T09:03:25+00:00</time>
      </trkpt>
      <trkpt lat="43.320789337158" lon="-7.587691783905">
        <ele>452</ele>
        <time>2019-09-11T09:03:26+00:00</time>
      </trkpt>
      <trkpt lat="43.320781707764" lon="-7.5877051353455">
        <ele>452</ele>
        <time>2019-09-11T09:03:27+00:00</time>
      </trkpt>
      <trkpt lat="43.320777893066" lon="-7.5877165794373">
        <ele>452</ele>
        <time>2019-09-11T09:03:28+00:00</time>
      </trkpt>
      <trkpt lat="43.320777893066" lon="-7.5877318382263">
        <ele>452</ele>
        <time>2019-09-11T09:03:29+00:00</time>
      </trkpt>
      <trkpt lat="43.320774078369" lon="-7.5877432823181">
        <ele>452</ele>
        <time>2019-09-11T09:03:30+00:00</time>
      </trkpt>
      <trkpt lat="43.320766448975" lon="-7.587751865387">
        <ele>452</ele>
        <time>2019-09-11T09:03:31+00:00</time>
      </trkpt>
      <trkpt lat="43.320762634277" lon="-7.5877585411072">
        <ele>452</ele>
        <time>2019-09-11T09:03:32+00:00</time>
      </trkpt>
      <trkpt lat="43.320751190186" lon="-7.5877666473389">
        <ele>452</ele>
        <time>2019-09-11T09:03:33+00:00</time>
      </trkpt>
      <trkpt lat="43.320735931396" lon="-7.5877814292908">
        <ele>452</ele>
        <time>2019-09-11T09:03:34+00:00</time>
      </trkpt>
      <trkpt lat="43.320724487305" lon="-7.5877947807312">
        <ele>452</ele>
        <time>2019-09-11T09:03:35+00:00</time>
      </trkpt>
      <trkpt lat="43.32071685791" lon="-7.5878033638">
        <ele>452</ele>
        <time>2019-09-11T09:03:36+00:00</time>
      </trkpt>
      <trkpt lat="43.32071685791" lon="-7.5878133773804">
        <ele>451</ele>
        <time>2019-09-11T09:03:37+00:00</time>
      </trkpt>
      <trkpt lat="43.320713043213" lon="-7.5878248214722">
        <ele>451</ele>
        <time>2019-09-11T09:03:38+00:00</time>
      </trkpt>
      <trkpt lat="43.320705413818" lon="-7.5878400802612">
        <ele>451</ele>
        <time>2019-09-11T09:03:39+00:00</time>
      </trkpt>
      <trkpt lat="43.320690155029" lon="-7.5878534317017">
        <ele>451</ele>
        <time>2019-09-11T09:03:40+00:00</time>
      </trkpt>
      <trkpt lat="43.320690155029" lon="-7.5878682136536">
        <ele>451</ele>
        <time>2019-09-11T09:03:41+00:00</time>
      </trkpt>
      <trkpt lat="43.320693969727" lon="-7.5878748893738">
        <ele>451</ele>
        <time>2019-09-11T09:03:42+00:00</time>
      </trkpt>
      <trkpt lat="43.320682525635" lon="-7.5878801345825">
        <ele>451</ele>
        <time>2019-09-11T09:03:43+00:00</time>
      </trkpt>
      <trkpt lat="43.320671081543" lon="-7.5878801345825">
        <ele>451</ele>
        <time>2019-09-11T09:03:44+00:00</time>
      </trkpt>
      <trkpt lat="43.320663452148" lon="-7.587881565094">
        <ele>451</ele>
        <time>2019-09-11T09:03:45+00:00</time>
      </trkpt>
      <trkpt lat="43.320648193359" lon="-7.5878934860229">
        <ele>451</ele>
        <time>2019-09-11T09:03:46+00:00</time>
      </trkpt>
      <trkpt lat="43.32063293457" lon="-7.5879015922546">
        <ele>451</ele>
        <time>2019-09-11T09:03:47+00:00</time>
      </trkpt>
      <trkpt lat="43.320617675781" lon="-7.5879168510437">
        <ele>451</ele>
        <time>2019-09-11T09:03:48+00:00</time>
      </trkpt>
      <trkpt lat="43.320613861084" lon="-7.5879302024841">
        <ele>451</ele>
        <time>2019-09-11T09:03:49+00:00</time>
      </trkpt>
      <trkpt lat="43.320613861084" lon="-7.5879435539246">
        <ele>450</ele>
        <time>2019-09-11T09:03:50+00:00</time>
      </trkpt>
      <trkpt lat="43.320613861084" lon="-7.5879516601562">
        <ele>450</ele>
        <time>2019-09-11T09:03:51+00:00</time>
      </trkpt>
      <trkpt lat="43.320610046387" lon="-7.5879616737366">
        <ele>450</ele>
        <time>2019-09-11T09:03:52+00:00</time>
      </trkpt>
      <trkpt lat="43.320610046387" lon="-7.5879764556885">
        <ele>450</ele>
        <time>2019-09-11T09:03:53+00:00</time>
      </trkpt>
      <trkpt lat="43.320598602295" lon="-7.587993144989">
        <ele>450</ele>
        <time>2019-09-11T09:03:54+00:00</time>
      </trkpt>
      <trkpt lat="43.320598602295" lon="-7.5880084037781">
        <ele>450</ele>
        <time>2019-09-11T09:03:55+00:00</time>
      </trkpt>
      <trkpt lat="43.320594787598" lon="-7.5880250930786">
        <ele>450</ele>
        <time>2019-09-11T09:03:56+00:00</time>
      </trkpt>
      <trkpt lat="43.320594787598" lon="-7.5880432128906">
        <ele>450</ele>
        <time>2019-09-11T09:03:57+00:00</time>
      </trkpt>
      <trkpt lat="43.320583343506" lon="-7.5880599021912">
        <ele>450</ele>
        <time>2019-09-11T09:03:58+00:00</time>
      </trkpt>
      <trkpt lat="43.320579528809" lon="-7.5880665779114">
        <ele>450</ele>
        <time>2019-09-11T09:03:59+00:00</time>
      </trkpt>
      <trkpt lat="43.320571899414" lon="-7.5880765914917">
        <ele>450</ele>
        <time>2019-09-11T09:04:00+00:00</time>
      </trkpt>
      <trkpt lat="43.320568084717" lon="-7.5880885124207">
        <ele>450</ele>
        <time>2019-09-11T09:04:01+00:00</time>
      </trkpt>
      <trkpt lat="43.320556640625" lon="-7.5881018638611">
        <ele>450</ele>
        <time>2019-09-11T09:04:02+00:00</time>
      </trkpt>
      <trkpt lat="43.32054901123" lon="-7.5881118774414">
        <ele>450</ele>
        <time>2019-09-11T09:04:03+00:00</time>
      </trkpt>
      <trkpt lat="43.320541381836" lon="-7.5881233215332">
        <ele>450</ele>
        <time>2019-09-11T09:04:04+00:00</time>
      </trkpt>
      <trkpt lat="43.320529937744" lon="-7.5881366729736">
        <ele>450</ele>
        <time>2019-09-11T09:04:05+00:00</time>
      </trkpt>
      <trkpt lat="43.320526123047" lon="-7.5881533622742">
        <ele>450</ele>
        <time>2019-09-11T09:04:06+00:00</time>
      </trkpt>
      <trkpt lat="43.320526123047" lon="-7.5881681442261">
        <ele>450</ele>
        <time>2019-09-11T09:04:07+00:00</time>
      </trkpt>
      <trkpt lat="43.320518493652" lon="-7.588180065155">
        <ele>449</ele>
        <time>2019-09-11T09:04:08+00:00</time>
      </trkpt>
      <trkpt lat="43.320510864258" lon="-7.5881948471069">
        <ele>449</ele>
        <time>2019-09-11T09:04:09+00:00</time>
      </trkpt>
      <trkpt lat="43.320503234863" lon="-7.588210105896">
        <ele>449</ele>
        <time>2019-09-11T09:04:10+00:00</time>
      </trkpt>
      <trkpt lat="43.320491790771" lon="-7.5882201194763">
        <ele>449</ele>
        <time>2019-09-11T09:04:11+00:00</time>
      </trkpt>
      <trkpt lat="43.32048034668" lon="-7.5882267951965">
        <ele>448</ele>
        <time>2019-09-11T09:04:12+00:00</time>
      </trkpt>
      <trkpt lat="43.320476531982" lon="-7.5882382392883">
        <ele>448</ele>
        <time>2019-09-11T09:04:13+00:00</time>
      </trkpt>
      <trkpt lat="43.320468902588" lon="-7.5882468223572">
        <ele>448</ele>
        <time>2019-09-11T09:04:14+00:00</time>
      </trkpt>
      <trkpt lat="43.320461273193" lon="-7.5882601737976">
        <ele>448</ele>
        <time>2019-09-11T09:04:15+00:00</time>
      </trkpt>
      <trkpt lat="43.320449829102" lon="-7.5882749557495">
        <ele>448</ele>
        <time>2019-09-11T09:04:16+00:00</time>
      </trkpt>
      <trkpt lat="43.320446014404" lon="-7.5882883071899">
        <ele>448</ele>
        <time>2019-09-11T09:04:17+00:00</time>
      </trkpt>
      <trkpt lat="43.320442199707" lon="-7.588303565979">
        <ele>448</ele>
        <time>2019-09-11T09:04:18+00:00</time>
      </trkpt>
      <trkpt lat="43.32043838501" lon="-7.5883164405823">
        <ele>448</ele>
        <time>2019-09-11T09:04:19+00:00</time>
      </trkpt>
      <trkpt lat="43.320434570312" lon="-7.5883331298828">
        <ele>448</ele>
        <time>2019-09-11T09:04:20+00:00</time>
      </trkpt>
      <trkpt lat="43.320434570312" lon="-7.588351726532">
        <ele>448</ele>
        <time>2019-09-11T09:04:21+00:00</time>
      </trkpt>
      <trkpt lat="43.320434570312" lon="-7.5883650779724">
        <ele>448</ele>
        <time>2019-09-11T09:04:22+00:00</time>
      </trkpt>
      <trkpt lat="43.32043838501" lon="-7.5883784294128">
        <ele>449</ele>
        <time>2019-09-11T09:04:23+00:00</time>
      </trkpt>
      <trkpt lat="43.320426940918" lon="-7.5883865356445">
        <ele>448</ele>
        <time>2019-09-11T09:04:24+00:00</time>
      </trkpt>
      <trkpt lat="43.320415496826" lon="-7.5883951187134">
        <ele>448</ele>
        <time>2019-09-11T09:04:25+00:00</time>
      </trkpt>
      <trkpt lat="43.320407867432" lon="-7.5884184837341">
        <ele>448</ele>
        <time>2019-09-11T09:04:26+00:00</time>
      </trkpt>
      <trkpt lat="43.32039642334" lon="-7.5884385108948">
        <ele>448</ele>
        <time>2019-09-11T09:04:27+00:00</time>
      </trkpt>
      <trkpt lat="43.320384979248" lon="-7.5884552001953">
        <ele>448</ele>
        <time>2019-09-11T09:04:28+00:00</time>
      </trkpt>
      <trkpt lat="43.320373535156" lon="-7.5884699821472">
        <ele>448</ele>
        <time>2019-09-11T09:04:29+00:00</time>
      </trkpt>
      <trkpt lat="43.320358276367" lon="-7.5884819030762">
        <ele>448</ele>
        <time>2019-09-11T09:04:30+00:00</time>
      </trkpt>
      <trkpt lat="43.320339202881" lon="-7.5884947776794">
        <ele>448</ele>
        <time>2019-09-11T09:04:31+00:00</time>
      </trkpt>
      <trkpt lat="43.320331573486" lon="-7.5885133743286">
        <ele>448</ele>
        <time>2019-09-11T09:04:32+00:00</time>
      </trkpt>
      <trkpt lat="43.320323944092" lon="-7.588526725769">
        <ele>448</ele>
        <time>2019-09-11T09:04:33+00:00</time>
      </trkpt>
      <trkpt lat="43.320316314697" lon="-7.5885381698608">
        <ele>448</ele>
        <time>2019-09-11T09:04:34+00:00</time>
      </trkpt>
      <trkpt lat="43.320304870605" lon="-7.5885500907898">
        <ele>448</ele>
        <time>2019-09-11T09:04:35+00:00</time>
      </trkpt>
      <trkpt lat="43.320297241211" lon="-7.5885601043701">
        <ele>448</ele>
        <time>2019-09-11T09:04:36+00:00</time>
      </trkpt>
      <trkpt lat="43.320285797119" lon="-7.5885734558105">
        <ele>448</ele>
        <time>2019-09-11T09:04:37+00:00</time>
      </trkpt>
      <trkpt lat="43.32027053833" lon="-7.5885848999023">
        <ele>448</ele>
        <time>2019-09-11T09:04:38+00:00</time>
      </trkpt>
      <trkpt lat="43.320259094238" lon="-7.5885915756226">
        <ele>448</ele>
        <time>2019-09-11T09:04:39+00:00</time>
      </trkpt>
      <trkpt lat="43.320243835449" lon="-7.5885968208313">
        <ele>448</ele>
        <time>2019-09-11T09:04:40+00:00</time>
      </trkpt>
      <trkpt lat="43.320236206055" lon="-7.5886068344116">
        <ele>448</ele>
        <time>2019-09-11T09:04:41+00:00</time>
      </trkpt>
      <trkpt lat="43.320220947266" lon="-7.5886149406433">
        <ele>448</ele>
        <time>2019-09-11T09:04:42+00:00</time>
      </trkpt>
      <trkpt lat="43.320209503174" lon="-7.5886149406433">
        <ele>448</ele>
        <time>2019-09-11T09:04:43+00:00</time>
      </trkpt>
      <trkpt lat="43.320205688477" lon="-7.5886135101318">
        <ele>448</ele>
        <time>2019-09-11T09:04:44+00:00</time>
      </trkpt>
      <trkpt lat="43.320201873779" lon="-7.5886216163635">
        <ele>448</ele>
        <time>2019-09-11T09:04:45+00:00</time>
      </trkpt>
      <trkpt lat="43.320201873779" lon="-7.5886216163635">
        <ele>447</ele>
        <time>2019-09-11T09:04:46+00:00</time>
      </trkpt>
      <trkpt lat="43.320198059082" lon="-7.5886316299438">
        <ele>447</ele>
        <time>2019-09-11T09:04:47+00:00</time>
      </trkpt>
      <trkpt lat="43.320194244385" lon="-7.5886468887329">
        <ele>447</ele>
        <time>2019-09-11T09:04:48+00:00</time>
      </trkpt>
      <trkpt lat="43.32018661499" lon="-7.5886549949646">
        <ele>447</ele>
        <time>2019-09-11T09:04:49+00:00</time>
      </trkpt>
      <trkpt lat="43.320178985596" lon="-7.5886697769165">
        <ele>447</ele>
        <time>2019-09-11T09:04:50+00:00</time>
      </trkpt>
      <trkpt lat="43.320171356201" lon="-7.5886831283569">
        <ele>447</ele>
        <time>2019-09-11T09:04:51+00:00</time>
      </trkpt>
      <trkpt lat="43.320167541504" lon="-7.5886964797974">
        <ele>448</ele>
        <time>2019-09-11T09:04:52+00:00</time>
      </trkpt>
      <trkpt lat="43.320159912109" lon="-7.5887117385864">
        <ele>448</ele>
        <time>2019-09-11T09:04:53+00:00</time>
      </trkpt>
      <trkpt lat="43.320159912109" lon="-7.5887265205383">
        <ele>448</ele>
        <time>2019-09-11T09:04:54+00:00</time>
      </trkpt>
      <trkpt lat="43.320156097412" lon="-7.5887351036072">
        <ele>448</ele>
        <time>2019-09-11T09:04:55+00:00</time>
      </trkpt>
      <trkpt lat="43.320152282715" lon="-7.5887451171875">
        <ele>448</ele>
        <time>2019-09-11T09:04:56+00:00</time>
      </trkpt>
      <trkpt lat="43.32014465332" lon="-7.5887517929077">
        <ele>448</ele>
        <time>2019-09-11T09:04:57+00:00</time>
      </trkpt>
      <trkpt lat="43.320133209229" lon="-7.5887565612793">
        <ele>448</ele>
        <time>2019-09-11T09:04:58+00:00</time>
      </trkpt>
      <trkpt lat="43.320129394531" lon="-7.5887665748596">
        <ele>448</ele>
        <time>2019-09-11T09:04:59+00:00</time>
      </trkpt>
      <trkpt lat="43.320121765137" lon="-7.5887784957886">
        <ele>448</ele>
        <time>2019-09-11T09:05:00+00:00</time>
      </trkpt>
      <trkpt lat="43.320117950439" lon="-7.5887932777405">
        <ele>448</ele>
        <time>2019-09-11T09:05:01+00:00</time>
      </trkpt>
      <trkpt lat="43.320106506348" lon="-7.5888051986694">
        <ele>448</ele>
        <time>2019-09-11T09:05:02+00:00</time>
      </trkpt>
      <trkpt lat="43.320098876953" lon="-7.5888152122498">
        <ele>448</ele>
        <time>2019-09-11T09:05:03+00:00</time>
      </trkpt>
      <trkpt lat="43.320087432861" lon="-7.5888233184814">
        <ele>448</ele>
        <time>2019-09-11T09:05:04+00:00</time>
      </trkpt>
      <trkpt lat="43.320079803467" lon="-7.5888347625732">
        <ele>449</ele>
        <time>2019-09-11T09:05:05+00:00</time>
      </trkpt>
      <trkpt lat="43.320072174072" lon="-7.5888481140137">
        <ele>449</ele>
        <time>2019-09-11T09:05:06+00:00</time>
      </trkpt>
      <trkpt lat="43.32006072998" lon="-7.5888600349426">
        <ele>449</ele>
        <time>2019-09-11T09:05:07+00:00</time>
      </trkpt>
      <trkpt lat="43.320053100586" lon="-7.5888700485229">
        <ele>449</ele>
        <time>2019-09-11T09:05:08+00:00</time>
      </trkpt>
      <trkpt lat="43.320045471191" lon="-7.5888814926147">
        <ele>449</ele>
        <time>2019-09-11T09:05:09+00:00</time>
      </trkpt>
      <trkpt lat="43.3200340271" lon="-7.5888948440552">
        <ele>449</ele>
        <time>2019-09-11T09:05:10+00:00</time>
      </trkpt>
      <trkpt lat="43.320026397705" lon="-7.5889048576355">
        <ele>449</ele>
        <time>2019-09-11T09:05:11+00:00</time>
      </trkpt>
      <trkpt lat="43.320011138916" lon="-7.5889148712158">
        <ele>449</ele>
        <time>2019-09-11T09:05:12+00:00</time>
      </trkpt>
      <trkpt lat="43.320003509521" lon="-7.588921546936">
        <ele>448</ele>
        <time>2019-09-11T09:05:13+00:00</time>
      </trkpt>
      <trkpt lat="43.320003509521" lon="-7.5889282226562">
        <ele>449</ele>
        <time>2019-09-11T09:05:14+00:00</time>
      </trkpt>
      <trkpt lat="43.31999206543" lon="-7.5889348983765">
        <ele>449</ele>
        <time>2019-09-11T09:05:15+00:00</time>
      </trkpt>
      <trkpt lat="43.319988250732" lon="-7.5889449119568">
        <ele>449</ele>
        <time>2019-09-11T09:05:16+00:00</time>
      </trkpt>
      <trkpt lat="43.319972991943" lon="-7.5889582633972">
        <ele>448</ele>
        <time>2019-09-11T09:05:17+00:00</time>
      </trkpt>
      <trkpt lat="43.319957733154" lon="-7.5889735221863">
        <ele>448</ele>
        <time>2019-09-11T09:05:18+00:00</time>
      </trkpt>
      <trkpt lat="43.319946289062" lon="-7.5889868736267">
        <ele>448</ele>
        <time>2019-09-11T09:05:19+00:00</time>
      </trkpt>
      <trkpt lat="43.319934844971" lon="-7.5890016555786">
        <ele>448</ele>
        <time>2019-09-11T09:05:20+00:00</time>
      </trkpt>
      <trkpt lat="43.319927215576" lon="-7.5890116691589">
        <ele>448</ele>
        <time>2019-09-11T09:05:21+00:00</time>
      </trkpt>
      <trkpt lat="43.319911956787" lon="-7.5890164375305">
        <ele>448</ele>
        <time>2019-09-11T09:05:22+00:00</time>
      </trkpt>
      <trkpt lat="43.319900512695" lon="-7.5890216827393">
        <ele>448</ele>
        <time>2019-09-11T09:05:23+00:00</time>
      </trkpt>
      <trkpt lat="43.319889068604" lon="-7.5890297889709">
        <ele>447</ele>
        <time>2019-09-11T09:05:24+00:00</time>
      </trkpt>
      <trkpt lat="43.319877624512" lon="-7.5890350341797">
        <ele>447</ele>
        <time>2019-09-11T09:05:25+00:00</time>
      </trkpt>
      <trkpt lat="43.319873809814" lon="-7.5890483856201">
        <ele>447</ele>
        <time>2019-09-11T09:05:26+00:00</time>
      </trkpt>
      <trkpt lat="43.31986618042" lon="-7.5890564918518">
        <ele>447</ele>
        <time>2019-09-11T09:05:27+00:00</time>
      </trkpt>
      <trkpt lat="43.319862365723" lon="-7.589063167572">
        <ele>447</ele>
        <time>2019-09-11T09:05:28+00:00</time>
      </trkpt>
      <trkpt lat="43.319858551025" lon="-7.5890731811523">
        <ele>447</ele>
        <time>2019-09-11T09:05:29+00:00</time>
      </trkpt>
      <trkpt lat="43.319858551025" lon="-7.5890831947327">
        <ele>446</ele>
        <time>2019-09-11T09:05:30+00:00</time>
      </trkpt>
      <trkpt lat="43.319854736328" lon="-7.5890984535217">
        <ele>446</ele>
        <time>2019-09-11T09:05:31+00:00</time>
      </trkpt>
      <trkpt lat="43.319858551025" lon="-7.5891065597534">
        <ele>445</ele>
        <time>2019-09-11T09:05:32+00:00</time>
      </trkpt>
      <trkpt lat="43.319858551025" lon="-7.5891165733337">
        <ele>445</ele>
        <time>2019-09-11T09:05:33+00:00</time>
      </trkpt>
      <trkpt lat="43.319862365723" lon="-7.5891251564026">
        <ele>445</ele>
        <time>2019-09-11T09:05:34+00:00</time>
      </trkpt>
      <trkpt lat="43.31986618042" lon="-7.5891265869141">
        <ele>444</ele>
        <time>2019-09-11T09:05:35+00:00</time>
      </trkpt>
      <trkpt lat="43.319862365723" lon="-7.5891332626343">
        <ele>444</ele>
        <time>2019-09-11T09:05:36+00:00</time>
      </trkpt>
      <trkpt lat="43.319862365723" lon="-7.5891432762146">
        <ele>444</ele>
        <time>2019-09-11T09:05:37+00:00</time>
      </trkpt>
      <trkpt lat="43.319854736328" lon="-7.5891551971436">
        <ele>444</ele>
        <time>2019-09-11T09:05:38+00:00</time>
      </trkpt>
      <trkpt lat="43.319835662842" lon="-7.5891652107239">
        <ele>444</ele>
        <time>2019-09-11T09:05:39+00:00</time>
      </trkpt>
      <trkpt lat="43.31982421875" lon="-7.589168548584">
        <ele>444</ele>
        <time>2019-09-11T09:05:40+00:00</time>
      </trkpt>
      <trkpt lat="43.319812774658" lon="-7.5891718864441">
        <ele>444</ele>
        <time>2019-09-11T09:05:41+00:00</time>
      </trkpt>
      <trkpt lat="43.319805145264" lon="-7.5891733169556">
        <ele>444</ele>
        <time>2019-09-11T09:05:42+00:00</time>
      </trkpt>
      <trkpt lat="43.319797515869" lon="-7.5891819000244">
        <ele>444</ele>
        <time>2019-09-11T09:05:43+00:00</time>
      </trkpt>
      <trkpt lat="43.319789886475" lon="-7.589186668396">
        <ele>444</ele>
        <time>2019-09-11T09:05:44+00:00</time>
      </trkpt>
      <trkpt lat="43.31978225708" lon="-7.5891933441162">
        <ele>444</ele>
        <time>2019-09-11T09:05:45+00:00</time>
      </trkpt>
      <trkpt lat="43.319763183594" lon="-7.5892014503479">
        <ele>444</ele>
        <time>2019-09-11T09:05:46+00:00</time>
      </trkpt>
      <trkpt lat="43.319747924805" lon="-7.5892133712769">
        <ele>444</ele>
        <time>2019-09-11T09:05:47+00:00</time>
      </trkpt>
      <trkpt lat="43.319728851318" lon="-7.5892281532288">
        <ele>444</ele>
        <time>2019-09-11T09:05:48+00:00</time>
      </trkpt>
      <trkpt lat="43.319713592529" lon="-7.5892434120178">
        <ele>444</ele>
        <time>2019-09-11T09:05:49+00:00</time>
      </trkpt>
      <trkpt lat="43.319705963135" lon="-7.5892581939697">
        <ele>444</ele>
        <time>2019-09-11T09:05:50+00:00</time>
      </trkpt>
      <trkpt lat="43.319702148438" lon="-7.58926820755">
        <ele>444</ele>
        <time>2019-09-11T09:05:51+00:00</time>
      </trkpt>
      <trkpt lat="43.319702148438" lon="-7.5892715454102">
        <ele>444</ele>
        <time>2019-09-11T09:05:52+00:00</time>
      </trkpt>
      <trkpt lat="43.31969833374" lon="-7.5892834663391">
        <ele>444</ele>
        <time>2019-09-11T09:05:53+00:00</time>
      </trkpt>
      <trkpt lat="43.319694519043" lon="-7.589298248291">
        <ele>444</ele>
        <time>2019-09-11T09:05:54+00:00</time>
      </trkpt>
      <trkpt lat="43.319694519043" lon="-7.5893115997314">
        <ele>444</ele>
        <time>2019-09-11T09:05:55+00:00</time>
      </trkpt>
      <trkpt lat="43.319694519043" lon="-7.5893249511719">
        <ele>444</ele>
        <time>2019-09-11T09:05:56+00:00</time>
      </trkpt>
      <trkpt lat="43.319686889648" lon="-7.5893402099609">
        <ele>444</ele>
        <time>2019-09-11T09:05:57+00:00</time>
      </trkpt>
      <trkpt lat="43.319686889648" lon="-7.5893516540527">
        <ele>444</ele>
        <time>2019-09-11T09:05:58+00:00</time>
      </trkpt>
      <trkpt lat="43.319683074951" lon="-7.5893583297729">
        <ele>444</ele>
        <time>2019-09-11T09:05:59+00:00</time>
      </trkpt>
      <trkpt lat="43.319679260254" lon="-7.5893616676331">
        <ele>445</ele>
        <time>2019-09-11T09:06:00+00:00</time>
      </trkpt>
      <trkpt lat="43.319675445557" lon="-7.5893664360046">
        <ele>445</ele>
        <time>2019-09-11T09:06:01+00:00</time>
      </trkpt>
      <trkpt lat="43.319679260254" lon="-7.5893664360046">
        <ele>445</ele>
        <time>2019-09-11T09:06:02+00:00</time>
      </trkpt>
      <trkpt lat="43.319675445557" lon="-7.5893602371216">
        <ele>446</ele>
        <time>2019-09-11T09:06:03+00:00</time>
      </trkpt>
      <trkpt lat="43.319671630859" lon="-7.5893602371216">
        <ele>446</ele>
        <time>2019-09-11T09:06:04+00:00</time>
      </trkpt>
      <trkpt lat="43.319664001465" lon="-7.5893650054932">
        <ele>446</ele>
        <time>2019-09-11T09:06:05+00:00</time>
      </trkpt>
      <trkpt lat="43.319660186768" lon="-7.5893731117249">
        <ele>446</ele>
        <time>2019-09-11T09:06:06+00:00</time>
      </trkpt>
      <trkpt lat="43.31965637207" lon="-7.5893816947937">
        <ele>446</ele>
        <time>2019-09-11T09:06:07+00:00</time>
      </trkpt>
      <trkpt lat="43.319648742676" lon="-7.5893964767456">
        <ele>446</ele>
        <time>2019-09-11T09:06:08+00:00</time>
      </trkpt>
      <trkpt lat="43.319644927979" lon="-7.5894117355347">
        <ele>446</ele>
        <time>2019-09-11T09:06:09+00:00</time>
      </trkpt>
      <trkpt lat="43.319633483887" lon="-7.5894265174866">
        <ele>446</ele>
        <time>2019-09-11T09:06:10+00:00</time>
      </trkpt>
      <trkpt lat="43.319629669189" lon="-7.5894451141357">
        <ele>446</ele>
        <time>2019-09-11T09:06:11+00:00</time>
      </trkpt>
      <trkpt lat="43.319618225098" lon="-7.5894665718079">
        <ele>446</ele>
        <time>2019-09-11T09:06:12+00:00</time>
      </trkpt>
      <trkpt lat="43.319606781006" lon="-7.5894832611084">
        <ele>446</ele>
        <time>2019-09-11T09:06:13+00:00</time>
      </trkpt>
      <trkpt lat="43.319595336914" lon="-7.5895066261292">
        <ele>446</ele>
        <time>2019-09-11T09:06:14+00:00</time>
      </trkpt>
      <trkpt lat="43.319599151611" lon="-7.58953332901">
        <ele>446</ele>
        <time>2019-09-11T09:06:15+00:00</time>
      </trkpt>
      <trkpt lat="43.31958770752" lon="-7.5895466804504">
        <ele>446</ele>
        <time>2019-09-11T09:06:16+00:00</time>
      </trkpt>
      <trkpt lat="43.31958770752" lon="-7.5895547866821">
        <ele>446</ele>
        <time>2019-09-11T09:06:17+00:00</time>
      </trkpt>
      <trkpt lat="43.319576263428" lon="-7.5895681381226">
        <ele>446</ele>
        <time>2019-09-11T09:06:18+00:00</time>
      </trkpt>
      <trkpt lat="43.319576263428" lon="-7.5895781517029">
        <ele>446</ele>
        <time>2019-09-11T09:06:19+00:00</time>
      </trkpt>
      <trkpt lat="43.319576263428" lon="-7.5895867347717">
        <ele>445</ele>
        <time>2019-09-11T09:06:20+00:00</time>
      </trkpt>
      <trkpt lat="43.31958770752" lon="-7.5895967483521">
        <ele>445</ele>
        <time>2019-09-11T09:06:21+00:00</time>
      </trkpt>
      <trkpt lat="43.319599151611" lon="-7.5896067619324">
        <ele>444</ele>
        <time>2019-09-11T09:06:22+00:00</time>
      </trkpt>
      <trkpt lat="43.319595336914" lon="-7.5896234512329">
        <ele>444</ele>
        <time>2019-09-11T09:06:23+00:00</time>
      </trkpt>
      <trkpt lat="43.319602966309" lon="-7.5896401405334">
        <ele>444</ele>
        <time>2019-09-11T09:06:24+00:00</time>
      </trkpt>
      <trkpt lat="43.319610595703" lon="-7.5896615982056">
        <ele>444</ele>
        <time>2019-09-11T09:06:25+00:00</time>
      </trkpt>
      <trkpt lat="43.319618225098" lon="-7.5896816253662">
        <ele>444</ele>
        <time>2019-09-11T09:06:26+00:00</time>
      </trkpt>
      <trkpt lat="43.319633483887" lon="-7.5897164344788">
        <ele>443</ele>
        <time>2019-09-11T09:06:27+00:00</time>
      </trkpt>
      <trkpt lat="43.319633483887" lon="-7.5897364616394">
        <ele>443</ele>
        <time>2019-09-11T09:06:28+00:00</time>
      </trkpt>
      <trkpt lat="43.319637298584" lon="-7.5897550582886">
        <ele>443</ele>
        <time>2019-09-11T09:06:29+00:00</time>
      </trkpt>
      <trkpt lat="43.319637298584" lon="-7.5897750854492">
        <ele>443</ele>
        <time>2019-09-11T09:06:30+00:00</time>
      </trkpt>
      <trkpt lat="43.319637298584" lon="-7.5897917747498">
        <ele>442</ele>
        <time>2019-09-11T09:06:31+00:00</time>
      </trkpt>
      <trkpt lat="43.319648742676" lon="-7.5898132324219">
        <ele>442</ele>
        <time>2019-09-11T09:06:32+00:00</time>
      </trkpt>
      <trkpt lat="43.319652557373" lon="-7.5898251533508">
        <ele>442</ele>
        <time>2019-09-11T09:06:33+00:00</time>
      </trkpt>
      <trkpt lat="43.319652557373" lon="-7.5898499488831">
        <ele>442</ele>
        <time>2019-09-11T09:06:34+00:00</time>
      </trkpt>
      <trkpt lat="43.319648742676" lon="-7.589861869812">
        <ele>442</ele>
        <time>2019-09-11T09:06:35+00:00</time>
      </trkpt>
      <trkpt lat="43.319641113281" lon="-7.5898752212524">
        <ele>441</ele>
        <time>2019-09-11T09:06:36+00:00</time>
      </trkpt>
      <trkpt lat="43.319633483887" lon="-7.5898914337158">
        <ele>441</ele>
        <time>2019-09-11T09:06:37+00:00</time>
      </trkpt>
      <trkpt lat="43.319625854492" lon="-7.589910030365">
        <ele>441</ele>
        <time>2019-09-11T09:06:38+00:00</time>
      </trkpt>
      <trkpt lat="43.319622039795" lon="-7.5899333953857">
        <ele>441</ele>
        <time>2019-09-11T09:06:39+00:00</time>
      </trkpt>
      <trkpt lat="43.319618225098" lon="-7.5899448394775">
        <ele>440</ele>
        <time>2019-09-11T09:06:40+00:00</time>
      </trkpt>
      <trkpt lat="43.3196144104" lon="-7.5899534225464">
        <ele>440</ele>
        <time>2019-09-11T09:06:41+00:00</time>
      </trkpt>
      <trkpt lat="43.319606781006" lon="-7.5899634361267">
        <ele>440</ele>
        <time>2019-09-11T09:06:42+00:00</time>
      </trkpt>
      <trkpt lat="43.319595336914" lon="-7.5899801254272">
        <ele>440</ele>
        <time>2019-09-11T09:06:43+00:00</time>
      </trkpt>
      <trkpt lat="43.319580078125" lon="-7.5899868011475">
        <ele>440</ele>
        <time>2019-09-11T09:06:44+00:00</time>
      </trkpt>
      <trkpt lat="43.31958770752" lon="-7.5900015830994">
        <ele>440</ele>
        <time>2019-09-11T09:06:45+00:00</time>
      </trkpt>
      <trkpt lat="43.31958770752" lon="-7.5900182723999">
        <ele>440</ele>
        <time>2019-09-11T09:06:46+00:00</time>
      </trkpt>
      <trkpt lat="43.31958770752" lon="-7.5900349617004">
        <ele>440</ele>
        <time>2019-09-11T09:06:47+00:00</time>
      </trkpt>
      <trkpt lat="43.31958770752" lon="-7.5900502204895">
        <ele>440</ele>
        <time>2019-09-11T09:06:48+00:00</time>
      </trkpt>
      <trkpt lat="43.319568634033" lon="-7.5900664329529">
        <ele>439</ele>
        <time>2019-09-11T09:06:49+00:00</time>
      </trkpt>
      <trkpt lat="43.319557189941" lon="-7.5900864601135">
        <ele>439</ele>
        <time>2019-09-11T09:06:50+00:00</time>
      </trkpt>
      <trkpt lat="43.319553375244" lon="-7.5900964736938">
        <ele>439</ele>
        <time>2019-09-11T09:06:51+00:00</time>
      </trkpt>
      <trkpt lat="43.319549560547" lon="-7.5901064872742">
        <ele>439</ele>
        <time>2019-09-11T09:06:52+00:00</time>
      </trkpt>
      <trkpt lat="43.31954574585" lon="-7.5901117324829">
        <ele>439</ele>
        <time>2019-09-11T09:06:53+00:00</time>
      </trkpt>
      <trkpt lat="43.319541931152" lon="-7.5901165008545">
        <ele>439</ele>
        <time>2019-09-11T09:06:54+00:00</time>
      </trkpt>
      <trkpt lat="43.319538116455" lon="-7.5901217460632">
        <ele>438</ele>
        <time>2019-09-11T09:06:55+00:00</time>
      </trkpt>
      <trkpt lat="43.319538116455" lon="-7.5901298522949">
        <ele>439</ele>
        <time>2019-09-11T09:06:56+00:00</time>
      </trkpt>
      <trkpt lat="43.319534301758" lon="-7.5901417732239">
        <ele>439</ele>
        <time>2019-09-11T09:06:57+00:00</time>
      </trkpt>
      <trkpt lat="43.319530487061" lon="-7.5901465415955">
        <ele>439</ele>
        <time>2019-09-11T09:06:58+00:00</time>
      </trkpt>
      <trkpt lat="43.319530487061" lon="-7.5901598930359">
        <ele>439</ele>
        <time>2019-09-11T09:06:59+00:00</time>
      </trkpt>
      <trkpt lat="43.319530487061" lon="-7.5901665687561">
        <ele>439</ele>
        <time>2019-09-11T09:07:00+00:00</time>
      </trkpt>
      <trkpt lat="43.319522857666" lon="-7.590175151825">
        <ele>439</ele>
        <time>2019-09-11T09:07:01+00:00</time>
      </trkpt>
      <trkpt lat="43.319519042969" lon="-7.5901865959167">
        <ele>439</ele>
        <time>2019-09-11T09:07:02+00:00</time>
      </trkpt>
      <trkpt lat="43.319511413574" lon="-7.5901966094971">
        <ele>439</ele>
        <time>2019-09-11T09:07:03+00:00</time>
      </trkpt>
      <trkpt lat="43.319515228271" lon="-7.5902118682861">
        <ele>438</ele>
        <time>2019-09-11T09:07:04+00:00</time>
      </trkpt>
      <trkpt lat="43.319519042969" lon="-7.590226650238">
        <ele>438</ele>
        <time>2019-09-11T09:07:05+00:00</time>
      </trkpt>
      <trkpt lat="43.319526672363" lon="-7.59024477005">
        <ele>437</ele>
        <time>2019-09-11T09:07:06+00:00</time>
      </trkpt>
      <trkpt lat="43.319519042969" lon="-7.5902667045593">
        <ele>437</ele>
        <time>2019-09-11T09:07:07+00:00</time>
      </trkpt>
      <trkpt lat="43.319507598877" lon="-7.590274810791">
        <ele>437</ele>
        <time>2019-09-11T09:07:08+00:00</time>
      </trkpt>
      <trkpt lat="43.319507598877" lon="-7.5902833938599">
        <ele>437</ele>
        <time>2019-09-11T09:07:09+00:00</time>
      </trkpt>
      <trkpt lat="43.319507598877" lon="-7.5902948379517">
        <ele>437</ele>
        <time>2019-09-11T09:07:10+00:00</time>
      </trkpt>
      <trkpt lat="43.319484710693" lon="-7.5903167724609">
        <ele>438</ele>
        <time>2019-09-11T09:07:11+00:00</time>
      </trkpt>
      <trkpt lat="43.319469451904" lon="-7.5903315544128">
        <ele>438</ele>
        <time>2019-09-11T09:07:12+00:00</time>
      </trkpt>
      <trkpt lat="43.31946182251" lon="-7.5903449058533">
        <ele>438</ele>
        <time>2019-09-11T09:07:13+00:00</time>
      </trkpt>
      <trkpt lat="43.319454193115" lon="-7.5903515815735">
        <ele>438</ele>
        <time>2019-09-11T09:07:14+00:00</time>
      </trkpt>
      <trkpt lat="43.319450378418" lon="-7.5903601646423">
        <ele>438</ele>
        <time>2019-09-11T09:07:15+00:00</time>
      </trkpt>
      <trkpt lat="43.319446563721" lon="-7.5903635025024">
        <ele>438</ele>
        <time>2019-09-11T09:07:16+00:00</time>
      </trkpt>
      <trkpt lat="43.319442749023" lon="-7.5903768539429">
        <ele>438</ele>
        <time>2019-09-11T09:07:17+00:00</time>
      </trkpt>
      <trkpt lat="43.319435119629" lon="-7.5903849601746">
        <ele>438</ele>
        <time>2019-09-11T09:07:18+00:00</time>
      </trkpt>
      <trkpt lat="43.319435119629" lon="-7.5904002189636">
        <ele>438</ele>
        <time>2019-09-11T09:07:19+00:00</time>
      </trkpt>
      <trkpt lat="43.319435119629" lon="-7.5904083251953">
        <ele>438</ele>
        <time>2019-09-11T09:07:20+00:00</time>
      </trkpt>
      <trkpt lat="43.319431304932" lon="-7.590416431427">
        <ele>438</ele>
        <time>2019-09-11T09:07:21+00:00</time>
      </trkpt>
      <trkpt lat="43.319435119629" lon="-7.590428352356">
        <ele>438</ele>
        <time>2019-09-11T09:07:22+00:00</time>
      </trkpt>
      <trkpt lat="43.319427490234" lon="-7.5904431343079">
        <ele>439</ele>
        <time>2019-09-11T09:07:23+00:00</time>
      </trkpt>
      <trkpt lat="43.31941986084" lon="-7.5904650688171">
        <ele>439</ele>
        <time>2019-09-11T09:07:24+00:00</time>
      </trkpt>
      <trkpt lat="43.319404602051" lon="-7.5904684066772">
        <ele>439</ele>
        <time>2019-09-11T09:07:25+00:00</time>
      </trkpt>
      <trkpt lat="43.319381713867" lon="-7.5904684066772">
        <ele>440</ele>
        <time>2019-09-11T09:07:26+00:00</time>
      </trkpt>
      <trkpt lat="43.319370269775" lon="-7.5904765129089">
        <ele>440</ele>
        <time>2019-09-11T09:07:27+00:00</time>
      </trkpt>
      <trkpt lat="43.319370269775" lon="-7.5904831886292">
        <ele>440</ele>
        <time>2019-09-11T09:07:28+00:00</time>
      </trkpt>
      <trkpt lat="43.319381713867" lon="-7.5904965400696">
        <ele>440</ele>
        <time>2019-09-11T09:07:29+00:00</time>
      </trkpt>
      <trkpt lat="43.31937789917" lon="-7.5905032157898">
        <ele>440</ele>
        <time>2019-09-11T09:07:30+00:00</time>
      </trkpt>
      <trkpt lat="43.319374084473" lon="-7.5905184745789">
        <ele>440</ele>
        <time>2019-09-11T09:07:31+00:00</time>
      </trkpt>
      <trkpt lat="43.319370269775" lon="-7.5905451774597">
        <ele>441</ele>
        <time>2019-09-11T09:07:32+00:00</time>
      </trkpt>
      <trkpt lat="43.319362640381" lon="-7.5905666351318">
        <ele>441</ele>
        <time>2019-09-11T09:07:33+00:00</time>
      </trkpt>
      <trkpt lat="43.319355010986" lon="-7.5905799865723">
        <ele>441</ele>
        <time>2019-09-11T09:07:34+00:00</time>
      </trkpt>
      <trkpt lat="43.319355010986" lon="-7.5905947685242">
        <ele>441</ele>
        <time>2019-09-11T09:07:35+00:00</time>
      </trkpt>
      <trkpt lat="43.319351196289" lon="-7.5906133651733">
        <ele>441</ele>
        <time>2019-09-11T09:07:36+00:00</time>
      </trkpt>
      <trkpt lat="43.319347381592" lon="-7.5906248092651">
        <ele>442</ele>
        <time>2019-09-11T09:07:37+00:00</time>
      </trkpt>
      <trkpt lat="43.319339752197" lon="-7.5906381607056">
        <ele>442</ele>
        <time>2019-09-11T09:07:38+00:00</time>
      </trkpt>
      <trkpt lat="43.3193359375" lon="-7.5906467437744">
        <ele>442</ele>
        <time>2019-09-11T09:07:39+00:00</time>
      </trkpt>
      <trkpt lat="43.319328308105" lon="-7.5906534194946">
        <ele>442</ele>
        <time>2019-09-11T09:07:40+00:00</time>
      </trkpt>
      <trkpt lat="43.319324493408" lon="-7.5906682014465">
        <ele>442</ele>
        <time>2019-09-11T09:07:41+00:00</time>
      </trkpt>
      <trkpt lat="43.319328308105" lon="-7.5906801223755">
        <ele>442</ele>
        <time>2019-09-11T09:07:42+00:00</time>
      </trkpt>
      <trkpt lat="43.319324493408" lon="-7.5906982421875">
        <ele>443</ele>
        <time>2019-09-11T09:07:43+00:00</time>
      </trkpt>
      <trkpt lat="43.319320678711" lon="-7.5907216072083">
        <ele>443</ele>
        <time>2019-09-11T09:07:44+00:00</time>
      </trkpt>
      <trkpt lat="43.319305419922" lon="-7.5907282829285">
        <ele>444</ele>
        <time>2019-09-11T09:07:45+00:00</time>
      </trkpt>
      <trkpt lat="43.319305419922" lon="-7.5907502174377">
        <ele>444</ele>
        <time>2019-09-11T09:07:46+00:00</time>
      </trkpt>
      <trkpt lat="43.319313049316" lon="-7.5907783508301">
        <ele>444</ele>
        <time>2019-09-11T09:07:47+00:00</time>
      </trkpt>
      <trkpt lat="43.319305419922" lon="-7.5907950401306">
        <ele>444</ele>
        <time>2019-09-11T09:07:48+00:00</time>
      </trkpt>
      <trkpt lat="43.319301605225" lon="-7.5908098220825">
        <ele>444</ele>
        <time>2019-09-11T09:07:49+00:00</time>
      </trkpt>
      <trkpt lat="43.319301605225" lon="-7.5908298492432">
        <ele>444</ele>
        <time>2019-09-11T09:07:50+00:00</time>
      </trkpt>
      <trkpt lat="43.319297790527" lon="-7.5908432006836">
        <ele>444</ele>
        <time>2019-09-11T09:07:51+00:00</time>
      </trkpt>
      <trkpt lat="43.319301605225" lon="-7.5908598899841">
        <ele>444</ele>
        <time>2019-09-11T09:07:52+00:00</time>
      </trkpt>
      <trkpt lat="43.319305419922" lon="-7.5908832550049">
        <ele>444</ele>
        <time>2019-09-11T09:07:53+00:00</time>
      </trkpt>
      <trkpt lat="43.319305419922" lon="-7.5909051895142">
        <ele>444</ele>
        <time>2019-09-11T09:07:54+00:00</time>
      </trkpt>
      <trkpt lat="43.319313049316" lon="-7.5909199714661">
        <ele>444</ele>
        <time>2019-09-11T09:07:55+00:00</time>
      </trkpt>
      <trkpt lat="43.319305419922" lon="-7.590931892395">
        <ele>444</ele>
        <time>2019-09-11T09:07:56+00:00</time>
      </trkpt>
      <trkpt lat="43.319297790527" lon="-7.5909481048584">
        <ele>444</ele>
        <time>2019-09-11T09:07:57+00:00</time>
      </trkpt>
      <trkpt lat="43.31929397583" lon="-7.590968132019">
        <ele>444</ele>
        <time>2019-09-11T09:07:58+00:00</time>
      </trkpt>
      <trkpt lat="43.319297790527" lon="-7.5909900665283">
        <ele>445</ele>
        <time>2019-09-11T09:07:59+00:00</time>
      </trkpt>
      <trkpt lat="43.319290161133" lon="-7.5910048484802">
        <ele>445</ele>
        <time>2019-09-11T09:08:00+00:00</time>
      </trkpt>
      <trkpt lat="43.319282531738" lon="-7.5910215377808">
        <ele>445</ele>
        <time>2019-09-11T09:08:01+00:00</time>
      </trkpt>
      <trkpt lat="43.319278717041" lon="-7.5910367965698">
        <ele>445</ele>
        <time>2019-09-11T09:08:02+00:00</time>
      </trkpt>
      <trkpt lat="43.319274902344" lon="-7.5910515785217">
        <ele>445</ele>
        <time>2019-09-11T09:08:03+00:00</time>
      </trkpt>
      <trkpt lat="43.319271087646" lon="-7.5910682678223">
        <ele>445</ele>
        <time>2019-09-11T09:08:04+00:00</time>
      </trkpt>
      <trkpt lat="43.319267272949" lon="-7.5910849571228">
        <ele>445</ele>
        <time>2019-09-11T09:08:05+00:00</time>
      </trkpt>
      <trkpt lat="43.319263458252" lon="-7.5910983085632">
        <ele>445</ele>
        <time>2019-09-11T09:08:06+00:00</time>
      </trkpt>
      <trkpt lat="43.319259643555" lon="-7.5911102294922">
        <ele>446</ele>
        <time>2019-09-11T09:08:07+00:00</time>
      </trkpt>
      <trkpt lat="43.319255828857" lon="-7.591121673584">
        <ele>446</ele>
        <time>2019-09-11T09:08:08+00:00</time>
      </trkpt>
      <trkpt lat="43.319248199463" lon="-7.5911364555359">
        <ele>447</ele>
        <time>2019-09-11T09:08:09+00:00</time>
      </trkpt>
      <trkpt lat="43.319244384766" lon="-7.5911450386047">
        <ele>447</ele>
        <time>2019-09-11T09:08:10+00:00</time>
      </trkpt>
      <trkpt lat="43.319236755371" lon="-7.5911531448364">
        <ele>447</ele>
        <time>2019-09-11T09:08:11+00:00</time>
      </trkpt>
      <trkpt lat="43.319229125977" lon="-7.5911684036255">
        <ele>447</ele>
        <time>2019-09-11T09:08:12+00:00</time>
      </trkpt>
      <trkpt lat="43.319221496582" lon="-7.5911784172058">
        <ele>447</ele>
        <time>2019-09-11T09:08:13+00:00</time>
      </trkpt>
      <trkpt lat="43.319217681885" lon="-7.5911931991577">
        <ele>448</ele>
        <time>2019-09-11T09:08:14+00:00</time>
      </trkpt>
      <trkpt lat="43.31921005249" lon="-7.5912084579468">
        <ele>448</ele>
        <time>2019-09-11T09:08:15+00:00</time>
      </trkpt>
      <trkpt lat="43.319206237793" lon="-7.5912199020386">
        <ele>448</ele>
        <time>2019-09-11T09:08:16+00:00</time>
      </trkpt>
      <trkpt lat="43.319198608398" lon="-7.5912318229675">
        <ele>448</ele>
        <time>2019-09-11T09:08:17+00:00</time>
      </trkpt>
      <trkpt lat="43.319194793701" lon="-7.5912466049194">
        <ele>449</ele>
        <time>2019-09-11T09:08:18+00:00</time>
      </trkpt>
      <trkpt lat="43.319190979004" lon="-7.5912599563599">
        <ele>449</ele>
        <time>2019-09-11T09:08:19+00:00</time>
      </trkpt>
      <trkpt lat="43.319179534912" lon="-7.5912752151489">
        <ele>449</ele>
        <time>2019-09-11T09:08:20+00:00</time>
      </trkpt>
      <trkpt lat="43.31916809082" lon="-7.5912833213806">
        <ele>449</ele>
        <time>2019-09-11T09:08:21+00:00</time>
      </trkpt>
      <trkpt lat="43.319156646729" lon="-7.5912852287292">
        <ele>450</ele>
        <time>2019-09-11T09:08:22+00:00</time>
      </trkpt>
      <trkpt lat="43.319145202637" lon="-7.5912919044495">
        <ele>450</ele>
        <time>2019-09-11T09:08:23+00:00</time>
      </trkpt>
      <trkpt lat="43.319137573242" lon="-7.5912981033325">
        <ele>450</ele>
        <time>2019-09-11T09:08:24+00:00</time>
      </trkpt>
      <trkpt lat="43.319129943848" lon="-7.5913033485413">
        <ele>450</ele>
        <time>2019-09-11T09:08:25+00:00</time>
      </trkpt>
      <trkpt lat="43.319122314453" lon="-7.5913166999817">
        <ele>450</ele>
        <time>2019-09-11T09:08:26+00:00</time>
      </trkpt>
      <trkpt lat="43.319103240967" lon="-7.5913281440735">
        <ele>450</ele>
        <time>2019-09-11T09:08:27+00:00</time>
      </trkpt>
      <trkpt lat="43.31908416748" lon="-7.5913381576538">
        <ele>450</ele>
        <time>2019-09-11T09:08:28+00:00</time>
      </trkpt>
      <trkpt lat="43.319068908691" lon="-7.5913515090942">
        <ele>450</ele>
        <time>2019-09-11T09:08:29+00:00</time>
      </trkpt>
      <trkpt lat="43.319065093994" lon="-7.5913667678833">
        <ele>450</ele>
        <time>2019-09-11T09:08:30+00:00</time>
      </trkpt>
      <trkpt lat="43.3190574646" lon="-7.5913815498352">
        <ele>450</ele>
        <time>2019-09-11T09:08:31+00:00</time>
      </trkpt>
      <trkpt lat="43.319049835205" lon="-7.5913968086243">
        <ele>451</ele>
        <time>2019-09-11T09:08:32+00:00</time>
      </trkpt>
      <trkpt lat="43.319046020508" lon="-7.5914115905762">
        <ele>451</ele>
        <time>2019-09-11T09:08:33+00:00</time>
      </trkpt>
      <trkpt lat="43.319042205811" lon="-7.5914249420166">
        <ele>451</ele>
        <time>2019-09-11T09:08:34+00:00</time>
      </trkpt>
      <trkpt lat="43.319042205811" lon="-7.5914368629456">
        <ele>451</ele>
        <time>2019-09-11T09:08:35+00:00</time>
      </trkpt>
      <trkpt lat="43.319038391113" lon="-7.5914449691772">
        <ele>451</ele>
        <time>2019-09-11T09:08:36+00:00</time>
      </trkpt>
      <trkpt lat="43.319038391113" lon="-7.5914568901062">
        <ele>451</ele>
        <time>2019-09-11T09:08:37+00:00</time>
      </trkpt>
      <trkpt lat="43.319038391113" lon="-7.5914716720581">
        <ele>451</ele>
        <time>2019-09-11T09:08:38+00:00</time>
      </trkpt>
      <trkpt lat="43.319034576416" lon="-7.5914850234985">
        <ele>451</ele>
        <time>2019-09-11T09:08:39+00:00</time>
      </trkpt>
      <trkpt lat="43.319030761719" lon="-7.5914998054504">
        <ele>451</ele>
        <time>2019-09-11T09:08:40+00:00</time>
      </trkpt>
      <trkpt lat="43.319023132324" lon="-7.5915117263794">
        <ele>452</ele>
        <time>2019-09-11T09:08:41+00:00</time>
      </trkpt>
      <trkpt lat="43.31901550293" lon="-7.5915250778198">
        <ele>452</ele>
        <time>2019-09-11T09:08:42+00:00</time>
      </trkpt>
      <trkpt lat="43.319011688232" lon="-7.5915398597717">
        <ele>452</ele>
        <time>2019-09-11T09:08:43+00:00</time>
      </trkpt>
      <trkpt lat="43.319007873535" lon="-7.5915551185608">
        <ele>453</ele>
        <time>2019-09-11T09:08:44+00:00</time>
      </trkpt>
      <trkpt lat="43.319011688232" lon="-7.5915684700012">
        <ele>453</ele>
        <time>2019-09-11T09:08:45+00:00</time>
      </trkpt>
      <trkpt lat="43.319023132324" lon="-7.5915832519531">
        <ele>454</ele>
        <time>2019-09-11T09:08:46+00:00</time>
      </trkpt>
      <trkpt lat="43.319030761719" lon="-7.5915951728821">
        <ele>454</ele>
        <time>2019-09-11T09:08:47+00:00</time>
      </trkpt>
      <trkpt lat="43.319030761719" lon="-7.5916066169739">
        <ele>454</ele>
        <time>2019-09-11T09:08:48+00:00</time>
      </trkpt>
      <trkpt lat="43.319019317627" lon="-7.5916218757629">
        <ele>454</ele>
        <time>2019-09-11T09:08:49+00:00</time>
      </trkpt>
      <trkpt lat="43.319000244141" lon="-7.5916299819946">
        <ele>455</ele>
        <time>2019-09-11T09:08:50+00:00</time>
      </trkpt>
      <trkpt lat="43.318984985352" lon="-7.5916447639465">
        <ele>455</ele>
        <time>2019-09-11T09:08:51+00:00</time>
      </trkpt>
      <trkpt lat="43.31897354126" lon="-7.5916566848755">
        <ele>455</ele>
        <time>2019-09-11T09:08:52+00:00</time>
      </trkpt>
      <trkpt lat="43.318958282471" lon="-7.5916748046875">
        <ele>455</ele>
        <time>2019-09-11T09:08:53+00:00</time>
      </trkpt>
      <trkpt lat="43.318946838379" lon="-7.591691493988">
        <ele>455</ele>
        <time>2019-09-11T09:08:54+00:00</time>
      </trkpt>
      <trkpt lat="43.318939208984" lon="-7.5917100906372">
        <ele>456</ele>
        <time>2019-09-11T09:08:55+00:00</time>
      </trkpt>
      <trkpt lat="43.31893157959" lon="-7.5917301177979">
        <ele>456</ele>
        <time>2019-09-11T09:08:56+00:00</time>
      </trkpt>
      <trkpt lat="43.318920135498" lon="-7.5917468070984">
        <ele>456</ele>
        <time>2019-09-11T09:08:57+00:00</time>
      </trkpt>
      <trkpt lat="43.318912506104" lon="-7.5917601585388">
        <ele>456</ele>
        <time>2019-09-11T09:08:58+00:00</time>
      </trkpt>
      <trkpt lat="43.318904876709" lon="-7.5917716026306">
        <ele>456</ele>
        <time>2019-09-11T09:08:59+00:00</time>
      </trkpt>
      <trkpt lat="43.318901062012" lon="-7.5917816162109">
        <ele>457</ele>
        <time>2019-09-11T09:09:00+00:00</time>
      </trkpt>
      <trkpt lat="43.31888961792" lon="-7.5917916297913">
        <ele>457</ele>
        <time>2019-09-11T09:09:01+00:00</time>
      </trkpt>
      <trkpt lat="43.318885803223" lon="-7.5918002128601">
        <ele>457</ele>
        <time>2019-09-11T09:09:02+00:00</time>
      </trkpt>
      <trkpt lat="43.318885803223" lon="-7.5918116569519">
        <ele>457</ele>
        <time>2019-09-11T09:09:03+00:00</time>
      </trkpt>
      <trkpt lat="43.318878173828" lon="-7.5918197631836">
        <ele>458</ele>
        <time>2019-09-11T09:09:04+00:00</time>
      </trkpt>
      <trkpt lat="43.318878173828" lon="-7.5918297767639">
        <ele>458</ele>
        <time>2019-09-11T09:09:05+00:00</time>
      </trkpt>
      <trkpt lat="43.318881988525" lon="-7.5918416976929">
        <ele>458</ele>
        <time>2019-09-11T09:09:06+00:00</time>
      </trkpt>
      <trkpt lat="43.318885803223" lon="-7.5918517112732">
        <ele>458</ele>
        <time>2019-09-11T09:09:07+00:00</time>
      </trkpt>
      <trkpt lat="43.318878173828" lon="-7.5918664932251">
        <ele>458</ele>
        <time>2019-09-11T09:09:08+00:00</time>
      </trkpt>
      <trkpt lat="43.318881988525" lon="-7.5918684005737">
        <ele>458</ele>
        <time>2019-09-11T09:09:09+00:00</time>
      </trkpt>
      <trkpt lat="43.318881988525" lon="-7.5918731689453">
        <ele>458</ele>
        <time>2019-09-11T09:09:10+00:00</time>
      </trkpt>
      <trkpt lat="43.318885803223" lon="-7.5918765068054">
        <ele>458</ele>
        <time>2019-09-11T09:09:11+00:00</time>
      </trkpt>
      <trkpt lat="43.31888961792" lon="-7.5918798446655">
        <ele>458</ele>
        <time>2019-09-11T09:09:12+00:00</time>
      </trkpt>
      <trkpt lat="43.318881988525" lon="-7.5918817520142">
        <ele>458</ele>
        <time>2019-09-11T09:09:13+00:00</time>
      </trkpt>
      <trkpt lat="43.318881988525" lon="-7.5918865203857">
        <ele>458</ele>
        <time>2019-09-11T09:09:14+00:00</time>
      </trkpt>
      <trkpt lat="43.318878173828" lon="-7.5918917655945">
        <ele>458</ele>
        <time>2019-09-11T09:09:15+00:00</time>
      </trkpt>
      <trkpt lat="43.318870544434" lon="-7.5919051170349">
        <ele>458</ele>
        <time>2019-09-11T09:09:16+00:00</time>
      </trkpt>
      <trkpt lat="43.318855285645" lon="-7.5919232368469">
        <ele>458</ele>
        <time>2019-09-11T09:09:17+00:00</time>
      </trkpt>
      <trkpt lat="43.31884765625" lon="-7.591938495636">
        <ele>458</ele>
        <time>2019-09-11T09:09:18+00:00</time>
      </trkpt>
      <trkpt lat="43.31884765625" lon="-7.5919551849365">
        <ele>458</ele>
        <time>2019-09-11T09:09:19+00:00</time>
      </trkpt>
      <trkpt lat="43.318843841553" lon="-7.591968536377">
        <ele>458</ele>
        <time>2019-09-11T09:09:20+00:00</time>
      </trkpt>
      <trkpt lat="43.318843841553" lon="-7.591986656189">
        <ele>458</ele>
        <time>2019-09-11T09:09:21+00:00</time>
      </trkpt>
      <trkpt lat="43.318851470947" lon="-7.5920066833496">
        <ele>458</ele>
        <time>2019-09-11T09:09:22+00:00</time>
      </trkpt>
      <trkpt lat="43.318855285645" lon="-7.5920166969299">
        <ele>458</ele>
        <time>2019-09-11T09:09:23+00:00</time>
      </trkpt>
      <trkpt lat="43.318851470947" lon="-7.5920267105103">
        <ele>458</ele>
        <time>2019-09-11T09:09:24+00:00</time>
      </trkpt>
      <trkpt lat="43.318851470947" lon="-7.5920300483704">
        <ele>457</ele>
        <time>2019-09-11T09:09:25+00:00</time>
      </trkpt>
      <trkpt lat="43.318866729736" lon="-7.5920414924622">
        <ele>457</ele>
        <time>2019-09-11T09:09:26+00:00</time>
      </trkpt>
      <trkpt lat="43.318866729736" lon="-7.5920467376709">
        <ele>457</ele>
        <time>2019-09-11T09:09:27+00:00</time>
      </trkpt>
      <trkpt lat="43.318859100342" lon="-7.5920534133911">
        <ele>457</ele>
        <time>2019-09-11T09:09:28+00:00</time>
      </trkpt>
      <trkpt lat="43.318862915039" lon="-7.5920648574829">
        <ele>457</ele>
        <time>2019-09-11T09:09:29+00:00</time>
      </trkpt>
      <trkpt lat="43.318862915039" lon="-7.5920848846436">
        <ele>456</ele>
        <time>2019-09-11T09:09:30+00:00</time>
      </trkpt>
      <trkpt lat="43.318862915039" lon="-7.5921015739441">
        <ele>456</ele>
        <time>2019-09-11T09:09:31+00:00</time>
      </trkpt>
      <trkpt lat="43.318855285645" lon="-7.5921335220337">
        <ele>456</ele>
        <time>2019-09-11T09:09:32+00:00</time>
      </trkpt>
      <trkpt lat="43.318843841553" lon="-7.5921602249146">
        <ele>456</ele>
        <time>2019-09-11T09:09:33+00:00</time>
      </trkpt>
      <trkpt lat="43.318843841553" lon="-7.5921816825867">
        <ele>457</ele>
        <time>2019-09-11T09:09:34+00:00</time>
      </trkpt>
      <trkpt lat="43.318828582764" lon="-7.592191696167">
        <ele>456</ele>
        <time>2019-09-11T09:09:35+00:00</time>
      </trkpt>
      <trkpt lat="43.318824768066" lon="-7.592209815979">
        <ele>456</ele>
        <time>2019-09-11T09:09:36+00:00</time>
      </trkpt>
      <trkpt lat="43.318817138672" lon="-7.592221736908">
        <ele>456</ele>
        <time>2019-09-11T09:09:37+00:00</time>
      </trkpt>
      <trkpt lat="43.318809509277" lon="-7.5922298431396">
        <ele>456</ele>
        <time>2019-09-11T09:09:38+00:00</time>
      </trkpt>
      <trkpt lat="43.31880569458" lon="-7.5922284126282">
        <ele>456</ele>
        <time>2019-09-11T09:09:39+00:00</time>
      </trkpt>
      <trkpt lat="43.318801879883" lon="-7.5922284126282">
        <ele>456</ele>
        <time>2019-09-11T09:09:40+00:00</time>
      </trkpt>
      <trkpt lat="43.318794250488" lon="-7.5922350883484">
        <ele>456</ele>
        <time>2019-09-11T09:09:41+00:00</time>
      </trkpt>
      <trkpt lat="43.318786621094" lon="-7.5922465324402">
        <ele>456</ele>
        <time>2019-09-11T09:09:42+00:00</time>
      </trkpt>
      <trkpt lat="43.318775177002" lon="-7.5922617912292">
        <ele>456</ele>
        <time>2019-09-11T09:09:43+00:00</time>
      </trkpt>
      <trkpt lat="43.318771362305" lon="-7.5922799110413">
        <ele>456</ele>
        <time>2019-09-11T09:09:44+00:00</time>
      </trkpt>
      <trkpt lat="43.318767547607" lon="-7.5922918319702">
        <ele>455</ele>
        <time>2019-09-11T09:09:45+00:00</time>
      </trkpt>
      <trkpt lat="43.31876373291" lon="-7.5923051834106">
        <ele>456</ele>
        <time>2019-09-11T09:09:46+00:00</time>
      </trkpt>
      <trkpt lat="43.318756103516" lon="-7.5923233032227">
        <ele>455</ele>
        <time>2019-09-11T09:09:47+00:00</time>
      </trkpt>
      <trkpt lat="43.318748474121" lon="-7.5923299789429">
        <ele>455</ele>
        <time>2019-09-11T09:09:48+00:00</time>
      </trkpt>
      <trkpt lat="43.318729400635" lon="-7.5923399925232">
        <ele>455</ele>
        <time>2019-09-11T09:09:49+00:00</time>
      </trkpt>
      <trkpt lat="43.318729400635" lon="-7.5923566818237">
        <ele>455</ele>
        <time>2019-09-11T09:09:50+00:00</time>
      </trkpt>
      <trkpt lat="43.318729400635" lon="-7.5923700332642">
        <ele>455</ele>
        <time>2019-09-11T09:09:51+00:00</time>
      </trkpt>
      <trkpt lat="43.318733215332" lon="-7.592381477356">
        <ele>455</ele>
        <time>2019-09-11T09:09:52+00:00</time>
      </trkpt>
      <trkpt lat="43.318725585938" lon="-7.592396736145">
        <ele>455</ele>
        <time>2019-09-11T09:09:53+00:00</time>
      </trkpt>
      <trkpt lat="43.31872177124" lon="-7.5924081802368">
        <ele>455</ele>
        <time>2019-09-11T09:09:54+00:00</time>
      </trkpt>
      <trkpt lat="43.31872177124" lon="-7.5924215316772">
        <ele>455</ele>
        <time>2019-09-11T09:09:55+00:00</time>
      </trkpt>
      <trkpt lat="43.318710327148" lon="-7.5924315452576">
        <ele>455</ele>
        <time>2019-09-11T09:09:56+00:00</time>
      </trkpt>
      <trkpt lat="43.318706512451" lon="-7.5924434661865">
        <ele>455</ele>
        <time>2019-09-11T09:09:57+00:00</time>
      </trkpt>
      <trkpt lat="43.318695068359" lon="-7.5924515724182">
        <ele>455</ele>
        <time>2019-09-11T09:09:58+00:00</time>
      </trkpt>
      <trkpt lat="43.31867980957" lon="-7.5924634933472">
        <ele>455</ele>
        <time>2019-09-11T09:09:59+00:00</time>
      </trkpt>
      <trkpt lat="43.318672180176" lon="-7.592474937439">
        <ele>455</ele>
        <time>2019-09-11T09:10:00+00:00</time>
      </trkpt>
      <trkpt lat="43.318660736084" lon="-7.5924916267395">
        <ele>455</ele>
        <time>2019-09-11T09:10:01+00:00</time>
      </trkpt>
      <trkpt lat="43.318645477295" lon="-7.59250831604">
        <ele>454</ele>
        <time>2019-09-11T09:10:02+00:00</time>
      </trkpt>
      <trkpt lat="43.318634033203" lon="-7.5925264358521">
        <ele>454</ele>
        <time>2019-09-11T09:10:03+00:00</time>
      </trkpt>
      <trkpt lat="43.318614959717" lon="-7.5925416946411">
        <ele>454</ele>
        <time>2019-09-11T09:10:04+00:00</time>
      </trkpt>
      <trkpt lat="43.31859588623" lon="-7.5925650596619">
        <ele>454</ele>
        <time>2019-09-11T09:10:05+00:00</time>
      </trkpt>
      <trkpt lat="43.318588256836" lon="-7.5925831794739">
        <ele>454</ele>
        <time>2019-09-11T09:10:06+00:00</time>
      </trkpt>
      <trkpt lat="43.318580627441" lon="-7.5925850868225">
        <ele>454</ele>
        <time>2019-09-11T09:10:07+00:00</time>
      </trkpt>
      <trkpt lat="43.318572998047" lon="-7.5925931930542">
        <ele>454</ele>
        <time>2019-09-11T09:10:08+00:00</time>
      </trkpt>
      <trkpt lat="43.318557739258" lon="-7.5925998687744">
        <ele>454</ele>
        <time>2019-09-11T09:10:09+00:00</time>
      </trkpt>
      <trkpt lat="43.318546295166" lon="-7.5926084518433">
        <ele>454</ele>
        <time>2019-09-11T09:10:10+00:00</time>
      </trkpt>
      <trkpt lat="43.318523406982" lon="-7.5926132202148">
        <ele>454</ele>
        <time>2019-09-11T09:10:11+00:00</time>
      </trkpt>
      <trkpt lat="43.318511962891" lon="-7.5926184654236">
        <ele>454</ele>
        <time>2019-09-11T09:10:12+00:00</time>
      </trkpt>
      <trkpt lat="43.318504333496" lon="-7.592631816864">
        <ele>455</ele>
        <time>2019-09-11T09:10:13+00:00</time>
      </trkpt>
      <trkpt lat="43.318500518799" lon="-7.5926465988159">
        <ele>455</ele>
        <time>2019-09-11T09:10:14+00:00</time>
      </trkpt>
      <trkpt lat="43.318496704102" lon="-7.592661857605">
        <ele>455</ele>
        <time>2019-09-11T09:10:15+00:00</time>
      </trkpt>
      <trkpt lat="43.318492889404" lon="-7.5926785469055">
        <ele>455</ele>
        <time>2019-09-11T09:10:16+00:00</time>
      </trkpt>
      <trkpt lat="43.31848526001" lon="-7.5926918983459">
        <ele>455</ele>
        <time>2019-09-11T09:10:17+00:00</time>
      </trkpt>
      <trkpt lat="43.318481445312" lon="-7.5927033424377">
        <ele>455</ele>
        <time>2019-09-11T09:10:18+00:00</time>
      </trkpt>
      <trkpt lat="43.318481445312" lon="-7.5927133560181">
        <ele>455</ele>
        <time>2019-09-11T09:10:19+00:00</time>
      </trkpt>
      <trkpt lat="43.31848526001" lon="-7.5927300453186">
        <ele>455</ele>
        <time>2019-09-11T09:10:20+00:00</time>
      </trkpt>
      <trkpt lat="43.318481445312" lon="-7.592743396759">
        <ele>455</ele>
        <time>2019-09-11T09:10:21+00:00</time>
      </trkpt>
      <trkpt lat="43.318473815918" lon="-7.5927581787109">
        <ele>455</ele>
        <time>2019-09-11T09:10:22+00:00</time>
      </trkpt>
      <trkpt lat="43.318466186523" lon="-7.5927715301514">
        <ele>456</ele>
        <time>2019-09-11T09:10:23+00:00</time>
      </trkpt>
      <trkpt lat="43.318450927734" lon="-7.5927867889404">
        <ele>456</ele>
        <time>2019-09-11T09:10:24+00:00</time>
      </trkpt>
      <trkpt lat="43.318435668945" lon="-7.5927968025208">
        <ele>456</ele>
        <time>2019-09-11T09:10:25+00:00</time>
      </trkpt>
      <trkpt lat="43.318420410156" lon="-7.5928115844727">
        <ele>456</ele>
        <time>2019-09-11T09:10:26+00:00</time>
      </trkpt>
      <trkpt lat="43.318408966064" lon="-7.5928249359131">
        <ele>456</ele>
        <time>2019-09-11T09:10:27+00:00</time>
      </trkpt>
      <trkpt lat="43.318397521973" lon="-7.5928401947021">
        <ele>456</ele>
        <time>2019-09-11T09:10:28+00:00</time>
      </trkpt>
      <trkpt lat="43.318389892578" lon="-7.5928568840027">
        <ele>457</ele>
        <time>2019-09-11T09:10:29+00:00</time>
      </trkpt>
      <trkpt lat="43.318378448486" lon="-7.5928702354431">
        <ele>457</ele>
        <time>2019-09-11T09:10:30+00:00</time>
      </trkpt>
      <trkpt lat="43.318382263184" lon="-7.5928897857666">
        <ele>457</ele>
        <time>2019-09-11T09:10:31+00:00</time>
      </trkpt>
      <trkpt lat="43.318374633789" lon="-7.592903137207">
        <ele>457</ele>
        <time>2019-09-11T09:10:32+00:00</time>
      </trkpt>
      <trkpt lat="43.318374633789" lon="-7.5929183959961">
        <ele>458</ele>
        <time>2019-09-11T09:10:33+00:00</time>
      </trkpt>
      <trkpt lat="43.318374633789" lon="-7.5929317474365">
        <ele>458</ele>
        <time>2019-09-11T09:10:34+00:00</time>
      </trkpt>
      <trkpt lat="43.318370819092" lon="-7.592945098877">
        <ele>458</ele>
        <time>2019-09-11T09:10:35+00:00</time>
      </trkpt>
      <trkpt lat="43.318367004395" lon="-7.5929565429688">
        <ele>458</ele>
        <time>2019-09-11T09:10:36+00:00</time>
      </trkpt>
      <trkpt lat="43.318359375" lon="-7.5929718017578">
        <ele>458</ele>
        <time>2019-09-11T09:10:37+00:00</time>
      </trkpt>
      <trkpt lat="43.318351745605" lon="-7.5929865837097">
        <ele>458</ele>
        <time>2019-09-11T09:10:38+00:00</time>
      </trkpt>
      <trkpt lat="43.318344116211" lon="-7.5930032730103">
        <ele>458</ele>
        <time>2019-09-11T09:10:39+00:00</time>
      </trkpt>
      <trkpt lat="43.318340301514" lon="-7.5930185317993">
        <ele>458</ele>
        <time>2019-09-11T09:10:40+00:00</time>
      </trkpt>
      <trkpt lat="43.318336486816" lon="-7.5930299758911">
        <ele>458</ele>
        <time>2019-09-11T09:10:41+00:00</time>
      </trkpt>
      <trkpt lat="43.318328857422" lon="-7.5930466651917">
        <ele>458</ele>
        <time>2019-09-11T09:10:42+00:00</time>
      </trkpt>
      <trkpt lat="43.318321228027" lon="-7.5930633544922">
        <ele>459</ele>
        <time>2019-09-11T09:10:43+00:00</time>
      </trkpt>
      <trkpt lat="43.31831741333" lon="-7.5930814743042">
        <ele>459</ele>
        <time>2019-09-11T09:10:44+00:00</time>
      </trkpt>
      <trkpt lat="43.318313598633" lon="-7.5930981636047">
        <ele>459</ele>
        <time>2019-09-11T09:10:45+00:00</time>
      </trkpt>
      <trkpt lat="43.318309783936" lon="-7.5931100845337">
        <ele>459</ele>
        <time>2019-09-11T09:10:46+00:00</time>
      </trkpt>
      <trkpt lat="43.318302154541" lon="-7.5931215286255">
        <ele>459</ele>
        <time>2019-09-11T09:10:47+00:00</time>
      </trkpt>
      <trkpt lat="43.318298339844" lon="-7.5931315422058">
        <ele>460</ele>
        <time>2019-09-11T09:10:48+00:00</time>
      </trkpt>
      <trkpt lat="43.318298339844" lon="-7.5931434631348">
        <ele>460</ele>
        <time>2019-09-11T09:10:49+00:00</time>
      </trkpt>
      <trkpt lat="43.318286895752" lon="-7.5931534767151">
        <ele>460</ele>
        <time>2019-09-11T09:10:50+00:00</time>
      </trkpt>
      <trkpt lat="43.318283081055" lon="-7.5931634902954">
        <ele>460</ele>
        <time>2019-09-11T09:10:51+00:00</time>
      </trkpt>
      <trkpt lat="43.318271636963" lon="-7.5931868553162">
        <ele>460</ele>
        <time>2019-09-11T09:10:52+00:00</time>
      </trkpt>
      <trkpt lat="43.318267822266" lon="-7.5932068824768">
        <ele>460</ele>
        <time>2019-09-11T09:10:53+00:00</time>
      </trkpt>
      <trkpt lat="43.318252563477" lon="-7.5932264328003">
        <ele>460</ele>
        <time>2019-09-11T09:10:54+00:00</time>
      </trkpt>
      <trkpt lat="43.318244934082" lon="-7.5932431221008">
        <ele>460</ele>
        <time>2019-09-11T09:10:55+00:00</time>
      </trkpt>
      <trkpt lat="43.31823348999" lon="-7.5932550430298">
        <ele>460</ele>
        <time>2019-09-11T09:10:56+00:00</time>
      </trkpt>
      <trkpt lat="43.318229675293" lon="-7.5932664871216">
        <ele>460</ele>
        <time>2019-09-11T09:10:57+00:00</time>
      </trkpt>
      <trkpt lat="43.318222045898" lon="-7.5932784080505">
        <ele>461</ele>
        <time>2019-09-11T09:10:58+00:00</time>
      </trkpt>
      <trkpt lat="43.318218231201" lon="-7.593291759491">
        <ele>461</ele>
        <time>2019-09-11T09:10:59+00:00</time>
      </trkpt>
      <trkpt lat="43.318218231201" lon="-7.5932984352112">
        <ele>461</ele>
        <time>2019-09-11T09:11:00+00:00</time>
      </trkpt>
      <trkpt lat="43.318218231201" lon="-7.5933151245117">
        <ele>461</ele>
        <time>2019-09-11T09:11:01+00:00</time>
      </trkpt>
      <trkpt lat="43.318210601807" lon="-7.593325138092">
        <ele>460</ele>
        <time>2019-09-11T09:11:02+00:00</time>
      </trkpt>
      <trkpt lat="43.318202972412" lon="-7.5933351516724">
        <ele>460</ele>
        <time>2019-09-11T09:11:03+00:00</time>
      </trkpt>
      <trkpt lat="43.31819152832" lon="-7.5933485031128">
        <ele>460</ele>
        <time>2019-09-11T09:11:04+00:00</time>
      </trkpt>
      <trkpt lat="43.318183898926" lon="-7.5933599472046">
        <ele>460</ele>
        <time>2019-09-11T09:11:05+00:00</time>
      </trkpt>
      <trkpt lat="43.318176269531" lon="-7.5933699607849">
        <ele>459</ele>
        <time>2019-09-11T09:11:06+00:00</time>
      </trkpt>
      <trkpt lat="43.318161010742" lon="-7.593385219574">
        <ele>459</ele>
        <time>2019-09-11T09:11:07+00:00</time>
      </trkpt>
      <trkpt lat="43.318153381348" lon="-7.593403339386">
        <ele>459</ele>
        <time>2019-09-11T09:11:08+00:00</time>
      </trkpt>
      <trkpt lat="43.318141937256" lon="-7.5934166908264">
        <ele>459</ele>
        <time>2019-09-11T09:11:09+00:00</time>
      </trkpt>
      <trkpt lat="43.318130493164" lon="-7.5934314727783">
        <ele>459</ele>
        <time>2019-09-11T09:11:10+00:00</time>
      </trkpt>
      <trkpt lat="43.318126678467" lon="-7.5934448242188">
        <ele>459</ele>
        <time>2019-09-11T09:11:11+00:00</time>
      </trkpt>
      <trkpt lat="43.318115234375" lon="-7.5934615135193">
        <ele>459</ele>
        <time>2019-09-11T09:11:12+00:00</time>
      </trkpt>
      <trkpt lat="43.31810760498" lon="-7.5934715270996">
        <ele>459</ele>
        <time>2019-09-11T09:11:13+00:00</time>
      </trkpt>
      <trkpt lat="43.318099975586" lon="-7.5934815406799">
        <ele>459</ele>
        <time>2019-09-11T09:11:14+00:00</time>
      </trkpt>
      <trkpt lat="43.318103790283" lon="-7.593496799469">
        <ele>459</ele>
        <time>2019-09-11T09:11:15+00:00</time>
      </trkpt>
      <trkpt lat="43.318103790283" lon="-7.5935082435608">
        <ele>459</ele>
        <time>2019-09-11T09:11:16+00:00</time>
      </trkpt>
      <trkpt lat="43.318103790283" lon="-7.5935201644897">
        <ele>459</ele>
        <time>2019-09-11T09:11:17+00:00</time>
      </trkpt>
      <trkpt lat="43.31810760498" lon="-7.5935316085815">
        <ele>459</ele>
        <time>2019-09-11T09:11:18+00:00</time>
      </trkpt>
      <trkpt lat="43.318111419678" lon="-7.5935435295105">
        <ele>459</ele>
        <time>2019-09-11T09:11:19+00:00</time>
      </trkpt>
      <trkpt lat="43.318099975586" lon="-7.5935502052307">
        <ele>459</ele>
        <time>2019-09-11T09:11:20+00:00</time>
      </trkpt>
      <trkpt lat="43.3180809021" lon="-7.5935568809509">
        <ele>460</ele>
        <time>2019-09-11T09:11:21+00:00</time>
      </trkpt>
      <trkpt lat="43.318073272705" lon="-7.5935635566711">
        <ele>460</ele>
        <time>2019-09-11T09:11:22+00:00</time>
      </trkpt>
      <trkpt lat="43.318069458008" lon="-7.5935716629028">
        <ele>460</ele>
        <time>2019-09-11T09:11:23+00:00</time>
      </trkpt>
      <trkpt lat="43.318061828613" lon="-7.5935831069946">
        <ele>460</ele>
        <time>2019-09-11T09:11:24+00:00</time>
      </trkpt>
      <trkpt lat="43.318054199219" lon="-7.5935983657837">
        <ele>460</ele>
        <time>2019-09-11T09:11:25+00:00</time>
      </trkpt>
      <trkpt lat="43.318050384521" lon="-7.593608379364">
        <ele>460</ele>
        <time>2019-09-11T09:11:26+00:00</time>
      </trkpt>
      <trkpt lat="43.318042755127" lon="-7.5936217308044">
        <ele>460</ele>
        <time>2019-09-11T09:11:27+00:00</time>
      </trkpt>
      <trkpt lat="43.318035125732" lon="-7.5936317443848">
        <ele>461</ele>
        <time>2019-09-11T09:11:28+00:00</time>
      </trkpt>
      <trkpt lat="43.318031311035" lon="-7.5936450958252">
        <ele>461</ele>
        <time>2019-09-11T09:11:29+00:00</time>
      </trkpt>
      <trkpt lat="43.318031311035" lon="-7.5936598777771">
        <ele>461</ele>
        <time>2019-09-11T09:11:30+00:00</time>
      </trkpt>
      <trkpt lat="43.318031311035" lon="-7.5936617851257">
        <ele>461</ele>
        <time>2019-09-11T09:11:31+00:00</time>
      </trkpt>
      <trkpt lat="43.318023681641" lon="-7.5936651229858">
        <ele>462</ele>
        <time>2019-09-11T09:11:32+00:00</time>
      </trkpt>
      <trkpt lat="43.318016052246" lon="-7.5936717987061">
        <ele>462</ele>
        <time>2019-09-11T09:11:33+00:00</time>
      </trkpt>
      <trkpt lat="43.318000793457" lon="-7.5936884880066">
        <ele>462</ele>
        <time>2019-09-11T09:11:34+00:00</time>
      </trkpt>
      <trkpt lat="43.317985534668" lon="-7.5937032699585">
        <ele>463</ele>
        <time>2019-09-11T09:11:35+00:00</time>
      </trkpt>
      <trkpt lat="43.317974090576" lon="-7.5937232971191">
        <ele>463</ele>
        <time>2019-09-11T09:11:36+00:00</time>
      </trkpt>
      <trkpt lat="43.317981719971" lon="-7.5937352180481">
        <ele>463</ele>
        <time>2019-09-11T09:11:37+00:00</time>
      </trkpt>
      <trkpt lat="43.317981719971" lon="-7.5937485694885">
        <ele>464</ele>
        <time>2019-09-11T09:11:38+00:00</time>
      </trkpt>
      <trkpt lat="43.317974090576" lon="-7.5937614440918">
        <ele>464</ele>
        <time>2019-09-11T09:11:39+00:00</time>
      </trkpt>
      <trkpt lat="43.317974090576" lon="-7.5937767028809">
        <ele>464</ele>
        <time>2019-09-11T09:11:40+00:00</time>
      </trkpt>
      <trkpt lat="43.317966461182" lon="-7.5937967300415">
        <ele>464</ele>
        <time>2019-09-11T09:11:41+00:00</time>
      </trkpt>
      <trkpt lat="43.317966461182" lon="-7.5938081741333">
        <ele>465</ele>
        <time>2019-09-11T09:11:42+00:00</time>
      </trkpt>
      <trkpt lat="43.317958831787" lon="-7.5938248634338">
        <ele>465</ele>
        <time>2019-09-11T09:11:43+00:00</time>
      </trkpt>
      <trkpt lat="43.31795501709" lon="-7.5938382148743">
        <ele>465</ele>
        <time>2019-09-11T09:11:44+00:00</time>
      </trkpt>
      <trkpt lat="43.317947387695" lon="-7.5938467979431">
        <ele>465</ele>
        <time>2019-09-11T09:11:45+00:00</time>
      </trkpt>
      <trkpt lat="43.317939758301" lon="-7.5938601493835">
        <ele>465</ele>
        <time>2019-09-11T09:11:46+00:00</time>
      </trkpt>
      <trkpt lat="43.317932128906" lon="-7.5938668251038">
        <ele>465</ele>
        <time>2019-09-11T09:11:47+00:00</time>
      </trkpt>
      <trkpt lat="43.317928314209" lon="-7.5938749313354">
        <ele>465</ele>
        <time>2019-09-11T09:11:48+00:00</time>
      </trkpt>
      <trkpt lat="43.317920684814" lon="-7.5938849449158">
        <ele>465</ele>
        <time>2019-09-11T09:11:49+00:00</time>
      </trkpt>
      <trkpt lat="43.317916870117" lon="-7.593891620636">
        <ele>465</ele>
        <time>2019-09-11T09:11:50+00:00</time>
      </trkpt>
      <trkpt lat="43.317909240723" lon="-7.5939016342163">
        <ele>465</ele>
        <time>2019-09-11T09:11:51+00:00</time>
      </trkpt>
      <trkpt lat="43.317897796631" lon="-7.5939135551453">
        <ele>465</ele>
        <time>2019-09-11T09:11:52+00:00</time>
      </trkpt>
      <trkpt lat="43.317890167236" lon="-7.5939297676086">
        <ele>465</ele>
        <time>2019-09-11T09:11:53+00:00</time>
      </trkpt>
      <trkpt lat="43.317878723145" lon="-7.5939331054688">
        <ele>464</ele>
        <time>2019-09-11T09:11:54+00:00</time>
      </trkpt>
      <trkpt lat="43.317878723145" lon="-7.5939416885376">
        <ele>464</ele>
        <time>2019-09-11T09:11:55+00:00</time>
      </trkpt>
      <trkpt lat="43.317878723145" lon="-7.5939483642578">
        <ele>464</ele>
        <time>2019-09-11T09:11:56+00:00</time>
      </trkpt>
      <trkpt lat="43.317874908447" lon="-7.5939564704895">
        <ele>464</ele>
        <time>2019-09-11T09:11:57+00:00</time>
      </trkpt>
      <trkpt lat="43.317878723145" lon="-7.5939664840698">
        <ele>464</ele>
        <time>2019-09-11T09:11:58+00:00</time>
      </trkpt>
      <trkpt lat="43.317874908447" lon="-7.5939798355103">
        <ele>464</ele>
        <time>2019-09-11T09:11:59+00:00</time>
      </trkpt>
      <trkpt lat="43.317867279053" lon="-7.5939965248108">
        <ele>464</ele>
        <time>2019-09-11T09:12:00+00:00</time>
      </trkpt>
      <trkpt lat="43.317863464355" lon="-7.59401512146">
        <ele>464</ele>
        <time>2019-09-11T09:12:01+00:00</time>
      </trkpt>
      <trkpt lat="43.317855834961" lon="-7.5940384864807">
        <ele>464</ele>
        <time>2019-09-11T09:12:02+00:00</time>
      </trkpt>
      <trkpt lat="43.317848205566" lon="-7.5940518379211">
        <ele>464</ele>
        <time>2019-09-11T09:12:03+00:00</time>
      </trkpt>
      <trkpt lat="43.317840576172" lon="-7.5940632820129">
        <ele>464</ele>
        <time>2019-09-11T09:12:04+00:00</time>
      </trkpt>
      <trkpt lat="43.317832946777" lon="-7.5940752029419">
        <ele>464</ele>
        <time>2019-09-11T09:12:05+00:00</time>
      </trkpt>
      <trkpt lat="43.317821502686" lon="-7.5940818786621">
        <ele>464</ele>
        <time>2019-09-11T09:12:06+00:00</time>
      </trkpt>
      <trkpt lat="43.317817687988" lon="-7.5940899848938">
        <ele>464</ele>
        <time>2019-09-11T09:12:07+00:00</time>
      </trkpt>
      <trkpt lat="43.317810058594" lon="-7.5941066741943">
        <ele>464</ele>
        <time>2019-09-11T09:12:08+00:00</time>
      </trkpt>
      <trkpt lat="43.317798614502" lon="-7.594126701355">
        <ele>464</ele>
        <time>2019-09-11T09:12:09+00:00</time>
      </trkpt>
      <trkpt lat="43.317794799805" lon="-7.5941414833069">
        <ele>464</ele>
        <time>2019-09-11T09:12:10+00:00</time>
      </trkpt>
      <trkpt lat="43.31778717041" lon="-7.5941600799561">
        <ele>464</ele>
        <time>2019-09-11T09:12:11+00:00</time>
      </trkpt>
      <trkpt lat="43.317783355713" lon="-7.594174861908">
        <ele>463</ele>
        <time>2019-09-11T09:12:12+00:00</time>
      </trkpt>
      <trkpt lat="43.317779541016" lon="-7.5941915512085">
        <ele>463</ele>
        <time>2019-09-11T09:12:13+00:00</time>
      </trkpt>
      <trkpt lat="43.317771911621" lon="-7.5942034721375">
        <ele>463</ele>
        <time>2019-09-11T09:12:14+00:00</time>
      </trkpt>
      <trkpt lat="43.317768096924" lon="-7.5942149162292">
        <ele>463</ele>
        <time>2019-09-11T09:12:15+00:00</time>
      </trkpt>
      <trkpt lat="43.317760467529" lon="-7.5942301750183">
        <ele>463</ele>
        <time>2019-09-11T09:12:16+00:00</time>
      </trkpt>
      <trkpt lat="43.317752838135" lon="-7.5942482948303">
        <ele>463</ele>
        <time>2019-09-11T09:12:17+00:00</time>
      </trkpt>
      <trkpt lat="43.31774520874" lon="-7.5942616462708">
        <ele>463</ele>
        <time>2019-09-11T09:12:18+00:00</time>
      </trkpt>
      <trkpt lat="43.317733764648" lon="-7.5942769050598">
        <ele>463</ele>
        <time>2019-09-11T09:12:19+00:00</time>
      </trkpt>
      <trkpt lat="43.317726135254" lon="-7.5942950248718">
        <ele>463</ele>
        <time>2019-09-11T09:12:20+00:00</time>
      </trkpt>
      <trkpt lat="43.317718505859" lon="-7.5943098068237">
        <ele>463</ele>
        <time>2019-09-11T09:12:21+00:00</time>
      </trkpt>
      <trkpt lat="43.317710876465" lon="-7.5943264961243">
        <ele>463</ele>
        <time>2019-09-11T09:12:22+00:00</time>
      </trkpt>
      <trkpt lat="43.317699432373" lon="-7.5943398475647">
        <ele>462</ele>
        <time>2019-09-11T09:12:23+00:00</time>
      </trkpt>
      <trkpt lat="43.317699432373" lon="-7.5943484306335">
        <ele>463</ele>
        <time>2019-09-11T09:12:24+00:00</time>
      </trkpt>
      <trkpt lat="43.317695617676" lon="-7.5943598747253">
        <ele>463</ele>
        <time>2019-09-11T09:12:25+00:00</time>
      </trkpt>
      <trkpt lat="43.317687988281" lon="-7.5943751335144">
        <ele>463</ele>
        <time>2019-09-11T09:12:26+00:00</time>
      </trkpt>
      <trkpt lat="43.317680358887" lon="-7.5943865776062">
        <ele>463</ele>
        <time>2019-09-11T09:12:27+00:00</time>
      </trkpt>
      <trkpt lat="43.317676544189" lon="-7.5944032669067">
        <ele>464</ele>
        <time>2019-09-11T09:12:28+00:00</time>
      </trkpt>
      <trkpt lat="43.317672729492" lon="-7.5944199562073">
        <ele>464</ele>
        <time>2019-09-11T09:12:29+00:00</time>
      </trkpt>
      <trkpt lat="43.317668914795" lon="-7.5944299697876">
        <ele>464</ele>
        <time>2019-09-11T09:12:30+00:00</time>
      </trkpt>
      <trkpt lat="43.317665100098" lon="-7.5944452285767">
        <ele>464</ele>
        <time>2019-09-11T09:12:31+00:00</time>
      </trkpt>
      <trkpt lat="43.3176612854" lon="-7.5944633483887">
        <ele>464</ele>
        <time>2019-09-11T09:12:32+00:00</time>
      </trkpt>
      <trkpt lat="43.317649841309" lon="-7.5944800376892">
        <ele>464</ele>
        <time>2019-09-11T09:12:33+00:00</time>
      </trkpt>
      <trkpt lat="43.317646026611" lon="-7.5944933891296">
        <ele>464</ele>
        <time>2019-09-11T09:12:34+00:00</time>
      </trkpt>
      <trkpt lat="43.317638397217" lon="-7.5945081710815">
        <ele>464</ele>
        <time>2019-09-11T09:12:35+00:00</time>
      </trkpt>
      <trkpt lat="43.317630767822" lon="-7.594521522522">
        <ele>465</ele>
        <time>2019-09-11T09:12:36+00:00</time>
      </trkpt>
      <trkpt lat="43.317623138428" lon="-7.5945348739624">
        <ele>465</ele>
        <time>2019-09-11T09:12:37+00:00</time>
      </trkpt>
      <trkpt lat="43.317611694336" lon="-7.5945482254028">
        <ele>465</ele>
        <time>2019-09-11T09:12:38+00:00</time>
      </trkpt>
      <trkpt lat="43.317604064941" lon="-7.5945601463318">
        <ele>465</ele>
        <time>2019-09-11T09:12:39+00:00</time>
      </trkpt>
      <trkpt lat="43.317596435547" lon="-7.5945715904236">
        <ele>465</ele>
        <time>2019-09-11T09:12:40+00:00</time>
      </trkpt>
      <trkpt lat="43.317588806152" lon="-7.5945882797241">
        <ele>465</ele>
        <time>2019-09-11T09:12:41+00:00</time>
      </trkpt>
      <trkpt lat="43.317584991455" lon="-7.5946002006531">
        <ele>465</ele>
        <time>2019-09-11T09:12:42+00:00</time>
      </trkpt>
      <trkpt lat="43.317573547363" lon="-7.5946135520935">
        <ele>465</ele>
        <time>2019-09-11T09:12:43+00:00</time>
      </trkpt>
      <trkpt lat="43.317565917969" lon="-7.5946283340454">
        <ele>465</ele>
        <time>2019-09-11T09:12:44+00:00</time>
      </trkpt>
      <trkpt lat="43.317565917969" lon="-7.5946416854858">
        <ele>465</ele>
        <time>2019-09-11T09:12:45+00:00</time>
      </trkpt>
      <trkpt lat="43.317562103271" lon="-7.5946531295776">
        <ele>466</ele>
        <time>2019-09-11T09:12:46+00:00</time>
      </trkpt>
      <trkpt lat="43.317558288574" lon="-7.5946683883667">
        <ele>466</ele>
        <time>2019-09-11T09:12:47+00:00</time>
      </trkpt>
      <trkpt lat="43.317546844482" lon="-7.5946817398071">
        <ele>466</ele>
        <time>2019-09-11T09:12:48+00:00</time>
      </trkpt>
      <trkpt lat="43.317535400391" lon="-7.5946950912476">
        <ele>466</ele>
        <time>2019-09-11T09:12:49+00:00</time>
      </trkpt>
      <trkpt lat="43.317520141602" lon="-7.5947065353394">
        <ele>466</ele>
        <time>2019-09-11T09:12:50+00:00</time>
      </trkpt>
      <trkpt lat="43.317516326904" lon="-7.5947217941284">
        <ele>466</ele>
        <time>2019-09-11T09:12:51+00:00</time>
      </trkpt>
      <trkpt lat="43.317504882812" lon="-7.5947351455688">
        <ele>466</ele>
        <time>2019-09-11T09:12:52+00:00</time>
      </trkpt>
      <trkpt lat="43.317497253418" lon="-7.5947484970093">
        <ele>466</ele>
        <time>2019-09-11T09:12:53+00:00</time>
      </trkpt>
      <trkpt lat="43.317485809326" lon="-7.594756603241">
        <ele>467</ele>
        <time>2019-09-11T09:12:54+00:00</time>
      </trkpt>
      <trkpt lat="43.317474365234" lon="-7.5947666168213">
        <ele>466</ele>
        <time>2019-09-11T09:12:55+00:00</time>
      </trkpt>
      <trkpt lat="43.31746673584" lon="-7.5947751998901">
        <ele>467</ele>
        <time>2019-09-11T09:12:56+00:00</time>
      </trkpt>
      <trkpt lat="43.317455291748" lon="-7.5947833061218">
        <ele>467</ele>
        <time>2019-09-11T09:12:57+00:00</time>
      </trkpt>
      <trkpt lat="43.317447662354" lon="-7.5947918891907">
        <ele>467</ele>
        <time>2019-09-11T09:12:58+00:00</time>
      </trkpt>
      <trkpt lat="43.317440032959" lon="-7.5947999954224">
        <ele>467</ele>
        <time>2019-09-11T09:12:59+00:00</time>
      </trkpt>
      <trkpt lat="43.317432403564" lon="-7.5948114395142">
        <ele>467</ele>
        <time>2019-09-11T09:13:00+00:00</time>
      </trkpt>
      <trkpt lat="43.31742477417" lon="-7.5948247909546">
        <ele>467</ele>
        <time>2019-09-11T09:13:01+00:00</time>
      </trkpt>
      <trkpt lat="43.317417144775" lon="-7.5948433876038">
        <ele>467</ele>
        <time>2019-09-11T09:13:02+00:00</time>
      </trkpt>
      <trkpt lat="43.317405700684" lon="-7.5948567390442">
        <ele>467</ele>
        <time>2019-09-11T09:13:03+00:00</time>
      </trkpt>
      <trkpt lat="43.317394256592" lon="-7.5948734283447">
        <ele>466</ele>
        <time>2019-09-11T09:13:04+00:00</time>
      </trkpt>
      <trkpt lat="43.317386627197" lon="-7.5948867797852">
        <ele>466</ele>
        <time>2019-09-11T09:13:05+00:00</time>
      </trkpt>
      <trkpt lat="43.317378997803" lon="-7.5949001312256">
        <ele>466</ele>
        <time>2019-09-11T09:13:06+00:00</time>
      </trkpt>
      <trkpt lat="43.317371368408" lon="-7.5949168205261">
        <ele>466</ele>
        <time>2019-09-11T09:13:07+00:00</time>
      </trkpt>
      <trkpt lat="43.317363739014" lon="-7.5949301719666">
        <ele>466</ele>
        <time>2019-09-11T09:13:08+00:00</time>
      </trkpt>
      <trkpt lat="43.317359924316" lon="-7.594943523407">
        <ele>466</ele>
        <time>2019-09-11T09:13:09+00:00</time>
      </trkpt>
      <trkpt lat="43.317352294922" lon="-7.5949535369873">
        <ele>466</ele>
        <time>2019-09-11T09:13:10+00:00</time>
      </trkpt>
      <trkpt lat="43.317344665527" lon="-7.5949635505676">
        <ele>466</ele>
        <time>2019-09-11T09:13:11+00:00</time>
      </trkpt>
      <trkpt lat="43.31734085083" lon="-7.5949769020081">
        <ele>466</ele>
        <time>2019-09-11T09:13:12+00:00</time>
      </trkpt>
      <trkpt lat="43.317333221436" lon="-7.59499168396">
        <ele>466</ele>
        <time>2019-09-11T09:13:13+00:00</time>
      </trkpt>
      <trkpt lat="43.317329406738" lon="-7.5950050354004">
        <ele>465</ele>
        <time>2019-09-11T09:13:14+00:00</time>
      </trkpt>
      <trkpt lat="43.317329406738" lon="-7.5950183868408">
        <ele>465</ele>
        <time>2019-09-11T09:13:15+00:00</time>
      </trkpt>
      <trkpt lat="43.317325592041" lon="-7.5950317382812">
        <ele>465</ele>
        <time>2019-09-11T09:13:16+00:00</time>
      </trkpt>
      <trkpt lat="43.317317962646" lon="-7.5950450897217">
        <ele>465</ele>
        <time>2019-09-11T09:13:17+00:00</time>
      </trkpt>
      <trkpt lat="43.317314147949" lon="-7.5950584411621">
        <ele>464</ele>
        <time>2019-09-11T09:13:18+00:00</time>
      </trkpt>
      <trkpt lat="43.317314147949" lon="-7.5950698852539">
        <ele>464</ele>
        <time>2019-09-11T09:13:19+00:00</time>
      </trkpt>
      <trkpt lat="43.317317962646" lon="-7.5950818061829">
        <ele>463</ele>
        <time>2019-09-11T09:13:20+00:00</time>
      </trkpt>
      <trkpt lat="43.317314147949" lon="-7.5950884819031">
        <ele>463</ele>
        <time>2019-09-11T09:13:21+00:00</time>
      </trkpt>
      <trkpt lat="43.317306518555" lon="-7.5950984954834">
        <ele>463</ele>
        <time>2019-09-11T09:13:22+00:00</time>
      </trkpt>
      <trkpt lat="43.317302703857" lon="-7.5951118469238">
        <ele>463</ele>
        <time>2019-09-11T09:13:23+00:00</time>
      </trkpt>
      <trkpt lat="43.317295074463" lon="-7.5951232910156">
        <ele>462</ele>
        <time>2019-09-11T09:13:24+00:00</time>
      </trkpt>
      <trkpt lat="43.317291259766" lon="-7.5951352119446">
        <ele>462</ele>
        <time>2019-09-11T09:13:25+00:00</time>
      </trkpt>
      <trkpt lat="43.317291259766" lon="-7.595148563385">
        <ele>462</ele>
        <time>2019-09-11T09:13:26+00:00</time>
      </trkpt>
      <trkpt lat="43.317287445068" lon="-7.5951614379883">
        <ele>462</ele>
        <time>2019-09-11T09:13:27+00:00</time>
      </trkpt>
      <trkpt lat="43.317283630371" lon="-7.5951700210571">
        <ele>462</ele>
        <time>2019-09-11T09:13:28+00:00</time>
      </trkpt>
      <trkpt lat="43.317279815674" lon="-7.5951781272888">
        <ele>462</ele>
        <time>2019-09-11T09:13:29+00:00</time>
      </trkpt>
      <trkpt lat="43.317279815674" lon="-7.5951881408691">
        <ele>462</ele>
        <time>2019-09-11T09:13:30+00:00</time>
      </trkpt>
      <trkpt lat="43.317279815674" lon="-7.5952000617981">
        <ele>462</ele>
        <time>2019-09-11T09:13:31+00:00</time>
      </trkpt>
      <trkpt lat="43.317276000977" lon="-7.5952100753784">
        <ele>462</ele>
        <time>2019-09-11T09:13:32+00:00</time>
      </trkpt>
      <trkpt lat="43.317276000977" lon="-7.5952200889587">
        <ele>462</ele>
        <time>2019-09-11T09:13:33+00:00</time>
      </trkpt>
      <trkpt lat="43.317272186279" lon="-7.5952315330505">
        <ele>462</ele>
        <time>2019-09-11T09:13:34+00:00</time>
      </trkpt>
      <trkpt lat="43.317272186279" lon="-7.5952467918396">
        <ele>462</ele>
        <time>2019-09-11T09:13:35+00:00</time>
      </trkpt>
      <trkpt lat="43.317268371582" lon="-7.59526014328">
        <ele>461</ele>
        <time>2019-09-11T09:13:36+00:00</time>
      </trkpt>
      <trkpt lat="43.317268371582" lon="-7.5952768325806">
        <ele>462</ele>
        <time>2019-09-11T09:13:37+00:00</time>
      </trkpt>
      <trkpt lat="43.317272186279" lon="-7.5952949523926">
        <ele>462</ele>
        <time>2019-09-11T09:13:38+00:00</time>
      </trkpt>
      <trkpt lat="43.317272186279" lon="-7.5953068733215">
        <ele>462</ele>
        <time>2019-09-11T09:13:39+00:00</time>
      </trkpt>
      <trkpt lat="43.317264556885" lon="-7.5953168869019">
        <ele>462</ele>
        <time>2019-09-11T09:13:40+00:00</time>
      </trkpt>
      <trkpt lat="43.317253112793" lon="-7.5953249931335">
        <ele>462</ele>
        <time>2019-09-11T09:13:41+00:00</time>
      </trkpt>
      <trkpt lat="43.317253112793" lon="-7.595338344574">
        <ele>461</ele>
        <time>2019-09-11T09:13:42+00:00</time>
      </trkpt>
      <trkpt lat="43.317245483398" lon="-7.5953431129456">
        <ele>462</ele>
        <time>2019-09-11T09:13:43+00:00</time>
      </trkpt>
      <trkpt lat="43.317237854004" lon="-7.5953497886658">
        <ele>462</ele>
        <time>2019-09-11T09:13:44+00:00</time>
      </trkpt>
      <trkpt lat="43.317230224609" lon="-7.5953516960144">
        <ele>462</ele>
        <time>2019-09-11T09:13:45+00:00</time>
      </trkpt>
      <trkpt lat="43.317226409912" lon="-7.5953583717346">
        <ele>462</ele>
        <time>2019-09-11T09:13:46+00:00</time>
      </trkpt>
      <trkpt lat="43.317226409912" lon="-7.5953650474548">
        <ele>462</ele>
        <time>2019-09-11T09:13:47+00:00</time>
      </trkpt>
      <trkpt lat="43.317222595215" lon="-7.5953750610352">
        <ele>462</ele>
        <time>2019-09-11T09:13:48+00:00</time>
      </trkpt>
      <trkpt lat="43.317222595215" lon="-7.5953931808472">
        <ele>463</ele>
        <time>2019-09-11T09:13:49+00:00</time>
      </trkpt>
      <trkpt lat="43.317218780518" lon="-7.5954031944275">
        <ele>463</ele>
        <time>2019-09-11T09:13:50+00:00</time>
      </trkpt>
      <trkpt lat="43.31721496582" lon="-7.5954132080078">
        <ele>463</ele>
        <time>2019-09-11T09:13:51+00:00</time>
      </trkpt>
      <trkpt lat="43.317211151123" lon="-7.5954165458679">
        <ele>463</ele>
        <time>2019-09-11T09:13:52+00:00</time>
      </trkpt>
      <trkpt lat="43.317211151123" lon="-7.5954251289368">
        <ele>464</ele>
        <time>2019-09-11T09:13:53+00:00</time>
      </trkpt>
      <trkpt lat="43.317199707031" lon="-7.5954351425171">
        <ele>464</ele>
        <time>2019-09-11T09:13:54+00:00</time>
      </trkpt>
      <trkpt lat="43.317188262939" lon="-7.595449924469">
        <ele>464</ele>
        <time>2019-09-11T09:13:55+00:00</time>
      </trkpt>
      <trkpt lat="43.317180633545" lon="-7.5954699516296">
        <ele>464</ele>
        <time>2019-09-11T09:13:56+00:00</time>
      </trkpt>
      <trkpt lat="43.31717300415" lon="-7.5954885482788">
        <ele>464</ele>
        <time>2019-09-11T09:13:57+00:00</time>
      </trkpt>
      <trkpt lat="43.317161560059" lon="-7.5955066680908">
        <ele>464</ele>
        <time>2019-09-11T09:13:58+00:00</time>
      </trkpt>
      <trkpt lat="43.317157745361" lon="-7.5955166816711">
        <ele>464</ele>
        <time>2019-09-11T09:13:59+00:00</time>
      </trkpt>
      <trkpt lat="43.317153930664" lon="-7.5955300331116">
        <ele>464</ele>
        <time>2019-09-11T09:14:00+00:00</time>
      </trkpt>
      <trkpt lat="43.317150115967" lon="-7.5955414772034">
        <ele>464</ele>
        <time>2019-09-11T09:14:01+00:00</time>
      </trkpt>
      <trkpt lat="43.317142486572" lon="-7.5955533981323">
        <ele>464</ele>
        <time>2019-09-11T09:14:02+00:00</time>
      </trkpt>
      <trkpt lat="43.317138671875" lon="-7.5955715179443">
        <ele>464</ele>
        <time>2019-09-11T09:14:03+00:00</time>
      </trkpt>
      <trkpt lat="43.317134857178" lon="-7.5955848693848">
        <ele>465</ele>
        <time>2019-09-11T09:14:04+00:00</time>
      </trkpt>
      <trkpt lat="43.317134857178" lon="-7.5956034660339">
        <ele>465</ele>
        <time>2019-09-11T09:14:05+00:00</time>
      </trkpt>
      <trkpt lat="43.317111968994" lon="-7.5956249237061">
        <ele>465</ele>
        <time>2019-09-11T09:14:06+00:00</time>
      </trkpt>
      <trkpt lat="43.3171043396" lon="-7.5956401824951">
        <ele>464</ele>
        <time>2019-09-11T09:14:07+00:00</time>
      </trkpt>
      <trkpt lat="43.317092895508" lon="-7.5956635475159">
        <ele>465</ele>
        <time>2019-09-11T09:14:08+00:00</time>
      </trkpt>
      <trkpt lat="43.317077636719" lon="-7.5956802368164">
        <ele>465</ele>
        <time>2019-09-11T09:14:09+00:00</time>
      </trkpt>
      <trkpt lat="43.317070007324" lon="-7.5956897735596">
        <ele>465</ele>
        <time>2019-09-11T09:14:10+00:00</time>
      </trkpt>
      <trkpt lat="43.31706237793" lon="-7.5957050323486">
        <ele>465</ele>
        <time>2019-09-11T09:14:11+00:00</time>
      </trkpt>
      <trkpt lat="43.317047119141" lon="-7.5957264900208">
        <ele>465</ele>
        <time>2019-09-11T09:14:12+00:00</time>
      </trkpt>
      <trkpt lat="43.317031860352" lon="-7.5957498550415">
        <ele>465</ele>
        <time>2019-09-11T09:14:13+00:00</time>
      </trkpt>
      <trkpt lat="43.317024230957" lon="-7.5957698822021">
        <ele>465</ele>
        <time>2019-09-11T09:14:14+00:00</time>
      </trkpt>
      <trkpt lat="43.317012786865" lon="-7.5957918167114">
        <ele>464</ele>
        <time>2019-09-11T09:14:15+00:00</time>
      </trkpt>
      <trkpt lat="43.317001342773" lon="-7.595808506012">
        <ele>464</ele>
        <time>2019-09-11T09:14:16+00:00</time>
      </trkpt>
      <trkpt lat="43.316993713379" lon="-7.5958218574524">
        <ele>464</ele>
        <time>2019-09-11T09:14:17+00:00</time>
      </trkpt>
      <trkpt lat="43.316982269287" lon="-7.5958333015442">
        <ele>464</ele>
        <time>2019-09-11T09:14:18+00:00</time>
      </trkpt>
      <trkpt lat="43.316970825195" lon="-7.5958518981934">
        <ele>464</ele>
        <time>2019-09-11T09:14:19+00:00</time>
      </trkpt>
      <trkpt lat="43.316955566406" lon="-7.595860004425">
        <ele>464</ele>
        <time>2019-09-11T09:14:20+00:00</time>
      </trkpt>
      <trkpt lat="43.316940307617" lon="-7.5958700180054">
        <ele>464</ele>
        <time>2019-09-11T09:14:21+00:00</time>
      </trkpt>
      <trkpt lat="43.31693649292" lon="-7.5958814620972">
        <ele>464</ele>
        <time>2019-09-11T09:14:22+00:00</time>
      </trkpt>
      <trkpt lat="43.316932678223" lon="-7.5958833694458">
        <ele>464</ele>
        <time>2019-09-11T09:14:23+00:00</time>
      </trkpt>
      <trkpt lat="43.316928863525" lon="-7.5958814620972">
        <ele>464</ele>
        <time>2019-09-11T09:14:24+00:00</time>
      </trkpt>
      <trkpt lat="43.316925048828" lon="-7.5958766937256">
        <ele>463</ele>
        <time>2019-09-11T09:14:25+00:00</time>
      </trkpt>
      <trkpt lat="43.316925048828" lon="-7.5958847999573">
        <ele>464</ele>
        <time>2019-09-11T09:14:26+00:00</time>
      </trkpt>
      <trkpt lat="43.316917419434" lon="-7.5958914756775">
        <ele>464</ele>
        <time>2019-09-11T09:14:27+00:00</time>
      </trkpt>
      <trkpt lat="43.316917419434" lon="-7.5959000587463">
        <ele>464</ele>
        <time>2019-09-11T09:14:28+00:00</time>
      </trkpt>
      <trkpt lat="43.316913604736" lon="-7.5959100723267">
        <ele>464</ele>
        <time>2019-09-11T09:14:29+00:00</time>
      </trkpt>
      <trkpt lat="43.316909790039" lon="-7.5959167480469">
        <ele>464</ele>
        <time>2019-09-11T09:14:30+00:00</time>
      </trkpt>
      <trkpt lat="43.316905975342" lon="-7.5959248542786">
        <ele>464</ele>
        <time>2019-09-11T09:14:31+00:00</time>
      </trkpt>
      <trkpt lat="43.316909790039" lon="-7.5959315299988">
        <ele>464</ele>
        <time>2019-09-11T09:14:32+00:00</time>
      </trkpt>
      <trkpt lat="43.316898345947" lon="-7.5959367752075">
        <ele>464</ele>
        <time>2019-09-11T09:14:33+00:00</time>
      </trkpt>
      <trkpt lat="43.31689453125" lon="-7.5959568023682">
        <ele>464</ele>
        <time>2019-09-11T09:14:34+00:00</time>
      </trkpt>
      <trkpt lat="43.316890716553" lon="-7.5959649085999">
        <ele>464</ele>
        <time>2019-09-11T09:14:35+00:00</time>
      </trkpt>
      <trkpt lat="43.316883087158" lon="-7.5959701538086">
        <ele>464</ele>
        <time>2019-09-11T09:14:36+00:00</time>
      </trkpt>
      <trkpt lat="43.316871643066" lon="-7.5959782600403">
        <ele>464</ele>
        <time>2019-09-11T09:14:37+00:00</time>
      </trkpt>
      <trkpt lat="43.316867828369" lon="-7.5959949493408">
        <ele>464</ele>
        <time>2019-09-11T09:14:38+00:00</time>
      </trkpt>
      <trkpt lat="43.316860198975" lon="-7.5960149765015">
        <ele>464</ele>
        <time>2019-09-11T09:14:39+00:00</time>
      </trkpt>
      <trkpt lat="43.31685256958" lon="-7.5960330963135">
        <ele>464</ele>
        <time>2019-09-11T09:14:40+00:00</time>
      </trkpt>
      <trkpt lat="43.316841125488" lon="-7.5960450172424">
        <ele>464</ele>
        <time>2019-09-11T09:14:41+00:00</time>
      </trkpt>
      <trkpt lat="43.316829681396" lon="-7.5960650444031">
        <ele>464</ele>
        <time>2019-09-11T09:14:42+00:00</time>
      </trkpt>
      <trkpt lat="43.316822052002" lon="-7.5960783958435">
        <ele>464</ele>
        <time>2019-09-11T09:14:43+00:00</time>
      </trkpt>
      <trkpt lat="43.316825866699" lon="-7.5960998535156">
        <ele>463</ele>
        <time>2019-09-11T09:14:44+00:00</time>
      </trkpt>
      <trkpt lat="43.316825866699" lon="-7.5961132049561">
        <ele>463</ele>
        <time>2019-09-11T09:14:45+00:00</time>
      </trkpt>
      <trkpt lat="43.316829681396" lon="-7.5961318016052">
        <ele>463</ele>
        <time>2019-09-11T09:14:46+00:00</time>
      </trkpt>
      <trkpt lat="43.316825866699" lon="-7.5961418151855">
        <ele>463</ele>
        <time>2019-09-11T09:14:47+00:00</time>
      </trkpt>
      <trkpt lat="43.316825866699" lon="-7.5961532592773">
        <ele>463</ele>
        <time>2019-09-11T09:14:48+00:00</time>
      </trkpt>
      <trkpt lat="43.316814422607" lon="-7.5961618423462">
        <ele>463</ele>
        <time>2019-09-11T09:14:49+00:00</time>
      </trkpt>
      <trkpt lat="43.316806793213" lon="-7.5961751937866">
        <ele>463</ele>
        <time>2019-09-11T09:14:50+00:00</time>
      </trkpt>
      <trkpt lat="43.31681060791" lon="-7.5961899757385">
        <ele>463</ele>
        <time>2019-09-11T09:14:51+00:00</time>
      </trkpt>
      <trkpt lat="43.316802978516" lon="-7.5961933135986">
        <ele>463</ele>
        <time>2019-09-11T09:14:52+00:00</time>
      </trkpt>
      <trkpt lat="43.316799163818" lon="-7.5962018966675">
        <ele>463</ele>
        <time>2019-09-11T09:14:53+00:00</time>
      </trkpt>
      <trkpt lat="43.316791534424" lon="-7.5962114334106">
        <ele>463</ele>
        <time>2019-09-11T09:14:54+00:00</time>
      </trkpt>
      <trkpt lat="43.316791534424" lon="-7.5962200164795">
        <ele>463</ele>
        <time>2019-09-11T09:14:55+00:00</time>
      </trkpt>
      <trkpt lat="43.316787719727" lon="-7.5962314605713">
        <ele>463</ele>
        <time>2019-09-11T09:14:56+00:00</time>
      </trkpt>
      <trkpt lat="43.316783905029" lon="-7.5962381362915">
        <ele>463</ele>
        <time>2019-09-11T09:14:57+00:00</time>
      </trkpt>
      <trkpt lat="43.316780090332" lon="-7.5962500572205">
        <ele>463</ele>
        <time>2019-09-11T09:14:58+00:00</time>
      </trkpt>
      <trkpt lat="43.316772460938" lon="-7.596266746521">
        <ele>463</ele>
        <time>2019-09-11T09:14:59+00:00</time>
      </trkpt>
      <trkpt lat="43.316776275635" lon="-7.5962882041931">
        <ele>463</ele>
        <time>2019-09-11T09:15:00+00:00</time>
      </trkpt>
      <trkpt lat="43.316772460938" lon="-7.5963101387024">
        <ele>463</ele>
        <time>2019-09-11T09:15:01+00:00</time>
      </trkpt>
      <trkpt lat="43.31676864624" lon="-7.5963315963745">
        <ele>463</ele>
        <time>2019-09-11T09:15:02+00:00</time>
      </trkpt>
      <trkpt lat="43.316764831543" lon="-7.596348285675">
        <ele>463</ele>
        <time>2019-09-11T09:15:03+00:00</time>
      </trkpt>
      <trkpt lat="43.316757202148" lon="-7.5963716506958">
        <ele>464</ele>
        <time>2019-09-11T09:15:04+00:00</time>
      </trkpt>
      <trkpt lat="43.316749572754" lon="-7.5963883399963">
        <ele>464</ele>
        <time>2019-09-11T09:15:05+00:00</time>
      </trkpt>
      <trkpt lat="43.316749572754" lon="-7.5964016914368">
        <ele>464</ele>
        <time>2019-09-11T09:15:06+00:00</time>
      </trkpt>
      <trkpt lat="43.316738128662" lon="-7.5964183807373">
        <ele>464</ele>
        <time>2019-09-11T09:15:07+00:00</time>
      </trkpt>
      <trkpt lat="43.316738128662" lon="-7.5964317321777">
        <ele>464</ele>
        <time>2019-09-11T09:15:08+00:00</time>
      </trkpt>
      <trkpt lat="43.316730499268" lon="-7.5964398384094">
        <ele>464</ele>
        <time>2019-09-11T09:15:09+00:00</time>
      </trkpt>
      <trkpt lat="43.316715240479" lon="-7.5964498519897">
        <ele>464</ele>
        <time>2019-09-11T09:15:10+00:00</time>
      </trkpt>
      <trkpt lat="43.316707611084" lon="-7.5964584350586">
        <ele>464</ele>
        <time>2019-09-11T09:15:11+00:00</time>
      </trkpt>
      <trkpt lat="43.316699981689" lon="-7.5964698791504">
        <ele>464</ele>
        <time>2019-09-11T09:15:12+00:00</time>
      </trkpt>
      <trkpt lat="43.316692352295" lon="-7.5964818000793">
        <ele>464</ele>
        <time>2019-09-11T09:15:13+00:00</time>
      </trkpt>
      <trkpt lat="43.316673278809" lon="-7.5964951515198">
        <ele>464</ele>
        <time>2019-09-11T09:15:14+00:00</time>
      </trkpt>
      <trkpt lat="43.316654205322" lon="-7.5965065956116">
        <ele>464</ele>
        <time>2019-09-11T09:15:15+00:00</time>
      </trkpt>
      <trkpt lat="43.316650390625" lon="-7.5965151786804">
        <ele>464</ele>
        <time>2019-09-11T09:15:16+00:00</time>
      </trkpt>
      <trkpt lat="43.316646575928" lon="-7.5965251922607">
        <ele>464</ele>
        <time>2019-09-11T09:15:17+00:00</time>
      </trkpt>
      <trkpt lat="43.31664276123" lon="-7.5965352058411">
        <ele>464</ele>
        <time>2019-09-11T09:15:18+00:00</time>
      </trkpt>
      <trkpt lat="43.31664276123" lon="-7.5965466499329">
        <ele>464</ele>
        <time>2019-09-11T09:15:19+00:00</time>
      </trkpt>
      <trkpt lat="43.316635131836" lon="-7.5965600013733">
        <ele>463</ele>
        <time>2019-09-11T09:15:20+00:00</time>
      </trkpt>
      <trkpt lat="43.316635131836" lon="-7.5965766906738">
        <ele>463</ele>
        <time>2019-09-11T09:15:21+00:00</time>
      </trkpt>
      <trkpt lat="43.316635131836" lon="-7.5965914726257">
        <ele>463</ele>
        <time>2019-09-11T09:15:22+00:00</time>
      </trkpt>
      <trkpt lat="43.316623687744" lon="-7.5966014862061">
        <ele>463</ele>
        <time>2019-09-11T09:15:23+00:00</time>
      </trkpt>
      <trkpt lat="43.316627502441" lon="-7.5966114997864">
        <ele>463</ele>
        <time>2019-09-11T09:15:24+00:00</time>
      </trkpt>
      <trkpt lat="43.316623687744" lon="-7.5966215133667">
        <ele>463</ele>
        <time>2019-09-11T09:15:25+00:00</time>
      </trkpt>
      <trkpt lat="43.316619873047" lon="-7.5966401100159">
        <ele>463</ele>
        <time>2019-09-11T09:15:26+00:00</time>
      </trkpt>
      <trkpt lat="43.316608428955" lon="-7.5966649055481">
        <ele>463</ele>
        <time>2019-09-11T09:15:27+00:00</time>
      </trkpt>
      <trkpt lat="43.316604614258" lon="-7.5966882705688">
        <ele>463</ele>
        <time>2019-09-11T09:15:28+00:00</time>
      </trkpt>
      <trkpt lat="43.316596984863" lon="-7.5967049598694">
        <ele>463</ele>
        <time>2019-09-11T09:15:29+00:00</time>
      </trkpt>
      <trkpt lat="43.316589355469" lon="-7.5967235565186">
        <ele>464</ele>
        <time>2019-09-11T09:15:30+00:00</time>
      </trkpt>
      <trkpt lat="43.316581726074" lon="-7.5967350006104">
        <ele>463</ele>
        <time>2019-09-11T09:15:31+00:00</time>
      </trkpt>
      <trkpt lat="43.31657409668" lon="-7.5967464447021">
        <ele>463</ele>
        <time>2019-09-11T09:15:32+00:00</time>
      </trkpt>
      <trkpt lat="43.316558837891" lon="-7.5967597961426">
        <ele>463</ele>
        <time>2019-09-11T09:15:33+00:00</time>
      </trkpt>
      <trkpt lat="43.316543579102" lon="-7.5967783927917">
        <ele>463</ele>
        <time>2019-09-11T09:15:34+00:00</time>
      </trkpt>
      <trkpt lat="43.316539764404" lon="-7.5967864990234">
        <ele>463</ele>
        <time>2019-09-11T09:15:35+00:00</time>
      </trkpt>
      <trkpt lat="43.316539764404" lon="-7.5968050956726">
        <ele>463</ele>
        <time>2019-09-11T09:15:36+00:00</time>
      </trkpt>
      <trkpt lat="43.31653213501" lon="-7.5968198776245">
        <ele>462</ele>
        <time>2019-09-11T09:15:37+00:00</time>
      </trkpt>
      <trkpt lat="43.316524505615" lon="-7.5968298912048">
        <ele>462</ele>
        <time>2019-09-11T09:15:38+00:00</time>
      </trkpt>
      <trkpt lat="43.31653213501" lon="-7.5968432426453">
        <ele>462</ele>
        <time>2019-09-11T09:15:39+00:00</time>
      </trkpt>
      <trkpt lat="43.31653213501" lon="-7.5968585014343">
        <ele>462</ele>
        <time>2019-09-11T09:15:40+00:00</time>
      </trkpt>
      <trkpt lat="43.316528320312" lon="-7.5968685150146">
        <ele>462</ele>
        <time>2019-09-11T09:15:41+00:00</time>
      </trkpt>
      <trkpt lat="43.316528320312" lon="-7.5968818664551">
        <ele>462</ele>
        <time>2019-09-11T09:15:42+00:00</time>
      </trkpt>
      <trkpt lat="43.316528320312" lon="-7.5968933105469">
        <ele>462</ele>
        <time>2019-09-11T09:15:43+00:00</time>
      </trkpt>
      <trkpt lat="43.316513061523" lon="-7.5969133377075">
        <ele>462</ele>
        <time>2019-09-11T09:15:44+00:00</time>
      </trkpt>
      <trkpt lat="43.316493988037" lon="-7.5969347953796">
        <ele>462</ele>
        <time>2019-09-11T09:15:45+00:00</time>
      </trkpt>
      <trkpt lat="43.316497802734" lon="-7.5969533920288">
        <ele>462</ele>
        <time>2019-09-11T09:15:46+00:00</time>
      </trkpt>
      <trkpt lat="43.316497802734" lon="-7.5969700813293">
        <ele>461</ele>
        <time>2019-09-11T09:15:47+00:00</time>
      </trkpt>
      <trkpt lat="43.316501617432" lon="-7.5969834327698">
        <ele>461</ele>
        <time>2019-09-11T09:15:48+00:00</time>
      </trkpt>
      <trkpt lat="43.316505432129" lon="-7.5970015525818">
        <ele>461</ele>
        <time>2019-09-11T09:15:49+00:00</time>
      </trkpt>
      <trkpt lat="43.316516876221" lon="-7.5970234870911">
        <ele>461</ele>
        <time>2019-09-11T09:15:50+00:00</time>
      </trkpt>
      <trkpt lat="43.316528320312" lon="-7.597038269043">
        <ele>461</ele>
        <time>2019-09-11T09:15:51+00:00</time>
      </trkpt>
      <trkpt lat="43.316539764404" lon="-7.5970568656921">
        <ele>462</ele>
        <time>2019-09-11T09:15:52+00:00</time>
      </trkpt>
      <trkpt lat="43.316543579102" lon="-7.5970735549927">
        <ele>461</ele>
        <time>2019-09-11T09:15:53+00:00</time>
      </trkpt>
      <trkpt lat="43.316543579102" lon="-7.5970983505249">
        <ele>461</ele>
        <time>2019-09-11T09:15:54+00:00</time>
      </trkpt>
      <trkpt lat="43.316543579102" lon="-7.5971217155457">
        <ele>461</ele>
        <time>2019-09-11T09:15:55+00:00</time>
      </trkpt>
      <trkpt lat="43.316539764404" lon="-7.5971398353577">
        <ele>461</ele>
        <time>2019-09-11T09:15:56+00:00</time>
      </trkpt>
      <trkpt lat="43.316543579102" lon="-7.5971531867981">
        <ele>461</ele>
        <time>2019-09-11T09:15:57+00:00</time>
      </trkpt>
      <trkpt lat="43.316535949707" lon="-7.5971717834473">
        <ele>461</ele>
        <time>2019-09-11T09:15:58+00:00</time>
      </trkpt>
      <trkpt lat="43.316524505615" lon="-7.5971899032593">
        <ele>461</ele>
        <time>2019-09-11T09:15:59+00:00</time>
      </trkpt>
      <trkpt lat="43.316509246826" lon="-7.5972051620483">
        <ele>460</ele>
        <time>2019-09-11T09:16:00+00:00</time>
      </trkpt>
      <trkpt lat="43.316501617432" lon="-7.597225189209">
        <ele>461</ele>
        <time>2019-09-11T09:16:01+00:00</time>
      </trkpt>
      <trkpt lat="43.316497802734" lon="-7.5972385406494">
        <ele>461</ele>
        <time>2019-09-11T09:16:02+00:00</time>
      </trkpt>
      <trkpt lat="43.316493988037" lon="-7.5972518920898">
        <ele>460</ele>
        <time>2019-09-11T09:16:03+00:00</time>
      </trkpt>
      <trkpt lat="43.31649017334" lon="-7.5972647666931">
        <ele>460</ele>
        <time>2019-09-11T09:16:04+00:00</time>
      </trkpt>
      <trkpt lat="43.31649017334" lon="-7.5972814559937">
        <ele>460</ele>
        <time>2019-09-11T09:16:05+00:00</time>
      </trkpt>
      <trkpt lat="43.316493988037" lon="-7.5972967147827">
        <ele>460</ele>
        <time>2019-09-11T09:16:06+00:00</time>
      </trkpt>
      <trkpt lat="43.316493988037" lon="-7.5973181724548">
        <ele>460</ele>
        <time>2019-09-11T09:16:07+00:00</time>
      </trkpt>
      <trkpt lat="43.31649017334" lon="-7.5973334312439">
        <ele>460</ele>
        <time>2019-09-11T09:16:08+00:00</time>
      </trkpt>
      <trkpt lat="43.31649017334" lon="-7.5973448753357">
        <ele>460</ele>
        <time>2019-09-11T09:16:09+00:00</time>
      </trkpt>
      <trkpt lat="43.316486358643" lon="-7.5973601341248">
        <ele>460</ele>
        <time>2019-09-11T09:16:10+00:00</time>
      </trkpt>
      <trkpt lat="43.316486358643" lon="-7.5973701477051">
        <ele>460</ele>
        <time>2019-09-11T09:16:11+00:00</time>
      </trkpt>
      <trkpt lat="43.316486358643" lon="-7.5973782539368">
        <ele>460</ele>
        <time>2019-09-11T09:16:12+00:00</time>
      </trkpt>
      <trkpt lat="43.316467285156" lon="-7.5973916053772">
        <ele>460</ele>
        <time>2019-09-11T09:16:13+00:00</time>
      </trkpt>
      <trkpt lat="43.316455841064" lon="-7.5974035263062">
        <ele>460</ele>
        <time>2019-09-11T09:16:14+00:00</time>
      </trkpt>
      <trkpt lat="43.316463470459" lon="-7.5974202156067">
        <ele>460</ele>
        <time>2019-09-11T09:16:15+00:00</time>
      </trkpt>
      <trkpt lat="43.316463470459" lon="-7.5974369049072">
        <ele>460</ele>
        <time>2019-09-11T09:16:16+00:00</time>
      </trkpt>
      <trkpt lat="43.316463470459" lon="-7.5974516868591">
        <ele>460</ele>
        <time>2019-09-11T09:16:17+00:00</time>
      </trkpt>
      <trkpt lat="43.316459655762" lon="-7.5974631309509">
        <ele>461</ele>
        <time>2019-09-11T09:16:18+00:00</time>
      </trkpt>
      <trkpt lat="43.316459655762" lon="-7.5974717140198">
        <ele>461</ele>
        <time>2019-09-11T09:16:19+00:00</time>
      </trkpt>
      <trkpt lat="43.316455841064" lon="-7.5974817276001">
        <ele>461</ele>
        <time>2019-09-11T09:16:20+00:00</time>
      </trkpt>
      <trkpt lat="43.316459655762" lon="-7.597496509552">
        <ele>461</ele>
        <time>2019-09-11T09:16:21+00:00</time>
      </trkpt>
      <trkpt lat="43.316452026367" lon="-7.5975131988525">
        <ele>461</ele>
        <time>2019-09-11T09:16:22+00:00</time>
      </trkpt>
      <trkpt lat="43.316444396973" lon="-7.5975217819214">
        <ele>461</ele>
        <time>2019-09-11T09:16:23+00:00</time>
      </trkpt>
      <trkpt lat="43.316436767578" lon="-7.5975332260132">
        <ele>461</ele>
        <time>2019-09-11T09:16:24+00:00</time>
      </trkpt>
      <trkpt lat="43.316432952881" lon="-7.5975384712219">
        <ele>462</ele>
        <time>2019-09-11T09:16:25+00:00</time>
      </trkpt>
      <trkpt lat="43.316421508789" lon="-7.5975499153137">
        <ele>462</ele>
        <time>2019-09-11T09:16:26+00:00</time>
      </trkpt>
      <trkpt lat="43.31640625" lon="-7.5975618362427">
        <ele>462</ele>
        <time>2019-09-11T09:16:27+00:00</time>
      </trkpt>
      <trkpt lat="43.316398620605" lon="-7.5975666046143">
        <ele>462</ele>
        <time>2019-09-11T09:16:28+00:00</time>
      </trkpt>
      <trkpt lat="43.316398620605" lon="-7.5975799560547">
        <ele>462</ele>
        <time>2019-09-11T09:16:29+00:00</time>
      </trkpt>
      <trkpt lat="43.316394805908" lon="-7.5975933074951">
        <ele>463</ele>
        <time>2019-09-11T09:16:30+00:00</time>
      </trkpt>
      <trkpt lat="43.316394805908" lon="-7.5976119041443">
        <ele>462</ele>
        <time>2019-09-11T09:16:31+00:00</time>
      </trkpt>
      <trkpt lat="43.316383361816" lon="-7.5976281166077">
        <ele>462</ele>
        <time>2019-09-11T09:16:32+00:00</time>
      </trkpt>
      <trkpt lat="43.316368103027" lon="-7.5976433753967">
        <ele>462</ele>
        <time>2019-09-11T09:16:33+00:00</time>
      </trkpt>
      <trkpt lat="43.31636428833" lon="-7.5976667404175">
        <ele>462</ele>
        <time>2019-09-11T09:16:34+00:00</time>
      </trkpt>
      <trkpt lat="43.316356658936" lon="-7.5976901054382">
        <ele>461</ele>
        <time>2019-09-11T09:16:35+00:00</time>
      </trkpt>
      <trkpt lat="43.316352844238" lon="-7.5977115631104">
        <ele>461</ele>
        <time>2019-09-11T09:16:36+00:00</time>
      </trkpt>
      <trkpt lat="43.316349029541" lon="-7.597731590271">
        <ele>461</ele>
        <time>2019-09-11T09:16:37+00:00</time>
      </trkpt>
      <trkpt lat="43.316345214844" lon="-7.5977516174316">
        <ele>461</ele>
        <time>2019-09-11T09:16:38+00:00</time>
      </trkpt>
      <trkpt lat="43.316349029541" lon="-7.597776889801">
        <ele>461</ele>
        <time>2019-09-11T09:16:39+00:00</time>
      </trkpt>
      <trkpt lat="43.316349029541" lon="-7.5977883338928">
        <ele>461</ele>
        <time>2019-09-11T09:16:40+00:00</time>
      </trkpt>
      <trkpt lat="43.316349029541" lon="-7.5978031158447">
        <ele>460</ele>
        <time>2019-09-11T09:16:41+00:00</time>
      </trkpt>
      <trkpt lat="43.316349029541" lon="-7.5978183746338">
        <ele>460</ele>
        <time>2019-09-11T09:16:42+00:00</time>
      </trkpt>
      <trkpt lat="43.316352844238" lon="-7.5978283882141">
        <ele>460</ele>
        <time>2019-09-11T09:16:43+00:00</time>
      </trkpt>
      <trkpt lat="43.316360473633" lon="-7.5978364944458">
        <ele>460</ele>
        <time>2019-09-11T09:16:44+00:00</time>
      </trkpt>
      <trkpt lat="43.31636428833" lon="-7.5978450775146">
        <ele>460</ele>
        <time>2019-09-11T09:16:45+00:00</time>
      </trkpt>
      <trkpt lat="43.316337585449" lon="-7.5978531837463">
        <ele>460</ele>
        <time>2019-09-11T09:16:46+00:00</time>
      </trkpt>
      <trkpt lat="43.316314697266" lon="-7.5978617668152">
        <ele>460</ele>
        <time>2019-09-11T09:16:47+00:00</time>
      </trkpt>
      <trkpt lat="43.316284179688" lon="-7.5978717803955">
        <ele>460</ele>
        <time>2019-09-11T09:16:48+00:00</time>
      </trkpt>
      <trkpt lat="43.316261291504" lon="-7.5978817939758">
        <ele>460</ele>
        <time>2019-09-11T09:16:49+00:00</time>
      </trkpt>
      <trkpt lat="43.316242218018" lon="-7.5978951454163">
        <ele>460</ele>
        <time>2019-09-11T09:16:50+00:00</time>
      </trkpt>
      <trkpt lat="43.316234588623" lon="-7.5979065895081">
        <ele>460</ele>
        <time>2019-09-11T09:16:51+00:00</time>
      </trkpt>
      <trkpt lat="43.316223144531" lon="-7.5979218482971">
        <ele>460</ele>
        <time>2019-09-11T09:16:52+00:00</time>
      </trkpt>
      <trkpt lat="43.316223144531" lon="-7.5979399681091">
        <ele>460</ele>
        <time>2019-09-11T09:16:53+00:00</time>
      </trkpt>
      <trkpt lat="43.316226959229" lon="-7.5979633331299">
        <ele>460</ele>
        <time>2019-09-11T09:16:54+00:00</time>
      </trkpt>
      <trkpt lat="43.316234588623" lon="-7.5979914665222">
        <ele>460</ele>
        <time>2019-09-11T09:16:55+00:00</time>
      </trkpt>
      <trkpt lat="43.316226959229" lon="-7.5980067253113">
        <ele>460</ele>
        <time>2019-09-11T09:16:56+00:00</time>
      </trkpt>
      <trkpt lat="43.316226959229" lon="-7.5980267524719">
        <ele>460</ele>
        <time>2019-09-11T09:16:57+00:00</time>
      </trkpt>
      <trkpt lat="43.316230773926" lon="-7.5980401039124">
        <ele>460</ele>
        <time>2019-09-11T09:16:58+00:00</time>
      </trkpt>
      <trkpt lat="43.316230773926" lon="-7.5980515480042">
        <ele>460</ele>
        <time>2019-09-11T09:16:59+00:00</time>
      </trkpt>
      <trkpt lat="43.31623840332" lon="-7.598078250885">
        <ele>460</ele>
        <time>2019-09-11T09:17:00+00:00</time>
      </trkpt>
      <trkpt lat="43.316246032715" lon="-7.5980982780457">
        <ele>460</ele>
        <time>2019-09-11T09:17:01+00:00</time>
      </trkpt>
      <trkpt lat="43.316253662109" lon="-7.5981283187866">
        <ele>460</ele>
        <time>2019-09-11T09:17:02+00:00</time>
      </trkpt>
      <trkpt lat="43.316249847412" lon="-7.5981383323669">
        <ele>460</ele>
        <time>2019-09-11T09:17:03+00:00</time>
      </trkpt>
      <trkpt lat="43.316253662109" lon="-7.5981616973877">
        <ele>461</ele>
        <time>2019-09-11T09:17:04+00:00</time>
      </trkpt>
      <trkpt lat="43.316253662109" lon="-7.5981850624084">
        <ele>461</ele>
        <time>2019-09-11T09:17:05+00:00</time>
      </trkpt>
      <trkpt lat="43.316246032715" lon="-7.5981998443604">
        <ele>461</ele>
        <time>2019-09-11T09:17:06+00:00</time>
      </trkpt>
      <trkpt lat="43.31623840332" lon="-7.5982184410095">
        <ele>461</ele>
        <time>2019-09-11T09:17:07+00:00</time>
      </trkpt>
      <trkpt lat="43.316234588623" lon="-7.5982351303101">
        <ele>461</ele>
        <time>2019-09-11T09:17:08+00:00</time>
      </trkpt>
      <trkpt lat="43.31623840332" lon="-7.5982465744019">
        <ele>461</ele>
        <time>2019-09-11T09:17:09+00:00</time>
      </trkpt>
      <trkpt lat="43.31623840332" lon="-7.5982565879822">
        <ele>461</ele>
        <time>2019-09-11T09:17:10+00:00</time>
      </trkpt>
      <trkpt lat="43.31623840332" lon="-7.5982732772827">
        <ele>461</ele>
        <time>2019-09-11T09:17:11+00:00</time>
      </trkpt>
      <trkpt lat="43.316246032715" lon="-7.598295211792">
        <ele>461</ele>
        <time>2019-09-11T09:17:12+00:00</time>
      </trkpt>
      <trkpt lat="43.316249847412" lon="-7.5983119010925">
        <ele>461</ele>
        <time>2019-09-11T09:17:13+00:00</time>
      </trkpt>
      <trkpt lat="43.316249847412" lon="-7.5983247756958">
        <ele>461</ele>
        <time>2019-09-11T09:17:14+00:00</time>
      </trkpt>
      <trkpt lat="43.316249847412" lon="-7.5983414649963">
        <ele>461</ele>
        <time>2019-09-11T09:17:15+00:00</time>
      </trkpt>
      <trkpt lat="43.316261291504" lon="-7.5983567237854">
        <ele>461</ele>
        <time>2019-09-11T09:17:16+00:00</time>
      </trkpt>
      <trkpt lat="43.316265106201" lon="-7.5983648300171">
        <ele>461</ele>
        <time>2019-09-11T09:17:17+00:00</time>
      </trkpt>
      <trkpt lat="43.316291809082" lon="-7.5983867645264">
        <ele>461</ele>
        <time>2019-09-11T09:17:18+00:00</time>
      </trkpt>
      <trkpt lat="43.316314697266" lon="-7.5984115600586">
        <ele>461</ele>
        <time>2019-09-11T09:17:19+00:00</time>
      </trkpt>
      <trkpt lat="43.316329956055" lon="-7.5984334945679">
        <ele>460</ele>
        <time>2019-09-11T09:17:20+00:00</time>
      </trkpt>
      <trkpt lat="43.316318511963" lon="-7.5984516143799">
        <ele>460</ele>
        <time>2019-09-11T09:17:21+00:00</time>
      </trkpt>
      <trkpt lat="43.316310882568" lon="-7.5984668731689">
        <ele>461</ele>
        <time>2019-09-11T09:17:22+00:00</time>
      </trkpt>
      <trkpt lat="43.316291809082" lon="-7.5984950065613">
        <ele>461</ele>
        <time>2019-09-11T09:17:23+00:00</time>
      </trkpt>
      <trkpt lat="43.316276550293" lon="-7.5985050201416">
        <ele>461</ele>
        <time>2019-09-11T09:17:24+00:00</time>
      </trkpt>
      <trkpt lat="43.316272735596" lon="-7.598518371582">
        <ele>461</ele>
        <time>2019-09-11T09:17:25+00:00</time>
      </trkpt>
      <trkpt lat="43.316265106201" lon="-7.5985283851624">
        <ele>461</ele>
        <time>2019-09-11T09:17:26+00:00</time>
      </trkpt>
      <trkpt lat="43.316261291504" lon="-7.5985383987427">
        <ele>461</ele>
        <time>2019-09-11T09:17:27+00:00</time>
      </trkpt>
      <trkpt lat="43.316253662109" lon="-7.5985498428345">
        <ele>461</ele>
        <time>2019-09-11T09:17:28+00:00</time>
      </trkpt>
      <trkpt lat="43.316249847412" lon="-7.5985584259033">
        <ele>461</ele>
        <time>2019-09-11T09:17:29+00:00</time>
      </trkpt>
      <trkpt lat="43.316249847412" lon="-7.5985698699951">
        <ele>461</ele>
        <time>2019-09-11T09:17:30+00:00</time>
      </trkpt>
      <trkpt lat="43.316246032715" lon="-7.5985918045044">
        <ele>461</ele>
        <time>2019-09-11T09:17:31+00:00</time>
      </trkpt>
      <trkpt lat="43.316246032715" lon="-7.5986151695251">
        <ele>461</ele>
        <time>2019-09-11T09:17:32+00:00</time>
      </trkpt>
      <trkpt lat="43.316242218018" lon="-7.5986399650574">
        <ele>461</ele>
        <time>2019-09-11T09:17:33+00:00</time>
      </trkpt>
      <trkpt lat="43.316234588623" lon="-7.5986552238464">
        <ele>461</ele>
        <time>2019-09-11T09:17:34+00:00</time>
      </trkpt>
      <trkpt lat="43.316219329834" lon="-7.5986633300781">
        <ele>460</ele>
        <time>2019-09-11T09:17:35+00:00</time>
      </trkpt>
      <trkpt lat="43.316211700439" lon="-7.5986800193787">
        <ele>461</ele>
        <time>2019-09-11T09:17:36+00:00</time>
      </trkpt>
      <trkpt lat="43.316211700439" lon="-7.598690032959">
        <ele>461</ele>
        <time>2019-09-11T09:17:37+00:00</time>
      </trkpt>
      <trkpt lat="43.31619644165" lon="-7.5986967086792">
        <ele>461</ele>
        <time>2019-09-11T09:17:38+00:00</time>
      </trkpt>
      <trkpt lat="43.316184997559" lon="-7.5987048149109">
        <ele>461</ele>
        <time>2019-09-11T09:17:39+00:00</time>
      </trkpt>
      <trkpt lat="43.316173553467" lon="-7.5987200737">
        <ele>461</ele>
        <time>2019-09-11T09:17:40+00:00</time>
      </trkpt>
      <trkpt lat="43.31616973877" lon="-7.5987367630005">
        <ele>461</ele>
        <time>2019-09-11T09:17:41+00:00</time>
      </trkpt>
      <trkpt lat="43.31616973877" lon="-7.5987567901611">
        <ele>460</ele>
        <time>2019-09-11T09:17:42+00:00</time>
      </trkpt>
      <trkpt lat="43.316165924072" lon="-7.5987768173218">
        <ele>460</ele>
        <time>2019-09-11T09:17:43+00:00</time>
      </trkpt>
      <trkpt lat="43.316165924072" lon="-7.5987868309021">
        <ele>460</ele>
        <time>2019-09-11T09:17:44+00:00</time>
      </trkpt>
      <trkpt lat="43.316165924072" lon="-7.5987968444824">
        <ele>460</ele>
        <time>2019-09-11T09:17:45+00:00</time>
      </trkpt>
      <trkpt lat="43.316165924072" lon="-7.5988035202026">
        <ele>460</ele>
        <time>2019-09-11T09:17:46+00:00</time>
      </trkpt>
      <trkpt lat="43.316158294678" lon="-7.5988149642944">
        <ele>460</ele>
        <time>2019-09-11T09:17:47+00:00</time>
      </trkpt>
      <trkpt lat="43.316158294678" lon="-7.5988268852234">
        <ele>460</ele>
        <time>2019-09-11T09:17:48+00:00</time>
      </trkpt>
      <trkpt lat="43.316162109375" lon="-7.5988368988037">
        <ele>460</ele>
        <time>2019-09-11T09:17:49+00:00</time>
      </trkpt>
      <trkpt lat="43.316173553467" lon="-7.5988516807556">
        <ele>460</ele>
        <time>2019-09-11T09:17:50+00:00</time>
      </trkpt>
      <trkpt lat="43.316181182861" lon="-7.5988616943359">
        <ele>460</ele>
        <time>2019-09-11T09:17:51+00:00</time>
      </trkpt>
      <trkpt lat="43.316177368164" lon="-7.5988750457764">
        <ele>460</ele>
        <time>2019-09-11T09:17:52+00:00</time>
      </trkpt>
      <trkpt lat="43.316177368164" lon="-7.5988864898682">
        <ele>460</ele>
        <time>2019-09-11T09:17:53+00:00</time>
      </trkpt>
      <trkpt lat="43.316173553467" lon="-7.5988984107971">
        <ele>460</ele>
        <time>2019-09-11T09:17:54+00:00</time>
      </trkpt>
      <trkpt lat="43.316177368164" lon="-7.598913192749">
        <ele>460</ele>
        <time>2019-09-11T09:17:55+00:00</time>
      </trkpt>
      <trkpt lat="43.316177368164" lon="-7.5989284515381">
        <ele>460</ele>
        <time>2019-09-11T09:17:56+00:00</time>
      </trkpt>
      <trkpt lat="43.316177368164" lon="-7.59894323349">
        <ele>460</ele>
        <time>2019-09-11T09:17:57+00:00</time>
      </trkpt>
      <trkpt lat="43.316177368164" lon="-7.5989599227905">
        <ele>459</ele>
        <time>2019-09-11T09:17:58+00:00</time>
      </trkpt>
      <trkpt lat="43.316184997559" lon="-7.5989785194397">
        <ele>459</ele>
        <time>2019-09-11T09:17:59+00:00</time>
      </trkpt>
      <trkpt lat="43.316177368164" lon="-7.5989918708801">
        <ele>459</ele>
        <time>2019-09-11T09:18:00+00:00</time>
      </trkpt>
      <trkpt lat="43.31616973877" lon="-7.5990085601807">
        <ele>459</ele>
        <time>2019-09-11T09:18:01+00:00</time>
      </trkpt>
      <trkpt lat="43.316165924072" lon="-7.5990233421326">
        <ele>459</ele>
        <time>2019-09-11T09:18:02+00:00</time>
      </trkpt>
      <trkpt lat="43.316165924072" lon="-7.5990281105042">
        <ele>459</ele>
        <time>2019-09-11T09:18:03+00:00</time>
      </trkpt>
      <trkpt lat="43.316165924072" lon="-7.5990347862244">
        <ele>459</ele>
        <time>2019-09-11T09:18:04+00:00</time>
      </trkpt>
      <trkpt lat="43.316158294678" lon="-7.5990467071533">
        <ele>459</ele>
        <time>2019-09-11T09:18:05+00:00</time>
      </trkpt>
      <trkpt lat="43.316165924072" lon="-7.5990700721741">
        <ele>459</ele>
        <time>2019-09-11T09:18:06+00:00</time>
      </trkpt>
      <trkpt lat="43.316165924072" lon="-7.5990815162659">
        <ele>459</ele>
        <time>2019-09-11T09:18:07+00:00</time>
      </trkpt>
      <trkpt lat="43.316173553467" lon="-7.5990948677063">
        <ele>459</ele>
        <time>2019-09-11T09:18:08+00:00</time>
      </trkpt>
      <trkpt lat="43.316165924072" lon="-7.5991134643555">
        <ele>458</ele>
        <time>2019-09-11T09:18:09+00:00</time>
      </trkpt>
      <trkpt lat="43.316146850586" lon="-7.5991401672363">
        <ele>458</ele>
        <time>2019-09-11T09:18:10+00:00</time>
      </trkpt>
      <trkpt lat="43.316146850586" lon="-7.5991549491882">
        <ele>458</ele>
        <time>2019-09-11T09:18:11+00:00</time>
      </trkpt>
      <trkpt lat="43.316146850586" lon="-7.5991816520691">
        <ele>458</ele>
        <time>2019-09-11T09:18:12+00:00</time>
      </trkpt>
      <trkpt lat="43.316146850586" lon="-7.59920835495">
        <ele>458</ele>
        <time>2019-09-11T09:18:13+00:00</time>
      </trkpt>
      <trkpt lat="43.316158294678" lon="-7.5992350578308">
        <ele>458</ele>
        <time>2019-09-11T09:18:14+00:00</time>
      </trkpt>
      <trkpt lat="43.316162109375" lon="-7.5992617607117">
        <ele>458</ele>
        <time>2019-09-11T09:18:15+00:00</time>
      </trkpt>
      <trkpt lat="43.316165924072" lon="-7.5992784500122">
        <ele>458</ele>
        <time>2019-09-11T09:18:16+00:00</time>
      </trkpt>
      <trkpt lat="43.316165924072" lon="-7.5992965698242">
        <ele>458</ele>
        <time>2019-09-11T09:18:17+00:00</time>
      </trkpt>
      <trkpt lat="43.316173553467" lon="-7.5993084907532">
        <ele>458</ele>
        <time>2019-09-11T09:18:18+00:00</time>
      </trkpt>
      <trkpt lat="43.316184997559" lon="-7.5993185043335">
        <ele>458</ele>
        <time>2019-09-11T09:18:19+00:00</time>
      </trkpt>
      <trkpt lat="43.316188812256" lon="-7.5993318557739">
        <ele>458</ele>
        <time>2019-09-11T09:18:20+00:00</time>
      </trkpt>
      <trkpt lat="43.316188812256" lon="-7.5993485450745">
        <ele>458</ele>
        <time>2019-09-11T09:18:21+00:00</time>
      </trkpt>
      <trkpt lat="43.31619644165" lon="-7.5993618965149">
        <ele>459</ele>
        <time>2019-09-11T09:18:22+00:00</time>
      </trkpt>
      <trkpt lat="43.31619644165" lon="-7.5993781089783">
        <ele>459</ele>
        <time>2019-09-11T09:18:23+00:00</time>
      </trkpt>
      <trkpt lat="43.316177368164" lon="-7.5993900299072">
        <ele>459</ele>
        <time>2019-09-11T09:18:24+00:00</time>
      </trkpt>
      <trkpt lat="43.31616973877" lon="-7.5994033813477">
        <ele>459</ele>
        <time>2019-09-11T09:18:25+00:00</time>
      </trkpt>
      <trkpt lat="43.316162109375" lon="-7.599413394928">
        <ele>459</ele>
        <time>2019-09-11T09:18:26+00:00</time>
      </trkpt>
      <trkpt lat="43.316150665283" lon="-7.5994267463684">
        <ele>459</ele>
        <time>2019-09-11T09:18:27+00:00</time>
      </trkpt>
      <trkpt lat="43.316139221191" lon="-7.5994448661804">
        <ele>459</ele>
        <time>2019-09-11T09:18:28+00:00</time>
      </trkpt>
      <trkpt lat="43.3161277771" lon="-7.599461555481">
        <ele>459</ele>
        <time>2019-09-11T09:18:29+00:00</time>
      </trkpt>
      <trkpt lat="43.3161277771" lon="-7.5994682312012">
        <ele>459</ele>
        <time>2019-09-11T09:18:30+00:00</time>
      </trkpt>
      <trkpt lat="43.3161277771" lon="-7.5994882583618">
        <ele>459</ele>
        <time>2019-09-11T09:18:31+00:00</time>
      </trkpt>
      <trkpt lat="43.316120147705" lon="-7.5994968414307">
        <ele>459</ele>
        <time>2019-09-11T09:18:32+00:00</time>
      </trkpt>
      <trkpt lat="43.316120147705" lon="-7.5995001792908">
        <ele>459</ele>
        <time>2019-09-11T09:18:33+00:00</time>
      </trkpt>
      <trkpt lat="43.316112518311" lon="-7.5995116233826">
        <ele>459</ele>
        <time>2019-09-11T09:18:34+00:00</time>
      </trkpt>
      <trkpt lat="43.316108703613" lon="-7.5995268821716">
        <ele>459</ele>
        <time>2019-09-11T09:18:35+00:00</time>
      </trkpt>
      <trkpt lat="43.316101074219" lon="-7.5995435714722">
        <ele>459</ele>
        <time>2019-09-11T09:18:36+00:00</time>
      </trkpt>
      <trkpt lat="43.316089630127" lon="-7.5995597839355">
        <ele>459</ele>
        <time>2019-09-11T09:18:37+00:00</time>
      </trkpt>
      <trkpt lat="43.316089630127" lon="-7.5995750427246">
        <ele>459</ele>
        <time>2019-09-11T09:18:38+00:00</time>
      </trkpt>
      <trkpt lat="43.316093444824" lon="-7.5995898246765">
        <ele>459</ele>
        <time>2019-09-11T09:18:39+00:00</time>
      </trkpt>
      <trkpt lat="43.31608581543" lon="-7.5996031761169">
        <ele>459</ele>
        <time>2019-09-11T09:18:40+00:00</time>
      </trkpt>
      <trkpt lat="43.31608581543" lon="-7.599618434906">
        <ele>459</ele>
        <time>2019-09-11T09:18:41+00:00</time>
      </trkpt>
      <trkpt lat="43.316089630127" lon="-7.5996351242065">
        <ele>459</ele>
        <time>2019-09-11T09:18:42+00:00</time>
      </trkpt>
      <trkpt lat="43.316093444824" lon="-7.5996565818787">
        <ele>459</ele>
        <time>2019-09-11T09:18:43+00:00</time>
      </trkpt>
      <trkpt lat="43.316093444824" lon="-7.5996685028076">
        <ele>459</ele>
        <time>2019-09-11T09:18:44+00:00</time>
      </trkpt>
      <trkpt lat="43.316093444824" lon="-7.5996832847595">
        <ele>459</ele>
        <time>2019-09-11T09:18:45+00:00</time>
      </trkpt>
      <trkpt lat="43.316093444824" lon="-7.5996999740601">
        <ele>459</ele>
        <time>2019-09-11T09:18:46+00:00</time>
      </trkpt>
      <trkpt lat="43.316093444824" lon="-7.5997133255005">
        <ele>459</ele>
        <time>2019-09-11T09:18:47+00:00</time>
      </trkpt>
      <trkpt lat="43.316097259521" lon="-7.5997266769409">
        <ele>459</ele>
        <time>2019-09-11T09:18:48+00:00</time>
      </trkpt>
      <trkpt lat="43.316104888916" lon="-7.5997467041016">
        <ele>459</ele>
        <time>2019-09-11T09:18:49+00:00</time>
      </trkpt>
      <trkpt lat="43.316108703613" lon="-7.5997667312622">
        <ele>459</ele>
        <time>2019-09-11T09:18:50+00:00</time>
      </trkpt>
      <trkpt lat="43.316104888916" lon="-7.5997834205627">
        <ele>459</ele>
        <time>2019-09-11T09:18:51+00:00</time>
      </trkpt>
      <trkpt lat="43.316116333008" lon="-7.599790096283">
        <ele>459</ele>
        <time>2019-09-11T09:18:52+00:00</time>
      </trkpt>
      <trkpt lat="43.316120147705" lon="-7.5998034477234">
        <ele>459</ele>
        <time>2019-09-11T09:18:53+00:00</time>
      </trkpt>
      <trkpt lat="43.316123962402" lon="-7.5998182296753">
        <ele>459</ele>
        <time>2019-09-11T09:18:54+00:00</time>
      </trkpt>
      <trkpt lat="43.316123962402" lon="-7.5998301506042">
        <ele>459</ele>
        <time>2019-09-11T09:18:55+00:00</time>
      </trkpt>
      <trkpt lat="43.316123962402" lon="-7.5998401641846">
        <ele>459</ele>
        <time>2019-09-11T09:18:56+00:00</time>
      </trkpt>
      <trkpt lat="43.316120147705" lon="-7.5998549461365">
        <ele>458</ele>
        <time>2019-09-11T09:18:57+00:00</time>
      </trkpt>
      <trkpt lat="43.316112518311" lon="-7.5998735427856">
        <ele>459</ele>
        <time>2019-09-11T09:18:58+00:00</time>
      </trkpt>
      <trkpt lat="43.316116333008" lon="-7.5998916625977">
        <ele>459</ele>
        <time>2019-09-11T09:18:59+00:00</time>
      </trkpt>
      <trkpt lat="43.316108703613" lon="-7.5999064445496">
        <ele>459</ele>
        <time>2019-09-11T09:19:00+00:00</time>
      </trkpt>
      <trkpt lat="43.316101074219" lon="-7.59991979599">
        <ele>459</ele>
        <time>2019-09-11T09:19:01+00:00</time>
      </trkpt>
      <trkpt lat="43.316097259521" lon="-7.5999383926392">
        <ele>459</ele>
        <time>2019-09-11T09:19:02+00:00</time>
      </trkpt>
      <trkpt lat="43.316093444824" lon="-7.5999584197998">
        <ele>459</ele>
        <time>2019-09-11T09:19:03+00:00</time>
      </trkpt>
      <trkpt lat="43.316093444824" lon="-7.5999751091003">
        <ele>459</ele>
        <time>2019-09-11T09:19:04+00:00</time>
      </trkpt>
      <trkpt lat="43.31608581543" lon="-7.5999898910522">
        <ele>459</ele>
        <time>2019-09-11T09:19:05+00:00</time>
      </trkpt>
      <trkpt lat="43.31608581543" lon="-7.6000051498413">
        <ele>459</ele>
        <time>2019-09-11T09:19:06+00:00</time>
      </trkpt>
      <trkpt lat="43.316093444824" lon="-7.6000199317932">
        <ele>460</ele>
        <time>2019-09-11T09:19:07+00:00</time>
      </trkpt>
      <trkpt lat="43.316093444824" lon="-7.6000351905823">
        <ele>460</ele>
        <time>2019-09-11T09:19:08+00:00</time>
      </trkpt>
      <trkpt lat="43.316093444824" lon="-7.6000552177429">
        <ele>460</ele>
        <time>2019-09-11T09:19:09+00:00</time>
      </trkpt>
      <trkpt lat="43.316089630127" lon="-7.6000747680664">
        <ele>460</ele>
        <time>2019-09-11T09:19:10+00:00</time>
      </trkpt>
      <trkpt lat="43.316078186035" lon="-7.6000947952271">
        <ele>461</ele>
        <time>2019-09-11T09:19:11+00:00</time>
      </trkpt>
      <trkpt lat="43.316070556641" lon="-7.6001148223877">
        <ele>462</ele>
        <time>2019-09-11T09:19:12+00:00</time>
      </trkpt>
      <trkpt lat="43.316066741943" lon="-7.6001348495483">
        <ele>462</ele>
        <time>2019-09-11T09:19:13+00:00</time>
      </trkpt>
      <trkpt lat="43.316066741943" lon="-7.6001534461975">
        <ele>463</ele>
        <time>2019-09-11T09:19:14+00:00</time>
      </trkpt>
      <trkpt lat="43.316078186035" lon="-7.6001768112183">
        <ele>463</ele>
        <time>2019-09-11T09:19:15+00:00</time>
      </trkpt>
      <trkpt lat="43.316082000732" lon="-7.6001935005188">
        <ele>464</ele>
        <time>2019-09-11T09:19:16+00:00</time>
      </trkpt>
      <trkpt lat="43.31608581543" lon="-7.6002101898193">
        <ele>464</ele>
        <time>2019-09-11T09:19:17+00:00</time>
      </trkpt>
      <trkpt lat="43.316082000732" lon="-7.6002235412598">
        <ele>464</ele>
        <time>2019-09-11T09:19:18+00:00</time>
      </trkpt>
      <trkpt lat="43.316078186035" lon="-7.6002368927002">
        <ele>464</ele>
        <time>2019-09-11T09:19:19+00:00</time>
      </trkpt>
      <trkpt lat="43.316074371338" lon="-7.6002464294434">
        <ele>464</ele>
        <time>2019-09-11T09:19:20+00:00</time>
      </trkpt>
      <trkpt lat="43.316074371338" lon="-7.6002597808838">
        <ele>464</ele>
        <time>2019-09-11T09:19:21+00:00</time>
      </trkpt>
      <trkpt lat="43.316078186035" lon="-7.6002798080444">
        <ele>465</ele>
        <time>2019-09-11T09:19:22+00:00</time>
      </trkpt>
      <trkpt lat="43.316082000732" lon="-7.6002950668335">
        <ele>465</ele>
        <time>2019-09-11T09:19:23+00:00</time>
      </trkpt>
      <trkpt lat="43.316078186035" lon="-7.600311756134">
        <ele>464</ele>
        <time>2019-09-11T09:19:24+00:00</time>
      </trkpt>
      <trkpt lat="43.316082000732" lon="-7.6003265380859">
        <ele>464</ele>
        <time>2019-09-11T09:19:25+00:00</time>
      </trkpt>
      <trkpt lat="43.316078186035" lon="-7.600341796875">
        <ele>464</ele>
        <time>2019-09-11T09:19:26+00:00</time>
      </trkpt>
      <trkpt lat="43.316078186035" lon="-7.6003532409668">
        <ele>464</ele>
        <time>2019-09-11T09:19:27+00:00</time>
      </trkpt>
      <trkpt lat="43.316074371338" lon="-7.6003665924072">
        <ele>464</ele>
        <time>2019-09-11T09:19:28+00:00</time>
      </trkpt>
      <trkpt lat="43.316074371338" lon="-7.6003785133362">
        <ele>464</ele>
        <time>2019-09-11T09:19:29+00:00</time>
      </trkpt>
      <trkpt lat="43.316078186035" lon="-7.6003952026367">
        <ele>464</ele>
        <time>2019-09-11T09:19:30+00:00</time>
      </trkpt>
      <trkpt lat="43.316078186035" lon="-7.6004099845886">
        <ele>464</ele>
        <time>2019-09-11T09:19:31+00:00</time>
      </trkpt>
      <trkpt lat="43.316078186035" lon="-7.6004266738892">
        <ele>464</ele>
        <time>2019-09-11T09:19:32+00:00</time>
      </trkpt>
      <trkpt lat="43.316078186035" lon="-7.6004414558411">
        <ele>464</ele>
        <time>2019-09-11T09:19:33+00:00</time>
      </trkpt>
      <trkpt lat="43.316078186035" lon="-7.6004567146301">
        <ele>464</ele>
        <time>2019-09-11T09:19:34+00:00</time>
      </trkpt>
      <trkpt lat="43.316078186035" lon="-7.600471496582">
        <ele>465</ele>
        <time>2019-09-11T09:19:35+00:00</time>
      </trkpt>
      <trkpt lat="43.316074371338" lon="-7.6004867553711">
        <ele>465</ele>
        <time>2019-09-11T09:19:36+00:00</time>
      </trkpt>
      <trkpt lat="43.316074371338" lon="-7.6005034446716">
        <ele>465</ele>
        <time>2019-09-11T09:19:37+00:00</time>
      </trkpt>
      <trkpt lat="43.316051483154" lon="-7.6005182266235">
        <ele>465</ele>
        <time>2019-09-11T09:19:38+00:00</time>
      </trkpt>
      <trkpt lat="43.316032409668" lon="-7.6005301475525">
        <ele>466</ele>
        <time>2019-09-11T09:19:39+00:00</time>
      </trkpt>
      <trkpt lat="43.316013336182" lon="-7.6005349159241">
        <ele>466</ele>
        <time>2019-09-11T09:19:40+00:00</time>
      </trkpt>
      <trkpt lat="43.316013336182" lon="-7.600546836853">
        <ele>466</ele>
        <time>2019-09-11T09:19:41+00:00</time>
      </trkpt>
      <trkpt lat="43.316009521484" lon="-7.600546836853">
        <ele>467</ele>
        <time>2019-09-11T09:19:42+00:00</time>
      </trkpt>
      <trkpt lat="43.316009521484" lon="-7.600546836853">
        <ele>467</ele>
        <time>2019-09-11T09:19:43+00:00</time>
      </trkpt>
      <trkpt lat="43.316013336182" lon="-7.600546836853">
        <ele>467</ele>
        <time>2019-09-11T09:19:44+00:00</time>
      </trkpt>
      <trkpt lat="43.316013336182" lon="-7.6005501747131">
        <ele>467</ele>
        <time>2019-09-11T09:19:45+00:00</time>
      </trkpt>
      <trkpt lat="43.316017150879" lon="-7.6005535125732">
        <ele>467</ele>
        <time>2019-09-11T09:19:46+00:00</time>
      </trkpt>
      <trkpt lat="43.316017150879" lon="-7.6005582809448">
        <ele>467</ele>
        <time>2019-09-11T09:19:47+00:00</time>
      </trkpt>
      <trkpt lat="43.316028594971" lon="-7.6005702018738">
        <ele>467</ele>
        <time>2019-09-11T09:19:48+00:00</time>
      </trkpt>
      <trkpt lat="43.316032409668" lon="-7.6005816459656">
        <ele>467</ele>
        <time>2019-09-11T09:19:49+00:00</time>
      </trkpt>
      <trkpt lat="43.316024780273" lon="-7.6005849838257">
        <ele>467</ele>
        <time>2019-09-11T09:19:50+00:00</time>
      </trkpt>
      <trkpt lat="43.316024780273" lon="-7.6005868911743">
        <ele>467</ele>
        <time>2019-09-11T09:19:51+00:00</time>
      </trkpt>
      <trkpt lat="43.316024780273" lon="-7.6005916595459">
        <ele>467</ele>
        <time>2019-09-11T09:19:52+00:00</time>
      </trkpt>
      <trkpt lat="43.316024780273" lon="-7.600594997406">
        <ele>467</ele>
        <time>2019-09-11T09:19:53+00:00</time>
      </trkpt>
      <trkpt lat="43.316024780273" lon="-7.6006016731262">
        <ele>467</ele>
        <time>2019-09-11T09:19:54+00:00</time>
      </trkpt>
      <trkpt lat="43.316017150879" lon="-7.6006083488464">
        <ele>467</ele>
        <time>2019-09-11T09:19:55+00:00</time>
      </trkpt>
      <trkpt lat="43.316017150879" lon="-7.600613117218">
        <ele>467</ele>
        <time>2019-09-11T09:19:56+00:00</time>
      </trkpt>
      <trkpt lat="43.316017150879" lon="-7.600625038147">
        <ele>467</ele>
        <time>2019-09-11T09:19:57+00:00</time>
      </trkpt>
      <trkpt lat="43.316013336182" lon="-7.6006317138672">
        <ele>467</ele>
        <time>2019-09-11T09:19:58+00:00</time>
      </trkpt>
      <trkpt lat="43.316013336182" lon="-7.6006364822388">
        <ele>467</ele>
        <time>2019-09-11T09:19:59+00:00</time>
      </trkpt>
      <trkpt lat="43.316009521484" lon="-7.6006450653076">
        <ele>467</ele>
        <time>2019-09-11T09:20:00+00:00</time>
      </trkpt>
      <trkpt lat="43.316009521484" lon="-7.6006550788879">
        <ele>467</ele>
        <time>2019-09-11T09:20:01+00:00</time>
      </trkpt>
      <trkpt lat="43.316009521484" lon="-7.6006684303284">
        <ele>467</ele>
        <time>2019-09-11T09:20:02+00:00</time>
      </trkpt>
      <trkpt lat="43.31600189209" lon="-7.6006832122803">
        <ele>467</ele>
        <time>2019-09-11T09:20:03+00:00</time>
      </trkpt>
      <trkpt lat="43.315986633301" lon="-7.6006865501404">
        <ele>467</ele>
        <time>2019-09-11T09:20:04+00:00</time>
      </trkpt>
      <trkpt lat="43.315982818604" lon="-7.6006917953491">
        <ele>467</ele>
        <time>2019-09-11T09:20:05+00:00</time>
      </trkpt>
      <trkpt lat="43.315967559814" lon="-7.6006951332092">
        <ele>467</ele>
        <time>2019-09-11T09:20:06+00:00</time>
      </trkpt>
      <trkpt lat="43.315975189209" lon="-7.6007099151611">
        <ele>467</ele>
        <time>2019-09-11T09:20:07+00:00</time>
      </trkpt>
      <trkpt lat="43.315979003906" lon="-7.6007151603699">
        <ele>467</ele>
        <time>2019-09-11T09:20:08+00:00</time>
      </trkpt>
      <trkpt lat="43.315982818604" lon="-7.6007199287415">
        <ele>467</ele>
        <time>2019-09-11T09:20:09+00:00</time>
      </trkpt>
      <trkpt lat="43.315979003906" lon="-7.6007299423218">
        <ele>467</ele>
        <time>2019-09-11T09:20:10+00:00</time>
      </trkpt>
      <trkpt lat="43.315986633301" lon="-7.6007418632507">
        <ele>467</ele>
        <time>2019-09-11T09:20:11+00:00</time>
      </trkpt>
      <trkpt lat="43.315990447998" lon="-7.6007552146912">
        <ele>468</ele>
        <time>2019-09-11T09:20:12+00:00</time>
      </trkpt>
      <trkpt lat="43.315998077393" lon="-7.6007633209229">
        <ele>468</ele>
        <time>2019-09-11T09:20:13+00:00</time>
      </trkpt>
      <trkpt lat="43.315998077393" lon="-7.6007719039917">
        <ele>468</ele>
        <time>2019-09-11T09:20:14+00:00</time>
      </trkpt>
      <trkpt lat="43.315994262695" lon="-7.6007747650146">
        <ele>468</ele>
        <time>2019-09-11T09:20:15+00:00</time>
      </trkpt>
      <trkpt lat="43.315994262695" lon="-7.6007781028748">
        <ele>468</ele>
        <time>2019-09-11T09:20:16+00:00</time>
      </trkpt>
      <trkpt lat="43.315998077393" lon="-7.6007800102234">
        <ele>468</ele>
        <time>2019-09-11T09:20:17+00:00</time>
      </trkpt>
      <trkpt lat="43.31600189209" lon="-7.6007881164551">
        <ele>468</ele>
        <time>2019-09-11T09:20:18+00:00</time>
      </trkpt>
      <trkpt lat="43.31600189209" lon="-7.6007900238037">
        <ele>468</ele>
        <time>2019-09-11T09:20:19+00:00</time>
      </trkpt>
      <trkpt lat="43.315998077393" lon="-7.6007947921753">
        <ele>468</ele>
        <time>2019-09-11T09:20:20+00:00</time>
      </trkpt>
      <trkpt lat="43.315994262695" lon="-7.6007947921753">
        <ele>469</ele>
        <time>2019-09-11T09:20:21+00:00</time>
      </trkpt>
      <trkpt lat="43.315994262695" lon="-7.6007947921753">
        <ele>469</ele>
        <time>2019-09-11T09:20:22+00:00</time>
      </trkpt>
      <trkpt lat="43.315994262695" lon="-7.6007947921753">
        <ele>469</ele>
        <time>2019-09-11T09:20:23+00:00</time>
      </trkpt>
      <trkpt lat="43.315994262695" lon="-7.6007947921753">
        <ele>469</ele>
        <time>2019-09-11T09:20:24+00:00</time>
      </trkpt>
      <trkpt lat="43.315994262695" lon="-7.6007947921753">
        <ele>469</ele>
        <time>2019-09-11T09:20:25+00:00</time>
      </trkpt>
      <trkpt lat="43.315994262695" lon="-7.6007947921753">
        <ele>469</ele>
        <time>2019-09-11T09:20:26+00:00</time>
      </trkpt>
      <trkpt lat="43.315994262695" lon="-7.6007947921753">
        <ele>469</ele>
        <time>2019-09-11T09:20:27+00:00</time>
      </trkpt>
      <trkpt lat="43.315994262695" lon="-7.6007947921753">
        <ele>469</ele>
        <time>2019-09-11T09:20:28+00:00</time>
      </trkpt>
      <trkpt lat="43.315994262695" lon="-7.6007947921753">
        <ele>469</ele>
        <time>2019-09-11T09:20:29+00:00</time>
      </trkpt>
      <trkpt lat="43.315994262695" lon="-7.6007947921753">
        <ele>469</ele>
        <time>2019-09-11T09:20:30+00:00</time>
      </trkpt>
      <trkpt lat="43.315994262695" lon="-7.6007947921753">
        <ele>469</ele>
        <time>2019-09-11T09:20:31+00:00</time>
      </trkpt>
      <trkpt lat="43.315994262695" lon="-7.6007947921753">
        <ele>469</ele>
        <time>2019-09-11T09:20:32+00:00</time>
      </trkpt>
      <trkpt lat="43.315994262695" lon="-7.6007947921753">
        <ele>469</ele>
        <time>2019-09-11T09:20:33+00:00</time>
      </trkpt>
      <trkpt lat="43.315994262695" lon="-7.6007947921753">
        <ele>469</ele>
        <time>2019-09-11T09:20:34+00:00</time>
      </trkpt>
      <trkpt lat="43.315994262695" lon="-7.6007947921753">
        <ele>469</ele>
        <time>2019-09-11T09:20:35+00:00</time>
      </trkpt>
      <trkpt lat="43.315994262695" lon="-7.6007947921753">
        <ele>469</ele>
        <time>2019-09-11T09:20:36+00:00</time>
      </trkpt>
      <trkpt lat="43.315994262695" lon="-7.6007947921753">
        <ele>469</ele>
        <time>2019-09-11T09:20:37+00:00</time>
      </trkpt>
      <trkpt lat="43.315994262695" lon="-7.6007947921753">
        <ele>469</ele>
        <time>2019-09-11T09:20:38+00:00</time>
      </trkpt>
      <trkpt lat="43.315994262695" lon="-7.6007947921753">
        <ele>469</ele>
        <time>2019-09-11T09:20:39+00:00</time>
      </trkpt>
      <trkpt lat="43.315994262695" lon="-7.6007947921753">
        <ele>469</ele>
        <time>2019-09-11T09:20:40+00:00</time>
      </trkpt>
      <trkpt lat="43.315994262695" lon="-7.6007947921753">
        <ele>469</ele>
        <time>2019-09-11T09:20:41+00:00</time>
      </trkpt>
      <trkpt lat="43.315994262695" lon="-7.6007947921753">
        <ele>469</ele>
        <time>2019-09-11T09:20:42+00:00</time>
      </trkpt>
      <trkpt lat="43.315994262695" lon="-7.6007947921753">
        <ele>469</ele>
        <time>2019-09-11T09:20:43+00:00</time>
      </trkpt>
      <trkpt lat="43.315994262695" lon="-7.6007947921753">
        <ele>469</ele>
        <time>2019-09-11T09:20:44+00:00</time>
      </trkpt>
      <trkpt lat="43.315994262695" lon="-7.6007947921753">
        <ele>469</ele>
        <time>2019-09-11T09:20:45+00:00</time>
      </trkpt>
      <trkpt lat="43.315994262695" lon="-7.6007947921753">
        <ele>469</ele>
        <time>2019-09-11T09:20:46+00:00</time>
      </trkpt>
      <trkpt lat="43.315994262695" lon="-7.6007947921753">
        <ele>469</ele>
        <time>2019-09-11T09:20:47+00:00</time>
      </trkpt>
      <trkpt lat="43.315994262695" lon="-7.6007947921753">
        <ele>469</ele>
        <time>2019-09-11T09:20:48+00:00</time>
      </trkpt>
      <trkpt lat="43.31600189209" lon="-7.6008148193359">
        <ele>470</ele>
        <time>2019-09-11T09:20:49+00:00</time>
      </trkpt>
      <trkpt lat="43.31600189209" lon="-7.6008148193359">
        <ele>470</ele>
        <time>2019-09-11T09:20:50+00:00</time>
      </trkpt>
      <trkpt lat="43.315998077393" lon="-7.6008167266846">
        <ele>470</ele>
        <time>2019-09-11T09:20:51+00:00</time>
      </trkpt>
      <trkpt lat="43.315998077393" lon="-7.600818157196">
        <ele>470</ele>
        <time>2019-09-11T09:20:52+00:00</time>
      </trkpt>
      <trkpt lat="43.315998077393" lon="-7.600818157196">
        <ele>470</ele>
        <time>2019-09-11T09:20:53+00:00</time>
      </trkpt>
      <trkpt lat="43.315998077393" lon="-7.600818157196">
        <ele>470</ele>
        <time>2019-09-11T09:20:54+00:00</time>
      </trkpt>
      <trkpt lat="43.315998077393" lon="-7.600818157196">
        <ele>470</ele>
        <time>2019-09-11T09:20:55+00:00</time>
      </trkpt>
      <trkpt lat="43.315998077393" lon="-7.600818157196">
        <ele>470</ele>
        <time>2019-09-11T09:20:56+00:00</time>
      </trkpt>
      <trkpt lat="43.315998077393" lon="-7.600818157196">
        <ele>470</ele>
        <time>2019-09-11T09:20:57+00:00</time>
      </trkpt>
      <trkpt lat="43.315998077393" lon="-7.600818157196">
        <ele>470</ele>
        <time>2019-09-11T09:20:58+00:00</time>
      </trkpt>
      <trkpt lat="43.315998077393" lon="-7.600818157196">
        <ele>470</ele>
        <time>2019-09-11T09:20:59+00:00</time>
      </trkpt>
      <trkpt lat="43.315998077393" lon="-7.600818157196">
        <ele>470</ele>
        <time>2019-09-11T09:21:00+00:00</time>
      </trkpt>
      <trkpt lat="43.315998077393" lon="-7.600818157196">
        <ele>470</ele>
        <time>2019-09-11T09:21:01+00:00</time>
      </trkpt>
      <trkpt lat="43.315998077393" lon="-7.600818157196">
        <ele>470</ele>
        <time>2019-09-11T09:21:02+00:00</time>
      </trkpt>
      <trkpt lat="43.315998077393" lon="-7.600818157196">
        <ele>470</ele>
        <time>2019-09-11T09:21:03+00:00</time>
      </trkpt>
      <trkpt lat="43.315998077393" lon="-7.600818157196">
        <ele>470</ele>
        <time>2019-09-11T09:21:04+00:00</time>
      </trkpt>
      <trkpt lat="43.315998077393" lon="-7.600818157196">
        <ele>470</ele>
        <time>2019-09-11T09:21:05+00:00</time>
      </trkpt>
      <trkpt lat="43.315998077393" lon="-7.600818157196">
        <ele>470</ele>
        <time>2019-09-11T09:21:06+00:00</time>
      </trkpt>
      <trkpt lat="43.315998077393" lon="-7.600818157196">
        <ele>470</ele>
        <time>2019-09-11T09:21:07+00:00</time>
      </trkpt>
      <trkpt lat="43.315998077393" lon="-7.600818157196">
        <ele>470</ele>
        <time>2019-09-11T09:21:08+00:00</time>
      </trkpt>
      <trkpt lat="43.315998077393" lon="-7.600818157196">
        <ele>470</ele>
        <time>2019-09-11T09:21:09+00:00</time>
      </trkpt>
      <trkpt lat="43.315998077393" lon="-7.600818157196">
        <ele>470</ele>
        <time>2019-09-11T09:21:10+00:00</time>
      </trkpt>
      <trkpt lat="43.315998077393" lon="-7.600818157196">
        <ele>470</ele>
        <time>2019-09-11T09:21:11+00:00</time>
      </trkpt>
      <trkpt lat="43.315998077393" lon="-7.600818157196">
        <ele>470</ele>
        <time>2019-09-11T09:21:12+00:00</time>
      </trkpt>
      <trkpt lat="43.315998077393" lon="-7.600818157196">
        <ele>470</ele>
        <time>2019-09-11T09:21:13+00:00</time>
      </trkpt>
      <trkpt lat="43.315998077393" lon="-7.600818157196">
        <ele>470</ele>
        <time>2019-09-11T09:21:14+00:00</time>
      </trkpt>
      <trkpt lat="43.315998077393" lon="-7.600818157196">
        <ele>470</ele>
        <time>2019-09-11T09:21:15+00:00</time>
      </trkpt>
      <trkpt lat="43.315975189209" lon="-7.6008434295654">
        <ele>470</ele>
        <time>2019-09-11T09:21:16+00:00</time>
      </trkpt>
      <trkpt lat="43.315979003906" lon="-7.6008515357971">
        <ele>470</ele>
        <time>2019-09-11T09:21:17+00:00</time>
      </trkpt>
      <trkpt lat="43.315982818604" lon="-7.6008582115173">
        <ele>470</ele>
        <time>2019-09-11T09:21:18+00:00</time>
      </trkpt>
      <trkpt lat="43.315986633301" lon="-7.6008667945862">
        <ele>470</ele>
        <time>2019-09-11T09:21:19+00:00</time>
      </trkpt>
      <trkpt lat="43.315994262695" lon="-7.6008734703064">
        <ele>470</ele>
        <time>2019-09-11T09:21:20+00:00</time>
      </trkpt>
      <trkpt lat="43.315998077393" lon="-7.6008801460266">
        <ele>470</ele>
        <time>2019-09-11T09:21:21+00:00</time>
      </trkpt>
      <trkpt lat="43.31600189209" lon="-7.6008901596069">
        <ele>470</ele>
        <time>2019-09-11T09:21:22+00:00</time>
      </trkpt>
      <trkpt lat="43.316005706787" lon="-7.6009016036987">
        <ele>470</ele>
        <time>2019-09-11T09:21:23+00:00</time>
      </trkpt>
      <trkpt lat="43.316009521484" lon="-7.6009135246277">
        <ele>470</ele>
        <time>2019-09-11T09:21:24+00:00</time>
      </trkpt>
      <trkpt lat="43.316013336182" lon="-7.6009249687195">
        <ele>470</ele>
        <time>2019-09-11T09:21:25+00:00</time>
      </trkpt>
      <trkpt lat="43.316017150879" lon="-7.6009349822998">
        <ele>470</ele>
        <time>2019-09-11T09:21:26+00:00</time>
      </trkpt>
      <trkpt lat="43.31600189209" lon="-7.6009402275085">
        <ele>470</ele>
        <time>2019-09-11T09:21:27+00:00</time>
      </trkpt>
      <trkpt lat="43.315998077393" lon="-7.6009435653687">
        <ele>470</ele>
        <time>2019-09-11T09:21:28+00:00</time>
      </trkpt>
      <trkpt lat="43.31600189209" lon="-7.6009516716003">
        <ele>470</ele>
        <time>2019-09-11T09:21:29+00:00</time>
      </trkpt>
      <trkpt lat="43.315994262695" lon="-7.6009583473206">
        <ele>470</ele>
        <time>2019-09-11T09:21:30+00:00</time>
      </trkpt>
      <trkpt lat="43.315994262695" lon="-7.6009650230408">
        <ele>470</ele>
        <time>2019-09-11T09:21:31+00:00</time>
      </trkpt>
      <trkpt lat="43.315994262695" lon="-7.6009764671326">
        <ele>470</ele>
        <time>2019-09-11T09:21:32+00:00</time>
      </trkpt>
      <trkpt lat="43.315994262695" lon="-7.6009864807129">
        <ele>470</ele>
        <time>2019-09-11T09:21:33+00:00</time>
      </trkpt>
      <trkpt lat="43.315990447998" lon="-7.6009964942932">
        <ele>470</ele>
        <time>2019-09-11T09:21:34+00:00</time>
      </trkpt>
      <trkpt lat="43.315990447998" lon="-7.6010050773621">
        <ele>470</ele>
        <time>2019-09-11T09:21:35+00:00</time>
      </trkpt>
      <trkpt lat="43.315990447998" lon="-7.6010117530823">
        <ele>470</ele>
        <time>2019-09-11T09:21:36+00:00</time>
      </trkpt>
      <trkpt lat="43.315994262695" lon="-7.6010217666626">
        <ele>470</ele>
        <time>2019-09-11T09:21:37+00:00</time>
      </trkpt>
      <trkpt lat="43.315986633301" lon="-7.6010251045227">
        <ele>470</ele>
        <time>2019-09-11T09:21:38+00:00</time>
      </trkpt>
      <trkpt lat="43.315982818604" lon="-7.601035118103">
        <ele>470</ele>
        <time>2019-09-11T09:21:39+00:00</time>
      </trkpt>
      <trkpt lat="43.315979003906" lon="-7.6010465621948">
        <ele>469</ele>
        <time>2019-09-11T09:21:40+00:00</time>
      </trkpt>
      <trkpt lat="43.315975189209" lon="-7.6010551452637">
        <ele>469</ele>
        <time>2019-09-11T09:21:41+00:00</time>
      </trkpt>
      <trkpt lat="43.315971374512" lon="-7.6010632514954">
        <ele>469</ele>
        <time>2019-09-11T09:21:42+00:00</time>
      </trkpt>
      <trkpt lat="43.315967559814" lon="-7.6010718345642">
        <ele>469</ele>
        <time>2019-09-11T09:21:43+00:00</time>
      </trkpt>
      <trkpt lat="43.31595993042" lon="-7.6010818481445">
        <ele>469</ele>
        <time>2019-09-11T09:21:44+00:00</time>
      </trkpt>
      <trkpt lat="43.315952301025" lon="-7.6010899543762">
        <ele>469</ele>
        <time>2019-09-11T09:21:45+00:00</time>
      </trkpt>
      <trkpt lat="43.315948486328" lon="-7.6011052131653">
        <ele>469</ele>
        <time>2019-09-11T09:21:46+00:00</time>
      </trkpt>
      <trkpt lat="43.315944671631" lon="-7.6011166572571">
        <ele>469</ele>
        <time>2019-09-11T09:21:47+00:00</time>
      </trkpt>
      <trkpt lat="43.315937042236" lon="-7.6011266708374">
        <ele>469</ele>
        <time>2019-09-11T09:21:48+00:00</time>
      </trkpt>
      <trkpt lat="43.315933227539" lon="-7.6011400222778">
        <ele>469</ele>
        <time>2019-09-11T09:21:49+00:00</time>
      </trkpt>
      <trkpt lat="43.315929412842" lon="-7.6011500358582">
        <ele>469</ele>
        <time>2019-09-11T09:21:50+00:00</time>
      </trkpt>
      <trkpt lat="43.315921783447" lon="-7.6011600494385">
        <ele>469</ele>
        <time>2019-09-11T09:21:51+00:00</time>
      </trkpt>
      <trkpt lat="43.31591796875" lon="-7.6011714935303">
        <ele>469</ele>
        <time>2019-09-11T09:21:52+00:00</time>
      </trkpt>
      <trkpt lat="43.315914154053" lon="-7.6011815071106">
        <ele>469</ele>
        <time>2019-09-11T09:21:53+00:00</time>
      </trkpt>
      <trkpt lat="43.315906524658" lon="-7.6011915206909">
        <ele>469</ele>
        <time>2019-09-11T09:21:54+00:00</time>
      </trkpt>
      <trkpt lat="43.315906524658" lon="-7.6012015342712">
        <ele>469</ele>
        <time>2019-09-11T09:21:55+00:00</time>
      </trkpt>
      <trkpt lat="43.315898895264" lon="-7.6012101173401">
        <ele>469</ele>
        <time>2019-09-11T09:21:56+00:00</time>
      </trkpt>
      <trkpt lat="43.315895080566" lon="-7.6012167930603">
        <ele>469</ele>
        <time>2019-09-11T09:21:57+00:00</time>
      </trkpt>
      <trkpt lat="43.315891265869" lon="-7.6012215614319">
        <ele>469</ele>
        <time>2019-09-11T09:21:58+00:00</time>
      </trkpt>
      <trkpt lat="43.315883636475" lon="-7.6012301445007">
        <ele>469</ele>
        <time>2019-09-11T09:21:59+00:00</time>
      </trkpt>
      <trkpt lat="43.31587600708" lon="-7.6012368202209">
        <ele>469</ele>
        <time>2019-09-11T09:22:00+00:00</time>
      </trkpt>
      <trkpt lat="43.315872192383" lon="-7.6012415885925">
        <ele>469</ele>
        <time>2019-09-11T09:22:01+00:00</time>
      </trkpt>
      <trkpt lat="43.315864562988" lon="-7.6012401580811">
        <ele>469</ele>
        <time>2019-09-11T09:22:02+00:00</time>
      </trkpt>
      <trkpt lat="43.315864562988" lon="-7.6012349128723">
        <ele>469</ele>
        <time>2019-09-11T09:22:03+00:00</time>
      </trkpt>
      <trkpt lat="43.315864562988" lon="-7.6012282371521">
        <ele>469</ele>
        <time>2019-09-11T09:22:04+00:00</time>
      </trkpt>
      <trkpt lat="43.315864562988" lon="-7.6012234687805">
        <ele>469</ele>
        <time>2019-09-11T09:22:05+00:00</time>
      </trkpt>
      <trkpt lat="43.315868377686" lon="-7.6012268066406">
        <ele>469</ele>
        <time>2019-09-11T09:22:06+00:00</time>
      </trkpt>
      <trkpt lat="43.315868377686" lon="-7.6012334823608">
        <ele>469</ele>
        <time>2019-09-11T09:22:07+00:00</time>
      </trkpt>
      <trkpt lat="43.315868377686" lon="-7.6012434959412">
        <ele>469</ele>
        <time>2019-09-11T09:22:08+00:00</time>
      </trkpt>
      <trkpt lat="43.315868377686" lon="-7.6012449264526">
        <ele>469</ele>
        <time>2019-09-11T09:22:09+00:00</time>
      </trkpt>
      <trkpt lat="43.315868377686" lon="-7.6012501716614">
        <ele>469</ele>
        <time>2019-09-11T09:22:10+00:00</time>
      </trkpt>
      <trkpt lat="43.315868377686" lon="-7.6012601852417">
        <ele>470</ele>
        <time>2019-09-11T09:22:11+00:00</time>
      </trkpt>
      <trkpt lat="43.315868377686" lon="-7.6012649536133">
        <ele>470</ele>
        <time>2019-09-11T09:22:12+00:00</time>
      </trkpt>
      <trkpt lat="43.315868377686" lon="-7.601270198822">
        <ele>470</ele>
        <time>2019-09-11T09:22:13+00:00</time>
      </trkpt>
      <trkpt lat="43.315872192383" lon="-7.6012768745422">
        <ele>470</ele>
        <time>2019-09-11T09:22:14+00:00</time>
      </trkpt>
      <trkpt lat="43.31587600708" lon="-7.6012816429138">
        <ele>470</ele>
        <time>2019-09-11T09:22:15+00:00</time>
      </trkpt>
      <trkpt lat="43.31587600708" lon="-7.6012849807739">
        <ele>470</ele>
        <time>2019-09-11T09:22:16+00:00</time>
      </trkpt>
      <trkpt lat="43.31587600708" lon="-7.6012916564941">
        <ele>470</ele>
        <time>2019-09-11T09:22:17+00:00</time>
      </trkpt>
      <trkpt lat="43.31587600708" lon="-7.6012969017029">
        <ele>471</ele>
        <time>2019-09-11T09:22:18+00:00</time>
      </trkpt>
      <trkpt lat="43.315872192383" lon="-7.6013016700745">
        <ele>471</ele>
        <time>2019-09-11T09:22:19+00:00</time>
      </trkpt>
      <trkpt lat="43.315860748291" lon="-7.6012983322144">
        <ele>471</ele>
        <time>2019-09-11T09:22:20+00:00</time>
      </trkpt>
      <trkpt lat="43.315853118896" lon="-7.6012997627258">
        <ele>471</ele>
        <time>2019-09-11T09:22:21+00:00</time>
      </trkpt>
      <trkpt lat="43.315849304199" lon="-7.6013016700745">
        <ele>471</ele>
        <time>2019-09-11T09:22:22+00:00</time>
      </trkpt>
      <trkpt lat="43.315845489502" lon="-7.6013016700745">
        <ele>471</ele>
        <time>2019-09-11T09:22:23+00:00</time>
      </trkpt>
      <trkpt lat="43.315837860107" lon="-7.6012997627258">
        <ele>471</ele>
        <time>2019-09-11T09:22:24+00:00</time>
      </trkpt>
      <trkpt lat="43.315830230713" lon="-7.6012983322144">
        <ele>472</ele>
        <time>2019-09-11T09:22:25+00:00</time>
      </trkpt>
      <trkpt lat="43.315826416016" lon="-7.6012983322144">
        <ele>472</ele>
        <time>2019-09-11T09:22:26+00:00</time>
      </trkpt>
      <trkpt lat="43.315822601318" lon="-7.6013016700745">
        <ele>472</ele>
        <time>2019-09-11T09:22:27+00:00</time>
      </trkpt>
      <trkpt lat="43.315822601318" lon="-7.6013016700745">
        <ele>472</ele>
        <time>2019-09-11T09:22:28+00:00</time>
      </trkpt>
      <trkpt lat="43.315822601318" lon="-7.6012969017029">
        <ele>472</ele>
        <time>2019-09-11T09:22:29+00:00</time>
      </trkpt>
      <trkpt lat="43.315822601318" lon="-7.6012969017029">
        <ele>472</ele>
        <time>2019-09-11T09:22:30+00:00</time>
      </trkpt>
      <trkpt lat="43.315822601318" lon="-7.6012969017029">
        <ele>472</ele>
        <time>2019-09-11T09:22:31+00:00</time>
      </trkpt>
      <trkpt lat="43.315822601318" lon="-7.6012969017029">
        <ele>472</ele>
        <time>2019-09-11T09:22:32+00:00</time>
      </trkpt>
      <trkpt lat="43.315822601318" lon="-7.6012969017029">
        <ele>472</ele>
        <time>2019-09-11T09:22:33+00:00</time>
      </trkpt>
      <trkpt lat="43.315822601318" lon="-7.6012969017029">
        <ele>472</ele>
        <time>2019-09-11T09:22:34+00:00</time>
      </trkpt>
      <trkpt lat="43.315822601318" lon="-7.6012969017029">
        <ele>472</ele>
        <time>2019-09-11T09:22:35+00:00</time>
      </trkpt>
      <trkpt lat="43.315822601318" lon="-7.6012969017029">
        <ele>472</ele>
        <time>2019-09-11T09:22:36+00:00</time>
      </trkpt>
      <trkpt lat="43.315822601318" lon="-7.6012969017029">
        <ele>472</ele>
        <time>2019-09-11T09:22:37+00:00</time>
      </trkpt>
      <trkpt lat="43.315822601318" lon="-7.6012969017029">
        <ele>472</ele>
        <time>2019-09-11T09:22:38+00:00</time>
      </trkpt>
      <trkpt lat="43.315822601318" lon="-7.6012969017029">
        <ele>472</ele>
        <time>2019-09-11T09:22:39+00:00</time>
      </trkpt>
      <trkpt lat="43.315822601318" lon="-7.6012969017029">
        <ele>472</ele>
        <time>2019-09-11T09:22:40+00:00</time>
      </trkpt>
      <trkpt lat="43.315822601318" lon="-7.6012969017029">
        <ele>472</ele>
        <time>2019-09-11T09:22:41+00:00</time>
      </trkpt>
      <trkpt lat="43.315822601318" lon="-7.6012969017029">
        <ele>472</ele>
        <time>2019-09-11T09:22:42+00:00</time>
      </trkpt>
      <trkpt lat="43.315822601318" lon="-7.6012969017029">
        <ele>472</ele>
        <time>2019-09-11T09:22:43+00:00</time>
      </trkpt>
      <trkpt lat="43.315822601318" lon="-7.6012969017029">
        <ele>472</ele>
        <time>2019-09-11T09:22:44+00:00</time>
      </trkpt>
      <trkpt lat="43.315822601318" lon="-7.6012969017029">
        <ele>472</ele>
        <time>2019-09-11T09:22:45+00:00</time>
      </trkpt>
      <trkpt lat="43.315822601318" lon="-7.6012969017029">
        <ele>472</ele>
        <time>2019-09-11T09:22:46+00:00</time>
      </trkpt>
      <trkpt lat="43.315822601318" lon="-7.6012969017029">
        <ele>472</ele>
        <time>2019-09-11T09:22:47+00:00</time>
      </trkpt>
      <trkpt lat="43.315822601318" lon="-7.6012969017029">
        <ele>472</ele>
        <time>2019-09-11T09:22:48+00:00</time>
      </trkpt>
      <trkpt lat="43.315822601318" lon="-7.6012969017029">
        <ele>472</ele>
        <time>2019-09-11T09:22:49+00:00</time>
      </trkpt>
      <trkpt lat="43.315830230713" lon="-7.6013131141663">
        <ele>472</ele>
        <time>2019-09-11T09:22:50+00:00</time>
      </trkpt>
      <trkpt lat="43.315826416016" lon="-7.6013164520264">
        <ele>472</ele>
        <time>2019-09-11T09:22:51+00:00</time>
      </trkpt>
      <trkpt lat="43.315822601318" lon="-7.601318359375">
        <ele>472</ele>
        <time>2019-09-11T09:22:52+00:00</time>
      </trkpt>
      <trkpt lat="43.315826416016" lon="-7.6013216972351">
        <ele>472</ele>
        <time>2019-09-11T09:22:53+00:00</time>
      </trkpt>
      <trkpt lat="43.315830230713" lon="-7.6013250350952">
        <ele>472</ele>
        <time>2019-09-11T09:22:54+00:00</time>
      </trkpt>
      <trkpt lat="43.31583404541" lon="-7.6013197898865">
        <ele>472</ele>
        <time>2019-09-11T09:22:55+00:00</time>
      </trkpt>
      <trkpt lat="43.31583404541" lon="-7.6013197898865">
        <ele>472</ele>
        <time>2019-09-11T09:22:56+00:00</time>
      </trkpt>
      <trkpt lat="43.31583404541" lon="-7.6013197898865">
        <ele>472</ele>
        <time>2019-09-11T09:22:57+00:00</time>
      </trkpt>
      <trkpt lat="43.31583404541" lon="-7.6013197898865">
        <ele>472</ele>
        <time>2019-09-11T09:22:58+00:00</time>
      </trkpt>
      <trkpt lat="43.31583404541" lon="-7.6013197898865">
        <ele>472</ele>
        <time>2019-09-11T09:22:59+00:00</time>
      </trkpt>
      <trkpt lat="43.315845489502" lon="-7.6012835502625">
        <ele>472</ele>
        <time>2019-09-11T09:23:00+00:00</time>
      </trkpt>
      <trkpt lat="43.315841674805" lon="-7.6012783050537">
        <ele>472</ele>
        <time>2019-09-11T09:23:01+00:00</time>
      </trkpt>
      <trkpt lat="43.315837860107" lon="-7.601270198822">
        <ele>472</ele>
        <time>2019-09-11T09:23:02+00:00</time>
      </trkpt>
      <trkpt lat="43.315837860107" lon="-7.6012635231018">
        <ele>472</ele>
        <time>2019-09-11T09:23:03+00:00</time>
      </trkpt>
      <trkpt lat="43.315837860107" lon="-7.6012616157532">
        <ele>472</ele>
        <time>2019-09-11T09:23:04+00:00</time>
      </trkpt>
      <trkpt lat="43.31583404541" lon="-7.6012601852417">
        <ele>472</ele>
        <time>2019-09-11T09:23:05+00:00</time>
      </trkpt>
      <trkpt lat="43.31583404541" lon="-7.6012616157532">
        <ele>472</ele>
        <time>2019-09-11T09:23:06+00:00</time>
      </trkpt>
      <trkpt lat="43.31583404541" lon="-7.6012616157532">
        <ele>472</ele>
        <time>2019-09-11T09:23:07+00:00</time>
      </trkpt>
      <trkpt lat="43.31583404541" lon="-7.6012616157532">
        <ele>472</ele>
        <time>2019-09-11T09:23:08+00:00</time>
      </trkpt>
      <trkpt lat="43.31583404541" lon="-7.6012616157532">
        <ele>472</ele>
        <time>2019-09-11T09:23:09+00:00</time>
      </trkpt>
      <trkpt lat="43.31583404541" lon="-7.6012616157532">
        <ele>472</ele>
        <time>2019-09-11T09:23:10+00:00</time>
      </trkpt>
      <trkpt lat="43.31583404541" lon="-7.6012616157532">
        <ele>472</ele>
        <time>2019-09-11T09:23:11+00:00</time>
      </trkpt>
      <trkpt lat="43.31583404541" lon="-7.6012616157532">
        <ele>472</ele>
        <time>2019-09-11T09:23:12+00:00</time>
      </trkpt>
      <trkpt lat="43.31583404541" lon="-7.6012616157532">
        <ele>472</ele>
        <time>2019-09-11T09:23:13+00:00</time>
      </trkpt>
      <trkpt lat="43.31583404541" lon="-7.6012616157532">
        <ele>472</ele>
        <time>2019-09-11T09:23:14+00:00</time>
      </trkpt>
      <trkpt lat="43.31583404541" lon="-7.6012616157532">
        <ele>472</ele>
        <time>2019-09-11T09:23:15+00:00</time>
      </trkpt>
      <trkpt lat="43.31583404541" lon="-7.6012616157532">
        <ele>472</ele>
        <time>2019-09-11T09:23:16+00:00</time>
      </trkpt>
      <trkpt lat="43.31583404541" lon="-7.6012616157532">
        <ele>472</ele>
        <time>2019-09-11T09:23:17+00:00</time>
      </trkpt>
      <trkpt lat="43.31583404541" lon="-7.6012616157532">
        <ele>472</ele>
        <time>2019-09-11T09:23:18+00:00</time>
      </trkpt>
      <trkpt lat="43.31583404541" lon="-7.6012616157532">
        <ele>472</ele>
        <time>2019-09-11T09:23:19+00:00</time>
      </trkpt>
      <trkpt lat="43.315799713135" lon="-7.6012449264526">
        <ele>473</ele>
        <time>2019-09-11T09:23:20+00:00</time>
      </trkpt>
      <trkpt lat="43.315803527832" lon="-7.6012434959412">
        <ele>473</ele>
        <time>2019-09-11T09:23:21+00:00</time>
      </trkpt>
      <trkpt lat="43.315807342529" lon="-7.6012434959412">
        <ele>473</ele>
        <time>2019-09-11T09:23:22+00:00</time>
      </trkpt>
      <trkpt lat="43.315811157227" lon="-7.6012401580811">
        <ele>473</ele>
        <time>2019-09-11T09:23:23+00:00</time>
      </trkpt>
      <trkpt lat="43.315811157227" lon="-7.6012401580811">
        <ele>473</ele>
        <time>2019-09-11T09:23:24+00:00</time>
      </trkpt>
      <trkpt lat="43.315811157227" lon="-7.6012401580811">
        <ele>473</ele>
        <time>2019-09-11T09:23:25+00:00</time>
      </trkpt>
      <trkpt lat="43.315811157227" lon="-7.6012401580811">
        <ele>473</ele>
        <time>2019-09-11T09:23:26+00:00</time>
      </trkpt>
      <trkpt lat="43.315807342529" lon="-7.6012268066406">
        <ele>472</ele>
        <time>2019-09-11T09:23:27+00:00</time>
      </trkpt>
      <trkpt lat="43.315803527832" lon="-7.6012215614319">
        <ele>472</ele>
        <time>2019-09-11T09:23:28+00:00</time>
      </trkpt>
      <trkpt lat="43.315803527832" lon="-7.6012182235718">
        <ele>472</ele>
        <time>2019-09-11T09:23:29+00:00</time>
      </trkpt>
      <trkpt lat="43.315803527832" lon="-7.6012148857117">
        <ele>472</ele>
        <time>2019-09-11T09:23:30+00:00</time>
      </trkpt>
      <trkpt lat="43.315803527832" lon="-7.6012148857117">
        <ele>472</ele>
        <time>2019-09-11T09:23:31+00:00</time>
      </trkpt>
      <trkpt lat="43.315803527832" lon="-7.6012148857117">
        <ele>472</ele>
        <time>2019-09-11T09:23:32+00:00</time>
      </trkpt>
      <trkpt lat="43.315803527832" lon="-7.6012148857117">
        <ele>472</ele>
        <time>2019-09-11T09:23:33+00:00</time>
      </trkpt>
      <trkpt lat="43.315803527832" lon="-7.6012148857117">
        <ele>472</ele>
        <time>2019-09-11T09:23:34+00:00</time>
      </trkpt>
      <trkpt lat="43.315803527832" lon="-7.6012148857117">
        <ele>472</ele>
        <time>2019-09-11T09:23:35+00:00</time>
      </trkpt>
      <trkpt lat="43.315803527832" lon="-7.6012148857117">
        <ele>472</ele>
        <time>2019-09-11T09:23:36+00:00</time>
      </trkpt>
      <trkpt lat="43.315803527832" lon="-7.6012148857117">
        <ele>472</ele>
        <time>2019-09-11T09:23:37+00:00</time>
      </trkpt>
      <trkpt lat="43.315803527832" lon="-7.6012148857117">
        <ele>472</ele>
        <time>2019-09-11T09:23:38+00:00</time>
      </trkpt>
      <trkpt lat="43.315803527832" lon="-7.6012148857117">
        <ele>472</ele>
        <time>2019-09-11T09:23:39+00:00</time>
      </trkpt>
      <trkpt lat="43.315803527832" lon="-7.6012148857117">
        <ele>472</ele>
        <time>2019-09-11T09:23:40+00:00</time>
      </trkpt>
      <trkpt lat="43.315803527832" lon="-7.6012148857117">
        <ele>472</ele>
        <time>2019-09-11T09:23:41+00:00</time>
      </trkpt>
      <trkpt lat="43.315803527832" lon="-7.6012148857117">
        <ele>472</ele>
        <time>2019-09-11T09:23:42+00:00</time>
      </trkpt>
      <trkpt lat="43.315887451172" lon="-7.6012816429138">
        <ele>474</ele>
        <time>2019-09-11T09:23:43+00:00</time>
      </trkpt>
      <trkpt lat="43.315887451172" lon="-7.6012802124023">
        <ele>474</ele>
        <time>2019-09-11T09:23:44+00:00</time>
      </trkpt>
      <trkpt lat="43.315883636475" lon="-7.6012802124023">
        <ele>474</ele>
        <time>2019-09-11T09:23:45+00:00</time>
      </trkpt>
      <trkpt lat="43.315879821777" lon="-7.6012783050537">
        <ele>474</ele>
        <time>2019-09-11T09:23:46+00:00</time>
      </trkpt>
      <trkpt lat="43.315879821777" lon="-7.6012783050537">
        <ele>474</ele>
        <time>2019-09-11T09:23:47+00:00</time>
      </trkpt>
      <trkpt lat="43.315879821777" lon="-7.6012783050537">
        <ele>474</ele>
        <time>2019-09-11T09:23:48+00:00</time>
      </trkpt>
      <trkpt lat="43.315879821777" lon="-7.6012783050537">
        <ele>474</ele>
        <time>2019-09-11T09:23:49+00:00</time>
      </trkpt>
      <trkpt lat="43.315879821777" lon="-7.6012783050537">
        <ele>474</ele>
        <time>2019-09-11T09:23:50+00:00</time>
      </trkpt>
      <trkpt lat="43.315879821777" lon="-7.6012783050537">
        <ele>474</ele>
        <time>2019-09-11T09:23:51+00:00</time>
      </trkpt>
      <trkpt lat="43.315879821777" lon="-7.6012783050537">
        <ele>474</ele>
        <time>2019-09-11T09:23:52+00:00</time>
      </trkpt>
      <trkpt lat="43.315879821777" lon="-7.6012783050537">
        <ele>474</ele>
        <time>2019-09-11T09:23:53+00:00</time>
      </trkpt>
      <trkpt lat="43.315879821777" lon="-7.6012783050537">
        <ele>474</ele>
        <time>2019-09-11T09:23:54+00:00</time>
      </trkpt>
      <trkpt lat="43.315879821777" lon="-7.6012783050537">
        <ele>474</ele>
        <time>2019-09-11T09:23:55+00:00</time>
      </trkpt>
      <trkpt lat="43.315879821777" lon="-7.6012783050537">
        <ele>474</ele>
        <time>2019-09-11T09:23:56+00:00</time>
      </trkpt>
      <trkpt lat="43.315879821777" lon="-7.6012783050537">
        <ele>474</ele>
        <time>2019-09-11T09:23:57+00:00</time>
      </trkpt>
      <trkpt lat="43.315879821777" lon="-7.6012783050537">
        <ele>474</ele>
        <time>2019-09-11T09:23:58+00:00</time>
      </trkpt>
      <trkpt lat="43.315879821777" lon="-7.6012783050537">
        <ele>474</ele>
        <time>2019-09-11T09:23:59+00:00</time>
      </trkpt>
      <trkpt lat="43.315879821777" lon="-7.6012783050537">
        <ele>474</ele>
        <time>2019-09-11T09:24:00+00:00</time>
      </trkpt>
      <trkpt lat="43.315879821777" lon="-7.6012783050537">
        <ele>474</ele>
        <time>2019-09-11T09:24:01+00:00</time>
      </trkpt>
      <trkpt lat="43.315879821777" lon="-7.6012783050537">
        <ele>474</ele>
        <time>2019-09-11T09:24:02+00:00</time>
      </trkpt>
      <trkpt lat="43.315879821777" lon="-7.6012783050537">
        <ele>474</ele>
        <time>2019-09-11T09:24:03+00:00</time>
      </trkpt>
      <trkpt lat="43.315879821777" lon="-7.6012783050537">
        <ele>474</ele>
        <time>2019-09-11T09:24:04+00:00</time>
      </trkpt>
      <trkpt lat="43.315879821777" lon="-7.6012783050537">
        <ele>474</ele>
        <time>2019-09-11T09:24:05+00:00</time>
      </trkpt>
      <trkpt lat="43.315879821777" lon="-7.6012783050537">
        <ele>474</ele>
        <time>2019-09-11T09:24:06+00:00</time>
      </trkpt>
      <trkpt lat="43.315879821777" lon="-7.6012783050537">
        <ele>474</ele>
        <time>2019-09-11T09:24:07+00:00</time>
      </trkpt>
      <trkpt lat="43.315879821777" lon="-7.6012783050537">
        <ele>474</ele>
        <time>2019-09-11T09:24:08+00:00</time>
      </trkpt>
      <trkpt lat="43.315879821777" lon="-7.6012783050537">
        <ele>474</ele>
        <time>2019-09-11T09:24:09+00:00</time>
      </trkpt>
      <trkpt lat="43.315879821777" lon="-7.6012783050537">
        <ele>474</ele>
        <time>2019-09-11T09:24:10+00:00</time>
      </trkpt>
      <trkpt lat="43.315879821777" lon="-7.6012783050537">
        <ele>474</ele>
        <time>2019-09-11T09:24:11+00:00</time>
      </trkpt>
      <trkpt lat="43.315879821777" lon="-7.6012783050537">
        <ele>474</ele>
        <time>2019-09-11T09:24:12+00:00</time>
      </trkpt>
      <trkpt lat="43.315879821777" lon="-7.6012783050537">
        <ele>474</ele>
        <time>2019-09-11T09:24:13+00:00</time>
      </trkpt>
      <trkpt lat="43.315879821777" lon="-7.6012783050537">
        <ele>474</ele>
        <time>2019-09-11T09:24:14+00:00</time>
      </trkpt>
      <trkpt lat="43.315879821777" lon="-7.6012783050537">
        <ele>474</ele>
        <time>2019-09-11T09:24:15+00:00</time>
      </trkpt>
      <trkpt lat="43.315879821777" lon="-7.6012783050537">
        <ele>474</ele>
        <time>2019-09-11T09:24:16+00:00</time>
      </trkpt>
      <trkpt lat="43.315879821777" lon="-7.6012783050537">
        <ele>474</ele>
        <time>2019-09-11T09:24:17+00:00</time>
      </trkpt>
      <trkpt lat="43.315879821777" lon="-7.6012783050537">
        <ele>474</ele>
        <time>2019-09-11T09:24:18+00:00</time>
      </trkpt>
      <trkpt lat="43.315879821777" lon="-7.6012783050537">
        <ele>474</ele>
        <time>2019-09-11T09:24:19+00:00</time>
      </trkpt>
      <trkpt lat="43.315879821777" lon="-7.6012783050537">
        <ele>474</ele>
        <time>2019-09-11T09:24:20+00:00</time>
      </trkpt>
      <trkpt lat="43.315895080566" lon="-7.6012902259827">
        <ele>474</ele>
        <time>2019-09-11T09:24:21+00:00</time>
      </trkpt>
      <trkpt lat="43.315895080566" lon="-7.6012902259827">
        <ele>474</ele>
        <time>2019-09-11T09:24:22+00:00</time>
      </trkpt>
      <trkpt lat="43.315895080566" lon="-7.6012902259827">
        <ele>474</ele>
        <time>2019-09-11T09:24:23+00:00</time>
      </trkpt>
      <trkpt lat="43.315895080566" lon="-7.601288318634">
        <ele>474</ele>
        <time>2019-09-11T09:24:24+00:00</time>
      </trkpt>
      <trkpt lat="43.315895080566" lon="-7.601288318634">
        <ele>474</ele>
        <time>2019-09-11T09:24:25+00:00</time>
      </trkpt>
      <trkpt lat="43.315895080566" lon="-7.601288318634">
        <ele>474</ele>
        <time>2019-09-11T09:24:26+00:00</time>
      </trkpt>
      <trkpt lat="43.315895080566" lon="-7.601288318634">
        <ele>474</ele>
        <time>2019-09-11T09:24:27+00:00</time>
      </trkpt>
      <trkpt lat="43.315895080566" lon="-7.601288318634">
        <ele>474</ele>
        <time>2019-09-11T09:24:28+00:00</time>
      </trkpt>
      <trkpt lat="43.315895080566" lon="-7.601288318634">
        <ele>474</ele>
        <time>2019-09-11T09:24:29+00:00</time>
      </trkpt>
      <trkpt lat="43.315895080566" lon="-7.601288318634">
        <ele>474</ele>
        <time>2019-09-11T09:24:30+00:00</time>
      </trkpt>
      <trkpt lat="43.315895080566" lon="-7.601288318634">
        <ele>474</ele>
        <time>2019-09-11T09:24:31+00:00</time>
      </trkpt>
      <trkpt lat="43.315895080566" lon="-7.601288318634">
        <ele>474</ele>
        <time>2019-09-11T09:24:32+00:00</time>
      </trkpt>
      <trkpt lat="43.315895080566" lon="-7.601288318634">
        <ele>474</ele>
        <time>2019-09-11T09:24:33+00:00</time>
      </trkpt>
      <trkpt lat="43.315895080566" lon="-7.601288318634">
        <ele>474</ele>
        <time>2019-09-11T09:24:34+00:00</time>
      </trkpt>
      <trkpt lat="43.315895080566" lon="-7.601288318634">
        <ele>474</ele>
        <time>2019-09-11T09:24:35+00:00</time>
      </trkpt>
      <trkpt lat="43.315895080566" lon="-7.601288318634">
        <ele>474</ele>
        <time>2019-09-11T09:24:36+00:00</time>
      </trkpt>
      <trkpt lat="43.315895080566" lon="-7.601288318634">
        <ele>474</ele>
        <time>2019-09-11T09:24:37+00:00</time>
      </trkpt>
      <trkpt lat="43.315895080566" lon="-7.601288318634">
        <ele>474</ele>
        <time>2019-09-11T09:24:38+00:00</time>
      </trkpt>
      <trkpt lat="43.315895080566" lon="-7.601288318634">
        <ele>474</ele>
        <time>2019-09-11T09:24:39+00:00</time>
      </trkpt>
      <trkpt lat="43.315895080566" lon="-7.601288318634">
        <ele>474</ele>
        <time>2019-09-11T09:24:40+00:00</time>
      </trkpt>
      <trkpt lat="43.315895080566" lon="-7.601288318634">
        <ele>474</ele>
        <time>2019-09-11T09:24:41+00:00</time>
      </trkpt>
      <trkpt lat="43.315879821777" lon="-7.6013231277466">
        <ele>475</ele>
        <time>2019-09-11T09:24:42+00:00</time>
      </trkpt>
      <trkpt lat="43.315883636475" lon="-7.6013264656067">
        <ele>475</ele>
        <time>2019-09-11T09:24:43+00:00</time>
      </trkpt>
      <trkpt lat="43.315891265869" lon="-7.6013331413269">
        <ele>474</ele>
        <time>2019-09-11T09:24:44+00:00</time>
      </trkpt>
      <trkpt lat="43.315895080566" lon="-7.601348400116">
        <ele>474</ele>
        <time>2019-09-11T09:24:45+00:00</time>
      </trkpt>
      <trkpt lat="43.315895080566" lon="-7.6013684272766">
        <ele>474</ele>
        <time>2019-09-11T09:24:46+00:00</time>
      </trkpt>
      <trkpt lat="43.315902709961" lon="-7.6013832092285">
        <ele>474</ele>
        <time>2019-09-11T09:24:47+00:00</time>
      </trkpt>
      <trkpt lat="43.315898895264" lon="-7.6013851165771">
        <ele>475</ele>
        <time>2019-09-11T09:24:48+00:00</time>
      </trkpt>
      <trkpt lat="43.315902709961" lon="-7.6013951301575">
        <ele>475</ele>
        <time>2019-09-11T09:24:49+00:00</time>
      </trkpt>
      <trkpt lat="43.315906524658" lon="-7.6014065742493">
        <ele>475</ele>
        <time>2019-09-11T09:24:50+00:00</time>
      </trkpt>
      <trkpt lat="43.315910339355" lon="-7.6014184951782">
        <ele>475</ele>
        <time>2019-09-11T09:24:51+00:00</time>
      </trkpt>
      <trkpt lat="43.315910339355" lon="-7.6014318466187">
        <ele>475</ele>
        <time>2019-09-11T09:24:52+00:00</time>
      </trkpt>
      <trkpt lat="43.315914154053" lon="-7.6014451980591">
        <ele>475</ele>
        <time>2019-09-11T09:24:53+00:00</time>
      </trkpt>
      <trkpt lat="43.315906524658" lon="-7.6014451980591">
        <ele>475</ele>
        <time>2019-09-11T09:24:54+00:00</time>
      </trkpt>
      <trkpt lat="43.315898895264" lon="-7.6014466285706">
        <ele>475</ele>
        <time>2019-09-11T09:24:55+00:00</time>
      </trkpt>
      <trkpt lat="43.315895080566" lon="-7.6014633178711">
        <ele>475</ele>
        <time>2019-09-11T09:24:56+00:00</time>
      </trkpt>
      <trkpt lat="43.315891265869" lon="-7.6014733314514">
        <ele>475</ele>
        <time>2019-09-11T09:24:57+00:00</time>
      </trkpt>
      <trkpt lat="43.315887451172" lon="-7.6014933586121">
        <ele>475</ele>
        <time>2019-09-11T09:24:58+00:00</time>
      </trkpt>
      <trkpt lat="43.315883636475" lon="-7.6015067100525">
        <ele>475</ele>
        <time>2019-09-11T09:24:59+00:00</time>
      </trkpt>
      <trkpt lat="43.315883636475" lon="-7.6015200614929">
        <ele>475</ele>
        <time>2019-09-11T09:25:00+00:00</time>
      </trkpt>
      <trkpt lat="43.315883636475" lon="-7.6015334129333">
        <ele>475</ele>
        <time>2019-09-11T09:25:01+00:00</time>
      </trkpt>
      <trkpt lat="43.315883636475" lon="-7.6015467643738">
        <ele>474</ele>
        <time>2019-09-11T09:25:02+00:00</time>
      </trkpt>
      <trkpt lat="43.315883636475" lon="-7.6015615463257">
        <ele>474</ele>
        <time>2019-09-11T09:25:03+00:00</time>
      </trkpt>
      <trkpt lat="43.315879821777" lon="-7.6015734672546">
        <ele>474</ele>
        <time>2019-09-11T09:25:04+00:00</time>
      </trkpt>
      <trkpt lat="43.315883636475" lon="-7.6015868186951">
        <ele>474</ele>
        <time>2019-09-11T09:25:05+00:00</time>
      </trkpt>
      <trkpt lat="43.315887451172" lon="-7.6016001701355">
        <ele>474</ele>
        <time>2019-09-11T09:25:06+00:00</time>
      </trkpt>
      <trkpt lat="43.315887451172" lon="-7.6016049385071">
        <ele>474</ele>
        <time>2019-09-11T09:25:07+00:00</time>
      </trkpt>
      <trkpt lat="43.315895080566" lon="-7.6016316413879">
        <ele>474</ele>
        <time>2019-09-11T09:25:08+00:00</time>
      </trkpt>
      <trkpt lat="43.315906524658" lon="-7.6016516685486">
        <ele>474</ele>
        <time>2019-09-11T09:25:09+00:00</time>
      </trkpt>
      <trkpt lat="43.315914154053" lon="-7.6016683578491">
        <ele>474</ele>
        <time>2019-09-11T09:25:10+00:00</time>
      </trkpt>
      <trkpt lat="43.315914154053" lon="-7.6016850471497">
        <ele>474</ele>
        <time>2019-09-11T09:25:11+00:00</time>
      </trkpt>
      <trkpt lat="43.315925598145" lon="-7.6017017364502">
        <ele>474</ele>
        <time>2019-09-11T09:25:12+00:00</time>
      </trkpt>
      <trkpt lat="43.315940856934" lon="-7.6017165184021">
        <ele>474</ele>
        <time>2019-09-11T09:25:13+00:00</time>
      </trkpt>
      <trkpt lat="43.315944671631" lon="-7.6017417907715">
        <ele>474</ele>
        <time>2019-09-11T09:25:14+00:00</time>
      </trkpt>
      <trkpt lat="43.315948486328" lon="-7.6017599105835">
        <ele>474</ele>
        <time>2019-09-11T09:25:15+00:00</time>
      </trkpt>
      <trkpt lat="43.315952301025" lon="-7.6017751693726">
        <ele>474</ele>
        <time>2019-09-11T09:25:16+00:00</time>
      </trkpt>
      <trkpt lat="43.315952301025" lon="-7.6017966270447">
        <ele>474</ele>
        <time>2019-09-11T09:25:17+00:00</time>
      </trkpt>
      <trkpt lat="43.315948486328" lon="-7.6018218994141">
        <ele>474</ele>
        <time>2019-09-11T09:25:18+00:00</time>
      </trkpt>
      <trkpt lat="43.315948486328" lon="-7.6018400192261">
        <ele>474</ele>
        <time>2019-09-11T09:25:19+00:00</time>
      </trkpt>
      <trkpt lat="43.315948486328" lon="-7.6018600463867">
        <ele>474</ele>
        <time>2019-09-11T09:25:20+00:00</time>
      </trkpt>
      <trkpt lat="43.315944671631" lon="-7.6018781661987">
        <ele>474</ele>
        <time>2019-09-11T09:25:21+00:00</time>
      </trkpt>
      <trkpt lat="43.315940856934" lon="-7.6018981933594">
        <ele>474</ele>
        <time>2019-09-11T09:25:22+00:00</time>
      </trkpt>
      <trkpt lat="43.315944671631" lon="-7.6019082069397">
        <ele>474</ele>
        <time>2019-09-11T09:25:23+00:00</time>
      </trkpt>
      <trkpt lat="43.315956115723" lon="-7.6019101142883">
        <ele>473</ele>
        <time>2019-09-11T09:25:24+00:00</time>
      </trkpt>
      <trkpt lat="43.315963745117" lon="-7.6019248962402">
        <ele>473</ele>
        <time>2019-09-11T09:25:25+00:00</time>
      </trkpt>
      <trkpt lat="43.315971374512" lon="-7.6019382476807">
        <ele>473</ele>
        <time>2019-09-11T09:25:26+00:00</time>
      </trkpt>
      <trkpt lat="43.315982818604" lon="-7.6019549369812">
        <ele>473</ele>
        <time>2019-09-11T09:25:27+00:00</time>
      </trkpt>
      <trkpt lat="43.315986633301" lon="-7.6019701957703">
        <ele>473</ele>
        <time>2019-09-11T09:25:28+00:00</time>
      </trkpt>
      <trkpt lat="43.315986633301" lon="-7.601978302002">
        <ele>473</ele>
        <time>2019-09-11T09:25:29+00:00</time>
      </trkpt>
      <trkpt lat="43.315986633301" lon="-7.6019835472107">
        <ele>473</ele>
        <time>2019-09-11T09:25:30+00:00</time>
      </trkpt>
      <trkpt lat="43.315994262695" lon="-7.6019916534424">
        <ele>473</ele>
        <time>2019-09-11T09:25:31+00:00</time>
      </trkpt>
      <trkpt lat="43.316005706787" lon="-7.6020002365112">
        <ele>473</ele>
        <time>2019-09-11T09:25:32+00:00</time>
      </trkpt>
      <trkpt lat="43.316013336182" lon="-7.6020064353943">
        <ele>473</ele>
        <time>2019-09-11T09:25:33+00:00</time>
      </trkpt>
      <trkpt lat="43.316017150879" lon="-7.6020183563232">
        <ele>473</ele>
        <time>2019-09-11T09:25:34+00:00</time>
      </trkpt>
      <trkpt lat="43.316020965576" lon="-7.6020317077637">
        <ele>473</ele>
        <time>2019-09-11T09:25:35+00:00</time>
      </trkpt>
      <trkpt lat="43.316017150879" lon="-7.6020431518555">
        <ele>473</ele>
        <time>2019-09-11T09:25:36+00:00</time>
      </trkpt>
      <trkpt lat="43.316017150879" lon="-7.6020550727844">
        <ele>473</ele>
        <time>2019-09-11T09:25:37+00:00</time>
      </trkpt>
      <trkpt lat="43.316017150879" lon="-7.6020684242249">
        <ele>473</ele>
        <time>2019-09-11T09:25:38+00:00</time>
      </trkpt>
      <trkpt lat="43.316013336182" lon="-7.6020817756653">
        <ele>473</ele>
        <time>2019-09-11T09:25:39+00:00</time>
      </trkpt>
      <trkpt lat="43.316017150879" lon="-7.6020951271057">
        <ele>473</ele>
        <time>2019-09-11T09:25:40+00:00</time>
      </trkpt>
      <trkpt lat="43.316013336182" lon="-7.6021084785461">
        <ele>473</ele>
        <time>2019-09-11T09:25:41+00:00</time>
      </trkpt>
      <trkpt lat="43.316017150879" lon="-7.602123260498">
        <ele>473</ele>
        <time>2019-09-11T09:25:42+00:00</time>
      </trkpt>
      <trkpt lat="43.316020965576" lon="-7.6021366119385">
        <ele>473</ele>
        <time>2019-09-11T09:25:43+00:00</time>
      </trkpt>
      <trkpt lat="43.316020965576" lon="-7.6021451950073">
        <ele>473</ele>
        <time>2019-09-11T09:25:44+00:00</time>
      </trkpt>
      <trkpt lat="43.316036224365" lon="-7.6021618843079">
        <ele>473</ele>
        <time>2019-09-11T09:25:45+00:00</time>
      </trkpt>
      <trkpt lat="43.316047668457" lon="-7.6021752357483">
        <ele>473</ele>
        <time>2019-09-11T09:25:46+00:00</time>
      </trkpt>
      <trkpt lat="43.316051483154" lon="-7.6021900177002">
        <ele>473</ele>
        <time>2019-09-11T09:25:47+00:00</time>
      </trkpt>
      <trkpt lat="43.316059112549" lon="-7.6022033691406">
        <ele>473</ele>
        <time>2019-09-11T09:25:48+00:00</time>
      </trkpt>
      <trkpt lat="43.316070556641" lon="-7.6022100448608">
        <ele>473</ele>
        <time>2019-09-11T09:25:49+00:00</time>
      </trkpt>
      <trkpt lat="43.316078186035" lon="-7.6022267341614">
        <ele>473</ele>
        <time>2019-09-11T09:25:50+00:00</time>
      </trkpt>
      <trkpt lat="43.316089630127" lon="-7.6022448539734">
        <ele>473</ele>
        <time>2019-09-11T09:25:51+00:00</time>
      </trkpt>
      <trkpt lat="43.316093444824" lon="-7.6022601127625">
        <ele>473</ele>
        <time>2019-09-11T09:25:52+00:00</time>
      </trkpt>
      <trkpt lat="43.316097259521" lon="-7.6022715568542">
        <ele>473</ele>
        <time>2019-09-11T09:25:53+00:00</time>
      </trkpt>
      <trkpt lat="43.316104888916" lon="-7.6022834777832">
        <ele>473</ele>
        <time>2019-09-11T09:25:54+00:00</time>
      </trkpt>
      <trkpt lat="43.316104888916" lon="-7.6022915840149">
        <ele>473</ele>
        <time>2019-09-11T09:25:55+00:00</time>
      </trkpt>
      <trkpt lat="43.316112518311" lon="-7.6023035049438">
        <ele>473</ele>
        <time>2019-09-11T09:25:56+00:00</time>
      </trkpt>
      <trkpt lat="43.316116333008" lon="-7.6023149490356">
        <ele>473</ele>
        <time>2019-09-11T09:25:57+00:00</time>
      </trkpt>
      <trkpt lat="43.316120147705" lon="-7.6023283004761">
        <ele>473</ele>
        <time>2019-09-11T09:25:58+00:00</time>
      </trkpt>
      <trkpt lat="43.316123962402" lon="-7.6023435592651">
        <ele>473</ele>
        <time>2019-09-11T09:25:59+00:00</time>
      </trkpt>
      <trkpt lat="43.316135406494" lon="-7.6023564338684">
        <ele>473</ele>
        <time>2019-09-11T09:26:00+00:00</time>
      </trkpt>
      <trkpt lat="43.316146850586" lon="-7.6023750305176">
        <ele>472</ele>
        <time>2019-09-11T09:26:01+00:00</time>
      </trkpt>
      <trkpt lat="43.31615447998" lon="-7.6023950576782">
        <ele>472</ele>
        <time>2019-09-11T09:26:02+00:00</time>
      </trkpt>
      <trkpt lat="43.316162109375" lon="-7.6024165153503">
        <ele>472</ele>
        <time>2019-09-11T09:26:03+00:00</time>
      </trkpt>
      <trkpt lat="43.316177368164" lon="-7.602436542511">
        <ele>472</ele>
        <time>2019-09-11T09:26:04+00:00</time>
      </trkpt>
      <trkpt lat="43.316184997559" lon="-7.6024551391602">
        <ele>472</ele>
        <time>2019-09-11T09:26:05+00:00</time>
      </trkpt>
      <trkpt lat="43.316188812256" lon="-7.6024699211121">
        <ele>472</ele>
        <time>2019-09-11T09:26:06+00:00</time>
      </trkpt>
      <trkpt lat="43.316192626953" lon="-7.6024832725525">
        <ele>472</ele>
        <time>2019-09-11T09:26:07+00:00</time>
      </trkpt>
      <trkpt lat="43.31619644165" lon="-7.6024985313416">
        <ele>472</ele>
        <time>2019-09-11T09:26:08+00:00</time>
      </trkpt>
      <trkpt lat="43.316207885742" lon="-7.6025152206421">
        <ele>472</ele>
        <time>2019-09-11T09:26:09+00:00</time>
      </trkpt>
      <trkpt lat="43.316211700439" lon="-7.6025280952454">
        <ele>472</ele>
        <time>2019-09-11T09:26:10+00:00</time>
      </trkpt>
      <trkpt lat="43.316219329834" lon="-7.6025433540344">
        <ele>471</ele>
        <time>2019-09-11T09:26:11+00:00</time>
      </trkpt>
      <trkpt lat="43.316219329834" lon="-7.6025547981262">
        <ele>471</ele>
        <time>2019-09-11T09:26:12+00:00</time>
      </trkpt>
      <trkpt lat="43.316215515137" lon="-7.6025667190552">
        <ele>471</ele>
        <time>2019-09-11T09:26:13+00:00</time>
      </trkpt>
      <trkpt lat="43.316215515137" lon="-7.602578163147">
        <ele>471</ele>
        <time>2019-09-11T09:26:14+00:00</time>
      </trkpt>
      <trkpt lat="43.316215515137" lon="-7.6025900840759">
        <ele>471</ele>
        <time>2019-09-11T09:26:15+00:00</time>
      </trkpt>
      <trkpt lat="43.316230773926" lon="-7.6026048660278">
        <ele>471</ele>
        <time>2019-09-11T09:26:16+00:00</time>
      </trkpt>
      <trkpt lat="43.31623840332" lon="-7.6026167869568">
        <ele>471</ele>
        <time>2019-09-11T09:26:17+00:00</time>
      </trkpt>
      <trkpt lat="43.31623840332" lon="-7.6026167869568">
        <ele>471</ele>
        <time>2019-09-11T09:26:18+00:00</time>
      </trkpt>
      <trkpt lat="43.316230773926" lon="-7.6026334762573">
        <ele>471</ele>
        <time>2019-09-11T09:26:19+00:00</time>
      </trkpt>
      <trkpt lat="43.31623840332" lon="-7.6026468276978">
        <ele>471</ele>
        <time>2019-09-11T09:26:20+00:00</time>
      </trkpt>
      <trkpt lat="43.316230773926" lon="-7.6026601791382">
        <ele>471</ele>
        <time>2019-09-11T09:26:21+00:00</time>
      </trkpt>
      <trkpt lat="43.316234588623" lon="-7.6026735305786">
        <ele>471</ele>
        <time>2019-09-11T09:26:22+00:00</time>
      </trkpt>
      <trkpt lat="43.316234588623" lon="-7.602686882019">
        <ele>471</ele>
        <time>2019-09-11T09:26:23+00:00</time>
      </trkpt>
      <trkpt lat="43.316223144531" lon="-7.6026968955994">
        <ele>472</ele>
        <time>2019-09-11T09:26:24+00:00</time>
      </trkpt>
      <trkpt lat="43.316204071045" lon="-7.6027083396912">
        <ele>471</ele>
        <time>2019-09-11T09:26:25+00:00</time>
      </trkpt>
      <trkpt lat="43.316204071045" lon="-7.6027216911316">
        <ele>471</ele>
        <time>2019-09-11T09:26:26+00:00</time>
      </trkpt>
      <trkpt lat="43.316211700439" lon="-7.602735042572">
        <ele>472</ele>
        <time>2019-09-11T09:26:27+00:00</time>
      </trkpt>
      <trkpt lat="43.316215515137" lon="-7.6027483940125">
        <ele>472</ele>
        <time>2019-09-11T09:26:28+00:00</time>
      </trkpt>
      <trkpt lat="43.316211700439" lon="-7.6027584075928">
        <ele>472</ele>
        <time>2019-09-11T09:26:29+00:00</time>
      </trkpt>
      <trkpt lat="43.316211700439" lon="-7.6027698516846">
        <ele>472</ele>
        <time>2019-09-11T09:26:30+00:00</time>
      </trkpt>
      <trkpt lat="43.316215515137" lon="-7.6027817726135">
        <ele>472</ele>
        <time>2019-09-11T09:26:31+00:00</time>
      </trkpt>
      <trkpt lat="43.316219329834" lon="-7.6027932167053">
        <ele>472</ele>
        <time>2019-09-11T09:26:32+00:00</time>
      </trkpt>
      <trkpt lat="43.316223144531" lon="-7.6028084754944">
        <ele>472</ele>
        <time>2019-09-11T09:26:33+00:00</time>
      </trkpt>
      <trkpt lat="43.316230773926" lon="-7.6028218269348">
        <ele>472</ele>
        <time>2019-09-11T09:26:34+00:00</time>
      </trkpt>
      <trkpt lat="43.316230773926" lon="-7.6028332710266">
        <ele>472</ele>
        <time>2019-09-11T09:26:35+00:00</time>
      </trkpt>
      <trkpt lat="43.31623840332" lon="-7.6028499603271">
        <ele>472</ele>
        <time>2019-09-11T09:26:36+00:00</time>
      </trkpt>
      <trkpt lat="43.316230773926" lon="-7.6028633117676">
        <ele>472</ele>
        <time>2019-09-11T09:26:37+00:00</time>
      </trkpt>
      <trkpt lat="43.316226959229" lon="-7.6028752326965">
        <ele>472</ele>
        <time>2019-09-11T09:26:38+00:00</time>
      </trkpt>
      <trkpt lat="43.316230773926" lon="-7.6028866767883">
        <ele>472</ele>
        <time>2019-09-11T09:26:39+00:00</time>
      </trkpt>
      <trkpt lat="43.31623840332" lon="-7.6029014587402">
        <ele>471</ele>
        <time>2019-09-11T09:26:40+00:00</time>
      </trkpt>
      <trkpt lat="43.316246032715" lon="-7.6029148101807">
        <ele>471</ele>
        <time>2019-09-11T09:26:41+00:00</time>
      </trkpt>
      <trkpt lat="43.316249847412" lon="-7.6029233932495">
        <ele>471</ele>
        <time>2019-09-11T09:26:42+00:00</time>
      </trkpt>
      <trkpt lat="43.316257476807" lon="-7.6029348373413">
        <ele>472</ele>
        <time>2019-09-11T09:26:43+00:00</time>
      </trkpt>
      <trkpt lat="43.316261291504" lon="-7.6029500961304">
        <ele>472</ele>
        <time>2019-09-11T09:26:44+00:00</time>
      </trkpt>
      <trkpt lat="43.316265106201" lon="-7.6029634475708">
        <ele>472</ele>
        <time>2019-09-11T09:26:45+00:00</time>
      </trkpt>
      <trkpt lat="43.316272735596" lon="-7.6029748916626">
        <ele>472</ele>
        <time>2019-09-11T09:26:46+00:00</time>
      </trkpt>
      <trkpt lat="43.31628036499" lon="-7.6029934883118">
        <ele>471</ele>
        <time>2019-09-11T09:26:47+00:00</time>
      </trkpt>
      <trkpt lat="43.316287994385" lon="-7.6030101776123">
        <ele>472</ele>
        <time>2019-09-11T09:26:48+00:00</time>
      </trkpt>
      <trkpt lat="43.316291809082" lon="-7.6030235290527">
        <ele>472</ele>
        <time>2019-09-11T09:26:49+00:00</time>
      </trkpt>
      <trkpt lat="43.316303253174" lon="-7.6030416488647">
        <ele>472</ele>
        <time>2019-09-11T09:26:50+00:00</time>
      </trkpt>
      <trkpt lat="43.316318511963" lon="-7.6030616760254">
        <ele>471</ele>
        <time>2019-09-11T09:26:51+00:00</time>
      </trkpt>
      <trkpt lat="43.316333770752" lon="-7.6030783653259">
        <ele>471</ele>
        <time>2019-09-11T09:26:52+00:00</time>
      </trkpt>
      <trkpt lat="43.316345214844" lon="-7.6030917167664">
        <ele>471</ele>
        <time>2019-09-11T09:26:53+00:00</time>
      </trkpt>
      <trkpt lat="43.31636428833" lon="-7.603111743927">
        <ele>471</ele>
        <time>2019-09-11T09:26:54+00:00</time>
      </trkpt>
      <trkpt lat="43.316379547119" lon="-7.603129863739">
        <ele>471</ele>
        <time>2019-09-11T09:26:55+00:00</time>
      </trkpt>
      <trkpt lat="43.316390991211" lon="-7.6031498908997">
        <ele>472</ele>
        <time>2019-09-11T09:26:56+00:00</time>
      </trkpt>
      <trkpt lat="43.316402435303" lon="-7.6031684875488">
        <ele>471</ele>
        <time>2019-09-11T09:26:57+00:00</time>
      </trkpt>
      <trkpt lat="43.316421508789" lon="-7.6031851768494">
        <ele>472</ele>
        <time>2019-09-11T09:26:58+00:00</time>
      </trkpt>
      <trkpt lat="43.316436767578" lon="-7.6032018661499">
        <ele>472</ele>
        <time>2019-09-11T09:26:59+00:00</time>
      </trkpt>
      <trkpt lat="43.316452026367" lon="-7.6032166481018">
        <ele>472</ele>
        <time>2019-09-11T09:27:00+00:00</time>
      </trkpt>
      <trkpt lat="43.316463470459" lon="-7.6032299995422">
        <ele>472</ele>
        <time>2019-09-11T09:27:01+00:00</time>
      </trkpt>
      <trkpt lat="43.316474914551" lon="-7.603241443634">
        <ele>472</ele>
        <time>2019-09-11T09:27:02+00:00</time>
      </trkpt>
      <trkpt lat="43.316486358643" lon="-7.6032581329346">
        <ele>471</ele>
        <time>2019-09-11T09:27:03+00:00</time>
      </trkpt>
      <trkpt lat="43.316493988037" lon="-7.603271484375">
        <ele>471</ele>
        <time>2019-09-11T09:27:04+00:00</time>
      </trkpt>
      <trkpt lat="43.316501617432" lon="-7.6032848358154">
        <ele>471</ele>
        <time>2019-09-11T09:27:05+00:00</time>
      </trkpt>
      <trkpt lat="43.316509246826" lon="-7.6032981872559">
        <ele>471</ele>
        <time>2019-09-11T09:27:06+00:00</time>
      </trkpt>
      <trkpt lat="43.316516876221" lon="-7.6033101081848">
        <ele>471</ele>
        <time>2019-09-11T09:27:07+00:00</time>
      </trkpt>
      <trkpt lat="43.316520690918" lon="-7.6033182144165">
        <ele>470</ele>
        <time>2019-09-11T09:27:08+00:00</time>
      </trkpt>
      <trkpt lat="43.316520690918" lon="-7.6033234596252">
        <ele>470</ele>
        <time>2019-09-11T09:27:09+00:00</time>
      </trkpt>
      <trkpt lat="43.316520690918" lon="-7.603334903717">
        <ele>470</ele>
        <time>2019-09-11T09:27:10+00:00</time>
      </trkpt>
      <trkpt lat="43.316535949707" lon="-7.6033568382263">
        <ele>470</ele>
        <time>2019-09-11T09:27:11+00:00</time>
      </trkpt>
      <trkpt lat="43.316543579102" lon="-7.6033668518066">
        <ele>470</ele>
        <time>2019-09-11T09:27:12+00:00</time>
      </trkpt>
      <trkpt lat="43.316539764404" lon="-7.6033735275269">
        <ele>470</ele>
        <time>2019-09-11T09:27:13+00:00</time>
      </trkpt>
      <trkpt lat="43.316535949707" lon="-7.603376865387">
        <ele>470</ele>
        <time>2019-09-11T09:27:14+00:00</time>
      </trkpt>
      <trkpt lat="43.316539764404" lon="-7.6033902168274">
        <ele>469</ele>
        <time>2019-09-11T09:27:15+00:00</time>
      </trkpt>
      <trkpt lat="43.316547393799" lon="-7.6034083366394">
        <ele>469</ele>
        <time>2019-09-11T09:27:16+00:00</time>
      </trkpt>
      <trkpt lat="43.316551208496" lon="-7.6034264564514">
        <ele>469</ele>
        <time>2019-09-11T09:27:17+00:00</time>
      </trkpt>
      <trkpt lat="43.316562652588" lon="-7.6034417152405">
        <ele>469</ele>
        <time>2019-09-11T09:27:18+00:00</time>
      </trkpt>
      <trkpt lat="43.316570281982" lon="-7.6034564971924">
        <ele>469</ele>
        <time>2019-09-11T09:27:19+00:00</time>
      </trkpt>
      <trkpt lat="43.316562652588" lon="-7.6034665107727">
        <ele>469</ele>
        <time>2019-09-11T09:27:20+00:00</time>
      </trkpt>
      <trkpt lat="43.316566467285" lon="-7.6034798622131">
        <ele>468</ele>
        <time>2019-09-11T09:27:21+00:00</time>
      </trkpt>
      <trkpt lat="43.316570281982" lon="-7.6034917831421">
        <ele>468</ele>
        <time>2019-09-11T09:27:22+00:00</time>
      </trkpt>
      <trkpt lat="43.316581726074" lon="-7.6035084724426">
        <ele>468</ele>
        <time>2019-09-11T09:27:23+00:00</time>
      </trkpt>
      <trkpt lat="43.316585540771" lon="-7.6035251617432">
        <ele>468</ele>
        <time>2019-09-11T09:27:24+00:00</time>
      </trkpt>
      <trkpt lat="43.316593170166" lon="-7.6035399436951">
        <ele>468</ele>
        <time>2019-09-11T09:27:25+00:00</time>
      </trkpt>
      <trkpt lat="43.316604614258" lon="-7.6035566329956">
        <ele>467</ele>
        <time>2019-09-11T09:27:26+00:00</time>
      </trkpt>
      <trkpt lat="43.316608428955" lon="-7.6035718917847">
        <ele>467</ele>
        <time>2019-09-11T09:27:27+00:00</time>
      </trkpt>
      <trkpt lat="43.316619873047" lon="-7.6035866737366">
        <ele>467</ele>
        <time>2019-09-11T09:27:28+00:00</time>
      </trkpt>
      <trkpt lat="43.316627502441" lon="-7.6035966873169">
        <ele>467</ele>
        <time>2019-09-11T09:27:29+00:00</time>
      </trkpt>
      <trkpt lat="43.316631317139" lon="-7.6036100387573">
        <ele>467</ele>
        <time>2019-09-11T09:27:30+00:00</time>
      </trkpt>
      <trkpt lat="43.31664276123" lon="-7.6036267280579">
        <ele>467</ele>
        <time>2019-09-11T09:27:31+00:00</time>
      </trkpt>
      <trkpt lat="43.316650390625" lon="-7.6036381721497">
        <ele>467</ele>
        <time>2019-09-11T09:27:32+00:00</time>
      </trkpt>
      <trkpt lat="43.316654205322" lon="-7.60364818573">
        <ele>467</ele>
        <time>2019-09-11T09:27:33+00:00</time>
      </trkpt>
      <trkpt lat="43.316654205322" lon="-7.603663444519">
        <ele>467</ele>
        <time>2019-09-11T09:27:34+00:00</time>
      </trkpt>
      <trkpt lat="43.316654205322" lon="-7.6036801338196">
        <ele>466</ele>
        <time>2019-09-11T09:27:35+00:00</time>
      </trkpt>
      <trkpt lat="43.316654205322" lon="-7.6036949157715">
        <ele>466</ele>
        <time>2019-09-11T09:27:36+00:00</time>
      </trkpt>
      <trkpt lat="43.316654205322" lon="-7.6037149429321">
        <ele>466</ele>
        <time>2019-09-11T09:27:37+00:00</time>
      </trkpt>
      <trkpt lat="43.316650390625" lon="-7.6037349700928">
        <ele>466</ele>
        <time>2019-09-11T09:27:38+00:00</time>
      </trkpt>
      <trkpt lat="43.316654205322" lon="-7.6037449836731">
        <ele>466</ele>
        <time>2019-09-11T09:27:39+00:00</time>
      </trkpt>
      <trkpt lat="43.316654205322" lon="-7.6037569046021">
        <ele>466</ele>
        <time>2019-09-11T09:27:40+00:00</time>
      </trkpt>
      <trkpt lat="43.316654205322" lon="-7.6037750244141">
        <ele>466</ele>
        <time>2019-09-11T09:27:41+00:00</time>
      </trkpt>
      <trkpt lat="43.316646575928" lon="-7.6037917137146">
        <ele>466</ele>
        <time>2019-09-11T09:27:42+00:00</time>
      </trkpt>
      <trkpt lat="43.316646575928" lon="-7.6038031578064">
        <ele>466</ele>
        <time>2019-09-11T09:27:43+00:00</time>
      </trkpt>
      <trkpt lat="43.316654205322" lon="-7.6038150787354">
        <ele>466</ele>
        <time>2019-09-11T09:27:44+00:00</time>
      </trkpt>
      <trkpt lat="43.316650390625" lon="-7.6038284301758">
        <ele>466</ele>
        <time>2019-09-11T09:27:45+00:00</time>
      </trkpt>
      <trkpt lat="43.31665802002" lon="-7.6038365364075">
        <ele>466</ele>
        <time>2019-09-11T09:27:46+00:00</time>
      </trkpt>
      <trkpt lat="43.316661834717" lon="-7.6038484573364">
        <ele>466</ele>
        <time>2019-09-11T09:27:47+00:00</time>
      </trkpt>
      <trkpt lat="43.316661834717" lon="-7.6038551330566">
        <ele>466</ele>
        <time>2019-09-11T09:27:48+00:00</time>
      </trkpt>
      <trkpt lat="43.316665649414" lon="-7.6038684844971">
        <ele>465</ele>
        <time>2019-09-11T09:27:49+00:00</time>
      </trkpt>
      <trkpt lat="43.316673278809" lon="-7.6038799285889">
        <ele>465</ele>
        <time>2019-09-11T09:27:50+00:00</time>
      </trkpt>
      <trkpt lat="43.316680908203" lon="-7.6038918495178">
        <ele>465</ele>
        <time>2019-09-11T09:27:51+00:00</time>
      </trkpt>
      <trkpt lat="43.3166847229" lon="-7.6039066314697">
        <ele>465</ele>
        <time>2019-09-11T09:27:52+00:00</time>
      </trkpt>
      <trkpt lat="43.316688537598" lon="-7.6039266586304">
        <ele>465</ele>
        <time>2019-09-11T09:27:53+00:00</time>
      </trkpt>
      <trkpt lat="43.316696166992" lon="-7.6039447784424">
        <ele>465</ele>
        <time>2019-09-11T09:27:54+00:00</time>
      </trkpt>
      <trkpt lat="43.316707611084" lon="-7.6039633750916">
        <ele>466</ele>
        <time>2019-09-11T09:27:55+00:00</time>
      </trkpt>
      <trkpt lat="43.316715240479" lon="-7.6039814949036">
        <ele>466</ele>
        <time>2019-09-11T09:27:56+00:00</time>
      </trkpt>
      <trkpt lat="43.316722869873" lon="-7.6039981842041">
        <ele>465</ele>
        <time>2019-09-11T09:27:57+00:00</time>
      </trkpt>
      <trkpt lat="43.31672668457" lon="-7.6040134429932">
        <ele>465</ele>
        <time>2019-09-11T09:27:58+00:00</time>
      </trkpt>
      <trkpt lat="43.316734313965" lon="-7.6040315628052">
        <ele>465</ele>
        <time>2019-09-11T09:27:59+00:00</time>
      </trkpt>
      <trkpt lat="43.316749572754" lon="-7.6040501594543">
        <ele>465</ele>
        <time>2019-09-11T09:28:00+00:00</time>
      </trkpt>
      <trkpt lat="43.316764831543" lon="-7.6040668487549">
        <ele>465</ele>
        <time>2019-09-11T09:28:01+00:00</time>
      </trkpt>
      <trkpt lat="43.316764831543" lon="-7.6040802001953">
        <ele>464</ele>
        <time>2019-09-11T09:28:02+00:00</time>
      </trkpt>
      <trkpt lat="43.316764831543" lon="-7.6040935516357">
        <ele>464</ele>
        <time>2019-09-11T09:28:03+00:00</time>
      </trkpt>
      <trkpt lat="43.316776275635" lon="-7.6041049957275">
        <ele>464</ele>
        <time>2019-09-11T09:28:04+00:00</time>
      </trkpt>
      <trkpt lat="43.316780090332" lon="-7.6041197776794">
        <ele>464</ele>
        <time>2019-09-11T09:28:05+00:00</time>
      </trkpt>
      <trkpt lat="43.316795349121" lon="-7.6041264533997">
        <ele>463</ele>
        <time>2019-09-11T09:28:06+00:00</time>
      </trkpt>
      <trkpt lat="43.316802978516" lon="-7.6041398048401">
        <ele>463</ele>
        <time>2019-09-11T09:28:07+00:00</time>
      </trkpt>
      <trkpt lat="43.316806793213" lon="-7.6041564941406">
        <ele>462</ele>
        <time>2019-09-11T09:28:08+00:00</time>
      </trkpt>
      <trkpt lat="43.316806793213" lon="-7.6041750907898">
        <ele>462</ele>
        <time>2019-09-11T09:28:09+00:00</time>
      </trkpt>
      <trkpt lat="43.31681060791" lon="-7.6041984558105">
        <ele>462</ele>
        <time>2019-09-11T09:28:10+00:00</time>
      </trkpt>
      <trkpt lat="43.316814422607" lon="-7.6042218208313">
        <ele>462</ele>
        <time>2019-09-11T09:28:11+00:00</time>
      </trkpt>
      <trkpt lat="43.316818237305" lon="-7.6042466163635">
        <ele>462</ele>
        <time>2019-09-11T09:28:12+00:00</time>
      </trkpt>
      <trkpt lat="43.316822052002" lon="-7.6042666435242">
        <ele>462</ele>
        <time>2019-09-11T09:28:13+00:00</time>
      </trkpt>
      <trkpt lat="43.316822052002" lon="-7.6042881011963">
        <ele>462</ele>
        <time>2019-09-11T09:28:14+00:00</time>
      </trkpt>
      <trkpt lat="43.316829681396" lon="-7.6043014526367">
        <ele>461</ele>
        <time>2019-09-11T09:28:15+00:00</time>
      </trkpt>
      <trkpt lat="43.316833496094" lon="-7.6043148040771">
        <ele>461</ele>
        <time>2019-09-11T09:28:16+00:00</time>
      </trkpt>
      <trkpt lat="43.316837310791" lon="-7.6043281555176">
        <ele>461</ele>
        <time>2019-09-11T09:28:17+00:00</time>
      </trkpt>
      <trkpt lat="43.316841125488" lon="-7.604341506958">
        <ele>461</ele>
        <time>2019-09-11T09:28:18+00:00</time>
      </trkpt>
      <trkpt lat="43.316841125488" lon="-7.604353427887">
        <ele>461</ele>
        <time>2019-09-11T09:28:19+00:00</time>
      </trkpt>
      <trkpt lat="43.316837310791" lon="-7.6043682098389">
        <ele>461</ele>
        <time>2019-09-11T09:28:20+00:00</time>
      </trkpt>
      <trkpt lat="43.316837310791" lon="-7.6043834686279">
        <ele>461</ele>
        <time>2019-09-11T09:28:21+00:00</time>
      </trkpt>
      <trkpt lat="43.316841125488" lon="-7.6043968200684">
        <ele>461</ele>
        <time>2019-09-11T09:28:22+00:00</time>
      </trkpt>
      <trkpt lat="43.316844940186" lon="-7.6044082641602">
        <ele>461</ele>
        <time>2019-09-11T09:28:23+00:00</time>
      </trkpt>
      <trkpt lat="43.31685256958" lon="-7.6044249534607">
        <ele>461</ele>
        <time>2019-09-11T09:28:24+00:00</time>
      </trkpt>
      <trkpt lat="43.316856384277" lon="-7.6044335365295">
        <ele>462</ele>
        <time>2019-09-11T09:28:25+00:00</time>
      </trkpt>
      <trkpt lat="43.31685256958" lon="-7.6044449806213">
        <ele>462</ele>
        <time>2019-09-11T09:28:26+00:00</time>
      </trkpt>
      <trkpt lat="43.316844940186" lon="-7.604465007782">
        <ele>462</ele>
        <time>2019-09-11T09:28:27+00:00</time>
      </trkpt>
      <trkpt lat="43.316844940186" lon="-7.604483127594">
        <ele>462</ele>
        <time>2019-09-11T09:28:28+00:00</time>
      </trkpt>
      <trkpt lat="43.316841125488" lon="-7.6045083999634">
        <ele>462</ele>
        <time>2019-09-11T09:28:29+00:00</time>
      </trkpt>
      <trkpt lat="43.316841125488" lon="-7.604528427124">
        <ele>462</ele>
        <time>2019-09-11T09:28:30+00:00</time>
      </trkpt>
      <trkpt lat="43.316844940186" lon="-7.6045432090759">
        <ele>462</ele>
        <time>2019-09-11T09:28:31+00:00</time>
      </trkpt>
      <trkpt lat="43.316844940186" lon="-7.6045598983765">
        <ele>462</ele>
        <time>2019-09-11T09:28:32+00:00</time>
      </trkpt>
      <trkpt lat="43.31685256958" lon="-7.6045784950256">
        <ele>462</ele>
        <time>2019-09-11T09:28:33+00:00</time>
      </trkpt>
      <trkpt lat="43.31685256958" lon="-7.6045932769775">
        <ele>462</ele>
        <time>2019-09-11T09:28:34+00:00</time>
      </trkpt>
      <trkpt lat="43.316856384277" lon="-7.6046085357666">
        <ele>462</ele>
        <time>2019-09-11T09:28:35+00:00</time>
      </trkpt>
      <trkpt lat="43.316871643066" lon="-7.6046133041382">
        <ele>462</ele>
        <time>2019-09-11T09:28:36+00:00</time>
      </trkpt>
      <trkpt lat="43.316875457764" lon="-7.604621887207">
        <ele>462</ele>
        <time>2019-09-11T09:28:37+00:00</time>
      </trkpt>
      <trkpt lat="43.316883087158" lon="-7.6046347618103">
        <ele>462</ele>
        <time>2019-09-11T09:28:38+00:00</time>
      </trkpt>
      <trkpt lat="43.316883087158" lon="-7.6046481132507">
        <ele>462</ele>
        <time>2019-09-11T09:28:39+00:00</time>
      </trkpt>
      <trkpt lat="43.316886901855" lon="-7.6046667098999">
        <ele>462</ele>
        <time>2019-09-11T09:28:40+00:00</time>
      </trkpt>
      <trkpt lat="43.316886901855" lon="-7.6046800613403">
        <ele>461</ele>
        <time>2019-09-11T09:28:41+00:00</time>
      </trkpt>
      <trkpt lat="43.31689453125" lon="-7.6046981811523">
        <ele>461</ele>
        <time>2019-09-11T09:28:42+00:00</time>
      </trkpt>
      <trkpt lat="43.316898345947" lon="-7.6047134399414">
        <ele>461</ele>
        <time>2019-09-11T09:28:43+00:00</time>
      </trkpt>
      <trkpt lat="43.316898345947" lon="-7.6047282218933">
        <ele>461</ele>
        <time>2019-09-11T09:28:44+00:00</time>
      </trkpt>
      <trkpt lat="43.316898345947" lon="-7.6047434806824">
        <ele>461</ele>
        <time>2019-09-11T09:28:45+00:00</time>
      </trkpt>
      <trkpt lat="43.316898345947" lon="-7.6047582626343">
        <ele>461</ele>
        <time>2019-09-11T09:28:46+00:00</time>
      </trkpt>
      <trkpt lat="43.316898345947" lon="-7.6047735214233">
        <ele>460</ele>
        <time>2019-09-11T09:28:47+00:00</time>
      </trkpt>
      <trkpt lat="43.316902160645" lon="-7.6047949790955">
        <ele>460</ele>
        <time>2019-09-11T09:28:48+00:00</time>
      </trkpt>
      <trkpt lat="43.316909790039" lon="-7.6048150062561">
        <ele>460</ele>
        <time>2019-09-11T09:28:49+00:00</time>
      </trkpt>
      <trkpt lat="43.316909790039" lon="-7.604829788208">
        <ele>460</ele>
        <time>2019-09-11T09:28:50+00:00</time>
      </trkpt>
      <trkpt lat="43.316905975342" lon="-7.6048431396484">
        <ele>460</ele>
        <time>2019-09-11T09:28:51+00:00</time>
      </trkpt>
      <trkpt lat="43.316898345947" lon="-7.6048617362976">
        <ele>460</ele>
        <time>2019-09-11T09:28:52+00:00</time>
      </trkpt>
      <trkpt lat="43.316898345947" lon="-7.6048798561096">
        <ele>460</ele>
        <time>2019-09-11T09:28:53+00:00</time>
      </trkpt>
      <trkpt lat="43.316898345947" lon="-7.6049032211304">
        <ele>460</ele>
        <time>2019-09-11T09:28:54+00:00</time>
      </trkpt>
      <trkpt lat="43.316902160645" lon="-7.604923248291">
        <ele>460</ele>
        <time>2019-09-11T09:28:55+00:00</time>
      </trkpt>
      <trkpt lat="43.316905975342" lon="-7.6049385070801">
        <ele>460</ele>
        <time>2019-09-11T09:28:56+00:00</time>
      </trkpt>
      <trkpt lat="43.316909790039" lon="-7.604953289032">
        <ele>459</ele>
        <time>2019-09-11T09:28:57+00:00</time>
      </trkpt>
      <trkpt lat="43.316917419434" lon="-7.6049666404724">
        <ele>459</ele>
        <time>2019-09-11T09:28:58+00:00</time>
      </trkpt>
      <trkpt lat="43.316917419434" lon="-7.6049799919128">
        <ele>459</ele>
        <time>2019-09-11T09:28:59+00:00</time>
      </trkpt>
      <trkpt lat="43.316925048828" lon="-7.6049947738647">
        <ele>459</ele>
        <time>2019-09-11T09:29:00+00:00</time>
      </trkpt>
      <trkpt lat="43.316932678223" lon="-7.605001449585">
        <ele>458</ele>
        <time>2019-09-11T09:29:01+00:00</time>
      </trkpt>
      <trkpt lat="43.31693649292" lon="-7.605016708374">
        <ele>458</ele>
        <time>2019-09-11T09:29:02+00:00</time>
      </trkpt>
      <trkpt lat="43.316944122314" lon="-7.6050367355347">
        <ele>458</ele>
        <time>2019-09-11T09:29:03+00:00</time>
      </trkpt>
      <trkpt lat="43.316951751709" lon="-7.6050548553467">
        <ele>458</ele>
        <time>2019-09-11T09:29:04+00:00</time>
      </trkpt>
      <trkpt lat="43.316955566406" lon="-7.6050701141357">
        <ele>458</ele>
        <time>2019-09-11T09:29:05+00:00</time>
      </trkpt>
      <trkpt lat="43.316963195801" lon="-7.6050882339478">
        <ele>458</ele>
        <time>2019-09-11T09:29:06+00:00</time>
      </trkpt>
      <trkpt lat="43.316970825195" lon="-7.6051082611084">
        <ele>458</ele>
        <time>2019-09-11T09:29:07+00:00</time>
      </trkpt>
      <trkpt lat="43.31697845459" lon="-7.6051301956177">
        <ele>458</ele>
        <time>2019-09-11T09:29:08+00:00</time>
      </trkpt>
      <trkpt lat="43.31697845459" lon="-7.6051483154297">
        <ele>458</ele>
        <time>2019-09-11T09:29:09+00:00</time>
      </trkpt>
      <trkpt lat="43.316982269287" lon="-7.6051630973816">
        <ele>458</ele>
        <time>2019-09-11T09:29:10+00:00</time>
      </trkpt>
      <trkpt lat="43.316986083984" lon="-7.6051831245422">
        <ele>458</ele>
        <time>2019-09-11T09:29:11+00:00</time>
      </trkpt>
      <trkpt lat="43.316986083984" lon="-7.6051983833313">
        <ele>458</ele>
        <time>2019-09-11T09:29:12+00:00</time>
      </trkpt>
      <trkpt lat="43.316989898682" lon="-7.6052117347717">
        <ele>459</ele>
        <time>2019-09-11T09:29:13+00:00</time>
      </trkpt>
      <trkpt lat="43.316989898682" lon="-7.605236530304">
        <ele>459</ele>
        <time>2019-09-11T09:29:14+00:00</time>
      </trkpt>
      <trkpt lat="43.316989898682" lon="-7.6052584648132">
        <ele>459</ele>
        <time>2019-09-11T09:29:15+00:00</time>
      </trkpt>
      <trkpt lat="43.316997528076" lon="-7.6052784919739">
        <ele>459</ele>
        <time>2019-09-11T09:29:16+00:00</time>
      </trkpt>
      <trkpt lat="43.317001342773" lon="-7.6052966117859">
        <ele>460</ele>
        <time>2019-09-11T09:29:17+00:00</time>
      </trkpt>
      <trkpt lat="43.317012786865" lon="-7.6053133010864">
        <ele>460</ele>
        <time>2019-09-11T09:29:18+00:00</time>
      </trkpt>
      <trkpt lat="43.317016601562" lon="-7.6053266525269">
        <ele>459</ele>
        <time>2019-09-11T09:29:19+00:00</time>
      </trkpt>
      <trkpt lat="43.317028045654" lon="-7.6053400039673">
        <ele>459</ele>
        <time>2019-09-11T09:29:20+00:00</time>
      </trkpt>
      <trkpt lat="43.317035675049" lon="-7.6053533554077">
        <ele>459</ele>
        <time>2019-09-11T09:29:21+00:00</time>
      </trkpt>
      <trkpt lat="43.317047119141" lon="-7.6053667068481">
        <ele>459</ele>
        <time>2019-09-11T09:29:22+00:00</time>
      </trkpt>
      <trkpt lat="43.317058563232" lon="-7.6053767204285">
        <ele>459</ele>
        <time>2019-09-11T09:29:23+00:00</time>
      </trkpt>
      <trkpt lat="43.317070007324" lon="-7.6053848266602">
        <ele>459</ele>
        <time>2019-09-11T09:29:24+00:00</time>
      </trkpt>
      <trkpt lat="43.317081451416" lon="-7.6053948402405">
        <ele>459</ele>
        <time>2019-09-11T09:29:25+00:00</time>
      </trkpt>
      <trkpt lat="43.317089080811" lon="-7.6054000854492">
        <ele>459</ele>
        <time>2019-09-11T09:29:26+00:00</time>
      </trkpt>
      <trkpt lat="43.317096710205" lon="-7.6054048538208">
        <ele>459</ele>
        <time>2019-09-11T09:29:27+00:00</time>
      </trkpt>
      <trkpt lat="43.3171043396" lon="-7.605411529541">
        <ele>459</ele>
        <time>2019-09-11T09:29:28+00:00</time>
      </trkpt>
      <trkpt lat="43.317108154297" lon="-7.60542345047">
        <ele>459</ele>
        <time>2019-09-11T09:29:29+00:00</time>
      </trkpt>
      <trkpt lat="43.317111968994" lon="-7.6054248809814">
        <ele>459</ele>
        <time>2019-09-11T09:29:30+00:00</time>
      </trkpt>
      <trkpt lat="43.317123413086" lon="-7.6054301261902">
        <ele>459</ele>
        <time>2019-09-11T09:29:31+00:00</time>
      </trkpt>
      <trkpt lat="43.317127227783" lon="-7.6054315567017">
        <ele>459</ele>
        <time>2019-09-11T09:29:32+00:00</time>
      </trkpt>
      <trkpt lat="43.317134857178" lon="-7.6054368019104">
        <ele>459</ele>
        <time>2019-09-11T09:29:33+00:00</time>
      </trkpt>
      <trkpt lat="43.317142486572" lon="-7.6054449081421">
        <ele>459</ele>
        <time>2019-09-11T09:29:34+00:00</time>
      </trkpt>
      <trkpt lat="43.317161560059" lon="-7.6054635047913">
        <ele>459</ele>
        <time>2019-09-11T09:29:35+00:00</time>
      </trkpt>
      <trkpt lat="43.317169189453" lon="-7.6054782867432">
        <ele>459</ele>
        <time>2019-09-11T09:29:36+00:00</time>
      </trkpt>
      <trkpt lat="43.317176818848" lon="-7.6054916381836">
        <ele>459</ele>
        <time>2019-09-11T09:29:37+00:00</time>
      </trkpt>
      <trkpt lat="43.317176818848" lon="-7.605504989624">
        <ele>458</ele>
        <time>2019-09-11T09:29:38+00:00</time>
      </trkpt>
      <trkpt lat="43.317180633545" lon="-7.6055150032043">
        <ele>458</ele>
        <time>2019-09-11T09:29:39+00:00</time>
      </trkpt>
      <trkpt lat="43.317184448242" lon="-7.605523109436">
        <ele>459</ele>
        <time>2019-09-11T09:29:40+00:00</time>
      </trkpt>
      <trkpt lat="43.317195892334" lon="-7.6055331230164">
        <ele>459</ele>
        <time>2019-09-11T09:29:41+00:00</time>
      </trkpt>
      <trkpt lat="43.317203521729" lon="-7.6055417060852">
        <ele>459</ele>
        <time>2019-09-11T09:29:42+00:00</time>
      </trkpt>
      <trkpt lat="43.317218780518" lon="-7.605553150177">
        <ele>458</ele>
        <time>2019-09-11T09:29:43+00:00</time>
      </trkpt>
      <trkpt lat="43.317230224609" lon="-7.605565071106">
        <ele>458</ele>
        <time>2019-09-11T09:29:44+00:00</time>
      </trkpt>
      <trkpt lat="43.317230224609" lon="-7.6055798530579">
        <ele>458</ele>
        <time>2019-09-11T09:29:45+00:00</time>
      </trkpt>
      <trkpt lat="43.317234039307" lon="-7.605598449707">
        <ele>458</ele>
        <time>2019-09-11T09:29:46+00:00</time>
      </trkpt>
      <trkpt lat="43.317241668701" lon="-7.6056132316589">
        <ele>458</ele>
        <time>2019-09-11T09:29:47+00:00</time>
      </trkpt>
      <trkpt lat="43.317245483398" lon="-7.6056299209595">
        <ele>457</ele>
        <time>2019-09-11T09:29:48+00:00</time>
      </trkpt>
      <trkpt lat="43.317253112793" lon="-7.60564661026">
        <ele>457</ele>
        <time>2019-09-11T09:29:49+00:00</time>
      </trkpt>
      <trkpt lat="43.317260742188" lon="-7.6056652069092">
        <ele>457</ele>
        <time>2019-09-11T09:29:50+00:00</time>
      </trkpt>
      <trkpt lat="43.31725692749" lon="-7.6056833267212">
        <ele>457</ele>
        <time>2019-09-11T09:29:51+00:00</time>
      </trkpt>
      <trkpt lat="43.31725692749" lon="-7.6057014465332">
        <ele>456</ele>
        <time>2019-09-11T09:29:52+00:00</time>
      </trkpt>
      <trkpt lat="43.31725692749" lon="-7.6057233810425">
        <ele>456</ele>
        <time>2019-09-11T09:29:53+00:00</time>
      </trkpt>
      <trkpt lat="43.317260742188" lon="-7.6057467460632">
        <ele>456</ele>
        <time>2019-09-11T09:29:54+00:00</time>
      </trkpt>
      <trkpt lat="43.317264556885" lon="-7.6057667732239">
        <ele>456</ele>
        <time>2019-09-11T09:29:55+00:00</time>
      </trkpt>
      <trkpt lat="43.317276000977" lon="-7.605788230896">
        <ele>456</ele>
        <time>2019-09-11T09:29:56+00:00</time>
      </trkpt>
      <trkpt lat="43.317287445068" lon="-7.6058082580566">
        <ele>456</ele>
        <time>2019-09-11T09:29:57+00:00</time>
      </trkpt>
      <trkpt lat="43.317302703857" lon="-7.6058249473572">
        <ele>456</ele>
        <time>2019-09-11T09:29:58+00:00</time>
      </trkpt>
      <trkpt lat="43.317310333252" lon="-7.6058402061462">
        <ele>456</ele>
        <time>2019-09-11T09:29:59+00:00</time>
      </trkpt>
      <trkpt lat="43.317314147949" lon="-7.6058535575867">
        <ele>456</ele>
        <time>2019-09-11T09:30:00+00:00</time>
      </trkpt>
      <trkpt lat="43.317314147949" lon="-7.605863571167">
        <ele>456</ele>
        <time>2019-09-11T09:30:01+00:00</time>
      </trkpt>
      <trkpt lat="43.317321777344" lon="-7.6058764457703">
        <ele>456</ele>
        <time>2019-09-11T09:30:02+00:00</time>
      </trkpt>
      <trkpt lat="43.317333221436" lon="-7.6058917045593">
        <ele>456</ele>
        <time>2019-09-11T09:30:03+00:00</time>
      </trkpt>
      <trkpt lat="43.317333221436" lon="-7.6059083938599">
        <ele>456</ele>
        <time>2019-09-11T09:30:04+00:00</time>
      </trkpt>
      <trkpt lat="43.31734085083" lon="-7.6059284210205">
        <ele>456</ele>
        <time>2019-09-11T09:30:05+00:00</time>
      </trkpt>
      <trkpt lat="43.317352294922" lon="-7.6059465408325">
        <ele>456</ele>
        <time>2019-09-11T09:30:06+00:00</time>
      </trkpt>
      <trkpt lat="43.317352294922" lon="-7.6059632301331">
        <ele>456</ele>
        <time>2019-09-11T09:30:07+00:00</time>
      </trkpt>
      <trkpt lat="43.317359924316" lon="-7.6059799194336">
        <ele>456</ele>
        <time>2019-09-11T09:30:08+00:00</time>
      </trkpt>
      <trkpt lat="43.317359924316" lon="-7.605993270874">
        <ele>456</ele>
        <time>2019-09-11T09:30:09+00:00</time>
      </trkpt>
      <trkpt lat="43.317359924316" lon="-7.6060085296631">
        <ele>456</ele>
        <time>2019-09-11T09:30:10+00:00</time>
      </trkpt>
      <trkpt lat="43.317363739014" lon="-7.606023311615">
        <ele>456</ele>
        <time>2019-09-11T09:30:11+00:00</time>
      </trkpt>
      <trkpt lat="43.317371368408" lon="-7.6060352325439">
        <ele>457</ele>
        <time>2019-09-11T09:30:12+00:00</time>
      </trkpt>
      <trkpt lat="43.317367553711" lon="-7.6060481071472">
        <ele>456</ele>
        <time>2019-09-11T09:30:13+00:00</time>
      </trkpt>
      <trkpt lat="43.317375183105" lon="-7.6060581207275">
        <ele>457</ele>
        <time>2019-09-11T09:30:14+00:00</time>
      </trkpt>
      <trkpt lat="43.317394256592" lon="-7.6060647964478">
        <ele>457</ele>
        <time>2019-09-11T09:30:15+00:00</time>
      </trkpt>
      <trkpt lat="43.317401885986" lon="-7.6060767173767">
        <ele>457</ele>
        <time>2019-09-11T09:30:16+00:00</time>
      </trkpt>
      <trkpt lat="43.317409515381" lon="-7.6060900688171">
        <ele>457</ele>
        <time>2019-09-11T09:30:17+00:00</time>
      </trkpt>
      <trkpt lat="43.317420959473" lon="-7.6061015129089">
        <ele>457</ele>
        <time>2019-09-11T09:30:18+00:00</time>
      </trkpt>
      <trkpt lat="43.317428588867" lon="-7.606116771698">
        <ele>457</ele>
        <time>2019-09-11T09:30:19+00:00</time>
      </trkpt>
      <trkpt lat="43.317428588867" lon="-7.6061315536499">
        <ele>457</ele>
        <time>2019-09-11T09:30:20+00:00</time>
      </trkpt>
      <trkpt lat="43.317420959473" lon="-7.6061434745789">
        <ele>457</ele>
        <time>2019-09-11T09:30:21+00:00</time>
      </trkpt>
      <trkpt lat="43.317417144775" lon="-7.6061601638794">
        <ele>457</ele>
        <time>2019-09-11T09:30:22+00:00</time>
      </trkpt>
      <trkpt lat="43.317420959473" lon="-7.6061816215515">
        <ele>458</ele>
        <time>2019-09-11T09:30:23+00:00</time>
      </trkpt>
      <trkpt lat="43.317417144775" lon="-7.6062035560608">
        <ele>458</ele>
        <time>2019-09-11T09:30:24+00:00</time>
      </trkpt>
      <trkpt lat="43.317409515381" lon="-7.6062164306641">
        <ele>458</ele>
        <time>2019-09-11T09:30:25+00:00</time>
      </trkpt>
      <trkpt lat="43.317405700684" lon="-7.6062297821045">
        <ele>458</ele>
        <time>2019-09-11T09:30:26+00:00</time>
      </trkpt>
      <trkpt lat="43.317405700684" lon="-7.6062417030334">
        <ele>458</ele>
        <time>2019-09-11T09:30:27+00:00</time>
      </trkpt>
      <trkpt lat="43.317405700684" lon="-7.6062517166138">
        <ele>458</ele>
        <time>2019-09-11T09:30:28+00:00</time>
      </trkpt>
      <trkpt lat="43.317401885986" lon="-7.6062650680542">
        <ele>458</ele>
        <time>2019-09-11T09:30:29+00:00</time>
      </trkpt>
      <trkpt lat="43.317401885986" lon="-7.6062831878662">
        <ele>458</ele>
        <time>2019-09-11T09:30:30+00:00</time>
      </trkpt>
      <trkpt lat="43.317401885986" lon="-7.6062998771667">
        <ele>458</ele>
        <time>2019-09-11T09:30:31+00:00</time>
      </trkpt>
      <trkpt lat="43.317405700684" lon="-7.6063117980957">
        <ele>458</ele>
        <time>2019-09-11T09:30:32+00:00</time>
      </trkpt>
      <trkpt lat="43.317413330078" lon="-7.6063265800476">
        <ele>458</ele>
        <time>2019-09-11T09:30:33+00:00</time>
      </trkpt>
      <trkpt lat="43.317420959473" lon="-7.6063385009766">
        <ele>458</ele>
        <time>2019-09-11T09:30:34+00:00</time>
      </trkpt>
      <trkpt lat="43.317432403564" lon="-7.6063599586487">
        <ele>458</ele>
        <time>2019-09-11T09:30:35+00:00</time>
      </trkpt>
      <trkpt lat="43.317440032959" lon="-7.6063766479492">
        <ele>457</ele>
        <time>2019-09-11T09:30:36+00:00</time>
      </trkpt>
      <trkpt lat="43.317440032959" lon="-7.6063885688782">
        <ele>457</ele>
        <time>2019-09-11T09:30:37+00:00</time>
      </trkpt>
      <trkpt lat="43.317440032959" lon="-7.6064014434814">
        <ele>457</ele>
        <time>2019-09-11T09:30:38+00:00</time>
      </trkpt>
      <trkpt lat="43.317455291748" lon="-7.6064281463623">
        <ele>457</ele>
        <time>2019-09-11T09:30:39+00:00</time>
      </trkpt>
      <trkpt lat="43.317459106445" lon="-7.6064467430115">
        <ele>457</ele>
        <time>2019-09-11T09:30:40+00:00</time>
      </trkpt>
      <trkpt lat="43.317462921143" lon="-7.6064615249634">
        <ele>456</ele>
        <time>2019-09-11T09:30:41+00:00</time>
      </trkpt>
      <trkpt lat="43.31746673584" lon="-7.6064767837524">
        <ele>456</ele>
        <time>2019-09-11T09:30:42+00:00</time>
      </trkpt>
      <trkpt lat="43.31746673584" lon="-7.6064901351929">
        <ele>456</ele>
        <time>2019-09-11T09:30:43+00:00</time>
      </trkpt>
      <trkpt lat="43.317470550537" lon="-7.6065082550049">
        <ele>456</ele>
        <time>2019-09-11T09:30:44+00:00</time>
      </trkpt>
      <trkpt lat="43.317470550537" lon="-7.6065249443054">
        <ele>455</ele>
        <time>2019-09-11T09:30:45+00:00</time>
      </trkpt>
      <trkpt lat="43.317470550537" lon="-7.6065382957458">
        <ele>455</ele>
        <time>2019-09-11T09:30:46+00:00</time>
      </trkpt>
      <trkpt lat="43.317474365234" lon="-7.606556892395">
        <ele>455</ele>
        <time>2019-09-11T09:30:47+00:00</time>
      </trkpt>
      <trkpt lat="43.317478179932" lon="-7.6065783500671">
        <ele>455</ele>
        <time>2019-09-11T09:30:48+00:00</time>
      </trkpt>
      <trkpt lat="43.317481994629" lon="-7.6065983772278">
        <ele>455</ele>
        <time>2019-09-11T09:30:49+00:00</time>
      </trkpt>
      <trkpt lat="43.317493438721" lon="-7.6066198348999">
        <ele>455</ele>
        <time>2019-09-11T09:30:50+00:00</time>
      </trkpt>
      <trkpt lat="43.317501068115" lon="-7.6066398620605">
        <ele>455</ele>
        <time>2019-09-11T09:30:51+00:00</time>
      </trkpt>
      <trkpt lat="43.317504882812" lon="-7.6066617965698">
        <ele>455</ele>
        <time>2019-09-11T09:30:52+00:00</time>
      </trkpt>
      <trkpt lat="43.31750869751" lon="-7.6066751480103">
        <ele>455</ele>
        <time>2019-09-11T09:30:53+00:00</time>
      </trkpt>
      <trkpt lat="43.31750869751" lon="-7.6066851615906">
        <ele>455</ele>
        <time>2019-09-11T09:30:54+00:00</time>
      </trkpt>
      <trkpt lat="43.317504882812" lon="-7.6066999435425">
        <ele>455</ele>
        <time>2019-09-11T09:30:55+00:00</time>
      </trkpt>
      <trkpt lat="43.31750869751" lon="-7.606728553772">
        <ele>455</ele>
        <time>2019-09-11T09:30:56+00:00</time>
      </trkpt>
      <trkpt lat="43.317516326904" lon="-7.6067566871643">
        <ele>456</ele>
        <time>2019-09-11T09:30:57+00:00</time>
      </trkpt>
      <trkpt lat="43.317527770996" lon="-7.6067800521851">
        <ele>456</ele>
        <time>2019-09-11T09:30:58+00:00</time>
      </trkpt>
      <trkpt lat="43.317535400391" lon="-7.6067934036255">
        <ele>456</ele>
        <time>2019-09-11T09:30:59+00:00</time>
      </trkpt>
      <trkpt lat="43.317543029785" lon="-7.6068115234375">
        <ele>457</ele>
        <time>2019-09-11T09:31:00+00:00</time>
      </trkpt>
      <trkpt lat="43.317546844482" lon="-7.6068334579468">
        <ele>457</ele>
        <time>2019-09-11T09:31:01+00:00</time>
      </trkpt>
      <trkpt lat="43.31755065918" lon="-7.6068534851074">
        <ele>457</ele>
        <time>2019-09-11T09:31:02+00:00</time>
      </trkpt>
      <trkpt lat="43.317562103271" lon="-7.6068735122681">
        <ele>457</ele>
        <time>2019-09-11T09:31:03+00:00</time>
      </trkpt>
      <trkpt lat="43.317565917969" lon="-7.60688829422">
        <ele>457</ele>
        <time>2019-09-11T09:31:04+00:00</time>
      </trkpt>
      <trkpt lat="43.317569732666" lon="-7.6069002151489">
        <ele>457</ele>
        <time>2019-09-11T09:31:05+00:00</time>
      </trkpt>
      <trkpt lat="43.317554473877" lon="-7.6069102287292">
        <ele>457</ele>
        <time>2019-09-11T09:31:06+00:00</time>
      </trkpt>
      <trkpt lat="43.317543029785" lon="-7.6069197654724">
        <ele>457</ele>
        <time>2019-09-11T09:31:07+00:00</time>
      </trkpt>
      <trkpt lat="43.317527770996" lon="-7.6069316864014">
        <ele>457</ele>
        <time>2019-09-11T09:31:08+00:00</time>
      </trkpt>
      <trkpt lat="43.317516326904" lon="-7.6069397926331">
        <ele>457</ele>
        <time>2019-09-11T09:31:09+00:00</time>
      </trkpt>
      <trkpt lat="43.317516326904" lon="-7.6069464683533">
        <ele>457</ele>
        <time>2019-09-11T09:31:10+00:00</time>
      </trkpt>
      <trkpt lat="43.317523956299" lon="-7.6069583892822">
        <ele>456</ele>
        <time>2019-09-11T09:31:11+00:00</time>
      </trkpt>
      <trkpt lat="43.317531585693" lon="-7.6069765090942">
        <ele>457</ele>
        <time>2019-09-11T09:31:12+00:00</time>
      </trkpt>
      <trkpt lat="43.317535400391" lon="-7.6069931983948">
        <ele>457</ele>
        <time>2019-09-11T09:31:13+00:00</time>
      </trkpt>
      <trkpt lat="43.317539215088" lon="-7.6070098876953">
        <ele>456</ele>
        <time>2019-09-11T09:31:14+00:00</time>
      </trkpt>
      <trkpt lat="43.317546844482" lon="-7.6070251464844">
        <ele>456</ele>
        <time>2019-09-11T09:31:15+00:00</time>
      </trkpt>
      <trkpt lat="43.317554473877" lon="-7.6070351600647">
        <ele>456</ele>
        <time>2019-09-11T09:31:16+00:00</time>
      </trkpt>
      <trkpt lat="43.317565917969" lon="-7.6070518493652">
        <ele>456</ele>
        <time>2019-09-11T09:31:17+00:00</time>
      </trkpt>
      <trkpt lat="43.317581176758" lon="-7.6070699691772">
        <ele>456</ele>
        <time>2019-09-11T09:31:18+00:00</time>
      </trkpt>
      <trkpt lat="43.317596435547" lon="-7.6070919036865">
        <ele>456</ele>
        <time>2019-09-11T09:31:19+00:00</time>
      </trkpt>
      <trkpt lat="43.317615509033" lon="-7.6071133613586">
        <ele>455</ele>
        <time>2019-09-11T09:31:20+00:00</time>
      </trkpt>
      <trkpt lat="43.31763458252" lon="-7.6071333885193">
        <ele>456</ele>
        <time>2019-09-11T09:31:21+00:00</time>
      </trkpt>
      <trkpt lat="43.317653656006" lon="-7.6071581840515">
        <ele>456</ele>
        <time>2019-09-11T09:31:22+00:00</time>
      </trkpt>
      <trkpt lat="43.317668914795" lon="-7.6071815490723">
        <ele>456</ele>
        <time>2019-09-11T09:31:23+00:00</time>
      </trkpt>
      <trkpt lat="43.317680358887" lon="-7.6072034835815">
        <ele>456</ele>
        <time>2019-09-11T09:31:24+00:00</time>
      </trkpt>
      <trkpt lat="43.317699432373" lon="-7.6072282791138">
        <ele>456</ele>
        <time>2019-09-11T09:31:25+00:00</time>
      </trkpt>
      <trkpt lat="43.317722320557" lon="-7.6072568893433">
        <ele>456</ele>
        <time>2019-09-11T09:31:26+00:00</time>
      </trkpt>
      <trkpt lat="43.317726135254" lon="-7.6072697639465">
        <ele>456</ele>
        <time>2019-09-11T09:31:27+00:00</time>
      </trkpt>
      <trkpt lat="43.317741394043" lon="-7.6072864532471">
        <ele>456</ele>
        <time>2019-09-11T09:31:28+00:00</time>
      </trkpt>
      <trkpt lat="43.317760467529" lon="-7.6073083877563">
        <ele>456</ele>
        <time>2019-09-11T09:31:29+00:00</time>
      </trkpt>
      <trkpt lat="43.317771911621" lon="-7.6073217391968">
        <ele>456</ele>
        <time>2019-09-11T09:31:30+00:00</time>
      </trkpt>
      <trkpt lat="43.317783355713" lon="-7.6073350906372">
        <ele>456</ele>
        <time>2019-09-11T09:31:31+00:00</time>
      </trkpt>
      <trkpt lat="43.317802429199" lon="-7.6073532104492">
        <ele>456</ele>
        <time>2019-09-11T09:31:32+00:00</time>
      </trkpt>
      <trkpt lat="43.317810058594" lon="-7.6073684692383">
        <ele>456</ele>
        <time>2019-09-11T09:31:33+00:00</time>
      </trkpt>
      <trkpt lat="43.317813873291" lon="-7.6073732376099">
        <ele>456</ele>
        <time>2019-09-11T09:31:34+00:00</time>
      </trkpt>
      <trkpt lat="43.317817687988" lon="-7.6073799133301">
        <ele>456</ele>
        <time>2019-09-11T09:31:35+00:00</time>
      </trkpt>
      <trkpt lat="43.317832946777" lon="-7.6073932647705">
        <ele>456</ele>
        <time>2019-09-11T09:31:36+00:00</time>
      </trkpt>
      <trkpt lat="43.317836761475" lon="-7.6074118614197">
        <ele>456</ele>
        <time>2019-09-11T09:31:37+00:00</time>
      </trkpt>
      <trkpt lat="43.317844390869" lon="-7.607421875">
        <ele>456</ele>
        <time>2019-09-11T09:31:38+00:00</time>
      </trkpt>
      <trkpt lat="43.317859649658" lon="-7.6074285507202">
        <ele>457</ele>
        <time>2019-09-11T09:31:39+00:00</time>
      </trkpt>
      <trkpt lat="43.317863464355" lon="-7.6074366569519">
        <ele>457</ele>
        <time>2019-09-11T09:31:40+00:00</time>
      </trkpt>
      <trkpt lat="43.317863464355" lon="-7.6074433326721">
        <ele>457</ele>
        <time>2019-09-11T09:31:41+00:00</time>
      </trkpt>
      <trkpt lat="43.317852020264" lon="-7.6074466705322">
        <ele>456</ele>
        <time>2019-09-11T09:31:42+00:00</time>
      </trkpt>
      <trkpt lat="43.317859649658" lon="-7.6074547767639">
        <ele>457</ele>
        <time>2019-09-11T09:31:43+00:00</time>
      </trkpt>
      <trkpt lat="43.317863464355" lon="-7.6074647903442">
        <ele>457</ele>
        <time>2019-09-11T09:31:44+00:00</time>
      </trkpt>
      <trkpt lat="43.317863464355" lon="-7.6074748039246">
        <ele>457</ele>
        <time>2019-09-11T09:31:45+00:00</time>
      </trkpt>
      <trkpt lat="43.31787109375" lon="-7.6074848175049">
        <ele>457</ele>
        <time>2019-09-11T09:31:46+00:00</time>
      </trkpt>
      <trkpt lat="43.317874908447" lon="-7.6074981689453">
        <ele>457</ele>
        <time>2019-09-11T09:31:47+00:00</time>
      </trkpt>
      <trkpt lat="43.317893981934" lon="-7.6075134277344">
        <ele>457</ele>
        <time>2019-09-11T09:31:48+00:00</time>
      </trkpt>
      <trkpt lat="43.317855834961" lon="-7.607518196106">
        <ele>457</ele>
        <time>2019-09-11T09:31:49+00:00</time>
      </trkpt>
      <trkpt lat="43.317863464355" lon="-7.6075282096863">
        <ele>457</ele>
        <time>2019-09-11T09:31:50+00:00</time>
      </trkpt>
      <trkpt lat="43.31787109375" lon="-7.6075448989868">
        <ele>456</ele>
        <time>2019-09-11T09:31:51+00:00</time>
      </trkpt>
      <trkpt lat="43.31787109375" lon="-7.6075549125671">
        <ele>456</ele>
        <time>2019-09-11T09:31:52+00:00</time>
      </trkpt>
      <trkpt lat="43.31787109375" lon="-7.607563495636">
        <ele>456</ele>
        <time>2019-09-11T09:31:53+00:00</time>
      </trkpt>
      <trkpt lat="43.31787109375" lon="-7.607581615448">
        <ele>456</ele>
        <time>2019-09-11T09:31:54+00:00</time>
      </trkpt>
      <trkpt lat="43.317874908447" lon="-7.6075949668884">
        <ele>456</ele>
        <time>2019-09-11T09:31:55+00:00</time>
      </trkpt>
      <trkpt lat="43.317882537842" lon="-7.6076002120972">
        <ele>456</ele>
        <time>2019-09-11T09:31:56+00:00</time>
      </trkpt>
      <trkpt lat="43.317893981934" lon="-7.6076102256775">
        <ele>456</ele>
        <time>2019-09-11T09:31:57+00:00</time>
      </trkpt>
      <trkpt lat="43.317909240723" lon="-7.6076231002808">
        <ele>456</ele>
        <time>2019-09-11T09:31:58+00:00</time>
      </trkpt>
      <trkpt lat="43.317916870117" lon="-7.6076383590698">
        <ele>456</ele>
        <time>2019-09-11T09:31:59+00:00</time>
      </trkpt>
      <trkpt lat="43.317916870117" lon="-7.6076531410217">
        <ele>456</ele>
        <time>2019-09-11T09:32:00+00:00</time>
      </trkpt>
      <trkpt lat="43.31791305542" lon="-7.6076631546021">
        <ele>456</ele>
        <time>2019-09-11T09:32:01+00:00</time>
      </trkpt>
      <trkpt lat="43.31791305542" lon="-7.607675075531">
        <ele>456</ele>
        <time>2019-09-11T09:32:02+00:00</time>
      </trkpt>
      <trkpt lat="43.317909240723" lon="-7.6076817512512">
        <ele>455</ele>
        <time>2019-09-11T09:32:03+00:00</time>
      </trkpt>
      <trkpt lat="43.317920684814" lon="-7.6076917648315">
        <ele>455</ele>
        <time>2019-09-11T09:32:04+00:00</time>
      </trkpt>
      <trkpt lat="43.317928314209" lon="-7.6077032089233">
        <ele>456</ele>
        <time>2019-09-11T09:32:05+00:00</time>
      </trkpt>
      <trkpt lat="43.317935943604" lon="-7.6077184677124">
        <ele>456</ele>
        <time>2019-09-11T09:32:06+00:00</time>
      </trkpt>
      <trkpt lat="43.317947387695" lon="-7.6077351570129">
        <ele>455</ele>
        <time>2019-09-11T09:32:07+00:00</time>
      </trkpt>
      <trkpt lat="43.31795501709" lon="-7.6077499389648">
        <ele>455</ele>
        <time>2019-09-11T09:32:08+00:00</time>
      </trkpt>
      <trkpt lat="43.317970275879" lon="-7.6077666282654">
        <ele>455</ele>
        <time>2019-09-11T09:32:09+00:00</time>
      </trkpt>
      <trkpt lat="43.317977905273" lon="-7.6077833175659">
        <ele>455</ele>
        <time>2019-09-11T09:32:10+00:00</time>
      </trkpt>
      <trkpt lat="43.317981719971" lon="-7.6077947616577">
        <ele>454</ele>
        <time>2019-09-11T09:32:11+00:00</time>
      </trkpt>
      <trkpt lat="43.317989349365" lon="-7.6078100204468">
        <ele>454</ele>
        <time>2019-09-11T09:32:12+00:00</time>
      </trkpt>
      <trkpt lat="43.317993164062" lon="-7.6078233718872">
        <ele>454</ele>
        <time>2019-09-11T09:32:13+00:00</time>
      </trkpt>
      <trkpt lat="43.31799697876" lon="-7.6078400611877">
        <ele>454</ele>
        <time>2019-09-11T09:32:14+00:00</time>
      </trkpt>
      <trkpt lat="43.318000793457" lon="-7.6078600883484">
        <ele>453</ele>
        <time>2019-09-11T09:32:15+00:00</time>
      </trkpt>
      <trkpt lat="43.318008422852" lon="-7.6078748703003">
        <ele>453</ele>
        <time>2019-09-11T09:32:16+00:00</time>
      </trkpt>
      <trkpt lat="43.318008422852" lon="-7.6078848838806">
        <ele>453</ele>
        <time>2019-09-11T09:32:17+00:00</time>
      </trkpt>
      <trkpt lat="43.318016052246" lon="-7.6078968048096">
        <ele>452</ele>
        <time>2019-09-11T09:32:18+00:00</time>
      </trkpt>
      <trkpt lat="43.318012237549" lon="-7.6079049110413">
        <ele>452</ele>
        <time>2019-09-11T09:32:19+00:00</time>
      </trkpt>
      <trkpt lat="43.318016052246" lon="-7.6079149246216">
        <ele>452</ele>
        <time>2019-09-11T09:32:20+00:00</time>
      </trkpt>
      <trkpt lat="43.318019866943" lon="-7.6079235076904">
        <ele>452</ele>
        <time>2019-09-11T09:32:21+00:00</time>
      </trkpt>
      <trkpt lat="43.318023681641" lon="-7.6079349517822">
        <ele>452</ele>
        <time>2019-09-11T09:32:22+00:00</time>
      </trkpt>
      <trkpt lat="43.318031311035" lon="-7.6079483032227">
        <ele>452</ele>
        <time>2019-09-11T09:32:23+00:00</time>
      </trkpt>
      <trkpt lat="43.31803894043" lon="-7.6079635620117">
        <ele>451</ele>
        <time>2019-09-11T09:32:24+00:00</time>
      </trkpt>
      <trkpt lat="43.318046569824" lon="-7.6079750061035">
        <ele>451</ele>
        <time>2019-09-11T09:32:25+00:00</time>
      </trkpt>
      <trkpt lat="43.318054199219" lon="-7.6079883575439">
        <ele>451</ele>
        <time>2019-09-11T09:32:26+00:00</time>
      </trkpt>
      <trkpt lat="43.318069458008" lon="-7.6080083847046">
        <ele>451</ele>
        <time>2019-09-11T09:32:27+00:00</time>
      </trkpt>
      <trkpt lat="43.318092346191" lon="-7.6080284118652">
        <ele>451</ele>
        <time>2019-09-11T09:32:28+00:00</time>
      </trkpt>
      <trkpt lat="43.318103790283" lon="-7.6080431938171">
        <ele>451</ele>
        <time>2019-09-11T09:32:29+00:00</time>
      </trkpt>
      <trkpt lat="43.318115234375" lon="-7.6080551147461">
        <ele>451</ele>
        <time>2019-09-11T09:32:30+00:00</time>
      </trkpt>
      <trkpt lat="43.31812286377" lon="-7.608069896698">
        <ele>451</ele>
        <time>2019-09-11T09:32:31+00:00</time>
      </trkpt>
      <trkpt lat="43.318126678467" lon="-7.6080765724182">
        <ele>451</ele>
        <time>2019-09-11T09:32:32+00:00</time>
      </trkpt>
      <trkpt lat="43.318141937256" lon="-7.6080899238586">
        <ele>451</ele>
        <time>2019-09-11T09:32:33+00:00</time>
      </trkpt>
      <trkpt lat="43.318145751953" lon="-7.6081066131592">
        <ele>451</ele>
        <time>2019-09-11T09:32:34+00:00</time>
      </trkpt>
      <trkpt lat="43.31814956665" lon="-7.6081218719482">
        <ele>450</ele>
        <time>2019-09-11T09:32:35+00:00</time>
      </trkpt>
      <trkpt lat="43.318153381348" lon="-7.6081299781799">
        <ele>450</ele>
        <time>2019-09-11T09:32:36+00:00</time>
      </trkpt>
      <trkpt lat="43.31814956665" lon="-7.6081352233887">
        <ele>450</ele>
        <time>2019-09-11T09:32:37+00:00</time>
      </trkpt>
      <trkpt lat="43.31814956665" lon="-7.608145236969">
        <ele>450</ele>
        <time>2019-09-11T09:32:38+00:00</time>
      </trkpt>
      <trkpt lat="43.318153381348" lon="-7.6081566810608">
        <ele>450</ele>
        <time>2019-09-11T09:32:39+00:00</time>
      </trkpt>
      <trkpt lat="43.318153381348" lon="-7.6081681251526">
        <ele>450</ele>
        <time>2019-09-11T09:32:40+00:00</time>
      </trkpt>
      <trkpt lat="43.318157196045" lon="-7.6081781387329">
        <ele>449</ele>
        <time>2019-09-11T09:32:41+00:00</time>
      </trkpt>
      <trkpt lat="43.318157196045" lon="-7.6081848144531">
        <ele>449</ele>
        <time>2019-09-11T09:32:42+00:00</time>
      </trkpt>
      <trkpt lat="43.318161010742" lon="-7.6081948280334">
        <ele>449</ele>
        <time>2019-09-11T09:32:43+00:00</time>
      </trkpt>
      <trkpt lat="43.318164825439" lon="-7.6082081794739">
        <ele>449</ele>
        <time>2019-09-11T09:32:44+00:00</time>
      </trkpt>
      <trkpt lat="43.318172454834" lon="-7.6082248687744">
        <ele>449</ele>
        <time>2019-09-11T09:32:45+00:00</time>
      </trkpt>
      <trkpt lat="43.318176269531" lon="-7.608241558075">
        <ele>449</ele>
        <time>2019-09-11T09:32:46+00:00</time>
      </trkpt>
      <trkpt lat="43.318183898926" lon="-7.6082615852356">
        <ele>448</ele>
        <time>2019-09-11T09:32:47+00:00</time>
      </trkpt>
      <trkpt lat="43.318195343018" lon="-7.6082882881165">
        <ele>448</ele>
        <time>2019-09-11T09:32:48+00:00</time>
      </trkpt>
      <trkpt lat="43.318202972412" lon="-7.6083102226257">
        <ele>448</ele>
        <time>2019-09-11T09:32:49+00:00</time>
      </trkpt>
      <trkpt lat="43.318202972412" lon="-7.6083250045776">
        <ele>448</ele>
        <time>2019-09-11T09:32:50+00:00</time>
      </trkpt>
      <trkpt lat="43.318206787109" lon="-7.6083397865295">
        <ele>448</ele>
        <time>2019-09-11T09:32:51+00:00</time>
      </trkpt>
      <trkpt lat="43.318206787109" lon="-7.6083550453186">
        <ele>448</ele>
        <time>2019-09-11T09:32:52+00:00</time>
      </trkpt>
      <trkpt lat="43.318210601807" lon="-7.6083765029907">
        <ele>448</ele>
        <time>2019-09-11T09:32:53+00:00</time>
      </trkpt>
      <trkpt lat="43.318218231201" lon="-7.6083965301514">
        <ele>448</ele>
        <time>2019-09-11T09:32:54+00:00</time>
      </trkpt>
      <trkpt lat="43.318225860596" lon="-7.6084151268005">
        <ele>448</ele>
        <time>2019-09-11T09:32:55+00:00</time>
      </trkpt>
      <trkpt lat="43.318225860596" lon="-7.608428478241">
        <ele>447</ele>
        <time>2019-09-11T09:32:56+00:00</time>
      </trkpt>
      <trkpt lat="43.318229675293" lon="-7.6084551811218">
        <ele>447</ele>
        <time>2019-09-11T09:32:57+00:00</time>
      </trkpt>
      <trkpt lat="43.318225860596" lon="-7.6084699630737">
        <ele>447</ele>
        <time>2019-09-11T09:32:58+00:00</time>
      </trkpt>
      <trkpt lat="43.318225860596" lon="-7.6084866523743">
        <ele>447</ele>
        <time>2019-09-11T09:32:59+00:00</time>
      </trkpt>
      <trkpt lat="43.318237304688" lon="-7.6084980964661">
        <ele>447</ele>
        <time>2019-09-11T09:33:00+00:00</time>
      </trkpt>
      <trkpt lat="43.31823348999" lon="-7.608510017395">
        <ele>447</ele>
        <time>2019-09-11T09:33:01+00:00</time>
      </trkpt>
      <trkpt lat="43.318241119385" lon="-7.608528137207">
        <ele>446</ele>
        <time>2019-09-11T09:33:02+00:00</time>
      </trkpt>
      <trkpt lat="43.318256378174" lon="-7.6085481643677">
        <ele>446</ele>
        <time>2019-09-11T09:33:03+00:00</time>
      </trkpt>
      <trkpt lat="43.318256378174" lon="-7.6085634231567">
        <ele>445</ele>
        <time>2019-09-11T09:33:04+00:00</time>
      </trkpt>
      <trkpt lat="43.318256378174" lon="-7.6085734367371">
        <ele>445</ele>
        <time>2019-09-11T09:33:05+00:00</time>
      </trkpt>
      <trkpt lat="43.318260192871" lon="-7.6085801124573">
        <ele>445</ele>
        <time>2019-09-11T09:33:06+00:00</time>
      </trkpt>
      <trkpt lat="43.318260192871" lon="-7.6085867881775">
        <ele>444</ele>
        <time>2019-09-11T09:33:07+00:00</time>
      </trkpt>
      <trkpt lat="43.318260192871" lon="-7.6085934638977">
        <ele>444</ele>
        <time>2019-09-11T09:33:08+00:00</time>
      </trkpt>
      <trkpt lat="43.318264007568" lon="-7.6085968017578">
        <ele>444</ele>
        <time>2019-09-11T09:33:09+00:00</time>
      </trkpt>
      <trkpt lat="43.318267822266" lon="-7.6085982322693">
        <ele>444</ele>
        <time>2019-09-11T09:33:10+00:00</time>
      </trkpt>
      <trkpt lat="43.318286895752" lon="-7.6086068153381">
        <ele>444</ele>
        <time>2019-09-11T09:33:11+00:00</time>
      </trkpt>
      <trkpt lat="43.318294525146" lon="-7.6086134910583">
        <ele>444</ele>
        <time>2019-09-11T09:33:12+00:00</time>
      </trkpt>
      <trkpt lat="43.318305969238" lon="-7.6086301803589">
        <ele>443</ele>
        <time>2019-09-11T09:33:13+00:00</time>
      </trkpt>
      <trkpt lat="43.318313598633" lon="-7.6086382865906">
        <ele>443</ele>
        <time>2019-09-11T09:33:14+00:00</time>
      </trkpt>
      <trkpt lat="43.318321228027" lon="-7.6086468696594">
        <ele>443</ele>
        <time>2019-09-11T09:33:15+00:00</time>
      </trkpt>
      <trkpt lat="43.318328857422" lon="-7.6086568832397">
        <ele>443</ele>
        <time>2019-09-11T09:33:16+00:00</time>
      </trkpt>
      <trkpt lat="43.318340301514" lon="-7.60866355896">
        <ele>443</ele>
        <time>2019-09-11T09:33:17+00:00</time>
      </trkpt>
      <trkpt lat="43.318355560303" lon="-7.6086716651917">
        <ele>443</ele>
        <time>2019-09-11T09:33:18+00:00</time>
      </trkpt>
      <trkpt lat="43.318367004395" lon="-7.6086750030518">
        <ele>443</ele>
        <time>2019-09-11T09:33:19+00:00</time>
      </trkpt>
      <trkpt lat="43.318386077881" lon="-7.6086916923523">
        <ele>442</ele>
        <time>2019-09-11T09:33:20+00:00</time>
      </trkpt>
      <trkpt lat="43.318405151367" lon="-7.6087117195129">
        <ele>442</ele>
        <time>2019-09-11T09:33:21+00:00</time>
      </trkpt>
      <trkpt lat="43.318412780762" lon="-7.6087231636047">
        <ele>442</ele>
        <time>2019-09-11T09:33:22+00:00</time>
      </trkpt>
      <trkpt lat="43.318416595459" lon="-7.6087317466736">
        <ele>442</ele>
        <time>2019-09-11T09:33:23+00:00</time>
      </trkpt>
      <trkpt lat="43.318424224854" lon="-7.6087398529053">
        <ele>441</ele>
        <time>2019-09-11T09:33:24+00:00</time>
      </trkpt>
      <trkpt lat="43.31844329834" lon="-7.6087584495544">
        <ele>441</ele>
        <time>2019-09-11T09:33:25+00:00</time>
      </trkpt>
      <trkpt lat="43.318447113037" lon="-7.6087698936462">
        <ele>441</ele>
        <time>2019-09-11T09:33:26+00:00</time>
      </trkpt>
      <trkpt lat="43.318447113037" lon="-7.6087851524353">
        <ele>441</ele>
        <time>2019-09-11T09:33:27+00:00</time>
      </trkpt>
      <trkpt lat="43.318447113037" lon="-7.6087999343872">
        <ele>441</ele>
        <time>2019-09-11T09:33:28+00:00</time>
      </trkpt>
      <trkpt lat="43.318454742432" lon="-7.6088166236877">
        <ele>441</ele>
        <time>2019-09-11T09:33:29+00:00</time>
      </trkpt>
      <trkpt lat="43.318473815918" lon="-7.6088333129883">
        <ele>441</ele>
        <time>2019-09-11T09:33:30+00:00</time>
      </trkpt>
      <trkpt lat="43.318473815918" lon="-7.6088418960571">
        <ele>441</ele>
        <time>2019-09-11T09:33:31+00:00</time>
      </trkpt>
      <trkpt lat="43.318481445312" lon="-7.608856678009">
        <ele>441</ele>
        <time>2019-09-11T09:33:32+00:00</time>
      </trkpt>
      <trkpt lat="43.318492889404" lon="-7.6088714599609">
        <ele>442</ele>
        <time>2019-09-11T09:33:33+00:00</time>
      </trkpt>
      <trkpt lat="43.318496704102" lon="-7.6088814735413">
        <ele>442</ele>
        <time>2019-09-11T09:33:34+00:00</time>
      </trkpt>
      <trkpt lat="43.318504333496" lon="-7.6088933944702">
        <ele>442</ele>
        <time>2019-09-11T09:33:35+00:00</time>
      </trkpt>
      <trkpt lat="43.318500518799" lon="-7.6089067459106">
        <ele>443</ele>
        <time>2019-09-11T09:33:36+00:00</time>
      </trkpt>
      <trkpt lat="43.318500518799" lon="-7.6089181900024">
        <ele>443</ele>
        <time>2019-09-11T09:33:37+00:00</time>
      </trkpt>
      <trkpt lat="43.318492889404" lon="-7.6089382171631">
        <ele>443</ele>
        <time>2019-09-11T09:33:38+00:00</time>
      </trkpt>
      <trkpt lat="43.318489074707" lon="-7.6089549064636">
        <ele>444</ele>
        <time>2019-09-11T09:33:39+00:00</time>
      </trkpt>
      <trkpt lat="43.318481445312" lon="-7.6089715957642">
        <ele>444</ele>
        <time>2019-09-11T09:33:40+00:00</time>
      </trkpt>
      <trkpt lat="43.318481445312" lon="-7.6089916229248">
        <ele>445</ele>
        <time>2019-09-11T09:33:41+00:00</time>
      </trkpt>
      <trkpt lat="43.318481445312" lon="-7.609010219574">
        <ele>445</ele>
        <time>2019-09-11T09:33:42+00:00</time>
      </trkpt>
      <trkpt lat="43.318481445312" lon="-7.6090264320374">
        <ele>445</ele>
        <time>2019-09-11T09:33:43+00:00</time>
      </trkpt>
      <trkpt lat="43.31848526001" lon="-7.6090383529663">
        <ele>446</ele>
        <time>2019-09-11T09:33:44+00:00</time>
      </trkpt>
      <trkpt lat="43.318489074707" lon="-7.609046459198">
        <ele>446</ele>
        <time>2019-09-11T09:33:45+00:00</time>
      </trkpt>
      <trkpt lat="43.318496704102" lon="-7.609058380127">
        <ele>446</ele>
        <time>2019-09-11T09:33:46+00:00</time>
      </trkpt>
      <trkpt lat="43.318504333496" lon="-7.6090750694275">
        <ele>446</ele>
        <time>2019-09-11T09:33:47+00:00</time>
      </trkpt>
      <trkpt lat="43.318511962891" lon="-7.6090850830078">
        <ele>446</ele>
        <time>2019-09-11T09:33:48+00:00</time>
      </trkpt>
      <trkpt lat="43.318523406982" lon="-7.6090998649597">
        <ele>446</ele>
        <time>2019-09-11T09:33:49+00:00</time>
      </trkpt>
      <trkpt lat="43.318534851074" lon="-7.60910987854">
        <ele>446</ele>
        <time>2019-09-11T09:33:50+00:00</time>
      </trkpt>
      <trkpt lat="43.318534851074" lon="-7.6091198921204">
        <ele>447</ele>
        <time>2019-09-11T09:33:51+00:00</time>
      </trkpt>
      <trkpt lat="43.318538665771" lon="-7.6091299057007">
        <ele>447</ele>
        <time>2019-09-11T09:33:52+00:00</time>
      </trkpt>
      <trkpt lat="43.318542480469" lon="-7.6091465950012">
        <ele>447</ele>
        <time>2019-09-11T09:33:53+00:00</time>
      </trkpt>
      <trkpt lat="43.318534851074" lon="-7.6091532707214">
        <ele>447</ele>
        <time>2019-09-11T09:33:54+00:00</time>
      </trkpt>
      <trkpt lat="43.318534851074" lon="-7.6091585159302">
        <ele>447</ele>
        <time>2019-09-11T09:33:55+00:00</time>
      </trkpt>
      <trkpt lat="43.318534851074" lon="-7.6091618537903">
        <ele>447</ele>
        <time>2019-09-11T09:33:56+00:00</time>
      </trkpt>
      <trkpt lat="43.318534851074" lon="-7.6091752052307">
        <ele>447</ele>
        <time>2019-09-11T09:33:57+00:00</time>
      </trkpt>
      <trkpt lat="43.31852722168" lon="-7.6091899871826">
        <ele>448</ele>
        <time>2019-09-11T09:33:58+00:00</time>
      </trkpt>
      <trkpt lat="43.318531036377" lon="-7.6091985702515">
        <ele>448</ele>
        <time>2019-09-11T09:33:59+00:00</time>
      </trkpt>
      <trkpt lat="43.318531036377" lon="-7.6092014312744">
        <ele>448</ele>
        <time>2019-09-11T09:34:00+00:00</time>
      </trkpt>
      <trkpt lat="43.318534851074" lon="-7.6092147827148">
        <ele>449</ele>
        <time>2019-09-11T09:34:01+00:00</time>
      </trkpt>
      <trkpt lat="43.318538665771" lon="-7.6092233657837">
        <ele>449</ele>
        <time>2019-09-11T09:34:02+00:00</time>
      </trkpt>
      <trkpt lat="43.318534851074" lon="-7.6092367172241">
        <ele>449</ele>
        <time>2019-09-11T09:34:03+00:00</time>
      </trkpt>
      <trkpt lat="43.318538665771" lon="-7.6092381477356">
        <ele>450</ele>
        <time>2019-09-11T09:34:04+00:00</time>
      </trkpt>
      <trkpt lat="43.318542480469" lon="-7.6092467308044">
        <ele>450</ele>
        <time>2019-09-11T09:34:05+00:00</time>
      </trkpt>
      <trkpt lat="43.318546295166" lon="-7.6092548370361">
        <ele>450</ele>
        <time>2019-09-11T09:34:06+00:00</time>
      </trkpt>
      <trkpt lat="43.318550109863" lon="-7.6092648506165">
        <ele>450</ele>
        <time>2019-09-11T09:34:07+00:00</time>
      </trkpt>
      <trkpt lat="43.318550109863" lon="-7.6092715263367">
        <ele>451</ele>
        <time>2019-09-11T09:34:08+00:00</time>
      </trkpt>
      <trkpt lat="43.318553924561" lon="-7.6092801094055">
        <ele>451</ele>
        <time>2019-09-11T09:34:09+00:00</time>
      </trkpt>
      <trkpt lat="43.318557739258" lon="-7.6092948913574">
        <ele>451</ele>
        <time>2019-09-11T09:34:10+00:00</time>
      </trkpt>
      <trkpt lat="43.318561553955" lon="-7.6093001365662">
        <ele>452</ele>
        <time>2019-09-11T09:34:11+00:00</time>
      </trkpt>
      <trkpt lat="43.318565368652" lon="-7.6093068122864">
        <ele>452</ele>
        <time>2019-09-11T09:34:12+00:00</time>
      </trkpt>
      <trkpt lat="43.318565368652" lon="-7.609311580658">
        <ele>452</ele>
        <time>2019-09-11T09:34:13+00:00</time>
      </trkpt>
      <trkpt lat="43.318565368652" lon="-7.6093249320984">
        <ele>452</ele>
        <time>2019-09-11T09:34:14+00:00</time>
      </trkpt>
      <trkpt lat="43.318565368652" lon="-7.6093382835388">
        <ele>452</ele>
        <time>2019-09-11T09:34:15+00:00</time>
      </trkpt>
      <trkpt lat="43.318565368652" lon="-7.6093602180481">
        <ele>452</ele>
        <time>2019-09-11T09:34:16+00:00</time>
      </trkpt>
      <trkpt lat="43.318572998047" lon="-7.6093616485596">
        <ele>452</ele>
        <time>2019-09-11T09:34:17+00:00</time>
      </trkpt>
      <trkpt lat="43.318576812744" lon="-7.6093702316284">
        <ele>452</ele>
        <time>2019-09-11T09:34:18+00:00</time>
      </trkpt>
      <trkpt lat="43.318592071533" lon="-7.6093864440918">
        <ele>452</ele>
        <time>2019-09-11T09:34:19+00:00</time>
      </trkpt>
      <trkpt lat="43.318614959717" lon="-7.6094098091125">
        <ele>452</ele>
        <time>2019-09-11T09:34:20+00:00</time>
      </trkpt>
      <trkpt lat="43.318630218506" lon="-7.6094250679016">
        <ele>453</ele>
        <time>2019-09-11T09:34:21+00:00</time>
      </trkpt>
      <trkpt lat="43.318641662598" lon="-7.6094350814819">
        <ele>453</ele>
        <time>2019-09-11T09:34:22+00:00</time>
      </trkpt>
      <trkpt lat="43.318653106689" lon="-7.6094551086426">
        <ele>453</ele>
        <time>2019-09-11T09:34:23+00:00</time>
      </trkpt>
      <trkpt lat="43.318653106689" lon="-7.6094617843628">
        <ele>453</ele>
        <time>2019-09-11T09:34:24+00:00</time>
      </trkpt>
      <trkpt lat="43.318649291992" lon="-7.6094765663147">
        <ele>453</ele>
        <time>2019-09-11T09:34:25+00:00</time>
      </trkpt>
      <trkpt lat="43.318649291992" lon="-7.609486579895">
        <ele>453</ele>
        <time>2019-09-11T09:34:26+00:00</time>
      </trkpt>
      <trkpt lat="43.318653106689" lon="-7.609498500824">
        <ele>453</ele>
        <time>2019-09-11T09:34:27+00:00</time>
      </trkpt>
      <trkpt lat="43.318653106689" lon="-7.6095132827759">
        <ele>454</ele>
        <time>2019-09-11T09:34:28+00:00</time>
      </trkpt>
      <trkpt lat="43.318653106689" lon="-7.6095333099365">
        <ele>454</ele>
        <time>2019-09-11T09:34:29+00:00</time>
      </trkpt>
      <trkpt lat="43.318653106689" lon="-7.6095514297485">
        <ele>454</ele>
        <time>2019-09-11T09:34:30+00:00</time>
      </trkpt>
      <trkpt lat="43.318649291992" lon="-7.6095714569092">
        <ele>454</ele>
        <time>2019-09-11T09:34:31+00:00</time>
      </trkpt>
      <trkpt lat="43.318645477295" lon="-7.6095833778381">
        <ele>454</ele>
        <time>2019-09-11T09:34:32+00:00</time>
      </trkpt>
      <trkpt lat="43.3186378479" lon="-7.60959815979">
        <ele>455</ele>
        <time>2019-09-11T09:34:33+00:00</time>
      </trkpt>
      <trkpt lat="43.318634033203" lon="-7.6096148490906">
        <ele>455</ele>
        <time>2019-09-11T09:34:34+00:00</time>
      </trkpt>
      <trkpt lat="43.31861114502" lon="-7.6096348762512">
        <ele>455</ele>
        <time>2019-09-11T09:34:35+00:00</time>
      </trkpt>
      <trkpt lat="43.318599700928" lon="-7.6096448898315">
        <ele>455</ele>
        <time>2019-09-11T09:34:36+00:00</time>
      </trkpt>
      <trkpt lat="43.318592071533" lon="-7.6096601486206">
        <ele>455</ele>
        <time>2019-09-11T09:34:37+00:00</time>
      </trkpt>
      <trkpt lat="43.318588256836" lon="-7.609673500061">
        <ele>455</ele>
        <time>2019-09-11T09:34:38+00:00</time>
      </trkpt>
      <trkpt lat="43.318580627441" lon="-7.6096849441528">
        <ele>456</ele>
        <time>2019-09-11T09:34:39+00:00</time>
      </trkpt>
      <trkpt lat="43.318576812744" lon="-7.6096835136414">
        <ele>456</ele>
        <time>2019-09-11T09:34:40+00:00</time>
      </trkpt>
      <trkpt lat="43.318565368652" lon="-7.6096816062927">
        <ele>455</ele>
        <time>2019-09-11T09:34:41+00:00</time>
      </trkpt>
      <trkpt lat="43.318561553955" lon="-7.6096816062927">
        <ele>455</ele>
        <time>2019-09-11T09:34:42+00:00</time>
      </trkpt>
      <trkpt lat="43.318553924561" lon="-7.6096816062927">
        <ele>455</ele>
        <time>2019-09-11T09:34:43+00:00</time>
      </trkpt>
      <trkpt lat="43.318546295166" lon="-7.6096868515015">
        <ele>455</ele>
        <time>2019-09-11T09:34:44+00:00</time>
      </trkpt>
      <trkpt lat="43.318534851074" lon="-7.6096949577332">
        <ele>455</ele>
        <time>2019-09-11T09:34:45+00:00</time>
      </trkpt>
      <trkpt lat="43.318531036377" lon="-7.6097068786621">
        <ele>455</ele>
        <time>2019-09-11T09:34:46+00:00</time>
      </trkpt>
      <trkpt lat="43.31852722168" lon="-7.6097264289856">
        <ele>456</ele>
        <time>2019-09-11T09:34:47+00:00</time>
      </trkpt>
      <trkpt lat="43.318511962891" lon="-7.6097364425659">
        <ele>456</ele>
        <time>2019-09-11T09:34:48+00:00</time>
      </trkpt>
      <trkpt lat="43.318504333496" lon="-7.6097483634949">
        <ele>456</ele>
        <time>2019-09-11T09:34:49+00:00</time>
      </trkpt>
      <trkpt lat="43.318504333496" lon="-7.6097583770752">
        <ele>456</ele>
        <time>2019-09-11T09:34:50+00:00</time>
      </trkpt>
      <trkpt lat="43.318500518799" lon="-7.6097664833069">
        <ele>456</ele>
        <time>2019-09-11T09:34:51+00:00</time>
      </trkpt>
      <trkpt lat="43.318496704102" lon="-7.6097817420959">
        <ele>456</ele>
        <time>2019-09-11T09:34:52+00:00</time>
      </trkpt>
      <trkpt lat="43.318496704102" lon="-7.6097850799561">
        <ele>456</ele>
        <time>2019-09-11T09:34:53+00:00</time>
      </trkpt>
      <trkpt lat="43.318496704102" lon="-7.6097984313965">
        <ele>457</ele>
        <time>2019-09-11T09:34:54+00:00</time>
      </trkpt>
      <trkpt lat="43.318496704102" lon="-7.6098031997681">
        <ele>457</ele>
        <time>2019-09-11T09:34:55+00:00</time>
      </trkpt>
      <trkpt lat="43.318496704102" lon="-7.6098198890686">
        <ele>457</ele>
        <time>2019-09-11T09:34:56+00:00</time>
      </trkpt>
      <trkpt lat="43.318500518799" lon="-7.6098318099976">
        <ele>457</ele>
        <time>2019-09-11T09:34:57+00:00</time>
      </trkpt>
      <trkpt lat="43.318492889404" lon="-7.6098432540894">
        <ele>457</ele>
        <time>2019-09-11T09:34:58+00:00</time>
      </trkpt>
      <trkpt lat="43.31848526001" lon="-7.6098666191101">
        <ele>458</ele>
        <time>2019-09-11T09:34:59+00:00</time>
      </trkpt>
      <trkpt lat="43.318481445312" lon="-7.6098899841309">
        <ele>458</ele>
        <time>2019-09-11T09:35:00+00:00</time>
      </trkpt>
      <trkpt lat="43.318470001221" lon="-7.6099181175232">
        <ele>459</ele>
        <time>2019-09-11T09:35:01+00:00</time>
      </trkpt>
      <trkpt lat="43.318458557129" lon="-7.6099367141724">
        <ele>459</ele>
        <time>2019-09-11T09:35:02+00:00</time>
      </trkpt>
      <trkpt lat="43.318458557129" lon="-7.6099581718445">
        <ele>459</ele>
        <time>2019-09-11T09:35:03+00:00</time>
      </trkpt>
      <trkpt lat="43.318458557129" lon="-7.6099767684937">
        <ele>459</ele>
        <time>2019-09-11T09:35:04+00:00</time>
      </trkpt>
      <trkpt lat="43.318458557129" lon="-7.6099934577942">
        <ele>459</ele>
        <time>2019-09-11T09:35:05+00:00</time>
      </trkpt>
      <trkpt lat="43.318454742432" lon="-7.6100115776062">
        <ele>459</ele>
        <time>2019-09-11T09:35:06+00:00</time>
      </trkpt>
      <trkpt lat="43.318458557129" lon="-7.6100268363953">
        <ele>460</ele>
        <time>2019-09-11T09:35:07+00:00</time>
      </trkpt>
      <trkpt lat="43.318458557129" lon="-7.610050201416">
        <ele>460</ele>
        <time>2019-09-11T09:35:08+00:00</time>
      </trkpt>
      <trkpt lat="43.318454742432" lon="-7.6100649833679">
        <ele>460</ele>
        <time>2019-09-11T09:35:09+00:00</time>
      </trkpt>
      <trkpt lat="43.31844329834" lon="-7.6100702285767">
        <ele>460</ele>
        <time>2019-09-11T09:35:10+00:00</time>
      </trkpt>
      <trkpt lat="43.318439483643" lon="-7.6100735664368">
        <ele>460</ele>
        <time>2019-09-11T09:35:11+00:00</time>
      </trkpt>
      <trkpt lat="43.318435668945" lon="-7.6100769042969">
        <ele>460</ele>
        <time>2019-09-11T09:35:12+00:00</time>
      </trkpt>
      <trkpt lat="43.318431854248" lon="-7.610098361969">
        <ele>460</ele>
        <time>2019-09-11T09:35:13+00:00</time>
      </trkpt>
      <trkpt lat="43.318428039551" lon="-7.6101298332214">
        <ele>460</ele>
        <time>2019-09-11T09:35:14+00:00</time>
      </trkpt>
      <trkpt lat="43.318428039551" lon="-7.6101450920105">
        <ele>460</ele>
        <time>2019-09-11T09:35:15+00:00</time>
      </trkpt>
      <trkpt lat="43.318439483643" lon="-7.6101665496826">
        <ele>460</ele>
        <time>2019-09-11T09:35:16+00:00</time>
      </trkpt>
      <trkpt lat="43.318439483643" lon="-7.6101765632629">
        <ele>460</ele>
        <time>2019-09-11T09:35:17+00:00</time>
      </trkpt>
      <trkpt lat="43.318447113037" lon="-7.610191822052">
        <ele>460</ele>
        <time>2019-09-11T09:35:18+00:00</time>
      </trkpt>
      <trkpt lat="43.318450927734" lon="-7.6102066040039">
        <ele>460</ele>
        <time>2019-09-11T09:35:19+00:00</time>
      </trkpt>
      <trkpt lat="43.318458557129" lon="-7.6102166175842">
        <ele>460</ele>
        <time>2019-09-11T09:35:20+00:00</time>
      </trkpt>
      <trkpt lat="43.318462371826" lon="-7.6102285385132">
        <ele>461</ele>
        <time>2019-09-11T09:35:21+00:00</time>
      </trkpt>
      <trkpt lat="43.318458557129" lon="-7.6102499961853">
        <ele>461</ele>
        <time>2019-09-11T09:35:22+00:00</time>
      </trkpt>
      <trkpt lat="43.318458557129" lon="-7.6102633476257">
        <ele>461</ele>
        <time>2019-09-11T09:35:23+00:00</time>
      </trkpt>
      <trkpt lat="43.318458557129" lon="-7.6102733612061">
        <ele>461</ele>
        <time>2019-09-11T09:35:24+00:00</time>
      </trkpt>
      <trkpt lat="43.318458557129" lon="-7.6102900505066">
        <ele>461</ele>
        <time>2019-09-11T09:35:25+00:00</time>
      </trkpt>
      <trkpt lat="43.318454742432" lon="-7.6103081703186">
        <ele>461</ele>
        <time>2019-09-11T09:35:26+00:00</time>
      </trkpt>
      <trkpt lat="43.31844329834" lon="-7.6103200912476">
        <ele>461</ele>
        <time>2019-09-11T09:35:27+00:00</time>
      </trkpt>
      <trkpt lat="43.318416595459" lon="-7.6103248596191">
        <ele>462</ele>
        <time>2019-09-11T09:35:28+00:00</time>
      </trkpt>
      <trkpt lat="43.318393707275" lon="-7.6103501319885">
        <ele>462</ele>
        <time>2019-09-11T09:35:29+00:00</time>
      </trkpt>
      <trkpt lat="43.318386077881" lon="-7.6103668212891">
        <ele>462</ele>
        <time>2019-09-11T09:35:30+00:00</time>
      </trkpt>
      <trkpt lat="43.318378448486" lon="-7.610381603241">
        <ele>462</ele>
        <time>2019-09-11T09:35:31+00:00</time>
      </trkpt>
      <trkpt lat="43.318378448486" lon="-7.6103882789612">
        <ele>462</ele>
        <time>2019-09-11T09:35:32+00:00</time>
      </trkpt>
      <trkpt lat="43.318386077881" lon="-7.6104035377502">
        <ele>462</ele>
        <time>2019-09-11T09:35:33+00:00</time>
      </trkpt>
      <trkpt lat="43.318389892578" lon="-7.610414981842">
        <ele>462</ele>
        <time>2019-09-11T09:35:34+00:00</time>
      </trkpt>
      <trkpt lat="43.318389892578" lon="-7.6104297637939">
        <ele>462</ele>
        <time>2019-09-11T09:35:35+00:00</time>
      </trkpt>
      <trkpt lat="43.318389892578" lon="-7.610445022583">
        <ele>462</ele>
        <time>2019-09-11T09:35:36+00:00</time>
      </trkpt>
      <trkpt lat="43.318386077881" lon="-7.6104598045349">
        <ele>462</ele>
        <time>2019-09-11T09:35:37+00:00</time>
      </trkpt>
      <trkpt lat="43.318389892578" lon="-7.6104831695557">
        <ele>462</ele>
        <time>2019-09-11T09:35:38+00:00</time>
      </trkpt>
      <trkpt lat="43.318393707275" lon="-7.6104998588562">
        <ele>462</ele>
        <time>2019-09-11T09:35:39+00:00</time>
      </trkpt>
      <trkpt lat="43.318389892578" lon="-7.6105151176453">
        <ele>462</ele>
        <time>2019-09-11T09:35:40+00:00</time>
      </trkpt>
      <trkpt lat="43.318389892578" lon="-7.6105284690857">
        <ele>462</ele>
        <time>2019-09-11T09:35:41+00:00</time>
      </trkpt>
      <trkpt lat="43.318378448486" lon="-7.610538482666">
        <ele>462</ele>
        <time>2019-09-11T09:35:42+00:00</time>
      </trkpt>
      <trkpt lat="43.318374633789" lon="-7.6105518341064">
        <ele>462</ele>
        <time>2019-09-11T09:35:43+00:00</time>
      </trkpt>
      <trkpt lat="43.318382263184" lon="-7.6105799674988">
        <ele>462</ele>
        <time>2019-09-11T09:35:44+00:00</time>
      </trkpt>
      <trkpt lat="43.318386077881" lon="-7.6106033325195">
        <ele>462</ele>
        <time>2019-09-11T09:35:45+00:00</time>
      </trkpt>
      <trkpt lat="43.318378448486" lon="-7.6106200218201">
        <ele>462</ele>
        <time>2019-09-11T09:35:46+00:00</time>
      </trkpt>
      <trkpt lat="43.318378448486" lon="-7.6106367111206">
        <ele>462</ele>
        <time>2019-09-11T09:35:47+00:00</time>
      </trkpt>
      <trkpt lat="43.318351745605" lon="-7.6106467247009">
        <ele>462</ele>
        <time>2019-09-11T09:35:48+00:00</time>
      </trkpt>
      <trkpt lat="43.318332672119" lon="-7.6106548309326">
        <ele>462</ele>
        <time>2019-09-11T09:35:49+00:00</time>
      </trkpt>
      <trkpt lat="43.31831741333" lon="-7.6106615066528">
        <ele>462</ele>
        <time>2019-09-11T09:35:50+00:00</time>
      </trkpt>
      <trkpt lat="43.318302154541" lon="-7.6106700897217">
        <ele>462</ele>
        <time>2019-09-11T09:35:51+00:00</time>
      </trkpt>
      <trkpt lat="43.318283081055" lon="-7.6106748580933">
        <ele>462</ele>
        <time>2019-09-11T09:35:52+00:00</time>
      </trkpt>
      <trkpt lat="43.318264007568" lon="-7.6106781959534">
        <ele>462</ele>
        <time>2019-09-11T09:35:53+00:00</time>
      </trkpt>
      <trkpt lat="43.318244934082" lon="-7.6106867790222">
        <ele>462</ele>
        <time>2019-09-11T09:35:54+00:00</time>
      </trkpt>
      <trkpt lat="43.31823348999" lon="-7.6106934547424">
        <ele>462</ele>
        <time>2019-09-11T09:35:55+00:00</time>
      </trkpt>
      <trkpt lat="43.318222045898" lon="-7.6107048988342">
        <ele>461</ele>
        <time>2019-09-11T09:35:56+00:00</time>
      </trkpt>
      <trkpt lat="43.318222045898" lon="-7.6107115745544">
        <ele>461</ele>
        <time>2019-09-11T09:35:57+00:00</time>
      </trkpt>
      <trkpt lat="43.318218231201" lon="-7.6107201576233">
        <ele>461</ele>
        <time>2019-09-11T09:35:58+00:00</time>
      </trkpt>
      <trkpt lat="43.318218231201" lon="-7.6107349395752">
        <ele>461</ele>
        <time>2019-09-11T09:35:59+00:00</time>
      </trkpt>
      <trkpt lat="43.318218231201" lon="-7.6107501983643">
        <ele>461</ele>
        <time>2019-09-11T09:36:00+00:00</time>
      </trkpt>
      <trkpt lat="43.318222045898" lon="-7.610773563385">
        <ele>461</ele>
        <time>2019-09-11T09:36:01+00:00</time>
      </trkpt>
      <trkpt lat="43.318229675293" lon="-7.6108016967773">
        <ele>461</ele>
        <time>2019-09-11T09:36:02+00:00</time>
      </trkpt>
      <trkpt lat="43.31823348999" lon="-7.6108250617981">
        <ele>461</ele>
        <time>2019-09-11T09:36:03+00:00</time>
      </trkpt>
      <trkpt lat="43.318241119385" lon="-7.6108465194702">
        <ele>461</ele>
        <time>2019-09-11T09:36:04+00:00</time>
      </trkpt>
      <trkpt lat="43.318256378174" lon="-7.610869884491">
        <ele>461</ele>
        <time>2019-09-11T09:36:05+00:00</time>
      </trkpt>
      <trkpt lat="43.318264007568" lon="-7.6108818054199">
        <ele>461</ele>
        <time>2019-09-11T09:36:06+00:00</time>
      </trkpt>
      <trkpt lat="43.31827545166" lon="-7.6108918190002">
        <ele>460</ele>
        <time>2019-09-11T09:36:07+00:00</time>
      </trkpt>
      <trkpt lat="43.31827545166" lon="-7.6109118461609">
        <ele>460</ele>
        <time>2019-09-11T09:36:08+00:00</time>
      </trkpt>
      <trkpt lat="43.31827545166" lon="-7.610933303833">
        <ele>460</ele>
        <time>2019-09-11T09:36:09+00:00</time>
      </trkpt>
      <trkpt lat="43.318279266357" lon="-7.6109566688538">
        <ele>460</ele>
        <time>2019-09-11T09:36:10+00:00</time>
      </trkpt>
      <trkpt lat="43.318286895752" lon="-7.6109848022461">
        <ele>460</ele>
        <time>2019-09-11T09:36:11+00:00</time>
      </trkpt>
      <trkpt lat="43.318294525146" lon="-7.6110033988953">
        <ele>459</ele>
        <time>2019-09-11T09:36:12+00:00</time>
      </trkpt>
      <trkpt lat="43.318298339844" lon="-7.6110248565674">
        <ele>459</ele>
        <time>2019-09-11T09:36:13+00:00</time>
      </trkpt>
      <trkpt lat="43.318302154541" lon="-7.611044883728">
        <ele>459</ele>
        <time>2019-09-11T09:36:14+00:00</time>
      </trkpt>
      <trkpt lat="43.318302154541" lon="-7.6110615730286">
        <ele>459</ele>
        <time>2019-09-11T09:36:15+00:00</time>
      </trkpt>
      <trkpt lat="43.318309783936" lon="-7.6110801696777">
        <ele>459</ele>
        <time>2019-09-11T09:36:16+00:00</time>
      </trkpt>
      <trkpt lat="43.318309783936" lon="-7.6110935211182">
        <ele>459</ele>
        <time>2019-09-11T09:36:17+00:00</time>
      </trkpt>
      <trkpt lat="43.318298339844" lon="-7.6111068725586">
        <ele>459</ele>
        <time>2019-09-11T09:36:18+00:00</time>
      </trkpt>
      <trkpt lat="43.318298339844" lon="-7.6111235618591">
        <ele>459</ele>
        <time>2019-09-11T09:36:19+00:00</time>
      </trkpt>
      <trkpt lat="43.318290710449" lon="-7.6111464500427">
        <ele>459</ele>
        <time>2019-09-11T09:36:20+00:00</time>
      </trkpt>
      <trkpt lat="43.318298339844" lon="-7.6111731529236">
        <ele>458</ele>
        <time>2019-09-11T09:36:21+00:00</time>
      </trkpt>
      <trkpt lat="43.318302154541" lon="-7.6111965179443">
        <ele>458</ele>
        <time>2019-09-11T09:36:22+00:00</time>
      </trkpt>
      <trkpt lat="43.318298339844" lon="-7.611216545105">
        <ele>458</ele>
        <time>2019-09-11T09:36:23+00:00</time>
      </trkpt>
      <trkpt lat="43.318298339844" lon="-7.6112217903137">
        <ele>458</ele>
        <time>2019-09-11T09:36:24+00:00</time>
      </trkpt>
      <trkpt lat="43.318305969238" lon="-7.6112284660339">
        <ele>458</ele>
        <time>2019-09-11T09:36:25+00:00</time>
      </trkpt>
      <trkpt lat="43.318313598633" lon="-7.6112351417542">
        <ele>458</ele>
        <time>2019-09-11T09:36:26+00:00</time>
      </trkpt>
      <trkpt lat="43.318309783936" lon="-7.6112418174744">
        <ele>458</ele>
        <time>2019-09-11T09:36:27+00:00</time>
      </trkpt>
      <trkpt lat="43.318305969238" lon="-7.6112465858459">
        <ele>458</ele>
        <time>2019-09-11T09:36:28+00:00</time>
      </trkpt>
      <trkpt lat="43.318302154541" lon="-7.6112565994263">
        <ele>458</ele>
        <time>2019-09-11T09:36:29+00:00</time>
      </trkpt>
      <trkpt lat="43.318294525146" lon="-7.6112699508667">
        <ele>458</ele>
        <time>2019-09-11T09:36:30+00:00</time>
      </trkpt>
      <trkpt lat="43.318286895752" lon="-7.6112866401672">
        <ele>458</ele>
        <time>2019-09-11T09:36:31+00:00</time>
      </trkpt>
      <trkpt lat="43.318286895752" lon="-7.6113066673279">
        <ele>459</ele>
        <time>2019-09-11T09:36:32+00:00</time>
      </trkpt>
      <trkpt lat="43.318286895752" lon="-7.6113266944885">
        <ele>459</ele>
        <time>2019-09-11T09:36:33+00:00</time>
      </trkpt>
      <trkpt lat="43.318286895752" lon="-7.6113448143005">
        <ele>459</ele>
        <time>2019-09-11T09:36:34+00:00</time>
      </trkpt>
      <trkpt lat="43.318283081055" lon="-7.6113648414612">
        <ele>459</ele>
        <time>2019-09-11T09:36:35+00:00</time>
      </trkpt>
      <trkpt lat="43.318283081055" lon="-7.6113867759705">
        <ele>459</ele>
        <time>2019-09-11T09:36:36+00:00</time>
      </trkpt>
      <trkpt lat="43.318279266357" lon="-7.6114068031311">
        <ele>459</ele>
        <time>2019-09-11T09:36:37+00:00</time>
      </trkpt>
      <trkpt lat="43.31827545166" lon="-7.6114268302917">
        <ele>460</ele>
        <time>2019-09-11T09:36:38+00:00</time>
      </trkpt>
      <trkpt lat="43.318271636963" lon="-7.6114449501038">
        <ele>460</ele>
        <time>2019-09-11T09:36:39+00:00</time>
      </trkpt>
      <trkpt lat="43.318271636963" lon="-7.6114602088928">
        <ele>460</ele>
        <time>2019-09-11T09:36:40+00:00</time>
      </trkpt>
      <trkpt lat="43.318271636963" lon="-7.6114783287048">
        <ele>460</ele>
        <time>2019-09-11T09:36:41+00:00</time>
      </trkpt>
      <trkpt lat="43.318271636963" lon="-7.6114964485168">
        <ele>460</ele>
        <time>2019-09-11T09:36:42+00:00</time>
      </trkpt>
      <trkpt lat="43.318271636963" lon="-7.6115117073059">
        <ele>460</ele>
        <time>2019-09-11T09:36:43+00:00</time>
      </trkpt>
      <trkpt lat="43.31827545166" lon="-7.6115264892578">
        <ele>460</ele>
        <time>2019-09-11T09:36:44+00:00</time>
      </trkpt>
      <trkpt lat="43.31827545166" lon="-7.6115365028381">
        <ele>460</ele>
        <time>2019-09-11T09:36:45+00:00</time>
      </trkpt>
      <trkpt lat="43.31827545166" lon="-7.6115517616272">
        <ele>460</ele>
        <time>2019-09-11T09:36:46+00:00</time>
      </trkpt>
      <trkpt lat="43.318283081055" lon="-7.6115684509277">
        <ele>460</ele>
        <time>2019-09-11T09:36:47+00:00</time>
      </trkpt>
      <trkpt lat="43.318290710449" lon="-7.6115865707397">
        <ele>460</ele>
        <time>2019-09-11T09:36:48+00:00</time>
      </trkpt>
      <trkpt lat="43.318286895752" lon="-7.6116032600403">
        <ele>461</ele>
        <time>2019-09-11T09:36:49+00:00</time>
      </trkpt>
      <trkpt lat="43.318286895752" lon="-7.6116185188293">
        <ele>461</ele>
        <time>2019-09-11T09:36:50+00:00</time>
      </trkpt>
      <trkpt lat="43.318286895752" lon="-7.6116366386414">
        <ele>461</ele>
        <time>2019-09-11T09:36:51+00:00</time>
      </trkpt>
      <trkpt lat="43.318286895752" lon="-7.6116499900818">
        <ele>461</ele>
        <time>2019-09-11T09:36:52+00:00</time>
      </trkpt>
      <trkpt lat="43.318283081055" lon="-7.6116633415222">
        <ele>461</ele>
        <time>2019-09-11T09:36:53+00:00</time>
      </trkpt>
      <trkpt lat="43.318279266357" lon="-7.6116766929626">
        <ele>461</ele>
        <time>2019-09-11T09:36:54+00:00</time>
      </trkpt>
      <trkpt lat="43.318260192871" lon="-7.611686706543">
        <ele>461</ele>
        <time>2019-09-11T09:36:55+00:00</time>
      </trkpt>
      <trkpt lat="43.318256378174" lon="-7.6116967201233">
        <ele>461</ele>
        <time>2019-09-11T09:36:56+00:00</time>
      </trkpt>
      <trkpt lat="43.318252563477" lon="-7.6117100715637">
        <ele>461</ele>
        <time>2019-09-11T09:36:57+00:00</time>
      </trkpt>
      <trkpt lat="43.318244934082" lon="-7.6117215156555">
        <ele>461</ele>
        <time>2019-09-11T09:36:58+00:00</time>
      </trkpt>
      <trkpt lat="43.318237304688" lon="-7.6117315292358">
        <ele>461</ele>
        <time>2019-09-11T09:36:59+00:00</time>
      </trkpt>
      <trkpt lat="43.318237304688" lon="-7.6117434501648">
        <ele>461</ele>
        <time>2019-09-11T09:37:00+00:00</time>
      </trkpt>
      <trkpt lat="43.318241119385" lon="-7.6117568016052">
        <ele>461</ele>
        <time>2019-09-11T09:37:01+00:00</time>
      </trkpt>
      <trkpt lat="43.318244934082" lon="-7.6117715835571">
        <ele>461</ele>
        <time>2019-09-11T09:37:02+00:00</time>
      </trkpt>
      <trkpt lat="43.318244934082" lon="-7.6117849349976">
        <ele>461</ele>
        <time>2019-09-11T09:37:03+00:00</time>
      </trkpt>
      <trkpt lat="43.318244934082" lon="-7.611798286438">
        <ele>461</ele>
        <time>2019-09-11T09:37:04+00:00</time>
      </trkpt>
      <trkpt lat="43.318244934082" lon="-7.6118116378784">
        <ele>461</ele>
        <time>2019-09-11T09:37:05+00:00</time>
      </trkpt>
      <trkpt lat="43.31823348999" lon="-7.6118216514587">
        <ele>461</ele>
        <time>2019-09-11T09:37:06+00:00</time>
      </trkpt>
      <trkpt lat="43.31823348999" lon="-7.6118364334106">
        <ele>461</ele>
        <time>2019-09-11T09:37:07+00:00</time>
      </trkpt>
      <trkpt lat="43.318237304688" lon="-7.6118564605713">
        <ele>461</ele>
        <time>2019-09-11T09:37:08+00:00</time>
      </trkpt>
      <trkpt lat="43.31823348999" lon="-7.6118750572205">
        <ele>461</ele>
        <time>2019-09-11T09:37:09+00:00</time>
      </trkpt>
      <trkpt lat="43.318225860596" lon="-7.611891746521">
        <ele>461</ele>
        <time>2019-09-11T09:37:10+00:00</time>
      </trkpt>
      <trkpt lat="43.318214416504" lon="-7.6119065284729">
        <ele>461</ele>
        <time>2019-09-11T09:37:11+00:00</time>
      </trkpt>
      <trkpt lat="43.318214416504" lon="-7.6119251251221">
        <ele>461</ele>
        <time>2019-09-11T09:37:12+00:00</time>
      </trkpt>
      <trkpt lat="43.318210601807" lon="-7.6119432449341">
        <ele>461</ele>
        <time>2019-09-11T09:37:13+00:00</time>
      </trkpt>
      <trkpt lat="43.318210601807" lon="-7.6119632720947">
        <ele>461</ele>
        <time>2019-09-11T09:37:14+00:00</time>
      </trkpt>
      <trkpt lat="43.318206787109" lon="-7.6119832992554">
        <ele>461</ele>
        <time>2019-09-11T09:37:15+00:00</time>
      </trkpt>
      <trkpt lat="43.318202972412" lon="-7.6120018959045">
        <ele>461</ele>
        <time>2019-09-11T09:37:16+00:00</time>
      </trkpt>
      <trkpt lat="43.318202972412" lon="-7.6120147705078">
        <ele>461</ele>
        <time>2019-09-11T09:37:17+00:00</time>
      </trkpt>
      <trkpt lat="43.318195343018" lon="-7.6120300292969">
        <ele>461</ele>
        <time>2019-09-11T09:37:18+00:00</time>
      </trkpt>
      <trkpt lat="43.31819152832" lon="-7.6120467185974">
        <ele>461</ele>
        <time>2019-09-11T09:37:19+00:00</time>
      </trkpt>
      <trkpt lat="43.318187713623" lon="-7.6120600700378">
        <ele>461</ele>
        <time>2019-09-11T09:37:20+00:00</time>
      </trkpt>
      <trkpt lat="43.318180084229" lon="-7.6120734214783">
        <ele>461</ele>
        <time>2019-09-11T09:37:21+00:00</time>
      </trkpt>
      <trkpt lat="43.318180084229" lon="-7.6120915412903">
        <ele>461</ele>
        <time>2019-09-11T09:37:22+00:00</time>
      </trkpt>
      <trkpt lat="43.318180084229" lon="-7.6121068000793">
        <ele>461</ele>
        <time>2019-09-11T09:37:23+00:00</time>
      </trkpt>
      <trkpt lat="43.318176269531" lon="-7.6121215820312">
        <ele>462</ele>
        <time>2019-09-11T09:37:24+00:00</time>
      </trkpt>
      <trkpt lat="43.318176269531" lon="-7.6121382713318">
        <ele>462</ele>
        <time>2019-09-11T09:37:25+00:00</time>
      </trkpt>
      <trkpt lat="43.318180084229" lon="-7.612156867981">
        <ele>462</ele>
        <time>2019-09-11T09:37:26+00:00</time>
      </trkpt>
      <trkpt lat="43.318180084229" lon="-7.612174987793">
        <ele>462</ele>
        <time>2019-09-11T09:37:27+00:00</time>
      </trkpt>
      <trkpt lat="43.318180084229" lon="-7.6121816635132">
        <ele>462</ele>
        <time>2019-09-11T09:37:28+00:00</time>
      </trkpt>
      <trkpt lat="43.318183898926" lon="-7.6121983528137">
        <ele>461</ele>
        <time>2019-09-11T09:37:29+00:00</time>
      </trkpt>
      <trkpt lat="43.318187713623" lon="-7.6122164726257">
        <ele>461</ele>
        <time>2019-09-11T09:37:30+00:00</time>
      </trkpt>
      <trkpt lat="43.31819152832" lon="-7.6122264862061">
        <ele>461</ele>
        <time>2019-09-11T09:37:31+00:00</time>
      </trkpt>
      <trkpt lat="43.318187713623" lon="-7.6122398376465">
        <ele>461</ele>
        <time>2019-09-11T09:37:32+00:00</time>
      </trkpt>
      <trkpt lat="43.318183898926" lon="-7.6122517585754">
        <ele>461</ele>
        <time>2019-09-11T09:37:33+00:00</time>
      </trkpt>
      <trkpt lat="43.318180084229" lon="-7.6122632026672">
        <ele>461</ele>
        <time>2019-09-11T09:37:34+00:00</time>
      </trkpt>
      <trkpt lat="43.318168640137" lon="-7.6122765541077">
        <ele>461</ele>
        <time>2019-09-11T09:37:35+00:00</time>
      </trkpt>
      <trkpt lat="43.318164825439" lon="-7.6122851371765">
        <ele>461</ele>
        <time>2019-09-11T09:37:36+00:00</time>
      </trkpt>
      <trkpt lat="43.318161010742" lon="-7.6122884750366">
        <ele>461</ele>
        <time>2019-09-11T09:37:37+00:00</time>
      </trkpt>
      <trkpt lat="43.318153381348" lon="-7.6122932434082">
        <ele>461</ele>
        <time>2019-09-11T09:37:38+00:00</time>
      </trkpt>
      <trkpt lat="43.318157196045" lon="-7.6123085021973">
        <ele>460</ele>
        <time>2019-09-11T09:37:39+00:00</time>
      </trkpt>
      <trkpt lat="43.318153381348" lon="-7.612316608429">
        <ele>460</ele>
        <time>2019-09-11T09:37:40+00:00</time>
      </trkpt>
      <trkpt lat="43.31814956665" lon="-7.6123251914978">
        <ele>459</ele>
        <time>2019-09-11T09:37:41+00:00</time>
      </trkpt>
      <trkpt lat="43.318138122559" lon="-7.612331867218">
        <ele>459</ele>
        <time>2019-09-11T09:37:42+00:00</time>
      </trkpt>
      <trkpt lat="43.318134307861" lon="-7.6123352050781">
        <ele>459</ele>
        <time>2019-09-11T09:37:43+00:00</time>
      </trkpt>
      <trkpt lat="43.318130493164" lon="-7.6123466491699">
        <ele>458</ele>
        <time>2019-09-11T09:37:44+00:00</time>
      </trkpt>
      <trkpt lat="43.318126678467" lon="-7.6123633384705">
        <ele>458</ele>
        <time>2019-09-11T09:37:45+00:00</time>
      </trkpt>
      <trkpt lat="43.318119049072" lon="-7.6123781204224">
        <ele>458</ele>
        <time>2019-09-11T09:37:46+00:00</time>
      </trkpt>
      <trkpt lat="43.318119049072" lon="-7.6123967170715">
        <ele>457</ele>
        <time>2019-09-11T09:37:47+00:00</time>
      </trkpt>
      <trkpt lat="43.318115234375" lon="-7.6124114990234">
        <ele>457</ele>
        <time>2019-09-11T09:37:48+00:00</time>
      </trkpt>
      <trkpt lat="43.318111419678" lon="-7.6124267578125">
        <ele>457</ele>
        <time>2019-09-11T09:37:49+00:00</time>
      </trkpt>
      <trkpt lat="43.318103790283" lon="-7.6124401092529">
        <ele>457</ele>
        <time>2019-09-11T09:37:50+00:00</time>
      </trkpt>
      <trkpt lat="43.318103790283" lon="-7.6124567985535">
        <ele>457</ele>
        <time>2019-09-11T09:37:51+00:00</time>
      </trkpt>
      <trkpt lat="43.318103790283" lon="-7.612473487854">
        <ele>457</ele>
        <time>2019-09-11T09:37:52+00:00</time>
      </trkpt>
      <trkpt lat="43.318099975586" lon="-7.6124868392944">
        <ele>457</ele>
        <time>2019-09-11T09:37:53+00:00</time>
      </trkpt>
      <trkpt lat="43.318096160889" lon="-7.6125001907349">
        <ele>456</ele>
        <time>2019-09-11T09:37:54+00:00</time>
      </trkpt>
      <trkpt lat="43.318099975586" lon="-7.6125149726868">
        <ele>456</ele>
        <time>2019-09-11T09:37:55+00:00</time>
      </trkpt>
      <trkpt lat="43.318103790283" lon="-7.6125335693359">
        <ele>456</ele>
        <time>2019-09-11T09:37:56+00:00</time>
      </trkpt>
      <trkpt lat="43.318099975586" lon="-7.6125483512878">
        <ele>456</ele>
        <time>2019-09-11T09:37:57+00:00</time>
      </trkpt>
      <trkpt lat="43.318088531494" lon="-7.6125583648682">
        <ele>456</ele>
        <time>2019-09-11T09:37:58+00:00</time>
      </trkpt>
      <trkpt lat="43.318084716797" lon="-7.6125750541687">
        <ele>456</ele>
        <time>2019-09-11T09:37:59+00:00</time>
      </trkpt>
      <trkpt lat="43.318084716797" lon="-7.6125950813293">
        <ele>456</ele>
        <time>2019-09-11T09:38:00+00:00</time>
      </trkpt>
      <trkpt lat="43.318084716797" lon="-7.6126117706299">
        <ele>456</ele>
        <time>2019-09-11T09:38:01+00:00</time>
      </trkpt>
      <trkpt lat="43.318077087402" lon="-7.6126184463501">
        <ele>455</ele>
        <time>2019-09-11T09:38:02+00:00</time>
      </trkpt>
      <trkpt lat="43.318073272705" lon="-7.6126298904419">
        <ele>455</ele>
        <time>2019-09-11T09:38:03+00:00</time>
      </trkpt>
      <trkpt lat="43.318069458008" lon="-7.6126418113708">
        <ele>455</ele>
        <time>2019-09-11T09:38:04+00:00</time>
      </trkpt>
      <trkpt lat="43.318065643311" lon="-7.6126565933228">
        <ele>455</ele>
        <time>2019-09-11T09:38:05+00:00</time>
      </trkpt>
      <trkpt lat="43.318058013916" lon="-7.6126666069031">
        <ele>455</ele>
        <time>2019-09-11T09:38:06+00:00</time>
      </trkpt>
      <trkpt lat="43.318050384521" lon="-7.6126866340637">
        <ele>455</ele>
        <time>2019-09-11T09:38:07+00:00</time>
      </trkpt>
      <trkpt lat="43.318046569824" lon="-7.6127033233643">
        <ele>455</ele>
        <time>2019-09-11T09:38:08+00:00</time>
      </trkpt>
      <trkpt lat="43.31803894043" lon="-7.6127181053162">
        <ele>455</ele>
        <time>2019-09-11T09:38:09+00:00</time>
      </trkpt>
      <trkpt lat="43.318035125732" lon="-7.6127333641052">
        <ele>455</ele>
        <time>2019-09-11T09:38:10+00:00</time>
      </trkpt>
      <trkpt lat="43.318027496338" lon="-7.6127381324768">
        <ele>455</ele>
        <time>2019-09-11T09:38:11+00:00</time>
      </trkpt>
      <trkpt lat="43.318031311035" lon="-7.6127367019653">
        <ele>455</ele>
        <time>2019-09-11T09:38:12+00:00</time>
      </trkpt>
      <trkpt lat="43.318035125732" lon="-7.6127381324768">
        <ele>455</ele>
        <time>2019-09-11T09:38:13+00:00</time>
      </trkpt>
      <trkpt lat="43.31803894043" lon="-7.6127314567566">
        <ele>455</ele>
        <time>2019-09-11T09:38:14+00:00</time>
      </trkpt>
      <trkpt lat="43.318031311035" lon="-7.6127333641052">
        <ele>455</ele>
        <time>2019-09-11T09:38:15+00:00</time>
      </trkpt>
      <trkpt lat="43.318019866943" lon="-7.6127400398254">
        <ele>454</ele>
        <time>2019-09-11T09:38:16+00:00</time>
      </trkpt>
      <trkpt lat="43.318004608154" lon="-7.6127533912659">
        <ele>454</ele>
        <time>2019-09-11T09:38:17+00:00</time>
      </trkpt>
      <trkpt lat="43.31799697876" lon="-7.6127581596375">
        <ele>454</ele>
        <time>2019-09-11T09:38:18+00:00</time>
      </trkpt>
      <trkpt lat="43.317989349365" lon="-7.6127581596375">
        <ele>454</ele>
        <time>2019-09-11T09:38:19+00:00</time>
      </trkpt>
      <trkpt lat="43.317985534668" lon="-7.6127667427063">
        <ele>454</ele>
        <time>2019-09-11T09:38:20+00:00</time>
      </trkpt>
      <trkpt lat="43.317985534668" lon="-7.6127781867981">
        <ele>455</ele>
        <time>2019-09-11T09:38:21+00:00</time>
      </trkpt>
      <trkpt lat="43.317981719971" lon="-7.6127848625183">
        <ele>455</ele>
        <time>2019-09-11T09:38:22+00:00</time>
      </trkpt>
      <trkpt lat="43.317977905273" lon="-7.6128015518188">
        <ele>455</ele>
        <time>2019-09-11T09:38:23+00:00</time>
      </trkpt>
      <trkpt lat="43.317974090576" lon="-7.6128182411194">
        <ele>454</ele>
        <time>2019-09-11T09:38:24+00:00</time>
      </trkpt>
      <trkpt lat="43.317974090576" lon="-7.6128401756287">
        <ele>454</ele>
        <time>2019-09-11T09:38:25+00:00</time>
      </trkpt>
      <trkpt lat="43.317966461182" lon="-7.6128616333008">
        <ele>454</ele>
        <time>2019-09-11T09:38:26+00:00</time>
      </trkpt>
      <trkpt lat="43.317962646484" lon="-7.6128768920898">
        <ele>454</ele>
        <time>2019-09-11T09:38:27+00:00</time>
      </trkpt>
      <trkpt lat="43.31795501709" lon="-7.6128964424133">
        <ele>454</ele>
        <time>2019-09-11T09:38:28+00:00</time>
      </trkpt>
      <trkpt lat="43.317947387695" lon="-7.6129183769226">
        <ele>454</ele>
        <time>2019-09-11T09:38:29+00:00</time>
      </trkpt>
      <trkpt lat="43.317947387695" lon="-7.6129484176636">
        <ele>454</ele>
        <time>2019-09-11T09:38:30+00:00</time>
      </trkpt>
      <trkpt lat="43.317939758301" lon="-7.6129651069641">
        <ele>454</ele>
        <time>2019-09-11T09:38:31+00:00</time>
      </trkpt>
      <trkpt lat="43.317928314209" lon="-7.6129717826843">
        <ele>454</ele>
        <time>2019-09-11T09:38:32+00:00</time>
      </trkpt>
      <trkpt lat="43.317920684814" lon="-7.612979888916">
        <ele>454</ele>
        <time>2019-09-11T09:38:33+00:00</time>
      </trkpt>
      <trkpt lat="43.31791305542" lon="-7.6129817962646">
        <ele>454</ele>
        <time>2019-09-11T09:38:34+00:00</time>
      </trkpt>
      <trkpt lat="43.317901611328" lon="-7.6129984855652">
        <ele>454</ele>
        <time>2019-09-11T09:38:35+00:00</time>
      </trkpt>
      <trkpt lat="43.317897796631" lon="-7.6130118370056">
        <ele>454</ele>
        <time>2019-09-11T09:38:36+00:00</time>
      </trkpt>
      <trkpt lat="43.317893981934" lon="-7.6130299568176">
        <ele>454</ele>
        <time>2019-09-11T09:38:37+00:00</time>
      </trkpt>
      <trkpt lat="43.317893981934" lon="-7.6130433082581">
        <ele>454</ele>
        <time>2019-09-11T09:38:38+00:00</time>
      </trkpt>
      <trkpt lat="43.317909240723" lon="-7.6130619049072">
        <ele>453</ele>
        <time>2019-09-11T09:38:39+00:00</time>
      </trkpt>
      <trkpt lat="43.31791305542" lon="-7.6130833625793">
        <ele>453</ele>
        <time>2019-09-11T09:38:40+00:00</time>
      </trkpt>
      <trkpt lat="43.317928314209" lon="-7.6131234169006">
        <ele>453</ele>
        <time>2019-09-11T09:38:41+00:00</time>
      </trkpt>
      <trkpt lat="43.317920684814" lon="-7.6131448745728">
        <ele>453</ele>
        <time>2019-09-11T09:38:42+00:00</time>
      </trkpt>
      <trkpt lat="43.317916870117" lon="-7.6131601333618">
        <ele>453</ele>
        <time>2019-09-11T09:38:43+00:00</time>
      </trkpt>
      <trkpt lat="43.317916870117" lon="-7.6131715774536">
        <ele>453</ele>
        <time>2019-09-11T09:38:44+00:00</time>
      </trkpt>
      <trkpt lat="43.317920684814" lon="-7.6131868362427">
        <ele>453</ele>
        <time>2019-09-11T09:38:45+00:00</time>
      </trkpt>
      <trkpt lat="43.317920684814" lon="-7.6132082939148">
        <ele>453</ele>
        <time>2019-09-11T09:38:46+00:00</time>
      </trkpt>
      <trkpt lat="43.317920684814" lon="-7.6132283210754">
        <ele>453</ele>
        <time>2019-09-11T09:38:47+00:00</time>
      </trkpt>
      <trkpt lat="43.317920684814" lon="-7.6132483482361">
        <ele>453</ele>
        <time>2019-09-11T09:38:48+00:00</time>
      </trkpt>
      <trkpt lat="43.317920684814" lon="-7.6132650375366">
        <ele>453</ele>
        <time>2019-09-11T09:38:49+00:00</time>
      </trkpt>
      <trkpt lat="43.317924499512" lon="-7.6132898330688">
        <ele>453</ele>
        <time>2019-09-11T09:38:50+00:00</time>
      </trkpt>
      <trkpt lat="43.317920684814" lon="-7.6133131980896">
        <ele>453</ele>
        <time>2019-09-11T09:38:51+00:00</time>
      </trkpt>
      <trkpt lat="43.317924499512" lon="-7.6133351325989">
        <ele>453</ele>
        <time>2019-09-11T09:38:52+00:00</time>
      </trkpt>
      <trkpt lat="43.317928314209" lon="-7.6133518218994">
        <ele>453</ele>
        <time>2019-09-11T09:38:53+00:00</time>
      </trkpt>
      <trkpt lat="43.317932128906" lon="-7.6133651733398">
        <ele>453</ele>
        <time>2019-09-11T09:38:54+00:00</time>
      </trkpt>
      <trkpt lat="43.317935943604" lon="-7.6133799552917">
        <ele>453</ele>
        <time>2019-09-11T09:38:55+00:00</time>
      </trkpt>
      <trkpt lat="43.317932128906" lon="-7.6133952140808">
        <ele>453</ele>
        <time>2019-09-11T09:38:56+00:00</time>
      </trkpt>
      <trkpt lat="43.317935943604" lon="-7.6134033203125">
        <ele>453</ele>
        <time>2019-09-11T09:38:57+00:00</time>
      </trkpt>
      <trkpt lat="43.317935943604" lon="-7.6134133338928">
        <ele>453</ele>
        <time>2019-09-11T09:38:58+00:00</time>
      </trkpt>
      <trkpt lat="43.317920684814" lon="-7.6134181022644">
        <ele>453</ele>
        <time>2019-09-11T09:38:59+00:00</time>
      </trkpt>
      <trkpt lat="43.317916870117" lon="-7.6134247779846">
        <ele>453</ele>
        <time>2019-09-11T09:39:00+00:00</time>
      </trkpt>
      <trkpt lat="43.317909240723" lon="-7.6134347915649">
        <ele>453</ele>
        <time>2019-09-11T09:39:01+00:00</time>
      </trkpt>
      <trkpt lat="43.317890167236" lon="-7.6134481430054">
        <ele>453</ele>
        <time>2019-09-11T09:39:02+00:00</time>
      </trkpt>
      <trkpt lat="43.31787109375" lon="-7.6134567260742">
        <ele>453</ele>
        <time>2019-09-11T09:39:03+00:00</time>
      </trkpt>
      <trkpt lat="43.31787109375" lon="-7.6134648323059">
        <ele>453</ele>
        <time>2019-09-11T09:39:04+00:00</time>
      </trkpt>
      <trkpt lat="43.317867279053" lon="-7.6134748458862">
        <ele>453</ele>
        <time>2019-09-11T09:39:05+00:00</time>
      </trkpt>
      <trkpt lat="43.317863464355" lon="-7.6134867668152">
        <ele>453</ele>
        <time>2019-09-11T09:39:06+00:00</time>
      </trkpt>
      <trkpt lat="43.317821502686" lon="-7.6134948730469">
        <ele>453</ele>
        <time>2019-09-11T09:39:07+00:00</time>
      </trkpt>
      <trkpt lat="43.317794799805" lon="-7.6135101318359">
        <ele>453</ele>
        <time>2019-09-11T09:39:08+00:00</time>
      </trkpt>
      <trkpt lat="43.317771911621" lon="-7.6135201454163">
        <ele>453</ele>
        <time>2019-09-11T09:39:09+00:00</time>
      </trkpt>
      <trkpt lat="43.317768096924" lon="-7.6135315895081">
        <ele>453</ele>
        <time>2019-09-11T09:39:10+00:00</time>
      </trkpt>
      <trkpt lat="43.317783355713" lon="-7.6135468482971">
        <ele>453</ele>
        <time>2019-09-11T09:39:11+00:00</time>
      </trkpt>
      <trkpt lat="43.317798614502" lon="-7.6135601997375">
        <ele>453</ele>
        <time>2019-09-11T09:39:12+00:00</time>
      </trkpt>
      <trkpt lat="43.317817687988" lon="-7.6135716438293">
        <ele>453</ele>
        <time>2019-09-11T09:39:13+00:00</time>
      </trkpt>
      <trkpt lat="43.317825317383" lon="-7.6135883331299">
        <ele>453</ele>
        <time>2019-09-11T09:39:14+00:00</time>
      </trkpt>
      <trkpt lat="43.317836761475" lon="-7.6136016845703">
        <ele>453</ele>
        <time>2019-09-11T09:39:15+00:00</time>
      </trkpt>
      <trkpt lat="43.317836761475" lon="-7.6136131286621">
        <ele>453</ele>
        <time>2019-09-11T09:39:16+00:00</time>
      </trkpt>
      <trkpt lat="43.317848205566" lon="-7.6136231422424">
        <ele>453</ele>
        <time>2019-09-11T09:39:17+00:00</time>
      </trkpt>
      <trkpt lat="43.317852020264" lon="-7.6136364936829">
        <ele>453</ele>
        <time>2019-09-11T09:39:18+00:00</time>
      </trkpt>
      <trkpt lat="43.317867279053" lon="-7.6136465072632">
        <ele>453</ele>
        <time>2019-09-11T09:39:19+00:00</time>
      </trkpt>
      <trkpt lat="43.31787109375" lon="-7.6136565208435">
        <ele>453</ele>
        <time>2019-09-11T09:39:20+00:00</time>
      </trkpt>
      <trkpt lat="43.317878723145" lon="-7.6136765480042">
        <ele>454</ele>
        <time>2019-09-11T09:39:21+00:00</time>
      </trkpt>
      <trkpt lat="43.317874908447" lon="-7.6136898994446">
        <ele>454</ele>
        <time>2019-09-11T09:39:22+00:00</time>
      </trkpt>
      <trkpt lat="43.317848205566" lon="-7.6136984825134">
        <ele>454</ele>
        <time>2019-09-11T09:39:23+00:00</time>
      </trkpt>
      <trkpt lat="43.317832946777" lon="-7.6137084960938">
        <ele>454</ele>
        <time>2019-09-11T09:39:24+00:00</time>
      </trkpt>
      <trkpt lat="43.317836761475" lon="-7.6137232780457">
        <ele>454</ele>
        <time>2019-09-11T09:39:25+00:00</time>
      </trkpt>
      <trkpt lat="43.317840576172" lon="-7.6137385368347">
        <ele>454</ele>
        <time>2019-09-11T09:39:26+00:00</time>
      </trkpt>
      <trkpt lat="43.317848205566" lon="-7.6137533187866">
        <ele>454</ele>
        <time>2019-09-11T09:39:27+00:00</time>
      </trkpt>
      <trkpt lat="43.317852020264" lon="-7.6137700080872">
        <ele>454</ele>
        <time>2019-09-11T09:39:28+00:00</time>
      </trkpt>
      <trkpt lat="43.317855834961" lon="-7.6137833595276">
        <ele>454</ele>
        <time>2019-09-11T09:39:29+00:00</time>
      </trkpt>
      <trkpt lat="43.317855834961" lon="-7.6137981414795">
        <ele>454</ele>
        <time>2019-09-11T09:39:30+00:00</time>
      </trkpt>
      <trkpt lat="43.317867279053" lon="-7.6138167381287">
        <ele>454</ele>
        <time>2019-09-11T09:39:31+00:00</time>
      </trkpt>
      <trkpt lat="43.317878723145" lon="-7.6138334274292">
        <ele>454</ele>
        <time>2019-09-11T09:39:32+00:00</time>
      </trkpt>
      <trkpt lat="43.317893981934" lon="-7.6138515472412">
        <ele>454</ele>
        <time>2019-09-11T09:39:33+00:00</time>
      </trkpt>
      <trkpt lat="43.317901611328" lon="-7.6138682365417">
        <ele>454</ele>
        <time>2019-09-11T09:39:34+00:00</time>
      </trkpt>
      <trkpt lat="43.317916870117" lon="-7.6138882637024">
        <ele>454</ele>
        <time>2019-09-11T09:39:35+00:00</time>
      </trkpt>
      <trkpt lat="43.317928314209" lon="-7.6139049530029">
        <ele>454</ele>
        <time>2019-09-11T09:39:36+00:00</time>
      </trkpt>
      <trkpt lat="43.317943572998" lon="-7.6139349937439">
        <ele>454</ele>
        <time>2019-09-11T09:39:37+00:00</time>
      </trkpt>
      <trkpt lat="43.317966461182" lon="-7.6139631271362">
        <ele>454</ele>
        <time>2019-09-11T09:39:38+00:00</time>
      </trkpt>
      <trkpt lat="43.317977905273" lon="-7.6139831542969">
        <ele>454</ele>
        <time>2019-09-11T09:39:39+00:00</time>
      </trkpt>
      <trkpt lat="43.317989349365" lon="-7.6140031814575">
        <ele>454</ele>
        <time>2019-09-11T09:39:40+00:00</time>
      </trkpt>
      <trkpt lat="43.318012237549" lon="-7.614031791687">
        <ele>454</ele>
        <time>2019-09-11T09:39:41+00:00</time>
      </trkpt>
      <trkpt lat="43.318016052246" lon="-7.6140465736389">
        <ele>454</ele>
        <time>2019-09-11T09:39:42+00:00</time>
      </trkpt>
      <trkpt lat="43.318035125732" lon="-7.6140699386597">
        <ele>454</ele>
        <time>2019-09-11T09:39:43+00:00</time>
      </trkpt>
      <trkpt lat="43.318054199219" lon="-7.6140966415405">
        <ele>454</ele>
        <time>2019-09-11T09:39:44+00:00</time>
      </trkpt>
      <trkpt lat="43.318061828613" lon="-7.6141214370728">
        <ele>454</ele>
        <time>2019-09-11T09:39:45+00:00</time>
      </trkpt>
      <trkpt lat="43.318069458008" lon="-7.6141366958618">
        <ele>454</ele>
        <time>2019-09-11T09:39:46+00:00</time>
      </trkpt>
      <trkpt lat="43.318069458008" lon="-7.6141381263733">
        <ele>454</ele>
        <time>2019-09-11T09:39:47+00:00</time>
      </trkpt>
      <trkpt lat="43.318065643311" lon="-7.6141400337219">
        <ele>454</ele>
        <time>2019-09-11T09:39:48+00:00</time>
      </trkpt>
      <trkpt lat="43.318065643311" lon="-7.6141414642334">
        <ele>454</ele>
        <time>2019-09-11T09:39:49+00:00</time>
      </trkpt>
      <trkpt lat="43.318065643311" lon="-7.6141533851624">
        <ele>454</ele>
        <time>2019-09-11T09:39:50+00:00</time>
      </trkpt>
      <trkpt lat="43.318065643311" lon="-7.6141681671143">
        <ele>454</ele>
        <time>2019-09-11T09:39:51+00:00</time>
      </trkpt>
      <trkpt lat="43.318073272705" lon="-7.6141834259033">
        <ele>454</ele>
        <time>2019-09-11T09:39:52+00:00</time>
      </trkpt>
      <trkpt lat="43.3180809021" lon="-7.6142001152039">
        <ele>454</ele>
        <time>2019-09-11T09:39:53+00:00</time>
      </trkpt>
      <trkpt lat="43.318077087402" lon="-7.6142148971558">
        <ele>454</ele>
        <time>2019-09-11T09:39:54+00:00</time>
      </trkpt>
      <trkpt lat="43.318077087402" lon="-7.6142449378967">
        <ele>455</ele>
        <time>2019-09-11T09:39:55+00:00</time>
      </trkpt>
      <trkpt lat="43.318073272705" lon="-7.6142702102661">
        <ele>455</ele>
        <time>2019-09-11T09:39:56+00:00</time>
      </trkpt>
      <trkpt lat="43.318077087402" lon="-7.6142964363098">
        <ele>456</ele>
        <time>2019-09-11T09:39:57+00:00</time>
      </trkpt>
      <trkpt lat="43.318088531494" lon="-7.6143164634705">
        <ele>456</ele>
        <time>2019-09-11T09:39:58+00:00</time>
      </trkpt>
      <trkpt lat="43.318092346191" lon="-7.614333152771">
        <ele>456</ele>
        <time>2019-09-11T09:39:59+00:00</time>
      </trkpt>
      <trkpt lat="43.318099975586" lon="-7.6143498420715">
        <ele>456</ele>
        <time>2019-09-11T09:40:00+00:00</time>
      </trkpt>
      <trkpt lat="43.318099975586" lon="-7.6143584251404">
        <ele>456</ele>
        <time>2019-09-11T09:40:01+00:00</time>
      </trkpt>
      <trkpt lat="43.318099975586" lon="-7.6143665313721">
        <ele>456</ele>
        <time>2019-09-11T09:40:02+00:00</time>
      </trkpt>
      <trkpt lat="43.318099975586" lon="-7.6143751144409">
        <ele>457</ele>
        <time>2019-09-11T09:40:03+00:00</time>
      </trkpt>
      <trkpt lat="43.318099975586" lon="-7.6143798828125">
        <ele>457</ele>
        <time>2019-09-11T09:40:04+00:00</time>
      </trkpt>
      <trkpt lat="43.318099975586" lon="-7.6144018173218">
        <ele>457</ele>
        <time>2019-09-11T09:40:05+00:00</time>
      </trkpt>
      <trkpt lat="43.318084716797" lon="-7.6144065856934">
        <ele>457</ele>
        <time>2019-09-11T09:40:06+00:00</time>
      </trkpt>
      <trkpt lat="43.318088531494" lon="-7.614408493042">
        <ele>457</ele>
        <time>2019-09-11T09:40:07+00:00</time>
      </trkpt>
      <trkpt lat="43.318111419678" lon="-7.6144199371338">
        <ele>458</ele>
        <time>2019-09-11T09:40:08+00:00</time>
      </trkpt>
      <trkpt lat="43.31812286377" lon="-7.6144285202026">
        <ele>458</ele>
        <time>2019-09-11T09:40:09+00:00</time>
      </trkpt>
      <trkpt lat="43.318126678467" lon="-7.6144452095032">
        <ele>458</ele>
        <time>2019-09-11T09:40:10+00:00</time>
      </trkpt>
      <trkpt lat="43.318138122559" lon="-7.6144585609436">
        <ele>458</ele>
        <time>2019-09-11T09:40:11+00:00</time>
      </trkpt>
      <trkpt lat="43.318145751953" lon="-7.6144700050354">
        <ele>458</ele>
        <time>2019-09-11T09:40:12+00:00</time>
      </trkpt>
      <trkpt lat="43.318145751953" lon="-7.6144914627075">
        <ele>458</ele>
        <time>2019-09-11T09:40:13+00:00</time>
      </trkpt>
      <trkpt lat="43.318145751953" lon="-7.6145081520081">
        <ele>458</ele>
        <time>2019-09-11T09:40:14+00:00</time>
      </trkpt>
      <trkpt lat="43.318138122559" lon="-7.6145215034485">
        <ele>459</ele>
        <time>2019-09-11T09:40:15+00:00</time>
      </trkpt>
      <trkpt lat="43.318130493164" lon="-7.6145415306091">
        <ele>459</ele>
        <time>2019-09-11T09:40:16+00:00</time>
      </trkpt>
      <trkpt lat="43.318126678467" lon="-7.6145534515381">
        <ele>459</ele>
        <time>2019-09-11T09:40:17+00:00</time>
      </trkpt>
      <trkpt lat="43.31812286377" lon="-7.6145615577698">
        <ele>459</ele>
        <time>2019-09-11T09:40:18+00:00</time>
      </trkpt>
      <trkpt lat="43.318126678467" lon="-7.6145768165588">
        <ele>459</ele>
        <time>2019-09-11T09:40:19+00:00</time>
      </trkpt>
      <trkpt lat="43.318126678467" lon="-7.614598274231">
        <ele>459</ele>
        <time>2019-09-11T09:40:20+00:00</time>
      </trkpt>
      <trkpt lat="43.318130493164" lon="-7.61461353302">
        <ele>459</ele>
        <time>2019-09-11T09:40:21+00:00</time>
      </trkpt>
      <trkpt lat="43.318138122559" lon="-7.6146383285522">
        <ele>460</ele>
        <time>2019-09-11T09:40:22+00:00</time>
      </trkpt>
      <trkpt lat="43.318126678467" lon="-7.6146464347839">
        <ele>460</ele>
        <time>2019-09-11T09:40:23+00:00</time>
      </trkpt>
      <trkpt lat="43.318111419678" lon="-7.6146550178528">
        <ele>460</ele>
        <time>2019-09-11T09:40:24+00:00</time>
      </trkpt>
      <trkpt lat="43.318111419678" lon="-7.6146683692932">
        <ele>460</ele>
        <time>2019-09-11T09:40:25+00:00</time>
      </trkpt>
      <trkpt lat="43.31810760498" lon="-7.6146817207336">
        <ele>460</ele>
        <time>2019-09-11T09:40:26+00:00</time>
      </trkpt>
      <trkpt lat="43.318103790283" lon="-7.6146984100342">
        <ele>460</ele>
        <time>2019-09-11T09:40:27+00:00</time>
      </trkpt>
      <trkpt lat="43.318099975586" lon="-7.6147131919861">
        <ele>460</ele>
        <time>2019-09-11T09:40:28+00:00</time>
      </trkpt>
      <trkpt lat="43.31810760498" lon="-7.6147284507751">
        <ele>460</ele>
        <time>2019-09-11T09:40:29+00:00</time>
      </trkpt>
      <trkpt lat="43.318111419678" lon="-7.6147451400757">
        <ele>460</ele>
        <time>2019-09-11T09:40:30+00:00</time>
      </trkpt>
      <trkpt lat="43.318126678467" lon="-7.6147632598877">
        <ele>460</ele>
        <time>2019-09-11T09:40:31+00:00</time>
      </trkpt>
      <trkpt lat="43.318134307861" lon="-7.6147799491882">
        <ele>460</ele>
        <time>2019-09-11T09:40:32+00:00</time>
      </trkpt>
      <trkpt lat="43.318138122559" lon="-7.6147999763489">
        <ele>460</ele>
        <time>2019-09-11T09:40:33+00:00</time>
      </trkpt>
      <trkpt lat="43.31814956665" lon="-7.6148200035095">
        <ele>460</ele>
        <time>2019-09-11T09:40:34+00:00</time>
      </trkpt>
      <trkpt lat="43.318153381348" lon="-7.6148381233215">
        <ele>459</ele>
        <time>2019-09-11T09:40:35+00:00</time>
      </trkpt>
      <trkpt lat="43.318138122559" lon="-7.614851474762">
        <ele>459</ele>
        <time>2019-09-11T09:40:36+00:00</time>
      </trkpt>
      <trkpt lat="43.318141937256" lon="-7.6148681640625">
        <ele>459</ele>
        <time>2019-09-11T09:40:37+00:00</time>
      </trkpt>
      <trkpt lat="43.318145751953" lon="-7.6148815155029">
        <ele>459</ele>
        <time>2019-09-11T09:40:38+00:00</time>
      </trkpt>
      <trkpt lat="43.318153381348" lon="-7.6149001121521">
        <ele>459</ele>
        <time>2019-09-11T09:40:39+00:00</time>
      </trkpt>
      <trkpt lat="43.318161010742" lon="-7.614914894104">
        <ele>459</ele>
        <time>2019-09-11T09:40:40+00:00</time>
      </trkpt>
      <trkpt lat="43.318157196045" lon="-7.6149334907532">
        <ele>459</ele>
        <time>2019-09-11T09:40:41+00:00</time>
      </trkpt>
      <trkpt lat="43.318157196045" lon="-7.6149501800537">
        <ele>459</ele>
        <time>2019-09-11T09:40:42+00:00</time>
      </trkpt>
      <trkpt lat="43.318161010742" lon="-7.6149649620056">
        <ele>458</ele>
        <time>2019-09-11T09:40:43+00:00</time>
      </trkpt>
      <trkpt lat="43.318164825439" lon="-7.6149802207947">
        <ele>458</ele>
        <time>2019-09-11T09:40:44+00:00</time>
      </trkpt>
      <trkpt lat="43.318145751953" lon="-7.6149930953979">
        <ele>458</ele>
        <time>2019-09-11T09:40:45+00:00</time>
      </trkpt>
      <trkpt lat="43.318141937256" lon="-7.6150116920471">
        <ele>458</ele>
        <time>2019-09-11T09:40:46+00:00</time>
      </trkpt>
      <trkpt lat="43.318141937256" lon="-7.6150298118591">
        <ele>458</ele>
        <time>2019-09-11T09:40:47+00:00</time>
      </trkpt>
      <trkpt lat="43.318141937256" lon="-7.6150465011597">
        <ele>458</ele>
        <time>2019-09-11T09:40:48+00:00</time>
      </trkpt>
      <trkpt lat="43.318145751953" lon="-7.6150684356689">
        <ele>458</ele>
        <time>2019-09-11T09:40:49+00:00</time>
      </trkpt>
      <trkpt lat="43.318141937256" lon="-7.615086555481">
        <ele>458</ele>
        <time>2019-09-11T09:40:50+00:00</time>
      </trkpt>
      <trkpt lat="43.318145751953" lon="-7.6151118278503">
        <ele>458</ele>
        <time>2019-09-11T09:40:51+00:00</time>
      </trkpt>
      <trkpt lat="43.318145751953" lon="-7.615131855011">
        <ele>458</ele>
        <time>2019-09-11T09:40:52+00:00</time>
      </trkpt>
      <trkpt lat="43.318145751953" lon="-7.6151533126831">
        <ele>458</ele>
        <time>2019-09-11T09:40:53+00:00</time>
      </trkpt>
      <trkpt lat="43.318145751953" lon="-7.6151714324951">
        <ele>458</ele>
        <time>2019-09-11T09:40:54+00:00</time>
      </trkpt>
      <trkpt lat="43.318145751953" lon="-7.6151900291443">
        <ele>458</ele>
        <time>2019-09-11T09:40:55+00:00</time>
      </trkpt>
      <trkpt lat="43.318141937256" lon="-7.6152067184448">
        <ele>458</ele>
        <time>2019-09-11T09:40:56+00:00</time>
      </trkpt>
      <trkpt lat="43.318138122559" lon="-7.6152234077454">
        <ele>459</ele>
        <time>2019-09-11T09:40:57+00:00</time>
      </trkpt>
      <trkpt lat="43.318134307861" lon="-7.6152348518372">
        <ele>459</ele>
        <time>2019-09-11T09:40:58+00:00</time>
      </trkpt>
      <trkpt lat="43.31812286377" lon="-7.6152482032776">
        <ele>459</ele>
        <time>2019-09-11T09:40:59+00:00</time>
      </trkpt>
      <trkpt lat="43.318119049072" lon="-7.615261554718">
        <ele>459</ele>
        <time>2019-09-11T09:41:00+00:00</time>
      </trkpt>
      <trkpt lat="43.318115234375" lon="-7.615273475647">
        <ele>459</ele>
        <time>2019-09-11T09:41:01+00:00</time>
      </trkpt>
      <trkpt lat="43.318115234375" lon="-7.6152901649475">
        <ele>459</ele>
        <time>2019-09-11T09:41:02+00:00</time>
      </trkpt>
      <trkpt lat="43.318111419678" lon="-7.6153101921082">
        <ele>459</ele>
        <time>2019-09-11T09:41:03+00:00</time>
      </trkpt>
      <trkpt lat="43.318103790283" lon="-7.6153202056885">
        <ele>459</ele>
        <time>2019-09-11T09:41:04+00:00</time>
      </trkpt>
      <trkpt lat="43.318103790283" lon="-7.6153302192688">
        <ele>459</ele>
        <time>2019-09-11T09:41:05+00:00</time>
      </trkpt>
      <trkpt lat="43.31810760498" lon="-7.6153464317322">
        <ele>459</ele>
        <time>2019-09-11T09:41:06+00:00</time>
      </trkpt>
      <trkpt lat="43.318111419678" lon="-7.6153664588928">
        <ele>459</ele>
        <time>2019-09-11T09:41:07+00:00</time>
      </trkpt>
      <trkpt lat="43.318111419678" lon="-7.6153817176819">
        <ele>459</ele>
        <time>2019-09-11T09:41:08+00:00</time>
      </trkpt>
      <trkpt lat="43.318103790283" lon="-7.6153950691223">
        <ele>459</ele>
        <time>2019-09-11T09:41:09+00:00</time>
      </trkpt>
      <trkpt lat="43.31810760498" lon="-7.6154117584229">
        <ele>459</ele>
        <time>2019-09-11T09:41:10+00:00</time>
      </trkpt>
      <trkpt lat="43.31810760498" lon="-7.6154251098633">
        <ele>459</ele>
        <time>2019-09-11T09:41:11+00:00</time>
      </trkpt>
      <trkpt lat="43.318111419678" lon="-7.6154365539551">
        <ele>459</ele>
        <time>2019-09-11T09:41:12+00:00</time>
      </trkpt>
      <trkpt lat="43.318111419678" lon="-7.615448474884">
        <ele>460</ele>
        <time>2019-09-11T09:41:13+00:00</time>
      </trkpt>
      <trkpt lat="43.318111419678" lon="-7.6154618263245">
        <ele>460</ele>
        <time>2019-09-11T09:41:14+00:00</time>
      </trkpt>
      <trkpt lat="43.31810760498" lon="-7.6154732704163">
        <ele>460</ele>
        <time>2019-09-11T09:41:15+00:00</time>
      </trkpt>
      <trkpt lat="43.31810760498" lon="-7.6154885292053">
        <ele>460</ele>
        <time>2019-09-11T09:41:16+00:00</time>
      </trkpt>
      <trkpt lat="43.318099975586" lon="-7.6154985427856">
        <ele>461</ele>
        <time>2019-09-11T09:41:17+00:00</time>
      </trkpt>
      <trkpt lat="43.318088531494" lon="-7.6155099868774">
        <ele>462</ele>
        <time>2019-09-11T09:41:18+00:00</time>
      </trkpt>
      <trkpt lat="43.3180809021" lon="-7.6155118942261">
        <ele>462</ele>
        <time>2019-09-11T09:41:19+00:00</time>
      </trkpt>
      <trkpt lat="43.318061828613" lon="-7.6155200004578">
        <ele>462</ele>
        <time>2019-09-11T09:41:20+00:00</time>
      </trkpt>
      <trkpt lat="43.318042755127" lon="-7.6155314445496">
        <ele>463</ele>
        <time>2019-09-11T09:41:21+00:00</time>
      </trkpt>
      <trkpt lat="43.318046569824" lon="-7.6155400276184">
        <ele>463</ele>
        <time>2019-09-11T09:41:22+00:00</time>
      </trkpt>
      <trkpt lat="43.318046569824" lon="-7.6155481338501">
        <ele>463</ele>
        <time>2019-09-11T09:41:23+00:00</time>
      </trkpt>
      <trkpt lat="43.318042755127" lon="-7.6155533790588">
        <ele>464</ele>
        <time>2019-09-11T09:41:24+00:00</time>
      </trkpt>
      <trkpt lat="43.318042755127" lon="-7.6155633926392">
        <ele>464</ele>
        <time>2019-09-11T09:41:25+00:00</time>
      </trkpt>
      <trkpt lat="43.31803894043" lon="-7.6155667304993">
        <ele>464</ele>
        <time>2019-09-11T09:41:26+00:00</time>
      </trkpt>
      <trkpt lat="43.318035125732" lon="-7.615574836731">
        <ele>464</ele>
        <time>2019-09-11T09:41:27+00:00</time>
      </trkpt>
      <trkpt lat="43.318035125732" lon="-7.6155800819397">
        <ele>464</ele>
        <time>2019-09-11T09:41:28+00:00</time>
      </trkpt>
      <trkpt lat="43.318031311035" lon="-7.6155834197998">
        <ele>464</ele>
        <time>2019-09-11T09:41:29+00:00</time>
      </trkpt>
      <trkpt lat="43.318027496338" lon="-7.6155967712402">
        <ele>464</ele>
        <time>2019-09-11T09:41:30+00:00</time>
      </trkpt>
      <trkpt lat="43.318019866943" lon="-7.6156048774719">
        <ele>465</ele>
        <time>2019-09-11T09:41:31+00:00</time>
      </trkpt>
      <trkpt lat="43.318012237549" lon="-7.6156148910522">
        <ele>465</ele>
        <time>2019-09-11T09:41:32+00:00</time>
      </trkpt>
      <trkpt lat="43.318008422852" lon="-7.6156268119812">
        <ele>465</ele>
        <time>2019-09-11T09:41:33+00:00</time>
      </trkpt>
      <trkpt lat="43.318000793457" lon="-7.6156415939331">
        <ele>465</ele>
        <time>2019-09-11T09:41:34+00:00</time>
      </trkpt>
      <trkpt lat="43.318000793457" lon="-7.6156568527222">
        <ele>465</ele>
        <time>2019-09-11T09:41:35+00:00</time>
      </trkpt>
      <trkpt lat="43.317993164062" lon="-7.6156702041626">
        <ele>465</ele>
        <time>2019-09-11T09:41:36+00:00</time>
      </trkpt>
      <trkpt lat="43.317985534668" lon="-7.615683555603">
        <ele>465</ele>
        <time>2019-09-11T09:41:37+00:00</time>
      </trkpt>
      <trkpt lat="43.317977905273" lon="-7.6156935691833">
        <ele>466</ele>
        <time>2019-09-11T09:41:38+00:00</time>
      </trkpt>
      <trkpt lat="43.317974090576" lon="-7.6156983375549">
        <ele>466</ele>
        <time>2019-09-11T09:41:39+00:00</time>
      </trkpt>
      <trkpt lat="43.317966461182" lon="-7.615701675415">
        <ele>466</ele>
        <time>2019-09-11T09:41:40+00:00</time>
      </trkpt>
      <trkpt lat="43.317958831787" lon="-7.6157050132751">
        <ele>466</ele>
        <time>2019-09-11T09:41:41+00:00</time>
      </trkpt>
      <trkpt lat="43.317958831787" lon="-7.6156949996948">
        <ele>466</ele>
        <time>2019-09-11T09:41:42+00:00</time>
      </trkpt>
      <trkpt lat="43.31795501709" lon="-7.6156983375549">
        <ele>466</ele>
        <time>2019-09-11T09:41:43+00:00</time>
      </trkpt>
      <trkpt lat="43.317951202393" lon="-7.6157031059265">
        <ele>465</ele>
        <time>2019-09-11T09:41:44+00:00</time>
      </trkpt>
      <trkpt lat="43.317947387695" lon="-7.6157197952271">
        <ele>466</ele>
        <time>2019-09-11T09:41:45+00:00</time>
      </trkpt>
      <trkpt lat="43.317943572998" lon="-7.6157383918762">
        <ele>466</ele>
        <time>2019-09-11T09:41:46+00:00</time>
      </trkpt>
      <trkpt lat="43.317932128906" lon="-7.6157431602478">
        <ele>466</ele>
        <time>2019-09-11T09:41:47+00:00</time>
      </trkpt>
      <trkpt lat="43.317916870117" lon="-7.6157550811768">
        <ele>467</ele>
        <time>2019-09-11T09:41:48+00:00</time>
      </trkpt>
      <trkpt lat="43.317905426025" lon="-7.615761756897">
        <ele>467</ele>
        <time>2019-09-11T09:41:49+00:00</time>
      </trkpt>
      <trkpt lat="43.317897796631" lon="-7.6157751083374">
        <ele>467</ele>
        <time>2019-09-11T09:41:50+00:00</time>
      </trkpt>
      <trkpt lat="43.317890167236" lon="-7.6157884597778">
        <ele>468</ele>
        <time>2019-09-11T09:41:51+00:00</time>
      </trkpt>
      <trkpt lat="43.317878723145" lon="-7.6157984733582">
        <ele>468</ele>
        <time>2019-09-11T09:41:52+00:00</time>
      </trkpt>
      <trkpt lat="43.31787109375" lon="-7.6157898902893">
        <ele>468</ele>
        <time>2019-09-11T09:41:53+00:00</time>
      </trkpt>
      <trkpt lat="43.317863464355" lon="-7.615795135498">
        <ele>468</ele>
        <time>2019-09-11T09:41:54+00:00</time>
      </trkpt>
      <trkpt lat="43.317852020264" lon="-7.6158018112183">
        <ele>468</ele>
        <time>2019-09-11T09:41:55+00:00</time>
      </trkpt>
      <trkpt lat="43.317844390869" lon="-7.6158118247986">
        <ele>468</ele>
        <time>2019-09-11T09:41:56+00:00</time>
      </trkpt>
      <trkpt lat="43.317836761475" lon="-7.615825176239">
        <ele>469</ele>
        <time>2019-09-11T09:41:57+00:00</time>
      </trkpt>
      <trkpt lat="43.317825317383" lon="-7.6158452033997">
        <ele>469</ele>
        <time>2019-09-11T09:41:58+00:00</time>
      </trkpt>
      <trkpt lat="43.317813873291" lon="-7.6158585548401">
        <ele>469</ele>
        <time>2019-09-11T09:41:59+00:00</time>
      </trkpt>
      <trkpt lat="43.317802429199" lon="-7.615873336792">
        <ele>469</ele>
        <time>2019-09-11T09:42:00+00:00</time>
      </trkpt>
      <trkpt lat="43.317790985107" lon="-7.6158900260925">
        <ele>470</ele>
        <time>2019-09-11T09:42:01+00:00</time>
      </trkpt>
      <trkpt lat="43.317783355713" lon="-7.6159000396729">
        <ele>470</ele>
        <time>2019-09-11T09:42:02+00:00</time>
      </trkpt>
      <trkpt lat="43.317771911621" lon="-7.6159067153931">
        <ele>470</ele>
        <time>2019-09-11T09:42:03+00:00</time>
      </trkpt>
      <trkpt lat="43.317764282227" lon="-7.6159148216248">
        <ele>470</ele>
        <time>2019-09-11T09:42:04+00:00</time>
      </trkpt>
      <trkpt lat="43.317749023438" lon="-7.6159315109253">
        <ele>470</ele>
        <time>2019-09-11T09:42:05+00:00</time>
      </trkpt>
      <trkpt lat="43.317737579346" lon="-7.6159482002258">
        <ele>471</ele>
        <time>2019-09-11T09:42:06+00:00</time>
      </trkpt>
      <trkpt lat="43.317726135254" lon="-7.6159601211548">
        <ele>471</ele>
        <time>2019-09-11T09:42:07+00:00</time>
      </trkpt>
      <trkpt lat="43.317714691162" lon="-7.615966796875">
        <ele>472</ele>
        <time>2019-09-11T09:42:08+00:00</time>
      </trkpt>
      <trkpt lat="43.31770324707" lon="-7.6159801483154">
        <ele>472</ele>
        <time>2019-09-11T09:42:09+00:00</time>
      </trkpt>
      <trkpt lat="43.317691802979" lon="-7.6159949302673">
        <ele>472</ele>
        <time>2019-09-11T09:42:10+00:00</time>
      </trkpt>
      <trkpt lat="43.317684173584" lon="-7.6160101890564">
        <ele>472</ele>
        <time>2019-09-11T09:42:11+00:00</time>
      </trkpt>
      <trkpt lat="43.317676544189" lon="-7.6160268783569">
        <ele>472</ele>
        <time>2019-09-11T09:42:12+00:00</time>
      </trkpt>
      <trkpt lat="43.317668914795" lon="-7.6160416603088">
        <ele>472</ele>
        <time>2019-09-11T09:42:13+00:00</time>
      </trkpt>
      <trkpt lat="43.317665100098" lon="-7.6160583496094">
        <ele>473</ele>
        <time>2019-09-11T09:42:14+00:00</time>
      </trkpt>
      <trkpt lat="43.317653656006" lon="-7.6160798072815">
        <ele>473</ele>
        <time>2019-09-11T09:42:15+00:00</time>
      </trkpt>
      <trkpt lat="43.317649841309" lon="-7.6161017417908">
        <ele>473</ele>
        <time>2019-09-11T09:42:16+00:00</time>
      </trkpt>
      <trkpt lat="43.317642211914" lon="-7.6161198616028">
        <ele>473</ele>
        <time>2019-09-11T09:42:17+00:00</time>
      </trkpt>
      <trkpt lat="43.317638397217" lon="-7.6161332130432">
        <ele>473</ele>
        <time>2019-09-11T09:42:18+00:00</time>
      </trkpt>
      <trkpt lat="43.31763458252" lon="-7.6161451339722">
        <ele>473</ele>
        <time>2019-09-11T09:42:19+00:00</time>
      </trkpt>
      <trkpt lat="43.31763458252" lon="-7.6161599159241">
        <ele>473</ele>
        <time>2019-09-11T09:42:20+00:00</time>
      </trkpt>
      <trkpt lat="43.317626953125" lon="-7.6161699295044">
        <ele>473</ele>
        <time>2019-09-11T09:42:21+00:00</time>
      </trkpt>
      <trkpt lat="43.317623138428" lon="-7.6161799430847">
        <ele>473</ele>
        <time>2019-09-11T09:42:22+00:00</time>
      </trkpt>
      <trkpt lat="43.317615509033" lon="-7.6161866188049">
        <ele>474</ele>
        <time>2019-09-11T09:42:23+00:00</time>
      </trkpt>
      <trkpt lat="43.317611694336" lon="-7.6161932945251">
        <ele>474</ele>
        <time>2019-09-11T09:42:24+00:00</time>
      </trkpt>
      <trkpt lat="43.317604064941" lon="-7.6162033081055">
        <ele>474</ele>
        <time>2019-09-11T09:42:25+00:00</time>
      </trkpt>
      <trkpt lat="43.317596435547" lon="-7.6162166595459">
        <ele>474</ele>
        <time>2019-09-11T09:42:26+00:00</time>
      </trkpt>
      <trkpt lat="43.31759262085" lon="-7.6162266731262">
        <ele>474</ele>
        <time>2019-09-11T09:42:27+00:00</time>
      </trkpt>
      <trkpt lat="43.317584991455" lon="-7.616238117218">
        <ele>474</ele>
        <time>2019-09-11T09:42:28+00:00</time>
      </trkpt>
      <trkpt lat="43.317581176758" lon="-7.6162514686584">
        <ele>474</ele>
        <time>2019-09-11T09:42:29+00:00</time>
      </trkpt>
      <trkpt lat="43.317573547363" lon="-7.6162648200989">
        <ele>474</ele>
        <time>2019-09-11T09:42:30+00:00</time>
      </trkpt>
      <trkpt lat="43.317565917969" lon="-7.6162815093994">
        <ele>475</ele>
        <time>2019-09-11T09:42:31+00:00</time>
      </trkpt>
      <trkpt lat="43.317562103271" lon="-7.6162934303284">
        <ele>475</ele>
        <time>2019-09-11T09:42:32+00:00</time>
      </trkpt>
      <trkpt lat="43.317562103271" lon="-7.6163115501404">
        <ele>475</ele>
        <time>2019-09-11T09:42:33+00:00</time>
      </trkpt>
      <trkpt lat="43.317554473877" lon="-7.6163148880005">
        <ele>475</ele>
        <time>2019-09-11T09:42:34+00:00</time>
      </trkpt>
      <trkpt lat="43.317546844482" lon="-7.6163249015808">
        <ele>475</ele>
        <time>2019-09-11T09:42:35+00:00</time>
      </trkpt>
      <trkpt lat="43.317535400391" lon="-7.6163334846497">
        <ele>475</ele>
        <time>2019-09-11T09:42:36+00:00</time>
      </trkpt>
      <trkpt lat="43.317527770996" lon="-7.6163482666016">
        <ele>475</ele>
        <time>2019-09-11T09:42:37+00:00</time>
      </trkpt>
      <trkpt lat="43.317520141602" lon="-7.6163649559021">
        <ele>475</ele>
        <time>2019-09-11T09:42:38+00:00</time>
      </trkpt>
      <trkpt lat="43.317516326904" lon="-7.6163816452026">
        <ele>475</ele>
        <time>2019-09-11T09:42:39+00:00</time>
      </trkpt>
      <trkpt lat="43.317504882812" lon="-7.6163883209229">
        <ele>474</ele>
        <time>2019-09-11T09:42:40+00:00</time>
      </trkpt>
      <trkpt lat="43.317501068115" lon="-7.6163983345032">
        <ele>474</ele>
        <time>2019-09-11T09:42:41+00:00</time>
      </trkpt>
      <trkpt lat="43.317493438721" lon="-7.6164064407349">
        <ele>474</ele>
        <time>2019-09-11T09:42:42+00:00</time>
      </trkpt>
      <trkpt lat="43.317489624023" lon="-7.6164216995239">
        <ele>474</ele>
        <time>2019-09-11T09:42:43+00:00</time>
      </trkpt>
      <trkpt lat="43.317493438721" lon="-7.6164298057556">
        <ele>474</ele>
        <time>2019-09-11T09:42:44+00:00</time>
      </trkpt>
      <trkpt lat="43.317489624023" lon="-7.6164298057556">
        <ele>474</ele>
        <time>2019-09-11T09:42:45+00:00</time>
      </trkpt>
      <trkpt lat="43.317481994629" lon="-7.6164364814758">
        <ele>474</ele>
        <time>2019-09-11T09:42:46+00:00</time>
      </trkpt>
      <trkpt lat="43.317474365234" lon="-7.6164450645447">
        <ele>474</ele>
        <time>2019-09-11T09:42:47+00:00</time>
      </trkpt>
      <trkpt lat="43.317462921143" lon="-7.6164565086365">
        <ele>474</ele>
        <time>2019-09-11T09:42:48+00:00</time>
      </trkpt>
      <trkpt lat="43.317459106445" lon="-7.6164665222168">
        <ele>474</ele>
        <time>2019-09-11T09:42:49+00:00</time>
      </trkpt>
      <trkpt lat="43.317451477051" lon="-7.6164798736572">
        <ele>474</ele>
        <time>2019-09-11T09:42:50+00:00</time>
      </trkpt>
      <trkpt lat="43.317455291748" lon="-7.616485118866">
        <ele>474</ele>
        <time>2019-09-11T09:42:51+00:00</time>
      </trkpt>
      <trkpt lat="43.317455291748" lon="-7.6164898872375">
        <ele>474</ele>
        <time>2019-09-11T09:42:52+00:00</time>
      </trkpt>
      <trkpt lat="43.317459106445" lon="-7.6164984703064">
        <ele>474</ele>
        <time>2019-09-11T09:42:53+00:00</time>
      </trkpt>
      <trkpt lat="43.317455291748" lon="-7.616503238678">
        <ele>473</ele>
        <time>2019-09-11T09:42:54+00:00</time>
      </trkpt>
      <trkpt lat="43.317462921143" lon="-7.6165165901184">
        <ele>473</ele>
        <time>2019-09-11T09:42:55+00:00</time>
      </trkpt>
      <trkpt lat="43.31746673584" lon="-7.6165266036987">
        <ele>473</ele>
        <time>2019-09-11T09:42:56+00:00</time>
      </trkpt>
      <trkpt lat="43.317462921143" lon="-7.6165318489075">
        <ele>473</ele>
        <time>2019-09-11T09:42:57+00:00</time>
      </trkpt>
      <trkpt lat="43.317459106445" lon="-7.6165399551392">
        <ele>472</ele>
        <time>2019-09-11T09:42:58+00:00</time>
      </trkpt>
      <trkpt lat="43.317459106445" lon="-7.6165499687195">
        <ele>472</ele>
        <time>2019-09-11T09:42:59+00:00</time>
      </trkpt>
      <trkpt lat="43.317455291748" lon="-7.6165599822998">
        <ele>472</ele>
        <time>2019-09-11T09:43:00+00:00</time>
      </trkpt>
      <trkpt lat="43.317451477051" lon="-7.6165719032288">
        <ele>472</ele>
        <time>2019-09-11T09:43:01+00:00</time>
      </trkpt>
      <trkpt lat="43.317443847656" lon="-7.6165866851807">
        <ele>472</ele>
        <time>2019-09-11T09:43:02+00:00</time>
      </trkpt>
      <trkpt lat="43.317443847656" lon="-7.6166081428528">
        <ele>471</ele>
        <time>2019-09-11T09:43:03+00:00</time>
      </trkpt>
      <trkpt lat="43.317451477051" lon="-7.6166434288025">
        <ele>472</ele>
        <time>2019-09-11T09:43:04+00:00</time>
      </trkpt>
      <trkpt lat="43.317447662354" lon="-7.6166567802429">
        <ele>471</ele>
        <time>2019-09-11T09:43:05+00:00</time>
      </trkpt>
      <trkpt lat="43.317443847656" lon="-7.6166634559631">
        <ele>471</ele>
        <time>2019-09-11T09:43:06+00:00</time>
      </trkpt>
      <trkpt lat="43.317440032959" lon="-7.6166734695435">
        <ele>471</ele>
        <time>2019-09-11T09:43:07+00:00</time>
      </trkpt>
      <trkpt lat="43.317436218262" lon="-7.6166868209839">
        <ele>471</ele>
        <time>2019-09-11T09:43:08+00:00</time>
      </trkpt>
      <trkpt lat="43.317428588867" lon="-7.6167016029358">
        <ele>471</ele>
        <time>2019-09-11T09:43:09+00:00</time>
      </trkpt>
      <trkpt lat="43.317436218262" lon="-7.6167149543762">
        <ele>471</ele>
        <time>2019-09-11T09:43:10+00:00</time>
      </trkpt>
      <trkpt lat="43.317436218262" lon="-7.6167283058167">
        <ele>471</ele>
        <time>2019-09-11T09:43:11+00:00</time>
      </trkpt>
      <trkpt lat="43.317432403564" lon="-7.6167497634888">
        <ele>471</ele>
        <time>2019-09-11T09:43:12+00:00</time>
      </trkpt>
      <trkpt lat="43.317436218262" lon="-7.6167683601379">
        <ele>471</ele>
        <time>2019-09-11T09:43:13+00:00</time>
      </trkpt>
      <trkpt lat="43.317440032959" lon="-7.6167831420898">
        <ele>471</ele>
        <time>2019-09-11T09:43:14+00:00</time>
      </trkpt>
      <trkpt lat="43.317447662354" lon="-7.6167964935303">
        <ele>471</ele>
        <time>2019-09-11T09:43:15+00:00</time>
      </trkpt>
      <trkpt lat="43.317451477051" lon="-7.6168098449707">
        <ele>471</ele>
        <time>2019-09-11T09:43:16+00:00</time>
      </trkpt>
      <trkpt lat="43.317451477051" lon="-7.6168298721313">
        <ele>471</ele>
        <time>2019-09-11T09:43:17+00:00</time>
      </trkpt>
      <trkpt lat="43.317455291748" lon="-7.6168484687805">
        <ele>470</ele>
        <time>2019-09-11T09:43:18+00:00</time>
      </trkpt>
      <trkpt lat="43.317440032959" lon="-7.6168699264526">
        <ele>470</ele>
        <time>2019-09-11T09:43:19+00:00</time>
      </trkpt>
      <trkpt lat="43.317440032959" lon="-7.6168818473816">
        <ele>470</ele>
        <time>2019-09-11T09:43:20+00:00</time>
      </trkpt>
      <trkpt lat="43.317443847656" lon="-7.6168932914734">
        <ele>470</ele>
        <time>2019-09-11T09:43:21+00:00</time>
      </trkpt>
      <trkpt lat="43.317447662354" lon="-7.6169018745422">
        <ele>470</ele>
        <time>2019-09-11T09:43:22+00:00</time>
      </trkpt>
      <trkpt lat="43.317443847656" lon="-7.6169052124023">
        <ele>470</ele>
        <time>2019-09-11T09:43:23+00:00</time>
      </trkpt>
      <trkpt lat="43.317451477051" lon="-7.6169033050537">
        <ele>470</ele>
        <time>2019-09-11T09:43:24+00:00</time>
      </trkpt>
      <trkpt lat="43.317443847656" lon="-7.6169066429138">
        <ele>471</ele>
        <time>2019-09-11T09:43:25+00:00</time>
      </trkpt>
      <trkpt lat="43.317451477051" lon="-7.6169152259827">
        <ele>471</ele>
        <time>2019-09-11T09:43:26+00:00</time>
      </trkpt>
      <trkpt lat="43.317447662354" lon="-7.6169281005859">
        <ele>471</ele>
        <time>2019-09-11T09:43:27+00:00</time>
      </trkpt>
      <trkpt lat="43.317470550537" lon="-7.616943359375">
        <ele>471</ele>
        <time>2019-09-11T09:43:28+00:00</time>
      </trkpt>
      <trkpt lat="43.31746673584" lon="-7.6169514656067">
        <ele>471</ele>
        <time>2019-09-11T09:43:29+00:00</time>
      </trkpt>
      <trkpt lat="43.317462921143" lon="-7.6169567108154">
        <ele>471</ele>
        <time>2019-09-11T09:43:30+00:00</time>
      </trkpt>
      <trkpt lat="43.317470550537" lon="-7.6169834136963">
        <ele>470</ele>
        <time>2019-09-11T09:43:31+00:00</time>
      </trkpt>
      <trkpt lat="43.317478179932" lon="-7.6170015335083">
        <ele>470</ele>
        <time>2019-09-11T09:43:32+00:00</time>
      </trkpt>
      <trkpt lat="43.317451477051" lon="-7.6170082092285">
        <ele>470</ele>
        <time>2019-09-11T09:43:33+00:00</time>
      </trkpt>
      <trkpt lat="43.317432403564" lon="-7.6170301437378">
        <ele>470</ele>
        <time>2019-09-11T09:43:34+00:00</time>
      </trkpt>
      <trkpt lat="43.317428588867" lon="-7.61705493927">
        <ele>470</ele>
        <time>2019-09-11T09:43:35+00:00</time>
      </trkpt>
      <trkpt lat="43.317409515381" lon="-7.6170735359192">
        <ele>470</ele>
        <time>2019-09-11T09:43:36+00:00</time>
      </trkpt>
      <trkpt lat="43.317409515381" lon="-7.6171064376831">
        <ele>469</ele>
        <time>2019-09-11T09:43:37+00:00</time>
      </trkpt>
      <trkpt lat="43.317401885986" lon="-7.6171264648438">
        <ele>469</ele>
        <time>2019-09-11T09:43:38+00:00</time>
      </trkpt>
      <trkpt lat="43.317390441895" lon="-7.617148399353">
        <ele>469</ele>
        <time>2019-09-11T09:43:39+00:00</time>
      </trkpt>
      <trkpt lat="43.317386627197" lon="-7.6171731948853">
        <ele>469</ele>
        <time>2019-09-11T09:43:40+00:00</time>
      </trkpt>
      <trkpt lat="43.317378997803" lon="-7.6171932220459">
        <ele>469</ele>
        <time>2019-09-11T09:43:41+00:00</time>
      </trkpt>
      <trkpt lat="43.317375183105" lon="-7.6172118186951">
        <ele>469</ele>
        <time>2019-09-11T09:43:42+00:00</time>
      </trkpt>
      <trkpt lat="43.317367553711" lon="-7.6172285079956">
        <ele>469</ele>
        <time>2019-09-11T09:43:43+00:00</time>
      </trkpt>
      <trkpt lat="43.317352294922" lon="-7.6172451972961">
        <ele>469</ele>
        <time>2019-09-11T09:43:44+00:00</time>
      </trkpt>
      <trkpt lat="43.317329406738" lon="-7.6172552108765">
        <ele>469</ele>
        <time>2019-09-11T09:43:45+00:00</time>
      </trkpt>
      <trkpt lat="43.317314147949" lon="-7.6172699928284">
        <ele>469</ele>
        <time>2019-09-11T09:43:46+00:00</time>
      </trkpt>
      <trkpt lat="43.317295074463" lon="-7.6172780990601">
        <ele>469</ele>
        <time>2019-09-11T09:43:47+00:00</time>
      </trkpt>
      <trkpt lat="43.317272186279" lon="-7.6172780990601">
        <ele>469</ele>
        <time>2019-09-11T09:43:48+00:00</time>
      </trkpt>
      <trkpt lat="43.317276000977" lon="-7.6172881126404">
        <ele>469</ele>
        <time>2019-09-11T09:43:49+00:00</time>
      </trkpt>
      <trkpt lat="43.317237854004" lon="-7.6172914505005">
        <ele>469</ele>
        <time>2019-09-11T09:43:50+00:00</time>
      </trkpt>
      <trkpt lat="43.317180633545" lon="-7.6172966957092">
        <ele>469</ele>
        <time>2019-09-11T09:43:51+00:00</time>
      </trkpt>
      <trkpt lat="43.317138671875" lon="-7.6173100471497">
        <ele>470</ele>
        <time>2019-09-11T09:43:52+00:00</time>
      </trkpt>
      <trkpt lat="43.317119598389" lon="-7.6173214912415">
        <ele>470</ele>
        <time>2019-09-11T09:43:53+00:00</time>
      </trkpt>
      <trkpt lat="43.317100524902" lon="-7.6173300743103">
        <ele>470</ele>
        <time>2019-09-11T09:43:54+00:00</time>
      </trkpt>
      <trkpt lat="43.317081451416" lon="-7.6173367500305">
        <ele>470</ele>
        <time>2019-09-11T09:43:55+00:00</time>
      </trkpt>
      <trkpt lat="43.317066192627" lon="-7.6173434257507">
        <ele>470</ele>
        <time>2019-09-11T09:43:56+00:00</time>
      </trkpt>
      <trkpt lat="43.317047119141" lon="-7.6173534393311">
        <ele>470</ele>
        <time>2019-09-11T09:43:57+00:00</time>
      </trkpt>
      <trkpt lat="43.317035675049" lon="-7.6173582077026">
        <ele>470</ele>
        <time>2019-09-11T09:43:58+00:00</time>
      </trkpt>
      <trkpt lat="43.317028045654" lon="-7.617368221283">
        <ele>471</ele>
        <time>2019-09-11T09:43:59+00:00</time>
      </trkpt>
      <trkpt lat="43.317016601562" lon="-7.6173734664917">
        <ele>471</ele>
        <time>2019-09-11T09:44:00+00:00</time>
      </trkpt>
      <trkpt lat="43.317012786865" lon="-7.6173849105835">
        <ele>471</ele>
        <time>2019-09-11T09:44:01+00:00</time>
      </trkpt>
      <trkpt lat="43.317005157471" lon="-7.6174001693726">
        <ele>471</ele>
        <time>2019-09-11T09:44:02+00:00</time>
      </trkpt>
      <trkpt lat="43.317001342773" lon="-7.6174101829529">
        <ele>471</ele>
        <time>2019-09-11T09:44:03+00:00</time>
      </trkpt>
      <trkpt lat="43.317001342773" lon="-7.6174216270447">
        <ele>471</ele>
        <time>2019-09-11T09:44:04+00:00</time>
      </trkpt>
      <trkpt lat="43.317001342773" lon="-7.6174449920654">
        <ele>472</ele>
        <time>2019-09-11T09:44:05+00:00</time>
      </trkpt>
      <trkpt lat="43.316997528076" lon="-7.617461681366">
        <ele>472</ele>
        <time>2019-09-11T09:44:06+00:00</time>
      </trkpt>
      <trkpt lat="43.316997528076" lon="-7.617479801178">
        <ele>472</ele>
        <time>2019-09-11T09:44:07+00:00</time>
      </trkpt>
      <trkpt lat="43.316997528076" lon="-7.6174998283386">
        <ele>473</ele>
        <time>2019-09-11T09:44:08+00:00</time>
      </trkpt>
      <trkpt lat="43.317005157471" lon="-7.6175050735474">
        <ele>473</ele>
        <time>2019-09-11T09:44:09+00:00</time>
      </trkpt>
      <trkpt lat="43.317001342773" lon="-7.617495059967">
        <ele>472</ele>
        <time>2019-09-11T09:44:10+00:00</time>
      </trkpt>
      <trkpt lat="43.316982269287" lon="-7.6174864768982">
        <ele>472</ele>
        <time>2019-09-11T09:44:11+00:00</time>
      </trkpt>
      <trkpt lat="43.316963195801" lon="-7.6174883842468">
        <ele>471</ele>
        <time>2019-09-11T09:44:12+00:00</time>
      </trkpt>
      <trkpt lat="43.316951751709" lon="-7.6175050735474">
        <ele>471</ele>
        <time>2019-09-11T09:44:13+00:00</time>
      </trkpt>
      <trkpt lat="43.316944122314" lon="-7.6175231933594">
        <ele>471</ele>
        <time>2019-09-11T09:44:14+00:00</time>
      </trkpt>
      <trkpt lat="43.316944122314" lon="-7.6175398826599">
        <ele>471</ele>
        <time>2019-09-11T09:44:15+00:00</time>
      </trkpt>
      <trkpt lat="43.316940307617" lon="-7.6175584793091">
        <ele>471</ele>
        <time>2019-09-11T09:44:16+00:00</time>
      </trkpt>
      <trkpt lat="43.316940307617" lon="-7.6175751686096">
        <ele>471</ele>
        <time>2019-09-11T09:44:17+00:00</time>
      </trkpt>
      <trkpt lat="43.31693649292" lon="-7.6176052093506">
        <ele>471</ele>
        <time>2019-09-11T09:44:18+00:00</time>
      </trkpt>
      <trkpt lat="43.316944122314" lon="-7.6176414489746">
        <ele>472</ele>
        <time>2019-09-11T09:44:19+00:00</time>
      </trkpt>
      <trkpt lat="43.316940307617" lon="-7.6176834106445">
        <ele>472</ele>
        <time>2019-09-11T09:44:20+00:00</time>
      </trkpt>
      <trkpt lat="43.316940307617" lon="-7.6177082061768">
        <ele>472</ele>
        <time>2019-09-11T09:44:21+00:00</time>
      </trkpt>
      <trkpt lat="43.31693649292" lon="-7.6177282333374">
        <ele>472</ele>
        <time>2019-09-11T09:44:22+00:00</time>
      </trkpt>
      <trkpt lat="43.316913604736" lon="-7.6177415847778">
        <ele>472</ele>
        <time>2019-09-11T09:44:23+00:00</time>
      </trkpt>
      <trkpt lat="43.31689453125" lon="-7.6177434921265">
        <ele>472</ele>
        <time>2019-09-11T09:44:24+00:00</time>
      </trkpt>
      <trkpt lat="43.316879272461" lon="-7.6177468299866">
        <ele>472</ele>
        <time>2019-09-11T09:44:25+00:00</time>
      </trkpt>
      <trkpt lat="43.316875457764" lon="-7.6177568435669">
        <ele>472</ele>
        <time>2019-09-11T09:44:26+00:00</time>
      </trkpt>
      <trkpt lat="43.316875457764" lon="-7.6177701950073">
        <ele>472</ele>
        <time>2019-09-11T09:44:27+00:00</time>
      </trkpt>
      <trkpt lat="43.316875457764" lon="-7.6177916526794">
        <ele>473</ele>
        <time>2019-09-11T09:44:28+00:00</time>
      </trkpt>
      <trkpt lat="43.316886901855" lon="-7.6178030967712">
        <ele>473</ele>
        <time>2019-09-11T09:44:29+00:00</time>
      </trkpt>
      <trkpt lat="43.316898345947" lon="-7.617826461792">
        <ele>473</ele>
        <time>2019-09-11T09:44:30+00:00</time>
      </trkpt>
      <trkpt lat="43.316898345947" lon="-7.6178383827209">
        <ele>473</ele>
        <time>2019-09-11T09:44:31+00:00</time>
      </trkpt>
      <trkpt lat="43.316898345947" lon="-7.6178584098816">
        <ele>473</ele>
        <time>2019-09-11T09:44:32+00:00</time>
      </trkpt>
      <trkpt lat="43.316905975342" lon="-7.617871761322">
        <ele>472</ele>
        <time>2019-09-11T09:44:33+00:00</time>
      </trkpt>
      <trkpt lat="43.316902160645" lon="-7.6178798675537">
        <ele>472</ele>
        <time>2019-09-11T09:44:34+00:00</time>
      </trkpt>
      <trkpt lat="43.31689453125" lon="-7.6178884506226">
        <ele>472</ele>
        <time>2019-09-11T09:44:35+00:00</time>
      </trkpt>
      <trkpt lat="43.31689453125" lon="-7.6179051399231">
        <ele>472</ele>
        <time>2019-09-11T09:44:36+00:00</time>
      </trkpt>
      <trkpt lat="43.316890716553" lon="-7.6179218292236">
        <ele>472</ele>
        <time>2019-09-11T09:44:37+00:00</time>
      </trkpt>
      <trkpt lat="43.316898345947" lon="-7.6179332733154">
        <ele>472</ele>
        <time>2019-09-11T09:44:38+00:00</time>
      </trkpt>
      <trkpt lat="43.316898345947" lon="-7.6179399490356">
        <ele>471</ele>
        <time>2019-09-11T09:44:39+00:00</time>
      </trkpt>
      <trkpt lat="43.316902160645" lon="-7.6179485321045">
        <ele>470</ele>
        <time>2019-09-11T09:44:40+00:00</time>
      </trkpt>
      <trkpt lat="43.316909790039" lon="-7.6179699897766">
        <ele>470</ele>
        <time>2019-09-11T09:44:41+00:00</time>
      </trkpt>
      <trkpt lat="43.316917419434" lon="-7.6179914474487">
        <ele>470</ele>
        <time>2019-09-11T09:44:42+00:00</time>
      </trkpt>
      <trkpt lat="43.316928863525" lon="-7.6180114746094">
        <ele>470</ele>
        <time>2019-09-11T09:44:43+00:00</time>
      </trkpt>
      <trkpt lat="43.316928863525" lon="-7.61803150177">
        <ele>469</ele>
        <time>2019-09-11T09:44:44+00:00</time>
      </trkpt>
      <trkpt lat="43.316940307617" lon="-7.6180567741394">
        <ele>469</ele>
        <time>2019-09-11T09:44:45+00:00</time>
      </trkpt>
      <trkpt lat="43.316932678223" lon="-7.6180748939514">
        <ele>468</ele>
        <time>2019-09-11T09:44:46+00:00</time>
      </trkpt>
      <trkpt lat="43.31693649292" lon="-7.6181001663208">
        <ele>468</ele>
        <time>2019-09-11T09:44:47+00:00</time>
      </trkpt>
      <trkpt lat="43.316928863525" lon="-7.6181182861328">
        <ele>468</ele>
        <time>2019-09-11T09:44:48+00:00</time>
      </trkpt>
      <trkpt lat="43.31693649292" lon="-7.6181402206421">
        <ele>468</ele>
        <time>2019-09-11T09:44:49+00:00</time>
      </trkpt>
      <trkpt lat="43.316928863525" lon="-7.6181530952454">
        <ele>467</ele>
        <time>2019-09-11T09:44:50+00:00</time>
      </trkpt>
      <trkpt lat="43.316921234131" lon="-7.6181697845459">
        <ele>467</ele>
        <time>2019-09-11T09:44:51+00:00</time>
      </trkpt>
      <trkpt lat="43.316925048828" lon="-7.6181898117065">
        <ele>467</ele>
        <time>2019-09-11T09:44:52+00:00</time>
      </trkpt>
      <trkpt lat="43.316925048828" lon="-7.6182084083557">
        <ele>466</ele>
        <time>2019-09-11T09:44:53+00:00</time>
      </trkpt>
      <trkpt lat="43.31693649292" lon="-7.6182298660278">
        <ele>466</ele>
        <time>2019-09-11T09:44:54+00:00</time>
      </trkpt>
      <trkpt lat="43.31693649292" lon="-7.6182465553284">
        <ele>466</ele>
        <time>2019-09-11T09:44:55+00:00</time>
      </trkpt>
      <trkpt lat="43.316947937012" lon="-7.6182651519775">
        <ele>466</ele>
        <time>2019-09-11T09:44:56+00:00</time>
      </trkpt>
      <trkpt lat="43.316955566406" lon="-7.6182899475098">
        <ele>466</ele>
        <time>2019-09-11T09:44:57+00:00</time>
      </trkpt>
      <trkpt lat="43.316967010498" lon="-7.6183085441589">
        <ele>466</ele>
        <time>2019-09-11T09:44:58+00:00</time>
      </trkpt>
      <trkpt lat="43.316982269287" lon="-7.6183218955994">
        <ele>466</ele>
        <time>2019-09-11T09:44:59+00:00</time>
      </trkpt>
      <trkpt lat="43.316993713379" lon="-7.6183347702026">
        <ele>466</ele>
        <time>2019-09-11T09:45:00+00:00</time>
      </trkpt>
      <trkpt lat="43.317001342773" lon="-7.6183466911316">
        <ele>466</ele>
        <time>2019-09-11T09:45:01+00:00</time>
      </trkpt>
      <trkpt lat="43.317005157471" lon="-7.618360042572">
        <ele>466</ele>
        <time>2019-09-11T09:45:02+00:00</time>
      </trkpt>
      <trkpt lat="43.317016601562" lon="-7.6183748245239">
        <ele>466</ele>
        <time>2019-09-11T09:45:03+00:00</time>
      </trkpt>
      <trkpt lat="43.31702041626" lon="-7.6183915138245">
        <ele>466</ele>
        <time>2019-09-11T09:45:04+00:00</time>
      </trkpt>
      <trkpt lat="43.317024230957" lon="-7.6184048652649">
        <ele>466</ele>
        <time>2019-09-11T09:45:05+00:00</time>
      </trkpt>
      <trkpt lat="43.317031860352" lon="-7.6184148788452">
        <ele>467</ele>
        <time>2019-09-11T09:45:06+00:00</time>
      </trkpt>
      <trkpt lat="43.317035675049" lon="-7.6184248924255">
        <ele>467</ele>
        <time>2019-09-11T09:45:07+00:00</time>
      </trkpt>
      <trkpt lat="43.317050933838" lon="-7.6184401512146">
        <ele>467</ele>
        <time>2019-09-11T09:45:08+00:00</time>
      </trkpt>
      <trkpt lat="43.31706237793" lon="-7.6184549331665">
        <ele>468</ele>
        <time>2019-09-11T09:45:09+00:00</time>
      </trkpt>
      <trkpt lat="43.317073822021" lon="-7.6184616088867">
        <ele>468</ele>
        <time>2019-09-11T09:45:10+00:00</time>
      </trkpt>
      <trkpt lat="43.317089080811" lon="-7.6184802055359">
        <ele>469</ele>
        <time>2019-09-11T09:45:11+00:00</time>
      </trkpt>
      <trkpt lat="43.317096710205" lon="-7.6184883117676">
        <ele>469</ele>
        <time>2019-09-11T09:45:12+00:00</time>
      </trkpt>
      <trkpt lat="43.3171043396" lon="-7.6184968948364">
        <ele>469</ele>
        <time>2019-09-11T09:45:13+00:00</time>
      </trkpt>
      <trkpt lat="43.317119598389" lon="-7.6185264587402">
        <ele>469</ele>
        <time>2019-09-11T09:45:14+00:00</time>
      </trkpt>
      <trkpt lat="43.317127227783" lon="-7.6185398101807">
        <ele>469</ele>
        <time>2019-09-11T09:45:15+00:00</time>
      </trkpt>
      <trkpt lat="43.317127227783" lon="-7.618549823761">
        <ele>470</ele>
        <time>2019-09-11T09:45:16+00:00</time>
      </trkpt>
      <trkpt lat="43.317134857178" lon="-7.61856508255">
        <ele>470</ele>
        <time>2019-09-11T09:45:17+00:00</time>
      </trkpt>
      <trkpt lat="43.317142486572" lon="-7.618579864502">
        <ele>470</ele>
        <time>2019-09-11T09:45:18+00:00</time>
      </trkpt>
      <trkpt lat="43.317150115967" lon="-7.6185965538025">
        <ele>470</ele>
        <time>2019-09-11T09:45:19+00:00</time>
      </trkpt>
      <trkpt lat="43.317153930664" lon="-7.6186099052429">
        <ele>470</ele>
        <time>2019-09-11T09:45:20+00:00</time>
      </trkpt>
      <trkpt lat="43.317157745361" lon="-7.6186218261719">
        <ele>471</ele>
        <time>2019-09-11T09:45:21+00:00</time>
      </trkpt>
      <trkpt lat="43.317161560059" lon="-7.6186351776123">
        <ele>471</ele>
        <time>2019-09-11T09:45:22+00:00</time>
      </trkpt>
      <trkpt lat="43.317169189453" lon="-7.6186499595642">
        <ele>471</ele>
        <time>2019-09-11T09:45:23+00:00</time>
      </trkpt>
      <trkpt lat="43.317176818848" lon="-7.6186652183533">
        <ele>471</ele>
        <time>2019-09-11T09:45:24+00:00</time>
      </trkpt>
      <trkpt lat="43.317176818848" lon="-7.6186785697937">
        <ele>471</ele>
        <time>2019-09-11T09:45:25+00:00</time>
      </trkpt>
      <trkpt lat="43.317184448242" lon="-7.6187014579773">
        <ele>471</ele>
        <time>2019-09-11T09:45:26+00:00</time>
      </trkpt>
      <trkpt lat="43.317188262939" lon="-7.6187267303467">
        <ele>471</ele>
        <time>2019-09-11T09:45:27+00:00</time>
      </trkpt>
      <trkpt lat="43.317192077637" lon="-7.6187415122986">
        <ele>471</ele>
        <time>2019-09-11T09:45:28+00:00</time>
      </trkpt>
      <trkpt lat="43.317203521729" lon="-7.6187467575073">
        <ele>471</ele>
        <time>2019-09-11T09:45:29+00:00</time>
      </trkpt>
      <trkpt lat="43.317203521729" lon="-7.6187567710876">
        <ele>471</ele>
        <time>2019-09-11T09:45:30+00:00</time>
      </trkpt>
      <trkpt lat="43.317207336426" lon="-7.6187615394592">
        <ele>472</ele>
        <time>2019-09-11T09:45:31+00:00</time>
      </trkpt>
      <trkpt lat="43.317211151123" lon="-7.6187634468079">
        <ele>472</ele>
        <time>2019-09-11T09:45:32+00:00</time>
      </trkpt>
      <trkpt lat="43.31721496582" lon="-7.6187715530396">
        <ele>472</ele>
        <time>2019-09-11T09:45:33+00:00</time>
      </trkpt>
      <trkpt lat="43.317218780518" lon="-7.6187767982483">
        <ele>472</ele>
        <time>2019-09-11T09:45:34+00:00</time>
      </trkpt>
      <trkpt lat="43.317230224609" lon="-7.6187882423401">
        <ele>472</ele>
        <time>2019-09-11T09:45:35+00:00</time>
      </trkpt>
      <trkpt lat="43.317241668701" lon="-7.6188035011292">
        <ele>472</ele>
        <time>2019-09-11T09:45:36+00:00</time>
      </trkpt>
      <trkpt lat="43.317241668701" lon="-7.6188149452209">
        <ele>472</ele>
        <time>2019-09-11T09:45:37+00:00</time>
      </trkpt>
      <trkpt lat="43.317245483398" lon="-7.6188316345215">
        <ele>472</ele>
        <time>2019-09-11T09:45:38+00:00</time>
      </trkpt>
      <trkpt lat="43.317241668701" lon="-7.6188435554504">
        <ele>472</ele>
        <time>2019-09-11T09:45:39+00:00</time>
      </trkpt>
      <trkpt lat="43.317241668701" lon="-7.6188516616821">
        <ele>472</ele>
        <time>2019-09-11T09:45:40+00:00</time>
      </trkpt>
      <trkpt lat="43.317249298096" lon="-7.6188597679138">
        <ele>471</ele>
        <time>2019-09-11T09:45:41+00:00</time>
      </trkpt>
      <trkpt lat="43.31725692749" lon="-7.6188650131226">
        <ele>472</ele>
        <time>2019-09-11T09:45:42+00:00</time>
      </trkpt>
      <trkpt lat="43.31725692749" lon="-7.6188697814941">
        <ele>472</ele>
        <time>2019-09-11T09:45:43+00:00</time>
      </trkpt>
      <trkpt lat="43.31725692749" lon="-7.6188731193542">
        <ele>472</ele>
        <time>2019-09-11T09:45:44+00:00</time>
      </trkpt>
      <trkpt lat="43.31725692749" lon="-7.6188716888428">
        <ele>472</ele>
        <time>2019-09-11T09:45:45+00:00</time>
      </trkpt>
      <trkpt lat="43.317268371582" lon="-7.6188797950745">
        <ele>472</ele>
        <time>2019-09-11T09:45:46+00:00</time>
      </trkpt>
      <trkpt lat="43.317268371582" lon="-7.6188864707947">
        <ele>473</ele>
        <time>2019-09-11T09:45:47+00:00</time>
      </trkpt>
      <trkpt lat="43.317283630371" lon="-7.6189017295837">
        <ele>473</ele>
        <time>2019-09-11T09:45:48+00:00</time>
      </trkpt>
      <trkpt lat="43.317295074463" lon="-7.6189150810242">
        <ele>473</ele>
        <time>2019-09-11T09:45:49+00:00</time>
      </trkpt>
      <trkpt lat="43.317302703857" lon="-7.6189231872559">
        <ele>474</ele>
        <time>2019-09-11T09:45:50+00:00</time>
      </trkpt>
      <trkpt lat="43.317314147949" lon="-7.6189298629761">
        <ele>474</ele>
        <time>2019-09-11T09:45:51+00:00</time>
      </trkpt>
      <trkpt lat="43.317333221436" lon="-7.6189317703247">
        <ele>474</ele>
        <time>2019-09-11T09:45:52+00:00</time>
      </trkpt>
      <trkpt lat="43.317356109619" lon="-7.6189384460449">
        <ele>475</ele>
        <time>2019-09-11T09:45:53+00:00</time>
      </trkpt>
      <trkpt lat="43.317367553711" lon="-7.6189432144165">
        <ele>475</ele>
        <time>2019-09-11T09:45:54+00:00</time>
      </trkpt>
      <trkpt lat="43.317375183105" lon="-7.6189551353455">
        <ele>476</ele>
        <time>2019-09-11T09:45:55+00:00</time>
      </trkpt>
      <trkpt lat="43.3173828125" lon="-7.6189517974854">
        <ele>476</ele>
        <time>2019-09-11T09:45:56+00:00</time>
      </trkpt>
      <trkpt lat="43.3173828125" lon="-7.6189465522766">
        <ele>476</ele>
        <time>2019-09-11T09:45:57+00:00</time>
      </trkpt>
      <trkpt lat="43.317359924316" lon="-7.6189484596252">
        <ele>477</ele>
        <time>2019-09-11T09:45:58+00:00</time>
      </trkpt>
      <trkpt lat="43.317344665527" lon="-7.6189565658569">
        <ele>477</ele>
        <time>2019-09-11T09:45:59+00:00</time>
      </trkpt>
      <trkpt lat="43.31734085083" lon="-7.6189618110657">
        <ele>477</ele>
        <time>2019-09-11T09:46:00+00:00</time>
      </trkpt>
      <trkpt lat="43.317344665527" lon="-7.6189618110657">
        <ele>477</ele>
        <time>2019-09-11T09:46:01+00:00</time>
      </trkpt>
      <trkpt lat="43.317352294922" lon="-7.6189632415771">
        <ele>478</ele>
        <time>2019-09-11T09:46:02+00:00</time>
      </trkpt>
      <trkpt lat="43.317363739014" lon="-7.6189832687378">
        <ele>478</ele>
        <time>2019-09-11T09:46:03+00:00</time>
      </trkpt>
      <trkpt lat="43.317375183105" lon="-7.6189885139465">
        <ele>478</ele>
        <time>2019-09-11T09:46:04+00:00</time>
      </trkpt>
      <trkpt lat="43.3173828125" lon="-7.6189885139465">
        <ele>479</ele>
        <time>2019-09-11T09:46:05+00:00</time>
      </trkpt>
      <trkpt lat="43.317417144775" lon="-7.6189866065979">
        <ele>478</ele>
        <time>2019-09-11T09:46:06+00:00</time>
      </trkpt>
      <trkpt lat="43.317459106445" lon="-7.6190099716187">
        <ele>478</ele>
        <time>2019-09-11T09:46:07+00:00</time>
      </trkpt>
      <trkpt lat="43.317501068115" lon="-7.619038105011">
        <ele>476</ele>
        <time>2019-09-11T09:46:08+00:00</time>
      </trkpt>
      <trkpt lat="43.317543029785" lon="-7.6190447807312">
        <ele>475</ele>
        <time>2019-09-11T09:46:09+00:00</time>
      </trkpt>
      <trkpt lat="43.317558288574" lon="-7.6190514564514">
        <ele>475</ele>
        <time>2019-09-11T09:46:10+00:00</time>
      </trkpt>
      <trkpt lat="43.317565917969" lon="-7.6190581321716">
        <ele>475</ele>
        <time>2019-09-11T09:46:11+00:00</time>
      </trkpt>
      <trkpt lat="43.317577362061" lon="-7.6190667152405">
        <ele>475</ele>
        <time>2019-09-11T09:46:12+00:00</time>
      </trkpt>
      <trkpt lat="43.317584991455" lon="-7.6190733909607">
        <ele>475</ele>
        <time>2019-09-11T09:46:13+00:00</time>
      </trkpt>
      <trkpt lat="43.31759262085" lon="-7.6190867424011">
        <ele>475</ele>
        <time>2019-09-11T09:46:14+00:00</time>
      </trkpt>
      <trkpt lat="43.317600250244" lon="-7.6190981864929">
        <ele>475</ele>
        <time>2019-09-11T09:46:15+00:00</time>
      </trkpt>
      <trkpt lat="43.317611694336" lon="-7.6191067695618">
        <ele>475</ele>
        <time>2019-09-11T09:46:16+00:00</time>
      </trkpt>
      <trkpt lat="43.317615509033" lon="-7.6191182136536">
        <ele>475</ele>
        <time>2019-09-11T09:46:17+00:00</time>
      </trkpt>
      <trkpt lat="43.317623138428" lon="-7.619131565094">
        <ele>475</ele>
        <time>2019-09-11T09:46:18+00:00</time>
      </trkpt>
      <trkpt lat="43.317626953125" lon="-7.6191415786743">
        <ele>475</ele>
        <time>2019-09-11T09:46:19+00:00</time>
      </trkpt>
      <trkpt lat="43.31763458252" lon="-7.6191515922546">
        <ele>475</ele>
        <time>2019-09-11T09:46:20+00:00</time>
      </trkpt>
      <trkpt lat="43.317638397217" lon="-7.619161605835">
        <ele>476</ele>
        <time>2019-09-11T09:46:21+00:00</time>
      </trkpt>
      <trkpt lat="43.317649841309" lon="-7.6191735267639">
        <ele>476</ele>
        <time>2019-09-11T09:46:22+00:00</time>
      </trkpt>
      <trkpt lat="43.317665100098" lon="-7.6191968917847">
        <ele>476</ele>
        <time>2019-09-11T09:46:23+00:00</time>
      </trkpt>
      <trkpt lat="43.317676544189" lon="-7.6192064285278">
        <ele>477</ele>
        <time>2019-09-11T09:46:24+00:00</time>
      </trkpt>
      <trkpt lat="43.317687988281" lon="-7.619225025177">
        <ele>477</ele>
        <time>2019-09-11T09:46:25+00:00</time>
      </trkpt>
      <trkpt lat="43.317695617676" lon="-7.6192317008972">
        <ele>477</ele>
        <time>2019-09-11T09:46:26+00:00</time>
      </trkpt>
      <trkpt lat="43.317695617676" lon="-7.6192464828491">
        <ele>477</ele>
        <time>2019-09-11T09:46:27+00:00</time>
      </trkpt>
      <trkpt lat="43.31770324707" lon="-7.6192617416382">
        <ele>477</ele>
        <time>2019-09-11T09:46:28+00:00</time>
      </trkpt>
      <trkpt lat="43.317714691162" lon="-7.6192784309387">
        <ele>477</ele>
        <time>2019-09-11T09:46:29+00:00</time>
      </trkpt>
      <trkpt lat="43.317726135254" lon="-7.6192817687988">
        <ele>477</ele>
        <time>2019-09-11T09:46:30+00:00</time>
      </trkpt>
      <trkpt lat="43.317729949951" lon="-7.6192798614502">
        <ele>477</ele>
        <time>2019-09-11T09:46:31+00:00</time>
      </trkpt>
      <trkpt lat="43.317737579346" lon="-7.6192865371704">
        <ele>477</ele>
        <time>2019-09-11T09:46:32+00:00</time>
      </trkpt>
      <trkpt lat="43.31774520874" lon="-7.6192932128906">
        <ele>478</ele>
        <time>2019-09-11T09:46:33+00:00</time>
      </trkpt>
      <trkpt lat="43.31774520874" lon="-7.6193032264709">
        <ele>478</ele>
        <time>2019-09-11T09:46:34+00:00</time>
      </trkpt>
      <trkpt lat="43.31774520874" lon="-7.6193199157715">
        <ele>478</ele>
        <time>2019-09-11T09:46:35+00:00</time>
      </trkpt>
      <trkpt lat="43.317756652832" lon="-7.619348526001">
        <ele>478</ele>
        <time>2019-09-11T09:46:36+00:00</time>
      </trkpt>
      <trkpt lat="43.317764282227" lon="-7.6193552017212">
        <ele>478</ele>
        <time>2019-09-11T09:46:37+00:00</time>
      </trkpt>
      <trkpt lat="43.317771911621" lon="-7.6193599700928">
        <ele>478</ele>
        <time>2019-09-11T09:46:38+00:00</time>
      </trkpt>
      <trkpt lat="43.317775726318" lon="-7.619366645813">
        <ele>478</ele>
        <time>2019-09-11T09:46:39+00:00</time>
      </trkpt>
      <trkpt lat="43.317779541016" lon="-7.6193799972534">
        <ele>478</ele>
        <time>2019-09-11T09:46:40+00:00</time>
      </trkpt>
      <trkpt lat="43.317783355713" lon="-7.6193833351135">
        <ele>478</ele>
        <time>2019-09-11T09:46:41+00:00</time>
      </trkpt>
      <trkpt lat="43.31778717041" lon="-7.6193914413452">
        <ele>478</ele>
        <time>2019-09-11T09:46:42+00:00</time>
      </trkpt>
      <trkpt lat="43.317794799805" lon="-7.6193981170654">
        <ele>478</ele>
        <time>2019-09-11T09:46:43+00:00</time>
      </trkpt>
      <trkpt lat="43.317806243896" lon="-7.6194100379944">
        <ele>478</ele>
        <time>2019-09-11T09:46:44+00:00</time>
      </trkpt>
      <trkpt lat="43.317798614502" lon="-7.6194181442261">
        <ele>478</ele>
        <time>2019-09-11T09:46:45+00:00</time>
      </trkpt>
      <trkpt lat="43.317783355713" lon="-7.6194281578064">
        <ele>478</ele>
        <time>2019-09-11T09:46:46+00:00</time>
      </trkpt>
      <trkpt lat="43.31778717041" lon="-7.6194367408752">
        <ele>478</ele>
        <time>2019-09-11T09:46:47+00:00</time>
      </trkpt>
      <trkpt lat="43.317798614502" lon="-7.6194448471069">
        <ele>478</ele>
        <time>2019-09-11T09:46:48+00:00</time>
      </trkpt>
      <trkpt lat="43.317810058594" lon="-7.619448184967">
        <ele>478</ele>
        <time>2019-09-11T09:46:49+00:00</time>
      </trkpt>
      <trkpt lat="43.317817687988" lon="-7.6194515228271">
        <ele>478</ele>
        <time>2019-09-11T09:46:50+00:00</time>
      </trkpt>
      <trkpt lat="43.31782913208" lon="-7.6194534301758">
        <ele>478</ele>
        <time>2019-09-11T09:46:51+00:00</time>
      </trkpt>
      <trkpt lat="43.317840576172" lon="-7.6194634437561">
        <ele>478</ele>
        <time>2019-09-11T09:46:52+00:00</time>
      </trkpt>
      <trkpt lat="43.317852020264" lon="-7.6194734573364">
        <ele>478</ele>
        <time>2019-09-11T09:46:53+00:00</time>
      </trkpt>
      <trkpt lat="43.317863464355" lon="-7.6194801330566">
        <ele>478</ele>
        <time>2019-09-11T09:46:54+00:00</time>
      </trkpt>
      <trkpt lat="43.317874908447" lon="-7.6194882392883">
        <ele>478</ele>
        <time>2019-09-11T09:46:55+00:00</time>
      </trkpt>
      <trkpt lat="43.317886352539" lon="-7.6195049285889">
        <ele>478</ele>
        <time>2019-09-11T09:46:56+00:00</time>
      </trkpt>
      <trkpt lat="43.317890167236" lon="-7.619523525238">
        <ele>478</ele>
        <time>2019-09-11T09:46:57+00:00</time>
      </trkpt>
      <trkpt lat="43.317893981934" lon="-7.6195402145386">
        <ele>479</ele>
        <time>2019-09-11T09:46:58+00:00</time>
      </trkpt>
      <trkpt lat="43.317886352539" lon="-7.6195664405823">
        <ele>479</ele>
        <time>2019-09-11T09:46:59+00:00</time>
      </trkpt>
      <trkpt lat="43.317893981934" lon="-7.6195850372314">
        <ele>480</ele>
        <time>2019-09-11T09:47:00+00:00</time>
      </trkpt>
      <trkpt lat="43.317897796631" lon="-7.619601726532">
        <ele>480</ele>
        <time>2019-09-11T09:47:01+00:00</time>
      </trkpt>
      <trkpt lat="43.317901611328" lon="-7.6196184158325">
        <ele>480</ele>
        <time>2019-09-11T09:47:02+00:00</time>
      </trkpt>
      <trkpt lat="43.317890167236" lon="-7.6196298599243">
        <ele>480</ele>
        <time>2019-09-11T09:47:03+00:00</time>
      </trkpt>
      <trkpt lat="43.317890167236" lon="-7.6196451187134">
        <ele>480</ele>
        <time>2019-09-11T09:47:04+00:00</time>
      </trkpt>
      <trkpt lat="43.317890167236" lon="-7.6196551322937">
        <ele>481</ele>
        <time>2019-09-11T09:47:05+00:00</time>
      </trkpt>
      <trkpt lat="43.317878723145" lon="-7.6196599006653">
        <ele>481</ele>
        <time>2019-09-11T09:47:06+00:00</time>
      </trkpt>
      <trkpt lat="43.317863464355" lon="-7.6196665763855">
        <ele>481</ele>
        <time>2019-09-11T09:47:07+00:00</time>
      </trkpt>
      <trkpt lat="43.317859649658" lon="-7.6196818351746">
        <ele>481</ele>
        <time>2019-09-11T09:47:08+00:00</time>
      </trkpt>
      <trkpt lat="43.317859649658" lon="-7.6196985244751">
        <ele>481</ele>
        <time>2019-09-11T09:47:09+00:00</time>
      </trkpt>
      <trkpt lat="43.317859649658" lon="-7.619713306427">
        <ele>482</ele>
        <time>2019-09-11T09:47:10+00:00</time>
      </trkpt>
      <trkpt lat="43.317852020264" lon="-7.6197233200073">
        <ele>482</ele>
        <time>2019-09-11T09:47:11+00:00</time>
      </trkpt>
      <trkpt lat="43.317844390869" lon="-7.6197333335876">
        <ele>482</ele>
        <time>2019-09-11T09:47:12+00:00</time>
      </trkpt>
      <trkpt lat="43.317836761475" lon="-7.6197414398193">
        <ele>482</ele>
        <time>2019-09-11T09:47:13+00:00</time>
      </trkpt>
      <trkpt lat="43.317825317383" lon="-7.6197500228882">
        <ele>483</ele>
        <time>2019-09-11T09:47:14+00:00</time>
      </trkpt>
      <trkpt lat="43.317817687988" lon="-7.6197533607483">
        <ele>483</ele>
        <time>2019-09-11T09:47:15+00:00</time>
      </trkpt>
      <trkpt lat="43.317806243896" lon="-7.6197547912598">
        <ele>483</ele>
        <time>2019-09-11T09:47:16+00:00</time>
      </trkpt>
      <trkpt lat="43.317794799805" lon="-7.6197566986084">
        <ele>483</ele>
        <time>2019-09-11T09:47:17+00:00</time>
      </trkpt>
      <trkpt lat="43.317775726318" lon="-7.6197600364685">
        <ele>484</ele>
        <time>2019-09-11T09:47:18+00:00</time>
      </trkpt>
      <trkpt lat="43.317768096924" lon="-7.6197714805603">
        <ele>484</ele>
        <time>2019-09-11T09:47:19+00:00</time>
      </trkpt>
      <trkpt lat="43.317764282227" lon="-7.6197881698608">
        <ele>484</ele>
        <time>2019-09-11T09:47:20+00:00</time>
      </trkpt>
      <trkpt lat="43.317760467529" lon="-7.6198048591614">
        <ele>484</ele>
        <time>2019-09-11T09:47:21+00:00</time>
      </trkpt>
      <trkpt lat="43.317756652832" lon="-7.6198234558105">
        <ele>484</ele>
        <time>2019-09-11T09:47:22+00:00</time>
      </trkpt>
      <trkpt lat="43.317752838135" lon="-7.6198415756226">
        <ele>485</ele>
        <time>2019-09-11T09:47:23+00:00</time>
      </trkpt>
      <trkpt lat="43.317749023438" lon="-7.6198582649231">
        <ele>485</ele>
        <time>2019-09-11T09:47:24+00:00</time>
      </trkpt>
      <trkpt lat="43.317741394043" lon="-7.6198816299438">
        <ele>485</ele>
        <time>2019-09-11T09:47:25+00:00</time>
      </trkpt>
      <trkpt lat="43.317737579346" lon="-7.6199016571045">
        <ele>485</ele>
        <time>2019-09-11T09:47:26+00:00</time>
      </trkpt>
      <trkpt lat="43.317737579346" lon="-7.6199164390564">
        <ele>485</ele>
        <time>2019-09-11T09:47:27+00:00</time>
      </trkpt>
      <trkpt lat="43.317733764648" lon="-7.6199331283569">
        <ele>485</ele>
        <time>2019-09-11T09:47:28+00:00</time>
      </trkpt>
      <trkpt lat="43.317737579346" lon="-7.6199464797974">
        <ele>486</ele>
        <time>2019-09-11T09:47:29+00:00</time>
      </trkpt>
      <trkpt lat="43.317749023438" lon="-7.6199517250061">
        <ele>486</ele>
        <time>2019-09-11T09:47:30+00:00</time>
      </trkpt>
      <trkpt lat="43.317752838135" lon="-7.619966506958">
        <ele>486</ele>
        <time>2019-09-11T09:47:31+00:00</time>
      </trkpt>
      <trkpt lat="43.317752838135" lon="-7.6199817657471">
        <ele>486</ele>
        <time>2019-09-11T09:47:32+00:00</time>
      </trkpt>
      <trkpt lat="43.317752838135" lon="-7.6199932098389">
        <ele>486</ele>
        <time>2019-09-11T09:47:33+00:00</time>
      </trkpt>
      <trkpt lat="43.317752838135" lon="-7.6200065612793">
        <ele>486</ele>
        <time>2019-09-11T09:47:34+00:00</time>
      </trkpt>
      <trkpt lat="43.317752838135" lon="-7.6200232505798">
        <ele>486</ele>
        <time>2019-09-11T09:47:35+00:00</time>
      </trkpt>
      <trkpt lat="43.317749023438" lon="-7.6200366020203">
        <ele>486</ele>
        <time>2019-09-11T09:47:36+00:00</time>
      </trkpt>
      <trkpt lat="43.317749023438" lon="-7.6200518608093">
        <ele>486</ele>
        <time>2019-09-11T09:47:37+00:00</time>
      </trkpt>
      <trkpt lat="43.317749023438" lon="-7.6200652122498">
        <ele>486</ele>
        <time>2019-09-11T09:47:38+00:00</time>
      </trkpt>
      <trkpt lat="43.317752838135" lon="-7.6200766563416">
        <ele>486</ele>
        <time>2019-09-11T09:47:39+00:00</time>
      </trkpt>
      <trkpt lat="43.317752838135" lon="-7.6200881004333">
        <ele>486</ele>
        <time>2019-09-11T09:47:40+00:00</time>
      </trkpt>
      <trkpt lat="43.317752838135" lon="-7.6201066970825">
        <ele>486</ele>
        <time>2019-09-11T09:47:41+00:00</time>
      </trkpt>
      <trkpt lat="43.317737579346" lon="-7.6201148033142">
        <ele>486</ele>
        <time>2019-09-11T09:47:42+00:00</time>
      </trkpt>
      <trkpt lat="43.317733764648" lon="-7.6201314926147">
        <ele>486</ele>
        <time>2019-09-11T09:47:43+00:00</time>
      </trkpt>
      <trkpt lat="43.317726135254" lon="-7.6201548576355">
        <ele>487</ele>
        <time>2019-09-11T09:47:44+00:00</time>
      </trkpt>
      <trkpt lat="43.317718505859" lon="-7.6201701164246">
        <ele>487</ele>
        <time>2019-09-11T09:47:45+00:00</time>
      </trkpt>
      <trkpt lat="43.317710876465" lon="-7.6201868057251">
        <ele>487</ele>
        <time>2019-09-11T09:47:46+00:00</time>
      </trkpt>
      <trkpt lat="43.317707061768" lon="-7.6202068328857">
        <ele>487</ele>
        <time>2019-09-11T09:47:47+00:00</time>
      </trkpt>
      <trkpt lat="43.31770324707" lon="-7.6202235221863">
        <ele>488</ele>
        <time>2019-09-11T09:47:48+00:00</time>
      </trkpt>
      <trkpt lat="43.31770324707" lon="-7.6202435493469">
        <ele>488</ele>
        <time>2019-09-11T09:47:49+00:00</time>
      </trkpt>
      <trkpt lat="43.317699432373" lon="-7.6202683448792">
        <ele>488</ele>
        <time>2019-09-11T09:47:50+00:00</time>
      </trkpt>
      <trkpt lat="43.317699432373" lon="-7.6202864646912">
        <ele>488</ele>
        <time>2019-09-11T09:47:51+00:00</time>
      </trkpt>
      <trkpt lat="43.317691802979" lon="-7.6203050613403">
        <ele>489</ele>
        <time>2019-09-11T09:47:52+00:00</time>
      </trkpt>
      <trkpt lat="43.317691802979" lon="-7.6203217506409">
        <ele>489</ele>
        <time>2019-09-11T09:47:53+00:00</time>
      </trkpt>
      <trkpt lat="43.317691802979" lon="-7.6203398704529">
        <ele>489</ele>
        <time>2019-09-11T09:47:54+00:00</time>
      </trkpt>
      <trkpt lat="43.317687988281" lon="-7.6203551292419">
        <ele>489</ele>
        <time>2019-09-11T09:47:55+00:00</time>
      </trkpt>
      <trkpt lat="43.317687988281" lon="-7.6203684806824">
        <ele>489</ele>
        <time>2019-09-11T09:47:56+00:00</time>
      </trkpt>
      <trkpt lat="43.317684173584" lon="-7.6203818321228">
        <ele>489</ele>
        <time>2019-09-11T09:47:57+00:00</time>
      </trkpt>
      <trkpt lat="43.317680358887" lon="-7.6203932762146">
        <ele>489</ele>
        <time>2019-09-11T09:47:58+00:00</time>
      </trkpt>
      <trkpt lat="43.317680358887" lon="-7.6204032897949">
        <ele>489</ele>
        <time>2019-09-11T09:47:59+00:00</time>
      </trkpt>
      <trkpt lat="43.317672729492" lon="-7.6204099655151">
        <ele>489</ele>
        <time>2019-09-11T09:48:00+00:00</time>
      </trkpt>
      <trkpt lat="43.317672729492" lon="-7.6204252243042">
        <ele>489</ele>
        <time>2019-09-11T09:48:01+00:00</time>
      </trkpt>
      <trkpt lat="43.317672729492" lon="-7.6204447746277">
        <ele>489</ele>
        <time>2019-09-11T09:48:02+00:00</time>
      </trkpt>
      <trkpt lat="43.317672729492" lon="-7.6204633712769">
        <ele>490</ele>
        <time>2019-09-11T09:48:03+00:00</time>
      </trkpt>
      <trkpt lat="43.317672729492" lon="-7.6204800605774">
        <ele>490</ele>
        <time>2019-09-11T09:48:04+00:00</time>
      </trkpt>
      <trkpt lat="43.317672729492" lon="-7.6204900741577">
        <ele>489</ele>
        <time>2019-09-11T09:48:05+00:00</time>
      </trkpt>
      <trkpt lat="43.317672729492" lon="-7.620500087738">
        <ele>489</ele>
        <time>2019-09-11T09:48:06+00:00</time>
      </trkpt>
      <trkpt lat="43.317668914795" lon="-7.6205134391785">
        <ele>489</ele>
        <time>2019-09-11T09:48:07+00:00</time>
      </trkpt>
      <trkpt lat="43.317668914795" lon="-7.6205248832703">
        <ele>489</ele>
        <time>2019-09-11T09:48:08+00:00</time>
      </trkpt>
      <trkpt lat="43.3176612854" lon="-7.6205368041992">
        <ele>489</ele>
        <time>2019-09-11T09:48:09+00:00</time>
      </trkpt>
      <trkpt lat="43.317649841309" lon="-7.620548248291">
        <ele>489</ele>
        <time>2019-09-11T09:48:10+00:00</time>
      </trkpt>
      <trkpt lat="43.317642211914" lon="-7.6205582618713">
        <ele>489</ele>
        <time>2019-09-11T09:48:11+00:00</time>
      </trkpt>
      <trkpt lat="43.317642211914" lon="-7.6205716133118">
        <ele>489</ele>
        <time>2019-09-11T09:48:12+00:00</time>
      </trkpt>
      <trkpt lat="43.317642211914" lon="-7.6205816268921">
        <ele>489</ele>
        <time>2019-09-11T09:48:13+00:00</time>
      </trkpt>
      <trkpt lat="43.317638397217" lon="-7.620593547821">
        <ele>490</ele>
        <time>2019-09-11T09:48:14+00:00</time>
      </trkpt>
      <trkpt lat="43.317642211914" lon="-7.6206116676331">
        <ele>489</ele>
        <time>2019-09-11T09:48:15+00:00</time>
      </trkpt>
      <trkpt lat="43.317638397217" lon="-7.6206231117249">
        <ele>489</ele>
        <time>2019-09-11T09:48:16+00:00</time>
      </trkpt>
      <trkpt lat="43.317638397217" lon="-7.6206431388855">
        <ele>489</ele>
        <time>2019-09-11T09:48:17+00:00</time>
      </trkpt>
      <trkpt lat="43.317638397217" lon="-7.6206665039062">
        <ele>489</ele>
        <time>2019-09-11T09:48:18+00:00</time>
      </trkpt>
      <trkpt lat="43.31763458252" lon="-7.6206884384155">
        <ele>489</ele>
        <time>2019-09-11T09:48:19+00:00</time>
      </trkpt>
      <trkpt lat="43.31763458252" lon="-7.6207118034363">
        <ele>489</ele>
        <time>2019-09-11T09:48:20+00:00</time>
      </trkpt>
      <trkpt lat="43.31763458252" lon="-7.6207318305969">
        <ele>489</ele>
        <time>2019-09-11T09:48:21+00:00</time>
      </trkpt>
      <trkpt lat="43.317630767822" lon="-7.6207451820374">
        <ele>489</ele>
        <time>2019-09-11T09:48:22+00:00</time>
      </trkpt>
      <trkpt lat="43.317623138428" lon="-7.6207566261292">
        <ele>489</ele>
        <time>2019-09-11T09:48:23+00:00</time>
      </trkpt>
      <trkpt lat="43.31761932373" lon="-7.6207752227783">
        <ele>489</ele>
        <time>2019-09-11T09:48:24+00:00</time>
      </trkpt>
      <trkpt lat="43.317611694336" lon="-7.6207766532898">
        <ele>489</ele>
        <time>2019-09-11T09:48:25+00:00</time>
      </trkpt>
      <trkpt lat="43.317604064941" lon="-7.6207900047302">
        <ele>490</ele>
        <time>2019-09-11T09:48:26+00:00</time>
      </trkpt>
      <trkpt lat="43.317600250244" lon="-7.620801448822">
        <ele>490</ele>
        <time>2019-09-11T09:48:27+00:00</time>
      </trkpt>
      <trkpt lat="43.317596435547" lon="-7.6208114624023">
        <ele>490</ele>
        <time>2019-09-11T09:48:28+00:00</time>
      </trkpt>
      <trkpt lat="43.31759262085" lon="-7.6208281517029">
        <ele>491</ele>
        <time>2019-09-11T09:48:29+00:00</time>
      </trkpt>
      <trkpt lat="43.317584991455" lon="-7.6208481788635">
        <ele>491</ele>
        <time>2019-09-11T09:48:30+00:00</time>
      </trkpt>
      <trkpt lat="43.317581176758" lon="-7.620861530304">
        <ele>491</ele>
        <time>2019-09-11T09:48:31+00:00</time>
      </trkpt>
      <trkpt lat="43.317581176758" lon="-7.6208815574646">
        <ele>492</ele>
        <time>2019-09-11T09:48:32+00:00</time>
      </trkpt>
      <trkpt lat="43.317577362061" lon="-7.6208915710449">
        <ele>492</ele>
        <time>2019-09-11T09:48:33+00:00</time>
      </trkpt>
      <trkpt lat="43.317577362061" lon="-7.6209049224854">
        <ele>493</ele>
        <time>2019-09-11T09:48:34+00:00</time>
      </trkpt>
      <trkpt lat="43.317573547363" lon="-7.6209216117859">
        <ele>493</ele>
        <time>2019-09-11T09:48:35+00:00</time>
      </trkpt>
      <trkpt lat="43.317569732666" lon="-7.6209349632263">
        <ele>494</ele>
        <time>2019-09-11T09:48:36+00:00</time>
      </trkpt>
      <trkpt lat="43.317562103271" lon="-7.6209435462952">
        <ele>494</ele>
        <time>2019-09-11T09:48:37+00:00</time>
      </trkpt>
      <trkpt lat="43.317554473877" lon="-7.620954990387">
        <ele>495</ele>
        <time>2019-09-11T09:48:38+00:00</time>
      </trkpt>
      <trkpt lat="43.31755065918" lon="-7.6209650039673">
        <ele>495</ele>
        <time>2019-09-11T09:48:39+00:00</time>
      </trkpt>
      <trkpt lat="43.31755065918" lon="-7.6209816932678">
        <ele>495</ele>
        <time>2019-09-11T09:48:40+00:00</time>
      </trkpt>
      <trkpt lat="43.317546844482" lon="-7.6210017204285">
        <ele>496</ele>
        <time>2019-09-11T09:48:41+00:00</time>
      </trkpt>
      <trkpt lat="43.317546844482" lon="-7.6210265159607">
        <ele>496</ele>
        <time>2019-09-11T09:48:42+00:00</time>
      </trkpt>
      <trkpt lat="43.317546844482" lon="-7.6210417747498">
        <ele>496</ele>
        <time>2019-09-11T09:48:43+00:00</time>
      </trkpt>
      <trkpt lat="43.317546844482" lon="-7.6210565567017">
        <ele>495</ele>
        <time>2019-09-11T09:48:44+00:00</time>
      </trkpt>
      <trkpt lat="43.317546844482" lon="-7.6210699081421">
        <ele>495</ele>
        <time>2019-09-11T09:48:45+00:00</time>
      </trkpt>
      <trkpt lat="43.317546844482" lon="-7.621081829071">
        <ele>495</ele>
        <time>2019-09-11T09:48:46+00:00</time>
      </trkpt>
      <trkpt lat="43.317535400391" lon="-7.6210966110229">
        <ele>495</ele>
        <time>2019-09-11T09:48:47+00:00</time>
      </trkpt>
      <trkpt lat="43.317527770996" lon="-7.6211085319519">
        <ele>495</ele>
        <time>2019-09-11T09:48:48+00:00</time>
      </trkpt>
      <trkpt lat="43.317520141602" lon="-7.6211233139038">
        <ele>495</ele>
        <time>2019-09-11T09:48:49+00:00</time>
      </trkpt>
      <trkpt lat="43.31750869751" lon="-7.6211366653442">
        <ele>495</ele>
        <time>2019-09-11T09:48:50+00:00</time>
      </trkpt>
      <trkpt lat="43.317497253418" lon="-7.6211514472961">
        <ele>495</ele>
        <time>2019-09-11T09:48:51+00:00</time>
      </trkpt>
      <trkpt lat="43.317485809326" lon="-7.6211647987366">
        <ele>495</ele>
        <time>2019-09-11T09:48:52+00:00</time>
      </trkpt>
      <trkpt lat="43.317478179932" lon="-7.6211733818054">
        <ele>495</ele>
        <time>2019-09-11T09:48:53+00:00</time>
      </trkpt>
      <trkpt lat="43.31746673584" lon="-7.6211733818054">
        <ele>495</ele>
        <time>2019-09-11T09:48:54+00:00</time>
      </trkpt>
      <trkpt lat="43.317455291748" lon="-7.6211848258972">
        <ele>495</ele>
        <time>2019-09-11T09:48:55+00:00</time>
      </trkpt>
      <trkpt lat="43.317447662354" lon="-7.6211981773376">
        <ele>496</ele>
        <time>2019-09-11T09:48:56+00:00</time>
      </trkpt>
      <trkpt lat="43.317440032959" lon="-7.621208190918">
        <ele>496</ele>
        <time>2019-09-11T09:48:57+00:00</time>
      </trkpt>
      <trkpt lat="43.317440032959" lon="-7.6212182044983">
        <ele>496</ele>
        <time>2019-09-11T09:48:58+00:00</time>
      </trkpt>
      <trkpt lat="43.317432403564" lon="-7.6212248802185">
        <ele>496</ele>
        <time>2019-09-11T09:48:59+00:00</time>
      </trkpt>
      <trkpt lat="43.317428588867" lon="-7.6212348937988">
        <ele>496</ele>
        <time>2019-09-11T09:49:00+00:00</time>
      </trkpt>
      <trkpt lat="43.317417144775" lon="-7.621241569519">
        <ele>496</ele>
        <time>2019-09-11T09:49:01+00:00</time>
      </trkpt>
      <trkpt lat="43.317413330078" lon="-7.6212549209595">
        <ele>496</ele>
        <time>2019-09-11T09:49:02+00:00</time>
      </trkpt>
      <trkpt lat="43.317405700684" lon="-7.6212682723999">
        <ele>496</ele>
        <time>2019-09-11T09:49:03+00:00</time>
      </trkpt>
      <trkpt lat="43.317398071289" lon="-7.6212816238403">
        <ele>496</ele>
        <time>2019-09-11T09:49:04+00:00</time>
      </trkpt>
      <trkpt lat="43.317398071289" lon="-7.6212968826294">
        <ele>496</ele>
        <time>2019-09-11T09:49:05+00:00</time>
      </trkpt>
      <trkpt lat="43.3173828125" lon="-7.6213035583496">
        <ele>496</ele>
        <time>2019-09-11T09:49:06+00:00</time>
      </trkpt>
      <trkpt lat="43.317375183105" lon="-7.6213116645813">
        <ele>496</ele>
        <time>2019-09-11T09:49:07+00:00</time>
      </trkpt>
      <trkpt lat="43.317363739014" lon="-7.6213250160217">
        <ele>496</ele>
        <time>2019-09-11T09:49:08+00:00</time>
      </trkpt>
      <trkpt lat="43.317352294922" lon="-7.6213431358337">
        <ele>496</ele>
        <time>2019-09-11T09:49:09+00:00</time>
      </trkpt>
      <trkpt lat="43.31734085083" lon="-7.6213698387146">
        <ele>496</ele>
        <time>2019-09-11T09:49:10+00:00</time>
      </trkpt>
      <trkpt lat="43.317333221436" lon="-7.6213884353638">
        <ele>496</ele>
        <time>2019-09-11T09:49:11+00:00</time>
      </trkpt>
      <trkpt lat="43.317321777344" lon="-7.6214032173157">
        <ele>496</ele>
        <time>2019-09-11T09:49:12+00:00</time>
      </trkpt>
      <trkpt lat="43.317310333252" lon="-7.6214184761047">
        <ele>496</ele>
        <time>2019-09-11T09:49:13+00:00</time>
      </trkpt>
      <trkpt lat="43.31729888916" lon="-7.6214351654053">
        <ele>496</ele>
        <time>2019-09-11T09:49:14+00:00</time>
      </trkpt>
      <trkpt lat="43.317291259766" lon="-7.6214499473572">
        <ele>496</ele>
        <time>2019-09-11T09:49:15+00:00</time>
      </trkpt>
      <trkpt lat="43.317279815674" lon="-7.6214618682861">
        <ele>496</ele>
        <time>2019-09-11T09:49:16+00:00</time>
      </trkpt>
      <trkpt lat="43.317272186279" lon="-7.6214733123779">
        <ele>496</ele>
        <time>2019-09-11T09:49:17+00:00</time>
      </trkpt>
      <trkpt lat="43.317268371582" lon="-7.6215033531189">
        <ele>495</ele>
        <time>2019-09-11T09:49:18+00:00</time>
      </trkpt>
      <trkpt lat="43.317253112793" lon="-7.6215314865112">
        <ele>495</ele>
        <time>2019-09-11T09:49:19+00:00</time>
      </trkpt>
      <trkpt lat="43.317253112793" lon="-7.6215534210205">
        <ele>495</ele>
        <time>2019-09-11T09:49:20+00:00</time>
      </trkpt>
      <trkpt lat="43.317249298096" lon="-7.621570110321">
        <ele>494</ele>
        <time>2019-09-11T09:49:21+00:00</time>
      </trkpt>
      <trkpt lat="43.317253112793" lon="-7.6215901374817">
        <ele>493</ele>
        <time>2019-09-11T09:49:22+00:00</time>
      </trkpt>
      <trkpt lat="43.317245483398" lon="-7.6216015815735">
        <ele>493</ele>
        <time>2019-09-11T09:49:23+00:00</time>
      </trkpt>
      <trkpt lat="43.317249298096" lon="-7.621618270874">
        <ele>492</ele>
        <time>2019-09-11T09:49:24+00:00</time>
      </trkpt>
      <trkpt lat="43.317253112793" lon="-7.621630191803">
        <ele>491</ele>
        <time>2019-09-11T09:49:25+00:00</time>
      </trkpt>
      <trkpt lat="43.317253112793" lon="-7.6216449737549">
        <ele>491</ele>
        <time>2019-09-11T09:49:26+00:00</time>
      </trkpt>
      <trkpt lat="43.317249298096" lon="-7.6216516494751">
        <ele>491</ele>
        <time>2019-09-11T09:49:27+00:00</time>
      </trkpt>
      <trkpt lat="43.317241668701" lon="-7.6216635704041">
        <ele>491</ele>
        <time>2019-09-11T09:49:28+00:00</time>
      </trkpt>
      <trkpt lat="43.317241668701" lon="-7.6216731071472">
        <ele>490</ele>
        <time>2019-09-11T09:49:29+00:00</time>
      </trkpt>
      <trkpt lat="43.317241668701" lon="-7.6216864585876">
        <ele>490</ele>
        <time>2019-09-11T09:49:30+00:00</time>
      </trkpt>
      <trkpt lat="43.317245483398" lon="-7.6217017173767">
        <ele>489</ele>
        <time>2019-09-11T09:49:31+00:00</time>
      </trkpt>
      <trkpt lat="43.317249298096" lon="-7.6217131614685">
        <ele>488</ele>
        <time>2019-09-11T09:49:32+00:00</time>
      </trkpt>
      <trkpt lat="43.317245483398" lon="-7.621729850769">
        <ele>488</ele>
        <time>2019-09-11T09:49:33+00:00</time>
      </trkpt>
      <trkpt lat="43.317245483398" lon="-7.6217451095581">
        <ele>487</ele>
        <time>2019-09-11T09:49:34+00:00</time>
      </trkpt>
      <trkpt lat="43.317241668701" lon="-7.6217617988586">
        <ele>487</ele>
        <time>2019-09-11T09:49:35+00:00</time>
      </trkpt>
      <trkpt lat="43.317237854004" lon="-7.6217751502991">
        <ele>486</ele>
        <time>2019-09-11T09:49:36+00:00</time>
      </trkpt>
      <trkpt lat="43.317234039307" lon="-7.6217885017395">
        <ele>486</ele>
        <time>2019-09-11T09:49:37+00:00</time>
      </trkpt>
      <trkpt lat="43.317234039307" lon="-7.62180519104">
        <ele>486</ele>
        <time>2019-09-11T09:49:38+00:00</time>
      </trkpt>
      <trkpt lat="43.317234039307" lon="-7.6218218803406">
        <ele>486</ele>
        <time>2019-09-11T09:49:39+00:00</time>
      </trkpt>
      <trkpt lat="43.317230224609" lon="-7.621835231781">
        <ele>486</ele>
        <time>2019-09-11T09:49:40+00:00</time>
      </trkpt>
      <trkpt lat="43.317230224609" lon="-7.6218514442444">
        <ele>486</ele>
        <time>2019-09-11T09:49:41+00:00</time>
      </trkpt>
      <trkpt lat="43.317226409912" lon="-7.6218667030334">
        <ele>486</ele>
        <time>2019-09-11T09:49:42+00:00</time>
      </trkpt>
      <trkpt lat="43.317226409912" lon="-7.6218867301941">
        <ele>486</ele>
        <time>2019-09-11T09:49:43+00:00</time>
      </trkpt>
      <trkpt lat="43.317226409912" lon="-7.6219067573547">
        <ele>485</ele>
        <time>2019-09-11T09:49:44+00:00</time>
      </trkpt>
      <trkpt lat="43.317226409912" lon="-7.6219248771667">
        <ele>485</ele>
        <time>2019-09-11T09:49:45+00:00</time>
      </trkpt>
      <trkpt lat="43.317222595215" lon="-7.6219401359558">
        <ele>485</ele>
        <time>2019-09-11T09:49:46+00:00</time>
      </trkpt>
      <trkpt lat="43.317222595215" lon="-7.6219568252563">
        <ele>485</ele>
        <time>2019-09-11T09:49:47+00:00</time>
      </trkpt>
      <trkpt lat="43.317222595215" lon="-7.6219735145569">
        <ele>485</ele>
        <time>2019-09-11T09:49:48+00:00</time>
      </trkpt>
      <trkpt lat="43.317218780518" lon="-7.6219835281372">
        <ele>485</ele>
        <time>2019-09-11T09:49:49+00:00</time>
      </trkpt>
      <trkpt lat="43.317218780518" lon="-7.6219968795776">
        <ele>485</ele>
        <time>2019-09-11T09:49:50+00:00</time>
      </trkpt>
      <trkpt lat="43.317218780518" lon="-7.6220135688782">
        <ele>485</ele>
        <time>2019-09-11T09:49:51+00:00</time>
      </trkpt>
      <trkpt lat="43.31721496582" lon="-7.6220283508301">
        <ele>485</ele>
        <time>2019-09-11T09:49:52+00:00</time>
      </trkpt>
      <trkpt lat="43.31721496582" lon="-7.622043132782">
        <ele>485</ele>
        <time>2019-09-11T09:49:53+00:00</time>
      </trkpt>
      <trkpt lat="43.317211151123" lon="-7.622058391571">
        <ele>485</ele>
        <time>2019-09-11T09:49:54+00:00</time>
      </trkpt>
      <trkpt lat="43.317211151123" lon="-7.6220731735229">
        <ele>485</ele>
        <time>2019-09-11T09:49:55+00:00</time>
      </trkpt>
      <trkpt lat="43.317211151123" lon="-7.6220831871033">
        <ele>485</ele>
        <time>2019-09-11T09:49:56+00:00</time>
      </trkpt>
      <trkpt lat="43.317203521729" lon="-7.6220984458923">
        <ele>485</ele>
        <time>2019-09-11T09:49:57+00:00</time>
      </trkpt>
      <trkpt lat="43.317203521729" lon="-7.6221117973328">
        <ele>485</ele>
        <time>2019-09-11T09:49:58+00:00</time>
      </trkpt>
      <trkpt lat="43.317195892334" lon="-7.6221265792847">
        <ele>485</ele>
        <time>2019-09-11T09:49:59+00:00</time>
      </trkpt>
      <trkpt lat="43.317188262939" lon="-7.6221418380737">
        <ele>486</ele>
        <time>2019-09-11T09:50:00+00:00</time>
      </trkpt>
      <trkpt lat="43.317180633545" lon="-7.6221566200256">
        <ele>486</ele>
        <time>2019-09-11T09:50:01+00:00</time>
      </trkpt>
      <trkpt lat="43.317176818848" lon="-7.6221733093262">
        <ele>486</ele>
        <time>2019-09-11T09:50:02+00:00</time>
      </trkpt>
      <trkpt lat="43.317176818848" lon="-7.6221885681152">
        <ele>486</ele>
        <time>2019-09-11T09:50:03+00:00</time>
      </trkpt>
      <trkpt lat="43.317176818848" lon="-7.6222033500671">
        <ele>486</ele>
        <time>2019-09-11T09:50:04+00:00</time>
      </trkpt>
      <trkpt lat="43.317169189453" lon="-7.6222133636475">
        <ele>486</ele>
        <time>2019-09-11T09:50:05+00:00</time>
      </trkpt>
      <trkpt lat="43.317165374756" lon="-7.6222281455994">
        <ele>486</ele>
        <time>2019-09-11T09:50:06+00:00</time>
      </trkpt>
      <trkpt lat="43.317161560059" lon="-7.6222448348999">
        <ele>486</ele>
        <time>2019-09-11T09:50:07+00:00</time>
      </trkpt>
      <trkpt lat="43.317157745361" lon="-7.6222615242004">
        <ele>486</ele>
        <time>2019-09-11T09:50:08+00:00</time>
      </trkpt>
      <trkpt lat="43.317157745361" lon="-7.6222767829895">
        <ele>486</ele>
        <time>2019-09-11T09:50:09+00:00</time>
      </trkpt>
      <trkpt lat="43.317153930664" lon="-7.6222901344299">
        <ele>486</ele>
        <time>2019-09-11T09:50:10+00:00</time>
      </trkpt>
      <trkpt lat="43.317150115967" lon="-7.6222968101501">
        <ele>487</ele>
        <time>2019-09-11T09:50:11+00:00</time>
      </trkpt>
      <trkpt lat="43.31714630127" lon="-7.6223034858704">
        <ele>487</ele>
        <time>2019-09-11T09:50:12+00:00</time>
      </trkpt>
      <trkpt lat="43.317142486572" lon="-7.6223134994507">
        <ele>487</ele>
        <time>2019-09-11T09:50:13+00:00</time>
      </trkpt>
      <trkpt lat="43.317138671875" lon="-7.6223268508911">
        <ele>487</ele>
        <time>2019-09-11T09:50:14+00:00</time>
      </trkpt>
      <trkpt lat="43.31713104248" lon="-7.6223435401917">
        <ele>488</ele>
        <time>2019-09-11T09:50:15+00:00</time>
      </trkpt>
      <trkpt lat="43.317127227783" lon="-7.6223516464233">
        <ele>488</ele>
        <time>2019-09-11T09:50:16+00:00</time>
      </trkpt>
      <trkpt lat="43.31713104248" lon="-7.6223683357239">
        <ele>488</ele>
        <time>2019-09-11T09:50:17+00:00</time>
      </trkpt>
      <trkpt lat="43.317134857178" lon="-7.6223864555359">
        <ele>488</ele>
        <time>2019-09-11T09:50:18+00:00</time>
      </trkpt>
      <trkpt lat="43.317134857178" lon="-7.6224064826965">
        <ele>488</ele>
        <time>2019-09-11T09:50:19+00:00</time>
      </trkpt>
      <trkpt lat="43.317127227783" lon="-7.6224217414856">
        <ele>488</ele>
        <time>2019-09-11T09:50:20+00:00</time>
      </trkpt>
      <trkpt lat="43.317123413086" lon="-7.622435092926">
        <ele>488</ele>
        <time>2019-09-11T09:50:21+00:00</time>
      </trkpt>
      <trkpt lat="43.317119598389" lon="-7.6224517822266">
        <ele>488</ele>
        <time>2019-09-11T09:50:22+00:00</time>
      </trkpt>
      <trkpt lat="43.317115783691" lon="-7.6224684715271">
        <ele>488</ele>
        <time>2019-09-11T09:50:23+00:00</time>
      </trkpt>
      <trkpt lat="43.317108154297" lon="-7.622483253479">
        <ele>488</ele>
        <time>2019-09-11T09:50:24+00:00</time>
      </trkpt>
      <trkpt lat="43.317108154297" lon="-7.6224966049194">
        <ele>488</ele>
        <time>2019-09-11T09:50:25+00:00</time>
      </trkpt>
      <trkpt lat="43.3171043396" lon="-7.6225085258484">
        <ele>488</ele>
        <time>2019-09-11T09:50:26+00:00</time>
      </trkpt>
      <trkpt lat="43.317100524902" lon="-7.6225218772888">
        <ele>488</ele>
        <time>2019-09-11T09:50:27+00:00</time>
      </trkpt>
      <trkpt lat="43.3171043396" lon="-7.6225433349609">
        <ele>488</ele>
        <time>2019-09-11T09:50:28+00:00</time>
      </trkpt>
      <trkpt lat="43.317100524902" lon="-7.6225647926331">
        <ele>488</ele>
        <time>2019-09-11T09:50:29+00:00</time>
      </trkpt>
      <trkpt lat="43.317096710205" lon="-7.6225800514221">
        <ele>488</ele>
        <time>2019-09-11T09:50:30+00:00</time>
      </trkpt>
      <trkpt lat="43.317100524902" lon="-7.622594833374">
        <ele>488</ele>
        <time>2019-09-11T09:50:31+00:00</time>
      </trkpt>
      <trkpt lat="43.317108154297" lon="-7.6226201057434">
        <ele>488</ele>
        <time>2019-09-11T09:50:32+00:00</time>
      </trkpt>
      <trkpt lat="43.317096710205" lon="-7.6226501464844">
        <ele>488</ele>
        <time>2019-09-11T09:50:33+00:00</time>
      </trkpt>
      <trkpt lat="43.317092895508" lon="-7.6226716041565">
        <ele>488</ele>
        <time>2019-09-11T09:50:34+00:00</time>
      </trkpt>
      <trkpt lat="43.317085266113" lon="-7.6226668357849">
        <ele>488</ele>
        <time>2019-09-11T09:50:35+00:00</time>
      </trkpt>
      <trkpt lat="43.317081451416" lon="-7.622670173645">
        <ele>488</ele>
        <time>2019-09-11T09:50:36+00:00</time>
      </trkpt>
      <trkpt lat="43.317081451416" lon="-7.6226835250854">
        <ele>488</ele>
        <time>2019-09-11T09:50:37+00:00</time>
      </trkpt>
      <trkpt lat="43.317085266113" lon="-7.6226949691772">
        <ele>488</ele>
        <time>2019-09-11T09:50:38+00:00</time>
      </trkpt>
      <trkpt lat="43.317089080811" lon="-7.6227116584778">
        <ele>488</ele>
        <time>2019-09-11T09:50:39+00:00</time>
      </trkpt>
      <trkpt lat="43.317085266113" lon="-7.6227264404297">
        <ele>488</ele>
        <time>2019-09-11T09:50:40+00:00</time>
      </trkpt>
      <trkpt lat="43.317081451416" lon="-7.6227450370789">
        <ele>489</ele>
        <time>2019-09-11T09:50:41+00:00</time>
      </trkpt>
      <trkpt lat="43.317081451416" lon="-7.6227617263794">
        <ele>489</ele>
        <time>2019-09-11T09:50:42+00:00</time>
      </trkpt>
      <trkpt lat="43.317081451416" lon="-7.6227784156799">
        <ele>489</ele>
        <time>2019-09-11T09:50:43+00:00</time>
      </trkpt>
      <trkpt lat="43.317081451416" lon="-7.6227984428406">
        <ele>489</ele>
        <time>2019-09-11T09:50:44+00:00</time>
      </trkpt>
      <trkpt lat="43.317077636719" lon="-7.6228165626526">
        <ele>489</ele>
        <time>2019-09-11T09:50:45+00:00</time>
      </trkpt>
      <trkpt lat="43.317073822021" lon="-7.6228351593018">
        <ele>489</ele>
        <time>2019-09-11T09:50:46+00:00</time>
      </trkpt>
      <trkpt lat="43.317070007324" lon="-7.6228518486023">
        <ele>490</ele>
        <time>2019-09-11T09:50:47+00:00</time>
      </trkpt>
      <trkpt lat="43.317073822021" lon="-7.6228685379028">
        <ele>490</ele>
        <time>2019-09-11T09:50:48+00:00</time>
      </trkpt>
      <trkpt lat="43.317077636719" lon="-7.6228833198547">
        <ele>490</ele>
        <time>2019-09-11T09:50:49+00:00</time>
      </trkpt>
      <trkpt lat="43.317081451416" lon="-7.6228981018066">
        <ele>490</ele>
        <time>2019-09-11T09:50:50+00:00</time>
      </trkpt>
      <trkpt lat="43.317070007324" lon="-7.622908115387">
        <ele>490</ele>
        <time>2019-09-11T09:50:51+00:00</time>
      </trkpt>
      <trkpt lat="43.317066192627" lon="-7.622923374176">
        <ele>491</ele>
        <time>2019-09-11T09:50:52+00:00</time>
      </trkpt>
      <trkpt lat="43.31706237793" lon="-7.6229381561279">
        <ele>491</ele>
        <time>2019-09-11T09:50:53+00:00</time>
      </trkpt>
      <trkpt lat="43.317058563232" lon="-7.6229567527771">
        <ele>491</ele>
        <time>2019-09-11T09:50:54+00:00</time>
      </trkpt>
      <trkpt lat="43.317054748535" lon="-7.622971534729">
        <ele>491</ele>
        <time>2019-09-11T09:50:55+00:00</time>
      </trkpt>
      <trkpt lat="43.317050933838" lon="-7.6229848861694">
        <ele>491</ele>
        <time>2019-09-11T09:50:56+00:00</time>
      </trkpt>
      <trkpt lat="43.317054748535" lon="-7.6229982376099">
        <ele>491</ele>
        <time>2019-09-11T09:50:57+00:00</time>
      </trkpt>
      <trkpt lat="43.317058563232" lon="-7.6230134963989">
        <ele>490</ele>
        <time>2019-09-11T09:50:58+00:00</time>
      </trkpt>
      <trkpt lat="43.317054748535" lon="-7.6230249404907">
        <ele>490</ele>
        <time>2019-09-11T09:50:59+00:00</time>
      </trkpt>
      <trkpt lat="43.317054748535" lon="-7.6230382919312">
        <ele>490</ele>
        <time>2019-09-11T09:51:00+00:00</time>
      </trkpt>
      <trkpt lat="43.317054748535" lon="-7.6230568885803">
        <ele>490</ele>
        <time>2019-09-11T09:51:01+00:00</time>
      </trkpt>
      <trkpt lat="43.317058563232" lon="-7.6230697631836">
        <ele>490</ele>
        <time>2019-09-11T09:51:02+00:00</time>
      </trkpt>
      <trkpt lat="43.317054748535" lon="-7.6230816841125">
        <ele>490</ele>
        <time>2019-09-11T09:51:03+00:00</time>
      </trkpt>
      <trkpt lat="43.317054748535" lon="-7.623095035553">
        <ele>490</ele>
        <time>2019-09-11T09:51:04+00:00</time>
      </trkpt>
      <trkpt lat="43.317050933838" lon="-7.6231098175049">
        <ele>490</ele>
        <time>2019-09-11T09:51:05+00:00</time>
      </trkpt>
      <trkpt lat="43.317043304443" lon="-7.6231198310852">
        <ele>490</ele>
        <time>2019-09-11T09:51:06+00:00</time>
      </trkpt>
      <trkpt lat="43.317043304443" lon="-7.6231398582458">
        <ele>490</ele>
        <time>2019-09-11T09:51:07+00:00</time>
      </trkpt>
      <trkpt lat="43.317047119141" lon="-7.6231598854065">
        <ele>490</ele>
        <time>2019-09-11T09:51:08+00:00</time>
      </trkpt>
      <trkpt lat="43.317043304443" lon="-7.6231784820557">
        <ele>490</ele>
        <time>2019-09-11T09:51:09+00:00</time>
      </trkpt>
      <trkpt lat="43.317031860352" lon="-7.6231899261475">
        <ele>490</ele>
        <time>2019-09-11T09:51:10+00:00</time>
      </trkpt>
      <trkpt lat="43.31702041626" lon="-7.6232018470764">
        <ele>490</ele>
        <time>2019-09-11T09:51:11+00:00</time>
      </trkpt>
      <trkpt lat="43.317016601562" lon="-7.623218536377">
        <ele>490</ele>
        <time>2019-09-11T09:51:12+00:00</time>
      </trkpt>
      <trkpt lat="43.317008972168" lon="-7.6232299804688">
        <ele>490</ele>
        <time>2019-09-11T09:51:13+00:00</time>
      </trkpt>
      <trkpt lat="43.316993713379" lon="-7.6232466697693">
        <ele>490</ele>
        <time>2019-09-11T09:51:14+00:00</time>
      </trkpt>
      <trkpt lat="43.316982269287" lon="-7.6232614517212">
        <ele>490</ele>
        <time>2019-09-11T09:51:15+00:00</time>
      </trkpt>
      <trkpt lat="43.31697845459" lon="-7.6232748031616">
        <ele>490</ele>
        <time>2019-09-11T09:51:16+00:00</time>
      </trkpt>
      <trkpt lat="43.316967010498" lon="-7.6232848167419">
        <ele>489</ele>
        <time>2019-09-11T09:51:17+00:00</time>
      </trkpt>
      <trkpt lat="43.316963195801" lon="-7.6232981681824">
        <ele>489</ele>
        <time>2019-09-11T09:51:18+00:00</time>
      </trkpt>
      <trkpt lat="43.316959381104" lon="-7.6233134269714">
        <ele>489</ele>
        <time>2019-09-11T09:51:19+00:00</time>
      </trkpt>
      <trkpt lat="43.316951751709" lon="-7.6233282089233">
        <ele>489</ele>
        <time>2019-09-11T09:51:20+00:00</time>
      </trkpt>
      <trkpt lat="43.316951751709" lon="-7.6233434677124">
        <ele>489</ele>
        <time>2019-09-11T09:51:21+00:00</time>
      </trkpt>
      <trkpt lat="43.316947937012" lon="-7.6233601570129">
        <ele>489</ele>
        <time>2019-09-11T09:51:22+00:00</time>
      </trkpt>
      <trkpt lat="43.316947937012" lon="-7.6233735084534">
        <ele>489</ele>
        <time>2019-09-11T09:51:23+00:00</time>
      </trkpt>
      <trkpt lat="43.316947937012" lon="-7.6233849525452">
        <ele>489</ele>
        <time>2019-09-11T09:51:24+00:00</time>
      </trkpt>
      <trkpt lat="43.316944122314" lon="-7.6233949661255">
        <ele>489</ele>
        <time>2019-09-11T09:51:25+00:00</time>
      </trkpt>
      <trkpt lat="43.316940307617" lon="-7.6234049797058">
        <ele>489</ele>
        <time>2019-09-11T09:51:26+00:00</time>
      </trkpt>
      <trkpt lat="43.31693649292" lon="-7.6234149932861">
        <ele>489</ele>
        <time>2019-09-11T09:51:27+00:00</time>
      </trkpt>
      <trkpt lat="43.316925048828" lon="-7.6234250068665">
        <ele>489</ele>
        <time>2019-09-11T09:51:28+00:00</time>
      </trkpt>
      <trkpt lat="43.316913604736" lon="-7.6234331130981">
        <ele>489</ele>
        <time>2019-09-11T09:51:29+00:00</time>
      </trkpt>
      <trkpt lat="43.316909790039" lon="-7.623441696167">
        <ele>489</ele>
        <time>2019-09-11T09:51:30+00:00</time>
      </trkpt>
      <trkpt lat="43.316905975342" lon="-7.6234498023987">
        <ele>489</ele>
        <time>2019-09-11T09:51:31+00:00</time>
      </trkpt>
      <trkpt lat="43.316898345947" lon="-7.6234631538391">
        <ele>489</ele>
        <time>2019-09-11T09:51:32+00:00</time>
      </trkpt>
      <trkpt lat="43.31689453125" lon="-7.6234798431396">
        <ele>489</ele>
        <time>2019-09-11T09:51:33+00:00</time>
      </trkpt>
      <trkpt lat="43.316886901855" lon="-7.62348985672">
        <ele>489</ele>
        <time>2019-09-11T09:51:34+00:00</time>
      </trkpt>
      <trkpt lat="43.316879272461" lon="-7.6235017776489">
        <ele>489</ele>
        <time>2019-09-11T09:51:35+00:00</time>
      </trkpt>
      <trkpt lat="43.316871643066" lon="-7.6235165596008">
        <ele>489</ele>
        <time>2019-09-11T09:51:36+00:00</time>
      </trkpt>
      <trkpt lat="43.316867828369" lon="-7.6235299110413">
        <ele>489</ele>
        <time>2019-09-11T09:51:37+00:00</time>
      </trkpt>
      <trkpt lat="43.316860198975" lon="-7.6235451698303">
        <ele>489</ele>
        <time>2019-09-11T09:51:38+00:00</time>
      </trkpt>
      <trkpt lat="43.316856384277" lon="-7.6235566139221">
        <ele>489</ele>
        <time>2019-09-11T09:51:39+00:00</time>
      </trkpt>
      <trkpt lat="43.316848754883" lon="-7.6235752105713">
        <ele>489</ele>
        <time>2019-09-11T09:51:40+00:00</time>
      </trkpt>
      <trkpt lat="43.316841125488" lon="-7.6235852241516">
        <ele>489</ele>
        <time>2019-09-11T09:51:41+00:00</time>
      </trkpt>
      <trkpt lat="43.316833496094" lon="-7.6235966682434">
        <ele>488</ele>
        <time>2019-09-11T09:51:42+00:00</time>
      </trkpt>
      <trkpt lat="43.316825866699" lon="-7.6236047744751">
        <ele>488</ele>
        <time>2019-09-11T09:51:43+00:00</time>
      </trkpt>
      <trkpt lat="43.316818237305" lon="-7.6236133575439">
        <ele>488</ele>
        <time>2019-09-11T09:51:44+00:00</time>
      </trkpt>
      <trkpt lat="43.316814422607" lon="-7.6236214637756">
        <ele>488</ele>
        <time>2019-09-11T09:51:45+00:00</time>
      </trkpt>
      <trkpt lat="43.316806793213" lon="-7.623631477356">
        <ele>488</ele>
        <time>2019-09-11T09:51:46+00:00</time>
      </trkpt>
      <trkpt lat="43.316795349121" lon="-7.6236400604248">
        <ele>488</ele>
        <time>2019-09-11T09:51:47+00:00</time>
      </trkpt>
      <trkpt lat="43.316791534424" lon="-7.6236500740051">
        <ele>488</ele>
        <time>2019-09-11T09:51:48+00:00</time>
      </trkpt>
      <trkpt lat="43.316787719727" lon="-7.6236615180969">
        <ele>488</ele>
        <time>2019-09-11T09:51:49+00:00</time>
      </trkpt>
      <trkpt lat="43.316783905029" lon="-7.6236782073975">
        <ele>488</ele>
        <time>2019-09-11T09:51:50+00:00</time>
      </trkpt>
      <trkpt lat="43.316780090332" lon="-7.6236915588379">
        <ele>488</ele>
        <time>2019-09-11T09:51:51+00:00</time>
      </trkpt>
      <trkpt lat="43.316780090332" lon="-7.6237168312073">
        <ele>488</ele>
        <time>2019-09-11T09:51:52+00:00</time>
      </trkpt>
      <trkpt lat="43.316772460938" lon="-7.6237335205078">
        <ele>488</ele>
        <time>2019-09-11T09:51:53+00:00</time>
      </trkpt>
      <trkpt lat="43.316761016846" lon="-7.6237483024597">
        <ele>488</ele>
        <time>2019-09-11T09:51:54+00:00</time>
      </trkpt>
      <trkpt lat="43.316753387451" lon="-7.6237616539001">
        <ele>488</ele>
        <time>2019-09-11T09:51:55+00:00</time>
      </trkpt>
      <trkpt lat="43.316749572754" lon="-7.6237764358521">
        <ele>488</ele>
        <time>2019-09-11T09:51:56+00:00</time>
      </trkpt>
      <trkpt lat="43.316738128662" lon="-7.623788356781">
        <ele>488</ele>
        <time>2019-09-11T09:51:57+00:00</time>
      </trkpt>
      <trkpt lat="43.316734313965" lon="-7.6237998008728">
        <ele>488</ele>
        <time>2019-09-11T09:51:58+00:00</time>
      </trkpt>
      <trkpt lat="43.316730499268" lon="-7.6238098144531">
        <ele>488</ele>
        <time>2019-09-11T09:51:59+00:00</time>
      </trkpt>
      <trkpt lat="43.316722869873" lon="-7.6238217353821">
        <ele>488</ele>
        <time>2019-09-11T09:52:00+00:00</time>
      </trkpt>
      <trkpt lat="43.316715240479" lon="-7.6238350868225">
        <ele>488</ele>
        <time>2019-09-11T09:52:01+00:00</time>
      </trkpt>
      <trkpt lat="43.316711425781" lon="-7.6238451004028">
        <ele>488</ele>
        <time>2019-09-11T09:52:02+00:00</time>
      </trkpt>
      <trkpt lat="43.316703796387" lon="-7.6238584518433">
        <ele>488</ele>
        <time>2019-09-11T09:52:03+00:00</time>
      </trkpt>
      <trkpt lat="43.316703796387" lon="-7.6238684654236">
        <ele>488</ele>
        <time>2019-09-11T09:52:04+00:00</time>
      </trkpt>
      <trkpt lat="43.316699981689" lon="-7.6238751411438">
        <ele>488</ele>
        <time>2019-09-11T09:52:05+00:00</time>
      </trkpt>
      <trkpt lat="43.316699981689" lon="-7.6238832473755">
        <ele>488</ele>
        <time>2019-09-11T09:52:06+00:00</time>
      </trkpt>
      <trkpt lat="43.316696166992" lon="-7.6238899230957">
        <ele>488</ele>
        <time>2019-09-11T09:52:07+00:00</time>
      </trkpt>
      <trkpt lat="43.316692352295" lon="-7.623899936676">
        <ele>488</ele>
        <time>2019-09-11T09:52:08+00:00</time>
      </trkpt>
      <trkpt lat="43.316688537598" lon="-7.6239099502563">
        <ele>488</ele>
        <time>2019-09-11T09:52:09+00:00</time>
      </trkpt>
      <trkpt lat="43.3166847229" lon="-7.6239218711853">
        <ele>488</ele>
        <time>2019-09-11T09:52:10+00:00</time>
      </trkpt>
      <trkpt lat="43.316677093506" lon="-7.6239333152771">
        <ele>488</ele>
        <time>2019-09-11T09:52:11+00:00</time>
      </trkpt>
      <trkpt lat="43.316673278809" lon="-7.623948097229">
        <ele>488</ele>
        <time>2019-09-11T09:52:12+00:00</time>
      </trkpt>
      <trkpt lat="43.316669464111" lon="-7.623960018158">
        <ele>488</ele>
        <time>2019-09-11T09:52:13+00:00</time>
      </trkpt>
      <trkpt lat="43.316665649414" lon="-7.6239714622498">
        <ele>488</ele>
        <time>2019-09-11T09:52:14+00:00</time>
      </trkpt>
      <trkpt lat="43.31665802002" lon="-7.6239833831787">
        <ele>488</ele>
        <time>2019-09-11T09:52:15+00:00</time>
      </trkpt>
      <trkpt lat="43.316650390625" lon="-7.6239967346191">
        <ele>488</ele>
        <time>2019-09-11T09:52:16+00:00</time>
      </trkpt>
      <trkpt lat="43.31664276123" lon="-7.6240100860596">
        <ele>488</ele>
        <time>2019-09-11T09:52:17+00:00</time>
      </trkpt>
      <trkpt lat="43.316635131836" lon="-7.6240181922913">
        <ele>488</ele>
        <time>2019-09-11T09:52:18+00:00</time>
      </trkpt>
      <trkpt lat="43.316635131836" lon="-7.6240282058716">
        <ele>488</ele>
        <time>2019-09-11T09:52:19+00:00</time>
      </trkpt>
      <trkpt lat="43.316627502441" lon="-7.6240434646606">
        <ele>488</ele>
        <time>2019-09-11T09:52:20+00:00</time>
      </trkpt>
      <trkpt lat="43.316619873047" lon="-7.6240515708923">
        <ele>488</ele>
        <time>2019-09-11T09:52:21+00:00</time>
      </trkpt>
      <trkpt lat="43.316608428955" lon="-7.6240649223328">
        <ele>488</ele>
        <time>2019-09-11T09:52:22+00:00</time>
      </trkpt>
      <trkpt lat="43.316600799561" lon="-7.6240801811218">
        <ele>488</ele>
        <time>2019-09-11T09:52:23+00:00</time>
      </trkpt>
      <trkpt lat="43.316593170166" lon="-7.6240968704224">
        <ele>488</ele>
        <time>2019-09-11T09:52:24+00:00</time>
      </trkpt>
      <trkpt lat="43.316585540771" lon="-7.6241135597229">
        <ele>488</ele>
        <time>2019-09-11T09:52:25+00:00</time>
      </trkpt>
      <trkpt lat="43.316570281982" lon="-7.6241331100464">
        <ele>488</ele>
        <time>2019-09-11T09:52:26+00:00</time>
      </trkpt>
      <trkpt lat="43.316566467285" lon="-7.624153137207">
        <ele>488</ele>
        <time>2019-09-11T09:52:27+00:00</time>
      </trkpt>
      <trkpt lat="43.316551208496" lon="-7.6241731643677">
        <ele>487</ele>
        <time>2019-09-11T09:52:28+00:00</time>
      </trkpt>
      <trkpt lat="43.316535949707" lon="-7.6241898536682">
        <ele>488</ele>
        <time>2019-09-11T09:52:29+00:00</time>
      </trkpt>
      <trkpt lat="43.316528320312" lon="-7.6242051124573">
        <ele>488</ele>
        <time>2019-09-11T09:52:30+00:00</time>
      </trkpt>
      <trkpt lat="43.316524505615" lon="-7.6242198944092">
        <ele>487</ele>
        <time>2019-09-11T09:52:31+00:00</time>
      </trkpt>
      <trkpt lat="43.316520690918" lon="-7.6242318153381">
        <ele>487</ele>
        <time>2019-09-11T09:52:32+00:00</time>
      </trkpt>
      <trkpt lat="43.316516876221" lon="-7.6242432594299">
        <ele>487</ele>
        <time>2019-09-11T09:52:33+00:00</time>
      </trkpt>
      <trkpt lat="43.316520690918" lon="-7.6242551803589">
        <ele>487</ele>
        <time>2019-09-11T09:52:34+00:00</time>
      </trkpt>
      <trkpt lat="43.316520690918" lon="-7.6242718696594">
        <ele>487</ele>
        <time>2019-09-11T09:52:35+00:00</time>
      </trkpt>
      <trkpt lat="43.316516876221" lon="-7.6242866516113">
        <ele>487</ele>
        <time>2019-09-11T09:52:36+00:00</time>
      </trkpt>
      <trkpt lat="43.316505432129" lon="-7.6243014335632">
        <ele>487</ele>
        <time>2019-09-11T09:52:37+00:00</time>
      </trkpt>
      <trkpt lat="43.316497802734" lon="-7.6243166923523">
        <ele>487</ele>
        <time>2019-09-11T09:52:38+00:00</time>
      </trkpt>
      <trkpt lat="43.316493988037" lon="-7.6243333816528">
        <ele>487</ele>
        <time>2019-09-11T09:52:39+00:00</time>
      </trkpt>
      <trkpt lat="43.316486358643" lon="-7.6243467330933">
        <ele>487</ele>
        <time>2019-09-11T09:52:40+00:00</time>
      </trkpt>
      <trkpt lat="43.316478729248" lon="-7.6243567466736">
        <ele>487</ele>
        <time>2019-09-11T09:52:41+00:00</time>
      </trkpt>
      <trkpt lat="43.316474914551" lon="-7.624370098114">
        <ele>487</ele>
        <time>2019-09-11T09:52:42+00:00</time>
      </trkpt>
      <trkpt lat="43.316467285156" lon="-7.6243815422058">
        <ele>487</ele>
        <time>2019-09-11T09:52:43+00:00</time>
      </trkpt>
      <trkpt lat="43.316463470459" lon="-7.6243915557861">
        <ele>487</ele>
        <time>2019-09-11T09:52:44+00:00</time>
      </trkpt>
      <trkpt lat="43.316463470459" lon="-7.6244068145752">
        <ele>487</ele>
        <time>2019-09-11T09:52:45+00:00</time>
      </trkpt>
      <trkpt lat="43.316463470459" lon="-7.624418258667">
        <ele>487</ele>
        <time>2019-09-11T09:52:46+00:00</time>
      </trkpt>
      <trkpt lat="43.316455841064" lon="-7.6244301795959">
        <ele>487</ele>
        <time>2019-09-11T09:52:47+00:00</time>
      </trkpt>
      <trkpt lat="43.31644821167" lon="-7.6244416236877">
        <ele>487</ele>
        <time>2019-09-11T09:52:48+00:00</time>
      </trkpt>
      <trkpt lat="43.316440582275" lon="-7.6244568824768">
        <ele>488</ele>
        <time>2019-09-11T09:52:49+00:00</time>
      </trkpt>
      <trkpt lat="43.316432952881" lon="-7.6244683265686">
        <ele>488</ele>
        <time>2019-09-11T09:52:50+00:00</time>
      </trkpt>
      <trkpt lat="43.316421508789" lon="-7.6244764328003">
        <ele>488</ele>
        <time>2019-09-11T09:52:51+00:00</time>
      </trkpt>
      <trkpt lat="43.316417694092" lon="-7.6244864463806">
        <ele>488</ele>
        <time>2019-09-11T09:52:52+00:00</time>
      </trkpt>
      <trkpt lat="43.316398620605" lon="-7.6244950294495">
        <ele>488</ele>
        <time>2019-09-11T09:52:53+00:00</time>
      </trkpt>
      <trkpt lat="43.316394805908" lon="-7.6245050430298">
        <ele>488</ele>
        <time>2019-09-11T09:52:54+00:00</time>
      </trkpt>
      <trkpt lat="43.316387176514" lon="-7.6245150566101">
        <ele>488</ele>
        <time>2019-09-11T09:52:55+00:00</time>
      </trkpt>
      <trkpt lat="43.316379547119" lon="-7.6245231628418">
        <ele>488</ele>
        <time>2019-09-11T09:52:56+00:00</time>
      </trkpt>
      <trkpt lat="43.316379547119" lon="-7.6245331764221">
        <ele>488</ele>
        <time>2019-09-11T09:52:57+00:00</time>
      </trkpt>
      <trkpt lat="43.316375732422" lon="-7.6245484352112">
        <ele>488</ele>
        <time>2019-09-11T09:52:58+00:00</time>
      </trkpt>
      <trkpt lat="43.316371917725" lon="-7.6245632171631">
        <ele>488</ele>
        <time>2019-09-11T09:52:59+00:00</time>
      </trkpt>
      <trkpt lat="43.316371917725" lon="-7.6245784759521">
        <ele>488</ele>
        <time>2019-09-11T09:53:00+00:00</time>
      </trkpt>
      <trkpt lat="43.316368103027" lon="-7.6245951652527">
        <ele>488</ele>
        <time>2019-09-11T09:53:01+00:00</time>
      </trkpt>
      <trkpt lat="43.316368103027" lon="-7.6246099472046">
        <ele>488</ele>
        <time>2019-09-11T09:53:02+00:00</time>
      </trkpt>
      <trkpt lat="43.31636428833" lon="-7.6246285438538">
        <ele>488</ele>
        <time>2019-09-11T09:53:03+00:00</time>
      </trkpt>
      <trkpt lat="43.316368103027" lon="-7.6246514320374">
        <ele>488</ele>
        <time>2019-09-11T09:53:04+00:00</time>
      </trkpt>
      <trkpt lat="43.316368103027" lon="-7.6246747970581">
        <ele>488</ele>
        <time>2019-09-11T09:53:05+00:00</time>
      </trkpt>
      <trkpt lat="43.316368103027" lon="-7.6246967315674">
        <ele>488</ele>
        <time>2019-09-11T09:53:06+00:00</time>
      </trkpt>
      <trkpt lat="43.31636428833" lon="-7.624716758728">
        <ele>488</ele>
        <time>2019-09-11T09:53:07+00:00</time>
      </trkpt>
      <trkpt lat="43.316360473633" lon="-7.6247382164001">
        <ele>488</ele>
        <time>2019-09-11T09:53:08+00:00</time>
      </trkpt>
      <trkpt lat="43.316360473633" lon="-7.6247582435608">
        <ele>488</ele>
        <time>2019-09-11T09:53:09+00:00</time>
      </trkpt>
      <trkpt lat="43.31636428833" lon="-7.6247782707214">
        <ele>488</ele>
        <time>2019-09-11T09:53:10+00:00</time>
      </trkpt>
      <trkpt lat="43.316368103027" lon="-7.6248002052307">
        <ele>488</ele>
        <time>2019-09-11T09:53:11+00:00</time>
      </trkpt>
      <trkpt lat="43.316368103027" lon="-7.6248183250427">
        <ele>488</ele>
        <time>2019-09-11T09:53:12+00:00</time>
      </trkpt>
      <trkpt lat="43.316368103027" lon="-7.6248350143433">
        <ele>488</ele>
        <time>2019-09-11T09:53:13+00:00</time>
      </trkpt>
      <trkpt lat="43.316368103027" lon="-7.6248497962952">
        <ele>488</ele>
        <time>2019-09-11T09:53:14+00:00</time>
      </trkpt>
      <trkpt lat="43.31636428833" lon="-7.6248664855957">
        <ele>488</ele>
        <time>2019-09-11T09:53:15+00:00</time>
      </trkpt>
      <trkpt lat="43.31636428833" lon="-7.6248798370361">
        <ele>487</ele>
        <time>2019-09-11T09:53:16+00:00</time>
      </trkpt>
      <trkpt lat="43.316360473633" lon="-7.6248950958252">
        <ele>487</ele>
        <time>2019-09-11T09:53:17+00:00</time>
      </trkpt>
      <trkpt lat="43.316356658936" lon="-7.6249098777771">
        <ele>487</ele>
        <time>2019-09-11T09:53:18+00:00</time>
      </trkpt>
      <trkpt lat="43.316356658936" lon="-7.6249265670776">
        <ele>487</ele>
        <time>2019-09-11T09:53:19+00:00</time>
      </trkpt>
      <trkpt lat="43.316352844238" lon="-7.6249384880066">
        <ele>487</ele>
        <time>2019-09-11T09:53:20+00:00</time>
      </trkpt>
      <trkpt lat="43.316352844238" lon="-7.6249566078186">
        <ele>487</ele>
        <time>2019-09-11T09:53:21+00:00</time>
      </trkpt>
      <trkpt lat="43.316349029541" lon="-7.6249718666077">
        <ele>487</ele>
        <time>2019-09-11T09:53:22+00:00</time>
      </trkpt>
      <trkpt lat="43.316341400146" lon="-7.624981880188">
        <ele>487</ele>
        <time>2019-09-11T09:53:23+00:00</time>
      </trkpt>
      <trkpt lat="43.316329956055" lon="-7.6249952316284">
        <ele>487</ele>
        <time>2019-09-11T09:53:24+00:00</time>
      </trkpt>
      <trkpt lat="43.31632232666" lon="-7.6250066757202">
        <ele>487</ele>
        <time>2019-09-11T09:53:25+00:00</time>
      </trkpt>
      <trkpt lat="43.316314697266" lon="-7.6250166893005">
        <ele>487</ele>
        <time>2019-09-11T09:53:26+00:00</time>
      </trkpt>
      <trkpt lat="43.316303253174" lon="-7.6250267028809">
        <ele>487</ele>
        <time>2019-09-11T09:53:27+00:00</time>
      </trkpt>
      <trkpt lat="43.316295623779" lon="-7.6250400543213">
        <ele>487</ele>
        <time>2019-09-11T09:53:28+00:00</time>
      </trkpt>
      <trkpt lat="43.316287994385" lon="-7.6250514984131">
        <ele>487</ele>
        <time>2019-09-11T09:53:29+00:00</time>
      </trkpt>
      <trkpt lat="43.316276550293" lon="-7.6250615119934">
        <ele>486</ele>
        <time>2019-09-11T09:53:30+00:00</time>
      </trkpt>
      <trkpt lat="43.316265106201" lon="-7.6250715255737">
        <ele>486</ele>
        <time>2019-09-11T09:53:31+00:00</time>
      </trkpt>
      <trkpt lat="43.316257476807" lon="-7.6250834465027">
        <ele>486</ele>
        <time>2019-09-11T09:53:32+00:00</time>
      </trkpt>
      <trkpt lat="43.316246032715" lon="-7.6250915527344">
        <ele>486</ele>
        <time>2019-09-11T09:53:33+00:00</time>
      </trkpt>
      <trkpt lat="43.316234588623" lon="-7.6250948905945">
        <ele>486</ele>
        <time>2019-09-11T09:53:34+00:00</time>
      </trkpt>
      <trkpt lat="43.316223144531" lon="-7.6250967979431">
        <ele>486</ele>
        <time>2019-09-11T09:53:35+00:00</time>
      </trkpt>
      <trkpt lat="43.316207885742" lon="-7.6250982284546">
        <ele>486</ele>
        <time>2019-09-11T09:53:36+00:00</time>
      </trkpt>
      <trkpt lat="43.31619644165" lon="-7.6251034736633">
        <ele>486</ele>
        <time>2019-09-11T09:53:37+00:00</time>
      </trkpt>
      <trkpt lat="43.316184997559" lon="-7.6251134872437">
        <ele>486</ele>
        <time>2019-09-11T09:53:38+00:00</time>
      </trkpt>
      <trkpt lat="43.316173553467" lon="-7.6251182556152">
        <ele>486</ele>
        <time>2019-09-11T09:53:39+00:00</time>
      </trkpt>
      <trkpt lat="43.316165924072" lon="-7.625123500824">
        <ele>486</ele>
        <time>2019-09-11T09:53:40+00:00</time>
      </trkpt>
      <trkpt lat="43.316158294678" lon="-7.6251301765442">
        <ele>486</ele>
        <time>2019-09-11T09:53:41+00:00</time>
      </trkpt>
      <trkpt lat="43.316146850586" lon="-7.6251282691956">
        <ele>486</ele>
        <time>2019-09-11T09:53:42+00:00</time>
      </trkpt>
      <trkpt lat="43.316135406494" lon="-7.6251316070557">
        <ele>486</ele>
        <time>2019-09-11T09:53:43+00:00</time>
      </trkpt>
      <trkpt lat="43.3161277771" lon="-7.6251382827759">
        <ele>486</ele>
        <time>2019-09-11T09:53:44+00:00</time>
      </trkpt>
      <trkpt lat="43.316120147705" lon="-7.6251435279846">
        <ele>486</ele>
        <time>2019-09-11T09:53:45+00:00</time>
      </trkpt>
      <trkpt lat="43.316108703613" lon="-7.6251516342163">
        <ele>486</ele>
        <time>2019-09-11T09:53:46+00:00</time>
      </trkpt>
      <trkpt lat="43.316104888916" lon="-7.6251635551453">
        <ele>486</ele>
        <time>2019-09-11T09:53:47+00:00</time>
      </trkpt>
      <trkpt lat="43.316101074219" lon="-7.6251735687256">
        <ele>486</ele>
        <time>2019-09-11T09:53:48+00:00</time>
      </trkpt>
      <trkpt lat="43.316104888916" lon="-7.6251983642578">
        <ele>487</ele>
        <time>2019-09-11T09:53:49+00:00</time>
      </trkpt>
      <trkpt lat="43.316097259521" lon="-7.6252083778381">
        <ele>487</ele>
        <time>2019-09-11T09:53:50+00:00</time>
      </trkpt>
      <trkpt lat="43.316093444824" lon="-7.62522315979">
        <ele>487</ele>
        <time>2019-09-11T09:53:51+00:00</time>
      </trkpt>
      <trkpt lat="43.316089630127" lon="-7.6252465248108">
        <ele>487</ele>
        <time>2019-09-11T09:53:52+00:00</time>
      </trkpt>
      <trkpt lat="43.316082000732" lon="-7.6252665519714">
        <ele>487</ele>
        <time>2019-09-11T09:53:53+00:00</time>
      </trkpt>
      <trkpt lat="43.316078186035" lon="-7.6252799034119">
        <ele>487</ele>
        <time>2019-09-11T09:53:54+00:00</time>
      </trkpt>
      <trkpt lat="43.316074371338" lon="-7.6252951622009">
        <ele>487</ele>
        <time>2019-09-11T09:53:55+00:00</time>
      </trkpt>
      <trkpt lat="43.316066741943" lon="-7.6253066062927">
        <ele>486</ele>
        <time>2019-09-11T09:53:56+00:00</time>
      </trkpt>
      <trkpt lat="43.316062927246" lon="-7.6253218650818">
        <ele>486</ele>
        <time>2019-09-11T09:53:57+00:00</time>
      </trkpt>
      <trkpt lat="43.316059112549" lon="-7.6253333091736">
        <ele>486</ele>
        <time>2019-09-11T09:53:58+00:00</time>
      </trkpt>
      <trkpt lat="43.316055297852" lon="-7.6253514289856">
        <ele>486</ele>
        <time>2019-09-11T09:53:59+00:00</time>
      </trkpt>
      <trkpt lat="43.316051483154" lon="-7.6253700256348">
        <ele>486</ele>
        <time>2019-09-11T09:54:00+00:00</time>
      </trkpt>
      <trkpt lat="43.316047668457" lon="-7.6253833770752">
        <ele>486</ele>
        <time>2019-09-11T09:54:01+00:00</time>
      </trkpt>
      <trkpt lat="43.316047668457" lon="-7.6254081726074">
        <ele>486</ele>
        <time>2019-09-11T09:54:02+00:00</time>
      </trkpt>
      <trkpt lat="43.31604385376" lon="-7.6254301071167">
        <ele>486</ele>
        <time>2019-09-11T09:54:03+00:00</time>
      </trkpt>
      <trkpt lat="43.316040039062" lon="-7.6254515647888">
        <ele>487</ele>
        <time>2019-09-11T09:54:04+00:00</time>
      </trkpt>
      <trkpt lat="43.316036224365" lon="-7.6254682540894">
        <ele>487</ele>
        <time>2019-09-11T09:54:05+00:00</time>
      </trkpt>
      <trkpt lat="43.316028594971" lon="-7.62548828125">
        <ele>487</ele>
        <time>2019-09-11T09:54:06+00:00</time>
      </trkpt>
      <trkpt lat="43.316024780273" lon="-7.6255083084106">
        <ele>487</ele>
        <time>2019-09-11T09:54:07+00:00</time>
      </trkpt>
      <trkpt lat="43.316028594971" lon="-7.6255216598511">
        <ele>487</ele>
        <time>2019-09-11T09:54:08+00:00</time>
      </trkpt>
      <trkpt lat="43.316028594971" lon="-7.6255316734314">
        <ele>487</ele>
        <time>2019-09-11T09:54:09+00:00</time>
      </trkpt>
      <trkpt lat="43.316024780273" lon="-7.6255464553833">
        <ele>487</ele>
        <time>2019-09-11T09:54:10+00:00</time>
      </trkpt>
      <trkpt lat="43.316024780273" lon="-7.6255598068237">
        <ele>486</ele>
        <time>2019-09-11T09:54:11+00:00</time>
      </trkpt>
      <trkpt lat="43.316024780273" lon="-7.6255764961243">
        <ele>486</ele>
        <time>2019-09-11T09:54:12+00:00</time>
      </trkpt>
      <trkpt lat="43.316013336182" lon="-7.6255950927734">
        <ele>487</ele>
        <time>2019-09-11T09:54:13+00:00</time>
      </trkpt>
      <trkpt lat="43.316013336182" lon="-7.625611782074">
        <ele>486</ele>
        <time>2019-09-11T09:54:14+00:00</time>
      </trkpt>
      <trkpt lat="43.316017150879" lon="-7.6256265640259">
        <ele>486</ele>
        <time>2019-09-11T09:54:15+00:00</time>
      </trkpt>
      <trkpt lat="43.316017150879" lon="-7.6256418228149">
        <ele>486</ele>
        <time>2019-09-11T09:54:16+00:00</time>
      </trkpt>
      <trkpt lat="43.316017150879" lon="-7.6256585121155">
        <ele>486</ele>
        <time>2019-09-11T09:54:17+00:00</time>
      </trkpt>
      <trkpt lat="43.316017150879" lon="-7.6256732940674">
        <ele>486</ele>
        <time>2019-09-11T09:54:18+00:00</time>
      </trkpt>
      <trkpt lat="43.316013336182" lon="-7.6256866455078">
        <ele>486</ele>
        <time>2019-09-11T09:54:19+00:00</time>
      </trkpt>
      <trkpt lat="43.316013336182" lon="-7.6257019042969">
        <ele>486</ele>
        <time>2019-09-11T09:54:20+00:00</time>
      </trkpt>
      <trkpt lat="43.316013336182" lon="-7.6257166862488">
        <ele>486</ele>
        <time>2019-09-11T09:54:21+00:00</time>
      </trkpt>
      <trkpt lat="43.316009521484" lon="-7.6257333755493">
        <ele>486</ele>
        <time>2019-09-11T09:54:22+00:00</time>
      </trkpt>
      <trkpt lat="43.316013336182" lon="-7.6257514953613">
        <ele>486</ele>
        <time>2019-09-11T09:54:23+00:00</time>
      </trkpt>
      <trkpt lat="43.316005706787" lon="-7.6257634162903">
        <ele>486</ele>
        <time>2019-09-11T09:54:24+00:00</time>
      </trkpt>
      <trkpt lat="43.316005706787" lon="-7.6257834434509">
        <ele>486</ele>
        <time>2019-09-11T09:54:25+00:00</time>
      </trkpt>
      <trkpt lat="43.316009521484" lon="-7.6258001327515">
        <ele>486</ele>
        <time>2019-09-11T09:54:26+00:00</time>
      </trkpt>
      <trkpt lat="43.316017150879" lon="-7.6258182525635">
        <ele>486</ele>
        <time>2019-09-11T09:54:27+00:00</time>
      </trkpt>
      <trkpt lat="43.316020965576" lon="-7.6258382797241">
        <ele>486</ele>
        <time>2019-09-11T09:54:28+00:00</time>
      </trkpt>
      <trkpt lat="43.316020965576" lon="-7.6258568763733">
        <ele>485</ele>
        <time>2019-09-11T09:54:29+00:00</time>
      </trkpt>
      <trkpt lat="43.316024780273" lon="-7.6258716583252">
        <ele>485</ele>
        <time>2019-09-11T09:54:30+00:00</time>
      </trkpt>
      <trkpt lat="43.316028594971" lon="-7.6258864402771">
        <ele>485</ele>
        <time>2019-09-11T09:54:31+00:00</time>
      </trkpt>
      <trkpt lat="43.316036224365" lon="-7.6259050369263">
        <ele>485</ele>
        <time>2019-09-11T09:54:32+00:00</time>
      </trkpt>
      <trkpt lat="43.316040039062" lon="-7.6259250640869">
        <ele>485</ele>
        <time>2019-09-11T09:54:33+00:00</time>
      </trkpt>
      <trkpt lat="43.316047668457" lon="-7.6259417533875">
        <ele>485</ele>
        <time>2019-09-11T09:54:34+00:00</time>
      </trkpt>
      <trkpt lat="43.316051483154" lon="-7.6259617805481">
        <ele>485</ele>
        <time>2019-09-11T09:54:35+00:00</time>
      </trkpt>
      <trkpt lat="43.316051483154" lon="-7.6259784698486">
        <ele>485</ele>
        <time>2019-09-11T09:54:36+00:00</time>
      </trkpt>
      <trkpt lat="43.316055297852" lon="-7.6259932518005">
        <ele>485</ele>
        <time>2019-09-11T09:54:37+00:00</time>
      </trkpt>
      <trkpt lat="43.316062927246" lon="-7.6260085105896">
        <ele>485</ele>
        <time>2019-09-11T09:54:38+00:00</time>
      </trkpt>
      <trkpt lat="43.316066741943" lon="-7.6260251998901">
        <ele>485</ele>
        <time>2019-09-11T09:54:39+00:00</time>
      </trkpt>
      <trkpt lat="43.316070556641" lon="-7.6260418891907">
        <ele>485</ele>
        <time>2019-09-11T09:54:40+00:00</time>
      </trkpt>
      <trkpt lat="43.316078186035" lon="-7.6260533332825">
        <ele>485</ele>
        <time>2019-09-11T09:54:41+00:00</time>
      </trkpt>
      <trkpt lat="43.316082000732" lon="-7.6260647773743">
        <ele>485</ele>
        <time>2019-09-11T09:54:42+00:00</time>
      </trkpt>
      <trkpt lat="43.316089630127" lon="-7.6260781288147">
        <ele>485</ele>
        <time>2019-09-11T09:54:43+00:00</time>
      </trkpt>
      <trkpt lat="43.316093444824" lon="-7.6260900497437">
        <ele>485</ele>
        <time>2019-09-11T09:54:44+00:00</time>
      </trkpt>
      <trkpt lat="43.316101074219" lon="-7.6261034011841">
        <ele>485</ele>
        <time>2019-09-11T09:54:45+00:00</time>
      </trkpt>
      <trkpt lat="43.316101074219" lon="-7.6261148452759">
        <ele>485</ele>
        <time>2019-09-11T09:54:46+00:00</time>
      </trkpt>
      <trkpt lat="43.316101074219" lon="-7.6261281967163">
        <ele>484</ele>
        <time>2019-09-11T09:54:47+00:00</time>
      </trkpt>
      <trkpt lat="43.316104888916" lon="-7.6261415481567">
        <ele>484</ele>
        <time>2019-09-11T09:54:48+00:00</time>
      </trkpt>
      <trkpt lat="43.316104888916" lon="-7.626163482666">
        <ele>484</ele>
        <time>2019-09-11T09:54:49+00:00</time>
      </trkpt>
      <trkpt lat="43.316097259521" lon="-7.6261768341064">
        <ele>484</ele>
        <time>2019-09-11T09:54:50+00:00</time>
      </trkpt>
      <trkpt lat="43.316097259521" lon="-7.6261882781982">
        <ele>484</ele>
        <time>2019-09-11T09:54:51+00:00</time>
      </trkpt>
      <trkpt lat="43.316097259521" lon="-7.6261968612671">
        <ele>484</ele>
        <time>2019-09-11T09:54:52+00:00</time>
      </trkpt>
      <trkpt lat="43.316093444824" lon="-7.6262083053589">
        <ele>484</ele>
        <time>2019-09-11T09:54:53+00:00</time>
      </trkpt>
      <trkpt lat="43.316093444824" lon="-7.6262168884277">
        <ele>484</ele>
        <time>2019-09-11T09:54:54+00:00</time>
      </trkpt>
      <trkpt lat="43.316093444824" lon="-7.6262269020081">
        <ele>484</ele>
        <time>2019-09-11T09:54:55+00:00</time>
      </trkpt>
      <trkpt lat="43.316097259521" lon="-7.6262350082397">
        <ele>484</ele>
        <time>2019-09-11T09:54:56+00:00</time>
      </trkpt>
      <trkpt lat="43.316104888916" lon="-7.6262483596802">
        <ele>484</ele>
        <time>2019-09-11T09:54:57+00:00</time>
      </trkpt>
      <trkpt lat="43.316108703613" lon="-7.626259803772">
        <ele>484</ele>
        <time>2019-09-11T09:54:58+00:00</time>
      </trkpt>
      <trkpt lat="43.316116333008" lon="-7.626275062561">
        <ele>484</ele>
        <time>2019-09-11T09:54:59+00:00</time>
      </trkpt>
      <trkpt lat="43.316120147705" lon="-7.6262884140015">
        <ele>484</ele>
        <time>2019-09-11T09:55:00+00:00</time>
      </trkpt>
      <trkpt lat="43.316123962402" lon="-7.6263017654419">
        <ele>484</ele>
        <time>2019-09-11T09:55:01+00:00</time>
      </trkpt>
      <trkpt lat="43.316131591797" lon="-7.6263151168823">
        <ele>484</ele>
        <time>2019-09-11T09:55:02+00:00</time>
      </trkpt>
      <trkpt lat="43.316135406494" lon="-7.6263318061829">
        <ele>484</ele>
        <time>2019-09-11T09:55:03+00:00</time>
      </trkpt>
      <trkpt lat="43.316139221191" lon="-7.6263499259949">
        <ele>484</ele>
        <time>2019-09-11T09:55:04+00:00</time>
      </trkpt>
      <trkpt lat="43.316139221191" lon="-7.6263666152954">
        <ele>484</ele>
        <time>2019-09-11T09:55:05+00:00</time>
      </trkpt>
      <trkpt lat="43.316143035889" lon="-7.6263852119446">
        <ele>484</ele>
        <time>2019-09-11T09:55:06+00:00</time>
      </trkpt>
      <trkpt lat="43.316143035889" lon="-7.6263999938965">
        <ele>484</ele>
        <time>2019-09-11T09:55:07+00:00</time>
      </trkpt>
      <trkpt lat="43.316146850586" lon="-7.6264181137085">
        <ele>484</ele>
        <time>2019-09-11T09:55:08+00:00</time>
      </trkpt>
      <trkpt lat="43.316146850586" lon="-7.6264381408691">
        <ele>484</ele>
        <time>2019-09-11T09:55:09+00:00</time>
      </trkpt>
      <trkpt lat="43.316146850586" lon="-7.6264533996582">
        <ele>484</ele>
        <time>2019-09-11T09:55:10+00:00</time>
      </trkpt>
      <trkpt lat="43.316150665283" lon="-7.6264681816101">
        <ele>484</ele>
        <time>2019-09-11T09:55:11+00:00</time>
      </trkpt>
      <trkpt lat="43.31615447998" lon="-7.6264815330505">
        <ele>484</ele>
        <time>2019-09-11T09:55:12+00:00</time>
      </trkpt>
      <trkpt lat="43.31615447998" lon="-7.6264967918396">
        <ele>484</ele>
        <time>2019-09-11T09:55:13+00:00</time>
      </trkpt>
      <trkpt lat="43.31615447998" lon="-7.6265168190002">
        <ele>484</ele>
        <time>2019-09-11T09:55:14+00:00</time>
      </trkpt>
      <trkpt lat="43.316158294678" lon="-7.6265316009521">
        <ele>484</ele>
        <time>2019-09-11T09:55:15+00:00</time>
      </trkpt>
      <trkpt lat="43.316162109375" lon="-7.6265449523926">
        <ele>484</ele>
        <time>2019-09-11T09:55:16+00:00</time>
      </trkpt>
      <trkpt lat="43.316165924072" lon="-7.6265602111816">
        <ele>483</ele>
        <time>2019-09-11T09:55:17+00:00</time>
      </trkpt>
      <trkpt lat="43.316173553467" lon="-7.626570224762">
        <ele>483</ele>
        <time>2019-09-11T09:55:18+00:00</time>
      </trkpt>
      <trkpt lat="43.316188812256" lon="-7.6265816688538">
        <ele>483</ele>
        <time>2019-09-11T09:55:19+00:00</time>
      </trkpt>
      <trkpt lat="43.31619644165" lon="-7.6265916824341">
        <ele>483</ele>
        <time>2019-09-11T09:55:20+00:00</time>
      </trkpt>
      <trkpt lat="43.316204071045" lon="-7.6266031265259">
        <ele>483</ele>
        <time>2019-09-11T09:55:21+00:00</time>
      </trkpt>
      <trkpt lat="43.316215515137" lon="-7.6266164779663">
        <ele>483</ele>
        <time>2019-09-11T09:55:22+00:00</time>
      </trkpt>
      <trkpt lat="43.316223144531" lon="-7.6266283988953">
        <ele>483</ele>
        <time>2019-09-11T09:55:23+00:00</time>
      </trkpt>
      <trkpt lat="43.316230773926" lon="-7.6266398429871">
        <ele>483</ele>
        <time>2019-09-11T09:55:24+00:00</time>
      </trkpt>
      <trkpt lat="43.31623840332" lon="-7.6266465187073">
        <ele>483</ele>
        <time>2019-09-11T09:55:25+00:00</time>
      </trkpt>
      <trkpt lat="43.31623840332" lon="-7.6266565322876">
        <ele>482</ele>
        <time>2019-09-11T09:55:26+00:00</time>
      </trkpt>
      <trkpt lat="43.316249847412" lon="-7.6266651153564">
        <ele>482</ele>
        <time>2019-09-11T09:55:27+00:00</time>
      </trkpt>
      <trkpt lat="43.316253662109" lon="-7.6266732215881">
        <ele>482</ele>
        <time>2019-09-11T09:55:28+00:00</time>
      </trkpt>
      <trkpt lat="43.316261291504" lon="-7.6266851425171">
        <ele>482</ele>
        <time>2019-09-11T09:55:29+00:00</time>
      </trkpt>
      <trkpt lat="43.316268920898" lon="-7.6266965866089">
        <ele>482</ele>
        <time>2019-09-11T09:55:30+00:00</time>
      </trkpt>
      <trkpt lat="43.316276550293" lon="-7.6267118453979">
        <ele>482</ele>
        <time>2019-09-11T09:55:31+00:00</time>
      </trkpt>
      <trkpt lat="43.316284179688" lon="-7.6267266273499">
        <ele>482</ele>
        <time>2019-09-11T09:55:32+00:00</time>
      </trkpt>
      <trkpt lat="43.316299438477" lon="-7.6267433166504">
        <ele>482</ele>
        <time>2019-09-11T09:55:33+00:00</time>
      </trkpt>
      <trkpt lat="43.316307067871" lon="-7.6267614364624">
        <ele>482</ele>
        <time>2019-09-11T09:55:34+00:00</time>
      </trkpt>
      <trkpt lat="43.316318511963" lon="-7.6267747879028">
        <ele>482</ele>
        <time>2019-09-11T09:55:35+00:00</time>
      </trkpt>
      <trkpt lat="43.316326141357" lon="-7.6267867088318">
        <ele>482</ele>
        <time>2019-09-11T09:55:36+00:00</time>
      </trkpt>
      <trkpt lat="43.31632232666" lon="-7.6267967224121">
        <ele>482</ele>
        <time>2019-09-11T09:55:37+00:00</time>
      </trkpt>
      <trkpt lat="43.316329956055" lon="-7.6268067359924">
        <ele>482</ele>
        <time>2019-09-11T09:55:38+00:00</time>
      </trkpt>
      <trkpt lat="43.316345214844" lon="-7.6268167495728">
        <ele>482</ele>
        <time>2019-09-11T09:55:39+00:00</time>
      </trkpt>
      <trkpt lat="43.316356658936" lon="-7.6268301010132">
        <ele>482</ele>
        <time>2019-09-11T09:55:40+00:00</time>
      </trkpt>
      <trkpt lat="43.31636428833" lon="-7.6268448829651">
        <ele>482</ele>
        <time>2019-09-11T09:55:41+00:00</time>
      </trkpt>
      <trkpt lat="43.316379547119" lon="-7.626856803894">
        <ele>482</ele>
        <time>2019-09-11T09:55:42+00:00</time>
      </trkpt>
      <trkpt lat="43.316390991211" lon="-7.6268682479858">
        <ele>482</ele>
        <time>2019-09-11T09:55:43+00:00</time>
      </trkpt>
      <trkpt lat="43.316398620605" lon="-7.6268801689148">
        <ele>482</ele>
        <time>2019-09-11T09:55:44+00:00</time>
      </trkpt>
      <trkpt lat="43.31640625" lon="-7.6268901824951">
        <ele>482</ele>
        <time>2019-09-11T09:55:45+00:00</time>
      </trkpt>
      <trkpt lat="43.316410064697" lon="-7.6269001960754">
        <ele>482</ele>
        <time>2019-09-11T09:55:46+00:00</time>
      </trkpt>
      <trkpt lat="43.316413879395" lon="-7.6269116401672">
        <ele>482</ele>
        <time>2019-09-11T09:55:47+00:00</time>
      </trkpt>
      <trkpt lat="43.316425323486" lon="-7.6269216537476">
        <ele>482</ele>
        <time>2019-09-11T09:55:48+00:00</time>
      </trkpt>
      <trkpt lat="43.316436767578" lon="-7.6269283294678">
        <ele>482</ele>
        <time>2019-09-11T09:55:49+00:00</time>
      </trkpt>
      <trkpt lat="43.31644821167" lon="-7.6269397735596">
        <ele>482</ele>
        <time>2019-09-11T09:55:50+00:00</time>
      </trkpt>
      <trkpt lat="43.316455841064" lon="-7.6269464492798">
        <ele>482</ele>
        <time>2019-09-11T09:55:51+00:00</time>
      </trkpt>
      <trkpt lat="43.316463470459" lon="-7.626953125">
        <ele>482</ele>
        <time>2019-09-11T09:55:52+00:00</time>
      </trkpt>
      <trkpt lat="43.316471099854" lon="-7.626965045929">
        <ele>482</ele>
        <time>2019-09-11T09:55:53+00:00</time>
      </trkpt>
      <trkpt lat="43.316478729248" lon="-7.6269764900208">
        <ele>482</ele>
        <time>2019-09-11T09:55:54+00:00</time>
      </trkpt>
      <trkpt lat="43.316482543945" lon="-7.6269898414612">
        <ele>482</ele>
        <time>2019-09-11T09:55:55+00:00</time>
      </trkpt>
      <trkpt lat="43.316486358643" lon="-7.6270065307617">
        <ele>482</ele>
        <time>2019-09-11T09:55:56+00:00</time>
      </trkpt>
      <trkpt lat="43.316486358643" lon="-7.6270198822021">
        <ele>481</ele>
        <time>2019-09-11T09:55:57+00:00</time>
      </trkpt>
      <trkpt lat="43.31649017334" lon="-7.6270318031311">
        <ele>481</ele>
        <time>2019-09-11T09:55:58+00:00</time>
      </trkpt>
      <trkpt lat="43.316501617432" lon="-7.6270432472229">
        <ele>481</ele>
        <time>2019-09-11T09:55:59+00:00</time>
      </trkpt>
      <trkpt lat="43.316505432129" lon="-7.6270565986633">
        <ele>481</ele>
        <time>2019-09-11T09:56:00+00:00</time>
      </trkpt>
      <trkpt lat="43.316505432129" lon="-7.6270651817322">
        <ele>481</ele>
        <time>2019-09-11T09:56:01+00:00</time>
      </trkpt>
      <trkpt lat="43.316509246826" lon="-7.6270699501038">
        <ele>481</ele>
        <time>2019-09-11T09:56:02+00:00</time>
      </trkpt>
      <trkpt lat="43.316513061523" lon="-7.6270699501038">
        <ele>481</ele>
        <time>2019-09-11T09:56:03+00:00</time>
      </trkpt>
      <trkpt lat="43.316513061523" lon="-7.6270685195923">
        <ele>481</ele>
        <time>2019-09-11T09:56:04+00:00</time>
      </trkpt>
      <trkpt lat="43.316513061523" lon="-7.6270666122437">
        <ele>481</ele>
        <time>2019-09-11T09:56:05+00:00</time>
      </trkpt>
      <trkpt lat="43.316516876221" lon="-7.6270666122437">
        <ele>481</ele>
        <time>2019-09-11T09:56:06+00:00</time>
      </trkpt>
      <trkpt lat="43.316516876221" lon="-7.6270685195923">
        <ele>481</ele>
        <time>2019-09-11T09:56:07+00:00</time>
      </trkpt>
      <trkpt lat="43.316516876221" lon="-7.6270718574524">
        <ele>481</ele>
        <time>2019-09-11T09:56:08+00:00</time>
      </trkpt>
      <trkpt lat="43.316524505615" lon="-7.6270732879639">
        <ele>481</ele>
        <time>2019-09-11T09:56:09+00:00</time>
      </trkpt>
      <trkpt lat="43.316528320312" lon="-7.6270732879639">
        <ele>481</ele>
        <time>2019-09-11T09:56:10+00:00</time>
      </trkpt>
      <trkpt lat="43.31653213501" lon="-7.6270732879639">
        <ele>481</ele>
        <time>2019-09-11T09:56:11+00:00</time>
      </trkpt>
      <trkpt lat="43.316535949707" lon="-7.6270785331726">
        <ele>481</ele>
        <time>2019-09-11T09:56:12+00:00</time>
      </trkpt>
      <trkpt lat="43.316535949707" lon="-7.6270866394043">
        <ele>481</ele>
        <time>2019-09-11T09:56:13+00:00</time>
      </trkpt>
      <trkpt lat="43.316535949707" lon="-7.6270866394043">
        <ele>481</ele>
        <time>2019-09-11T09:56:14+00:00</time>
      </trkpt>
      <trkpt lat="43.316535949707" lon="-7.6270866394043">
        <ele>481</ele>
        <time>2019-09-11T09:56:15+00:00</time>
      </trkpt>
      <trkpt lat="43.316535949707" lon="-7.6270866394043">
        <ele>481</ele>
        <time>2019-09-11T09:56:16+00:00</time>
      </trkpt>
      <trkpt lat="43.316535949707" lon="-7.6270866394043">
        <ele>481</ele>
        <time>2019-09-11T09:56:17+00:00</time>
      </trkpt>
      <trkpt lat="43.316535949707" lon="-7.6270866394043">
        <ele>481</ele>
        <time>2019-09-11T09:56:18+00:00</time>
      </trkpt>
      <trkpt lat="43.316535949707" lon="-7.6270866394043">
        <ele>481</ele>
        <time>2019-09-11T09:56:19+00:00</time>
      </trkpt>
      <trkpt lat="43.316535949707" lon="-7.6270866394043">
        <ele>481</ele>
        <time>2019-09-11T09:56:20+00:00</time>
      </trkpt>
      <trkpt lat="43.316535949707" lon="-7.6270866394043">
        <ele>481</ele>
        <time>2019-09-11T09:56:21+00:00</time>
      </trkpt>
      <trkpt lat="43.316558837891" lon="-7.6270785331726">
        <ele>482</ele>
        <time>2019-09-11T09:56:22+00:00</time>
      </trkpt>
      <trkpt lat="43.316555023193" lon="-7.6270799636841">
        <ele>482</ele>
        <time>2019-09-11T09:56:23+00:00</time>
      </trkpt>
      <trkpt lat="43.316555023193" lon="-7.6270833015442">
        <ele>482</ele>
        <time>2019-09-11T09:56:24+00:00</time>
      </trkpt>
      <trkpt lat="43.316551208496" lon="-7.6270899772644">
        <ele>482</ele>
        <time>2019-09-11T09:56:25+00:00</time>
      </trkpt>
      <trkpt lat="43.316551208496" lon="-7.6270899772644">
        <ele>482</ele>
        <time>2019-09-11T09:56:26+00:00</time>
      </trkpt>
      <trkpt lat="43.316547393799" lon="-7.627091884613">
        <ele>483</ele>
        <time>2019-09-11T09:56:27+00:00</time>
      </trkpt>
      <trkpt lat="43.316547393799" lon="-7.627091884613">
        <ele>483</ele>
        <time>2019-09-11T09:56:28+00:00</time>
      </trkpt>
      <trkpt lat="43.316547393799" lon="-7.627091884613">
        <ele>483</ele>
        <time>2019-09-11T09:56:29+00:00</time>
      </trkpt>
      <trkpt lat="43.316547393799" lon="-7.627091884613">
        <ele>483</ele>
        <time>2019-09-11T09:56:30+00:00</time>
      </trkpt>
      <trkpt lat="43.316547393799" lon="-7.627091884613">
        <ele>483</ele>
        <time>2019-09-11T09:56:31+00:00</time>
      </trkpt>
      <trkpt lat="43.316547393799" lon="-7.627091884613">
        <ele>483</ele>
        <time>2019-09-11T09:56:32+00:00</time>
      </trkpt>
      <trkpt lat="43.316547393799" lon="-7.627091884613">
        <ele>483</ele>
        <time>2019-09-11T09:56:33+00:00</time>
      </trkpt>
      <trkpt lat="43.316547393799" lon="-7.627091884613">
        <ele>483</ele>
        <time>2019-09-11T09:56:34+00:00</time>
      </trkpt>
      <trkpt lat="43.316547393799" lon="-7.627091884613">
        <ele>483</ele>
        <time>2019-09-11T09:56:35+00:00</time>
      </trkpt>
      <trkpt lat="43.316513061523" lon="-7.6271200180054">
        <ele>484</ele>
        <time>2019-09-11T09:56:36+00:00</time>
      </trkpt>
      <trkpt lat="43.316505432129" lon="-7.627124786377">
        <ele>484</ele>
        <time>2019-09-11T09:56:37+00:00</time>
      </trkpt>
      <trkpt lat="43.316501617432" lon="-7.6271281242371">
        <ele>484</ele>
        <time>2019-09-11T09:56:38+00:00</time>
      </trkpt>
      <trkpt lat="43.316501617432" lon="-7.6271333694458">
        <ele>484</ele>
        <time>2019-09-11T09:56:39+00:00</time>
      </trkpt>
      <trkpt lat="43.316501617432" lon="-7.6271367073059">
        <ele>484</ele>
        <time>2019-09-11T09:56:40+00:00</time>
      </trkpt>
      <trkpt lat="43.316493988037" lon="-7.6271381378174">
        <ele>484</ele>
        <time>2019-09-11T09:56:41+00:00</time>
      </trkpt>
      <trkpt lat="43.316497802734" lon="-7.627140045166">
        <ele>484</ele>
        <time>2019-09-11T09:56:42+00:00</time>
      </trkpt>
      <trkpt lat="43.316493988037" lon="-7.6271433830261">
        <ele>483</ele>
        <time>2019-09-11T09:56:43+00:00</time>
      </trkpt>
      <trkpt lat="43.31649017334" lon="-7.6271448135376">
        <ele>483</ele>
        <time>2019-09-11T09:56:44+00:00</time>
      </trkpt>
      <trkpt lat="43.316493988037" lon="-7.6271448135376">
        <ele>483</ele>
        <time>2019-09-11T09:56:45+00:00</time>
      </trkpt>
      <trkpt lat="43.316497802734" lon="-7.6271433830261">
        <ele>483</ele>
        <time>2019-09-11T09:56:46+00:00</time>
      </trkpt>
      <trkpt lat="43.316501617432" lon="-7.6271381378174">
        <ele>483</ele>
        <time>2019-09-11T09:56:47+00:00</time>
      </trkpt>
      <trkpt lat="43.316501617432" lon="-7.627140045166">
        <ele>483</ele>
        <time>2019-09-11T09:56:48+00:00</time>
      </trkpt>
      <trkpt lat="43.316501617432" lon="-7.627140045166">
        <ele>483</ele>
        <time>2019-09-11T09:56:49+00:00</time>
      </trkpt>
      <trkpt lat="43.316501617432" lon="-7.627140045166">
        <ele>483</ele>
        <time>2019-09-11T09:56:50+00:00</time>
      </trkpt>
      <trkpt lat="43.316501617432" lon="-7.627140045166">
        <ele>483</ele>
        <time>2019-09-11T09:56:51+00:00</time>
      </trkpt>
      <trkpt lat="43.316501617432" lon="-7.627140045166">
        <ele>483</ele>
        <time>2019-09-11T09:56:52+00:00</time>
      </trkpt>
      <trkpt lat="43.316501617432" lon="-7.627140045166">
        <ele>483</ele>
        <time>2019-09-11T09:56:53+00:00</time>
      </trkpt>
      <trkpt lat="43.316501617432" lon="-7.627140045166">
        <ele>483</ele>
        <time>2019-09-11T09:56:54+00:00</time>
      </trkpt>
      <trkpt lat="43.316501617432" lon="-7.627140045166">
        <ele>483</ele>
        <time>2019-09-11T09:56:55+00:00</time>
      </trkpt>
      <trkpt lat="43.316501617432" lon="-7.627140045166">
        <ele>483</ele>
        <time>2019-09-11T09:56:56+00:00</time>
      </trkpt>
      <trkpt lat="43.316501617432" lon="-7.627140045166">
        <ele>483</ele>
        <time>2019-09-11T09:56:57+00:00</time>
      </trkpt>
      <trkpt lat="43.316501617432" lon="-7.627140045166">
        <ele>483</ele>
        <time>2019-09-11T09:56:58+00:00</time>
      </trkpt>
      <trkpt lat="43.316501617432" lon="-7.627140045166">
        <ele>483</ele>
        <time>2019-09-11T09:56:59+00:00</time>
      </trkpt>
      <trkpt lat="43.316501617432" lon="-7.627140045166">
        <ele>483</ele>
        <time>2019-09-11T09:57:00+00:00</time>
      </trkpt>
      <trkpt lat="43.316501617432" lon="-7.627140045166">
        <ele>483</ele>
        <time>2019-09-11T09:57:01+00:00</time>
      </trkpt>
      <trkpt lat="43.316501617432" lon="-7.627140045166">
        <ele>483</ele>
        <time>2019-09-11T09:57:02+00:00</time>
      </trkpt>
      <trkpt lat="43.316501617432" lon="-7.627140045166">
        <ele>483</ele>
        <time>2019-09-11T09:57:03+00:00</time>
      </trkpt>
      <trkpt lat="43.316501617432" lon="-7.627140045166">
        <ele>483</ele>
        <time>2019-09-11T09:57:04+00:00</time>
      </trkpt>
      <trkpt lat="43.316501617432" lon="-7.627140045166">
        <ele>483</ele>
        <time>2019-09-11T09:57:05+00:00</time>
      </trkpt>
      <trkpt lat="43.316501617432" lon="-7.627140045166">
        <ele>483</ele>
        <time>2019-09-11T09:57:06+00:00</time>
      </trkpt>
      <trkpt lat="43.316501617432" lon="-7.627140045166">
        <ele>483</ele>
        <time>2019-09-11T09:57:07+00:00</time>
      </trkpt>
      <trkpt lat="43.316501617432" lon="-7.627140045166">
        <ele>483</ele>
        <time>2019-09-11T09:57:08+00:00</time>
      </trkpt>
      <trkpt lat="43.316501617432" lon="-7.627140045166">
        <ele>483</ele>
        <time>2019-09-11T09:57:09+00:00</time>
      </trkpt>
      <trkpt lat="43.316501617432" lon="-7.627140045166">
        <ele>483</ele>
        <time>2019-09-11T09:57:10+00:00</time>
      </trkpt>
      <trkpt lat="43.316501617432" lon="-7.627140045166">
        <ele>483</ele>
        <time>2019-09-11T09:57:11+00:00</time>
      </trkpt>
      <trkpt lat="43.316501617432" lon="-7.627140045166">
        <ele>483</ele>
        <time>2019-09-11T09:57:12+00:00</time>
      </trkpt>
      <trkpt lat="43.316513061523" lon="-7.6271381378174">
        <ele>483</ele>
        <time>2019-09-11T09:57:13+00:00</time>
      </trkpt>
      <trkpt lat="43.316516876221" lon="-7.6271367073059">
        <ele>483</ele>
        <time>2019-09-11T09:57:14+00:00</time>
      </trkpt>
      <trkpt lat="43.316516876221" lon="-7.6271367073059">
        <ele>483</ele>
        <time>2019-09-11T09:57:15+00:00</time>
      </trkpt>
      <trkpt lat="43.316513061523" lon="-7.6271333694458">
        <ele>483</ele>
        <time>2019-09-11T09:57:16+00:00</time>
      </trkpt>
      <trkpt lat="43.316513061523" lon="-7.6271381378174">
        <ele>483</ele>
        <time>2019-09-11T09:57:17+00:00</time>
      </trkpt>
      <trkpt lat="43.316513061523" lon="-7.6271381378174">
        <ele>483</ele>
        <time>2019-09-11T09:57:18+00:00</time>
      </trkpt>
      <trkpt lat="43.316513061523" lon="-7.6271381378174">
        <ele>483</ele>
        <time>2019-09-11T09:57:19+00:00</time>
      </trkpt>
      <trkpt lat="43.316513061523" lon="-7.6271381378174">
        <ele>483</ele>
        <time>2019-09-11T09:57:20+00:00</time>
      </trkpt>
      <trkpt lat="43.316513061523" lon="-7.6271381378174">
        <ele>483</ele>
        <time>2019-09-11T09:57:21+00:00</time>
      </trkpt>
      <trkpt lat="43.316513061523" lon="-7.6271381378174">
        <ele>483</ele>
        <time>2019-09-11T09:57:22+00:00</time>
      </trkpt>
      <trkpt lat="43.316513061523" lon="-7.6271381378174">
        <ele>483</ele>
        <time>2019-09-11T09:57:23+00:00</time>
      </trkpt>
      <trkpt lat="43.316513061523" lon="-7.6271381378174">
        <ele>483</ele>
        <time>2019-09-11T09:57:24+00:00</time>
      </trkpt>
      <trkpt lat="43.316513061523" lon="-7.6271381378174">
        <ele>483</ele>
        <time>2019-09-11T09:57:25+00:00</time>
      </trkpt>
      <trkpt lat="43.316513061523" lon="-7.6271381378174">
        <ele>483</ele>
        <time>2019-09-11T09:57:26+00:00</time>
      </trkpt>
      <trkpt lat="43.316513061523" lon="-7.6271381378174">
        <ele>483</ele>
        <time>2019-09-11T09:57:27+00:00</time>
      </trkpt>
      <trkpt lat="43.316513061523" lon="-7.6271381378174">
        <ele>483</ele>
        <time>2019-09-11T09:57:28+00:00</time>
      </trkpt>
      <trkpt lat="43.316513061523" lon="-7.6271381378174">
        <ele>483</ele>
        <time>2019-09-11T09:57:29+00:00</time>
      </trkpt>
      <trkpt lat="43.316513061523" lon="-7.6271381378174">
        <ele>483</ele>
        <time>2019-09-11T09:57:30+00:00</time>
      </trkpt>
      <trkpt lat="43.316513061523" lon="-7.6271381378174">
        <ele>483</ele>
        <time>2019-09-11T09:57:31+00:00</time>
      </trkpt>
      <trkpt lat="43.316513061523" lon="-7.6271381378174">
        <ele>483</ele>
        <time>2019-09-11T09:57:32+00:00</time>
      </trkpt>
      <trkpt lat="43.316513061523" lon="-7.6271381378174">
        <ele>483</ele>
        <time>2019-09-11T09:57:33+00:00</time>
      </trkpt>
      <trkpt lat="43.316513061523" lon="-7.6271381378174">
        <ele>483</ele>
        <time>2019-09-11T09:57:34+00:00</time>
      </trkpt>
      <trkpt lat="43.316513061523" lon="-7.6271381378174">
        <ele>483</ele>
        <time>2019-09-11T09:57:35+00:00</time>
      </trkpt>
      <trkpt lat="43.316513061523" lon="-7.6271381378174">
        <ele>483</ele>
        <time>2019-09-11T09:57:36+00:00</time>
      </trkpt>
      <trkpt lat="43.316513061523" lon="-7.6271381378174">
        <ele>483</ele>
        <time>2019-09-11T09:57:37+00:00</time>
      </trkpt>
      <trkpt lat="43.316513061523" lon="-7.6271381378174">
        <ele>483</ele>
        <time>2019-09-11T09:57:38+00:00</time>
      </trkpt>
      <trkpt lat="43.316513061523" lon="-7.6271381378174">
        <ele>483</ele>
        <time>2019-09-11T09:57:39+00:00</time>
      </trkpt>
      <trkpt lat="43.316513061523" lon="-7.6271381378174">
        <ele>483</ele>
        <time>2019-09-11T09:57:40+00:00</time>
      </trkpt>
      <trkpt lat="43.316513061523" lon="-7.6271381378174">
        <ele>483</ele>
        <time>2019-09-11T09:57:41+00:00</time>
      </trkpt>
      <trkpt lat="43.316513061523" lon="-7.6271381378174">
        <ele>483</ele>
        <time>2019-09-11T09:57:42+00:00</time>
      </trkpt>
      <trkpt lat="43.316513061523" lon="-7.6271381378174">
        <ele>483</ele>
        <time>2019-09-11T09:57:43+00:00</time>
      </trkpt>
      <trkpt lat="43.316513061523" lon="-7.6271381378174">
        <ele>483</ele>
        <time>2019-09-11T09:57:44+00:00</time>
      </trkpt>
      <trkpt lat="43.316513061523" lon="-7.6271381378174">
        <ele>483</ele>
        <time>2019-09-11T09:57:45+00:00</time>
      </trkpt>
      <trkpt lat="43.316513061523" lon="-7.6271381378174">
        <ele>483</ele>
        <time>2019-09-11T09:57:46+00:00</time>
      </trkpt>
      <trkpt lat="43.316513061523" lon="-7.6271381378174">
        <ele>483</ele>
        <time>2019-09-11T09:57:47+00:00</time>
      </trkpt>
      <trkpt lat="43.316513061523" lon="-7.6271381378174">
        <ele>483</ele>
        <time>2019-09-11T09:57:48+00:00</time>
      </trkpt>
      <trkpt lat="43.316513061523" lon="-7.6271381378174">
        <ele>483</ele>
        <time>2019-09-11T09:57:49+00:00</time>
      </trkpt>
      <trkpt lat="43.316513061523" lon="-7.6271381378174">
        <ele>483</ele>
        <time>2019-09-11T09:57:50+00:00</time>
      </trkpt>
      <trkpt lat="43.316513061523" lon="-7.6271381378174">
        <ele>483</ele>
        <time>2019-09-11T09:57:51+00:00</time>
      </trkpt>
      <trkpt lat="43.316513061523" lon="-7.6271381378174">
        <ele>483</ele>
        <time>2019-09-11T09:57:52+00:00</time>
      </trkpt>
      <trkpt lat="43.316513061523" lon="-7.6271381378174">
        <ele>483</ele>
        <time>2019-09-11T09:57:53+00:00</time>
      </trkpt>
      <trkpt lat="43.316513061523" lon="-7.6271381378174">
        <ele>483</ele>
        <time>2019-09-11T09:57:54+00:00</time>
      </trkpt>
      <trkpt lat="43.316513061523" lon="-7.6271381378174">
        <ele>483</ele>
        <time>2019-09-11T09:57:55+00:00</time>
      </trkpt>
      <trkpt lat="43.316513061523" lon="-7.6271381378174">
        <ele>483</ele>
        <time>2019-09-11T09:57:56+00:00</time>
      </trkpt>
      <trkpt lat="43.316513061523" lon="-7.6271381378174">
        <ele>483</ele>
        <time>2019-09-11T09:57:57+00:00</time>
      </trkpt>
      <trkpt lat="43.316513061523" lon="-7.6271381378174">
        <ele>483</ele>
        <time>2019-09-11T09:57:58+00:00</time>
      </trkpt>
      <trkpt lat="43.316513061523" lon="-7.6271381378174">
        <ele>483</ele>
        <time>2019-09-11T09:57:59+00:00</time>
      </trkpt>
      <trkpt lat="43.316513061523" lon="-7.6271381378174">
        <ele>483</ele>
        <time>2019-09-11T09:58:00+00:00</time>
      </trkpt>
      <trkpt lat="43.316513061523" lon="-7.6271381378174">
        <ele>483</ele>
        <time>2019-09-11T09:58:01+00:00</time>
      </trkpt>
      <trkpt lat="43.316513061523" lon="-7.6271381378174">
        <ele>483</ele>
        <time>2019-09-11T09:58:02+00:00</time>
      </trkpt>
      <trkpt lat="43.316513061523" lon="-7.6271381378174">
        <ele>483</ele>
        <time>2019-09-11T09:58:03+00:00</time>
      </trkpt>
      <trkpt lat="43.316513061523" lon="-7.6271381378174">
        <ele>483</ele>
        <time>2019-09-11T09:58:04+00:00</time>
      </trkpt>
      <trkpt lat="43.316513061523" lon="-7.6271381378174">
        <ele>483</ele>
        <time>2019-09-11T09:58:05+00:00</time>
      </trkpt>
      <trkpt lat="43.316513061523" lon="-7.6271381378174">
        <ele>483</ele>
        <time>2019-09-11T09:58:06+00:00</time>
      </trkpt>
      <trkpt lat="43.316513061523" lon="-7.6271381378174">
        <ele>483</ele>
        <time>2019-09-11T09:58:07+00:00</time>
      </trkpt>
      <trkpt lat="43.316513061523" lon="-7.6271381378174">
        <ele>483</ele>
        <time>2019-09-11T09:58:08+00:00</time>
      </trkpt>
      <trkpt lat="43.316513061523" lon="-7.6271381378174">
        <ele>483</ele>
        <time>2019-09-11T09:58:09+00:00</time>
      </trkpt>
      <trkpt lat="43.316513061523" lon="-7.6271381378174">
        <ele>483</ele>
        <time>2019-09-11T09:58:10+00:00</time>
      </trkpt>
      <trkpt lat="43.316513061523" lon="-7.6271381378174">
        <ele>483</ele>
        <time>2019-09-11T09:58:11+00:00</time>
      </trkpt>
      <trkpt lat="43.316513061523" lon="-7.6271381378174">
        <ele>483</ele>
        <time>2019-09-11T09:58:12+00:00</time>
      </trkpt>
      <trkpt lat="43.316513061523" lon="-7.6271381378174">
        <ele>483</ele>
        <time>2019-09-11T09:58:13+00:00</time>
      </trkpt>
      <trkpt lat="43.316513061523" lon="-7.6271381378174">
        <ele>483</ele>
        <time>2019-09-11T09:58:14+00:00</time>
      </trkpt>
      <trkpt lat="43.316513061523" lon="-7.6271381378174">
        <ele>483</ele>
        <time>2019-09-11T09:58:15+00:00</time>
      </trkpt>
      <trkpt lat="43.316513061523" lon="-7.6271381378174">
        <ele>483</ele>
        <time>2019-09-11T09:58:16+00:00</time>
      </trkpt>
      <trkpt lat="43.316513061523" lon="-7.6271381378174">
        <ele>483</ele>
        <time>2019-09-11T09:58:17+00:00</time>
      </trkpt>
      <trkpt lat="43.316513061523" lon="-7.6271381378174">
        <ele>483</ele>
        <time>2019-09-11T09:58:18+00:00</time>
      </trkpt>
      <trkpt lat="43.316513061523" lon="-7.6271381378174">
        <ele>483</ele>
        <time>2019-09-11T09:58:19+00:00</time>
      </trkpt>
      <trkpt lat="43.316513061523" lon="-7.6271381378174">
        <ele>483</ele>
        <time>2019-09-11T09:58:20+00:00</time>
      </trkpt>
      <trkpt lat="43.316513061523" lon="-7.6271381378174">
        <ele>483</ele>
        <time>2019-09-11T09:58:21+00:00</time>
      </trkpt>
      <trkpt lat="43.316513061523" lon="-7.6271381378174">
        <ele>483</ele>
        <time>2019-09-11T09:58:22+00:00</time>
      </trkpt>
      <trkpt lat="43.316513061523" lon="-7.6271381378174">
        <ele>483</ele>
        <time>2019-09-11T09:58:23+00:00</time>
      </trkpt>
      <trkpt lat="43.316513061523" lon="-7.6271381378174">
        <ele>483</ele>
        <time>2019-09-11T09:58:24+00:00</time>
      </trkpt>
      <trkpt lat="43.316513061523" lon="-7.6271381378174">
        <ele>483</ele>
        <time>2019-09-11T09:58:25+00:00</time>
      </trkpt>
      <trkpt lat="43.316513061523" lon="-7.6271381378174">
        <ele>483</ele>
        <time>2019-09-11T09:58:26+00:00</time>
      </trkpt>
      <trkpt lat="43.316513061523" lon="-7.6271381378174">
        <ele>483</ele>
        <time>2019-09-11T09:58:27+00:00</time>
      </trkpt>
      <trkpt lat="43.316513061523" lon="-7.6271381378174">
        <ele>483</ele>
        <time>2019-09-11T09:58:28+00:00</time>
      </trkpt>
      <trkpt lat="43.316513061523" lon="-7.6271381378174">
        <ele>483</ele>
        <time>2019-09-11T09:58:29+00:00</time>
      </trkpt>
      <trkpt lat="43.316513061523" lon="-7.6271381378174">
        <ele>483</ele>
        <time>2019-09-11T09:58:30+00:00</time>
      </trkpt>
      <trkpt lat="43.316513061523" lon="-7.6271381378174">
        <ele>483</ele>
        <time>2019-09-11T09:58:31+00:00</time>
      </trkpt>
      <trkpt lat="43.316513061523" lon="-7.6271381378174">
        <ele>483</ele>
        <time>2019-09-11T09:58:32+00:00</time>
      </trkpt>
      <trkpt lat="43.316513061523" lon="-7.6271381378174">
        <ele>483</ele>
        <time>2019-09-11T09:58:33+00:00</time>
      </trkpt>
      <trkpt lat="43.316513061523" lon="-7.6271381378174">
        <ele>483</ele>
        <time>2019-09-11T09:58:34+00:00</time>
      </trkpt>
      <trkpt lat="43.316513061523" lon="-7.6271381378174">
        <ele>483</ele>
        <time>2019-09-11T09:58:35+00:00</time>
      </trkpt>
      <trkpt lat="43.316513061523" lon="-7.6271381378174">
        <ele>483</ele>
        <time>2019-09-11T09:58:36+00:00</time>
      </trkpt>
      <trkpt lat="43.316513061523" lon="-7.6271381378174">
        <ele>483</ele>
        <time>2019-09-11T09:58:37+00:00</time>
      </trkpt>
      <trkpt lat="43.316513061523" lon="-7.6271381378174">
        <ele>483</ele>
        <time>2019-09-11T09:58:38+00:00</time>
      </trkpt>
      <trkpt lat="43.316513061523" lon="-7.6271381378174">
        <ele>483</ele>
        <time>2019-09-11T09:58:39+00:00</time>
      </trkpt>
      <trkpt lat="43.316513061523" lon="-7.6271381378174">
        <ele>483</ele>
        <time>2019-09-11T09:58:40+00:00</time>
      </trkpt>
      <trkpt lat="43.316513061523" lon="-7.6271381378174">
        <ele>483</ele>
        <time>2019-09-11T09:58:41+00:00</time>
      </trkpt>
      <trkpt lat="43.316513061523" lon="-7.6271381378174">
        <ele>483</ele>
        <time>2019-09-11T09:58:42+00:00</time>
      </trkpt>
      <trkpt lat="43.316513061523" lon="-7.6271381378174">
        <ele>483</ele>
        <time>2019-09-11T09:58:43+00:00</time>
      </trkpt>
      <trkpt lat="43.316513061523" lon="-7.6271381378174">
        <ele>483</ele>
        <time>2019-09-11T09:58:44+00:00</time>
      </trkpt>
      <trkpt lat="43.316513061523" lon="-7.6271381378174">
        <ele>483</ele>
        <time>2019-09-11T09:58:45+00:00</time>
      </trkpt>
      <trkpt lat="43.316513061523" lon="-7.6271381378174">
        <ele>483</ele>
        <time>2019-09-11T09:58:46+00:00</time>
      </trkpt>
      <trkpt lat="43.316513061523" lon="-7.6271381378174">
        <ele>483</ele>
        <time>2019-09-11T09:58:47+00:00</time>
      </trkpt>
      <trkpt lat="43.316513061523" lon="-7.6271381378174">
        <ele>483</ele>
        <time>2019-09-11T09:58:48+00:00</time>
      </trkpt>
      <trkpt lat="43.316513061523" lon="-7.6271381378174">
        <ele>483</ele>
        <time>2019-09-11T09:58:49+00:00</time>
      </trkpt>
      <trkpt lat="43.316513061523" lon="-7.6271381378174">
        <ele>483</ele>
        <time>2019-09-11T09:58:50+00:00</time>
      </trkpt>
      <trkpt lat="43.316513061523" lon="-7.6271381378174">
        <ele>483</ele>
        <time>2019-09-11T09:58:51+00:00</time>
      </trkpt>
      <trkpt lat="43.316513061523" lon="-7.6271381378174">
        <ele>483</ele>
        <time>2019-09-11T09:58:52+00:00</time>
      </trkpt>
      <trkpt lat="43.316513061523" lon="-7.6271381378174">
        <ele>483</ele>
        <time>2019-09-11T09:58:53+00:00</time>
      </trkpt>
      <trkpt lat="43.316513061523" lon="-7.6271381378174">
        <ele>483</ele>
        <time>2019-09-11T09:58:54+00:00</time>
      </trkpt>
      <trkpt lat="43.316513061523" lon="-7.6271381378174">
        <ele>483</ele>
        <time>2019-09-11T09:58:55+00:00</time>
      </trkpt>
      <trkpt lat="43.316513061523" lon="-7.6271381378174">
        <ele>483</ele>
        <time>2019-09-11T09:58:56+00:00</time>
      </trkpt>
      <trkpt lat="43.316513061523" lon="-7.6271381378174">
        <ele>483</ele>
        <time>2019-09-11T09:58:57+00:00</time>
      </trkpt>
      <trkpt lat="43.316513061523" lon="-7.6271381378174">
        <ele>483</ele>
        <time>2019-09-11T09:58:58+00:00</time>
      </trkpt>
      <trkpt lat="43.316513061523" lon="-7.6271381378174">
        <ele>483</ele>
        <time>2019-09-11T09:58:59+00:00</time>
      </trkpt>
      <trkpt lat="43.316513061523" lon="-7.6271381378174">
        <ele>483</ele>
        <time>2019-09-11T09:59:00+00:00</time>
      </trkpt>
      <trkpt lat="43.316513061523" lon="-7.6271381378174">
        <ele>483</ele>
        <time>2019-09-11T09:59:01+00:00</time>
      </trkpt>
      <trkpt lat="43.316513061523" lon="-7.6271381378174">
        <ele>483</ele>
        <time>2019-09-11T09:59:02+00:00</time>
      </trkpt>
      <trkpt lat="43.316513061523" lon="-7.6271381378174">
        <ele>483</ele>
        <time>2019-09-11T09:59:03+00:00</time>
      </trkpt>
      <trkpt lat="43.316513061523" lon="-7.6271381378174">
        <ele>483</ele>
        <time>2019-09-11T09:59:04+00:00</time>
      </trkpt>
      <trkpt lat="43.316513061523" lon="-7.6271381378174">
        <ele>483</ele>
        <time>2019-09-11T09:59:05+00:00</time>
      </trkpt>
      <trkpt lat="43.316513061523" lon="-7.6271381378174">
        <ele>483</ele>
        <time>2019-09-11T09:59:06+00:00</time>
      </trkpt>
      <trkpt lat="43.316513061523" lon="-7.6271381378174">
        <ele>483</ele>
        <time>2019-09-11T09:59:07+00:00</time>
      </trkpt>
      <trkpt lat="43.316513061523" lon="-7.6271381378174">
        <ele>483</ele>
        <time>2019-09-11T09:59:08+00:00</time>
      </trkpt>
      <trkpt lat="43.316513061523" lon="-7.6271381378174">
        <ele>483</ele>
        <time>2019-09-11T09:59:09+00:00</time>
      </trkpt>
      <trkpt lat="43.316513061523" lon="-7.6271381378174">
        <ele>483</ele>
        <time>2019-09-11T09:59:10+00:00</time>
      </trkpt>
      <trkpt lat="43.316513061523" lon="-7.6271381378174">
        <ele>483</ele>
        <time>2019-09-11T09:59:11+00:00</time>
      </trkpt>
      <trkpt lat="43.316513061523" lon="-7.6271381378174">
        <ele>483</ele>
        <time>2019-09-11T09:59:12+00:00</time>
      </trkpt>
      <trkpt lat="43.316513061523" lon="-7.6271381378174">
        <ele>483</ele>
        <time>2019-09-11T09:59:13+00:00</time>
      </trkpt>
      <trkpt lat="43.316513061523" lon="-7.6271381378174">
        <ele>483</ele>
        <time>2019-09-11T09:59:14+00:00</time>
      </trkpt>
      <trkpt lat="43.316513061523" lon="-7.6271381378174">
        <ele>483</ele>
        <time>2019-09-11T09:59:15+00:00</time>
      </trkpt>
      <trkpt lat="43.316513061523" lon="-7.6271381378174">
        <ele>483</ele>
        <time>2019-09-11T09:59:16+00:00</time>
      </trkpt>
      <trkpt lat="43.316513061523" lon="-7.6271381378174">
        <ele>483</ele>
        <time>2019-09-11T09:59:17+00:00</time>
      </trkpt>
      <trkpt lat="43.316513061523" lon="-7.6271381378174">
        <ele>483</ele>
        <time>2019-09-11T09:59:18+00:00</time>
      </trkpt>
      <trkpt lat="43.316513061523" lon="-7.6271381378174">
        <ele>483</ele>
        <time>2019-09-11T09:59:19+00:00</time>
      </trkpt>
      <trkpt lat="43.316513061523" lon="-7.6271381378174">
        <ele>483</ele>
        <time>2019-09-11T09:59:20+00:00</time>
      </trkpt>
      <trkpt lat="43.316513061523" lon="-7.6271381378174">
        <ele>483</ele>
        <time>2019-09-11T09:59:21+00:00</time>
      </trkpt>
      <trkpt lat="43.316513061523" lon="-7.6271381378174">
        <ele>483</ele>
        <time>2019-09-11T09:59:22+00:00</time>
      </trkpt>
      <trkpt lat="43.316513061523" lon="-7.6271381378174">
        <ele>483</ele>
        <time>2019-09-11T09:59:23+00:00</time>
      </trkpt>
      <trkpt lat="43.316513061523" lon="-7.6271381378174">
        <ele>483</ele>
        <time>2019-09-11T09:59:24+00:00</time>
      </trkpt>
      <trkpt lat="43.316513061523" lon="-7.6271381378174">
        <ele>483</ele>
        <time>2019-09-11T09:59:25+00:00</time>
      </trkpt>
      <trkpt lat="43.316513061523" lon="-7.6271381378174">
        <ele>483</ele>
        <time>2019-09-11T09:59:26+00:00</time>
      </trkpt>
      <trkpt lat="43.316513061523" lon="-7.6271381378174">
        <ele>483</ele>
        <time>2019-09-11T09:59:27+00:00</time>
      </trkpt>
      <trkpt lat="43.316513061523" lon="-7.6271381378174">
        <ele>483</ele>
        <time>2019-09-11T09:59:28+00:00</time>
      </trkpt>
      <trkpt lat="43.316513061523" lon="-7.6271381378174">
        <ele>483</ele>
        <time>2019-09-11T09:59:29+00:00</time>
      </trkpt>
      <trkpt lat="43.316513061523" lon="-7.6271381378174">
        <ele>483</ele>
        <time>2019-09-11T09:59:30+00:00</time>
      </trkpt>
      <trkpt lat="43.316513061523" lon="-7.6271381378174">
        <ele>483</ele>
        <time>2019-09-11T09:59:31+00:00</time>
      </trkpt>
      <trkpt lat="43.316513061523" lon="-7.6271381378174">
        <ele>483</ele>
        <time>2019-09-11T09:59:32+00:00</time>
      </trkpt>
      <trkpt lat="43.316513061523" lon="-7.6271381378174">
        <ele>483</ele>
        <time>2019-09-11T09:59:33+00:00</time>
      </trkpt>
      <trkpt lat="43.316513061523" lon="-7.6271381378174">
        <ele>483</ele>
        <time>2019-09-11T09:59:34+00:00</time>
      </trkpt>
      <trkpt lat="43.316513061523" lon="-7.6271381378174">
        <ele>483</ele>
        <time>2019-09-11T09:59:35+00:00</time>
      </trkpt>
      <trkpt lat="43.316513061523" lon="-7.6271381378174">
        <ele>483</ele>
        <time>2019-09-11T09:59:36+00:00</time>
      </trkpt>
      <trkpt lat="43.316513061523" lon="-7.6271381378174">
        <ele>483</ele>
        <time>2019-09-11T09:59:37+00:00</time>
      </trkpt>
      <trkpt lat="43.316513061523" lon="-7.6271381378174">
        <ele>483</ele>
        <time>2019-09-11T09:59:38+00:00</time>
      </trkpt>
      <trkpt lat="43.316513061523" lon="-7.6271381378174">
        <ele>483</ele>
        <time>2019-09-11T09:59:39+00:00</time>
      </trkpt>
      <trkpt lat="43.316513061523" lon="-7.6271381378174">
        <ele>483</ele>
        <time>2019-09-11T09:59:40+00:00</time>
      </trkpt>
      <trkpt lat="43.316513061523" lon="-7.6271381378174">
        <ele>483</ele>
        <time>2019-09-11T09:59:41+00:00</time>
      </trkpt>
      <trkpt lat="43.316513061523" lon="-7.6271381378174">
        <ele>483</ele>
        <time>2019-09-11T09:59:42+00:00</time>
      </trkpt>
      <trkpt lat="43.316513061523" lon="-7.6271381378174">
        <ele>483</ele>
        <time>2019-09-11T09:59:43+00:00</time>
      </trkpt>
      <trkpt lat="43.316513061523" lon="-7.6271381378174">
        <ele>483</ele>
        <time>2019-09-11T09:59:44+00:00</time>
      </trkpt>
      <trkpt lat="43.316513061523" lon="-7.6271381378174">
        <ele>483</ele>
        <time>2019-09-11T09:59:45+00:00</time>
      </trkpt>
      <trkpt lat="43.316513061523" lon="-7.6271381378174">
        <ele>483</ele>
        <time>2019-09-11T09:59:46+00:00</time>
      </trkpt>
      <trkpt lat="43.316513061523" lon="-7.6271381378174">
        <ele>483</ele>
        <time>2019-09-11T09:59:47+00:00</time>
      </trkpt>
      <trkpt lat="43.316513061523" lon="-7.6271381378174">
        <ele>483</ele>
        <time>2019-09-11T09:59:48+00:00</time>
      </trkpt>
      <trkpt lat="43.316513061523" lon="-7.6271381378174">
        <ele>483</ele>
        <time>2019-09-11T09:59:49+00:00</time>
      </trkpt>
      <trkpt lat="43.316513061523" lon="-7.6271381378174">
        <ele>483</ele>
        <time>2019-09-11T09:59:50+00:00</time>
      </trkpt>
      <trkpt lat="43.316513061523" lon="-7.6271381378174">
        <ele>483</ele>
        <time>2019-09-11T09:59:51+00:00</time>
      </trkpt>
      <trkpt lat="43.316513061523" lon="-7.6271381378174">
        <ele>483</ele>
        <time>2019-09-11T09:59:52+00:00</time>
      </trkpt>
      <trkpt lat="43.316513061523" lon="-7.6271381378174">
        <ele>483</ele>
        <time>2019-09-11T09:59:53+00:00</time>
      </trkpt>
      <trkpt lat="43.316513061523" lon="-7.6271381378174">
        <ele>483</ele>
        <time>2019-09-11T09:59:54+00:00</time>
      </trkpt>
      <trkpt lat="43.316513061523" lon="-7.6271381378174">
        <ele>483</ele>
        <time>2019-09-11T09:59:55+00:00</time>
      </trkpt>
      <trkpt lat="43.316513061523" lon="-7.6271381378174">
        <ele>483</ele>
        <time>2019-09-11T09:59:56+00:00</time>
      </trkpt>
      <trkpt lat="43.316513061523" lon="-7.6271381378174">
        <ele>483</ele>
        <time>2019-09-11T09:59:57+00:00</time>
      </trkpt>
      <trkpt lat="43.316513061523" lon="-7.6271381378174">
        <ele>483</ele>
        <time>2019-09-11T09:59:58+00:00</time>
      </trkpt>
      <trkpt lat="43.316513061523" lon="-7.6271381378174">
        <ele>483</ele>
        <time>2019-09-11T09:59:59+00:00</time>
      </trkpt>
      <trkpt lat="43.316513061523" lon="-7.6271381378174">
        <ele>483</ele>
        <time>2019-09-11T10:00:00+00:00</time>
      </trkpt>
      <trkpt lat="43.316513061523" lon="-7.6270966529846">
        <ele>483</ele>
        <time>2019-09-11T10:00:01+00:00</time>
      </trkpt>
      <trkpt lat="43.316516876221" lon="-7.6270899772644">
        <ele>483</ele>
        <time>2019-09-11T10:00:02+00:00</time>
      </trkpt>
      <trkpt lat="43.316509246826" lon="-7.6270785331726">
        <ele>483</ele>
        <time>2019-09-11T10:00:03+00:00</time>
      </trkpt>
      <trkpt lat="43.316513061523" lon="-7.6270785331726">
        <ele>483</ele>
        <time>2019-09-11T10:00:04+00:00</time>
      </trkpt>
      <trkpt lat="43.316520690918" lon="-7.6270799636841">
        <ele>482</ele>
        <time>2019-09-11T10:00:05+00:00</time>
      </trkpt>
      <trkpt lat="43.316524505615" lon="-7.6270799636841">
        <ele>482</ele>
        <time>2019-09-11T10:00:06+00:00</time>
      </trkpt>
      <trkpt lat="43.316524505615" lon="-7.6270799636841">
        <ele>482</ele>
        <time>2019-09-11T10:00:07+00:00</time>
      </trkpt>
      <trkpt lat="43.316524505615" lon="-7.6270799636841">
        <ele>482</ele>
        <time>2019-09-11T10:00:08+00:00</time>
      </trkpt>
      <trkpt lat="43.316524505615" lon="-7.6270799636841">
        <ele>482</ele>
        <time>2019-09-11T10:00:09+00:00</time>
      </trkpt>
      <trkpt lat="43.316524505615" lon="-7.6270799636841">
        <ele>482</ele>
        <time>2019-09-11T10:00:10+00:00</time>
      </trkpt>
      <trkpt lat="43.316524505615" lon="-7.6270799636841">
        <ele>482</ele>
        <time>2019-09-11T10:00:11+00:00</time>
      </trkpt>
      <trkpt lat="43.316524505615" lon="-7.6270799636841">
        <ele>482</ele>
        <time>2019-09-11T10:00:12+00:00</time>
      </trkpt>
      <trkpt lat="43.316524505615" lon="-7.6270799636841">
        <ele>482</ele>
        <time>2019-09-11T10:00:13+00:00</time>
      </trkpt>
      <trkpt lat="43.316524505615" lon="-7.6270799636841">
        <ele>482</ele>
        <time>2019-09-11T10:00:14+00:00</time>
      </trkpt>
      <trkpt lat="43.316524505615" lon="-7.6270799636841">
        <ele>482</ele>
        <time>2019-09-11T10:00:15+00:00</time>
      </trkpt>
      <trkpt lat="43.316524505615" lon="-7.6270799636841">
        <ele>482</ele>
        <time>2019-09-11T10:00:16+00:00</time>
      </trkpt>
      <trkpt lat="43.316524505615" lon="-7.6270799636841">
        <ele>482</ele>
        <time>2019-09-11T10:00:17+00:00</time>
      </trkpt>
      <trkpt lat="43.316524505615" lon="-7.6270799636841">
        <ele>482</ele>
        <time>2019-09-11T10:00:18+00:00</time>
      </trkpt>
      <trkpt lat="43.316524505615" lon="-7.6270799636841">
        <ele>482</ele>
        <time>2019-09-11T10:00:19+00:00</time>
      </trkpt>
      <trkpt lat="43.316524505615" lon="-7.6270799636841">
        <ele>482</ele>
        <time>2019-09-11T10:00:20+00:00</time>
      </trkpt>
      <trkpt lat="43.316524505615" lon="-7.6270799636841">
        <ele>482</ele>
        <time>2019-09-11T10:00:21+00:00</time>
      </trkpt>
      <trkpt lat="43.316524505615" lon="-7.6270799636841">
        <ele>482</ele>
        <time>2019-09-11T10:00:22+00:00</time>
      </trkpt>
      <trkpt lat="43.316524505615" lon="-7.6270799636841">
        <ele>482</ele>
        <time>2019-09-11T10:00:23+00:00</time>
      </trkpt>
      <trkpt lat="43.316524505615" lon="-7.6270799636841">
        <ele>482</ele>
        <time>2019-09-11T10:00:24+00:00</time>
      </trkpt>
      <trkpt lat="43.316524505615" lon="-7.6270799636841">
        <ele>482</ele>
        <time>2019-09-11T10:00:25+00:00</time>
      </trkpt>
      <trkpt lat="43.316524505615" lon="-7.6270799636841">
        <ele>482</ele>
        <time>2019-09-11T10:00:26+00:00</time>
      </trkpt>
      <trkpt lat="43.316524505615" lon="-7.6270799636841">
        <ele>482</ele>
        <time>2019-09-11T10:00:27+00:00</time>
      </trkpt>
      <trkpt lat="43.316524505615" lon="-7.6270799636841">
        <ele>482</ele>
        <time>2019-09-11T10:00:28+00:00</time>
      </trkpt>
      <trkpt lat="43.316524505615" lon="-7.6270799636841">
        <ele>482</ele>
        <time>2019-09-11T10:00:29+00:00</time>
      </trkpt>
      <trkpt lat="43.316524505615" lon="-7.6270799636841">
        <ele>482</ele>
        <time>2019-09-11T10:00:30+00:00</time>
      </trkpt>
      <trkpt lat="43.316524505615" lon="-7.6270799636841">
        <ele>482</ele>
        <time>2019-09-11T10:00:31+00:00</time>
      </trkpt>
      <trkpt lat="43.316524505615" lon="-7.6270799636841">
        <ele>482</ele>
        <time>2019-09-11T10:00:32+00:00</time>
      </trkpt>
      <trkpt lat="43.316524505615" lon="-7.6270799636841">
        <ele>482</ele>
        <time>2019-09-11T10:00:33+00:00</time>
      </trkpt>
      <trkpt lat="43.316524505615" lon="-7.6270799636841">
        <ele>482</ele>
        <time>2019-09-11T10:00:34+00:00</time>
      </trkpt>
      <trkpt lat="43.316524505615" lon="-7.6270799636841">
        <ele>482</ele>
        <time>2019-09-11T10:00:35+00:00</time>
      </trkpt>
      <trkpt lat="43.316524505615" lon="-7.6270799636841">
        <ele>482</ele>
        <time>2019-09-11T10:00:36+00:00</time>
      </trkpt>
      <trkpt lat="43.316524505615" lon="-7.6270799636841">
        <ele>482</ele>
        <time>2019-09-11T10:00:37+00:00</time>
      </trkpt>
      <trkpt lat="43.316524505615" lon="-7.6270799636841">
        <ele>482</ele>
        <time>2019-09-11T10:00:38+00:00</time>
      </trkpt>
      <trkpt lat="43.316524505615" lon="-7.6270799636841">
        <ele>482</ele>
        <time>2019-09-11T10:00:39+00:00</time>
      </trkpt>
      <trkpt lat="43.316524505615" lon="-7.6270799636841">
        <ele>482</ele>
        <time>2019-09-11T10:00:40+00:00</time>
      </trkpt>
      <trkpt lat="43.316524505615" lon="-7.6270799636841">
        <ele>482</ele>
        <time>2019-09-11T10:00:41+00:00</time>
      </trkpt>
      <trkpt lat="43.316524505615" lon="-7.6270799636841">
        <ele>482</ele>
        <time>2019-09-11T10:00:42+00:00</time>
      </trkpt>
      <trkpt lat="43.316524505615" lon="-7.6270799636841">
        <ele>482</ele>
        <time>2019-09-11T10:00:43+00:00</time>
      </trkpt>
      <trkpt lat="43.316524505615" lon="-7.6270799636841">
        <ele>482</ele>
        <time>2019-09-11T10:00:44+00:00</time>
      </trkpt>
      <trkpt lat="43.316524505615" lon="-7.6270799636841">
        <ele>482</ele>
        <time>2019-09-11T10:00:45+00:00</time>
      </trkpt>
      <trkpt lat="43.316524505615" lon="-7.6270799636841">
        <ele>482</ele>
        <time>2019-09-11T10:00:46+00:00</time>
      </trkpt>
      <trkpt lat="43.316524505615" lon="-7.6270799636841">
        <ele>482</ele>
        <time>2019-09-11T10:00:47+00:00</time>
      </trkpt>
      <trkpt lat="43.316524505615" lon="-7.6270799636841">
        <ele>482</ele>
        <time>2019-09-11T10:00:48+00:00</time>
      </trkpt>
      <trkpt lat="43.316524505615" lon="-7.6270799636841">
        <ele>482</ele>
        <time>2019-09-11T10:00:49+00:00</time>
      </trkpt>
      <trkpt lat="43.316524505615" lon="-7.6270799636841">
        <ele>482</ele>
        <time>2019-09-11T10:00:50+00:00</time>
      </trkpt>
      <trkpt lat="43.316524505615" lon="-7.6270799636841">
        <ele>482</ele>
        <time>2019-09-11T10:00:51+00:00</time>
      </trkpt>
      <trkpt lat="43.316524505615" lon="-7.6270799636841">
        <ele>482</ele>
        <time>2019-09-11T10:00:52+00:00</time>
      </trkpt>
      <trkpt lat="43.316524505615" lon="-7.6270799636841">
        <ele>482</ele>
        <time>2019-09-11T10:00:53+00:00</time>
      </trkpt>
      <trkpt lat="43.316524505615" lon="-7.6270799636841">
        <ele>482</ele>
        <time>2019-09-11T10:00:54+00:00</time>
      </trkpt>
      <trkpt lat="43.316524505615" lon="-7.6270799636841">
        <ele>482</ele>
        <time>2019-09-11T10:00:55+00:00</time>
      </trkpt>
      <trkpt lat="43.316524505615" lon="-7.6270799636841">
        <ele>482</ele>
        <time>2019-09-11T10:00:56+00:00</time>
      </trkpt>
      <trkpt lat="43.316524505615" lon="-7.6270799636841">
        <ele>482</ele>
        <time>2019-09-11T10:00:57+00:00</time>
      </trkpt>
      <trkpt lat="43.316524505615" lon="-7.6270799636841">
        <ele>482</ele>
        <time>2019-09-11T10:00:58+00:00</time>
      </trkpt>
      <trkpt lat="43.316524505615" lon="-7.6270799636841">
        <ele>482</ele>
        <time>2019-09-11T10:00:59+00:00</time>
      </trkpt>
      <trkpt lat="43.316524505615" lon="-7.6270799636841">
        <ele>482</ele>
        <time>2019-09-11T10:01:00+00:00</time>
      </trkpt>
      <trkpt lat="43.316524505615" lon="-7.6270799636841">
        <ele>482</ele>
        <time>2019-09-11T10:01:01+00:00</time>
      </trkpt>
      <trkpt lat="43.316524505615" lon="-7.6270799636841">
        <ele>482</ele>
        <time>2019-09-11T10:01:02+00:00</time>
      </trkpt>
      <trkpt lat="43.316524505615" lon="-7.6270799636841">
        <ele>482</ele>
        <time>2019-09-11T10:01:03+00:00</time>
      </trkpt>
      <trkpt lat="43.316524505615" lon="-7.6270799636841">
        <ele>482</ele>
        <time>2019-09-11T10:01:04+00:00</time>
      </trkpt>
      <trkpt lat="43.316524505615" lon="-7.6270799636841">
        <ele>482</ele>
        <time>2019-09-11T10:01:05+00:00</time>
      </trkpt>
      <trkpt lat="43.316524505615" lon="-7.6270799636841">
        <ele>482</ele>
        <time>2019-09-11T10:01:06+00:00</time>
      </trkpt>
      <trkpt lat="43.316524505615" lon="-7.6270799636841">
        <ele>482</ele>
        <time>2019-09-11T10:01:07+00:00</time>
      </trkpt>
      <trkpt lat="43.316524505615" lon="-7.6270799636841">
        <ele>482</ele>
        <time>2019-09-11T10:01:08+00:00</time>
      </trkpt>
      <trkpt lat="43.316524505615" lon="-7.6270799636841">
        <ele>482</ele>
        <time>2019-09-11T10:01:09+00:00</time>
      </trkpt>
      <trkpt lat="43.316524505615" lon="-7.6270799636841">
        <ele>482</ele>
        <time>2019-09-11T10:01:10+00:00</time>
      </trkpt>
      <trkpt lat="43.316524505615" lon="-7.6270799636841">
        <ele>482</ele>
        <time>2019-09-11T10:01:11+00:00</time>
      </trkpt>
      <trkpt lat="43.316524505615" lon="-7.6270799636841">
        <ele>482</ele>
        <time>2019-09-11T10:01:12+00:00</time>
      </trkpt>
      <trkpt lat="43.316524505615" lon="-7.6270799636841">
        <ele>482</ele>
        <time>2019-09-11T10:01:13+00:00</time>
      </trkpt>
      <trkpt lat="43.316524505615" lon="-7.6270799636841">
        <ele>482</ele>
        <time>2019-09-11T10:01:14+00:00</time>
      </trkpt>
      <trkpt lat="43.316524505615" lon="-7.6270799636841">
        <ele>482</ele>
        <time>2019-09-11T10:01:15+00:00</time>
      </trkpt>
      <trkpt lat="43.316524505615" lon="-7.6270799636841">
        <ele>482</ele>
        <time>2019-09-11T10:01:16+00:00</time>
      </trkpt>
      <trkpt lat="43.316524505615" lon="-7.6270799636841">
        <ele>482</ele>
        <time>2019-09-11T10:01:17+00:00</time>
      </trkpt>
      <trkpt lat="43.316524505615" lon="-7.6270799636841">
        <ele>482</ele>
        <time>2019-09-11T10:01:18+00:00</time>
      </trkpt>
      <trkpt lat="43.316524505615" lon="-7.6270799636841">
        <ele>482</ele>
        <time>2019-09-11T10:01:19+00:00</time>
      </trkpt>
      <trkpt lat="43.316524505615" lon="-7.6270799636841">
        <ele>482</ele>
        <time>2019-09-11T10:01:20+00:00</time>
      </trkpt>
      <trkpt lat="43.316524505615" lon="-7.6270799636841">
        <ele>482</ele>
        <time>2019-09-11T10:01:21+00:00</time>
      </trkpt>
      <trkpt lat="43.316524505615" lon="-7.6270799636841">
        <ele>482</ele>
        <time>2019-09-11T10:01:22+00:00</time>
      </trkpt>
      <trkpt lat="43.316524505615" lon="-7.6270799636841">
        <ele>482</ele>
        <time>2019-09-11T10:01:23+00:00</time>
      </trkpt>
      <trkpt lat="43.316524505615" lon="-7.6270799636841">
        <ele>482</ele>
        <time>2019-09-11T10:01:24+00:00</time>
      </trkpt>
      <trkpt lat="43.316524505615" lon="-7.6270799636841">
        <ele>482</ele>
        <time>2019-09-11T10:01:25+00:00</time>
      </trkpt>
      <trkpt lat="43.316524505615" lon="-7.6270799636841">
        <ele>482</ele>
        <time>2019-09-11T10:01:26+00:00</time>
      </trkpt>
      <trkpt lat="43.316524505615" lon="-7.6270799636841">
        <ele>482</ele>
        <time>2019-09-11T10:01:27+00:00</time>
      </trkpt>
      <trkpt lat="43.316524505615" lon="-7.6270799636841">
        <ele>482</ele>
        <time>2019-09-11T10:01:28+00:00</time>
      </trkpt>
      <trkpt lat="43.316524505615" lon="-7.6270799636841">
        <ele>482</ele>
        <time>2019-09-11T10:01:29+00:00</time>
      </trkpt>
      <trkpt lat="43.316524505615" lon="-7.6270799636841">
        <ele>482</ele>
        <time>2019-09-11T10:01:30+00:00</time>
      </trkpt>
      <trkpt lat="43.316524505615" lon="-7.6270799636841">
        <ele>482</ele>
        <time>2019-09-11T10:01:31+00:00</time>
      </trkpt>
      <trkpt lat="43.316524505615" lon="-7.6270799636841">
        <ele>482</ele>
        <time>2019-09-11T10:01:32+00:00</time>
      </trkpt>
      <trkpt lat="43.316524505615" lon="-7.6270799636841">
        <ele>482</ele>
        <time>2019-09-11T10:01:33+00:00</time>
      </trkpt>
      <trkpt lat="43.316524505615" lon="-7.6270799636841">
        <ele>482</ele>
        <time>2019-09-11T10:01:34+00:00</time>
      </trkpt>
      <trkpt lat="43.316524505615" lon="-7.6270799636841">
        <ele>482</ele>
        <time>2019-09-11T10:01:35+00:00</time>
      </trkpt>
      <trkpt lat="43.316524505615" lon="-7.6270799636841">
        <ele>482</ele>
        <time>2019-09-11T10:01:36+00:00</time>
      </trkpt>
      <trkpt lat="43.316524505615" lon="-7.6270799636841">
        <ele>482</ele>
        <time>2019-09-11T10:01:37+00:00</time>
      </trkpt>
      <trkpt lat="43.316524505615" lon="-7.6270799636841">
        <ele>482</ele>
        <time>2019-09-11T10:01:38+00:00</time>
      </trkpt>
      <trkpt lat="43.316524505615" lon="-7.6270799636841">
        <ele>482</ele>
        <time>2019-09-11T10:01:39+00:00</time>
      </trkpt>
      <trkpt lat="43.316524505615" lon="-7.6270799636841">
        <ele>482</ele>
        <time>2019-09-11T10:01:40+00:00</time>
      </trkpt>
      <trkpt lat="43.316524505615" lon="-7.6270799636841">
        <ele>482</ele>
        <time>2019-09-11T10:01:41+00:00</time>
      </trkpt>
      <trkpt lat="43.316524505615" lon="-7.6270799636841">
        <ele>482</ele>
        <time>2019-09-11T10:01:42+00:00</time>
      </trkpt>
      <trkpt lat="43.316524505615" lon="-7.6270799636841">
        <ele>482</ele>
        <time>2019-09-11T10:01:43+00:00</time>
      </trkpt>
      <trkpt lat="43.316524505615" lon="-7.6270799636841">
        <ele>482</ele>
        <time>2019-09-11T10:01:44+00:00</time>
      </trkpt>
      <trkpt lat="43.316524505615" lon="-7.6270799636841">
        <ele>482</ele>
        <time>2019-09-11T10:01:45+00:00</time>
      </trkpt>
      <trkpt lat="43.316524505615" lon="-7.6270799636841">
        <ele>482</ele>
        <time>2019-09-11T10:01:46+00:00</time>
      </trkpt>
      <trkpt lat="43.316524505615" lon="-7.6270799636841">
        <ele>482</ele>
        <time>2019-09-11T10:01:47+00:00</time>
      </trkpt>
      <trkpt lat="43.316524505615" lon="-7.6270799636841">
        <ele>482</ele>
        <time>2019-09-11T10:01:48+00:00</time>
      </trkpt>
      <trkpt lat="43.316524505615" lon="-7.6270799636841">
        <ele>482</ele>
        <time>2019-09-11T10:01:49+00:00</time>
      </trkpt>
      <trkpt lat="43.316524505615" lon="-7.6270799636841">
        <ele>482</ele>
        <time>2019-09-11T10:01:50+00:00</time>
      </trkpt>
      <trkpt lat="43.316524505615" lon="-7.6270799636841">
        <ele>482</ele>
        <time>2019-09-11T10:01:51+00:00</time>
      </trkpt>
      <trkpt lat="43.316524505615" lon="-7.6270799636841">
        <ele>482</ele>
        <time>2019-09-11T10:01:52+00:00</time>
      </trkpt>
      <trkpt lat="43.316524505615" lon="-7.6270799636841">
        <ele>482</ele>
        <time>2019-09-11T10:01:53+00:00</time>
      </trkpt>
      <trkpt lat="43.316524505615" lon="-7.6270799636841">
        <ele>482</ele>
        <time>2019-09-11T10:01:54+00:00</time>
      </trkpt>
      <trkpt lat="43.316524505615" lon="-7.6270799636841">
        <ele>482</ele>
        <time>2019-09-11T10:01:55+00:00</time>
      </trkpt>
      <trkpt lat="43.316524505615" lon="-7.6270799636841">
        <ele>482</ele>
        <time>2019-09-11T10:01:56+00:00</time>
      </trkpt>
      <trkpt lat="43.316524505615" lon="-7.6270799636841">
        <ele>482</ele>
        <time>2019-09-11T10:01:57+00:00</time>
      </trkpt>
      <trkpt lat="43.316524505615" lon="-7.6270799636841">
        <ele>482</ele>
        <time>2019-09-11T10:01:58+00:00</time>
      </trkpt>
      <trkpt lat="43.316524505615" lon="-7.6270799636841">
        <ele>482</ele>
        <time>2019-09-11T10:01:59+00:00</time>
      </trkpt>
      <trkpt lat="43.316524505615" lon="-7.6270799636841">
        <ele>482</ele>
        <time>2019-09-11T10:02:00+00:00</time>
      </trkpt>
      <trkpt lat="43.316524505615" lon="-7.6270799636841">
        <ele>482</ele>
        <time>2019-09-11T10:02:01+00:00</time>
      </trkpt>
      <trkpt lat="43.316524505615" lon="-7.6270799636841">
        <ele>482</ele>
        <time>2019-09-11T10:02:02+00:00</time>
      </trkpt>
      <trkpt lat="43.316524505615" lon="-7.6270799636841">
        <ele>482</ele>
        <time>2019-09-11T10:02:03+00:00</time>
      </trkpt>
      <trkpt lat="43.316524505615" lon="-7.6270799636841">
        <ele>482</ele>
        <time>2019-09-11T10:02:04+00:00</time>
      </trkpt>
      <trkpt lat="43.316524505615" lon="-7.6270799636841">
        <ele>482</ele>
        <time>2019-09-11T10:02:05+00:00</time>
      </trkpt>
      <trkpt lat="43.316524505615" lon="-7.6270799636841">
        <ele>482</ele>
        <time>2019-09-11T10:02:06+00:00</time>
      </trkpt>
      <trkpt lat="43.316524505615" lon="-7.6270799636841">
        <ele>482</ele>
        <time>2019-09-11T10:02:07+00:00</time>
      </trkpt>
      <trkpt lat="43.316524505615" lon="-7.6270799636841">
        <ele>482</ele>
        <time>2019-09-11T10:02:08+00:00</time>
      </trkpt>
      <trkpt lat="43.316524505615" lon="-7.6270799636841">
        <ele>482</ele>
        <time>2019-09-11T10:02:09+00:00</time>
      </trkpt>
      <trkpt lat="43.316524505615" lon="-7.6270799636841">
        <ele>482</ele>
        <time>2019-09-11T10:02:10+00:00</time>
      </trkpt>
      <trkpt lat="43.316524505615" lon="-7.6270799636841">
        <ele>482</ele>
        <time>2019-09-11T10:02:11+00:00</time>
      </trkpt>
      <trkpt lat="43.316524505615" lon="-7.6270799636841">
        <ele>482</ele>
        <time>2019-09-11T10:02:12+00:00</time>
      </trkpt>
      <trkpt lat="43.316524505615" lon="-7.6270799636841">
        <ele>482</ele>
        <time>2019-09-11T10:02:13+00:00</time>
      </trkpt>
      <trkpt lat="43.316524505615" lon="-7.6270799636841">
        <ele>482</ele>
        <time>2019-09-11T10:02:14+00:00</time>
      </trkpt>
      <trkpt lat="43.316524505615" lon="-7.6270799636841">
        <ele>482</ele>
        <time>2019-09-11T10:02:15+00:00</time>
      </trkpt>
      <trkpt lat="43.316524505615" lon="-7.6270799636841">
        <ele>482</ele>
        <time>2019-09-11T10:02:16+00:00</time>
      </trkpt>
      <trkpt lat="43.316524505615" lon="-7.6270799636841">
        <ele>482</ele>
        <time>2019-09-11T10:02:17+00:00</time>
      </trkpt>
      <trkpt lat="43.316524505615" lon="-7.6270799636841">
        <ele>482</ele>
        <time>2019-09-11T10:02:18+00:00</time>
      </trkpt>
      <trkpt lat="43.316524505615" lon="-7.6270799636841">
        <ele>482</ele>
        <time>2019-09-11T10:02:19+00:00</time>
      </trkpt>
      <trkpt lat="43.316524505615" lon="-7.6270799636841">
        <ele>482</ele>
        <time>2019-09-11T10:02:20+00:00</time>
      </trkpt>
      <trkpt lat="43.316524505615" lon="-7.6270799636841">
        <ele>482</ele>
        <time>2019-09-11T10:02:21+00:00</time>
      </trkpt>
      <trkpt lat="43.316524505615" lon="-7.6270799636841">
        <ele>482</ele>
        <time>2019-09-11T10:02:22+00:00</time>
      </trkpt>
      <trkpt lat="43.316524505615" lon="-7.6270799636841">
        <ele>482</ele>
        <time>2019-09-11T10:02:23+00:00</time>
      </trkpt>
      <trkpt lat="43.316524505615" lon="-7.6270799636841">
        <ele>482</ele>
        <time>2019-09-11T10:02:24+00:00</time>
      </trkpt>
      <trkpt lat="43.316524505615" lon="-7.6270799636841">
        <ele>482</ele>
        <time>2019-09-11T10:02:25+00:00</time>
      </trkpt>
      <trkpt lat="43.316524505615" lon="-7.6270799636841">
        <ele>482</ele>
        <time>2019-09-11T10:02:26+00:00</time>
      </trkpt>
      <trkpt lat="43.316524505615" lon="-7.6270799636841">
        <ele>482</ele>
        <time>2019-09-11T10:02:27+00:00</time>
      </trkpt>
      <trkpt lat="43.316524505615" lon="-7.6270799636841">
        <ele>482</ele>
        <time>2019-09-11T10:02:28+00:00</time>
      </trkpt>
      <trkpt lat="43.316524505615" lon="-7.6270799636841">
        <ele>482</ele>
        <time>2019-09-11T10:02:29+00:00</time>
      </trkpt>
      <trkpt lat="43.316524505615" lon="-7.6270799636841">
        <ele>482</ele>
        <time>2019-09-11T10:02:30+00:00</time>
      </trkpt>
      <trkpt lat="43.316524505615" lon="-7.6270799636841">
        <ele>482</ele>
        <time>2019-09-11T10:02:31+00:00</time>
      </trkpt>
      <trkpt lat="43.316524505615" lon="-7.6270799636841">
        <ele>482</ele>
        <time>2019-09-11T10:02:32+00:00</time>
      </trkpt>
      <trkpt lat="43.316524505615" lon="-7.6270799636841">
        <ele>482</ele>
        <time>2019-09-11T10:02:33+00:00</time>
      </trkpt>
      <trkpt lat="43.316524505615" lon="-7.6270799636841">
        <ele>482</ele>
        <time>2019-09-11T10:02:34+00:00</time>
      </trkpt>
      <trkpt lat="43.316524505615" lon="-7.6270799636841">
        <ele>482</ele>
        <time>2019-09-11T10:02:35+00:00</time>
      </trkpt>
      <trkpt lat="43.316524505615" lon="-7.6270799636841">
        <ele>482</ele>
        <time>2019-09-11T10:02:36+00:00</time>
      </trkpt>
      <trkpt lat="43.316524505615" lon="-7.6270799636841">
        <ele>482</ele>
        <time>2019-09-11T10:02:37+00:00</time>
      </trkpt>
      <trkpt lat="43.316524505615" lon="-7.6270799636841">
        <ele>482</ele>
        <time>2019-09-11T10:02:38+00:00</time>
      </trkpt>
      <trkpt lat="43.316524505615" lon="-7.6270799636841">
        <ele>482</ele>
        <time>2019-09-11T10:02:39+00:00</time>
      </trkpt>
      <trkpt lat="43.316524505615" lon="-7.6270799636841">
        <ele>482</ele>
        <time>2019-09-11T10:02:40+00:00</time>
      </trkpt>
      <trkpt lat="43.316524505615" lon="-7.6270799636841">
        <ele>482</ele>
        <time>2019-09-11T10:02:41+00:00</time>
      </trkpt>
      <trkpt lat="43.316524505615" lon="-7.6270799636841">
        <ele>482</ele>
        <time>2019-09-11T10:02:42+00:00</time>
      </trkpt>
      <trkpt lat="43.316524505615" lon="-7.6270799636841">
        <ele>482</ele>
        <time>2019-09-11T10:02:43+00:00</time>
      </trkpt>
      <trkpt lat="43.316524505615" lon="-7.6270799636841">
        <ele>482</ele>
        <time>2019-09-11T10:02:44+00:00</time>
      </trkpt>
      <trkpt lat="43.316524505615" lon="-7.6270799636841">
        <ele>482</ele>
        <time>2019-09-11T10:02:45+00:00</time>
      </trkpt>
      <trkpt lat="43.316524505615" lon="-7.6270799636841">
        <ele>482</ele>
        <time>2019-09-11T10:02:46+00:00</time>
      </trkpt>
      <trkpt lat="43.316524505615" lon="-7.6270799636841">
        <ele>482</ele>
        <time>2019-09-11T10:02:47+00:00</time>
      </trkpt>
      <trkpt lat="43.316524505615" lon="-7.6270799636841">
        <ele>482</ele>
        <time>2019-09-11T10:02:48+00:00</time>
      </trkpt>
      <trkpt lat="43.316524505615" lon="-7.6270799636841">
        <ele>482</ele>
        <time>2019-09-11T10:02:49+00:00</time>
      </trkpt>
      <trkpt lat="43.316524505615" lon="-7.6270799636841">
        <ele>482</ele>
        <time>2019-09-11T10:02:50+00:00</time>
      </trkpt>
      <trkpt lat="43.316524505615" lon="-7.6270799636841">
        <ele>482</ele>
        <time>2019-09-11T10:02:51+00:00</time>
      </trkpt>
      <trkpt lat="43.316524505615" lon="-7.6270799636841">
        <ele>482</ele>
        <time>2019-09-11T10:02:52+00:00</time>
      </trkpt>
      <trkpt lat="43.316524505615" lon="-7.6270799636841">
        <ele>482</ele>
        <time>2019-09-11T10:02:53+00:00</time>
      </trkpt>
      <trkpt lat="43.316524505615" lon="-7.6270799636841">
        <ele>482</ele>
        <time>2019-09-11T10:02:54+00:00</time>
      </trkpt>
      <trkpt lat="43.316524505615" lon="-7.6270799636841">
        <ele>482</ele>
        <time>2019-09-11T10:02:55+00:00</time>
      </trkpt>
      <trkpt lat="43.316524505615" lon="-7.6270799636841">
        <ele>482</ele>
        <time>2019-09-11T10:02:56+00:00</time>
      </trkpt>
      <trkpt lat="43.316524505615" lon="-7.6270799636841">
        <ele>482</ele>
        <time>2019-09-11T10:02:57+00:00</time>
      </trkpt>
      <trkpt lat="43.316524505615" lon="-7.6270799636841">
        <ele>482</ele>
        <time>2019-09-11T10:02:58+00:00</time>
      </trkpt>
      <trkpt lat="43.316524505615" lon="-7.6270799636841">
        <ele>482</ele>
        <time>2019-09-11T10:02:59+00:00</time>
      </trkpt>
      <trkpt lat="43.316524505615" lon="-7.6270799636841">
        <ele>482</ele>
        <time>2019-09-11T10:03:00+00:00</time>
      </trkpt>
      <trkpt lat="43.316524505615" lon="-7.6270799636841">
        <ele>482</ele>
        <time>2019-09-11T10:03:01+00:00</time>
      </trkpt>
      <trkpt lat="43.316524505615" lon="-7.6270799636841">
        <ele>482</ele>
        <time>2019-09-11T10:03:02+00:00</time>
      </trkpt>
      <trkpt lat="43.316524505615" lon="-7.6270799636841">
        <ele>482</ele>
        <time>2019-09-11T10:03:03+00:00</time>
      </trkpt>
      <trkpt lat="43.316524505615" lon="-7.6270799636841">
        <ele>482</ele>
        <time>2019-09-11T10:03:04+00:00</time>
      </trkpt>
      <trkpt lat="43.316501617432" lon="-7.6271548271179">
        <ele>484</ele>
        <time>2019-09-11T10:03:05+00:00</time>
      </trkpt>
      <trkpt lat="43.316509246826" lon="-7.6271514892578">
        <ele>484</ele>
        <time>2019-09-11T10:03:06+00:00</time>
      </trkpt>
      <trkpt lat="43.316509246826" lon="-7.6271467208862">
        <ele>484</ele>
        <time>2019-09-11T10:03:07+00:00</time>
      </trkpt>
      <trkpt lat="43.316513061523" lon="-7.6271367073059">
        <ele>484</ele>
        <time>2019-09-11T10:03:08+00:00</time>
      </trkpt>
      <trkpt lat="43.316513061523" lon="-7.6271300315857">
        <ele>484</ele>
        <time>2019-09-11T10:03:09+00:00</time>
      </trkpt>
      <trkpt lat="43.316513061523" lon="-7.6271300315857">
        <ele>484</ele>
        <time>2019-09-11T10:03:10+00:00</time>
      </trkpt>
      <trkpt lat="43.316513061523" lon="-7.6271300315857">
        <ele>484</ele>
        <time>2019-09-11T10:03:11+00:00</time>
      </trkpt>
      <trkpt lat="43.316513061523" lon="-7.6271300315857">
        <ele>484</ele>
        <time>2019-09-11T10:03:12+00:00</time>
      </trkpt>
      <trkpt lat="43.316513061523" lon="-7.6271300315857">
        <ele>484</ele>
        <time>2019-09-11T10:03:13+00:00</time>
      </trkpt>
      <trkpt lat="43.316513061523" lon="-7.6271300315857">
        <ele>484</ele>
        <time>2019-09-11T10:03:14+00:00</time>
      </trkpt>
      <trkpt lat="43.316513061523" lon="-7.6271300315857">
        <ele>484</ele>
        <time>2019-09-11T10:03:15+00:00</time>
      </trkpt>
      <trkpt lat="43.316513061523" lon="-7.6271300315857">
        <ele>484</ele>
        <time>2019-09-11T10:03:16+00:00</time>
      </trkpt>
      <trkpt lat="43.316493988037" lon="-7.6270718574524">
        <ele>484</ele>
        <time>2019-09-11T10:03:17+00:00</time>
      </trkpt>
      <trkpt lat="43.316493988037" lon="-7.6270632743835">
        <ele>484</ele>
        <time>2019-09-11T10:03:18+00:00</time>
      </trkpt>
      <trkpt lat="43.31649017334" lon="-7.6270565986633">
        <ele>484</ele>
        <time>2019-09-11T10:03:19+00:00</time>
      </trkpt>
      <trkpt lat="43.31649017334" lon="-7.6270499229431">
        <ele>484</ele>
        <time>2019-09-11T10:03:20+00:00</time>
      </trkpt>
      <trkpt lat="43.316486358643" lon="-7.6270418167114">
        <ele>484</ele>
        <time>2019-09-11T10:03:21+00:00</time>
      </trkpt>
      <trkpt lat="43.316482543945" lon="-7.6270351409912">
        <ele>484</ele>
        <time>2019-09-11T10:03:22+00:00</time>
      </trkpt>
      <trkpt lat="43.316474914551" lon="-7.627028465271">
        <ele>484</ele>
        <time>2019-09-11T10:03:23+00:00</time>
      </trkpt>
      <trkpt lat="43.316467285156" lon="-7.6270232200623">
        <ele>484</ele>
        <time>2019-09-11T10:03:24+00:00</time>
      </trkpt>
      <trkpt lat="43.316463470459" lon="-7.6270151138306">
        <ele>484</ele>
        <time>2019-09-11T10:03:25+00:00</time>
      </trkpt>
      <trkpt lat="43.316455841064" lon="-7.6270084381104">
        <ele>484</ele>
        <time>2019-09-11T10:03:26+00:00</time>
      </trkpt>
      <trkpt lat="43.31644821167" lon="-7.6269998550415">
        <ele>484</ele>
        <time>2019-09-11T10:03:27+00:00</time>
      </trkpt>
      <trkpt lat="43.316436767578" lon="-7.6269917488098">
        <ele>484</ele>
        <time>2019-09-11T10:03:28+00:00</time>
      </trkpt>
      <trkpt lat="43.316421508789" lon="-7.62699842453">
        <ele>484</ele>
        <time>2019-09-11T10:03:29+00:00</time>
      </trkpt>
      <trkpt lat="43.316410064697" lon="-7.6270031929016">
        <ele>484</ele>
        <time>2019-09-11T10:03:30+00:00</time>
      </trkpt>
      <trkpt lat="43.316394805908" lon="-7.6270151138306">
        <ele>484</ele>
        <time>2019-09-11T10:03:31+00:00</time>
      </trkpt>
      <trkpt lat="43.316387176514" lon="-7.6270198822021">
        <ele>484</ele>
        <time>2019-09-11T10:03:32+00:00</time>
      </trkpt>
      <trkpt lat="43.316371917725" lon="-7.6270318031311">
        <ele>484</ele>
        <time>2019-09-11T10:03:33+00:00</time>
      </trkpt>
      <trkpt lat="43.316368103027" lon="-7.6270532608032">
        <ele>484</ele>
        <time>2019-09-11T10:03:34+00:00</time>
      </trkpt>
      <trkpt lat="43.316368103027" lon="-7.6270685195923">
        <ele>484</ele>
        <time>2019-09-11T10:03:35+00:00</time>
      </trkpt>
      <trkpt lat="43.316368103027" lon="-7.6270732879639">
        <ele>484</ele>
        <time>2019-09-11T10:03:36+00:00</time>
      </trkpt>
      <trkpt lat="43.31636428833" lon="-7.6270751953125">
        <ele>485</ele>
        <time>2019-09-11T10:03:37+00:00</time>
      </trkpt>
      <trkpt lat="43.316360473633" lon="-7.627076625824">
        <ele>485</ele>
        <time>2019-09-11T10:03:38+00:00</time>
      </trkpt>
      <trkpt lat="43.316360473633" lon="-7.6270799636841">
        <ele>485</ele>
        <time>2019-09-11T10:03:39+00:00</time>
      </trkpt>
      <trkpt lat="43.316356658936" lon="-7.6270718574524">
        <ele>484</ele>
        <time>2019-09-11T10:03:40+00:00</time>
      </trkpt>
      <trkpt lat="43.316352844238" lon="-7.6270651817322">
        <ele>484</ele>
        <time>2019-09-11T10:03:41+00:00</time>
      </trkpt>
      <trkpt lat="43.316349029541" lon="-7.6270632743835">
        <ele>484</ele>
        <time>2019-09-11T10:03:42+00:00</time>
      </trkpt>
      <trkpt lat="43.316349029541" lon="-7.6270599365234">
        <ele>484</ele>
        <time>2019-09-11T10:03:43+00:00</time>
      </trkpt>
      <trkpt lat="43.316349029541" lon="-7.6270565986633">
        <ele>484</ele>
        <time>2019-09-11T10:03:44+00:00</time>
      </trkpt>
      <trkpt lat="43.316349029541" lon="-7.6270532608032">
        <ele>484</ele>
        <time>2019-09-11T10:03:45+00:00</time>
      </trkpt>
      <trkpt lat="43.316349029541" lon="-7.627046585083">
        <ele>484</ele>
        <time>2019-09-11T10:03:46+00:00</time>
      </trkpt>
      <trkpt lat="43.316345214844" lon="-7.6270418167114">
        <ele>484</ele>
        <time>2019-09-11T10:03:47+00:00</time>
      </trkpt>
      <trkpt lat="43.316341400146" lon="-7.6270332336426">
        <ele>484</ele>
        <time>2019-09-11T10:03:48+00:00</time>
      </trkpt>
      <trkpt lat="43.316341400146" lon="-7.6270351409912">
        <ele>484</ele>
        <time>2019-09-11T10:03:49+00:00</time>
      </trkpt>
      <trkpt lat="43.316341400146" lon="-7.6270351409912">
        <ele>484</ele>
        <time>2019-09-11T10:03:50+00:00</time>
      </trkpt>
      <trkpt lat="43.316341400146" lon="-7.6270351409912">
        <ele>484</ele>
        <time>2019-09-11T10:03:51+00:00</time>
      </trkpt>
      <trkpt lat="43.316341400146" lon="-7.6270351409912">
        <ele>484</ele>
        <time>2019-09-11T10:03:52+00:00</time>
      </trkpt>
      <trkpt lat="43.316341400146" lon="-7.6270351409912">
        <ele>484</ele>
        <time>2019-09-11T10:03:53+00:00</time>
      </trkpt>
      <trkpt lat="43.316341400146" lon="-7.6270351409912">
        <ele>484</ele>
        <time>2019-09-11T10:03:54+00:00</time>
      </trkpt>
      <trkpt lat="43.316341400146" lon="-7.6270351409912">
        <ele>484</ele>
        <time>2019-09-11T10:03:55+00:00</time>
      </trkpt>
      <trkpt lat="43.316341400146" lon="-7.6270351409912">
        <ele>484</ele>
        <time>2019-09-11T10:03:56+00:00</time>
      </trkpt>
      <trkpt lat="43.316341400146" lon="-7.6270351409912">
        <ele>484</ele>
        <time>2019-09-11T10:03:57+00:00</time>
      </trkpt>
      <trkpt lat="43.316265106201" lon="-7.6270384788513">
        <ele>484</ele>
        <time>2019-09-11T10:03:58+00:00</time>
      </trkpt>
      <trkpt lat="43.316265106201" lon="-7.6270432472229">
        <ele>484</ele>
        <time>2019-09-11T10:03:59+00:00</time>
      </trkpt>
      <trkpt lat="43.316261291504" lon="-7.6270499229431">
        <ele>484</ele>
        <time>2019-09-11T10:04:00+00:00</time>
      </trkpt>
      <trkpt lat="43.316253662109" lon="-7.6270532608032">
        <ele>484</ele>
        <time>2019-09-11T10:04:01+00:00</time>
      </trkpt>
      <trkpt lat="43.316253662109" lon="-7.6270618438721">
        <ele>484</ele>
        <time>2019-09-11T10:04:02+00:00</time>
      </trkpt>
      <trkpt lat="43.316253662109" lon="-7.6270618438721">
        <ele>484</ele>
        <time>2019-09-11T10:04:03+00:00</time>
      </trkpt>
      <trkpt lat="43.316253662109" lon="-7.6270618438721">
        <ele>484</ele>
        <time>2019-09-11T10:04:04+00:00</time>
      </trkpt>
      <trkpt lat="43.316253662109" lon="-7.6270618438721">
        <ele>484</ele>
        <time>2019-09-11T10:04:05+00:00</time>
      </trkpt>
      <trkpt lat="43.316253662109" lon="-7.6270618438721">
        <ele>484</ele>
        <time>2019-09-11T10:04:06+00:00</time>
      </trkpt>
      <trkpt lat="43.316253662109" lon="-7.6270618438721">
        <ele>484</ele>
        <time>2019-09-11T10:04:07+00:00</time>
      </trkpt>
      <trkpt lat="43.316253662109" lon="-7.6270618438721">
        <ele>484</ele>
        <time>2019-09-11T10:04:08+00:00</time>
      </trkpt>
      <trkpt lat="43.316253662109" lon="-7.6270618438721">
        <ele>484</ele>
        <time>2019-09-11T10:04:09+00:00</time>
      </trkpt>
      <trkpt lat="43.316253662109" lon="-7.6270618438721">
        <ele>484</ele>
        <time>2019-09-11T10:04:10+00:00</time>
      </trkpt>
      <trkpt lat="43.316253662109" lon="-7.6270618438721">
        <ele>484</ele>
        <time>2019-09-11T10:04:11+00:00</time>
      </trkpt>
      <trkpt lat="43.316253662109" lon="-7.6270618438721">
        <ele>484</ele>
        <time>2019-09-11T10:04:12+00:00</time>
      </trkpt>
      <trkpt lat="43.316253662109" lon="-7.6270618438721">
        <ele>484</ele>
        <time>2019-09-11T10:04:13+00:00</time>
      </trkpt>
      <trkpt lat="43.316253662109" lon="-7.6270618438721">
        <ele>484</ele>
        <time>2019-09-11T10:04:14+00:00</time>
      </trkpt>
      <trkpt lat="43.316253662109" lon="-7.6270618438721">
        <ele>484</ele>
        <time>2019-09-11T10:04:15+00:00</time>
      </trkpt>
      <trkpt lat="43.316253662109" lon="-7.6270618438721">
        <ele>484</ele>
        <time>2019-09-11T10:04:16+00:00</time>
      </trkpt>
      <trkpt lat="43.316253662109" lon="-7.6270618438721">
        <ele>484</ele>
        <time>2019-09-11T10:04:17+00:00</time>
      </trkpt>
      <trkpt lat="43.316253662109" lon="-7.6270618438721">
        <ele>484</ele>
        <time>2019-09-11T10:04:18+00:00</time>
      </trkpt>
      <trkpt lat="43.316253662109" lon="-7.6270618438721">
        <ele>484</ele>
        <time>2019-09-11T10:04:19+00:00</time>
      </trkpt>
      <trkpt lat="43.316253662109" lon="-7.6270618438721">
        <ele>484</ele>
        <time>2019-09-11T10:04:20+00:00</time>
      </trkpt>
      <trkpt lat="43.316253662109" lon="-7.6270618438721">
        <ele>484</ele>
        <time>2019-09-11T10:04:21+00:00</time>
      </trkpt>
      <trkpt lat="43.316253662109" lon="-7.6270618438721">
        <ele>484</ele>
        <time>2019-09-11T10:04:22+00:00</time>
      </trkpt>
      <trkpt lat="43.316253662109" lon="-7.6270618438721">
        <ele>484</ele>
        <time>2019-09-11T10:04:23+00:00</time>
      </trkpt>
      <trkpt lat="43.316253662109" lon="-7.6270618438721">
        <ele>484</ele>
        <time>2019-09-11T10:04:24+00:00</time>
      </trkpt>
      <trkpt lat="43.316318511963" lon="-7.62699842453">
        <ele>484</ele>
        <time>2019-09-11T10:04:25+00:00</time>
      </trkpt>
      <trkpt lat="43.316326141357" lon="-7.6269884109497">
        <ele>484</ele>
        <time>2019-09-11T10:04:26+00:00</time>
      </trkpt>
      <trkpt lat="43.316337585449" lon="-7.626983165741">
        <ele>484</ele>
        <time>2019-09-11T10:04:27+00:00</time>
      </trkpt>
      <trkpt lat="43.316356658936" lon="-7.6269817352295">
        <ele>483</ele>
        <time>2019-09-11T10:04:28+00:00</time>
      </trkpt>
      <trkpt lat="43.316368103027" lon="-7.6269798278809">
        <ele>483</ele>
        <time>2019-09-11T10:04:29+00:00</time>
      </trkpt>
      <trkpt lat="43.316368103027" lon="-7.6269783973694">
        <ele>483</ele>
        <time>2019-09-11T10:04:30+00:00</time>
      </trkpt>
      <trkpt lat="43.316383361816" lon="-7.6269798278809">
        <ele>482</ele>
        <time>2019-09-11T10:04:31+00:00</time>
      </trkpt>
      <trkpt lat="43.316390991211" lon="-7.6269783973694">
        <ele>482</ele>
        <time>2019-09-11T10:04:32+00:00</time>
      </trkpt>
      <trkpt lat="43.316410064697" lon="-7.6269884109497">
        <ele>482</ele>
        <time>2019-09-11T10:04:33+00:00</time>
      </trkpt>
      <trkpt lat="43.316421508789" lon="-7.6269898414612">
        <ele>482</ele>
        <time>2019-09-11T10:04:34+00:00</time>
      </trkpt>
      <trkpt lat="43.316432952881" lon="-7.6269965171814">
        <ele>482</ele>
        <time>2019-09-11T10:04:35+00:00</time>
      </trkpt>
      <trkpt lat="43.316444396973" lon="-7.6270117759705">
        <ele>482</ele>
        <time>2019-09-11T10:04:36+00:00</time>
      </trkpt>
      <trkpt lat="43.316452026367" lon="-7.6270198822021">
        <ele>483</ele>
        <time>2019-09-11T10:04:37+00:00</time>
      </trkpt>
      <trkpt lat="43.316467285156" lon="-7.6270251274109">
        <ele>483</ele>
        <time>2019-09-11T10:04:38+00:00</time>
      </trkpt>
      <trkpt lat="43.316471099854" lon="-7.6270332336426">
        <ele>483</ele>
        <time>2019-09-11T10:04:39+00:00</time>
      </trkpt>
      <trkpt lat="43.316474914551" lon="-7.627046585083">
        <ele>483</ele>
        <time>2019-09-11T10:04:40+00:00</time>
      </trkpt>
      <trkpt lat="43.316478729248" lon="-7.6270532608032">
        <ele>483</ele>
        <time>2019-09-11T10:04:41+00:00</time>
      </trkpt>
      <trkpt lat="43.316486358643" lon="-7.6270599365234">
        <ele>482</ele>
        <time>2019-09-11T10:04:42+00:00</time>
      </trkpt>
      <trkpt lat="43.316493988037" lon="-7.6270699501038">
        <ele>483</ele>
        <time>2019-09-11T10:04:43+00:00</time>
      </trkpt>
      <trkpt lat="43.316497802734" lon="-7.627076625824">
        <ele>483</ele>
        <time>2019-09-11T10:04:44+00:00</time>
      </trkpt>
      <trkpt lat="43.316501617432" lon="-7.6270799636841">
        <ele>483</ele>
        <time>2019-09-11T10:04:45+00:00</time>
      </trkpt>
      <trkpt lat="43.316501617432" lon="-7.6270785331726">
        <ele>483</ele>
        <time>2019-09-11T10:04:46+00:00</time>
      </trkpt>
      <trkpt lat="43.316501617432" lon="-7.6270751953125">
        <ele>484</ele>
        <time>2019-09-11T10:04:47+00:00</time>
      </trkpt>
      <trkpt lat="43.316497802734" lon="-7.6270718574524">
        <ele>484</ele>
        <time>2019-09-11T10:04:48+00:00</time>
      </trkpt>
      <trkpt lat="43.316497802734" lon="-7.627076625824">
        <ele>484</ele>
        <time>2019-09-11T10:04:49+00:00</time>
      </trkpt>
      <trkpt lat="43.316501617432" lon="-7.6270818710327">
        <ele>484</ele>
        <time>2019-09-11T10:04:50+00:00</time>
      </trkpt>
      <trkpt lat="43.316501617432" lon="-7.6270885467529">
        <ele>484</ele>
        <time>2019-09-11T10:04:51+00:00</time>
      </trkpt>
      <trkpt lat="43.316505432129" lon="-7.6270952224731">
        <ele>484</ele>
        <time>2019-09-11T10:04:52+00:00</time>
      </trkpt>
      <trkpt lat="43.316509246826" lon="-7.6270985603333">
        <ele>484</ele>
        <time>2019-09-11T10:04:53+00:00</time>
      </trkpt>
      <trkpt lat="43.316513061523" lon="-7.6270985603333">
        <ele>485</ele>
        <time>2019-09-11T10:04:54+00:00</time>
      </trkpt>
      <trkpt lat="43.316513061523" lon="-7.6270966529846">
        <ele>485</ele>
        <time>2019-09-11T10:04:55+00:00</time>
      </trkpt>
      <trkpt lat="43.316513061523" lon="-7.6270966529846">
        <ele>485</ele>
        <time>2019-09-11T10:04:56+00:00</time>
      </trkpt>
      <trkpt lat="43.316513061523" lon="-7.6270966529846">
        <ele>485</ele>
        <time>2019-09-11T10:04:57+00:00</time>
      </trkpt>
      <trkpt lat="43.316513061523" lon="-7.6270966529846">
        <ele>485</ele>
        <time>2019-09-11T10:04:58+00:00</time>
      </trkpt>
      <trkpt lat="43.316535949707" lon="-7.6271033287048">
        <ele>485</ele>
        <time>2019-09-11T10:04:59+00:00</time>
      </trkpt>
      <trkpt lat="43.316539764404" lon="-7.6271052360535">
        <ele>485</ele>
        <time>2019-09-11T10:05:00+00:00</time>
      </trkpt>
      <trkpt lat="43.316539764404" lon="-7.6271052360535">
        <ele>485</ele>
        <time>2019-09-11T10:05:01+00:00</time>
      </trkpt>
      <trkpt lat="43.316543579102" lon="-7.6270999908447">
        <ele>485</ele>
        <time>2019-09-11T10:05:02+00:00</time>
      </trkpt>
      <trkpt lat="43.316543579102" lon="-7.6270999908447">
        <ele>485</ele>
        <time>2019-09-11T10:05:03+00:00</time>
      </trkpt>
      <trkpt lat="43.316543579102" lon="-7.6270999908447">
        <ele>485</ele>
        <time>2019-09-11T10:05:04+00:00</time>
      </trkpt>
      <trkpt lat="43.316543579102" lon="-7.6270999908447">
        <ele>485</ele>
        <time>2019-09-11T10:05:05+00:00</time>
      </trkpt>
      <trkpt lat="43.316543579102" lon="-7.6270999908447">
        <ele>485</ele>
        <time>2019-09-11T10:05:06+00:00</time>
      </trkpt>
      <trkpt lat="43.316543579102" lon="-7.6270999908447">
        <ele>485</ele>
        <time>2019-09-11T10:05:07+00:00</time>
      </trkpt>
      <trkpt lat="43.316543579102" lon="-7.6270999908447">
        <ele>485</ele>
        <time>2019-09-11T10:05:08+00:00</time>
      </trkpt>
      <trkpt lat="43.316543579102" lon="-7.6270999908447">
        <ele>485</ele>
        <time>2019-09-11T10:05:09+00:00</time>
      </trkpt>
      <trkpt lat="43.316543579102" lon="-7.6270999908447">
        <ele>485</ele>
        <time>2019-09-11T10:05:10+00:00</time>
      </trkpt>
      <trkpt lat="43.316543579102" lon="-7.6270999908447">
        <ele>485</ele>
        <time>2019-09-11T10:05:11+00:00</time>
      </trkpt>
      <trkpt lat="43.316543579102" lon="-7.6270999908447">
        <ele>485</ele>
        <time>2019-09-11T10:05:12+00:00</time>
      </trkpt>
      <trkpt lat="43.316543579102" lon="-7.6270999908447">
        <ele>485</ele>
        <time>2019-09-11T10:05:13+00:00</time>
      </trkpt>
      <trkpt lat="43.316543579102" lon="-7.6270999908447">
        <ele>485</ele>
        <time>2019-09-11T10:05:14+00:00</time>
      </trkpt>
      <trkpt lat="43.316543579102" lon="-7.6270999908447">
        <ele>485</ele>
        <time>2019-09-11T10:05:15+00:00</time>
      </trkpt>
      <trkpt lat="43.316543579102" lon="-7.6270999908447">
        <ele>485</ele>
        <time>2019-09-11T10:05:16+00:00</time>
      </trkpt>
      <trkpt lat="43.316543579102" lon="-7.6270999908447">
        <ele>485</ele>
        <time>2019-09-11T10:05:17+00:00</time>
      </trkpt>
      <trkpt lat="43.316543579102" lon="-7.6270999908447">
        <ele>485</ele>
        <time>2019-09-11T10:05:18+00:00</time>
      </trkpt>
      <trkpt lat="43.316543579102" lon="-7.6270999908447">
        <ele>485</ele>
        <time>2019-09-11T10:05:19+00:00</time>
      </trkpt>
      <trkpt lat="43.316543579102" lon="-7.6270999908447">
        <ele>485</ele>
        <time>2019-09-11T10:05:20+00:00</time>
      </trkpt>
      <trkpt lat="43.316543579102" lon="-7.6270999908447">
        <ele>485</ele>
        <time>2019-09-11T10:05:21+00:00</time>
      </trkpt>
      <trkpt lat="43.316543579102" lon="-7.6270999908447">
        <ele>485</ele>
        <time>2019-09-11T10:05:22+00:00</time>
      </trkpt>
      <trkpt lat="43.316543579102" lon="-7.6270999908447">
        <ele>485</ele>
        <time>2019-09-11T10:05:23+00:00</time>
      </trkpt>
      <trkpt lat="43.316543579102" lon="-7.6270999908447">
        <ele>485</ele>
        <time>2019-09-11T10:05:24+00:00</time>
      </trkpt>
      <trkpt lat="43.316543579102" lon="-7.6270999908447">
        <ele>485</ele>
        <time>2019-09-11T10:05:25+00:00</time>
      </trkpt>
      <trkpt lat="43.316543579102" lon="-7.6270999908447">
        <ele>485</ele>
        <time>2019-09-11T10:05:26+00:00</time>
      </trkpt>
      <trkpt lat="43.316543579102" lon="-7.6270999908447">
        <ele>485</ele>
        <time>2019-09-11T10:05:27+00:00</time>
      </trkpt>
      <trkpt lat="43.316543579102" lon="-7.6270999908447">
        <ele>485</ele>
        <time>2019-09-11T10:05:28+00:00</time>
      </trkpt>
      <trkpt lat="43.316543579102" lon="-7.6270999908447">
        <ele>485</ele>
        <time>2019-09-11T10:05:29+00:00</time>
      </trkpt>
      <trkpt lat="43.316543579102" lon="-7.6270999908447">
        <ele>485</ele>
        <time>2019-09-11T10:05:30+00:00</time>
      </trkpt>
      <trkpt lat="43.316543579102" lon="-7.6270999908447">
        <ele>485</ele>
        <time>2019-09-11T10:05:31+00:00</time>
      </trkpt>
      <trkpt lat="43.316543579102" lon="-7.6270999908447">
        <ele>485</ele>
        <time>2019-09-11T10:05:32+00:00</time>
      </trkpt>
      <trkpt lat="43.316543579102" lon="-7.6270999908447">
        <ele>485</ele>
        <time>2019-09-11T10:05:33+00:00</time>
      </trkpt>
      <trkpt lat="43.316543579102" lon="-7.6270999908447">
        <ele>485</ele>
        <time>2019-09-11T10:05:34+00:00</time>
      </trkpt>
      <trkpt lat="43.316543579102" lon="-7.6270999908447">
        <ele>485</ele>
        <time>2019-09-11T10:05:35+00:00</time>
      </trkpt>
      <trkpt lat="43.316543579102" lon="-7.6270999908447">
        <ele>485</ele>
        <time>2019-09-11T10:05:38+00:00</time>
      </trkpt>
      <trkpt lat="43.316543579102" lon="-7.6270999908447">
        <ele>485</ele>
        <time>2019-09-11T10:05:39+00:00</time>
      </trkpt>
      <trkpt lat="43.316543579102" lon="-7.6270999908447">
        <ele>485</ele>
        <time>2019-09-11T10:05:40+00:00</time>
      </trkpt>
      <trkpt lat="43.316543579102" lon="-7.6270999908447">
        <ele>485</ele>
        <time>2019-09-11T10:05:41+00:00</time>
      </trkpt>
      <trkpt lat="43.316543579102" lon="-7.6270999908447">
        <ele>485</ele>
        <time>2019-09-11T10:05:42+00:00</time>
      </trkpt>
      <trkpt lat="43.316543579102" lon="-7.6270999908447">
        <ele>485</ele>
        <time>2019-09-11T10:05:43+00:00</time>
      </trkpt>
      <trkpt lat="43.316543579102" lon="-7.6270999908447">
        <ele>485</ele>
        <time>2019-09-11T10:05:44+00:00</time>
      </trkpt>
      <trkpt lat="43.316543579102" lon="-7.6270999908447">
        <ele>485</ele>
        <time>2019-09-11T10:05:45+00:00</time>
      </trkpt>
      <trkpt lat="43.316543579102" lon="-7.6270999908447">
        <ele>485</ele>
        <time>2019-09-11T10:05:46+00:00</time>
      </trkpt>
      <trkpt lat="43.316543579102" lon="-7.6270999908447">
        <ele>485</ele>
        <time>2019-09-11T10:05:47+00:00</time>
      </trkpt>
      <trkpt lat="43.316543579102" lon="-7.6270999908447">
        <ele>485</ele>
        <time>2019-09-11T10:05:48+00:00</time>
      </trkpt>
      <trkpt lat="43.316543579102" lon="-7.6270999908447">
        <ele>485</ele>
        <time>2019-09-11T10:05:49+00:00</time>
      </trkpt>
      <trkpt lat="43.316543579102" lon="-7.6270999908447">
        <ele>485</ele>
        <time>2019-09-11T10:05:50+00:00</time>
      </trkpt>
      <trkpt lat="43.316543579102" lon="-7.6270999908447">
        <ele>485</ele>
        <time>2019-09-11T10:05:51+00:00</time>
      </trkpt>
      <trkpt lat="43.316543579102" lon="-7.6270999908447">
        <ele>485</ele>
        <time>2019-09-11T10:05:52+00:00</time>
      </trkpt>
      <trkpt lat="43.316543579102" lon="-7.6270999908447">
        <ele>485</ele>
        <time>2019-09-11T10:05:53+00:00</time>
      </trkpt>
      <trkpt lat="43.316543579102" lon="-7.6270999908447">
        <ele>485</ele>
        <time>2019-09-11T10:05:54+00:00</time>
      </trkpt>
      <trkpt lat="43.316543579102" lon="-7.6270999908447">
        <ele>485</ele>
        <time>2019-09-11T10:05:55+00:00</time>
      </trkpt>
      <trkpt lat="43.316543579102" lon="-7.6270999908447">
        <ele>485</ele>
        <time>2019-09-11T10:05:56+00:00</time>
      </trkpt>
      <trkpt lat="43.316543579102" lon="-7.6270999908447">
        <ele>485</ele>
        <time>2019-09-11T10:05:57+00:00</time>
      </trkpt>
      <trkpt lat="43.316543579102" lon="-7.6270999908447">
        <ele>485</ele>
        <time>2019-09-11T10:05:58+00:00</time>
      </trkpt>
      <trkpt lat="43.316543579102" lon="-7.6270999908447">
        <ele>485</ele>
        <time>2019-09-11T10:05:59+00:00</time>
      </trkpt>
      <trkpt lat="43.316543579102" lon="-7.6270999908447">
        <ele>485</ele>
        <time>2019-09-11T10:06:00+00:00</time>
      </trkpt>
      <trkpt lat="43.316543579102" lon="-7.6270999908447">
        <ele>485</ele>
        <time>2019-09-11T10:06:01+00:00</time>
      </trkpt>
      <trkpt lat="43.316543579102" lon="-7.6270999908447">
        <ele>485</ele>
        <time>2019-09-11T10:06:02+00:00</time>
      </trkpt>
      <trkpt lat="43.316543579102" lon="-7.6270999908447">
        <ele>485</ele>
        <time>2019-09-11T10:06:03+00:00</time>
      </trkpt>
      <trkpt lat="43.316543579102" lon="-7.6270999908447">
        <ele>485</ele>
        <time>2019-09-11T10:06:04+00:00</time>
      </trkpt>
      <trkpt lat="43.316543579102" lon="-7.6270999908447">
        <ele>485</ele>
        <time>2019-09-11T10:06:05+00:00</time>
      </trkpt>
      <trkpt lat="43.316543579102" lon="-7.6270999908447">
        <ele>485</ele>
        <time>2019-09-11T10:06:06+00:00</time>
      </trkpt>
      <trkpt lat="43.316543579102" lon="-7.6270999908447">
        <ele>485</ele>
        <time>2019-09-11T10:06:07+00:00</time>
      </trkpt>
      <trkpt lat="43.316543579102" lon="-7.6270999908447">
        <ele>485</ele>
        <time>2019-09-11T10:06:08+00:00</time>
      </trkpt>
      <trkpt lat="43.316543579102" lon="-7.6270999908447">
        <ele>485</ele>
        <time>2019-09-11T10:06:09+00:00</time>
      </trkpt>
      <trkpt lat="43.316543579102" lon="-7.6270999908447">
        <ele>485</ele>
        <time>2019-09-11T10:06:10+00:00</time>
      </trkpt>
      <trkpt lat="43.316543579102" lon="-7.6270999908447">
        <ele>485</ele>
        <time>2019-09-11T10:06:11+00:00</time>
      </trkpt>
      <trkpt lat="43.316543579102" lon="-7.6270999908447">
        <ele>485</ele>
        <time>2019-09-11T10:06:12+00:00</time>
      </trkpt>
      <trkpt lat="43.316543579102" lon="-7.6270999908447">
        <ele>485</ele>
        <time>2019-09-11T10:06:13+00:00</time>
      </trkpt>
      <trkpt lat="43.316543579102" lon="-7.6270999908447">
        <ele>485</ele>
        <time>2019-09-11T10:06:14+00:00</time>
      </trkpt>
      <trkpt lat="43.316543579102" lon="-7.6270999908447">
        <ele>485</ele>
        <time>2019-09-11T10:06:15+00:00</time>
      </trkpt>
      <trkpt lat="43.316543579102" lon="-7.6270999908447">
        <ele>485</ele>
        <time>2019-09-11T10:06:16+00:00</time>
      </trkpt>
      <trkpt lat="43.316543579102" lon="-7.6270999908447">
        <ele>485</ele>
        <time>2019-09-11T10:06:17+00:00</time>
      </trkpt>
      <trkpt lat="43.316543579102" lon="-7.6270999908447">
        <ele>485</ele>
        <time>2019-09-11T10:06:18+00:00</time>
      </trkpt>
      <trkpt lat="43.316543579102" lon="-7.6270999908447">
        <ele>485</ele>
        <time>2019-09-11T10:06:19+00:00</time>
      </trkpt>
      <trkpt lat="43.316543579102" lon="-7.6270999908447">
        <ele>485</ele>
        <time>2019-09-11T10:06:20+00:00</time>
      </trkpt>
      <trkpt lat="43.316543579102" lon="-7.6270999908447">
        <ele>485</ele>
        <time>2019-09-11T10:06:21+00:00</time>
      </trkpt>
      <trkpt lat="43.316543579102" lon="-7.6270999908447">
        <ele>485</ele>
        <time>2019-09-11T10:06:22+00:00</time>
      </trkpt>
      <trkpt lat="43.316543579102" lon="-7.6270999908447">
        <ele>485</ele>
        <time>2019-09-11T10:06:23+00:00</time>
      </trkpt>
      <trkpt lat="43.316543579102" lon="-7.6270999908447">
        <ele>485</ele>
        <time>2019-09-11T10:06:24+00:00</time>
      </trkpt>
      <trkpt lat="43.316543579102" lon="-7.6270999908447">
        <ele>485</ele>
        <time>2019-09-11T10:06:25+00:00</time>
      </trkpt>
      <trkpt lat="43.316543579102" lon="-7.6270999908447">
        <ele>485</ele>
        <time>2019-09-11T10:06:26+00:00</time>
      </trkpt>
      <trkpt lat="43.316543579102" lon="-7.6270999908447">
        <ele>485</ele>
        <time>2019-09-11T10:06:27+00:00</time>
      </trkpt>
      <trkpt lat="43.316543579102" lon="-7.6270999908447">
        <ele>485</ele>
        <time>2019-09-11T10:06:28+00:00</time>
      </trkpt>
      <trkpt lat="43.316543579102" lon="-7.6270999908447">
        <ele>485</ele>
        <time>2019-09-11T10:06:29+00:00</time>
      </trkpt>
      <trkpt lat="43.316543579102" lon="-7.6270999908447">
        <ele>485</ele>
        <time>2019-09-11T10:06:30+00:00</time>
      </trkpt>
      <trkpt lat="43.316543579102" lon="-7.6270999908447">
        <ele>485</ele>
        <time>2019-09-11T10:06:31+00:00</time>
      </trkpt>
      <trkpt lat="43.316543579102" lon="-7.6270999908447">
        <ele>485</ele>
        <time>2019-09-11T10:06:32+00:00</time>
      </trkpt>
      <trkpt lat="43.316543579102" lon="-7.6270999908447">
        <ele>485</ele>
        <time>2019-09-11T10:06:33+00:00</time>
      </trkpt>
      <trkpt lat="43.316543579102" lon="-7.6270999908447">
        <ele>485</ele>
        <time>2019-09-11T10:06:34+00:00</time>
      </trkpt>
      <trkpt lat="43.316543579102" lon="-7.6270999908447">
        <ele>485</ele>
        <time>2019-09-11T10:06:35+00:00</time>
      </trkpt>
      <trkpt lat="43.316543579102" lon="-7.6270999908447">
        <ele>485</ele>
        <time>2019-09-11T10:06:36+00:00</time>
      </trkpt>
      <trkpt lat="43.316543579102" lon="-7.6270999908447">
        <ele>485</ele>
        <time>2019-09-11T10:06:37+00:00</time>
      </trkpt>
      <trkpt lat="43.316543579102" lon="-7.6270999908447">
        <ele>485</ele>
        <time>2019-09-11T10:06:38+00:00</time>
      </trkpt>
      <trkpt lat="43.316543579102" lon="-7.6270999908447">
        <ele>485</ele>
        <time>2019-09-11T10:06:39+00:00</time>
      </trkpt>
      <trkpt lat="43.316543579102" lon="-7.6270999908447">
        <ele>485</ele>
        <time>2019-09-11T10:06:40+00:00</time>
      </trkpt>
      <trkpt lat="43.316543579102" lon="-7.6270999908447">
        <ele>485</ele>
        <time>2019-09-11T10:06:41+00:00</time>
      </trkpt>
      <trkpt lat="43.316516876221" lon="-7.6271147727966">
        <ele>484</ele>
        <time>2019-09-11T10:06:42+00:00</time>
      </trkpt>
      <trkpt lat="43.316524505615" lon="-7.6271114349365">
        <ele>484</ele>
        <time>2019-09-11T10:06:43+00:00</time>
      </trkpt>
      <trkpt lat="43.316528320312" lon="-7.6271052360535">
        <ele>484</ele>
        <time>2019-09-11T10:06:44+00:00</time>
      </trkpt>
      <trkpt lat="43.316535949707" lon="-7.6270952224731">
        <ele>484</ele>
        <time>2019-09-11T10:06:45+00:00</time>
      </trkpt>
      <trkpt lat="43.316539764404" lon="-7.6270866394043">
        <ele>484</ele>
        <time>2019-09-11T10:06:46+00:00</time>
      </trkpt>
      <trkpt lat="43.316543579102" lon="-7.6270718574524">
        <ele>484</ele>
        <time>2019-09-11T10:06:47+00:00</time>
      </trkpt>
      <trkpt lat="43.316547393799" lon="-7.627058506012">
        <ele>484</ele>
        <time>2019-09-11T10:06:48+00:00</time>
      </trkpt>
      <trkpt lat="43.316551208496" lon="-7.6270499229431">
        <ele>484</ele>
        <time>2019-09-11T10:06:49+00:00</time>
      </trkpt>
      <trkpt lat="43.316555023193" lon="-7.6270418167114">
        <ele>484</ele>
        <time>2019-09-11T10:06:50+00:00</time>
      </trkpt>
      <trkpt lat="43.316562652588" lon="-7.6270332336426">
        <ele>484</ele>
        <time>2019-09-11T10:06:51+00:00</time>
      </trkpt>
      <trkpt lat="43.31657409668" lon="-7.6270251274109">
        <ele>484</ele>
        <time>2019-09-11T10:06:52+00:00</time>
      </trkpt>
      <trkpt lat="43.316581726074" lon="-7.627016544342">
        <ele>484</ele>
        <time>2019-09-11T10:06:53+00:00</time>
      </trkpt>
      <trkpt lat="43.316593170166" lon="-7.6270065307617">
        <ele>484</ele>
        <time>2019-09-11T10:06:54+00:00</time>
      </trkpt>
      <trkpt lat="43.316604614258" lon="-7.6270017623901">
        <ele>484</ele>
        <time>2019-09-11T10:06:55+00:00</time>
      </trkpt>
      <trkpt lat="43.31661605835" lon="-7.6269965171814">
        <ele>484</ele>
        <time>2019-09-11T10:06:56+00:00</time>
      </trkpt>
      <trkpt lat="43.316627502441" lon="-7.6269898414612">
        <ele>484</ele>
        <time>2019-09-11T10:06:57+00:00</time>
      </trkpt>
      <trkpt lat="43.316635131836" lon="-7.6269865036011">
        <ele>484</ele>
        <time>2019-09-11T10:06:58+00:00</time>
      </trkpt>
      <trkpt lat="43.316646575928" lon="-7.626983165741">
        <ele>485</ele>
        <time>2019-09-11T10:06:59+00:00</time>
      </trkpt>
      <trkpt lat="43.316654205322" lon="-7.6269798278809">
        <ele>485</ele>
        <time>2019-09-11T10:07:00+00:00</time>
      </trkpt>
      <trkpt lat="43.316665649414" lon="-7.6269764900208">
        <ele>485</ele>
        <time>2019-09-11T10:07:01+00:00</time>
      </trkpt>
      <trkpt lat="43.316677093506" lon="-7.6269683837891">
        <ele>485</ele>
        <time>2019-09-11T10:07:02+00:00</time>
      </trkpt>
      <trkpt lat="43.316692352295" lon="-7.6269631385803">
        <ele>485</ele>
        <time>2019-09-11T10:07:03+00:00</time>
      </trkpt>
      <trkpt lat="43.316699981689" lon="-7.626953125">
        <ele>485</ele>
        <time>2019-09-11T10:07:04+00:00</time>
      </trkpt>
      <trkpt lat="43.316711425781" lon="-7.6269450187683">
        <ele>485</ele>
        <time>2019-09-11T10:07:05+00:00</time>
      </trkpt>
      <trkpt lat="43.316719055176" lon="-7.6269383430481">
        <ele>485</ele>
        <time>2019-09-11T10:07:06+00:00</time>
      </trkpt>
      <trkpt lat="43.31672668457" lon="-7.6269249916077">
        <ele>485</ele>
        <time>2019-09-11T10:07:07+00:00</time>
      </trkpt>
      <trkpt lat="43.316738128662" lon="-7.6269083023071">
        <ele>485</ele>
        <time>2019-09-11T10:07:08+00:00</time>
      </trkpt>
      <trkpt lat="43.316753387451" lon="-7.6268916130066">
        <ele>485</ele>
        <time>2019-09-11T10:07:09+00:00</time>
      </trkpt>
      <trkpt lat="43.316761016846" lon="-7.6268815994263">
        <ele>486</ele>
        <time>2019-09-11T10:07:10+00:00</time>
      </trkpt>
      <trkpt lat="43.31676864624" lon="-7.6268715858459">
        <ele>486</ele>
        <time>2019-09-11T10:07:11+00:00</time>
      </trkpt>
      <trkpt lat="43.316780090332" lon="-7.6268649101257">
        <ele>486</ele>
        <time>2019-09-11T10:07:12+00:00</time>
      </trkpt>
      <trkpt lat="43.316787719727" lon="-7.6268582344055">
        <ele>486</ele>
        <time>2019-09-11T10:07:13+00:00</time>
      </trkpt>
      <trkpt lat="43.316795349121" lon="-7.6268582344055">
        <ele>486</ele>
        <time>2019-09-11T10:07:14+00:00</time>
      </trkpt>
      <trkpt lat="43.316802978516" lon="-7.626856803894">
        <ele>486</ele>
        <time>2019-09-11T10:07:15+00:00</time>
      </trkpt>
      <trkpt lat="43.31681060791" lon="-7.6268534660339">
        <ele>486</ele>
        <time>2019-09-11T10:07:16+00:00</time>
      </trkpt>
      <trkpt lat="43.316818237305" lon="-7.6268501281738">
        <ele>486</ele>
        <time>2019-09-11T10:07:17+00:00</time>
      </trkpt>
      <trkpt lat="43.316822052002" lon="-7.6268434524536">
        <ele>486</ele>
        <time>2019-09-11T10:07:18+00:00</time>
      </trkpt>
      <trkpt lat="43.316825866699" lon="-7.6268348693848">
        <ele>486</ele>
        <time>2019-09-11T10:07:19+00:00</time>
      </trkpt>
      <trkpt lat="43.316814422607" lon="-7.6268267631531">
        <ele>486</ele>
        <time>2019-09-11T10:07:20+00:00</time>
      </trkpt>
      <trkpt lat="43.316814422607" lon="-7.626811504364">
        <ele>486</ele>
        <time>2019-09-11T10:07:21+00:00</time>
      </trkpt>
      <trkpt lat="43.316818237305" lon="-7.6268033981323">
        <ele>486</ele>
        <time>2019-09-11T10:07:22+00:00</time>
      </trkpt>
      <trkpt lat="43.316814422607" lon="-7.6268014907837">
        <ele>486</ele>
        <time>2019-09-11T10:07:23+00:00</time>
      </trkpt>
      <trkpt lat="43.316818237305" lon="-7.6267981529236">
        <ele>485</ele>
        <time>2019-09-11T10:07:24+00:00</time>
      </trkpt>
      <trkpt lat="43.316822052002" lon="-7.6267900466919">
        <ele>485</ele>
        <time>2019-09-11T10:07:25+00:00</time>
      </trkpt>
      <trkpt lat="43.316829681396" lon="-7.6267833709717">
        <ele>485</ele>
        <time>2019-09-11T10:07:26+00:00</time>
      </trkpt>
      <trkpt lat="43.316833496094" lon="-7.6267733573914">
        <ele>485</ele>
        <time>2019-09-11T10:07:27+00:00</time>
      </trkpt>
      <trkpt lat="43.316837310791" lon="-7.6267614364624">
        <ele>485</ele>
        <time>2019-09-11T10:07:28+00:00</time>
      </trkpt>
      <trkpt lat="43.316856384277" lon="-7.6267518997192">
        <ele>485</ele>
        <time>2019-09-11T10:07:29+00:00</time>
      </trkpt>
      <trkpt lat="43.316867828369" lon="-7.6267333030701">
        <ele>485</ele>
        <time>2019-09-11T10:07:30+00:00</time>
      </trkpt>
      <trkpt lat="43.316871643066" lon="-7.6267218589783">
        <ele>486</ele>
        <time>2019-09-11T10:07:31+00:00</time>
      </trkpt>
      <trkpt lat="43.316890716553" lon="-7.6267066001892">
        <ele>486</ele>
        <time>2019-09-11T10:07:33+00:00</time>
      </trkpt>
      <trkpt lat="43.316902160645" lon="-7.6266984939575">
        <ele>486</ele>
        <time>2019-09-11T10:07:34+00:00</time>
      </trkpt>
      <trkpt lat="43.316909790039" lon="-7.6266899108887">
        <ele>486</ele>
        <time>2019-09-11T10:07:35+00:00</time>
      </trkpt>
      <trkpt lat="43.316925048828" lon="-7.6266832351685">
        <ele>486</ele>
        <time>2019-09-11T10:07:36+00:00</time>
      </trkpt>
      <trkpt lat="43.31693649292" lon="-7.6266765594482">
        <ele>486</ele>
        <time>2019-09-11T10:07:37+00:00</time>
      </trkpt>
      <trkpt lat="43.316940307617" lon="-7.626669883728">
        <ele>485</ele>
        <time>2019-09-11T10:07:38+00:00</time>
      </trkpt>
      <trkpt lat="43.316947937012" lon="-7.6266665458679">
        <ele>485</ele>
        <time>2019-09-11T10:07:39+00:00</time>
      </trkpt>
      <trkpt lat="43.316951751709" lon="-7.6266617774963">
        <ele>485</ele>
        <time>2019-09-11T10:07:40+00:00</time>
      </trkpt>
      <trkpt lat="43.316955566406" lon="-7.6266584396362">
        <ele>485</ele>
        <time>2019-09-11T10:07:41+00:00</time>
      </trkpt>
      <trkpt lat="43.316967010498" lon="-7.6266584396362">
        <ele>485</ele>
        <time>2019-09-11T10:07:42+00:00</time>
      </trkpt>
      <trkpt lat="43.31697845459" lon="-7.6266531944275">
        <ele>485</ele>
        <time>2019-09-11T10:07:43+00:00</time>
      </trkpt>
      <trkpt lat="43.316986083984" lon="-7.6266465187073">
        <ele>485</ele>
        <time>2019-09-11T10:07:44+00:00</time>
      </trkpt>
      <trkpt lat="43.316993713379" lon="-7.6266417503357">
        <ele>485</ele>
        <time>2019-09-11T10:07:45+00:00</time>
      </trkpt>
      <trkpt lat="43.317001342773" lon="-7.6266331672668">
        <ele>485</ele>
        <time>2019-09-11T10:07:46+00:00</time>
      </trkpt>
      <trkpt lat="43.317005157471" lon="-7.6266231536865">
        <ele>484</ele>
        <time>2019-09-11T10:07:47+00:00</time>
      </trkpt>
      <trkpt lat="43.317008972168" lon="-7.626621723175">
        <ele>484</ele>
        <time>2019-09-11T10:07:48+00:00</time>
      </trkpt>
      <trkpt lat="43.317016601562" lon="-7.6266183853149">
        <ele>484</ele>
        <time>2019-09-11T10:07:49+00:00</time>
      </trkpt>
      <trkpt lat="43.317016601562" lon="-7.6266183853149">
        <ele>484</ele>
        <time>2019-09-11T10:07:50+00:00</time>
      </trkpt>
      <trkpt lat="43.31702041626" lon="-7.6266117095947">
        <ele>484</ele>
        <time>2019-09-11T10:07:51+00:00</time>
      </trkpt>
      <trkpt lat="43.317024230957" lon="-7.6266083717346">
        <ele>484</ele>
        <time>2019-09-11T10:07:52+00:00</time>
      </trkpt>
      <trkpt lat="43.317028045654" lon="-7.626606464386">
        <ele>484</ele>
        <time>2019-09-11T10:07:53+00:00</time>
      </trkpt>
      <trkpt lat="43.317031860352" lon="-7.626606464386">
        <ele>484</ele>
        <time>2019-09-11T10:07:54+00:00</time>
      </trkpt>
      <trkpt lat="43.317039489746" lon="-7.6266083717346">
        <ele>484</ele>
        <time>2019-09-11T10:07:55+00:00</time>
      </trkpt>
      <trkpt lat="43.317043304443" lon="-7.6266031265259">
        <ele>484</ele>
        <time>2019-09-11T10:07:56+00:00</time>
      </trkpt>
      <trkpt lat="43.317047119141" lon="-7.6266016960144">
        <ele>484</ele>
        <time>2019-09-11T10:07:57+00:00</time>
      </trkpt>
      <trkpt lat="43.317050933838" lon="-7.6266031265259">
        <ele>483</ele>
        <time>2019-09-11T10:07:58+00:00</time>
      </trkpt>
      <trkpt lat="43.317050933838" lon="-7.626606464386">
        <ele>483</ele>
        <time>2019-09-11T10:07:59+00:00</time>
      </trkpt>
      <trkpt lat="43.317043304443" lon="-7.6266083717346">
        <ele>483</ele>
        <time>2019-09-11T10:08:02+00:00</time>
      </trkpt>
      <trkpt lat="43.317028045654" lon="-7.626621723175">
        <ele>483</ele>
        <time>2019-09-11T10:08:03+00:00</time>
      </trkpt>
      <trkpt lat="43.317039489746" lon="-7.6266098022461">
        <ele>483</ele>
        <time>2019-09-11T10:08:04+00:00</time>
      </trkpt>
      <trkpt lat="43.317043304443" lon="-7.6266098022461">
        <ele>483</ele>
        <time>2019-09-11T10:08:05+00:00</time>
      </trkpt>
      <trkpt lat="43.317043304443" lon="-7.6266098022461">
        <ele>483</ele>
        <time>2019-09-11T10:08:06+00:00</time>
      </trkpt>
      <trkpt lat="43.317043304443" lon="-7.6266098022461">
        <ele>483</ele>
        <time>2019-09-11T10:08:07+00:00</time>
      </trkpt>
      <trkpt lat="43.317043304443" lon="-7.6266098022461">
        <ele>483</ele>
        <time>2019-09-11T10:08:08+00:00</time>
      </trkpt>
      <trkpt lat="43.317043304443" lon="-7.6266098022461">
        <ele>483</ele>
        <time>2019-09-11T10:08:09+00:00</time>
      </trkpt>
      <trkpt lat="43.317043304443" lon="-7.6266098022461">
        <ele>483</ele>
        <time>2019-09-11T10:08:10+00:00</time>
      </trkpt>
      <trkpt lat="43.317043304443" lon="-7.6266098022461">
        <ele>483</ele>
        <time>2019-09-11T10:08:11+00:00</time>
      </trkpt>
      <trkpt lat="43.317043304443" lon="-7.6266098022461">
        <ele>483</ele>
        <time>2019-09-11T10:08:12+00:00</time>
      </trkpt>
      <trkpt lat="43.317043304443" lon="-7.6266098022461">
        <ele>483</ele>
        <time>2019-09-11T10:08:13+00:00</time>
      </trkpt>
      <trkpt lat="43.317031860352" lon="-7.6266050338745">
        <ele>484</ele>
        <time>2019-09-11T10:08:14+00:00</time>
      </trkpt>
      <trkpt lat="43.317039489746" lon="-7.6266031265259">
        <ele>484</ele>
        <time>2019-09-11T10:08:15+00:00</time>
      </trkpt>
      <trkpt lat="43.317047119141" lon="-7.6265950202942">
        <ele>484</ele>
        <time>2019-09-11T10:08:16+00:00</time>
      </trkpt>
      <trkpt lat="43.317039489746" lon="-7.6265950202942">
        <ele>484</ele>
        <time>2019-09-11T10:08:17+00:00</time>
      </trkpt>
      <trkpt lat="43.317039489746" lon="-7.6265950202942">
        <ele>484</ele>
        <time>2019-09-11T10:08:18+00:00</time>
      </trkpt>
      <trkpt lat="43.317039489746" lon="-7.6265950202942">
        <ele>484</ele>
        <time>2019-09-11T10:08:19+00:00</time>
      </trkpt>
      <trkpt lat="43.317039489746" lon="-7.6265950202942">
        <ele>484</ele>
        <time>2019-09-11T10:08:20+00:00</time>
      </trkpt>
      <trkpt lat="43.317039489746" lon="-7.6265950202942">
        <ele>484</ele>
        <time>2019-09-11T10:08:21+00:00</time>
      </trkpt>
      <trkpt lat="43.317039489746" lon="-7.6265950202942">
        <ele>484</ele>
        <time>2019-09-11T10:08:22+00:00</time>
      </trkpt>
      <trkpt lat="43.317039489746" lon="-7.6265950202942">
        <ele>484</ele>
        <time>2019-09-11T10:08:23+00:00</time>
      </trkpt>
      <trkpt lat="43.317039489746" lon="-7.6265950202942">
        <ele>484</ele>
        <time>2019-09-11T10:08:24+00:00</time>
      </trkpt>
      <trkpt lat="43.317039489746" lon="-7.6265950202942">
        <ele>484</ele>
        <time>2019-09-11T10:08:25+00:00</time>
      </trkpt>
      <trkpt lat="43.317024230957" lon="-7.6265501976013">
        <ele>485</ele>
        <time>2019-09-11T10:08:26+00:00</time>
      </trkpt>
      <trkpt lat="43.31702041626" lon="-7.6265449523926">
        <ele>485</ele>
        <time>2019-09-11T10:08:27+00:00</time>
      </trkpt>
      <trkpt lat="43.317012786865" lon="-7.626540184021">
        <ele>485</ele>
        <time>2019-09-11T10:08:28+00:00</time>
      </trkpt>
      <trkpt lat="43.317005157471" lon="-7.6265349388123">
        <ele>485</ele>
        <time>2019-09-11T10:08:29+00:00</time>
      </trkpt>
      <trkpt lat="43.317001342773" lon="-7.626528263092">
        <ele>485</ele>
        <time>2019-09-11T10:08:30+00:00</time>
      </trkpt>
      <trkpt lat="43.316989898682" lon="-7.626528263092">
        <ele>485</ele>
        <time>2019-09-11T10:08:31+00:00</time>
      </trkpt>
      <trkpt lat="43.316989898682" lon="-7.6265215873718">
        <ele>485</ele>
        <time>2019-09-11T10:08:32+00:00</time>
      </trkpt>
      <trkpt lat="43.316986083984" lon="-7.6265182495117">
        <ele>485</ele>
        <time>2019-09-11T10:08:33+00:00</time>
      </trkpt>
      <trkpt lat="43.316982269287" lon="-7.6265182495117">
        <ele>485</ele>
        <time>2019-09-11T10:08:34+00:00</time>
      </trkpt>
      <trkpt lat="43.31697845459" lon="-7.6265168190002">
        <ele>485</ele>
        <time>2019-09-11T10:08:35+00:00</time>
      </trkpt>
      <trkpt lat="43.316970825195" lon="-7.6265168190002">
        <ele>485</ele>
        <time>2019-09-11T10:08:36+00:00</time>
      </trkpt>
      <trkpt lat="43.316967010498" lon="-7.6265201568604">
        <ele>485</ele>
        <time>2019-09-11T10:08:37+00:00</time>
      </trkpt>
      <trkpt lat="43.316963195801" lon="-7.6265215873718">
        <ele>485</ele>
        <time>2019-09-11T10:08:38+00:00</time>
      </trkpt>
      <trkpt lat="43.316955566406" lon="-7.6265182495117">
        <ele>485</ele>
        <time>2019-09-11T10:08:39+00:00</time>
      </trkpt>
      <trkpt lat="43.316947937012" lon="-7.6265115737915">
        <ele>485</ele>
        <time>2019-09-11T10:08:40+00:00</time>
      </trkpt>
      <trkpt lat="43.316944122314" lon="-7.6265048980713">
        <ele>485</ele>
        <time>2019-09-11T10:08:41+00:00</time>
      </trkpt>
      <trkpt lat="43.316944122314" lon="-7.6264915466309">
        <ele>485</ele>
        <time>2019-09-11T10:08:42+00:00</time>
      </trkpt>
      <trkpt lat="43.316944122314" lon="-7.6264834403992">
        <ele>485</ele>
        <time>2019-09-11T10:08:43+00:00</time>
      </trkpt>
      <trkpt lat="43.31693649292" lon="-7.6264700889587">
        <ele>485</ele>
        <time>2019-09-11T10:08:44+00:00</time>
      </trkpt>
      <trkpt lat="43.316932678223" lon="-7.6264481544495">
        <ele>485</ele>
        <time>2019-09-11T10:08:45+00:00</time>
      </trkpt>
      <trkpt lat="43.316928863525" lon="-7.6264314651489">
        <ele>485</ele>
        <time>2019-09-11T10:08:46+00:00</time>
      </trkpt>
      <trkpt lat="43.316921234131" lon="-7.6264066696167">
        <ele>485</ele>
        <time>2019-09-11T10:08:47+00:00</time>
      </trkpt>
      <trkpt lat="43.316925048828" lon="-7.6263885498047">
        <ele>485</ele>
        <time>2019-09-11T10:08:48+00:00</time>
      </trkpt>
      <trkpt lat="43.316970825195" lon="-7.6264100074768">
        <ele>485</ele>
        <time>2019-09-11T10:08:49+00:00</time>
      </trkpt>
      <trkpt lat="43.316986083984" lon="-7.6264066696167">
        <ele>484</ele>
        <time>2019-09-11T10:08:50+00:00</time>
      </trkpt>
      <trkpt lat="43.317001342773" lon="-7.6264019012451">
        <ele>484</ele>
        <time>2019-09-11T10:08:51+00:00</time>
      </trkpt>
      <trkpt lat="43.317008972168" lon="-7.6263933181763">
        <ele>484</ele>
        <time>2019-09-11T10:08:52+00:00</time>
      </trkpt>
      <trkpt lat="43.317008972168" lon="-7.6263833045959">
        <ele>484</ele>
        <time>2019-09-11T10:08:53+00:00</time>
      </trkpt>
      <trkpt lat="43.317016601562" lon="-7.6263699531555">
        <ele>484</ele>
        <time>2019-09-11T10:08:54+00:00</time>
      </trkpt>
      <trkpt lat="43.317016601562" lon="-7.6263585090637">
        <ele>484</ele>
        <time>2019-09-11T10:08:55+00:00</time>
      </trkpt>
      <trkpt lat="43.317016601562" lon="-7.6263484954834">
        <ele>484</ele>
        <time>2019-09-11T10:08:56+00:00</time>
      </trkpt>
      <trkpt lat="43.317016601562" lon="-7.6263318061829">
        <ele>484</ele>
        <time>2019-09-11T10:08:57+00:00</time>
      </trkpt>
      <trkpt lat="43.317016601562" lon="-7.6263165473938">
        <ele>484</ele>
        <time>2019-09-11T10:08:58+00:00</time>
      </trkpt>
      <trkpt lat="43.317016601562" lon="-7.6262965202332">
        <ele>484</ele>
        <time>2019-09-11T10:08:59+00:00</time>
      </trkpt>
      <trkpt lat="43.317005157471" lon="-7.6262817382812">
        <ele>484</ele>
        <time>2019-09-11T10:09:00+00:00</time>
      </trkpt>
      <trkpt lat="43.317005157471" lon="-7.6262698173523">
        <ele>484</ele>
        <time>2019-09-11T10:09:01+00:00</time>
      </trkpt>
      <trkpt lat="43.317016601562" lon="-7.6262531280518">
        <ele>484</ele>
        <time>2019-09-11T10:09:02+00:00</time>
      </trkpt>
      <trkpt lat="43.317016601562" lon="-7.6262397766113">
        <ele>484</ele>
        <time>2019-09-11T10:09:03+00:00</time>
      </trkpt>
      <trkpt lat="43.317024230957" lon="-7.6262316703796">
        <ele>484</ele>
        <time>2019-09-11T10:09:04+00:00</time>
      </trkpt>
      <trkpt lat="43.317024230957" lon="-7.6262216567993">
        <ele>483</ele>
        <time>2019-09-11T10:09:05+00:00</time>
      </trkpt>
      <trkpt lat="43.317024230957" lon="-7.6262135505676">
        <ele>484</ele>
        <time>2019-09-11T10:09:06+00:00</time>
      </trkpt>
      <trkpt lat="43.317024230957" lon="-7.6262183189392">
        <ele>484</ele>
        <time>2019-09-11T10:09:07+00:00</time>
      </trkpt>
      <trkpt lat="43.317024230957" lon="-7.6262202262878">
        <ele>484</ele>
        <time>2019-09-11T10:09:08+00:00</time>
      </trkpt>
      <trkpt lat="43.317028045654" lon="-7.6262202262878">
        <ele>484</ele>
        <time>2019-09-11T10:09:09+00:00</time>
      </trkpt>
      <trkpt lat="43.317031860352" lon="-7.6262249946594">
        <ele>484</ele>
        <time>2019-09-11T10:09:10+00:00</time>
      </trkpt>
      <trkpt lat="43.317035675049" lon="-7.6262331008911">
        <ele>484</ele>
        <time>2019-09-11T10:09:11+00:00</time>
      </trkpt>
      <trkpt lat="43.317039489746" lon="-7.6262364387512">
        <ele>484</ele>
        <time>2019-09-11T10:09:12+00:00</time>
      </trkpt>
      <trkpt lat="43.317039489746" lon="-7.6262383460999">
        <ele>484</ele>
        <time>2019-09-11T10:09:13+00:00</time>
      </trkpt>
      <trkpt lat="43.317039489746" lon="-7.6262383460999">
        <ele>485</ele>
        <time>2019-09-11T10:09:14+00:00</time>
      </trkpt>
      <trkpt lat="43.317043304443" lon="-7.6262364387512">
        <ele>485</ele>
        <time>2019-09-11T10:09:15+00:00</time>
      </trkpt>
      <trkpt lat="43.317043304443" lon="-7.6262364387512">
        <ele>485</ele>
        <time>2019-09-11T10:09:16+00:00</time>
      </trkpt>
      <trkpt lat="43.317043304443" lon="-7.6262364387512">
        <ele>485</ele>
        <time>2019-09-11T10:09:17+00:00</time>
      </trkpt>
      <trkpt lat="43.317043304443" lon="-7.6262364387512">
        <ele>485</ele>
        <time>2019-09-11T10:09:18+00:00</time>
      </trkpt>
      <trkpt lat="43.317043304443" lon="-7.6262364387512">
        <ele>485</ele>
        <time>2019-09-11T10:09:19+00:00</time>
      </trkpt>
      <trkpt lat="43.317043304443" lon="-7.6262364387512">
        <ele>485</ele>
        <time>2019-09-11T10:09:20+00:00</time>
      </trkpt>
      <trkpt lat="43.317043304443" lon="-7.6262364387512">
        <ele>485</ele>
        <time>2019-09-11T10:09:21+00:00</time>
      </trkpt>
      <trkpt lat="43.317043304443" lon="-7.6262364387512">
        <ele>485</ele>
        <time>2019-09-11T10:09:22+00:00</time>
      </trkpt>
      <trkpt lat="43.317043304443" lon="-7.6262364387512">
        <ele>485</ele>
        <time>2019-09-11T10:09:23+00:00</time>
      </trkpt>
      <trkpt lat="43.317043304443" lon="-7.6262850761414">
        <ele>486</ele>
        <time>2019-09-11T10:09:24+00:00</time>
      </trkpt>
      <trkpt lat="43.317047119141" lon="-7.6262898445129">
        <ele>486</ele>
        <time>2019-09-11T10:09:25+00:00</time>
      </trkpt>
      <trkpt lat="43.317043304443" lon="-7.6262984275818">
        <ele>486</ele>
        <time>2019-09-11T10:09:26+00:00</time>
      </trkpt>
      <trkpt lat="43.317043304443" lon="-7.6262998580933">
        <ele>487</ele>
        <time>2019-09-11T10:09:27+00:00</time>
      </trkpt>
      <trkpt lat="43.317058563232" lon="-7.6263065338135">
        <ele>487</ele>
        <time>2019-09-11T10:09:30+00:00</time>
      </trkpt>
      <trkpt lat="43.317058563232" lon="-7.6263165473938">
        <ele>487</ele>
        <time>2019-09-11T10:09:31+00:00</time>
      </trkpt>
      <trkpt lat="43.317058563232" lon="-7.6263284683228">
        <ele>488</ele>
        <time>2019-09-11T10:09:32+00:00</time>
      </trkpt>
      <trkpt lat="43.317058563232" lon="-7.6263418197632">
        <ele>488</ele>
        <time>2019-09-11T10:09:33+00:00</time>
      </trkpt>
      <trkpt lat="43.317054748535" lon="-7.6263585090637">
        <ele>488</ele>
        <time>2019-09-11T10:09:35+00:00</time>
      </trkpt>
      <trkpt lat="43.317050933838" lon="-7.6263699531555">
        <ele>488</ele>
        <time>2019-09-11T10:09:36+00:00</time>
      </trkpt>
      <trkpt lat="43.317043304443" lon="-7.6263799667358">
        <ele>488</ele>
        <time>2019-09-11T10:09:37+00:00</time>
      </trkpt>
      <trkpt lat="43.317043304443" lon="-7.6263952255249">
        <ele>489</ele>
        <time>2019-09-11T10:09:38+00:00</time>
      </trkpt>
      <trkpt lat="43.317031860352" lon="-7.6264114379883">
        <ele>489</ele>
        <time>2019-09-11T10:09:39+00:00</time>
      </trkpt>
      <trkpt lat="43.317024230957" lon="-7.6264181137085">
        <ele>489</ele>
        <time>2019-09-11T10:09:40+00:00</time>
      </trkpt>
      <trkpt lat="43.317024230957" lon="-7.6264247894287">
        <ele>489</ele>
        <time>2019-09-11T10:09:41+00:00</time>
      </trkpt>
      <trkpt lat="43.31702041626" lon="-7.6264314651489">
        <ele>489</ele>
        <time>2019-09-11T10:09:42+00:00</time>
      </trkpt>
      <trkpt lat="43.317016601562" lon="-7.6264333724976">
        <ele>489</ele>
        <time>2019-09-11T10:09:43+00:00</time>
      </trkpt>
      <trkpt lat="43.31702041626" lon="-7.6264367103577">
        <ele>489</ele>
        <time>2019-09-11T10:09:44+00:00</time>
      </trkpt>
      <trkpt lat="43.317024230957" lon="-7.6264381408691">
        <ele>489</ele>
        <time>2019-09-11T10:09:45+00:00</time>
      </trkpt>
      <trkpt lat="43.317028045654" lon="-7.6264400482178">
        <ele>489</ele>
        <time>2019-09-11T10:09:46+00:00</time>
      </trkpt>
      <trkpt lat="43.317028045654" lon="-7.6264400482178">
        <ele>489</ele>
        <time>2019-09-11T10:09:47+00:00</time>
      </trkpt>
      <trkpt lat="43.317024230957" lon="-7.6264433860779">
        <ele>489</ele>
        <time>2019-09-11T10:09:48+00:00</time>
      </trkpt>
      <trkpt lat="43.31702041626" lon="-7.6264433860779">
        <ele>489</ele>
        <time>2019-09-11T10:09:49+00:00</time>
      </trkpt>
      <trkpt lat="43.317024230957" lon="-7.6264400482178">
        <ele>489</ele>
        <time>2019-09-11T10:09:50+00:00</time>
      </trkpt>
      <trkpt lat="43.31702041626" lon="-7.6264381408691">
        <ele>489</ele>
        <time>2019-09-11T10:09:51+00:00</time>
      </trkpt>
      <trkpt lat="43.317016601562" lon="-7.6264367103577">
        <ele>489</ele>
        <time>2019-09-11T10:09:52+00:00</time>
      </trkpt>
      <trkpt lat="43.317016601562" lon="-7.6264448165894">
        <ele>490</ele>
        <time>2019-09-11T10:09:53+00:00</time>
      </trkpt>
      <trkpt lat="43.317028045654" lon="-7.6264433860779">
        <ele>490</ele>
        <time>2019-09-11T10:09:54+00:00</time>
      </trkpt>
      <trkpt lat="43.317024230957" lon="-7.6264433860779">
        <ele>491</ele>
        <time>2019-09-11T10:09:55+00:00</time>
      </trkpt>
      <trkpt lat="43.317016601562" lon="-7.6264400482178">
        <ele>491</ele>
        <time>2019-09-11T10:09:56+00:00</time>
      </trkpt>
      <trkpt lat="43.317016601562" lon="-7.6264381408691">
        <ele>490</ele>
        <time>2019-09-11T10:09:57+00:00</time>
      </trkpt>
      <trkpt lat="43.317016601562" lon="-7.6264381408691">
        <ele>490</ele>
        <time>2019-09-11T10:09:58+00:00</time>
      </trkpt>
      <trkpt lat="43.317016601562" lon="-7.6264381408691">
        <ele>490</ele>
        <time>2019-09-11T10:09:59+00:00</time>
      </trkpt>
      <trkpt lat="43.317016601562" lon="-7.6264381408691">
        <ele>490</ele>
        <time>2019-09-11T10:10:00+00:00</time>
      </trkpt>
      <trkpt lat="43.317016601562" lon="-7.6264381408691">
        <ele>490</ele>
        <time>2019-09-11T10:10:01+00:00</time>
      </trkpt>
      <trkpt lat="43.317016601562" lon="-7.6264381408691">
        <ele>490</ele>
        <time>2019-09-11T10:10:02+00:00</time>
      </trkpt>
      <trkpt lat="43.317016601562" lon="-7.6264381408691">
        <ele>490</ele>
        <time>2019-09-11T10:10:03+00:00</time>
      </trkpt>
      <trkpt lat="43.317016601562" lon="-7.6264381408691">
        <ele>490</ele>
        <time>2019-09-11T10:10:04+00:00</time>
      </trkpt>
      <trkpt lat="43.317016601562" lon="-7.6264381408691">
        <ele>490</ele>
        <time>2019-09-11T10:10:05+00:00</time>
      </trkpt>
      <trkpt lat="43.317016601562" lon="-7.6264381408691">
        <ele>490</ele>
        <time>2019-09-11T10:10:06+00:00</time>
      </trkpt>
      <trkpt lat="43.317016601562" lon="-7.6264381408691">
        <ele>490</ele>
        <time>2019-09-11T10:10:07+00:00</time>
      </trkpt>
      <trkpt lat="43.317016601562" lon="-7.6264381408691">
        <ele>490</ele>
        <time>2019-09-11T10:10:08+00:00</time>
      </trkpt>
      <trkpt lat="43.317043304443" lon="-7.6264567375183">
        <ele>489</ele>
        <time>2019-09-11T10:10:09+00:00</time>
      </trkpt>
      <trkpt lat="43.317043304443" lon="-7.6264600753784">
        <ele>489</ele>
        <time>2019-09-11T10:10:10+00:00</time>
      </trkpt>
      <trkpt lat="43.317043304443" lon="-7.6264681816101">
        <ele>489</ele>
        <time>2019-09-11T10:10:11+00:00</time>
      </trkpt>
      <trkpt lat="43.317031860352" lon="-7.6264815330505">
        <ele>488</ele>
        <time>2019-09-11T10:10:12+00:00</time>
      </trkpt>
      <trkpt lat="43.31702041626" lon="-7.6264934539795">
        <ele>488</ele>
        <time>2019-09-11T10:10:13+00:00</time>
      </trkpt>
      <trkpt lat="43.317008972168" lon="-7.6265015602112">
        <ele>488</ele>
        <time>2019-09-11T10:10:14+00:00</time>
      </trkpt>
      <trkpt lat="43.317001342773" lon="-7.6265134811401">
        <ele>488</ele>
        <time>2019-09-11T10:10:15+00:00</time>
      </trkpt>
      <trkpt lat="43.316993713379" lon="-7.626528263092">
        <ele>488</ele>
        <time>2019-09-11T10:10:16+00:00</time>
      </trkpt>
      <trkpt lat="43.316986083984" lon="-7.6265416145325">
        <ele>488</ele>
        <time>2019-09-11T10:10:17+00:00</time>
      </trkpt>
      <trkpt lat="43.31697845459" lon="-7.6265568733215">
        <ele>488</ele>
        <time>2019-09-11T10:10:18+00:00</time>
      </trkpt>
      <trkpt lat="43.316970825195" lon="-7.6265683174133">
        <ele>488</ele>
        <time>2019-09-11T10:10:19+00:00</time>
      </trkpt>
      <trkpt lat="43.316959381104" lon="-7.6265783309937">
        <ele>488</ele>
        <time>2019-09-11T10:10:20+00:00</time>
      </trkpt>
      <trkpt lat="43.316951751709" lon="-7.6265931129456">
        <ele>488</ele>
        <time>2019-09-11T10:10:21+00:00</time>
      </trkpt>
      <trkpt lat="43.316947937012" lon="-7.626606464386">
        <ele>488</ele>
        <time>2019-09-11T10:10:22+00:00</time>
      </trkpt>
      <trkpt lat="43.316947937012" lon="-7.6266198158264">
        <ele>487</ele>
        <time>2019-09-11T10:10:23+00:00</time>
      </trkpt>
      <trkpt lat="43.316940307617" lon="-7.6266350746155">
        <ele>487</ele>
        <time>2019-09-11T10:10:24+00:00</time>
      </trkpt>
      <trkpt lat="43.316944122314" lon="-7.626651763916">
        <ele>487</ele>
        <time>2019-09-11T10:10:25+00:00</time>
      </trkpt>
      <trkpt lat="43.316944122314" lon="-7.626669883728">
        <ele>487</ele>
        <time>2019-09-11T10:10:26+00:00</time>
      </trkpt>
      <trkpt lat="43.316947937012" lon="-7.6266884803772">
        <ele>487</ele>
        <time>2019-09-11T10:10:27+00:00</time>
      </trkpt>
      <trkpt lat="43.316951751709" lon="-7.6267032623291">
        <ele>487</ele>
        <time>2019-09-11T10:10:28+00:00</time>
      </trkpt>
      <trkpt lat="43.316951751709" lon="-7.6267151832581">
        <ele>487</ele>
        <time>2019-09-11T10:10:29+00:00</time>
      </trkpt>
      <trkpt lat="43.316947937012" lon="-7.6267285346985">
        <ele>487</ele>
        <time>2019-09-11T10:10:30+00:00</time>
      </trkpt>
      <trkpt lat="43.316944122314" lon="-7.6267418861389">
        <ele>487</ele>
        <time>2019-09-11T10:10:31+00:00</time>
      </trkpt>
      <trkpt lat="43.316940307617" lon="-7.6267580986023">
        <ele>487</ele>
        <time>2019-09-11T10:10:32+00:00</time>
      </trkpt>
      <trkpt lat="43.316932678223" lon="-7.6267681121826">
        <ele>487</ele>
        <time>2019-09-11T10:10:33+00:00</time>
      </trkpt>
      <trkpt lat="43.316928863525" lon="-7.6267848014832">
        <ele>488</ele>
        <time>2019-09-11T10:10:34+00:00</time>
      </trkpt>
      <trkpt lat="43.316925048828" lon="-7.6267967224121">
        <ele>488</ele>
        <time>2019-09-11T10:10:35+00:00</time>
      </trkpt>
      <trkpt lat="43.316917419434" lon="-7.6268100738525">
        <ele>488</ele>
        <time>2019-09-11T10:10:36+00:00</time>
      </trkpt>
      <trkpt lat="43.316909790039" lon="-7.6268181800842">
        <ele>488</ele>
        <time>2019-09-11T10:10:37+00:00</time>
      </trkpt>
      <trkpt lat="43.316909790039" lon="-7.6268267631531">
        <ele>488</ele>
        <time>2019-09-11T10:10:38+00:00</time>
      </trkpt>
      <trkpt lat="43.316902160645" lon="-7.6268367767334">
        <ele>488</ele>
        <time>2019-09-11T10:10:39+00:00</time>
      </trkpt>
      <trkpt lat="43.316898345947" lon="-7.6268501281738">
        <ele>488</ele>
        <time>2019-09-11T10:10:40+00:00</time>
      </trkpt>
      <trkpt lat="43.31689453125" lon="-7.6268601417542">
        <ele>488</ele>
        <time>2019-09-11T10:10:41+00:00</time>
      </trkpt>
      <trkpt lat="43.31689453125" lon="-7.6268715858459">
        <ele>488</ele>
        <time>2019-09-11T10:10:42+00:00</time>
      </trkpt>
      <trkpt lat="43.316890716553" lon="-7.6268849372864">
        <ele>488</ele>
        <time>2019-09-11T10:10:43+00:00</time>
      </trkpt>
      <trkpt lat="43.316883087158" lon="-7.6269001960754">
        <ele>488</ele>
        <time>2019-09-11T10:10:44+00:00</time>
      </trkpt>
      <trkpt lat="43.316875457764" lon="-7.6269116401672">
        <ele>488</ele>
        <time>2019-09-11T10:10:45+00:00</time>
      </trkpt>
      <trkpt lat="43.316871643066" lon="-7.6269216537476">
        <ele>488</ele>
        <time>2019-09-11T10:10:46+00:00</time>
      </trkpt>
      <trkpt lat="43.316864013672" lon="-7.6269302368164">
        <ele>488</ele>
        <time>2019-09-11T10:10:47+00:00</time>
      </trkpt>
      <trkpt lat="43.316860198975" lon="-7.6269397735596">
        <ele>488</ele>
        <time>2019-09-11T10:10:48+00:00</time>
      </trkpt>
      <trkpt lat="43.316848754883" lon="-7.6269483566284">
        <ele>488</ele>
        <time>2019-09-11T10:10:49+00:00</time>
      </trkpt>
      <trkpt lat="43.316844940186" lon="-7.6269583702087">
        <ele>488</ele>
        <time>2019-09-11T10:10:50+00:00</time>
      </trkpt>
      <trkpt lat="43.316841125488" lon="-7.6269683837891">
        <ele>487</ele>
        <time>2019-09-11T10:10:51+00:00</time>
      </trkpt>
      <trkpt lat="43.316837310791" lon="-7.6269764900208">
        <ele>487</ele>
        <time>2019-09-11T10:10:52+00:00</time>
      </trkpt>
      <trkpt lat="43.316825866699" lon="-7.6269865036011">
        <ele>487</ele>
        <time>2019-09-11T10:10:53+00:00</time>
      </trkpt>
      <trkpt lat="43.316822052002" lon="-7.6269931793213">
        <ele>487</ele>
        <time>2019-09-11T10:10:54+00:00</time>
      </trkpt>
      <trkpt lat="43.316822052002" lon="-7.6269950866699">
        <ele>487</ele>
        <time>2019-09-11T10:10:55+00:00</time>
      </trkpt>
      <trkpt lat="43.316822052002" lon="-7.6269965171814">
        <ele>487</ele>
        <time>2019-09-11T10:10:56+00:00</time>
      </trkpt>
      <trkpt lat="43.316822052002" lon="-7.6270031929016">
        <ele>487</ele>
        <time>2019-09-11T10:10:57+00:00</time>
      </trkpt>
      <trkpt lat="43.316818237305" lon="-7.6270098686218">
        <ele>487</ele>
        <time>2019-09-11T10:10:58+00:00</time>
      </trkpt>
      <trkpt lat="43.316822052002" lon="-7.6270051002502">
        <ele>487</ele>
        <time>2019-09-11T10:10:59+00:00</time>
      </trkpt>
      <trkpt lat="43.316825866699" lon="-7.6270031929016">
        <ele>487</ele>
        <time>2019-09-11T10:11:00+00:00</time>
      </trkpt>
      <trkpt lat="43.316829681396" lon="-7.6270017623901">
        <ele>487</ele>
        <time>2019-09-11T10:11:01+00:00</time>
      </trkpt>
      <trkpt lat="43.316825866699" lon="-7.62699842453">
        <ele>487</ele>
        <time>2019-09-11T10:11:02+00:00</time>
      </trkpt>
      <trkpt lat="43.316822052002" lon="-7.6269931793213">
        <ele>486</ele>
        <time>2019-09-11T10:11:03+00:00</time>
      </trkpt>
      <trkpt lat="43.316818237305" lon="-7.6269884109497">
        <ele>486</ele>
        <time>2019-09-11T10:11:04+00:00</time>
      </trkpt>
      <trkpt lat="43.316818237305" lon="-7.6269850730896">
        <ele>486</ele>
        <time>2019-09-11T10:11:05+00:00</time>
      </trkpt>
      <trkpt lat="43.31681060791" lon="-7.6269817352295">
        <ele>486</ele>
        <time>2019-09-11T10:11:06+00:00</time>
      </trkpt>
      <trkpt lat="43.316806793213" lon="-7.6269798278809">
        <ele>486</ele>
        <time>2019-09-11T10:11:07+00:00</time>
      </trkpt>
      <trkpt lat="43.316795349121" lon="-7.6269783973694">
        <ele>486</ele>
        <time>2019-09-11T10:11:08+00:00</time>
      </trkpt>
      <trkpt lat="43.316787719727" lon="-7.6269750595093">
        <ele>487</ele>
        <time>2019-09-11T10:11:09+00:00</time>
      </trkpt>
      <trkpt lat="43.316780090332" lon="-7.6269731521606">
        <ele>487</ele>
        <time>2019-09-11T10:11:10+00:00</time>
      </trkpt>
      <trkpt lat="43.31676864624" lon="-7.6269764900208">
        <ele>487</ele>
        <time>2019-09-11T10:11:11+00:00</time>
      </trkpt>
      <trkpt lat="43.316761016846" lon="-7.6269783973694">
        <ele>487</ele>
        <time>2019-09-11T10:11:12+00:00</time>
      </trkpt>
      <trkpt lat="43.316749572754" lon="-7.6269817352295">
        <ele>487</ele>
        <time>2019-09-11T10:11:13+00:00</time>
      </trkpt>
      <trkpt lat="43.316738128662" lon="-7.626983165741">
        <ele>487</ele>
        <time>2019-09-11T10:11:14+00:00</time>
      </trkpt>
      <trkpt lat="43.31672668457" lon="-7.6269931793213">
        <ele>487</ele>
        <time>2019-09-11T10:11:15+00:00</time>
      </trkpt>
      <trkpt lat="43.316719055176" lon="-7.6270031929016">
        <ele>487</ele>
        <time>2019-09-11T10:11:16+00:00</time>
      </trkpt>
      <trkpt lat="43.316711425781" lon="-7.6270098686218">
        <ele>487</ele>
        <time>2019-09-11T10:11:17+00:00</time>
      </trkpt>
      <trkpt lat="43.316699981689" lon="-7.6270098686218">
        <ele>487</ele>
        <time>2019-09-11T10:11:18+00:00</time>
      </trkpt>
      <trkpt lat="43.316696166992" lon="-7.6270098686218">
        <ele>487</ele>
        <time>2019-09-11T10:11:19+00:00</time>
      </trkpt>
      <trkpt lat="43.316688537598" lon="-7.6270151138306">
        <ele>487</ele>
        <time>2019-09-11T10:11:20+00:00</time>
      </trkpt>
      <trkpt lat="43.316680908203" lon="-7.6270184516907">
        <ele>487</ele>
        <time>2019-09-11T10:11:21+00:00</time>
      </trkpt>
      <trkpt lat="43.316673278809" lon="-7.6270198822021">
        <ele>487</ele>
        <time>2019-09-11T10:11:22+00:00</time>
      </trkpt>
      <trkpt lat="43.316665649414" lon="-7.6270217895508">
        <ele>487</ele>
        <time>2019-09-11T10:11:23+00:00</time>
      </trkpt>
      <trkpt lat="43.316661834717" lon="-7.6270251274109">
        <ele>487</ele>
        <time>2019-09-11T10:11:24+00:00</time>
      </trkpt>
      <trkpt lat="43.316654205322" lon="-7.6270265579224">
        <ele>487</ele>
        <time>2019-09-11T10:11:25+00:00</time>
      </trkpt>
      <trkpt lat="43.316646575928" lon="-7.627028465271">
        <ele>487</ele>
        <time>2019-09-11T10:11:26+00:00</time>
      </trkpt>
      <trkpt lat="43.316646575928" lon="-7.6270318031311">
        <ele>487</ele>
        <time>2019-09-11T10:11:28+00:00</time>
      </trkpt>
      <trkpt lat="43.316646575928" lon="-7.6270318031311">
        <ele>487</ele>
        <time>2019-09-11T10:11:29+00:00</time>
      </trkpt>
      <trkpt lat="43.316646575928" lon="-7.6270332336426">
        <ele>487</ele>
        <time>2019-09-11T10:11:30+00:00</time>
      </trkpt>
      <trkpt lat="43.316646575928" lon="-7.6270332336426">
        <ele>487</ele>
        <time>2019-09-11T10:11:31+00:00</time>
      </trkpt>
      <trkpt lat="43.316646575928" lon="-7.6270351409912">
        <ele>487</ele>
        <time>2019-09-11T10:11:32+00:00</time>
      </trkpt>
      <trkpt lat="43.316646575928" lon="-7.6270351409912">
        <ele>487</ele>
        <time>2019-09-11T10:11:33+00:00</time>
      </trkpt>
      <trkpt lat="43.31664276123" lon="-7.6270351409912">
        <ele>487</ele>
        <time>2019-09-11T10:11:34+00:00</time>
      </trkpt>
      <trkpt lat="43.316646575928" lon="-7.6270351409912">
        <ele>487</ele>
        <time>2019-09-11T10:11:35+00:00</time>
      </trkpt>
      <trkpt lat="43.316646575928" lon="-7.6270351409912">
        <ele>487</ele>
        <time>2019-09-11T10:11:36+00:00</time>
      </trkpt>
      <trkpt lat="43.316646575928" lon="-7.6270351409912">
        <ele>487</ele>
        <time>2019-09-11T10:11:37+00:00</time>
      </trkpt>
      <trkpt lat="43.316646575928" lon="-7.6270351409912">
        <ele>487</ele>
        <time>2019-09-11T10:11:38+00:00</time>
      </trkpt>
      <trkpt lat="43.316646575928" lon="-7.6270351409912">
        <ele>487</ele>
        <time>2019-09-11T10:11:39+00:00</time>
      </trkpt>
      <trkpt lat="43.316646575928" lon="-7.6270351409912">
        <ele>487</ele>
        <time>2019-09-11T10:11:41+00:00</time>
      </trkpt>
      <trkpt lat="43.316646575928" lon="-7.6270351409912">
        <ele>487</ele>
        <time>2019-09-11T10:11:42+00:00</time>
      </trkpt>
      <trkpt lat="43.316646575928" lon="-7.6270351409912">
        <ele>487</ele>
        <time>2019-09-11T10:11:43+00:00</time>
      </trkpt>
      <trkpt lat="43.316646575928" lon="-7.6270351409912">
        <ele>487</ele>
        <time>2019-09-11T10:11:44+00:00</time>
      </trkpt>
      <trkpt lat="43.316646575928" lon="-7.6270351409912">
        <ele>487</ele>
        <time>2019-09-11T10:11:45+00:00</time>
      </trkpt>
      <trkpt lat="43.316646575928" lon="-7.6270351409912">
        <ele>487</ele>
        <time>2019-09-11T10:11:46+00:00</time>
      </trkpt>
      <trkpt lat="43.316646575928" lon="-7.6270351409912">
        <ele>487</ele>
        <time>2019-09-11T10:11:47+00:00</time>
      </trkpt>
      <trkpt lat="43.316646575928" lon="-7.6270351409912">
        <ele>487</ele>
        <time>2019-09-11T10:11:48+00:00</time>
      </trkpt>
      <trkpt lat="43.316646575928" lon="-7.6270351409912">
        <ele>487</ele>
        <time>2019-09-11T10:11:49+00:00</time>
      </trkpt>
      <trkpt lat="43.316646575928" lon="-7.6270351409912">
        <ele>487</ele>
        <time>2019-09-11T10:11:50+00:00</time>
      </trkpt>
      <trkpt lat="43.31664276123" lon="-7.6270251274109">
        <ele>488</ele>
        <time>2019-09-11T10:11:51+00:00</time>
      </trkpt>
      <trkpt lat="43.316654205322" lon="-7.6270265579224">
        <ele>488</ele>
        <time>2019-09-11T10:11:53+00:00</time>
      </trkpt>
      <trkpt lat="43.316661834717" lon="-7.6270232200623">
        <ele>488</ele>
        <time>2019-09-11T10:11:54+00:00</time>
      </trkpt>
      <trkpt lat="43.316665649414" lon="-7.6270198822021">
        <ele>488</ele>
        <time>2019-09-11T10:11:55+00:00</time>
      </trkpt>
      <trkpt lat="43.316669464111" lon="-7.6270132064819">
        <ele>488</ele>
        <time>2019-09-11T10:11:57+00:00</time>
      </trkpt>
      <trkpt lat="43.316669464111" lon="-7.6270132064819">
        <ele>488</ele>
        <time>2019-09-11T10:11:58+00:00</time>
      </trkpt>
      <trkpt lat="43.316665649414" lon="-7.6270117759705">
        <ele>488</ele>
        <time>2019-09-11T10:11:59+00:00</time>
      </trkpt>
      <trkpt lat="43.316669464111" lon="-7.6270051002502">
        <ele>488</ele>
        <time>2019-09-11T10:12:00+00:00</time>
      </trkpt>
      <trkpt lat="43.316673278809" lon="-7.6270017623901">
        <ele>488</ele>
        <time>2019-09-11T10:12:01+00:00</time>
      </trkpt>
      <trkpt lat="43.316673278809" lon="-7.6270017623901">
        <ele>488</ele>
        <time>2019-09-11T10:12:03+00:00</time>
      </trkpt>
      <trkpt lat="43.316673278809" lon="-7.6270017623901">
        <ele>488</ele>
        <time>2019-09-11T10:12:04+00:00</time>
      </trkpt>
      <trkpt lat="43.316673278809" lon="-7.6270017623901">
        <ele>488</ele>
        <time>2019-09-11T10:12:05+00:00</time>
      </trkpt>
      <trkpt lat="43.316673278809" lon="-7.6270017623901">
        <ele>488</ele>
        <time>2019-09-11T10:12:06+00:00</time>
      </trkpt>
      <trkpt lat="43.316673278809" lon="-7.6270017623901">
        <ele>488</ele>
        <time>2019-09-11T10:12:07+00:00</time>
      </trkpt>
      <trkpt lat="43.316677093506" lon="-7.6269965171814">
        <ele>488</ele>
        <time>2019-09-11T10:12:08+00:00</time>
      </trkpt>
      <trkpt lat="43.316688537598" lon="-7.6269931793213">
        <ele>488</ele>
        <time>2019-09-11T10:12:09+00:00</time>
      </trkpt>
      <trkpt lat="43.316696166992" lon="-7.6269884109497">
        <ele>488</ele>
        <time>2019-09-11T10:12:10+00:00</time>
      </trkpt>
      <trkpt lat="43.316711425781" lon="-7.626983165741">
        <ele>488</ele>
        <time>2019-09-11T10:12:11+00:00</time>
      </trkpt>
      <trkpt lat="43.316715240479" lon="-7.6269817352295">
        <ele>488</ele>
        <time>2019-09-11T10:12:12+00:00</time>
      </trkpt>
      <trkpt lat="43.31672668457" lon="-7.6269798278809">
        <ele>488</ele>
        <time>2019-09-11T10:12:13+00:00</time>
      </trkpt>
      <trkpt lat="43.31672668457" lon="-7.6269783973694">
        <ele>487</ele>
        <time>2019-09-11T10:12:14+00:00</time>
      </trkpt>
      <trkpt lat="43.316734313965" lon="-7.6269731521606">
        <ele>487</ele>
        <time>2019-09-11T10:12:15+00:00</time>
      </trkpt>
      <trkpt lat="43.316741943359" lon="-7.6269717216492">
        <ele>487</ele>
        <time>2019-09-11T10:12:16+00:00</time>
      </trkpt>
      <trkpt lat="43.316753387451" lon="-7.6269731521606">
        <ele>487</ele>
        <time>2019-09-11T10:12:17+00:00</time>
      </trkpt>
      <trkpt lat="43.316761016846" lon="-7.6269731521606">
        <ele>487</ele>
        <time>2019-09-11T10:12:18+00:00</time>
      </trkpt>
      <trkpt lat="43.316772460938" lon="-7.6269731521606">
        <ele>487</ele>
        <time>2019-09-11T10:12:19+00:00</time>
      </trkpt>
      <trkpt lat="43.316776275635" lon="-7.6269664764404">
        <ele>487</ele>
        <time>2019-09-11T10:12:20+00:00</time>
      </trkpt>
      <trkpt lat="43.316772460938" lon="-7.6269664764404">
        <ele>487</ele>
        <time>2019-09-11T10:12:21+00:00</time>
      </trkpt>
      <trkpt lat="43.316772460938" lon="-7.6269631385803">
        <ele>487</ele>
        <time>2019-09-11T10:12:22+00:00</time>
      </trkpt>
      <trkpt lat="43.316772460938" lon="-7.6269617080688">
        <ele>486</ele>
        <time>2019-09-11T10:12:23+00:00</time>
      </trkpt>
      <trkpt lat="43.31676864624" lon="-7.6269631385803">
        <ele>486</ele>
        <time>2019-09-11T10:12:24+00:00</time>
      </trkpt>
      <trkpt lat="43.316764831543" lon="-7.6269717216492">
        <ele>486</ele>
        <time>2019-09-11T10:12:25+00:00</time>
      </trkpt>
      <trkpt lat="43.316764831543" lon="-7.6269750595093">
        <ele>486</ele>
        <time>2019-09-11T10:12:26+00:00</time>
      </trkpt>
      <trkpt lat="43.316764831543" lon="-7.6269764900208">
        <ele>486</ele>
        <time>2019-09-11T10:12:27+00:00</time>
      </trkpt>
      <trkpt lat="43.316764831543" lon="-7.6269783973694">
        <ele>487</ele>
        <time>2019-09-11T10:12:28+00:00</time>
      </trkpt>
      <trkpt lat="43.316764831543" lon="-7.6269731521606">
        <ele>486</ele>
        <time>2019-09-11T10:12:29+00:00</time>
      </trkpt>
      <trkpt lat="43.316764831543" lon="-7.6269683837891">
        <ele>486</ele>
        <time>2019-09-11T10:12:30+00:00</time>
      </trkpt>
      <trkpt lat="43.316772460938" lon="-7.6269664764404">
        <ele>486</ele>
        <time>2019-09-11T10:12:31+00:00</time>
      </trkpt>
      <trkpt lat="43.316780090332" lon="-7.6269683837891">
        <ele>486</ele>
        <time>2019-09-11T10:12:32+00:00</time>
      </trkpt>
      <trkpt lat="43.316783905029" lon="-7.6269683837891">
        <ele>486</ele>
        <time>2019-09-11T10:12:33+00:00</time>
      </trkpt>
      <trkpt lat="43.316791534424" lon="-7.6269717216492">
        <ele>486</ele>
        <time>2019-09-11T10:12:34+00:00</time>
      </trkpt>
      <trkpt lat="43.316795349121" lon="-7.6269731521606">
        <ele>486</ele>
        <time>2019-09-11T10:12:35+00:00</time>
      </trkpt>
      <trkpt lat="43.316802978516" lon="-7.6269783973694">
        <ele>486</ele>
        <time>2019-09-11T10:12:36+00:00</time>
      </trkpt>
      <trkpt lat="43.31681060791" lon="-7.6269798278809">
        <ele>486</ele>
        <time>2019-09-11T10:12:37+00:00</time>
      </trkpt>
      <trkpt lat="43.316818237305" lon="-7.6269898414612">
        <ele>486</ele>
        <time>2019-09-11T10:12:38+00:00</time>
      </trkpt>
      <trkpt lat="43.316825866699" lon="-7.6269931793213">
        <ele>486</ele>
        <time>2019-09-11T10:12:39+00:00</time>
      </trkpt>
      <trkpt lat="43.316833496094" lon="-7.6269898414612">
        <ele>486</ele>
        <time>2019-09-11T10:12:40+00:00</time>
      </trkpt>
      <trkpt lat="43.316837310791" lon="-7.626983165741">
        <ele>486</ele>
        <time>2019-09-11T10:12:41+00:00</time>
      </trkpt>
      <trkpt lat="43.316837310791" lon="-7.6269683837891">
        <ele>486</ele>
        <time>2019-09-11T10:12:42+00:00</time>
      </trkpt>
      <trkpt lat="43.316833496094" lon="-7.6269497871399">
        <ele>486</ele>
        <time>2019-09-11T10:12:43+00:00</time>
      </trkpt>
      <trkpt lat="43.316833496094" lon="-7.626935005188">
        <ele>486</ele>
        <time>2019-09-11T10:12:44+00:00</time>
      </trkpt>
      <trkpt lat="43.316833496094" lon="-7.6269235610962">
        <ele>486</ele>
        <time>2019-09-11T10:12:45+00:00</time>
      </trkpt>
      <trkpt lat="43.316844940186" lon="-7.6268649101257">
        <ele>486</ele>
        <time>2019-09-11T10:12:49+00:00</time>
      </trkpt>
      <trkpt lat="43.31685256958" lon="-7.6268582344055">
        <ele>486</ele>
        <time>2019-09-11T10:12:50+00:00</time>
      </trkpt>
      <trkpt lat="43.31685256958" lon="-7.626856803894">
        <ele>486</ele>
        <time>2019-09-11T10:12:51+00:00</time>
      </trkpt>
      <trkpt lat="43.31685256958" lon="-7.6268534660339">
        <ele>486</ele>
        <time>2019-09-11T10:12:52+00:00</time>
      </trkpt>
      <trkpt lat="43.31685256958" lon="-7.6268534660339">
        <ele>486</ele>
        <time>2019-09-11T10:12:53+00:00</time>
      </trkpt>
      <trkpt lat="43.316848754883" lon="-7.6268534660339">
        <ele>486</ele>
        <time>2019-09-11T10:12:54+00:00</time>
      </trkpt>
      <trkpt lat="43.316844940186" lon="-7.6268548965454">
        <ele>486</ele>
        <time>2019-09-11T10:12:55+00:00</time>
      </trkpt>
      <trkpt lat="43.316844940186" lon="-7.6268582344055">
        <ele>486</ele>
        <time>2019-09-11T10:12:56+00:00</time>
      </trkpt>
      <trkpt lat="43.316841125488" lon="-7.6268634796143">
        <ele>486</ele>
        <time>2019-09-11T10:12:57+00:00</time>
      </trkpt>
      <trkpt lat="43.316829681396" lon="-7.6268782615662">
        <ele>486</ele>
        <time>2019-09-11T10:12:58+00:00</time>
      </trkpt>
      <trkpt lat="43.316825866699" lon="-7.6268901824951">
        <ele>486</ele>
        <time>2019-09-11T10:12:59+00:00</time>
      </trkpt>
      <trkpt lat="43.316822052002" lon="-7.6269016265869">
        <ele>486</ele>
        <time>2019-09-11T10:13:00+00:00</time>
      </trkpt>
      <trkpt lat="43.316822052002" lon="-7.6269149780273">
        <ele>486</ele>
        <time>2019-09-11T10:13:01+00:00</time>
      </trkpt>
      <trkpt lat="43.316822052002" lon="-7.6269316673279">
        <ele>486</ele>
        <time>2019-09-11T10:13:02+00:00</time>
      </trkpt>
      <trkpt lat="43.316822052002" lon="-7.6269464492798">
        <ele>486</ele>
        <time>2019-09-11T10:13:03+00:00</time>
      </trkpt>
      <trkpt lat="43.316822052002" lon="-7.6269617080688">
        <ele>486</ele>
        <time>2019-09-11T10:13:04+00:00</time>
      </trkpt>
      <trkpt lat="43.316818237305" lon="-7.6269783973694">
        <ele>486</ele>
        <time>2019-09-11T10:13:05+00:00</time>
      </trkpt>
      <trkpt lat="43.31681060791" lon="-7.6270117759705">
        <ele>486</ele>
        <time>2019-09-11T10:13:07+00:00</time>
      </trkpt>
      <trkpt lat="43.316806793213" lon="-7.6270298957825">
        <ele>486</ele>
        <time>2019-09-11T10:13:08+00:00</time>
      </trkpt>
      <trkpt lat="43.316806793213" lon="-7.6270499229431">
        <ele>486</ele>
        <time>2019-09-11T10:13:09+00:00</time>
      </trkpt>
      <trkpt lat="43.316806793213" lon="-7.6270651817322">
        <ele>486</ele>
        <time>2019-09-11T10:13:10+00:00</time>
      </trkpt>
      <trkpt lat="43.316802978516" lon="-7.6270866394043">
        <ele>486</ele>
        <time>2019-09-11T10:13:11+00:00</time>
      </trkpt>
      <trkpt lat="43.316802978516" lon="-7.6270999908447">
        <ele>486</ele>
        <time>2019-09-11T10:13:12+00:00</time>
      </trkpt>
      <trkpt lat="43.316802978516" lon="-7.6271114349365">
        <ele>486</ele>
        <time>2019-09-11T10:13:13+00:00</time>
      </trkpt>
      <trkpt lat="43.316799163818" lon="-7.6271266937256">
        <ele>486</ele>
        <time>2019-09-11T10:13:14+00:00</time>
      </trkpt>
      <trkpt lat="43.316795349121" lon="-7.6271433830261">
        <ele>486</ele>
        <time>2019-09-11T10:13:15+00:00</time>
      </trkpt>
      <trkpt lat="43.316795349121" lon="-7.6271634101868">
        <ele>486</ele>
        <time>2019-09-11T10:13:16+00:00</time>
      </trkpt>
      <trkpt lat="43.316791534424" lon="-7.6271834373474">
        <ele>486</ele>
        <time>2019-09-11T10:13:17+00:00</time>
      </trkpt>
      <trkpt lat="43.316787719727" lon="-7.6272001266479">
        <ele>486</ele>
        <time>2019-09-11T10:13:18+00:00</time>
      </trkpt>
      <trkpt lat="43.316783905029" lon="-7.6272149085999">
        <ele>486</ele>
        <time>2019-09-11T10:13:19+00:00</time>
      </trkpt>
      <trkpt lat="43.316780090332" lon="-7.6272301673889">
        <ele>486</ele>
        <time>2019-09-11T10:13:20+00:00</time>
      </trkpt>
      <trkpt lat="43.316780090332" lon="-7.6272416114807">
        <ele>486</ele>
        <time>2019-09-11T10:13:21+00:00</time>
      </trkpt>
      <trkpt lat="43.316780090332" lon="-7.6272568702698">
        <ele>486</ele>
        <time>2019-09-11T10:13:22+00:00</time>
      </trkpt>
      <trkpt lat="43.316776275635" lon="-7.6272749900818">
        <ele>486</ele>
        <time>2019-09-11T10:13:23+00:00</time>
      </trkpt>
      <trkpt lat="43.316772460938" lon="-7.6272950172424">
        <ele>486</ele>
        <time>2019-09-11T10:13:24+00:00</time>
      </trkpt>
      <trkpt lat="43.31676864624" lon="-7.627311706543">
        <ele>486</ele>
        <time>2019-09-11T10:13:25+00:00</time>
      </trkpt>
      <trkpt lat="43.316764831543" lon="-7.6273250579834">
        <ele>486</ele>
        <time>2019-09-11T10:13:26+00:00</time>
      </trkpt>
      <trkpt lat="43.316764831543" lon="-7.6273384094238">
        <ele>486</ele>
        <time>2019-09-11T10:13:27+00:00</time>
      </trkpt>
      <trkpt lat="43.316761016846" lon="-7.6273550987244">
        <ele>486</ele>
        <time>2019-09-11T10:13:28+00:00</time>
      </trkpt>
      <trkpt lat="43.316757202148" lon="-7.6273698806763">
        <ele>486</ele>
        <time>2019-09-11T10:13:29+00:00</time>
      </trkpt>
      <trkpt lat="43.316757202148" lon="-7.6273851394653">
        <ele>487</ele>
        <time>2019-09-11T10:13:30+00:00</time>
      </trkpt>
      <trkpt lat="43.316753387451" lon="-7.6273984909058">
        <ele>487</ele>
        <time>2019-09-11T10:13:31+00:00</time>
      </trkpt>
      <trkpt lat="43.316749572754" lon="-7.6274099349976">
        <ele>487</ele>
        <time>2019-09-11T10:13:32+00:00</time>
      </trkpt>
      <trkpt lat="43.316745758057" lon="-7.627423286438">
        <ele>487</ele>
        <time>2019-09-11T10:13:33+00:00</time>
      </trkpt>
      <trkpt lat="43.316741943359" lon="-7.6274366378784">
        <ele>487</ele>
        <time>2019-09-11T10:13:34+00:00</time>
      </trkpt>
      <trkpt lat="43.316741943359" lon="-7.6274499893188">
        <ele>487</ele>
        <time>2019-09-11T10:13:35+00:00</time>
      </trkpt>
      <trkpt lat="43.316738128662" lon="-7.6274633407593">
        <ele>487</ele>
        <time>2019-09-11T10:13:36+00:00</time>
      </trkpt>
      <trkpt lat="43.316738128662" lon="-7.6274781227112">
        <ele>488</ele>
        <time>2019-09-11T10:13:37+00:00</time>
      </trkpt>
      <trkpt lat="43.316734313965" lon="-7.6274914741516">
        <ele>488</ele>
        <time>2019-09-11T10:13:38+00:00</time>
      </trkpt>
      <trkpt lat="43.316734313965" lon="-7.6274981498718">
        <ele>488</ele>
        <time>2019-09-11T10:13:39+00:00</time>
      </trkpt>
      <trkpt lat="43.31672668457" lon="-7.6275081634521">
        <ele>488</ele>
        <time>2019-09-11T10:13:40+00:00</time>
      </trkpt>
      <trkpt lat="43.316722869873" lon="-7.627516746521">
        <ele>488</ele>
        <time>2019-09-11T10:13:41+00:00</time>
      </trkpt>
      <trkpt lat="43.316719055176" lon="-7.6275267601013">
        <ele>487</ele>
        <time>2019-09-11T10:13:42+00:00</time>
      </trkpt>
      <trkpt lat="43.316715240479" lon="-7.6275367736816">
        <ele>487</ele>
        <time>2019-09-11T10:13:43+00:00</time>
      </trkpt>
      <trkpt lat="43.316711425781" lon="-7.627546787262">
        <ele>487</ele>
        <time>2019-09-11T10:13:44+00:00</time>
      </trkpt>
      <trkpt lat="43.316707611084" lon="-7.6275582313538">
        <ele>487</ele>
        <time>2019-09-11T10:13:45+00:00</time>
      </trkpt>
      <trkpt lat="43.316707611084" lon="-7.6275768280029">
        <ele>487</ele>
        <time>2019-09-11T10:13:46+00:00</time>
      </trkpt>
      <trkpt lat="43.316703796387" lon="-7.6275949478149">
        <ele>487</ele>
        <time>2019-09-11T10:13:47+00:00</time>
      </trkpt>
      <trkpt lat="43.316699981689" lon="-7.627610206604">
        <ele>487</ele>
        <time>2019-09-11T10:13:48+00:00</time>
      </trkpt>
      <trkpt lat="43.316696166992" lon="-7.6276235580444">
        <ele>486</ele>
        <time>2019-09-11T10:13:49+00:00</time>
      </trkpt>
      <trkpt lat="43.316692352295" lon="-7.6276383399963">
        <ele>486</ele>
        <time>2019-09-11T10:13:50+00:00</time>
      </trkpt>
      <trkpt lat="43.316692352295" lon="-7.6276531219482">
        <ele>486</ele>
        <time>2019-09-11T10:13:51+00:00</time>
      </trkpt>
      <trkpt lat="43.316688537598" lon="-7.6276664733887">
        <ele>486</ele>
        <time>2019-09-11T10:13:52+00:00</time>
      </trkpt>
      <trkpt lat="43.316688537598" lon="-7.6276798248291">
        <ele>486</ele>
        <time>2019-09-11T10:13:53+00:00</time>
      </trkpt>
      <trkpt lat="43.3166847229" lon="-7.6276931762695">
        <ele>486</ele>
        <time>2019-09-11T10:13:54+00:00</time>
      </trkpt>
      <trkpt lat="43.3166847229" lon="-7.6277084350586">
        <ele>486</ele>
        <time>2019-09-11T10:13:55+00:00</time>
      </trkpt>
      <trkpt lat="43.316680908203" lon="-7.6277198791504">
        <ele>486</ele>
        <time>2019-09-11T10:13:56+00:00</time>
      </trkpt>
      <trkpt lat="43.316677093506" lon="-7.6277318000793">
        <ele>486</ele>
        <time>2019-09-11T10:13:57+00:00</time>
      </trkpt>
      <trkpt lat="43.316673278809" lon="-7.6277418136597">
        <ele>485</ele>
        <time>2019-09-11T10:13:58+00:00</time>
      </trkpt>
      <trkpt lat="43.316665649414" lon="-7.62775182724">
        <ele>485</ele>
        <time>2019-09-11T10:13:59+00:00</time>
      </trkpt>
      <trkpt lat="43.316661834717" lon="-7.6277632713318">
        <ele>485</ele>
        <time>2019-09-11T10:14:00+00:00</time>
      </trkpt>
      <trkpt lat="43.316661834717" lon="-7.6277766227722">
        <ele>485</ele>
        <time>2019-09-11T10:14:01+00:00</time>
      </trkpt>
      <trkpt lat="43.31665802002" lon="-7.6277885437012">
        <ele>485</ele>
        <time>2019-09-11T10:14:02+00:00</time>
      </trkpt>
      <trkpt lat="43.31665802002" lon="-7.627799987793">
        <ele>485</ele>
        <time>2019-09-11T10:14:03+00:00</time>
      </trkpt>
      <trkpt lat="43.316654205322" lon="-7.6278133392334">
        <ele>485</ele>
        <time>2019-09-11T10:14:04+00:00</time>
      </trkpt>
      <trkpt lat="43.316646575928" lon="-7.6278266906738">
        <ele>485</ele>
        <time>2019-09-11T10:14:05+00:00</time>
      </trkpt>
      <trkpt lat="43.31664276123" lon="-7.6278414726257">
        <ele>485</ele>
        <time>2019-09-11T10:14:06+00:00</time>
      </trkpt>
      <trkpt lat="43.316638946533" lon="-7.6278548240662">
        <ele>484</ele>
        <time>2019-09-11T10:14:07+00:00</time>
      </trkpt>
      <trkpt lat="43.316638946533" lon="-7.6278648376465">
        <ele>484</ele>
        <time>2019-09-11T10:14:08+00:00</time>
      </trkpt>
      <trkpt lat="43.316635131836" lon="-7.6278800964355">
        <ele>484</ele>
        <time>2019-09-11T10:14:09+00:00</time>
      </trkpt>
      <trkpt lat="43.316631317139" lon="-7.6278882026672">
        <ele>484</ele>
        <time>2019-09-11T10:14:10+00:00</time>
      </trkpt>
      <trkpt lat="43.316635131836" lon="-7.6278967857361">
        <ele>484</ele>
        <time>2019-09-11T10:14:11+00:00</time>
      </trkpt>
      <trkpt lat="43.316631317139" lon="-7.627911567688">
        <ele>484</ele>
        <time>2019-09-11T10:14:12+00:00</time>
      </trkpt>
      <trkpt lat="43.316627502441" lon="-7.6279249191284">
        <ele>484</ele>
        <time>2019-09-11T10:14:13+00:00</time>
      </trkpt>
      <trkpt lat="43.316619873047" lon="-7.6279349327087">
        <ele>484</ele>
        <time>2019-09-11T10:14:14+00:00</time>
      </trkpt>
      <trkpt lat="43.31661605835" lon="-7.6279468536377">
        <ele>484</ele>
        <time>2019-09-11T10:14:15+00:00</time>
      </trkpt>
      <trkpt lat="43.316612243652" lon="-7.6279616355896">
        <ele>484</ele>
        <time>2019-09-11T10:14:16+00:00</time>
      </trkpt>
      <trkpt lat="43.316608428955" lon="-7.6279783248901">
        <ele>484</ele>
        <time>2019-09-11T10:14:17+00:00</time>
      </trkpt>
      <trkpt lat="43.316608428955" lon="-7.6279950141907">
        <ele>484</ele>
        <time>2019-09-11T10:14:18+00:00</time>
      </trkpt>
      <trkpt lat="43.316608428955" lon="-7.6280117034912">
        <ele>484</ele>
        <time>2019-09-11T10:14:19+00:00</time>
      </trkpt>
      <trkpt lat="43.316608428955" lon="-7.6280250549316">
        <ele>484</ele>
        <time>2019-09-11T10:14:20+00:00</time>
      </trkpt>
      <trkpt lat="43.316600799561" lon="-7.6280398368835">
        <ele>485</ele>
        <time>2019-09-11T10:14:21+00:00</time>
      </trkpt>
      <trkpt lat="43.316593170166" lon="-7.6280565261841">
        <ele>485</ele>
        <time>2019-09-11T10:14:22+00:00</time>
      </trkpt>
      <trkpt lat="43.316585540771" lon="-7.6280732154846">
        <ele>485</ele>
        <time>2019-09-11T10:14:23+00:00</time>
      </trkpt>
      <trkpt lat="43.316577911377" lon="-7.6280899047852">
        <ele>485</ele>
        <time>2019-09-11T10:14:24+00:00</time>
      </trkpt>
      <trkpt lat="43.31657409668" lon="-7.6281032562256">
        <ele>485</ele>
        <time>2019-09-11T10:14:25+00:00</time>
      </trkpt>
      <trkpt lat="43.316566467285" lon="-7.6281151771545">
        <ele>485</ele>
        <time>2019-09-11T10:14:26+00:00</time>
      </trkpt>
      <trkpt lat="43.316562652588" lon="-7.6281332969666">
        <ele>485</ele>
        <time>2019-09-11T10:14:27+00:00</time>
      </trkpt>
      <trkpt lat="43.316558837891" lon="-7.6281552314758">
        <ele>486</ele>
        <time>2019-09-11T10:14:28+00:00</time>
      </trkpt>
      <trkpt lat="43.316555023193" lon="-7.6281747817993">
        <ele>486</ele>
        <time>2019-09-11T10:14:29+00:00</time>
      </trkpt>
      <trkpt lat="43.316551208496" lon="-7.6281981468201">
        <ele>486</ele>
        <time>2019-09-11T10:14:30+00:00</time>
      </trkpt>
      <trkpt lat="43.316547393799" lon="-7.6282134056091">
        <ele>486</ele>
        <time>2019-09-11T10:14:31+00:00</time>
      </trkpt>
      <trkpt lat="43.316543579102" lon="-7.6282300949097">
        <ele>486</ele>
        <time>2019-09-11T10:14:32+00:00</time>
      </trkpt>
      <trkpt lat="43.316539764404" lon="-7.6282467842102">
        <ele>486</ele>
        <time>2019-09-11T10:14:33+00:00</time>
      </trkpt>
      <trkpt lat="43.316535949707" lon="-7.6282601356506">
        <ele>486</ele>
        <time>2019-09-11T10:14:34+00:00</time>
      </trkpt>
      <trkpt lat="43.316535949707" lon="-7.6282715797424">
        <ele>486</ele>
        <time>2019-09-11T10:14:35+00:00</time>
      </trkpt>
      <trkpt lat="43.31653213501" lon="-7.6282835006714">
        <ele>486</ele>
        <time>2019-09-11T10:14:36+00:00</time>
      </trkpt>
      <trkpt lat="43.316528320312" lon="-7.6282968521118">
        <ele>486</ele>
        <time>2019-09-11T10:14:37+00:00</time>
      </trkpt>
      <trkpt lat="43.316524505615" lon="-7.6283082962036">
        <ele>486</ele>
        <time>2019-09-11T10:14:38+00:00</time>
      </trkpt>
      <trkpt lat="43.316516876221" lon="-7.6283202171326">
        <ele>486</ele>
        <time>2019-09-11T10:14:39+00:00</time>
      </trkpt>
      <trkpt lat="43.316513061523" lon="-7.6283316612244">
        <ele>486</ele>
        <time>2019-09-11T10:14:40+00:00</time>
      </trkpt>
      <trkpt lat="43.316509246826" lon="-7.6283450126648">
        <ele>486</ele>
        <time>2019-09-11T10:14:41+00:00</time>
      </trkpt>
      <trkpt lat="43.316505432129" lon="-7.6283583641052">
        <ele>486</ele>
        <time>2019-09-11T10:14:42+00:00</time>
      </trkpt>
      <trkpt lat="43.316501617432" lon="-7.6283750534058">
        <ele>486</ele>
        <time>2019-09-11T10:14:43+00:00</time>
      </trkpt>
      <trkpt lat="43.316501617432" lon="-7.6283917427063">
        <ele>485</ele>
        <time>2019-09-11T10:14:44+00:00</time>
      </trkpt>
      <trkpt lat="43.316501617432" lon="-7.6284050941467">
        <ele>485</ele>
        <time>2019-09-11T10:14:45+00:00</time>
      </trkpt>
      <trkpt lat="43.316497802734" lon="-7.6284165382385">
        <ele>485</ele>
        <time>2019-09-11T10:14:46+00:00</time>
      </trkpt>
      <trkpt lat="43.31649017334" lon="-7.6284232139587">
        <ele>485</ele>
        <time>2019-09-11T10:14:47+00:00</time>
      </trkpt>
      <trkpt lat="43.31649017334" lon="-7.6284317970276">
        <ele>485</ele>
        <time>2019-09-11T10:14:48+00:00</time>
      </trkpt>
      <trkpt lat="43.316471099854" lon="-7.6284332275391">
        <ele>485</ele>
        <time>2019-09-11T10:14:49+00:00</time>
      </trkpt>
      <trkpt lat="43.316463470459" lon="-7.6284332275391">
        <ele>485</ele>
        <time>2019-09-11T10:14:50+00:00</time>
      </trkpt>
      <trkpt lat="43.316478729248" lon="-7.628556728363">
        <ele>485</ele>
        <time>2019-09-11T10:14:51+00:00</time>
      </trkpt>
      <trkpt lat="43.316482543945" lon="-7.628556728363">
        <ele>485</ele>
        <time>2019-09-11T10:14:52+00:00</time>
      </trkpt>
      <trkpt lat="43.31649017334" lon="-7.6285634040833">
        <ele>485</ele>
        <time>2019-09-11T10:14:53+00:00</time>
      </trkpt>
      <trkpt lat="43.316463470459" lon="-7.628523349762">
        <ele>485</ele>
        <time>2019-09-11T10:14:54+00:00</time>
      </trkpt>
      <trkpt lat="43.316467285156" lon="-7.6285181045532">
        <ele>485</ele>
        <time>2019-09-11T10:14:55+00:00</time>
      </trkpt>
      <trkpt lat="43.316474914551" lon="-7.6285266876221">
        <ele>485</ele>
        <time>2019-09-11T10:14:56+00:00</time>
      </trkpt>
      <trkpt lat="43.316474914551" lon="-7.6285433769226">
        <ele>485</ele>
        <time>2019-09-11T10:14:57+00:00</time>
      </trkpt>
      <trkpt lat="43.316482543945" lon="-7.6285600662231">
        <ele>485</ele>
        <time>2019-09-11T10:14:58+00:00</time>
      </trkpt>
      <trkpt lat="43.31649017334" lon="-7.6285715103149">
        <ele>485</ele>
        <time>2019-09-11T10:14:59+00:00</time>
      </trkpt>
      <trkpt lat="43.316497802734" lon="-7.6285834312439">
        <ele>485</ele>
        <time>2019-09-11T10:15:00+00:00</time>
      </trkpt>
      <trkpt lat="43.316497802734" lon="-7.6285948753357">
        <ele>484</ele>
        <time>2019-09-11T10:15:01+00:00</time>
      </trkpt>
      <trkpt lat="43.316501617432" lon="-7.6286082267761">
        <ele>484</ele>
        <time>2019-09-11T10:15:02+00:00</time>
      </trkpt>
      <trkpt lat="43.316497802734" lon="-7.6286201477051">
        <ele>484</ele>
        <time>2019-09-11T10:15:03+00:00</time>
      </trkpt>
      <trkpt lat="43.316497802734" lon="-7.628634929657">
        <ele>484</ele>
        <time>2019-09-11T10:15:04+00:00</time>
      </trkpt>
      <trkpt lat="43.316497802734" lon="-7.6286449432373">
        <ele>484</ele>
        <time>2019-09-11T10:15:05+00:00</time>
      </trkpt>
      <trkpt lat="43.316493988037" lon="-7.6286549568176">
        <ele>484</ele>
        <time>2019-09-11T10:15:06+00:00</time>
      </trkpt>
      <trkpt lat="43.31649017334" lon="-7.6286649703979">
        <ele>484</ele>
        <time>2019-09-11T10:15:07+00:00</time>
      </trkpt>
      <trkpt lat="43.31649017334" lon="-7.6286749839783">
        <ele>484</ele>
        <time>2019-09-11T10:15:08+00:00</time>
      </trkpt>
      <trkpt lat="43.316486358643" lon="-7.6286883354187">
        <ele>484</ele>
        <time>2019-09-11T10:15:09+00:00</time>
      </trkpt>
      <trkpt lat="43.316486358643" lon="-7.6287031173706">
        <ele>484</ele>
        <time>2019-09-11T10:15:10+00:00</time>
      </trkpt>
      <trkpt lat="43.316482543945" lon="-7.6287131309509">
        <ele>484</ele>
        <time>2019-09-11T10:15:11+00:00</time>
      </trkpt>
      <trkpt lat="43.316482543945" lon="-7.6287231445312">
        <ele>484</ele>
        <time>2019-09-11T10:15:12+00:00</time>
      </trkpt>
      <trkpt lat="43.316482543945" lon="-7.6287331581116">
        <ele>484</ele>
        <time>2019-09-11T10:15:13+00:00</time>
      </trkpt>
      <trkpt lat="43.316478729248" lon="-7.6287450790405">
        <ele>484</ele>
        <time>2019-09-11T10:15:14+00:00</time>
      </trkpt>
      <trkpt lat="43.316474914551" lon="-7.6287617683411">
        <ele>483</ele>
        <time>2019-09-11T10:15:15+00:00</time>
      </trkpt>
      <trkpt lat="43.316474914551" lon="-7.6287817955017">
        <ele>483</ele>
        <time>2019-09-11T10:15:16+00:00</time>
      </trkpt>
      <trkpt lat="43.316467285156" lon="-7.6287999153137">
        <ele>484</ele>
        <time>2019-09-11T10:15:17+00:00</time>
      </trkpt>
      <trkpt lat="43.316459655762" lon="-7.6288132667542">
        <ele>483</ele>
        <time>2019-09-11T10:15:18+00:00</time>
      </trkpt>
      <trkpt lat="43.316459655762" lon="-7.6288299560547">
        <ele>484</ele>
        <time>2019-09-11T10:15:19+00:00</time>
      </trkpt>
      <trkpt lat="43.316455841064" lon="-7.6288452148438">
        <ele>483</ele>
        <time>2019-09-11T10:15:20+00:00</time>
      </trkpt>
      <trkpt lat="43.316452026367" lon="-7.6288599967957">
        <ele>483</ele>
        <time>2019-09-11T10:15:21+00:00</time>
      </trkpt>
      <trkpt lat="43.316452026367" lon="-7.628870010376">
        <ele>483</ele>
        <time>2019-09-11T10:15:22+00:00</time>
      </trkpt>
      <trkpt lat="43.31644821167" lon="-7.6288814544678">
        <ele>483</ele>
        <time>2019-09-11T10:15:23+00:00</time>
      </trkpt>
      <trkpt lat="43.31644821167" lon="-7.6288967132568">
        <ele>483</ele>
        <time>2019-09-11T10:15:24+00:00</time>
      </trkpt>
      <trkpt lat="43.316444396973" lon="-7.6289134025574">
        <ele>484</ele>
        <time>2019-09-11T10:15:25+00:00</time>
      </trkpt>
      <trkpt lat="43.316444396973" lon="-7.6289281845093">
        <ele>484</ele>
        <time>2019-09-11T10:15:26+00:00</time>
      </trkpt>
      <trkpt lat="43.316440582275" lon="-7.6289401054382">
        <ele>483</ele>
        <time>2019-09-11T10:15:27+00:00</time>
      </trkpt>
      <trkpt lat="43.316440582275" lon="-7.62895154953">
        <ele>483</ele>
        <time>2019-09-11T10:15:28+00:00</time>
      </trkpt>
      <trkpt lat="43.31644821167" lon="-7.6289668083191">
        <ele>483</ele>
        <time>2019-09-11T10:15:29+00:00</time>
      </trkpt>
      <trkpt lat="43.316452026367" lon="-7.628981590271">
        <ele>483</ele>
        <time>2019-09-11T10:15:30+00:00</time>
      </trkpt>
      <trkpt lat="43.316455841064" lon="-7.6289901733398">
        <ele>483</ele>
        <time>2019-09-11T10:15:31+00:00</time>
      </trkpt>
      <trkpt lat="43.316459655762" lon="-7.6290035247803">
        <ele>483</ele>
        <time>2019-09-11T10:15:32+00:00</time>
      </trkpt>
      <trkpt lat="43.316463470459" lon="-7.6290149688721">
        <ele>483</ele>
        <time>2019-09-11T10:15:33+00:00</time>
      </trkpt>
      <trkpt lat="43.316471099854" lon="-7.6290283203125">
        <ele>483</ele>
        <time>2019-09-11T10:15:34+00:00</time>
      </trkpt>
      <trkpt lat="43.316474914551" lon="-7.6290397644043">
        <ele>483</ele>
        <time>2019-09-11T10:15:35+00:00</time>
      </trkpt>
      <trkpt lat="43.316482543945" lon="-7.6290583610535">
        <ele>483</ele>
        <time>2019-09-11T10:15:36+00:00</time>
      </trkpt>
      <trkpt lat="43.316486358643" lon="-7.629075050354">
        <ele>483</ele>
        <time>2019-09-11T10:15:37+00:00</time>
      </trkpt>
      <trkpt lat="43.31649017334" lon="-7.6290898323059">
        <ele>483</ele>
        <time>2019-09-11T10:15:38+00:00</time>
      </trkpt>
      <trkpt lat="43.316493988037" lon="-7.6291017532349">
        <ele>482</ele>
        <time>2019-09-11T10:15:39+00:00</time>
      </trkpt>
      <trkpt lat="43.316497802734" lon="-7.6291084289551">
        <ele>482</ele>
        <time>2019-09-11T10:15:40+00:00</time>
      </trkpt>
      <trkpt lat="43.316493988037" lon="-7.6291198730469">
        <ele>482</ele>
        <time>2019-09-11T10:15:41+00:00</time>
      </trkpt>
      <trkpt lat="43.316501617432" lon="-7.6291284561157">
        <ele>482</ele>
        <time>2019-09-11T10:15:42+00:00</time>
      </trkpt>
      <trkpt lat="43.316501617432" lon="-7.6291365623474">
        <ele>482</ele>
        <time>2019-09-11T10:15:43+00:00</time>
      </trkpt>
      <trkpt lat="43.316505432129" lon="-7.6291451454163">
        <ele>482</ele>
        <time>2019-09-11T10:15:44+00:00</time>
      </trkpt>
      <trkpt lat="43.316505432129" lon="-7.6291532516479">
        <ele>482</ele>
        <time>2019-09-11T10:15:45+00:00</time>
      </trkpt>
      <trkpt lat="43.316509246826" lon="-7.6291651725769">
        <ele>482</ele>
        <time>2019-09-11T10:15:46+00:00</time>
      </trkpt>
      <trkpt lat="43.316513061523" lon="-7.6291732788086">
        <ele>482</ele>
        <time>2019-09-11T10:15:47+00:00</time>
      </trkpt>
      <trkpt lat="43.316516876221" lon="-7.6291851997375">
        <ele>482</ele>
        <time>2019-09-11T10:15:48+00:00</time>
      </trkpt>
      <trkpt lat="43.316516876221" lon="-7.6291952133179">
        <ele>482</ele>
        <time>2019-09-11T10:15:49+00:00</time>
      </trkpt>
      <trkpt lat="43.316520690918" lon="-7.6292052268982">
        <ele>482</ele>
        <time>2019-09-11T10:15:50+00:00</time>
      </trkpt>
      <trkpt lat="43.316520690918" lon="-7.6292147636414">
        <ele>482</ele>
        <time>2019-09-11T10:15:51+00:00</time>
      </trkpt>
      <trkpt lat="43.316520690918" lon="-7.6292200088501">
        <ele>482</ele>
        <time>2019-09-11T10:15:52+00:00</time>
      </trkpt>
      <trkpt lat="43.316520690918" lon="-7.6292247772217">
        <ele>482</ele>
        <time>2019-09-11T10:15:53+00:00</time>
      </trkpt>
      <trkpt lat="43.316524505615" lon="-7.6292281150818">
        <ele>482</ele>
        <time>2019-09-11T10:15:54+00:00</time>
      </trkpt>
      <trkpt lat="43.316528320312" lon="-7.6292266845703">
        <ele>482</ele>
        <time>2019-09-11T10:15:55+00:00</time>
      </trkpt>
      <trkpt lat="43.316528320312" lon="-7.6292233467102">
        <ele>482</ele>
        <time>2019-09-11T10:15:56+00:00</time>
      </trkpt>
      <trkpt lat="43.31653213501" lon="-7.6292281150818">
        <ele>482</ele>
        <time>2019-09-11T10:15:57+00:00</time>
      </trkpt>
      <trkpt lat="43.316528320312" lon="-7.6292314529419">
        <ele>482</ele>
        <time>2019-09-11T10:15:58+00:00</time>
      </trkpt>
      <trkpt lat="43.316520690918" lon="-7.6292314529419">
        <ele>482</ele>
        <time>2019-09-11T10:15:59+00:00</time>
      </trkpt>
      <trkpt lat="43.316516876221" lon="-7.6292314529419">
        <ele>482</ele>
        <time>2019-09-11T10:16:00+00:00</time>
      </trkpt>
      <trkpt lat="43.316516876221" lon="-7.6292333602905">
        <ele>482</ele>
        <time>2019-09-11T10:16:01+00:00</time>
      </trkpt>
      <trkpt lat="43.316516876221" lon="-7.6292333602905">
        <ele>482</ele>
        <time>2019-09-11T10:16:02+00:00</time>
      </trkpt>
      <trkpt lat="43.316516876221" lon="-7.6292333602905">
        <ele>482</ele>
        <time>2019-09-11T10:16:03+00:00</time>
      </trkpt>
      <trkpt lat="43.316516876221" lon="-7.6292333602905">
        <ele>482</ele>
        <time>2019-09-11T10:16:04+00:00</time>
      </trkpt>
      <trkpt lat="43.316516876221" lon="-7.6292333602905">
        <ele>482</ele>
        <time>2019-09-11T10:16:05+00:00</time>
      </trkpt>
      <trkpt lat="43.316516876221" lon="-7.6292581558228">
        <ele>482</ele>
        <time>2019-09-11T10:16:06+00:00</time>
      </trkpt>
      <trkpt lat="43.316516876221" lon="-7.6292634010315">
        <ele>482</ele>
        <time>2019-09-11T10:16:07+00:00</time>
      </trkpt>
      <trkpt lat="43.316516876221" lon="-7.6292734146118">
        <ele>482</ele>
        <time>2019-09-11T10:16:08+00:00</time>
      </trkpt>
      <trkpt lat="43.316516876221" lon="-7.6292867660522">
        <ele>482</ele>
        <time>2019-09-11T10:16:09+00:00</time>
      </trkpt>
      <trkpt lat="43.316513061523" lon="-7.6293001174927">
        <ele>482</ele>
        <time>2019-09-11T10:16:10+00:00</time>
      </trkpt>
      <trkpt lat="43.316513061523" lon="-7.6293115615845">
        <ele>482</ele>
        <time>2019-09-11T10:16:11+00:00</time>
      </trkpt>
      <trkpt lat="43.316513061523" lon="-7.6293268203735">
        <ele>482</ele>
        <time>2019-09-11T10:16:12+00:00</time>
      </trkpt>
      <trkpt lat="43.316513061523" lon="-7.6293435096741">
        <ele>482</ele>
        <time>2019-09-11T10:16:13+00:00</time>
      </trkpt>
      <trkpt lat="43.316509246826" lon="-7.6293568611145">
        <ele>482</ele>
        <time>2019-09-11T10:16:14+00:00</time>
      </trkpt>
      <trkpt lat="43.316509246826" lon="-7.6293702125549">
        <ele>482</ele>
        <time>2019-09-11T10:16:15+00:00</time>
      </trkpt>
      <trkpt lat="43.316505432129" lon="-7.6293869018555">
        <ele>482</ele>
        <time>2019-09-11T10:16:16+00:00</time>
      </trkpt>
      <trkpt lat="43.316505432129" lon="-7.6293997764587">
        <ele>482</ele>
        <time>2019-09-11T10:16:17+00:00</time>
      </trkpt>
      <trkpt lat="43.316501617432" lon="-7.6294150352478">
        <ele>482</ele>
        <time>2019-09-11T10:16:18+00:00</time>
      </trkpt>
      <trkpt lat="43.316501617432" lon="-7.6294298171997">
        <ele>481</ele>
        <time>2019-09-11T10:16:19+00:00</time>
      </trkpt>
      <trkpt lat="43.316497802734" lon="-7.6294450759888">
        <ele>481</ele>
        <time>2019-09-11T10:16:20+00:00</time>
      </trkpt>
      <trkpt lat="43.316493988037" lon="-7.6294631958008">
        <ele>482</ele>
        <time>2019-09-11T10:16:21+00:00</time>
      </trkpt>
      <trkpt lat="43.31649017334" lon="-7.6294784545898">
        <ele>482</ele>
        <time>2019-09-11T10:16:22+00:00</time>
      </trkpt>
      <trkpt lat="43.316493988037" lon="-7.6294898986816">
        <ele>482</ele>
        <time>2019-09-11T10:16:23+00:00</time>
      </trkpt>
      <trkpt lat="43.316493988037" lon="-7.6295018196106">
        <ele>482</ele>
        <time>2019-09-11T10:16:24+00:00</time>
      </trkpt>
      <trkpt lat="43.316493988037" lon="-7.6295166015625">
        <ele>482</ele>
        <time>2019-09-11T10:16:25+00:00</time>
      </trkpt>
      <trkpt lat="43.316497802734" lon="-7.6295299530029">
        <ele>482</ele>
        <time>2019-09-11T10:16:26+00:00</time>
      </trkpt>
      <trkpt lat="43.316501617432" lon="-7.629545211792">
        <ele>482</ele>
        <time>2019-09-11T10:16:27+00:00</time>
      </trkpt>
      <trkpt lat="43.316501617432" lon="-7.6295585632324">
        <ele>482</ele>
        <time>2019-09-11T10:16:28+00:00</time>
      </trkpt>
      <trkpt lat="43.316505432129" lon="-7.6295714378357">
        <ele>482</ele>
        <time>2019-09-11T10:16:29+00:00</time>
      </trkpt>
      <trkpt lat="43.316505432129" lon="-7.6295847892761">
        <ele>482</ele>
        <time>2019-09-11T10:16:30+00:00</time>
      </trkpt>
      <trkpt lat="43.316509246826" lon="-7.629593372345">
        <ele>482</ele>
        <time>2019-09-11T10:16:31+00:00</time>
      </trkpt>
      <trkpt lat="43.316513061523" lon="-7.6296067237854">
        <ele>482</ele>
        <time>2019-09-11T10:16:32+00:00</time>
      </trkpt>
      <trkpt lat="43.316513061523" lon="-7.6296167373657">
        <ele>482</ele>
        <time>2019-09-11T10:16:33+00:00</time>
      </trkpt>
      <trkpt lat="43.316513061523" lon="-7.629626750946">
        <ele>482</ele>
        <time>2019-09-11T10:16:34+00:00</time>
      </trkpt>
      <trkpt lat="43.316513061523" lon="-7.6296434402466">
        <ele>482</ele>
        <time>2019-09-11T10:16:35+00:00</time>
      </trkpt>
      <trkpt lat="43.316505432129" lon="-7.6296534538269">
        <ele>482</ele>
        <time>2019-09-11T10:16:36+00:00</time>
      </trkpt>
      <trkpt lat="43.316501617432" lon="-7.6296634674072">
        <ele>482</ele>
        <time>2019-09-11T10:16:37+00:00</time>
      </trkpt>
      <trkpt lat="43.316501617432" lon="-7.6296768188477">
        <ele>482</ele>
        <time>2019-09-11T10:16:38+00:00</time>
      </trkpt>
      <trkpt lat="43.316501617432" lon="-7.6296882629395">
        <ele>482</ele>
        <time>2019-09-11T10:16:39+00:00</time>
      </trkpt>
      <trkpt lat="43.316501617432" lon="-7.6297001838684">
        <ele>482</ele>
        <time>2019-09-11T10:16:40+00:00</time>
      </trkpt>
      <trkpt lat="43.316501617432" lon="-7.6297135353088">
        <ele>482</ele>
        <time>2019-09-11T10:16:41+00:00</time>
      </trkpt>
      <trkpt lat="43.316497802734" lon="-7.6297302246094">
        <ele>482</ele>
        <time>2019-09-11T10:16:42+00:00</time>
      </trkpt>
      <trkpt lat="43.316497802734" lon="-7.6297416687012">
        <ele>482</ele>
        <time>2019-09-11T10:16:43+00:00</time>
      </trkpt>
      <trkpt lat="43.31649017334" lon="-7.6297516822815">
        <ele>482</ele>
        <time>2019-09-11T10:16:44+00:00</time>
      </trkpt>
      <trkpt lat="43.31649017334" lon="-7.629768371582">
        <ele>482</ele>
        <time>2019-09-11T10:16:45+00:00</time>
      </trkpt>
      <trkpt lat="43.31649017334" lon="-7.6297831535339">
        <ele>482</ele>
        <time>2019-09-11T10:16:46+00:00</time>
      </trkpt>
      <trkpt lat="43.316486358643" lon="-7.6297998428345">
        <ele>482</ele>
        <time>2019-09-11T10:16:47+00:00</time>
      </trkpt>
      <trkpt lat="43.316486358643" lon="-7.6298131942749">
        <ele>482</ele>
        <time>2019-09-11T10:16:48+00:00</time>
      </trkpt>
      <trkpt lat="43.316486358643" lon="-7.6298251152039">
        <ele>482</ele>
        <time>2019-09-11T10:16:49+00:00</time>
      </trkpt>
      <trkpt lat="43.316482543945" lon="-7.6298418045044">
        <ele>482</ele>
        <time>2019-09-11T10:16:50+00:00</time>
      </trkpt>
      <trkpt lat="43.316482543945" lon="-7.6298532485962">
        <ele>482</ele>
        <time>2019-09-11T10:16:51+00:00</time>
      </trkpt>
      <trkpt lat="43.316478729248" lon="-7.6298685073853">
        <ele>482</ele>
        <time>2019-09-11T10:16:52+00:00</time>
      </trkpt>
      <trkpt lat="43.316482543945" lon="-7.6298866271973">
        <ele>482</ele>
        <time>2019-09-11T10:16:53+00:00</time>
      </trkpt>
      <trkpt lat="43.316478729248" lon="-7.6299018859863">
        <ele>482</ele>
        <time>2019-09-11T10:16:54+00:00</time>
      </trkpt>
      <trkpt lat="43.316478729248" lon="-7.6299133300781">
        <ele>482</ele>
        <time>2019-09-11T10:16:55+00:00</time>
      </trkpt>
      <trkpt lat="43.316474914551" lon="-7.6299266815186">
        <ele>482</ele>
        <time>2019-09-11T10:16:56+00:00</time>
      </trkpt>
      <trkpt lat="43.316482543945" lon="-7.6299366950989">
        <ele>482</ele>
        <time>2019-09-11T10:16:57+00:00</time>
      </trkpt>
      <trkpt lat="43.316482543945" lon="-7.6299481391907">
        <ele>482</ele>
        <time>2019-09-11T10:16:58+00:00</time>
      </trkpt>
      <trkpt lat="43.316486358643" lon="-7.6299600601196">
        <ele>482</ele>
        <time>2019-09-11T10:16:59+00:00</time>
      </trkpt>
      <trkpt lat="43.31649017334" lon="-7.6299748420715">
        <ele>482</ele>
        <time>2019-09-11T10:17:00+00:00</time>
      </trkpt>
      <trkpt lat="43.316478729248" lon="-7.6299915313721">
        <ele>482</ele>
        <time>2019-09-11T10:17:01+00:00</time>
      </trkpt>
      <trkpt lat="43.316471099854" lon="-7.6300001144409">
        <ele>482</ele>
        <time>2019-09-11T10:17:02+00:00</time>
      </trkpt>
      <trkpt lat="43.316467285156" lon="-7.6300101280212">
        <ele>482</ele>
        <time>2019-09-11T10:17:03+00:00</time>
      </trkpt>
      <trkpt lat="43.316467285156" lon="-7.630021572113">
        <ele>482</ele>
        <time>2019-09-11T10:17:04+00:00</time>
      </trkpt>
      <trkpt lat="43.316463470459" lon="-7.630033493042">
        <ele>482</ele>
        <time>2019-09-11T10:17:05+00:00</time>
      </trkpt>
      <trkpt lat="43.316455841064" lon="-7.6300435066223">
        <ele>482</ele>
        <time>2019-09-11T10:17:06+00:00</time>
      </trkpt>
      <trkpt lat="43.316452026367" lon="-7.6300582885742">
        <ele>481</ele>
        <time>2019-09-11T10:17:07+00:00</time>
      </trkpt>
      <trkpt lat="43.31644821167" lon="-7.6300735473633">
        <ele>481</ele>
        <time>2019-09-11T10:17:08+00:00</time>
      </trkpt>
      <trkpt lat="43.31644821167" lon="-7.6300849914551">
        <ele>481</ele>
        <time>2019-09-11T10:17:09+00:00</time>
      </trkpt>
      <trkpt lat="43.31644821167" lon="-7.630099773407">
        <ele>481</ele>
        <time>2019-09-11T10:17:10+00:00</time>
      </trkpt>
      <trkpt lat="43.31644821167" lon="-7.6301164627075">
        <ele>481</ele>
        <time>2019-09-11T10:17:11+00:00</time>
      </trkpt>
      <trkpt lat="43.31644821167" lon="-7.6301331520081">
        <ele>481</ele>
        <time>2019-09-11T10:17:12+00:00</time>
      </trkpt>
      <trkpt lat="43.31644821167" lon="-7.6301517486572">
        <ele>481</ele>
        <time>2019-09-11T10:17:13+00:00</time>
      </trkpt>
      <trkpt lat="43.316452026367" lon="-7.6301665306091">
        <ele>481</ele>
        <time>2019-09-11T10:17:14+00:00</time>
      </trkpt>
      <trkpt lat="43.316452026367" lon="-7.6301832199097">
        <ele>481</ele>
        <time>2019-09-11T10:17:15+00:00</time>
      </trkpt>
      <trkpt lat="43.316459655762" lon="-7.6301984786987">
        <ele>481</ele>
        <time>2019-09-11T10:17:16+00:00</time>
      </trkpt>
      <trkpt lat="43.316463470459" lon="-7.6302118301392">
        <ele>481</ele>
        <time>2019-09-11T10:17:17+00:00</time>
      </trkpt>
      <trkpt lat="43.316463470459" lon="-7.6302266120911">
        <ele>481</ele>
        <time>2019-09-11T10:17:18+00:00</time>
      </trkpt>
      <trkpt lat="43.316467285156" lon="-7.6302418708801">
        <ele>482</ele>
        <time>2019-09-11T10:17:19+00:00</time>
      </trkpt>
      <trkpt lat="43.316463470459" lon="-7.6302552223206">
        <ele>482</ele>
        <time>2019-09-11T10:17:20+00:00</time>
      </trkpt>
      <trkpt lat="43.316463470459" lon="-7.6302700042725">
        <ele>481</ele>
        <time>2019-09-11T10:17:21+00:00</time>
      </trkpt>
      <trkpt lat="43.316463470459" lon="-7.6302881240845">
        <ele>482</ele>
        <time>2019-09-11T10:17:22+00:00</time>
      </trkpt>
      <trkpt lat="43.316463470459" lon="-7.6303014755249">
        <ele>481</ele>
        <time>2019-09-11T10:17:23+00:00</time>
      </trkpt>
      <trkpt lat="43.316463470459" lon="-7.6303148269653">
        <ele>481</ele>
        <time>2019-09-11T10:17:24+00:00</time>
      </trkpt>
      <trkpt lat="43.316463470459" lon="-7.6303300857544">
        <ele>481</ele>
        <time>2019-09-11T10:17:25+00:00</time>
      </trkpt>
      <trkpt lat="43.316455841064" lon="-7.6303448677063">
        <ele>481</ele>
        <time>2019-09-11T10:17:26+00:00</time>
      </trkpt>
      <trkpt lat="43.316455841064" lon="-7.6303582191467">
        <ele>482</ele>
        <time>2019-09-11T10:17:27+00:00</time>
      </trkpt>
      <trkpt lat="43.316452026367" lon="-7.6303734779358">
        <ele>482</ele>
        <time>2019-09-11T10:17:28+00:00</time>
      </trkpt>
      <trkpt lat="43.316452026367" lon="-7.6303882598877">
        <ele>482</ele>
        <time>2019-09-11T10:17:29+00:00</time>
      </trkpt>
      <trkpt lat="43.316452026367" lon="-7.6304035186768">
        <ele>481</ele>
        <time>2019-09-11T10:17:30+00:00</time>
      </trkpt>
      <trkpt lat="43.31644821167" lon="-7.6304183006287">
        <ele>481</ele>
        <time>2019-09-11T10:17:31+00:00</time>
      </trkpt>
      <trkpt lat="43.316452026367" lon="-7.6304335594177">
        <ele>481</ele>
        <time>2019-09-11T10:17:32+00:00</time>
      </trkpt>
      <trkpt lat="43.316455841064" lon="-7.6304483413696">
        <ele>481</ele>
        <time>2019-09-11T10:17:33+00:00</time>
      </trkpt>
      <trkpt lat="43.316455841064" lon="-7.6304616928101">
        <ele>482</ele>
        <time>2019-09-11T10:17:34+00:00</time>
      </trkpt>
      <trkpt lat="43.316455841064" lon="-7.6304731369019">
        <ele>482</ele>
        <time>2019-09-11T10:17:35+00:00</time>
      </trkpt>
      <trkpt lat="43.316455841064" lon="-7.6304831504822">
        <ele>482</ele>
        <time>2019-09-11T10:17:36+00:00</time>
      </trkpt>
      <trkpt lat="43.316455841064" lon="-7.6305017471313">
        <ele>482</ele>
        <time>2019-09-11T10:17:37+00:00</time>
      </trkpt>
      <trkpt lat="43.316459655762" lon="-7.6305165290833">
        <ele>482</ele>
        <time>2019-09-11T10:17:38+00:00</time>
      </trkpt>
      <trkpt lat="43.316459655762" lon="-7.6305298805237">
        <ele>482</ele>
        <time>2019-09-11T10:17:39+00:00</time>
      </trkpt>
      <trkpt lat="43.316463470459" lon="-7.6305451393127">
        <ele>482</ele>
        <time>2019-09-11T10:17:40+00:00</time>
      </trkpt>
      <trkpt lat="43.316463470459" lon="-7.6305618286133">
        <ele>482</ele>
        <time>2019-09-11T10:17:41+00:00</time>
      </trkpt>
      <trkpt lat="43.316463470459" lon="-7.6305799484253">
        <ele>482</ele>
        <time>2019-09-11T10:17:42+00:00</time>
      </trkpt>
      <trkpt lat="43.316463470459" lon="-7.6305966377258">
        <ele>482</ele>
        <time>2019-09-11T10:17:43+00:00</time>
      </trkpt>
      <trkpt lat="43.316463470459" lon="-7.6306099891663">
        <ele>481</ele>
        <time>2019-09-11T10:17:44+00:00</time>
      </trkpt>
      <trkpt lat="43.316463470459" lon="-7.6306266784668">
        <ele>481</ele>
        <time>2019-09-11T10:17:45+00:00</time>
      </trkpt>
      <trkpt lat="43.316459655762" lon="-7.6306400299072">
        <ele>481</ele>
        <time>2019-09-11T10:17:46+00:00</time>
      </trkpt>
      <trkpt lat="43.316463470459" lon="-7.6306533813477">
        <ele>481</ele>
        <time>2019-09-11T10:17:47+00:00</time>
      </trkpt>
      <trkpt lat="43.316459655762" lon="-7.6306667327881">
        <ele>481</ele>
        <time>2019-09-11T10:17:48+00:00</time>
      </trkpt>
      <trkpt lat="43.316455841064" lon="-7.63068151474">
        <ele>481</ele>
        <time>2019-09-11T10:17:49+00:00</time>
      </trkpt>
      <trkpt lat="43.316452026367" lon="-7.6306982040405">
        <ele>481</ele>
        <time>2019-09-11T10:17:50+00:00</time>
      </trkpt>
      <trkpt lat="43.316452026367" lon="-7.6307134628296">
        <ele>481</ele>
        <time>2019-09-11T10:17:51+00:00</time>
      </trkpt>
      <trkpt lat="43.316452026367" lon="-7.63072681427">
        <ele>481</ele>
        <time>2019-09-11T10:17:52+00:00</time>
      </trkpt>
      <trkpt lat="43.316452026367" lon="-7.6307382583618">
        <ele>481</ele>
        <time>2019-09-11T10:17:53+00:00</time>
      </trkpt>
      <trkpt lat="43.316452026367" lon="-7.6307501792908">
        <ele>481</ele>
        <time>2019-09-11T10:17:54+00:00</time>
      </trkpt>
      <trkpt lat="43.316455841064" lon="-7.6307635307312">
        <ele>481</ele>
        <time>2019-09-11T10:17:55+00:00</time>
      </trkpt>
      <trkpt lat="43.316452026367" lon="-7.6307783126831">
        <ele>481</ele>
        <time>2019-09-11T10:17:56+00:00</time>
      </trkpt>
      <trkpt lat="43.316452026367" lon="-7.6307916641235">
        <ele>481</ele>
        <time>2019-09-11T10:17:57+00:00</time>
      </trkpt>
      <trkpt lat="43.316444396973" lon="-7.630805015564">
        <ele>481</ele>
        <time>2019-09-11T10:17:58+00:00</time>
      </trkpt>
      <trkpt lat="43.316444396973" lon="-7.6308197975159">
        <ele>481</ele>
        <time>2019-09-11T10:17:59+00:00</time>
      </trkpt>
      <trkpt lat="43.316440582275" lon="-7.630838394165">
        <ele>481</ele>
        <time>2019-09-11T10:18:00+00:00</time>
      </trkpt>
      <trkpt lat="43.316440582275" lon="-7.6308565139771">
        <ele>480</ele>
        <time>2019-09-11T10:18:01+00:00</time>
      </trkpt>
      <trkpt lat="43.316440582275" lon="-7.6308732032776">
        <ele>480</ele>
        <time>2019-09-11T10:18:02+00:00</time>
      </trkpt>
      <trkpt lat="43.316440582275" lon="-7.630886554718">
        <ele>480</ele>
        <time>2019-09-11T10:18:03+00:00</time>
      </trkpt>
      <trkpt lat="43.316440582275" lon="-7.630898475647">
        <ele>480</ele>
        <time>2019-09-11T10:18:04+00:00</time>
      </trkpt>
      <trkpt lat="43.316436767578" lon="-7.6309118270874">
        <ele>480</ele>
        <time>2019-09-11T10:18:05+00:00</time>
      </trkpt>
      <trkpt lat="43.316432952881" lon="-7.6309285163879">
        <ele>480</ele>
        <time>2019-09-11T10:18:06+00:00</time>
      </trkpt>
      <trkpt lat="43.316429138184" lon="-7.6309399604797">
        <ele>480</ele>
        <time>2019-09-11T10:18:07+00:00</time>
      </trkpt>
      <trkpt lat="43.316425323486" lon="-7.6309552192688">
        <ele>480</ele>
        <time>2019-09-11T10:18:08+00:00</time>
      </trkpt>
      <trkpt lat="43.316421508789" lon="-7.6309714317322">
        <ele>480</ele>
        <time>2019-09-11T10:18:09+00:00</time>
      </trkpt>
      <trkpt lat="43.316417694092" lon="-7.6309847831726">
        <ele>480</ele>
        <time>2019-09-11T10:18:10+00:00</time>
      </trkpt>
      <trkpt lat="43.316417694092" lon="-7.6310000419617">
        <ele>480</ele>
        <time>2019-09-11T10:18:11+00:00</time>
      </trkpt>
      <trkpt lat="43.316413879395" lon="-7.631010055542">
        <ele>480</ele>
        <time>2019-09-11T10:18:12+00:00</time>
      </trkpt>
      <trkpt lat="43.316410064697" lon="-7.6310234069824">
        <ele>480</ele>
        <time>2019-09-11T10:18:13+00:00</time>
      </trkpt>
      <trkpt lat="43.316402435303" lon="-7.6310334205627">
        <ele>479</ele>
        <time>2019-09-11T10:18:14+00:00</time>
      </trkpt>
      <trkpt lat="43.316398620605" lon="-7.6310482025146">
        <ele>479</ele>
        <time>2019-09-11T10:18:15+00:00</time>
      </trkpt>
      <trkpt lat="43.316394805908" lon="-7.6310601234436">
        <ele>479</ele>
        <time>2019-09-11T10:18:16+00:00</time>
      </trkpt>
      <trkpt lat="43.316394805908" lon="-7.6310768127441">
        <ele>479</ele>
        <time>2019-09-11T10:18:17+00:00</time>
      </trkpt>
      <trkpt lat="43.316387176514" lon="-7.6310882568359">
        <ele>479</ele>
        <time>2019-09-11T10:18:18+00:00</time>
      </trkpt>
      <trkpt lat="43.316387176514" lon="-7.6311016082764">
        <ele>479</ele>
        <time>2019-09-11T10:18:19+00:00</time>
      </trkpt>
      <trkpt lat="43.316383361816" lon="-7.6311149597168">
        <ele>479</ele>
        <time>2019-09-11T10:18:20+00:00</time>
      </trkpt>
      <trkpt lat="43.316383361816" lon="-7.6311316490173">
        <ele>479</ele>
        <time>2019-09-11T10:18:21+00:00</time>
      </trkpt>
      <trkpt lat="43.316383361816" lon="-7.6311497688293">
        <ele>479</ele>
        <time>2019-09-11T10:18:22+00:00</time>
      </trkpt>
      <trkpt lat="43.316383361816" lon="-7.6311650276184">
        <ele>479</ele>
        <time>2019-09-11T10:18:23+00:00</time>
      </trkpt>
      <trkpt lat="43.316379547119" lon="-7.6311864852905">
        <ele>479</ele>
        <time>2019-09-11T10:18:24+00:00</time>
      </trkpt>
      <trkpt lat="43.316375732422" lon="-7.6312050819397">
        <ele>479</ele>
        <time>2019-09-11T10:18:25+00:00</time>
      </trkpt>
      <trkpt lat="43.316371917725" lon="-7.6312198638916">
        <ele>478</ele>
        <time>2019-09-11T10:18:26+00:00</time>
      </trkpt>
      <trkpt lat="43.316368103027" lon="-7.6312351226807">
        <ele>478</ele>
        <time>2019-09-11T10:18:27+00:00</time>
      </trkpt>
      <trkpt lat="43.316360473633" lon="-7.6312465667725">
        <ele>478</ele>
        <time>2019-09-11T10:18:28+00:00</time>
      </trkpt>
      <trkpt lat="43.316356658936" lon="-7.6312551498413">
        <ele>478</ele>
        <time>2019-09-11T10:18:29+00:00</time>
      </trkpt>
      <trkpt lat="43.316356658936" lon="-7.6312651634216">
        <ele>477</ele>
        <time>2019-09-11T10:18:30+00:00</time>
      </trkpt>
      <trkpt lat="43.316352844238" lon="-7.6312785148621">
        <ele>477</ele>
        <time>2019-09-11T10:18:31+00:00</time>
      </trkpt>
      <trkpt lat="43.316349029541" lon="-7.6312918663025">
        <ele>477</ele>
        <time>2019-09-11T10:18:32+00:00</time>
      </trkpt>
      <trkpt lat="43.316345214844" lon="-7.6313033103943">
        <ele>477</ele>
        <time>2019-09-11T10:18:33+00:00</time>
      </trkpt>
      <trkpt lat="43.316345214844" lon="-7.6313199996948">
        <ele>477</ele>
        <time>2019-09-11T10:18:34+00:00</time>
      </trkpt>
      <trkpt lat="43.316345214844" lon="-7.6313400268555">
        <ele>477</ele>
        <time>2019-09-11T10:18:35+00:00</time>
      </trkpt>
      <trkpt lat="43.316341400146" lon="-7.6313548088074">
        <ele>477</ele>
        <time>2019-09-11T10:18:36+00:00</time>
      </trkpt>
      <trkpt lat="43.316337585449" lon="-7.6313681602478">
        <ele>477</ele>
        <time>2019-09-11T10:18:37+00:00</time>
      </trkpt>
      <trkpt lat="43.316329956055" lon="-7.6313800811768">
        <ele>477</ele>
        <time>2019-09-11T10:18:38+00:00</time>
      </trkpt>
      <trkpt lat="43.316329956055" lon="-7.6313967704773">
        <ele>476</ele>
        <time>2019-09-11T10:18:39+00:00</time>
      </trkpt>
      <trkpt lat="43.31632232666" lon="-7.631404876709">
        <ele>476</ele>
        <time>2019-09-11T10:18:40+00:00</time>
      </trkpt>
      <trkpt lat="43.316318511963" lon="-7.6314182281494">
        <ele>476</ele>
        <time>2019-09-11T10:18:41+00:00</time>
      </trkpt>
      <trkpt lat="43.316314697266" lon="-7.6314301490784">
        <ele>476</ele>
        <time>2019-09-11T10:18:42+00:00</time>
      </trkpt>
      <trkpt lat="43.316310882568" lon="-7.6314482688904">
        <ele>476</ele>
        <time>2019-09-11T10:18:43+00:00</time>
      </trkpt>
      <trkpt lat="43.316310882568" lon="-7.631468296051">
        <ele>476</ele>
        <time>2019-09-11T10:18:44+00:00</time>
      </trkpt>
      <trkpt lat="43.316307067871" lon="-7.6314868927002">
        <ele>475</ele>
        <time>2019-09-11T10:18:45+00:00</time>
      </trkpt>
      <trkpt lat="43.316307067871" lon="-7.6315016746521">
        <ele>475</ele>
        <time>2019-09-11T10:18:46+00:00</time>
      </trkpt>
      <trkpt lat="43.316303253174" lon="-7.6315183639526">
        <ele>475</ele>
        <time>2019-09-11T10:18:47+00:00</time>
      </trkpt>
      <trkpt lat="43.316303253174" lon="-7.6315350532532">
        <ele>475</ele>
        <time>2019-09-11T10:18:48+00:00</time>
      </trkpt>
      <trkpt lat="43.316307067871" lon="-7.6315498352051">
        <ele>475</ele>
        <time>2019-09-11T10:18:49+00:00</time>
      </trkpt>
      <trkpt lat="43.316307067871" lon="-7.6315650939941">
        <ele>475</ele>
        <time>2019-09-11T10:18:50+00:00</time>
      </trkpt>
      <trkpt lat="43.316307067871" lon="-7.631579875946">
        <ele>475</ele>
        <time>2019-09-11T10:18:51+00:00</time>
      </trkpt>
      <trkpt lat="43.316310882568" lon="-7.6315932273865">
        <ele>475</ele>
        <time>2019-09-11T10:18:52+00:00</time>
      </trkpt>
      <trkpt lat="43.316310882568" lon="-7.6316051483154">
        <ele>475</ele>
        <time>2019-09-11T10:18:53+00:00</time>
      </trkpt>
      <trkpt lat="43.316310882568" lon="-7.6316151618958">
        <ele>475</ele>
        <time>2019-09-11T10:18:54+00:00</time>
      </trkpt>
      <trkpt lat="43.316314697266" lon="-7.6316332817078">
        <ele>475</ele>
        <time>2019-09-11T10:18:55+00:00</time>
      </trkpt>
      <trkpt lat="43.316318511963" lon="-7.6316485404968">
        <ele>475</ele>
        <time>2019-09-11T10:18:56+00:00</time>
      </trkpt>
      <trkpt lat="43.316318511963" lon="-7.6316666603088">
        <ele>475</ele>
        <time>2019-09-11T10:18:57+00:00</time>
      </trkpt>
      <trkpt lat="43.316318511963" lon="-7.6316847801208">
        <ele>475</ele>
        <time>2019-09-11T10:18:58+00:00</time>
      </trkpt>
      <trkpt lat="43.316318511963" lon="-7.63170337677">
        <ele>475</ele>
        <time>2019-09-11T10:18:59+00:00</time>
      </trkpt>
      <trkpt lat="43.31632232666" lon="-7.6317167282104">
        <ele>474</ele>
        <time>2019-09-11T10:19:00+00:00</time>
      </trkpt>
      <trkpt lat="43.31632232666" lon="-7.631733417511">
        <ele>474</ele>
        <time>2019-09-11T10:19:01+00:00</time>
      </trkpt>
      <trkpt lat="43.316326141357" lon="-7.6317481994629">
        <ele>474</ele>
        <time>2019-09-11T10:19:02+00:00</time>
      </trkpt>
      <trkpt lat="43.316329956055" lon="-7.6317615509033">
        <ele>474</ele>
        <time>2019-09-11T10:19:03+00:00</time>
      </trkpt>
      <trkpt lat="43.316329956055" lon="-7.6317768096924">
        <ele>474</ele>
        <time>2019-09-11T10:19:04+00:00</time>
      </trkpt>
      <trkpt lat="43.316337585449" lon="-7.6317934989929">
        <ele>474</ele>
        <time>2019-09-11T10:19:05+00:00</time>
      </trkpt>
      <trkpt lat="43.316341400146" lon="-7.6318016052246">
        <ele>474</ele>
        <time>2019-09-11T10:19:06+00:00</time>
      </trkpt>
      <trkpt lat="43.316345214844" lon="-7.6318135261536">
        <ele>474</ele>
        <time>2019-09-11T10:19:07+00:00</time>
      </trkpt>
      <trkpt lat="43.316349029541" lon="-7.6318235397339">
        <ele>474</ele>
        <time>2019-09-11T10:19:08+00:00</time>
      </trkpt>
      <trkpt lat="43.316345214844" lon="-7.6318316459656">
        <ele>474</ele>
        <time>2019-09-11T10:19:09+00:00</time>
      </trkpt>
      <trkpt lat="43.316345214844" lon="-7.6318435668945">
        <ele>474</ele>
        <time>2019-09-11T10:19:10+00:00</time>
      </trkpt>
      <trkpt lat="43.316345214844" lon="-7.6318550109863">
        <ele>474</ele>
        <time>2019-09-11T10:19:11+00:00</time>
      </trkpt>
      <trkpt lat="43.316345214844" lon="-7.6318664550781">
        <ele>474</ele>
        <time>2019-09-11T10:19:12+00:00</time>
      </trkpt>
      <trkpt lat="43.316345214844" lon="-7.6318798065186">
        <ele>474</ele>
        <time>2019-09-11T10:19:13+00:00</time>
      </trkpt>
      <trkpt lat="43.316349029541" lon="-7.6318917274475">
        <ele>474</ele>
        <time>2019-09-11T10:19:14+00:00</time>
      </trkpt>
      <trkpt lat="43.316352844238" lon="-7.6319031715393">
        <ele>474</ele>
        <time>2019-09-11T10:19:15+00:00</time>
      </trkpt>
      <trkpt lat="43.316352844238" lon="-7.6319165229797">
        <ele>473</ele>
        <time>2019-09-11T10:19:16+00:00</time>
      </trkpt>
      <trkpt lat="43.316356658936" lon="-7.6319284439087">
        <ele>473</ele>
        <time>2019-09-11T10:19:17+00:00</time>
      </trkpt>
      <trkpt lat="43.316360473633" lon="-7.6319417953491">
        <ele>473</ele>
        <time>2019-09-11T10:19:18+00:00</time>
      </trkpt>
      <trkpt lat="43.316360473633" lon="-7.631956577301">
        <ele>473</ele>
        <time>2019-09-11T10:19:19+00:00</time>
      </trkpt>
      <trkpt lat="43.31636428833" lon="-7.6319732666016">
        <ele>473</ele>
        <time>2019-09-11T10:19:20+00:00</time>
      </trkpt>
      <trkpt lat="43.316368103027" lon="-7.631986618042">
        <ele>473</ele>
        <time>2019-09-11T10:19:21+00:00</time>
      </trkpt>
      <trkpt lat="43.316368103027" lon="-7.6320085525513">
        <ele>473</ele>
        <time>2019-09-11T10:19:22+00:00</time>
      </trkpt>
      <trkpt lat="43.316368103027" lon="-7.6320300102234">
        <ele>473</ele>
        <time>2019-09-11T10:19:23+00:00</time>
      </trkpt>
      <trkpt lat="43.316368103027" lon="-7.6320433616638">
        <ele>473</ele>
        <time>2019-09-11T10:19:24+00:00</time>
      </trkpt>
      <trkpt lat="43.316337585449" lon="-7.6320581436157">
        <ele>473</ele>
        <time>2019-09-11T10:19:25+00:00</time>
      </trkpt>
      <trkpt lat="43.316345214844" lon="-7.6320648193359">
        <ele>473</ele>
        <time>2019-09-11T10:19:26+00:00</time>
      </trkpt>
      <trkpt lat="43.316345214844" lon="-7.6320700645447">
        <ele>473</ele>
        <time>2019-09-11T10:19:27+00:00</time>
      </trkpt>
      <trkpt lat="43.316341400146" lon="-7.6320700645447">
        <ele>473</ele>
        <time>2019-09-11T10:19:28+00:00</time>
      </trkpt>
      <trkpt lat="43.316341400146" lon="-7.6320700645447">
        <ele>473</ele>
        <time>2019-09-11T10:19:29+00:00</time>
      </trkpt>
      <trkpt lat="43.316341400146" lon="-7.632068157196">
        <ele>473</ele>
        <time>2019-09-11T10:19:30+00:00</time>
      </trkpt>
      <trkpt lat="43.316341400146" lon="-7.6320648193359">
        <ele>473</ele>
        <time>2019-09-11T10:19:31+00:00</time>
      </trkpt>
      <trkpt lat="43.316337585449" lon="-7.6320633888245">
        <ele>473</ele>
        <time>2019-09-11T10:19:32+00:00</time>
      </trkpt>
      <trkpt lat="43.316337585449" lon="-7.6320648193359">
        <ele>473</ele>
        <time>2019-09-11T10:19:33+00:00</time>
      </trkpt>
      <trkpt lat="43.316333770752" lon="-7.6320700645447">
        <ele>473</ele>
        <time>2019-09-11T10:19:34+00:00</time>
      </trkpt>
      <trkpt lat="43.316326141357" lon="-7.6320748329163">
        <ele>473</ele>
        <time>2019-09-11T10:19:35+00:00</time>
      </trkpt>
      <trkpt lat="43.31632232666" lon="-7.632080078125">
        <ele>473</ele>
        <time>2019-09-11T10:19:36+00:00</time>
      </trkpt>
      <trkpt lat="43.316326141357" lon="-7.6320781707764">
        <ele>473</ele>
        <time>2019-09-11T10:19:37+00:00</time>
      </trkpt>
      <trkpt lat="43.316326141357" lon="-7.6320781707764">
        <ele>473</ele>
        <time>2019-09-11T10:19:38+00:00</time>
      </trkpt>
      <trkpt lat="43.316326141357" lon="-7.6320781707764">
        <ele>473</ele>
        <time>2019-09-11T10:19:39+00:00</time>
      </trkpt>
      <trkpt lat="43.316326141357" lon="-7.6320781707764">
        <ele>473</ele>
        <time>2019-09-11T10:19:40+00:00</time>
      </trkpt>
      <trkpt lat="43.316326141357" lon="-7.6320781707764">
        <ele>473</ele>
        <time>2019-09-11T10:19:41+00:00</time>
      </trkpt>
      <trkpt lat="43.316326141357" lon="-7.6320781707764">
        <ele>473</ele>
        <time>2019-09-11T10:19:42+00:00</time>
      </trkpt>
      <trkpt lat="43.316326141357" lon="-7.6320781707764">
        <ele>473</ele>
        <time>2019-09-11T10:19:43+00:00</time>
      </trkpt>
      <trkpt lat="43.316326141357" lon="-7.6320781707764">
        <ele>473</ele>
        <time>2019-09-11T10:19:44+00:00</time>
      </trkpt>
      <trkpt lat="43.316326141357" lon="-7.6320781707764">
        <ele>473</ele>
        <time>2019-09-11T10:19:45+00:00</time>
      </trkpt>
      <trkpt lat="43.316326141357" lon="-7.6320781707764">
        <ele>473</ele>
        <time>2019-09-11T10:19:46+00:00</time>
      </trkpt>
      <trkpt lat="43.316326141357" lon="-7.6320781707764">
        <ele>473</ele>
        <time>2019-09-11T10:19:47+00:00</time>
      </trkpt>
      <trkpt lat="43.316326141357" lon="-7.6320781707764">
        <ele>473</ele>
        <time>2019-09-11T10:19:48+00:00</time>
      </trkpt>
      <trkpt lat="43.316326141357" lon="-7.6320781707764">
        <ele>473</ele>
        <time>2019-09-11T10:19:49+00:00</time>
      </trkpt>
      <trkpt lat="43.316349029541" lon="-7.6320900917053">
        <ele>473</ele>
        <time>2019-09-11T10:19:50+00:00</time>
      </trkpt>
      <trkpt lat="43.316349029541" lon="-7.6321034431458">
        <ele>473</ele>
        <time>2019-09-11T10:19:51+00:00</time>
      </trkpt>
      <trkpt lat="43.316352844238" lon="-7.6321134567261">
        <ele>473</ele>
        <time>2019-09-11T10:19:52+00:00</time>
      </trkpt>
      <trkpt lat="43.316356658936" lon="-7.6321301460266">
        <ele>473</ele>
        <time>2019-09-11T10:19:53+00:00</time>
      </trkpt>
      <trkpt lat="43.316360473633" lon="-7.6321449279785">
        <ele>473</ele>
        <time>2019-09-11T10:19:54+00:00</time>
      </trkpt>
      <trkpt lat="43.316368103027" lon="-7.6321601867676">
        <ele>473</ele>
        <time>2019-09-11T10:19:55+00:00</time>
      </trkpt>
      <trkpt lat="43.316368103027" lon="-7.6321802139282">
        <ele>473</ele>
        <time>2019-09-11T10:19:56+00:00</time>
      </trkpt>
      <trkpt lat="43.316368103027" lon="-7.6321997642517">
        <ele>473</ele>
        <time>2019-09-11T10:19:57+00:00</time>
      </trkpt>
      <trkpt lat="43.316368103027" lon="-7.6322164535522">
        <ele>473</ele>
        <time>2019-09-11T10:19:58+00:00</time>
      </trkpt>
      <trkpt lat="43.316368103027" lon="-7.6322331428528">
        <ele>473</ele>
        <time>2019-09-11T10:19:59+00:00</time>
      </trkpt>
      <trkpt lat="43.316368103027" lon="-7.6322498321533">
        <ele>473</ele>
        <time>2019-09-11T10:20:00+00:00</time>
      </trkpt>
      <trkpt lat="43.31636428833" lon="-7.6322650909424">
        <ele>473</ele>
        <time>2019-09-11T10:20:01+00:00</time>
      </trkpt>
      <trkpt lat="43.316360473633" lon="-7.6322798728943">
        <ele>473</ele>
        <time>2019-09-11T10:20:02+00:00</time>
      </trkpt>
      <trkpt lat="43.316356658936" lon="-7.6322917938232">
        <ele>473</ele>
        <time>2019-09-11T10:20:03+00:00</time>
      </trkpt>
      <trkpt lat="43.316352844238" lon="-7.6323051452637">
        <ele>473</ele>
        <time>2019-09-11T10:20:04+00:00</time>
      </trkpt>
      <trkpt lat="43.316345214844" lon="-7.6323218345642">
        <ele>472</ele>
        <time>2019-09-11T10:20:05+00:00</time>
      </trkpt>
      <trkpt lat="43.316341400146" lon="-7.632333278656">
        <ele>472</ele>
        <time>2019-09-11T10:20:06+00:00</time>
      </trkpt>
      <trkpt lat="43.316337585449" lon="-7.632345199585">
        <ele>472</ele>
        <time>2019-09-11T10:20:07+00:00</time>
      </trkpt>
      <trkpt lat="43.316333770752" lon="-7.6323618888855">
        <ele>472</ele>
        <time>2019-09-11T10:20:08+00:00</time>
      </trkpt>
      <trkpt lat="43.316337585449" lon="-7.6323747634888">
        <ele>472</ele>
        <time>2019-09-11T10:20:09+00:00</time>
      </trkpt>
      <trkpt lat="43.316333770752" lon="-7.6323933601379">
        <ele>472</ele>
        <time>2019-09-11T10:20:10+00:00</time>
      </trkpt>
      <trkpt lat="43.316333770752" lon="-7.63241147995">
        <ele>472</ele>
        <time>2019-09-11T10:20:11+00:00</time>
      </trkpt>
      <trkpt lat="43.316329956055" lon="-7.632426738739">
        <ele>472</ele>
        <time>2019-09-11T10:20:12+00:00</time>
      </trkpt>
      <trkpt lat="43.316333770752" lon="-7.6324400901794">
        <ele>472</ele>
        <time>2019-09-11T10:20:13+00:00</time>
      </trkpt>
      <trkpt lat="43.316329956055" lon="-7.6324548721313">
        <ele>472</ele>
        <time>2019-09-11T10:20:14+00:00</time>
      </trkpt>
      <trkpt lat="43.316333770752" lon="-7.6324667930603">
        <ele>472</ele>
        <time>2019-09-11T10:20:15+00:00</time>
      </trkpt>
      <trkpt lat="43.316337585449" lon="-7.632474899292">
        <ele>472</ele>
        <time>2019-09-11T10:20:16+00:00</time>
      </trkpt>
      <trkpt lat="43.316329956055" lon="-7.6324849128723">
        <ele>472</ele>
        <time>2019-09-11T10:20:17+00:00</time>
      </trkpt>
      <trkpt lat="43.316326141357" lon="-7.6324982643127">
        <ele>472</ele>
        <time>2019-09-11T10:20:18+00:00</time>
      </trkpt>
      <trkpt lat="43.316329956055" lon="-7.6325035095215">
        <ele>472</ele>
        <time>2019-09-11T10:20:19+00:00</time>
      </trkpt>
      <trkpt lat="43.316329956055" lon="-7.6325135231018">
        <ele>471</ele>
        <time>2019-09-11T10:20:20+00:00</time>
      </trkpt>
      <trkpt lat="43.316337585449" lon="-7.6325335502625">
        <ele>471</ele>
        <time>2019-09-11T10:20:21+00:00</time>
      </trkpt>
      <trkpt lat="43.316341400146" lon="-7.6325597763062">
        <ele>471</ele>
        <time>2019-09-11T10:20:22+00:00</time>
      </trkpt>
      <trkpt lat="43.316337585449" lon="-7.6325817108154">
        <ele>471</ele>
        <time>2019-09-11T10:20:23+00:00</time>
      </trkpt>
      <trkpt lat="43.316337585449" lon="-7.632598400116">
        <ele>471</ele>
        <time>2019-09-11T10:20:24+00:00</time>
      </trkpt>
      <trkpt lat="43.316337585449" lon="-7.632616519928">
        <ele>471</ele>
        <time>2019-09-11T10:20:25+00:00</time>
      </trkpt>
      <trkpt lat="43.316341400146" lon="-7.6326384544373">
        <ele>471</ele>
        <time>2019-09-11T10:20:26+00:00</time>
      </trkpt>
      <trkpt lat="43.316341400146" lon="-7.632661819458">
        <ele>471</ele>
        <time>2019-09-11T10:20:27+00:00</time>
      </trkpt>
      <trkpt lat="43.316345214844" lon="-7.6326818466187">
        <ele>471</ele>
        <time>2019-09-11T10:20:28+00:00</time>
      </trkpt>
      <trkpt lat="43.316345214844" lon="-7.6326999664307">
        <ele>471</ele>
        <time>2019-09-11T10:20:29+00:00</time>
      </trkpt>
      <trkpt lat="43.316345214844" lon="-7.6327199935913">
        <ele>471</ele>
        <time>2019-09-11T10:20:30+00:00</time>
      </trkpt>
      <trkpt lat="43.316345214844" lon="-7.6327366828918">
        <ele>471</ele>
        <time>2019-09-11T10:20:31+00:00</time>
      </trkpt>
      <trkpt lat="43.316345214844" lon="-7.6327533721924">
        <ele>471</ele>
        <time>2019-09-11T10:20:32+00:00</time>
      </trkpt>
      <trkpt lat="43.316345214844" lon="-7.6327633857727">
        <ele>471</ele>
        <time>2019-09-11T10:20:33+00:00</time>
      </trkpt>
      <trkpt lat="43.316345214844" lon="-7.6327781677246">
        <ele>471</ele>
        <time>2019-09-11T10:20:34+00:00</time>
      </trkpt>
      <trkpt lat="43.316345214844" lon="-7.6327948570251">
        <ele>471</ele>
        <time>2019-09-11T10:20:35+00:00</time>
      </trkpt>
      <trkpt lat="43.316345214844" lon="-7.6328115463257">
        <ele>471</ele>
        <time>2019-09-11T10:20:36+00:00</time>
      </trkpt>
      <trkpt lat="43.316341400146" lon="-7.6328282356262">
        <ele>472</ele>
        <time>2019-09-11T10:20:37+00:00</time>
      </trkpt>
      <trkpt lat="43.316341400146" lon="-7.6328401565552">
        <ele>472</ele>
        <time>2019-09-11T10:20:38+00:00</time>
      </trkpt>
      <trkpt lat="43.316345214844" lon="-7.6328535079956">
        <ele>472</ele>
        <time>2019-09-11T10:20:39+00:00</time>
      </trkpt>
      <trkpt lat="43.316341400146" lon="-7.6328616142273">
        <ele>472</ele>
        <time>2019-09-11T10:20:40+00:00</time>
      </trkpt>
      <trkpt lat="43.316345214844" lon="-7.6328716278076">
        <ele>472</ele>
        <time>2019-09-11T10:20:41+00:00</time>
      </trkpt>
      <trkpt lat="43.316349029541" lon="-7.6328816413879">
        <ele>472</ele>
        <time>2019-09-11T10:20:42+00:00</time>
      </trkpt>
      <trkpt lat="43.316352844238" lon="-7.6328949928284">
        <ele>472</ele>
        <time>2019-09-11T10:20:43+00:00</time>
      </trkpt>
      <trkpt lat="43.316356658936" lon="-7.6329083442688">
        <ele>472</ele>
        <time>2019-09-11T10:20:44+00:00</time>
      </trkpt>
      <trkpt lat="43.316360473633" lon="-7.6329250335693">
        <ele>472</ele>
        <time>2019-09-11T10:20:45+00:00</time>
      </trkpt>
      <trkpt lat="43.316356658936" lon="-7.632933139801">
        <ele>472</ele>
        <time>2019-09-11T10:20:46+00:00</time>
      </trkpt>
      <trkpt lat="43.316356658936" lon="-7.6329431533813">
        <ele>472</ele>
        <time>2019-09-11T10:20:47+00:00</time>
      </trkpt>
      <trkpt lat="43.31636428833" lon="-7.6329598426819">
        <ele>472</ele>
        <time>2019-09-11T10:20:48+00:00</time>
      </trkpt>
      <trkpt lat="43.316371917725" lon="-7.6329751014709">
        <ele>472</ele>
        <time>2019-09-11T10:20:49+00:00</time>
      </trkpt>
      <trkpt lat="43.316379547119" lon="-7.6329884529114">
        <ele>472</ele>
        <time>2019-09-11T10:20:50+00:00</time>
      </trkpt>
      <trkpt lat="43.316379547119" lon="-7.6330018043518">
        <ele>472</ele>
        <time>2019-09-11T10:20:51+00:00</time>
      </trkpt>
      <trkpt lat="43.316383361816" lon="-7.6330184936523">
        <ele>472</ele>
        <time>2019-09-11T10:20:52+00:00</time>
      </trkpt>
      <trkpt lat="43.316383361816" lon="-7.6330318450928">
        <ele>472</ele>
        <time>2019-09-11T10:20:53+00:00</time>
      </trkpt>
      <trkpt lat="43.316383361816" lon="-7.6330466270447">
        <ele>472</ele>
        <time>2019-09-11T10:20:54+00:00</time>
      </trkpt>
      <trkpt lat="43.316383361816" lon="-7.6330633163452">
        <ele>472</ele>
        <time>2019-09-11T10:20:55+00:00</time>
      </trkpt>
      <trkpt lat="43.316394805908" lon="-7.6330652236938">
        <ele>472</ele>
        <time>2019-09-11T10:20:56+00:00</time>
      </trkpt>
      <trkpt lat="43.316398620605" lon="-7.6330766677856">
        <ele>472</ele>
        <time>2019-09-11T10:20:57+00:00</time>
      </trkpt>
      <trkpt lat="43.316402435303" lon="-7.6330881118774">
        <ele>472</ele>
        <time>2019-09-11T10:20:58+00:00</time>
      </trkpt>
      <trkpt lat="43.31640625" lon="-7.6331067085266">
        <ele>472</ele>
        <time>2019-09-11T10:20:59+00:00</time>
      </trkpt>
      <trkpt lat="43.316410064697" lon="-7.6331148147583">
        <ele>472</ele>
        <time>2019-09-11T10:21:00+00:00</time>
      </trkpt>
      <trkpt lat="43.316410064697" lon="-7.6331248283386">
        <ele>472</ele>
        <time>2019-09-11T10:21:01+00:00</time>
      </trkpt>
      <trkpt lat="43.316413879395" lon="-7.6331467628479">
        <ele>472</ele>
        <time>2019-09-11T10:21:02+00:00</time>
      </trkpt>
      <trkpt lat="43.316413879395" lon="-7.6331601142883">
        <ele>472</ele>
        <time>2019-09-11T10:21:03+00:00</time>
      </trkpt>
      <trkpt lat="43.316417694092" lon="-7.6331715583801">
        <ele>472</ele>
        <time>2019-09-11T10:21:04+00:00</time>
      </trkpt>
      <trkpt lat="43.316417694092" lon="-7.6331834793091">
        <ele>472</ele>
        <time>2019-09-11T10:21:05+00:00</time>
      </trkpt>
      <trkpt lat="43.316421508789" lon="-7.6332015991211">
        <ele>472</ele>
        <time>2019-09-11T10:21:06+00:00</time>
      </trkpt>
      <trkpt lat="43.316421508789" lon="-7.6332201957703">
        <ele>472</ele>
        <time>2019-09-11T10:21:07+00:00</time>
      </trkpt>
      <trkpt lat="43.316425323486" lon="-7.6332349777222">
        <ele>472</ele>
        <time>2019-09-11T10:21:08+00:00</time>
      </trkpt>
      <trkpt lat="43.316432952881" lon="-7.6332516670227">
        <ele>472</ele>
        <time>2019-09-11T10:21:09+00:00</time>
      </trkpt>
      <trkpt lat="43.316440582275" lon="-7.6332683563232">
        <ele>472</ele>
        <time>2019-09-11T10:21:10+00:00</time>
      </trkpt>
      <trkpt lat="43.31644821167" lon="-7.6332817077637">
        <ele>472</ele>
        <time>2019-09-11T10:21:11+00:00</time>
      </trkpt>
      <trkpt lat="43.31644821167" lon="-7.6332931518555">
        <ele>472</ele>
        <time>2019-09-11T10:21:12+00:00</time>
      </trkpt>
      <trkpt lat="43.316455841064" lon="-7.6333198547363">
        <ele>472</ele>
        <time>2019-09-11T10:21:13+00:00</time>
      </trkpt>
      <trkpt lat="43.316463470459" lon="-7.6333484649658">
        <ele>472</ele>
        <time>2019-09-11T10:21:14+00:00</time>
      </trkpt>
      <trkpt lat="43.316467285156" lon="-7.6333718299866">
        <ele>472</ele>
        <time>2019-09-11T10:21:15+00:00</time>
      </trkpt>
      <trkpt lat="43.316471099854" lon="-7.6333932876587">
        <ele>472</ele>
        <time>2019-09-11T10:21:16+00:00</time>
      </trkpt>
      <trkpt lat="43.316474914551" lon="-7.6334166526794">
        <ele>472</ele>
        <time>2019-09-11T10:21:17+00:00</time>
      </trkpt>
      <trkpt lat="43.316474914551" lon="-7.63343334198">
        <ele>472</ele>
        <time>2019-09-11T10:21:18+00:00</time>
      </trkpt>
      <trkpt lat="43.316474914551" lon="-7.633451461792">
        <ele>472</ele>
        <time>2019-09-11T10:21:19+00:00</time>
      </trkpt>
      <trkpt lat="43.316474914551" lon="-7.6334633827209">
        <ele>472</ele>
        <time>2019-09-11T10:21:20+00:00</time>
      </trkpt>
      <trkpt lat="43.316474914551" lon="-7.6334733963013">
        <ele>472</ele>
        <time>2019-09-11T10:21:21+00:00</time>
      </trkpt>
      <trkpt lat="43.316474914551" lon="-7.633481502533">
        <ele>472</ele>
        <time>2019-09-11T10:21:22+00:00</time>
      </trkpt>
      <trkpt lat="43.316474914551" lon="-7.633496761322">
        <ele>472</ele>
        <time>2019-09-11T10:21:23+00:00</time>
      </trkpt>
      <trkpt lat="43.316478729248" lon="-7.6335115432739">
        <ele>472</ele>
        <time>2019-09-11T10:21:24+00:00</time>
      </trkpt>
      <trkpt lat="43.316482543945" lon="-7.6335215568542">
        <ele>472</ele>
        <time>2019-09-11T10:21:25+00:00</time>
      </trkpt>
      <trkpt lat="43.316482543945" lon="-7.6335382461548">
        <ele>472</ele>
        <time>2019-09-11T10:21:26+00:00</time>
      </trkpt>
      <trkpt lat="43.316486358643" lon="-7.6335535049438">
        <ele>473</ele>
        <time>2019-09-11T10:21:27+00:00</time>
      </trkpt>
      <trkpt lat="43.31649017334" lon="-7.6335701942444">
        <ele>473</ele>
        <time>2019-09-11T10:21:28+00:00</time>
      </trkpt>
      <trkpt lat="43.316501617432" lon="-7.633574962616">
        <ele>473</ele>
        <time>2019-09-11T10:21:29+00:00</time>
      </trkpt>
      <trkpt lat="43.316509246826" lon="-7.6335835456848">
        <ele>473</ele>
        <time>2019-09-11T10:21:30+00:00</time>
      </trkpt>
      <trkpt lat="43.316520690918" lon="-7.6335935592651">
        <ele>473</ele>
        <time>2019-09-11T10:21:31+00:00</time>
      </trkpt>
      <trkpt lat="43.316528320312" lon="-7.6336116790771">
        <ele>473</ele>
        <time>2019-09-11T10:21:32+00:00</time>
      </trkpt>
      <trkpt lat="43.316535949707" lon="-7.6336297988892">
        <ele>473</ele>
        <time>2019-09-11T10:21:33+00:00</time>
      </trkpt>
      <trkpt lat="43.316539764404" lon="-7.6336464881897">
        <ele>473</ele>
        <time>2019-09-11T10:21:34+00:00</time>
      </trkpt>
      <trkpt lat="43.316543579102" lon="-7.6336631774902">
        <ele>473</ele>
        <time>2019-09-11T10:21:35+00:00</time>
      </trkpt>
      <trkpt lat="43.316547393799" lon="-7.6336784362793">
        <ele>473</ele>
        <time>2019-09-11T10:21:36+00:00</time>
      </trkpt>
      <trkpt lat="43.316555023193" lon="-7.6336951255798">
        <ele>473</ele>
        <time>2019-09-11T10:21:37+00:00</time>
      </trkpt>
      <trkpt lat="43.316555023193" lon="-7.6337084770203">
        <ele>473</ele>
        <time>2019-09-11T10:21:38+00:00</time>
      </trkpt>
      <trkpt lat="43.316566467285" lon="-7.6337218284607">
        <ele>473</ele>
        <time>2019-09-11T10:21:39+00:00</time>
      </trkpt>
      <trkpt lat="43.316570281982" lon="-7.6337351799011">
        <ele>473</ele>
        <time>2019-09-11T10:21:40+00:00</time>
      </trkpt>
      <trkpt lat="43.31657409668" lon="-7.6337518692017">
        <ele>473</ele>
        <time>2019-09-11T10:21:41+00:00</time>
      </trkpt>
      <trkpt lat="43.316581726074" lon="-7.6337685585022">
        <ele>473</ele>
        <time>2019-09-11T10:21:42+00:00</time>
      </trkpt>
      <trkpt lat="43.316585540771" lon="-7.6337833404541">
        <ele>473</ele>
        <time>2019-09-11T10:21:43+00:00</time>
      </trkpt>
      <trkpt lat="43.316593170166" lon="-7.6338000297546">
        <ele>473</ele>
        <time>2019-09-11T10:21:44+00:00</time>
      </trkpt>
      <trkpt lat="43.316600799561" lon="-7.6338133811951">
        <ele>473</ele>
        <time>2019-09-11T10:21:45+00:00</time>
      </trkpt>
      <trkpt lat="43.316608428955" lon="-7.6338267326355">
        <ele>474</ele>
        <time>2019-09-11T10:21:46+00:00</time>
      </trkpt>
      <trkpt lat="43.316612243652" lon="-7.6338448524475">
        <ele>473</ele>
        <time>2019-09-11T10:21:47+00:00</time>
      </trkpt>
      <trkpt lat="43.316619873047" lon="-7.633861541748">
        <ele>473</ele>
        <time>2019-09-11T10:21:48+00:00</time>
      </trkpt>
      <trkpt lat="43.316619873047" lon="-7.6338782310486">
        <ele>473</ele>
        <time>2019-09-11T10:21:49+00:00</time>
      </trkpt>
      <trkpt lat="43.316619873047" lon="-7.6338934898376">
        <ele>473</ele>
        <time>2019-09-11T10:21:50+00:00</time>
      </trkpt>
      <trkpt lat="43.316623687744" lon="-7.6339068412781">
        <ele>473</ele>
        <time>2019-09-11T10:21:51+00:00</time>
      </trkpt>
      <trkpt lat="43.316627502441" lon="-7.6339168548584">
        <ele>473</ele>
        <time>2019-09-11T10:21:52+00:00</time>
      </trkpt>
      <trkpt lat="43.316635131836" lon="-7.6339268684387">
        <ele>473</ele>
        <time>2019-09-11T10:21:53+00:00</time>
      </trkpt>
      <trkpt lat="43.316638946533" lon="-7.633936882019">
        <ele>473</ele>
        <time>2019-09-11T10:21:54+00:00</time>
      </trkpt>
      <trkpt lat="43.316646575928" lon="-7.6339468955994">
        <ele>473</ele>
        <time>2019-09-11T10:21:55+00:00</time>
      </trkpt>
      <trkpt lat="43.316654205322" lon="-7.6339564323425">
        <ele>473</ele>
        <time>2019-09-11T10:21:56+00:00</time>
      </trkpt>
      <trkpt lat="43.31665802002" lon="-7.6339650154114">
        <ele>474</ele>
        <time>2019-09-11T10:21:57+00:00</time>
      </trkpt>
      <trkpt lat="43.316661834717" lon="-7.6339750289917">
        <ele>474</ele>
        <time>2019-09-11T10:21:58+00:00</time>
      </trkpt>
      <trkpt lat="43.316673278809" lon="-7.6339817047119">
        <ele>474</ele>
        <time>2019-09-11T10:21:59+00:00</time>
      </trkpt>
      <trkpt lat="43.316680908203" lon="-7.6339898109436">
        <ele>474</ele>
        <time>2019-09-11T10:22:00+00:00</time>
      </trkpt>
      <trkpt lat="43.3166847229" lon="-7.6339950561523">
        <ele>474</ele>
        <time>2019-09-11T10:22:01+00:00</time>
      </trkpt>
      <trkpt lat="43.316688537598" lon="-7.634003162384">
        <ele>474</ele>
        <time>2019-09-11T10:22:02+00:00</time>
      </trkpt>
      <trkpt lat="43.316692352295" lon="-7.6340165138245">
        <ele>474</ele>
        <time>2019-09-11T10:22:03+00:00</time>
      </trkpt>
      <trkpt lat="43.316696166992" lon="-7.6340284347534">
        <ele>474</ele>
        <time>2019-09-11T10:22:04+00:00</time>
      </trkpt>
      <trkpt lat="43.316699981689" lon="-7.6340398788452">
        <ele>474</ele>
        <time>2019-09-11T10:22:05+00:00</time>
      </trkpt>
      <trkpt lat="43.316707611084" lon="-7.634045124054">
        <ele>474</ele>
        <time>2019-09-11T10:22:06+00:00</time>
      </trkpt>
      <trkpt lat="43.316711425781" lon="-7.6340551376343">
        <ele>474</ele>
        <time>2019-09-11T10:22:07+00:00</time>
      </trkpt>
      <trkpt lat="43.316715240479" lon="-7.6340665817261">
        <ele>474</ele>
        <time>2019-09-11T10:22:08+00:00</time>
      </trkpt>
      <trkpt lat="43.316719055176" lon="-7.6340765953064">
        <ele>474</ele>
        <time>2019-09-11T10:22:09+00:00</time>
      </trkpt>
      <trkpt lat="43.316719055176" lon="-7.6340885162354">
        <ele>474</ele>
        <time>2019-09-11T10:22:10+00:00</time>
      </trkpt>
      <trkpt lat="43.316722869873" lon="-7.6340932846069">
        <ele>474</ele>
        <time>2019-09-11T10:22:11+00:00</time>
      </trkpt>
      <trkpt lat="43.31672668457" lon="-7.6341066360474">
        <ele>474</ele>
        <time>2019-09-11T10:22:12+00:00</time>
      </trkpt>
      <trkpt lat="43.31672668457" lon="-7.6341133117676">
        <ele>474</ele>
        <time>2019-09-11T10:22:13+00:00</time>
      </trkpt>
      <trkpt lat="43.31672668457" lon="-7.6341166496277">
        <ele>474</ele>
        <time>2019-09-11T10:22:14+00:00</time>
      </trkpt>
      <trkpt lat="43.31672668457" lon="-7.6341300010681">
        <ele>474</ele>
        <time>2019-09-11T10:22:15+00:00</time>
      </trkpt>
      <trkpt lat="43.31672668457" lon="-7.63414478302">
        <ele>474</ele>
        <time>2019-09-11T10:22:16+00:00</time>
      </trkpt>
      <trkpt lat="43.316738128662" lon="-7.6341500282288">
        <ele>474</ele>
        <time>2019-09-11T10:22:17+00:00</time>
      </trkpt>
      <trkpt lat="43.316738128662" lon="-7.6341581344604">
        <ele>474</ele>
        <time>2019-09-11T10:22:18+00:00</time>
      </trkpt>
      <trkpt lat="43.316738128662" lon="-7.6341681480408">
        <ele>474</ele>
        <time>2019-09-11T10:22:19+00:00</time>
      </trkpt>
      <trkpt lat="43.316745758057" lon="-7.6341814994812">
        <ele>474</ele>
        <time>2019-09-11T10:22:20+00:00</time>
      </trkpt>
      <trkpt lat="43.316745758057" lon="-7.6341934204102">
        <ele>475</ele>
        <time>2019-09-11T10:22:21+00:00</time>
      </trkpt>
      <trkpt lat="43.316745758057" lon="-7.6342082023621">
        <ele>475</ele>
        <time>2019-09-11T10:22:22+00:00</time>
      </trkpt>
      <trkpt lat="43.316749572754" lon="-7.6342215538025">
        <ele>475</ele>
        <time>2019-09-11T10:22:23+00:00</time>
      </trkpt>
      <trkpt lat="43.316749572754" lon="-7.6342315673828">
        <ele>475</ele>
        <time>2019-09-11T10:22:24+00:00</time>
      </trkpt>
      <trkpt lat="43.316749572754" lon="-7.6342415809631">
        <ele>475</ele>
        <time>2019-09-11T10:22:25+00:00</time>
      </trkpt>
      <trkpt lat="43.316745758057" lon="-7.6342549324036">
        <ele>475</ele>
        <time>2019-09-11T10:22:26+00:00</time>
      </trkpt>
      <trkpt lat="43.316745758057" lon="-7.6342749595642">
        <ele>475</ele>
        <time>2019-09-11T10:22:27+00:00</time>
      </trkpt>
      <trkpt lat="43.316745758057" lon="-7.6342949867249">
        <ele>475</ele>
        <time>2019-09-11T10:22:28+00:00</time>
      </trkpt>
      <trkpt lat="43.316749572754" lon="-7.634316444397">
        <ele>475</ele>
        <time>2019-09-11T10:22:29+00:00</time>
      </trkpt>
      <trkpt lat="43.316749572754" lon="-7.6343364715576">
        <ele>476</ele>
        <time>2019-09-11T10:22:30+00:00</time>
      </trkpt>
      <trkpt lat="43.316753387451" lon="-7.6343531608582">
        <ele>476</ele>
        <time>2019-09-11T10:22:31+00:00</time>
      </trkpt>
      <trkpt lat="43.316753387451" lon="-7.6343731880188">
        <ele>476</ele>
        <time>2019-09-11T10:22:32+00:00</time>
      </trkpt>
      <trkpt lat="43.316757202148" lon="-7.6343951225281">
        <ele>476</ele>
        <time>2019-09-11T10:22:33+00:00</time>
      </trkpt>
      <trkpt lat="43.316764831543" lon="-7.6344132423401">
        <ele>476</ele>
        <time>2019-09-11T10:22:34+00:00</time>
      </trkpt>
      <trkpt lat="43.316772460938" lon="-7.6344418525696">
        <ele>476</ele>
        <time>2019-09-11T10:22:35+00:00</time>
      </trkpt>
      <trkpt lat="43.316776275635" lon="-7.6344633102417">
        <ele>476</ele>
        <time>2019-09-11T10:22:36+00:00</time>
      </trkpt>
      <trkpt lat="43.316780090332" lon="-7.6344799995422">
        <ele>476</ele>
        <time>2019-09-11T10:22:37+00:00</time>
      </trkpt>
      <trkpt lat="43.316780090332" lon="-7.6345000267029">
        <ele>476</ele>
        <time>2019-09-11T10:22:38+00:00</time>
      </trkpt>
      <trkpt lat="43.316780090332" lon="-7.6345167160034">
        <ele>476</ele>
        <time>2019-09-11T10:22:39+00:00</time>
      </trkpt>
      <trkpt lat="43.316783905029" lon="-7.634533405304">
        <ele>476</ele>
        <time>2019-09-11T10:22:40+00:00</time>
      </trkpt>
      <trkpt lat="43.316791534424" lon="-7.6345567703247">
        <ele>476</ele>
        <time>2019-09-11T10:22:41+00:00</time>
      </trkpt>
      <trkpt lat="43.316795349121" lon="-7.6345782279968">
        <ele>476</ele>
        <time>2019-09-11T10:22:42+00:00</time>
      </trkpt>
      <trkpt lat="43.316802978516" lon="-7.6345982551575">
        <ele>476</ele>
        <time>2019-09-11T10:22:43+00:00</time>
      </trkpt>
      <trkpt lat="43.316814422607" lon="-7.6346168518066">
        <ele>476</ele>
        <time>2019-09-11T10:22:44+00:00</time>
      </trkpt>
      <trkpt lat="43.316822052002" lon="-7.6346316337585">
        <ele>476</ele>
        <time>2019-09-11T10:22:45+00:00</time>
      </trkpt>
      <trkpt lat="43.316829681396" lon="-7.6346416473389">
        <ele>476</ele>
        <time>2019-09-11T10:22:46+00:00</time>
      </trkpt>
      <trkpt lat="43.316829681396" lon="-7.6346564292908">
        <ele>476</ele>
        <time>2019-09-11T10:22:47+00:00</time>
      </trkpt>
      <trkpt lat="43.316837310791" lon="-7.6346750259399">
        <ele>476</ele>
        <time>2019-09-11T10:22:48+00:00</time>
      </trkpt>
      <trkpt lat="43.316844940186" lon="-7.6346864700317">
        <ele>476</ele>
        <time>2019-09-11T10:22:49+00:00</time>
      </trkpt>
      <trkpt lat="43.316848754883" lon="-7.6347017288208">
        <ele>476</ele>
        <time>2019-09-11T10:22:50+00:00</time>
      </trkpt>
      <trkpt lat="43.316856384277" lon="-7.6347131729126">
        <ele>476</ele>
        <time>2019-09-11T10:22:51+00:00</time>
      </trkpt>
      <trkpt lat="43.316860198975" lon="-7.6347284317017">
        <ele>476</ele>
        <time>2019-09-11T10:22:52+00:00</time>
      </trkpt>
      <trkpt lat="43.316864013672" lon="-7.6347417831421">
        <ele>476</ele>
        <time>2019-09-11T10:22:53+00:00</time>
      </trkpt>
      <trkpt lat="43.316871643066" lon="-7.6347551345825">
        <ele>477</ele>
        <time>2019-09-11T10:22:54+00:00</time>
      </trkpt>
      <trkpt lat="43.316875457764" lon="-7.6347699165344">
        <ele>476</ele>
        <time>2019-09-11T10:22:55+00:00</time>
      </trkpt>
      <trkpt lat="43.316883087158" lon="-7.6347851753235">
        <ele>476</ele>
        <time>2019-09-11T10:22:56+00:00</time>
      </trkpt>
      <trkpt lat="43.316886901855" lon="-7.6347999572754">
        <ele>476</ele>
        <time>2019-09-11T10:22:57+00:00</time>
      </trkpt>
      <trkpt lat="43.31689453125" lon="-7.6348133087158">
        <ele>476</ele>
        <time>2019-09-11T10:22:58+00:00</time>
      </trkpt>
      <trkpt lat="43.316898345947" lon="-7.6348285675049">
        <ele>476</ele>
        <time>2019-09-11T10:22:59+00:00</time>
      </trkpt>
      <trkpt lat="43.316902160645" lon="-7.6348447799683">
        <ele>476</ele>
        <time>2019-09-11T10:23:00+00:00</time>
      </trkpt>
      <trkpt lat="43.316905975342" lon="-7.6348600387573">
        <ele>476</ele>
        <time>2019-09-11T10:23:01+00:00</time>
      </trkpt>
      <trkpt lat="43.316909790039" lon="-7.6348733901978">
        <ele>476</ele>
        <time>2019-09-11T10:23:02+00:00</time>
      </trkpt>
      <trkpt lat="43.316909790039" lon="-7.6348881721497">
        <ele>476</ele>
        <time>2019-09-11T10:23:03+00:00</time>
      </trkpt>
      <trkpt lat="43.316913604736" lon="-7.6349015235901">
        <ele>476</ele>
        <time>2019-09-11T10:23:04+00:00</time>
      </trkpt>
      <trkpt lat="43.316921234131" lon="-7.634913444519">
        <ele>477</ele>
        <time>2019-09-11T10:23:05+00:00</time>
      </trkpt>
      <trkpt lat="43.316925048828" lon="-7.6349248886108">
        <ele>476</ele>
        <time>2019-09-11T10:23:06+00:00</time>
      </trkpt>
      <trkpt lat="43.316928863525" lon="-7.6349401473999">
        <ele>476</ele>
        <time>2019-09-11T10:23:07+00:00</time>
      </trkpt>
      <trkpt lat="43.31693649292" lon="-7.6349549293518">
        <ele>477</ele>
        <time>2019-09-11T10:23:08+00:00</time>
      </trkpt>
      <trkpt lat="43.31693649292" lon="-7.6349716186523">
        <ele>477</ele>
        <time>2019-09-11T10:23:09+00:00</time>
      </trkpt>
      <trkpt lat="43.316940307617" lon="-7.6349868774414">
        <ele>477</ele>
        <time>2019-09-11T10:23:10+00:00</time>
      </trkpt>
      <trkpt lat="43.316944122314" lon="-7.6350035667419">
        <ele>477</ele>
        <time>2019-09-11T10:23:11+00:00</time>
      </trkpt>
      <trkpt lat="43.316947937012" lon="-7.6350183486938">
        <ele>477</ele>
        <time>2019-09-11T10:23:12+00:00</time>
      </trkpt>
      <trkpt lat="43.316951751709" lon="-7.6350317001343">
        <ele>477</ele>
        <time>2019-09-11T10:23:13+00:00</time>
      </trkpt>
      <trkpt lat="43.316959381104" lon="-7.6350450515747">
        <ele>477</ele>
        <time>2019-09-11T10:23:14+00:00</time>
      </trkpt>
      <trkpt lat="43.316963195801" lon="-7.6350598335266">
        <ele>477</ele>
        <time>2019-09-11T10:23:15+00:00</time>
      </trkpt>
      <trkpt lat="43.316967010498" lon="-7.6350750923157">
        <ele>477</ele>
        <time>2019-09-11T10:23:16+00:00</time>
      </trkpt>
      <trkpt lat="43.316970825195" lon="-7.6350932121277">
        <ele>477</ele>
        <time>2019-09-11T10:23:17+00:00</time>
      </trkpt>
      <trkpt lat="43.316974639893" lon="-7.6351065635681">
        <ele>477</ele>
        <time>2019-09-11T10:23:18+00:00</time>
      </trkpt>
      <trkpt lat="43.31697845459" lon="-7.6351218223572">
        <ele>477</ele>
        <time>2019-09-11T10:23:19+00:00</time>
      </trkpt>
      <trkpt lat="43.316982269287" lon="-7.6351366043091">
        <ele>477</ele>
        <time>2019-09-11T10:23:20+00:00</time>
      </trkpt>
      <trkpt lat="43.316986083984" lon="-7.6351518630981">
        <ele>477</ele>
        <time>2019-09-11T10:23:21+00:00</time>
      </trkpt>
      <trkpt lat="43.316986083984" lon="-7.6351685523987">
        <ele>477</ele>
        <time>2019-09-11T10:23:22+00:00</time>
      </trkpt>
      <trkpt lat="43.316986083984" lon="-7.6351847648621">
        <ele>477</ele>
        <time>2019-09-11T10:23:23+00:00</time>
      </trkpt>
      <trkpt lat="43.316989898682" lon="-7.6352014541626">
        <ele>477</ele>
        <time>2019-09-11T10:23:24+00:00</time>
      </trkpt>
      <trkpt lat="43.316989898682" lon="-7.6352181434631">
        <ele>477</ele>
        <time>2019-09-11T10:23:25+00:00</time>
      </trkpt>
      <trkpt lat="43.316993713379" lon="-7.6352334022522">
        <ele>477</ele>
        <time>2019-09-11T10:23:26+00:00</time>
      </trkpt>
      <trkpt lat="43.316993713379" lon="-7.6352481842041">
        <ele>477</ele>
        <time>2019-09-11T10:23:27+00:00</time>
      </trkpt>
      <trkpt lat="43.316997528076" lon="-7.6352615356445">
        <ele>477</ele>
        <time>2019-09-11T10:23:28+00:00</time>
      </trkpt>
      <trkpt lat="43.317005157471" lon="-7.635274887085">
        <ele>477</ele>
        <time>2019-09-11T10:23:29+00:00</time>
      </trkpt>
      <trkpt lat="43.317012786865" lon="-7.6352882385254">
        <ele>477</ele>
        <time>2019-09-11T10:23:30+00:00</time>
      </trkpt>
      <trkpt lat="43.317016601562" lon="-7.6353015899658">
        <ele>477</ele>
        <time>2019-09-11T10:23:31+00:00</time>
      </trkpt>
      <trkpt lat="43.31702041626" lon="-7.635320186615">
        <ele>477</ele>
        <time>2019-09-11T10:23:32+00:00</time>
      </trkpt>
      <trkpt lat="43.317024230957" lon="-7.6353349685669">
        <ele>477</ele>
        <time>2019-09-11T10:23:33+00:00</time>
      </trkpt>
      <trkpt lat="43.317031860352" lon="-7.6353468894958">
        <ele>477</ele>
        <time>2019-09-11T10:23:34+00:00</time>
      </trkpt>
      <trkpt lat="43.317031860352" lon="-7.6353569030762">
        <ele>477</ele>
        <time>2019-09-11T10:23:35+00:00</time>
      </trkpt>
      <trkpt lat="43.317039489746" lon="-7.6353697776794">
        <ele>478</ele>
        <time>2019-09-11T10:23:36+00:00</time>
      </trkpt>
      <trkpt lat="43.317043304443" lon="-7.6353816986084">
        <ele>478</ele>
        <time>2019-09-11T10:23:37+00:00</time>
      </trkpt>
      <trkpt lat="43.317047119141" lon="-7.6353931427002">
        <ele>478</ele>
        <time>2019-09-11T10:23:38+00:00</time>
      </trkpt>
      <trkpt lat="43.317058563232" lon="-7.6354050636292">
        <ele>478</ele>
        <time>2019-09-11T10:23:39+00:00</time>
      </trkpt>
      <trkpt lat="43.317066192627" lon="-7.6354231834412">
        <ele>478</ele>
        <time>2019-09-11T10:23:40+00:00</time>
      </trkpt>
      <trkpt lat="43.317073822021" lon="-7.6354365348816">
        <ele>478</ele>
        <time>2019-09-11T10:23:41+00:00</time>
      </trkpt>
      <trkpt lat="43.317081451416" lon="-7.6354551315308">
        <ele>478</ele>
        <time>2019-09-11T10:23:42+00:00</time>
      </trkpt>
      <trkpt lat="43.317085266113" lon="-7.6354751586914">
        <ele>478</ele>
        <time>2019-09-11T10:23:43+00:00</time>
      </trkpt>
      <trkpt lat="43.317089080811" lon="-7.6354932785034">
        <ele>478</ele>
        <time>2019-09-11T10:23:44+00:00</time>
      </trkpt>
      <trkpt lat="43.317096710205" lon="-7.635509967804">
        <ele>478</ele>
        <time>2019-09-11T10:23:45+00:00</time>
      </trkpt>
      <trkpt lat="43.317100524902" lon="-7.6355266571045">
        <ele>478</ele>
        <time>2019-09-11T10:23:46+00:00</time>
      </trkpt>
      <trkpt lat="43.317108154297" lon="-7.6355466842651">
        <ele>479</ele>
        <time>2019-09-11T10:23:47+00:00</time>
      </trkpt>
      <trkpt lat="43.317115783691" lon="-7.6355648040771">
        <ele>479</ele>
        <time>2019-09-11T10:23:48+00:00</time>
      </trkpt>
      <trkpt lat="43.317123413086" lon="-7.6355714797974">
        <ele>479</ele>
        <time>2019-09-11T10:23:49+00:00</time>
      </trkpt>
      <trkpt lat="43.317127227783" lon="-7.6355781555176">
        <ele>479</ele>
        <time>2019-09-11T10:23:50+00:00</time>
      </trkpt>
      <trkpt lat="43.317134857178" lon="-7.6355881690979">
        <ele>479</ele>
        <time>2019-09-11T10:23:51+00:00</time>
      </trkpt>
      <trkpt lat="43.317142486572" lon="-7.6355934143066">
        <ele>479</ele>
        <time>2019-09-11T10:23:52+00:00</time>
      </trkpt>
      <trkpt lat="43.31714630127" lon="-7.635603427887">
        <ele>479</ele>
        <time>2019-09-11T10:23:53+00:00</time>
      </trkpt>
      <trkpt lat="43.317150115967" lon="-7.6356115341187">
        <ele>480</ele>
        <time>2019-09-11T10:23:54+00:00</time>
      </trkpt>
      <trkpt lat="43.317157745361" lon="-7.6356267929077">
        <ele>480</ele>
        <time>2019-09-11T10:23:55+00:00</time>
      </trkpt>
      <trkpt lat="43.317153930664" lon="-7.6356501579285">
        <ele>480</ele>
        <time>2019-09-11T10:23:56+00:00</time>
      </trkpt>
      <trkpt lat="43.317150115967" lon="-7.635666847229">
        <ele>480</ele>
        <time>2019-09-11T10:23:57+00:00</time>
      </trkpt>
      <trkpt lat="43.317153930664" lon="-7.6356883049011">
        <ele>480</ele>
        <time>2019-09-11T10:23:58+00:00</time>
      </trkpt>
      <trkpt lat="43.317153930664" lon="-7.6357069015503">
        <ele>481</ele>
        <time>2019-09-11T10:23:59+00:00</time>
      </trkpt>
      <trkpt lat="43.317157745361" lon="-7.6357250213623">
        <ele>481</ele>
        <time>2019-09-11T10:24:00+00:00</time>
      </trkpt>
      <trkpt lat="43.317161560059" lon="-7.6357398033142">
        <ele>481</ele>
        <time>2019-09-11T10:24:01+00:00</time>
      </trkpt>
      <trkpt lat="43.317165374756" lon="-7.6357598304749">
        <ele>481</ele>
        <time>2019-09-11T10:24:02+00:00</time>
      </trkpt>
      <trkpt lat="43.317169189453" lon="-7.6357750892639">
        <ele>481</ele>
        <time>2019-09-11T10:24:03+00:00</time>
      </trkpt>
      <trkpt lat="43.317176818848" lon="-7.6357884407043">
        <ele>481</ele>
        <time>2019-09-11T10:24:04+00:00</time>
      </trkpt>
      <trkpt lat="43.317180633545" lon="-7.6357998847961">
        <ele>481</ele>
        <time>2019-09-11T10:24:05+00:00</time>
      </trkpt>
      <trkpt lat="43.317184448242" lon="-7.6358165740967">
        <ele>481</ele>
        <time>2019-09-11T10:24:06+00:00</time>
      </trkpt>
      <trkpt lat="43.317184448242" lon="-7.6358351707458">
        <ele>480</ele>
        <time>2019-09-11T10:24:07+00:00</time>
      </trkpt>
      <trkpt lat="43.317188262939" lon="-7.6358518600464">
        <ele>480</ele>
        <time>2019-09-11T10:24:08+00:00</time>
      </trkpt>
      <trkpt lat="43.317188262939" lon="-7.6358699798584">
        <ele>480</ele>
        <time>2019-09-11T10:24:09+00:00</time>
      </trkpt>
      <trkpt lat="43.317195892334" lon="-7.6358880996704">
        <ele>480</ele>
        <time>2019-09-11T10:24:10+00:00</time>
      </trkpt>
      <trkpt lat="43.317199707031" lon="-7.6359033584595">
        <ele>480</ele>
        <time>2019-09-11T10:24:11+00:00</time>
      </trkpt>
      <trkpt lat="43.317203521729" lon="-7.63592004776">
        <ele>480</ele>
        <time>2019-09-11T10:24:12+00:00</time>
      </trkpt>
      <trkpt lat="43.317211151123" lon="-7.6359367370605">
        <ele>480</ele>
        <time>2019-09-11T10:24:13+00:00</time>
      </trkpt>
      <trkpt lat="43.317211151123" lon="-7.6359515190125">
        <ele>480</ele>
        <time>2019-09-11T10:24:14+00:00</time>
      </trkpt>
      <trkpt lat="43.317211151123" lon="-7.6359701156616">
        <ele>480</ele>
        <time>2019-09-11T10:24:15+00:00</time>
      </trkpt>
      <trkpt lat="43.31721496582" lon="-7.6359834671021">
        <ele>480</ele>
        <time>2019-09-11T10:24:16+00:00</time>
      </trkpt>
      <trkpt lat="43.317218780518" lon="-7.635998249054">
        <ele>480</ele>
        <time>2019-09-11T10:24:17+00:00</time>
      </trkpt>
      <trkpt lat="43.317222595215" lon="-7.636013507843">
        <ele>480</ele>
        <time>2019-09-11T10:24:18+00:00</time>
      </trkpt>
      <trkpt lat="43.317226409912" lon="-7.6360282897949">
        <ele>480</ele>
        <time>2019-09-11T10:24:19+00:00</time>
      </trkpt>
      <trkpt lat="43.317230224609" lon="-7.6360402107239">
        <ele>480</ele>
        <time>2019-09-11T10:24:20+00:00</time>
      </trkpt>
      <trkpt lat="43.317230224609" lon="-7.6360569000244">
        <ele>480</ele>
        <time>2019-09-11T10:24:21+00:00</time>
      </trkpt>
      <trkpt lat="43.317234039307" lon="-7.6360697746277">
        <ele>481</ele>
        <time>2019-09-11T10:24:22+00:00</time>
      </trkpt>
      <trkpt lat="43.317237854004" lon="-7.6360850334167">
        <ele>481</ele>
        <time>2019-09-11T10:24:23+00:00</time>
      </trkpt>
      <trkpt lat="43.317241668701" lon="-7.6361031532288">
        <ele>481</ele>
        <time>2019-09-11T10:24:24+00:00</time>
      </trkpt>
      <trkpt lat="43.317245483398" lon="-7.6361184120178">
        <ele>481</ele>
        <time>2019-09-11T10:24:25+00:00</time>
      </trkpt>
      <trkpt lat="43.317253112793" lon="-7.6361365318298">
        <ele>481</ele>
        <time>2019-09-11T10:24:26+00:00</time>
      </trkpt>
      <trkpt lat="43.31725692749" lon="-7.636155128479">
        <ele>481</ele>
        <time>2019-09-11T10:24:27+00:00</time>
      </trkpt>
      <trkpt lat="43.317260742188" lon="-7.6361684799194">
        <ele>481</ele>
        <time>2019-09-11T10:24:28+00:00</time>
      </trkpt>
      <trkpt lat="43.317264556885" lon="-7.6361832618713">
        <ele>481</ele>
        <time>2019-09-11T10:24:29+00:00</time>
      </trkpt>
      <trkpt lat="43.317268371582" lon="-7.6361951828003">
        <ele>481</ele>
        <time>2019-09-11T10:24:30+00:00</time>
      </trkpt>
      <trkpt lat="43.317268371582" lon="-7.6362085342407">
        <ele>481</ele>
        <time>2019-09-11T10:24:31+00:00</time>
      </trkpt>
      <trkpt lat="43.317272186279" lon="-7.6362199783325">
        <ele>481</ele>
        <time>2019-09-11T10:24:32+00:00</time>
      </trkpt>
      <trkpt lat="43.317279815674" lon="-7.6362318992615">
        <ele>481</ele>
        <time>2019-09-11T10:24:33+00:00</time>
      </trkpt>
      <trkpt lat="43.317283630371" lon="-7.6362433433533">
        <ele>481</ele>
        <time>2019-09-11T10:24:34+00:00</time>
      </trkpt>
      <trkpt lat="43.317287445068" lon="-7.6362581253052">
        <ele>481</ele>
        <time>2019-09-11T10:24:35+00:00</time>
      </trkpt>
      <trkpt lat="43.317287445068" lon="-7.6362800598145">
        <ele>481</ele>
        <time>2019-09-11T10:24:36+00:00</time>
      </trkpt>
      <trkpt lat="43.317291259766" lon="-7.6362948417664">
        <ele>481</ele>
        <time>2019-09-11T10:24:37+00:00</time>
      </trkpt>
      <trkpt lat="43.317295074463" lon="-7.6363115310669">
        <ele>481</ele>
        <time>2019-09-11T10:24:38+00:00</time>
      </trkpt>
      <trkpt lat="43.31729888916" lon="-7.6363301277161">
        <ele>481</ele>
        <time>2019-09-11T10:24:39+00:00</time>
      </trkpt>
      <trkpt lat="43.317302703857" lon="-7.6363415718079">
        <ele>481</ele>
        <time>2019-09-11T10:24:40+00:00</time>
      </trkpt>
      <trkpt lat="43.317302703857" lon="-7.6363582611084">
        <ele>481</ele>
        <time>2019-09-11T10:24:41+00:00</time>
      </trkpt>
      <trkpt lat="43.31729888916" lon="-7.6363735198975">
        <ele>481</ele>
        <time>2019-09-11T10:24:42+00:00</time>
      </trkpt>
      <trkpt lat="43.317302703857" lon="-7.6363868713379">
        <ele>481</ele>
        <time>2019-09-11T10:24:43+00:00</time>
      </trkpt>
      <trkpt lat="43.317306518555" lon="-7.6363983154297">
        <ele>481</ele>
        <time>2019-09-11T10:24:44+00:00</time>
      </trkpt>
      <trkpt lat="43.317306518555" lon="-7.6364102363586">
        <ele>481</ele>
        <time>2019-09-11T10:24:45+00:00</time>
      </trkpt>
      <trkpt lat="43.317310333252" lon="-7.6364197731018">
        <ele>481</ele>
        <time>2019-09-11T10:24:46+00:00</time>
      </trkpt>
      <trkpt lat="43.317317962646" lon="-7.6364283561707">
        <ele>481</ele>
        <time>2019-09-11T10:24:47+00:00</time>
      </trkpt>
      <trkpt lat="43.317329406738" lon="-7.636438369751">
        <ele>481</ele>
        <time>2019-09-11T10:24:48+00:00</time>
      </trkpt>
      <trkpt lat="43.31734085083" lon="-7.6364498138428">
        <ele>481</ele>
        <time>2019-09-11T10:24:49+00:00</time>
      </trkpt>
      <trkpt lat="43.317352294922" lon="-7.6364617347717">
        <ele>481</ele>
        <time>2019-09-11T10:24:50+00:00</time>
      </trkpt>
      <trkpt lat="43.317359924316" lon="-7.6364717483521">
        <ele>481</ele>
        <time>2019-09-11T10:24:51+00:00</time>
      </trkpt>
      <trkpt lat="43.317367553711" lon="-7.6364831924438">
        <ele>481</ele>
        <time>2019-09-11T10:24:52+00:00</time>
      </trkpt>
      <trkpt lat="43.317375183105" lon="-7.6365032196045">
        <ele>481</ele>
        <time>2019-09-11T10:24:53+00:00</time>
      </trkpt>
      <trkpt lat="43.3173828125" lon="-7.6365165710449">
        <ele>481</ele>
        <time>2019-09-11T10:24:54+00:00</time>
      </trkpt>
      <trkpt lat="43.317390441895" lon="-7.6365332603455">
        <ele>480</ele>
        <time>2019-09-11T10:24:55+00:00</time>
      </trkpt>
      <trkpt lat="43.317398071289" lon="-7.6365466117859">
        <ele>480</ele>
        <time>2019-09-11T10:24:56+00:00</time>
      </trkpt>
      <trkpt lat="43.317401885986" lon="-7.636561870575">
        <ele>480</ele>
        <time>2019-09-11T10:24:57+00:00</time>
      </trkpt>
      <trkpt lat="43.317405700684" lon="-7.6365766525269">
        <ele>480</ele>
        <time>2019-09-11T10:24:58+00:00</time>
      </trkpt>
      <trkpt lat="43.317413330078" lon="-7.6365933418274">
        <ele>480</ele>
        <time>2019-09-11T10:24:59+00:00</time>
      </trkpt>
      <trkpt lat="43.317420959473" lon="-7.6366100311279">
        <ele>480</ele>
        <time>2019-09-11T10:25:00+00:00</time>
      </trkpt>
      <trkpt lat="43.31742477417" lon="-7.6366281509399">
        <ele>480</ele>
        <time>2019-09-11T10:25:01+00:00</time>
      </trkpt>
      <trkpt lat="43.317428588867" lon="-7.636643409729">
        <ele>480</ele>
        <time>2019-09-11T10:25:02+00:00</time>
      </trkpt>
      <trkpt lat="43.317432403564" lon="-7.6366567611694">
        <ele>480</ele>
        <time>2019-09-11T10:25:03+00:00</time>
      </trkpt>
      <trkpt lat="43.317436218262" lon="-7.6366748809814">
        <ele>480</ele>
        <time>2019-09-11T10:25:04+00:00</time>
      </trkpt>
      <trkpt lat="43.317440032959" lon="-7.6366901397705">
        <ele>480</ele>
        <time>2019-09-11T10:25:05+00:00</time>
      </trkpt>
      <trkpt lat="43.317440032959" lon="-7.6367049217224">
        <ele>480</ele>
        <time>2019-09-11T10:25:06+00:00</time>
      </trkpt>
      <trkpt lat="43.317447662354" lon="-7.6367216110229">
        <ele>480</ele>
        <time>2019-09-11T10:25:07+00:00</time>
      </trkpt>
      <trkpt lat="43.317455291748" lon="-7.6367349624634">
        <ele>480</ele>
        <time>2019-09-11T10:25:08+00:00</time>
      </trkpt>
      <trkpt lat="43.317455291748" lon="-7.6367483139038">
        <ele>481</ele>
        <time>2019-09-11T10:25:09+00:00</time>
      </trkpt>
      <trkpt lat="43.317462921143" lon="-7.6367616653442">
        <ele>481</ele>
        <time>2019-09-11T10:25:10+00:00</time>
      </trkpt>
      <trkpt lat="43.31746673584" lon="-7.636773109436">
        <ele>481</ele>
        <time>2019-09-11T10:25:11+00:00</time>
      </trkpt>
      <trkpt lat="43.31746673584" lon="-7.6367897987366">
        <ele>481</ele>
        <time>2019-09-11T10:25:12+00:00</time>
      </trkpt>
      <trkpt lat="43.31746673584" lon="-7.6368050575256">
        <ele>481</ele>
        <time>2019-09-11T10:25:13+00:00</time>
      </trkpt>
      <trkpt lat="43.31746673584" lon="-7.6368184089661">
        <ele>480</ele>
        <time>2019-09-11T10:25:14+00:00</time>
      </trkpt>
      <trkpt lat="43.31746673584" lon="-7.6368317604065">
        <ele>480</ele>
        <time>2019-09-11T10:25:15+00:00</time>
      </trkpt>
      <trkpt lat="43.317470550537" lon="-7.6368465423584">
        <ele>480</ele>
        <time>2019-09-11T10:25:16+00:00</time>
      </trkpt>
      <trkpt lat="43.317470550537" lon="-7.6368618011475">
        <ele>480</ele>
        <time>2019-09-11T10:25:17+00:00</time>
      </trkpt>
      <trkpt lat="43.317470550537" lon="-7.636878490448">
        <ele>480</ele>
        <time>2019-09-11T10:25:18+00:00</time>
      </trkpt>
      <trkpt lat="43.317470550537" lon="-7.6368951797485">
        <ele>480</ele>
        <time>2019-09-11T10:25:19+00:00</time>
      </trkpt>
      <trkpt lat="43.317474365234" lon="-7.6369132995605">
        <ele>480</ele>
        <time>2019-09-11T10:25:20+00:00</time>
      </trkpt>
      <trkpt lat="43.317474365234" lon="-7.6369285583496">
        <ele>480</ele>
        <time>2019-09-11T10:25:21+00:00</time>
      </trkpt>
      <trkpt lat="43.317478179932" lon="-7.6369400024414">
        <ele>480</ele>
        <time>2019-09-11T10:25:22+00:00</time>
      </trkpt>
      <trkpt lat="43.317478179932" lon="-7.6369533538818">
        <ele>480</ele>
        <time>2019-09-11T10:25:23+00:00</time>
      </trkpt>
      <trkpt lat="43.317481994629" lon="-7.6369667053223">
        <ele>480</ele>
        <time>2019-09-11T10:25:24+00:00</time>
      </trkpt>
      <trkpt lat="43.317485809326" lon="-7.6369848251343">
        <ele>481</ele>
        <time>2019-09-11T10:25:25+00:00</time>
      </trkpt>
      <trkpt lat="43.317489624023" lon="-7.6370000839233">
        <ele>481</ele>
        <time>2019-09-11T10:25:26+00:00</time>
      </trkpt>
      <trkpt lat="43.317493438721" lon="-7.6370182037354">
        <ele>481</ele>
        <time>2019-09-11T10:25:27+00:00</time>
      </trkpt>
      <trkpt lat="43.317497253418" lon="-7.6370348930359">
        <ele>481</ele>
        <time>2019-09-11T10:25:28+00:00</time>
      </trkpt>
      <trkpt lat="43.317501068115" lon="-7.6370515823364">
        <ele>481</ele>
        <time>2019-09-11T10:25:29+00:00</time>
      </trkpt>
      <trkpt lat="43.317501068115" lon="-7.6370649337769">
        <ele>481</ele>
        <time>2019-09-11T10:25:30+00:00</time>
      </trkpt>
      <trkpt lat="43.317501068115" lon="-7.6370801925659">
        <ele>481</ele>
        <time>2019-09-11T10:25:31+00:00</time>
      </trkpt>
      <trkpt lat="43.317504882812" lon="-7.6370949745178">
        <ele>481</ele>
        <time>2019-09-11T10:25:32+00:00</time>
      </trkpt>
      <trkpt lat="43.317504882812" lon="-7.6371116638184">
        <ele>481</ele>
        <time>2019-09-11T10:25:33+00:00</time>
      </trkpt>
      <trkpt lat="43.317504882812" lon="-7.6371264457703">
        <ele>481</ele>
        <time>2019-09-11T10:25:34+00:00</time>
      </trkpt>
      <trkpt lat="43.31750869751" lon="-7.6371383666992">
        <ele>481</ele>
        <time>2019-09-11T10:25:35+00:00</time>
      </trkpt>
      <trkpt lat="43.317512512207" lon="-7.6371550559998">
        <ele>481</ele>
        <time>2019-09-11T10:25:36+00:00</time>
      </trkpt>
      <trkpt lat="43.317512512207" lon="-7.6371665000916">
        <ele>481</ele>
        <time>2019-09-11T10:25:37+00:00</time>
      </trkpt>
      <trkpt lat="43.317516326904" lon="-7.637179851532">
        <ele>481</ele>
        <time>2019-09-11T10:25:38+00:00</time>
      </trkpt>
      <trkpt lat="43.317523956299" lon="-7.6371932029724">
        <ele>481</ele>
        <time>2019-09-11T10:25:39+00:00</time>
      </trkpt>
      <trkpt lat="43.317531585693" lon="-7.6372065544128">
        <ele>481</ele>
        <time>2019-09-11T10:25:40+00:00</time>
      </trkpt>
      <trkpt lat="43.317539215088" lon="-7.6372165679932">
        <ele>481</ele>
        <time>2019-09-11T10:25:41+00:00</time>
      </trkpt>
      <trkpt lat="43.317546844482" lon="-7.6372351646423">
        <ele>481</ele>
        <time>2019-09-11T10:25:42+00:00</time>
      </trkpt>
      <trkpt lat="43.31755065918" lon="-7.6372485160828">
        <ele>481</ele>
        <time>2019-09-11T10:25:43+00:00</time>
      </trkpt>
      <trkpt lat="43.31755065918" lon="-7.6372632980347">
        <ele>481</ele>
        <time>2019-09-11T10:25:44+00:00</time>
      </trkpt>
      <trkpt lat="43.317558288574" lon="-7.637273311615">
        <ele>481</ele>
        <time>2019-09-11T10:25:45+00:00</time>
      </trkpt>
      <trkpt lat="43.317562103271" lon="-7.6372866630554">
        <ele>481</ele>
        <time>2019-09-11T10:25:46+00:00</time>
      </trkpt>
      <trkpt lat="43.317565917969" lon="-7.6373000144958">
        <ele>481</ele>
        <time>2019-09-11T10:25:47+00:00</time>
      </trkpt>
      <trkpt lat="43.317569732666" lon="-7.6373181343079">
        <ele>481</ele>
        <time>2019-09-11T10:25:48+00:00</time>
      </trkpt>
      <trkpt lat="43.317573547363" lon="-7.6373333930969">
        <ele>481</ele>
        <time>2019-09-11T10:25:49+00:00</time>
      </trkpt>
      <trkpt lat="43.317577362061" lon="-7.6373434066772">
        <ele>481</ele>
        <time>2019-09-11T10:25:50+00:00</time>
      </trkpt>
      <trkpt lat="43.317581176758" lon="-7.6373581886292">
        <ele>481</ele>
        <time>2019-09-11T10:25:51+00:00</time>
      </trkpt>
      <trkpt lat="43.317584991455" lon="-7.6373782157898">
        <ele>481</ele>
        <time>2019-09-11T10:25:52+00:00</time>
      </trkpt>
      <trkpt lat="43.317584991455" lon="-7.6374034881592">
        <ele>481</ele>
        <time>2019-09-11T10:25:53+00:00</time>
      </trkpt>
      <trkpt lat="43.317588806152" lon="-7.6374201774597">
        <ele>481</ele>
        <time>2019-09-11T10:25:54+00:00</time>
      </trkpt>
      <trkpt lat="43.317588806152" lon="-7.6374316215515">
        <ele>481</ele>
        <time>2019-09-11T10:25:55+00:00</time>
      </trkpt>
      <trkpt lat="43.317596435547" lon="-7.6374435424805">
        <ele>481</ele>
        <time>2019-09-11T10:25:56+00:00</time>
      </trkpt>
      <trkpt lat="43.31759262085" lon="-7.637460231781">
        <ele>481</ele>
        <time>2019-09-11T10:25:57+00:00</time>
      </trkpt>
      <trkpt lat="43.317584991455" lon="-7.6374750137329">
        <ele>481</ele>
        <time>2019-09-11T10:25:58+00:00</time>
      </trkpt>
      <trkpt lat="43.317573547363" lon="-7.6374931335449">
        <ele>481</ele>
        <time>2019-09-11T10:25:59+00:00</time>
      </trkpt>
      <trkpt lat="43.317565917969" lon="-7.6375098228455">
        <ele>481</ele>
        <time>2019-09-11T10:26:00+00:00</time>
      </trkpt>
      <trkpt lat="43.317558288574" lon="-7.6375231742859">
        <ele>480</ele>
        <time>2019-09-11T10:26:01+00:00</time>
      </trkpt>
      <trkpt lat="43.31755065918" lon="-7.6375365257263">
        <ele>480</ele>
        <time>2019-09-11T10:26:02+00:00</time>
      </trkpt>
      <trkpt lat="43.317543029785" lon="-7.6375517845154">
        <ele>480</ele>
        <time>2019-09-11T10:26:03+00:00</time>
      </trkpt>
      <trkpt lat="43.317531585693" lon="-7.6375617980957">
        <ele>480</ele>
        <time>2019-09-11T10:26:04+00:00</time>
      </trkpt>
      <trkpt lat="43.317527770996" lon="-7.6375732421875">
        <ele>480</ele>
        <time>2019-09-11T10:26:05+00:00</time>
      </trkpt>
      <trkpt lat="43.317523956299" lon="-7.6375865936279">
        <ele>480</ele>
        <time>2019-09-11T10:26:06+00:00</time>
      </trkpt>
      <trkpt lat="43.317520141602" lon="-7.6375966072083">
        <ele>480</ele>
        <time>2019-09-11T10:26:07+00:00</time>
      </trkpt>
      <trkpt lat="43.317520141602" lon="-7.6376152038574">
        <ele>480</ele>
        <time>2019-09-11T10:26:08+00:00</time>
      </trkpt>
      <trkpt lat="43.317523956299" lon="-7.6376352310181">
        <ele>480</ele>
        <time>2019-09-11T10:26:09+00:00</time>
      </trkpt>
      <trkpt lat="43.317523956299" lon="-7.6376514434814">
        <ele>480</ele>
        <time>2019-09-11T10:26:10+00:00</time>
      </trkpt>
      <trkpt lat="43.317527770996" lon="-7.6376714706421">
        <ele>480</ele>
        <time>2019-09-11T10:26:11+00:00</time>
      </trkpt>
      <trkpt lat="43.317527770996" lon="-7.6376848220825">
        <ele>479</ele>
        <time>2019-09-11T10:26:12+00:00</time>
      </trkpt>
      <trkpt lat="43.317527770996" lon="-7.6376948356628">
        <ele>479</ele>
        <time>2019-09-11T10:26:13+00:00</time>
      </trkpt>
      <trkpt lat="43.317531585693" lon="-7.6377015113831">
        <ele>480</ele>
        <time>2019-09-11T10:26:14+00:00</time>
      </trkpt>
      <trkpt lat="43.317535400391" lon="-7.6377167701721">
        <ele>480</ele>
        <time>2019-09-11T10:26:15+00:00</time>
      </trkpt>
      <trkpt lat="43.317539215088" lon="-7.637731552124">
        <ele>480</ele>
        <time>2019-09-11T10:26:16+00:00</time>
      </trkpt>
      <trkpt lat="43.317546844482" lon="-7.6377449035645">
        <ele>480</ele>
        <time>2019-09-11T10:26:17+00:00</time>
      </trkpt>
      <trkpt lat="43.317554473877" lon="-7.6377601623535">
        <ele>480</ele>
        <time>2019-09-11T10:26:18+00:00</time>
      </trkpt>
      <trkpt lat="43.317558288574" lon="-7.6377735137939">
        <ele>480</ele>
        <time>2019-09-11T10:26:19+00:00</time>
      </trkpt>
      <trkpt lat="43.317562103271" lon="-7.6377868652344">
        <ele>480</ele>
        <time>2019-09-11T10:26:20+00:00</time>
      </trkpt>
      <trkpt lat="43.317565917969" lon="-7.6378002166748">
        <ele>479</ele>
        <time>2019-09-11T10:26:21+00:00</time>
      </trkpt>
      <trkpt lat="43.317569732666" lon="-7.6378149986267">
        <ele>479</ele>
        <time>2019-09-11T10:26:22+00:00</time>
      </trkpt>
      <trkpt lat="43.317573547363" lon="-7.6378297805786">
        <ele>479</ele>
        <time>2019-09-11T10:26:23+00:00</time>
      </trkpt>
      <trkpt lat="43.317581176758" lon="-7.6378450393677">
        <ele>479</ele>
        <time>2019-09-11T10:26:24+00:00</time>
      </trkpt>
      <trkpt lat="43.317584991455" lon="-7.6378617286682">
        <ele>479</ele>
        <time>2019-09-11T10:26:25+00:00</time>
      </trkpt>
      <trkpt lat="43.317584991455" lon="-7.63787317276">
        <ele>479</ele>
        <time>2019-09-11T10:26:26+00:00</time>
      </trkpt>
      <trkpt lat="43.317584991455" lon="-7.6378898620605">
        <ele>479</ele>
        <time>2019-09-11T10:26:27+00:00</time>
      </trkpt>
      <trkpt lat="43.317584991455" lon="-7.6379065513611">
        <ele>479</ele>
        <time>2019-09-11T10:26:28+00:00</time>
      </trkpt>
      <trkpt lat="43.317584991455" lon="-7.6379232406616">
        <ele>479</ele>
        <time>2019-09-11T10:26:29+00:00</time>
      </trkpt>
      <trkpt lat="43.317584991455" lon="-7.6379384994507">
        <ele>479</ele>
        <time>2019-09-11T10:26:30+00:00</time>
      </trkpt>
      <trkpt lat="43.317588806152" lon="-7.6379532814026">
        <ele>479</ele>
        <time>2019-09-11T10:26:31+00:00</time>
      </trkpt>
      <trkpt lat="43.317584991455" lon="-7.637966632843">
        <ele>479</ele>
        <time>2019-09-11T10:26:32+00:00</time>
      </trkpt>
      <trkpt lat="43.317588806152" lon="-7.6379799842834">
        <ele>479</ele>
        <time>2019-09-11T10:26:33+00:00</time>
      </trkpt>
      <trkpt lat="43.317584991455" lon="-7.6379947662354">
        <ele>479</ele>
        <time>2019-09-11T10:26:34+00:00</time>
      </trkpt>
      <trkpt lat="43.317584991455" lon="-7.6380081176758">
        <ele>479</ele>
        <time>2019-09-11T10:26:35+00:00</time>
      </trkpt>
      <trkpt lat="43.317584991455" lon="-7.6380214691162">
        <ele>479</ele>
        <time>2019-09-11T10:26:36+00:00</time>
      </trkpt>
      <trkpt lat="43.317584991455" lon="-7.6380281448364">
        <ele>479</ele>
        <time>2019-09-11T10:26:37+00:00</time>
      </trkpt>
      <trkpt lat="43.317584991455" lon="-7.6380314826965">
        <ele>479</ele>
        <time>2019-09-11T10:26:38+00:00</time>
      </trkpt>
      <trkpt lat="43.317584991455" lon="-7.6380348205566">
        <ele>479</ele>
        <time>2019-09-11T10:26:39+00:00</time>
      </trkpt>
      <trkpt lat="43.317588806152" lon="-7.6380333900452">
        <ele>479</ele>
        <time>2019-09-11T10:26:40+00:00</time>
      </trkpt>
      <trkpt lat="43.317584991455" lon="-7.6380333900452">
        <ele>479</ele>
        <time>2019-09-11T10:26:41+00:00</time>
      </trkpt>
      <trkpt lat="43.317581176758" lon="-7.6380348205566">
        <ele>479</ele>
        <time>2019-09-11T10:26:42+00:00</time>
      </trkpt>
      <trkpt lat="43.317577362061" lon="-7.6380348205566">
        <ele>479</ele>
        <time>2019-09-11T10:26:43+00:00</time>
      </trkpt>
      <trkpt lat="43.317577362061" lon="-7.6380367279053">
        <ele>478</ele>
        <time>2019-09-11T10:26:44+00:00</time>
      </trkpt>
      <trkpt lat="43.317577362061" lon="-7.6380467414856">
        <ele>478</ele>
        <time>2019-09-11T10:26:45+00:00</time>
      </trkpt>
      <trkpt lat="43.317581176758" lon="-7.6380500793457">
        <ele>478</ele>
        <time>2019-09-11T10:26:46+00:00</time>
      </trkpt>
      <trkpt lat="43.317584991455" lon="-7.6380567550659">
        <ele>478</ele>
        <time>2019-09-11T10:26:47+00:00</time>
      </trkpt>
      <trkpt lat="43.317588806152" lon="-7.6380634307861">
        <ele>478</ele>
        <time>2019-09-11T10:26:48+00:00</time>
      </trkpt>
      <trkpt lat="43.31759262085" lon="-7.6380748748779">
        <ele>478</ele>
        <time>2019-09-11T10:26:49+00:00</time>
      </trkpt>
      <trkpt lat="43.31759262085" lon="-7.638090133667">
        <ele>478</ele>
        <time>2019-09-11T10:26:50+00:00</time>
      </trkpt>
      <trkpt lat="43.317596435547" lon="-7.6381049156189">
        <ele>478</ele>
        <time>2019-09-11T10:26:51+00:00</time>
      </trkpt>
      <trkpt lat="43.317596435547" lon="-7.6381182670593">
        <ele>478</ele>
        <time>2019-09-11T10:26:52+00:00</time>
      </trkpt>
      <trkpt lat="43.317596435547" lon="-7.6381335258484">
        <ele>478</ele>
        <time>2019-09-11T10:26:53+00:00</time>
      </trkpt>
      <trkpt lat="43.31759262085" lon="-7.6381468772888">
        <ele>477</ele>
        <time>2019-09-11T10:26:54+00:00</time>
      </trkpt>
      <trkpt lat="43.31759262085" lon="-7.6381602287292">
        <ele>477</ele>
        <time>2019-09-11T10:26:55+00:00</time>
      </trkpt>
      <trkpt lat="43.31759262085" lon="-7.6381731033325">
        <ele>477</ele>
        <time>2019-09-11T10:26:56+00:00</time>
      </trkpt>
      <trkpt lat="43.317588806152" lon="-7.6381831169128">
        <ele>477</ele>
        <time>2019-09-11T10:26:57+00:00</time>
      </trkpt>
      <trkpt lat="43.317584991455" lon="-7.638201713562">
        <ele>477</ele>
        <time>2019-09-11T10:26:58+00:00</time>
      </trkpt>
      <trkpt lat="43.317581176758" lon="-7.6382131576538">
        <ele>477</ele>
        <time>2019-09-11T10:26:59+00:00</time>
      </trkpt>
      <trkpt lat="43.317573547363" lon="-7.6382265090942">
        <ele>477</ele>
        <time>2019-09-11T10:27:00+00:00</time>
      </trkpt>
      <trkpt lat="43.317573547363" lon="-7.6382398605347">
        <ele>477</ele>
        <time>2019-09-11T10:27:01+00:00</time>
      </trkpt>
      <trkpt lat="43.317569732666" lon="-7.6382551193237">
        <ele>476</ele>
        <time>2019-09-11T10:27:02+00:00</time>
      </trkpt>
      <trkpt lat="43.317573547363" lon="-7.6382732391357">
        <ele>476</ele>
        <time>2019-09-11T10:27:03+00:00</time>
      </trkpt>
      <trkpt lat="43.317573547363" lon="-7.6382884979248">
        <ele>476</ele>
        <time>2019-09-11T10:27:04+00:00</time>
      </trkpt>
      <trkpt lat="43.317573547363" lon="-7.6383032798767">
        <ele>476</ele>
        <time>2019-09-11T10:27:05+00:00</time>
      </trkpt>
      <trkpt lat="43.317569732666" lon="-7.6383152008057">
        <ele>476</ele>
        <time>2019-09-11T10:27:06+00:00</time>
      </trkpt>
      <trkpt lat="43.317569732666" lon="-7.6383318901062">
        <ele>476</ele>
        <time>2019-09-11T10:27:07+00:00</time>
      </trkpt>
      <trkpt lat="43.317565917969" lon="-7.6383447647095">
        <ele>476</ele>
        <time>2019-09-11T10:27:08+00:00</time>
      </trkpt>
      <trkpt lat="43.317565917969" lon="-7.6383600234985">
        <ele>476</ele>
        <time>2019-09-11T10:27:09+00:00</time>
      </trkpt>
      <trkpt lat="43.317562103271" lon="-7.6383714675903">
        <ele>476</ele>
        <time>2019-09-11T10:27:10+00:00</time>
      </trkpt>
      <trkpt lat="43.317558288574" lon="-7.6383800506592">
        <ele>476</ele>
        <time>2019-09-11T10:27:11+00:00</time>
      </trkpt>
      <trkpt lat="43.317558288574" lon="-7.6383934020996">
        <ele>476</ele>
        <time>2019-09-11T10:27:12+00:00</time>
      </trkpt>
      <trkpt lat="43.317558288574" lon="-7.6384081840515">
        <ele>476</ele>
        <time>2019-09-11T10:27:13+00:00</time>
      </trkpt>
      <trkpt lat="43.317558288574" lon="-7.6384234428406">
        <ele>476</ele>
        <time>2019-09-11T10:27:14+00:00</time>
      </trkpt>
      <trkpt lat="43.317562103271" lon="-7.6384401321411">
        <ele>476</ele>
        <time>2019-09-11T10:27:15+00:00</time>
      </trkpt>
      <trkpt lat="43.317565917969" lon="-7.6384582519531">
        <ele>476</ele>
        <time>2019-09-11T10:27:16+00:00</time>
      </trkpt>
      <trkpt lat="43.317565917969" lon="-7.6384768486023">
        <ele>476</ele>
        <time>2019-09-11T10:27:17+00:00</time>
      </trkpt>
      <trkpt lat="43.317565917969" lon="-7.6384968757629">
        <ele>476</ele>
        <time>2019-09-11T10:27:18+00:00</time>
      </trkpt>
      <trkpt lat="43.317569732666" lon="-7.6385135650635">
        <ele>476</ele>
        <time>2019-09-11T10:27:19+00:00</time>
      </trkpt>
      <trkpt lat="43.317565917969" lon="-7.6385283470154">
        <ele>476</ele>
        <time>2019-09-11T10:27:20+00:00</time>
      </trkpt>
      <trkpt lat="43.317573547363" lon="-7.6385464668274">
        <ele>476</ele>
        <time>2019-09-11T10:27:21+00:00</time>
      </trkpt>
      <trkpt lat="43.317573547363" lon="-7.638566493988">
        <ele>476</ele>
        <time>2019-09-11T10:27:22+00:00</time>
      </trkpt>
      <trkpt lat="43.317573547363" lon="-7.6385798454285">
        <ele>476</ele>
        <time>2019-09-11T10:27:23+00:00</time>
      </trkpt>
      <trkpt lat="43.317573547363" lon="-7.6385984420776">
        <ele>476</ele>
        <time>2019-09-11T10:27:24+00:00</time>
      </trkpt>
      <trkpt lat="43.317569732666" lon="-7.6386117935181">
        <ele>476</ele>
        <time>2019-09-11T10:27:25+00:00</time>
      </trkpt>
      <trkpt lat="43.317569732666" lon="-7.63862657547">
        <ele>476</ele>
        <time>2019-09-11T10:27:26+00:00</time>
      </trkpt>
      <trkpt lat="43.317565917969" lon="-7.6386351585388">
        <ele>476</ele>
        <time>2019-09-11T10:27:27+00:00</time>
      </trkpt>
      <trkpt lat="43.317562103271" lon="-7.6386485099792">
        <ele>476</ele>
        <time>2019-09-11T10:27:28+00:00</time>
      </trkpt>
      <trkpt lat="43.317562103271" lon="-7.638659954071">
        <ele>476</ele>
        <time>2019-09-11T10:27:29+00:00</time>
      </trkpt>
      <trkpt lat="43.317565917969" lon="-7.6386752128601">
        <ele>476</ele>
        <time>2019-09-11T10:27:30+00:00</time>
      </trkpt>
      <trkpt lat="43.317562103271" lon="-7.6386885643005">
        <ele>476</ele>
        <time>2019-09-11T10:27:31+00:00</time>
      </trkpt>
      <trkpt lat="43.317558288574" lon="-7.6387000083923">
        <ele>476</ele>
        <time>2019-09-11T10:27:32+00:00</time>
      </trkpt>
      <trkpt lat="43.317562103271" lon="-7.6387133598328">
        <ele>476</ele>
        <time>2019-09-11T10:27:33+00:00</time>
      </trkpt>
      <trkpt lat="43.317562103271" lon="-7.6387267112732">
        <ele>476</ele>
        <time>2019-09-11T10:27:34+00:00</time>
      </trkpt>
      <trkpt lat="43.317565917969" lon="-7.6387434005737">
        <ele>476</ele>
        <time>2019-09-11T10:27:35+00:00</time>
      </trkpt>
      <trkpt lat="43.317562103271" lon="-7.6387548446655">
        <ele>476</ele>
        <time>2019-09-11T10:27:36+00:00</time>
      </trkpt>
      <trkpt lat="43.317565917969" lon="-7.638768196106">
        <ele>476</ele>
        <time>2019-09-11T10:27:37+00:00</time>
      </trkpt>
      <trkpt lat="43.317565917969" lon="-7.6387867927551">
        <ele>476</ele>
        <time>2019-09-11T10:27:38+00:00</time>
      </trkpt>
      <trkpt lat="43.317565917969" lon="-7.6388034820557">
        <ele>476</ele>
        <time>2019-09-11T10:27:39+00:00</time>
      </trkpt>
      <trkpt lat="43.317562103271" lon="-7.6388182640076">
        <ele>476</ele>
        <time>2019-09-11T10:27:40+00:00</time>
      </trkpt>
      <trkpt lat="43.317558288574" lon="-7.6388335227966">
        <ele>476</ele>
        <time>2019-09-11T10:27:41+00:00</time>
      </trkpt>
      <trkpt lat="43.317558288574" lon="-7.6388483047485">
        <ele>476</ele>
        <time>2019-09-11T10:27:42+00:00</time>
      </trkpt>
      <trkpt lat="43.317558288574" lon="-7.6388602256775">
        <ele>476</ele>
        <time>2019-09-11T10:27:43+00:00</time>
      </trkpt>
      <trkpt lat="43.317558288574" lon="-7.6388731002808">
        <ele>476</ele>
        <time>2019-09-11T10:27:44+00:00</time>
      </trkpt>
      <trkpt lat="43.317554473877" lon="-7.6388864517212">
        <ele>477</ele>
        <time>2019-09-11T10:27:45+00:00</time>
      </trkpt>
      <trkpt lat="43.317554473877" lon="-7.6388998031616">
        <ele>477</ele>
        <time>2019-09-11T10:27:46+00:00</time>
      </trkpt>
      <trkpt lat="43.31755065918" lon="-7.6389131546021">
        <ele>477</ele>
        <time>2019-09-11T10:27:47+00:00</time>
      </trkpt>
      <trkpt lat="43.31755065918" lon="-7.638925075531">
        <ele>477</ele>
        <time>2019-09-11T10:27:48+00:00</time>
      </trkpt>
      <trkpt lat="43.31755065918" lon="-7.6389417648315">
        <ele>477</ele>
        <time>2019-09-11T10:27:49+00:00</time>
      </trkpt>
      <trkpt lat="43.317546844482" lon="-7.638955116272">
        <ele>477</ele>
        <time>2019-09-11T10:27:50+00:00</time>
      </trkpt>
      <trkpt lat="43.317546844482" lon="-7.6389665603638">
        <ele>477</ele>
        <time>2019-09-11T10:27:51+00:00</time>
      </trkpt>
      <trkpt lat="43.317546844482" lon="-7.6389799118042">
        <ele>477</ele>
        <time>2019-09-11T10:27:52+00:00</time>
      </trkpt>
      <trkpt lat="43.317546844482" lon="-7.6389899253845">
        <ele>477</ele>
        <time>2019-09-11T10:27:53+00:00</time>
      </trkpt>
      <trkpt lat="43.317546844482" lon="-7.6390018463135">
        <ele>477</ele>
        <time>2019-09-11T10:27:54+00:00</time>
      </trkpt>
      <trkpt lat="43.317543029785" lon="-7.6390085220337">
        <ele>477</ele>
        <time>2019-09-11T10:27:55+00:00</time>
      </trkpt>
      <trkpt lat="43.317539215088" lon="-7.639018535614">
        <ele>477</ele>
        <time>2019-09-11T10:27:56+00:00</time>
      </trkpt>
      <trkpt lat="43.317535400391" lon="-7.6390285491943">
        <ele>477</ele>
        <time>2019-09-11T10:27:57+00:00</time>
      </trkpt>
      <trkpt lat="43.317531585693" lon="-7.6390419006348">
        <ele>477</ele>
        <time>2019-09-11T10:27:58+00:00</time>
      </trkpt>
      <trkpt lat="43.317531585693" lon="-7.6390566825867">
        <ele>477</ele>
        <time>2019-09-11T10:27:59+00:00</time>
      </trkpt>
      <trkpt lat="43.317527770996" lon="-7.6390748023987">
        <ele>477</ele>
        <time>2019-09-11T10:28:00+00:00</time>
      </trkpt>
      <trkpt lat="43.317520141602" lon="-7.6390900611877">
        <ele>477</ele>
        <time>2019-09-11T10:28:01+00:00</time>
      </trkpt>
      <trkpt lat="43.317520141602" lon="-7.6391081809998">
        <ele>477</ele>
        <time>2019-09-11T10:28:02+00:00</time>
      </trkpt>
      <trkpt lat="43.317516326904" lon="-7.6391267776489">
        <ele>477</ele>
        <time>2019-09-11T10:28:03+00:00</time>
      </trkpt>
      <trkpt lat="43.317516326904" lon="-7.6391401290894">
        <ele>477</ele>
        <time>2019-09-11T10:28:04+00:00</time>
      </trkpt>
      <trkpt lat="43.317520141602" lon="-7.6391534805298">
        <ele>477</ele>
        <time>2019-09-11T10:28:05+00:00</time>
      </trkpt>
      <trkpt lat="43.317520141602" lon="-7.6391615867615">
        <ele>477</ele>
        <time>2019-09-11T10:28:06+00:00</time>
      </trkpt>
      <trkpt lat="43.317512512207" lon="-7.6391768455505">
        <ele>477</ele>
        <time>2019-09-11T10:28:07+00:00</time>
      </trkpt>
      <trkpt lat="43.317512512207" lon="-7.6391882896423">
        <ele>477</ele>
        <time>2019-09-11T10:28:08+00:00</time>
      </trkpt>
      <trkpt lat="43.31750869751" lon="-7.6392049789429">
        <ele>477</ele>
        <time>2019-09-11T10:28:09+00:00</time>
      </trkpt>
      <trkpt lat="43.317504882812" lon="-7.6392230987549">
        <ele>477</ele>
        <time>2019-09-11T10:28:10+00:00</time>
      </trkpt>
      <trkpt lat="43.317504882812" lon="-7.6392350196838">
        <ele>477</ele>
        <time>2019-09-11T10:28:11+00:00</time>
      </trkpt>
      <trkpt lat="43.317501068115" lon="-7.6392431259155">
        <ele>477</ele>
        <time>2019-09-11T10:28:12+00:00</time>
      </trkpt>
      <trkpt lat="43.317501068115" lon="-7.6392550468445">
        <ele>477</ele>
        <time>2019-09-11T10:28:13+00:00</time>
      </trkpt>
      <trkpt lat="43.317497253418" lon="-7.6392664909363">
        <ele>477</ele>
        <time>2019-09-11T10:28:14+00:00</time>
      </trkpt>
      <trkpt lat="43.317493438721" lon="-7.6392784118652">
        <ele>476</ele>
        <time>2019-09-11T10:28:15+00:00</time>
      </trkpt>
      <trkpt lat="43.317485809326" lon="-7.6392917633057">
        <ele>476</ele>
        <time>2019-09-11T10:28:16+00:00</time>
      </trkpt>
      <trkpt lat="43.317478179932" lon="-7.6393032073975">
        <ele>476</ele>
        <time>2019-09-11T10:28:17+00:00</time>
      </trkpt>
      <trkpt lat="43.317478179932" lon="-7.6393151283264">
        <ele>476</ele>
        <time>2019-09-11T10:28:18+00:00</time>
      </trkpt>
      <trkpt lat="43.317474365234" lon="-7.6393251419067">
        <ele>476</ele>
        <time>2019-09-11T10:28:19+00:00</time>
      </trkpt>
      <trkpt lat="43.31746673584" lon="-7.639331817627">
        <ele>476</ele>
        <time>2019-09-11T10:28:20+00:00</time>
      </trkpt>
      <trkpt lat="43.31746673584" lon="-7.6393465995789">
        <ele>476</ele>
        <time>2019-09-11T10:28:21+00:00</time>
      </trkpt>
      <trkpt lat="43.317462921143" lon="-7.6393599510193">
        <ele>476</ele>
        <time>2019-09-11T10:28:22+00:00</time>
      </trkpt>
      <trkpt lat="43.317459106445" lon="-7.6393733024597">
        <ele>475</ele>
        <time>2019-09-11T10:28:23+00:00</time>
      </trkpt>
      <trkpt lat="43.317451477051" lon="-7.6393852233887">
        <ele>475</ele>
        <time>2019-09-11T10:28:24+00:00</time>
      </trkpt>
      <trkpt lat="43.317447662354" lon="-7.6393899917603">
        <ele>475</ele>
        <time>2019-09-11T10:28:25+00:00</time>
      </trkpt>
      <trkpt lat="43.317447662354" lon="-7.6394014358521">
        <ele>475</ele>
        <time>2019-09-11T10:28:26+00:00</time>
      </trkpt>
      <trkpt lat="43.317440032959" lon="-7.6394114494324">
        <ele>475</ele>
        <time>2019-09-11T10:28:27+00:00</time>
      </trkpt>
      <trkpt lat="43.317436218262" lon="-7.6394181251526">
        <ele>475</ele>
        <time>2019-09-11T10:28:28+00:00</time>
      </trkpt>
      <trkpt lat="43.317436218262" lon="-7.6394281387329">
        <ele>475</ele>
        <time>2019-09-11T10:28:29+00:00</time>
      </trkpt>
      <trkpt lat="43.317436218262" lon="-7.6394448280334">
        <ele>475</ele>
        <time>2019-09-11T10:28:30+00:00</time>
      </trkpt>
      <trkpt lat="43.317432403564" lon="-7.6394548416138">
        <ele>475</ele>
        <time>2019-09-11T10:28:31+00:00</time>
      </trkpt>
      <trkpt lat="43.317428588867" lon="-7.6394648551941">
        <ele>475</ele>
        <time>2019-09-11T10:28:32+00:00</time>
      </trkpt>
      <trkpt lat="43.317428588867" lon="-7.6394748687744">
        <ele>475</ele>
        <time>2019-09-11T10:28:33+00:00</time>
      </trkpt>
      <trkpt lat="43.317428588867" lon="-7.6394834518433">
        <ele>475</ele>
        <time>2019-09-11T10:28:34+00:00</time>
      </trkpt>
      <trkpt lat="43.31742477417" lon="-7.6394948959351">
        <ele>475</ele>
        <time>2019-09-11T10:28:35+00:00</time>
      </trkpt>
      <trkpt lat="43.317409515381" lon="-7.6395168304443">
        <ele>474</ele>
        <time>2019-09-11T10:28:36+00:00</time>
      </trkpt>
      <trkpt lat="43.317401885986" lon="-7.6395316123962">
        <ele>475</ele>
        <time>2019-09-11T10:28:37+00:00</time>
      </trkpt>
      <trkpt lat="43.317401885986" lon="-7.6395435333252">
        <ele>474</ele>
        <time>2019-09-11T10:28:38+00:00</time>
      </trkpt>
      <trkpt lat="43.317398071289" lon="-7.6395635604858">
        <ele>475</ele>
        <time>2019-09-11T10:28:39+00:00</time>
      </trkpt>
      <trkpt lat="43.317394256592" lon="-7.6395797729492">
        <ele>475</ele>
        <time>2019-09-11T10:28:40+00:00</time>
      </trkpt>
      <trkpt lat="43.317394256592" lon="-7.6395964622498">
        <ele>475</ele>
        <time>2019-09-11T10:28:41+00:00</time>
      </trkpt>
      <trkpt lat="43.317394256592" lon="-7.6396131515503">
        <ele>475</ele>
        <time>2019-09-11T10:28:42+00:00</time>
      </trkpt>
      <trkpt lat="43.317390441895" lon="-7.6396317481995">
        <ele>475</ele>
        <time>2019-09-11T10:28:43+00:00</time>
      </trkpt>
      <trkpt lat="43.317378997803" lon="-7.6396450996399">
        <ele>475</ele>
        <time>2019-09-11T10:28:44+00:00</time>
      </trkpt>
      <trkpt lat="43.317371368408" lon="-7.6396565437317">
        <ele>474</ele>
        <time>2019-09-11T10:28:45+00:00</time>
      </trkpt>
      <trkpt lat="43.317363739014" lon="-7.6396732330322">
        <ele>474</ele>
        <time>2019-09-11T10:28:46+00:00</time>
      </trkpt>
      <trkpt lat="43.317363739014" lon="-7.6396884918213">
        <ele>474</ele>
        <time>2019-09-11T10:28:47+00:00</time>
      </trkpt>
      <trkpt lat="43.317359924316" lon="-7.6397032737732">
        <ele>474</ele>
        <time>2019-09-11T10:28:48+00:00</time>
      </trkpt>
      <trkpt lat="43.317363739014" lon="-7.6397166252136">
        <ele>474</ele>
        <time>2019-09-11T10:28:49+00:00</time>
      </trkpt>
      <trkpt lat="43.317359924316" lon="-7.6397299766541">
        <ele>474</ele>
        <time>2019-09-11T10:28:50+00:00</time>
      </trkpt>
      <trkpt lat="43.317356109619" lon="-7.6397452354431">
        <ele>474</ele>
        <time>2019-09-11T10:28:51+00:00</time>
      </trkpt>
      <trkpt lat="43.317356109619" lon="-7.6397547721863">
        <ele>474</ele>
        <time>2019-09-11T10:28:52+00:00</time>
      </trkpt>
      <trkpt lat="43.317356109619" lon="-7.6397666931152">
        <ele>474</ele>
        <time>2019-09-11T10:28:53+00:00</time>
      </trkpt>
      <trkpt lat="43.317352294922" lon="-7.6397800445557">
        <ele>474</ele>
        <time>2019-09-11T10:28:54+00:00</time>
      </trkpt>
      <trkpt lat="43.317356109619" lon="-7.6397948265076">
        <ele>474</ele>
        <time>2019-09-11T10:28:55+00:00</time>
      </trkpt>
      <trkpt lat="43.317359924316" lon="-7.6398148536682">
        <ele>474</ele>
        <time>2019-09-11T10:28:56+00:00</time>
      </trkpt>
      <trkpt lat="43.317363739014" lon="-7.6398315429688">
        <ele>474</ele>
        <time>2019-09-11T10:28:57+00:00</time>
      </trkpt>
      <trkpt lat="43.317359924316" lon="-7.6398448944092">
        <ele>474</ele>
        <time>2019-09-11T10:28:58+00:00</time>
      </trkpt>
      <trkpt lat="43.317348480225" lon="-7.6398601531982">
        <ele>474</ele>
        <time>2019-09-11T10:28:59+00:00</time>
      </trkpt>
      <trkpt lat="43.31734085083" lon="-7.63987159729">
        <ele>474</ele>
        <time>2019-09-11T10:29:00+00:00</time>
      </trkpt>
      <trkpt lat="43.317337036133" lon="-7.6398901939392">
        <ele>474</ele>
        <time>2019-09-11T10:29:01+00:00</time>
      </trkpt>
      <trkpt lat="43.317337036133" lon="-7.6399035453796">
        <ele>474</ele>
        <time>2019-09-11T10:29:02+00:00</time>
      </trkpt>
      <trkpt lat="43.317333221436" lon="-7.6399202346802">
        <ele>474</ele>
        <time>2019-09-11T10:29:03+00:00</time>
      </trkpt>
      <trkpt lat="43.317325592041" lon="-7.6399331092834">
        <ele>474</ele>
        <time>2019-09-11T10:29:04+00:00</time>
      </trkpt>
      <trkpt lat="43.317321777344" lon="-7.6399464607239">
        <ele>474</ele>
        <time>2019-09-11T10:29:05+00:00</time>
      </trkpt>
      <trkpt lat="43.317321777344" lon="-7.6399583816528">
        <ele>474</ele>
        <time>2019-09-11T10:29:06+00:00</time>
      </trkpt>
      <trkpt lat="43.317317962646" lon="-7.6399698257446">
        <ele>474</ele>
        <time>2019-09-11T10:29:07+00:00</time>
      </trkpt>
      <trkpt lat="43.317317962646" lon="-7.6399817466736">
        <ele>474</ele>
        <time>2019-09-11T10:29:08+00:00</time>
      </trkpt>
      <trkpt lat="43.317317962646" lon="-7.639995098114">
        <ele>474</ele>
        <time>2019-09-11T10:29:09+00:00</time>
      </trkpt>
      <trkpt lat="43.317314147949" lon="-7.6400117874146">
        <ele>474</ele>
        <time>2019-09-11T10:29:10+00:00</time>
      </trkpt>
      <trkpt lat="43.317310333252" lon="-7.6400265693665">
        <ele>474</ele>
        <time>2019-09-11T10:29:11+00:00</time>
      </trkpt>
      <trkpt lat="43.317310333252" lon="-7.640043258667">
        <ele>474</ele>
        <time>2019-09-11T10:29:12+00:00</time>
      </trkpt>
      <trkpt lat="43.317306518555" lon="-7.6400532722473">
        <ele>474</ele>
        <time>2019-09-11T10:29:13+00:00</time>
      </trkpt>
      <trkpt lat="43.317302703857" lon="-7.6400666236877">
        <ele>474</ele>
        <time>2019-09-11T10:29:14+00:00</time>
      </trkpt>
      <trkpt lat="43.317302703857" lon="-7.6400785446167">
        <ele>474</ele>
        <time>2019-09-11T10:29:15+00:00</time>
      </trkpt>
      <trkpt lat="43.317302703857" lon="-7.6400918960571">
        <ele>474</ele>
        <time>2019-09-11T10:29:16+00:00</time>
      </trkpt>
      <trkpt lat="43.31729888916" lon="-7.6401033401489">
        <ele>474</ele>
        <time>2019-09-11T10:29:17+00:00</time>
      </trkpt>
      <trkpt lat="43.317295074463" lon="-7.6401114463806">
        <ele>474</ele>
        <time>2019-09-11T10:29:18+00:00</time>
      </trkpt>
      <trkpt lat="43.317276000977" lon="-7.6401181221008">
        <ele>473</ele>
        <time>2019-09-11T10:29:19+00:00</time>
      </trkpt>
      <trkpt lat="43.31725692749" lon="-7.640124797821">
        <ele>473</ele>
        <time>2019-09-11T10:29:20+00:00</time>
      </trkpt>
      <trkpt lat="43.31725692749" lon="-7.6401414871216">
        <ele>473</ele>
        <time>2019-09-11T10:29:21+00:00</time>
      </trkpt>
      <trkpt lat="43.317253112793" lon="-7.640154838562">
        <ele>473</ele>
        <time>2019-09-11T10:29:22+00:00</time>
      </trkpt>
      <trkpt lat="43.317249298096" lon="-7.6401681900024">
        <ele>473</ele>
        <time>2019-09-11T10:29:23+00:00</time>
      </trkpt>
      <trkpt lat="43.317241668701" lon="-7.6401748657227">
        <ele>473</ele>
        <time>2019-09-11T10:29:24+00:00</time>
      </trkpt>
      <trkpt lat="43.317237854004" lon="-7.6401901245117">
        <ele>473</ele>
        <time>2019-09-11T10:29:25+00:00</time>
      </trkpt>
      <trkpt lat="43.317230224609" lon="-7.640200138092">
        <ele>473</ele>
        <time>2019-09-11T10:29:26+00:00</time>
      </trkpt>
      <trkpt lat="43.317226409912" lon="-7.6402149200439">
        <ele>473</ele>
        <time>2019-09-11T10:29:27+00:00</time>
      </trkpt>
      <trkpt lat="43.317222595215" lon="-7.6402268409729">
        <ele>473</ele>
        <time>2019-09-11T10:29:28+00:00</time>
      </trkpt>
      <trkpt lat="43.31721496582" lon="-7.6402335166931">
        <ele>473</ele>
        <time>2019-09-11T10:29:29+00:00</time>
      </trkpt>
      <trkpt lat="43.31721496582" lon="-7.6402435302734">
        <ele>473</ele>
        <time>2019-09-11T10:29:30+00:00</time>
      </trkpt>
      <trkpt lat="43.31721496582" lon="-7.6402616500854">
        <ele>473</ele>
        <time>2019-09-11T10:29:31+00:00</time>
      </trkpt>
      <trkpt lat="43.317211151123" lon="-7.640278339386">
        <ele>473</ele>
        <time>2019-09-11T10:29:32+00:00</time>
      </trkpt>
      <trkpt lat="43.317211151123" lon="-7.6402897834778">
        <ele>473</ele>
        <time>2019-09-11T10:29:33+00:00</time>
      </trkpt>
      <trkpt lat="43.317207336426" lon="-7.6403050422668">
        <ele>473</ele>
        <time>2019-09-11T10:29:34+00:00</time>
      </trkpt>
      <trkpt lat="43.317207336426" lon="-7.6403217315674">
        <ele>473</ele>
        <time>2019-09-11T10:29:35+00:00</time>
      </trkpt>
      <trkpt lat="43.317207336426" lon="-7.6403365135193">
        <ele>473</ele>
        <time>2019-09-11T10:29:36+00:00</time>
      </trkpt>
      <trkpt lat="43.317207336426" lon="-7.6403498649597">
        <ele>473</ele>
        <time>2019-09-11T10:29:37+00:00</time>
      </trkpt>
      <trkpt lat="43.317203521729" lon="-7.6403651237488">
        <ele>473</ele>
        <time>2019-09-11T10:29:38+00:00</time>
      </trkpt>
      <trkpt lat="43.317199707031" lon="-7.6403765678406">
        <ele>474</ele>
        <time>2019-09-11T10:29:39+00:00</time>
      </trkpt>
      <trkpt lat="43.317195892334" lon="-7.6403818130493">
        <ele>474</ele>
        <time>2019-09-11T10:29:40+00:00</time>
      </trkpt>
      <trkpt lat="43.317195892334" lon="-7.6403918266296">
        <ele>474</ele>
        <time>2019-09-11T10:29:41+00:00</time>
      </trkpt>
      <trkpt lat="43.317188262939" lon="-7.6404099464417">
        <ele>474</ele>
        <time>2019-09-11T10:29:42+00:00</time>
      </trkpt>
      <trkpt lat="43.317188262939" lon="-7.6404266357422">
        <ele>474</ele>
        <time>2019-09-11T10:29:43+00:00</time>
      </trkpt>
      <trkpt lat="43.317180633545" lon="-7.6404452323914">
        <ele>475</ele>
        <time>2019-09-11T10:29:44+00:00</time>
      </trkpt>
      <trkpt lat="43.31717300415" lon="-7.6404614448547">
        <ele>475</ele>
        <time>2019-09-11T10:29:45+00:00</time>
      </trkpt>
      <trkpt lat="43.317169189453" lon="-7.6404747962952">
        <ele>475</ele>
        <time>2019-09-11T10:29:46+00:00</time>
      </trkpt>
      <trkpt lat="43.317165374756" lon="-7.6404881477356">
        <ele>475</ele>
        <time>2019-09-11T10:29:47+00:00</time>
      </trkpt>
      <trkpt lat="43.317161560059" lon="-7.640501499176">
        <ele>475</ele>
        <time>2019-09-11T10:29:48+00:00</time>
      </trkpt>
      <trkpt lat="43.317161560059" lon="-7.6405167579651">
        <ele>475</ele>
        <time>2019-09-11T10:29:49+00:00</time>
      </trkpt>
      <trkpt lat="43.317161560059" lon="-7.6405282020569">
        <ele>475</ele>
        <time>2019-09-11T10:29:50+00:00</time>
      </trkpt>
      <trkpt lat="43.317157745361" lon="-7.6405415534973">
        <ele>476</ele>
        <time>2019-09-11T10:29:51+00:00</time>
      </trkpt>
      <trkpt lat="43.317150115967" lon="-7.6405568122864">
        <ele>476</ele>
        <time>2019-09-11T10:29:52+00:00</time>
      </trkpt>
      <trkpt lat="43.317150115967" lon="-7.6405735015869">
        <ele>476</ele>
        <time>2019-09-11T10:29:53+00:00</time>
      </trkpt>
      <trkpt lat="43.317150115967" lon="-7.6405935287476">
        <ele>476</ele>
        <time>2019-09-11T10:29:54+00:00</time>
      </trkpt>
      <trkpt lat="43.31714630127" lon="-7.6406102180481">
        <ele>476</ele>
        <time>2019-09-11T10:29:55+00:00</time>
      </trkpt>
      <trkpt lat="43.317142486572" lon="-7.6406235694885">
        <ele>476</ele>
        <time>2019-09-11T10:29:56+00:00</time>
      </trkpt>
      <trkpt lat="43.317138671875" lon="-7.6406397819519">
        <ele>477</ele>
        <time>2019-09-11T10:29:57+00:00</time>
      </trkpt>
      <trkpt lat="43.317134857178" lon="-7.6406564712524">
        <ele>477</ele>
        <time>2019-09-11T10:29:58+00:00</time>
      </trkpt>
      <trkpt lat="43.317134857178" lon="-7.640673160553">
        <ele>477</ele>
        <time>2019-09-11T10:29:59+00:00</time>
      </trkpt>
      <trkpt lat="43.317134857178" lon="-7.640688419342">
        <ele>477</ele>
        <time>2019-09-11T10:30:00+00:00</time>
      </trkpt>
      <trkpt lat="43.317134857178" lon="-7.6407032012939">
        <ele>477</ele>
        <time>2019-09-11T10:30:01+00:00</time>
      </trkpt>
      <trkpt lat="43.317134857178" lon="-7.640718460083">
        <ele>478</ele>
        <time>2019-09-11T10:30:02+00:00</time>
      </trkpt>
      <trkpt lat="43.31713104248" lon="-7.640736579895">
        <ele>478</ele>
        <time>2019-09-11T10:30:03+00:00</time>
      </trkpt>
      <trkpt lat="43.31713104248" lon="-7.6407518386841">
        <ele>478</ele>
        <time>2019-09-11T10:30:04+00:00</time>
      </trkpt>
      <trkpt lat="43.317134857178" lon="-7.6407699584961">
        <ele>478</ele>
        <time>2019-09-11T10:30:05+00:00</time>
      </trkpt>
      <trkpt lat="43.317134857178" lon="-7.6407866477966">
        <ele>478</ele>
        <time>2019-09-11T10:30:06+00:00</time>
      </trkpt>
      <trkpt lat="43.31713104248" lon="-7.6408033370972">
        <ele>479</ele>
        <time>2019-09-11T10:30:07+00:00</time>
      </trkpt>
      <trkpt lat="43.31713104248" lon="-7.6408181190491">
        <ele>479</ele>
        <time>2019-09-11T10:30:08+00:00</time>
      </trkpt>
      <trkpt lat="43.317127227783" lon="-7.6408314704895">
        <ele>479</ele>
        <time>2019-09-11T10:30:09+00:00</time>
      </trkpt>
      <trkpt lat="43.317127227783" lon="-7.6408467292786">
        <ele>479</ele>
        <time>2019-09-11T10:30:10+00:00</time>
      </trkpt>
      <trkpt lat="43.317123413086" lon="-7.640860080719">
        <ele>479</ele>
        <time>2019-09-11T10:30:11+00:00</time>
      </trkpt>
      <trkpt lat="43.317123413086" lon="-7.6408734321594">
        <ele>479</ele>
        <time>2019-09-11T10:30:12+00:00</time>
      </trkpt>
      <trkpt lat="43.317119598389" lon="-7.6408848762512">
        <ele>479</ele>
        <time>2019-09-11T10:30:13+00:00</time>
      </trkpt>
      <trkpt lat="43.317123413086" lon="-7.6408967971802">
        <ele>479</ele>
        <time>2019-09-11T10:30:14+00:00</time>
      </trkpt>
      <trkpt lat="43.317123413086" lon="-7.6409115791321">
        <ele>479</ele>
        <time>2019-09-11T10:30:15+00:00</time>
      </trkpt>
      <trkpt lat="43.317123413086" lon="-7.6409301757812">
        <ele>480</ele>
        <time>2019-09-11T10:30:16+00:00</time>
      </trkpt>
      <trkpt lat="43.317127227783" lon="-7.6409482955933">
        <ele>480</ele>
        <time>2019-09-11T10:30:17+00:00</time>
      </trkpt>
      <trkpt lat="43.317123413086" lon="-7.6409649848938">
        <ele>480</ele>
        <time>2019-09-11T10:30:18+00:00</time>
      </trkpt>
      <trkpt lat="43.317111968994" lon="-7.6409797668457">
        <ele>480</ele>
        <time>2019-09-11T10:30:19+00:00</time>
      </trkpt>
      <trkpt lat="43.317108154297" lon="-7.6409931182861">
        <ele>480</ele>
        <time>2019-09-11T10:30:20+00:00</time>
      </trkpt>
      <trkpt lat="43.3171043396" lon="-7.6410064697266">
        <ele>480</ele>
        <time>2019-09-11T10:30:21+00:00</time>
      </trkpt>
      <trkpt lat="43.3171043396" lon="-7.6410131454468">
        <ele>480</ele>
        <time>2019-09-11T10:30:22+00:00</time>
      </trkpt>
      <trkpt lat="43.317096710205" lon="-7.641019821167">
        <ele>480</ele>
        <time>2019-09-11T10:30:23+00:00</time>
      </trkpt>
      <trkpt lat="43.317092895508" lon="-7.6410298347473">
        <ele>481</ele>
        <time>2019-09-11T10:30:24+00:00</time>
      </trkpt>
      <trkpt lat="43.317089080811" lon="-7.6410431861877">
        <ele>481</ele>
        <time>2019-09-11T10:30:25+00:00</time>
      </trkpt>
      <trkpt lat="43.317085266113" lon="-7.6410565376282">
        <ele>481</ele>
        <time>2019-09-11T10:30:26+00:00</time>
      </trkpt>
      <trkpt lat="43.317081451416" lon="-7.6410684585571">
        <ele>481</ele>
        <time>2019-09-11T10:30:27+00:00</time>
      </trkpt>
      <trkpt lat="43.317081451416" lon="-7.6410851478577">
        <ele>480</ele>
        <time>2019-09-11T10:30:28+00:00</time>
      </trkpt>
      <trkpt lat="43.317081451416" lon="-7.6410999298096">
        <ele>480</ele>
        <time>2019-09-11T10:30:29+00:00</time>
      </trkpt>
      <trkpt lat="43.317085266113" lon="-7.6411185264587">
        <ele>480</ele>
        <time>2019-09-11T10:30:30+00:00</time>
      </trkpt>
      <trkpt lat="43.317085266113" lon="-7.6411333084106">
        <ele>480</ele>
        <time>2019-09-11T10:30:31+00:00</time>
      </trkpt>
      <trkpt lat="43.317089080811" lon="-7.6411566734314">
        <ele>480</ele>
        <time>2019-09-11T10:30:32+00:00</time>
      </trkpt>
      <trkpt lat="43.317089080811" lon="-7.6411781311035">
        <ele>480</ele>
        <time>2019-09-11T10:30:33+00:00</time>
      </trkpt>
      <trkpt lat="43.317092895508" lon="-7.6411948204041">
        <ele>480</ele>
        <time>2019-09-11T10:30:34+00:00</time>
      </trkpt>
      <trkpt lat="43.317096710205" lon="-7.6412115097046">
        <ele>480</ele>
        <time>2019-09-11T10:30:35+00:00</time>
      </trkpt>
      <trkpt lat="43.317096710205" lon="-7.6412267684937">
        <ele>480</ele>
        <time>2019-09-11T10:30:36+00:00</time>
      </trkpt>
      <trkpt lat="43.3171043396" lon="-7.6412401199341">
        <ele>480</ele>
        <time>2019-09-11T10:30:37+00:00</time>
      </trkpt>
      <trkpt lat="43.317108154297" lon="-7.641254901886">
        <ele>480</ele>
        <time>2019-09-11T10:30:38+00:00</time>
      </trkpt>
      <trkpt lat="43.317108154297" lon="-7.6412682533264">
        <ele>480</ele>
        <time>2019-09-11T10:30:39+00:00</time>
      </trkpt>
      <trkpt lat="43.317108154297" lon="-7.6412768363953">
        <ele>481</ele>
        <time>2019-09-11T10:30:40+00:00</time>
      </trkpt>
      <trkpt lat="43.317108154297" lon="-7.6412868499756">
        <ele>481</ele>
        <time>2019-09-11T10:30:41+00:00</time>
      </trkpt>
      <trkpt lat="43.317108154297" lon="-7.641300201416">
        <ele>481</ele>
        <time>2019-09-11T10:30:42+00:00</time>
      </trkpt>
      <trkpt lat="43.317108154297" lon="-7.6413102149963">
        <ele>481</ele>
        <time>2019-09-11T10:30:43+00:00</time>
      </trkpt>
      <trkpt lat="43.317108154297" lon="-7.6413216590881">
        <ele>481</ele>
        <time>2019-09-11T10:30:44+00:00</time>
      </trkpt>
      <trkpt lat="43.3171043396" lon="-7.6413350105286">
        <ele>481</ele>
        <time>2019-09-11T10:30:45+00:00</time>
      </trkpt>
      <trkpt lat="43.3171043396" lon="-7.6413550376892">
        <ele>481</ele>
        <time>2019-09-11T10:30:46+00:00</time>
      </trkpt>
      <trkpt lat="43.3171043396" lon="-7.6413683891296">
        <ele>482</ele>
        <time>2019-09-11T10:30:47+00:00</time>
      </trkpt>
      <trkpt lat="43.317100524902" lon="-7.6413798332214">
        <ele>482</ele>
        <time>2019-09-11T10:30:48+00:00</time>
      </trkpt>
      <trkpt lat="43.317100524902" lon="-7.6413931846619">
        <ele>482</ele>
        <time>2019-09-11T10:30:49+00:00</time>
      </trkpt>
      <trkpt lat="43.317100524902" lon="-7.6414084434509">
        <ele>482</ele>
        <time>2019-09-11T10:30:50+00:00</time>
      </trkpt>
      <trkpt lat="43.317096710205" lon="-7.6414251327515">
        <ele>482</ele>
        <time>2019-09-11T10:30:51+00:00</time>
      </trkpt>
      <trkpt lat="43.317089080811" lon="-7.641441822052">
        <ele>482</ele>
        <time>2019-09-11T10:30:52+00:00</time>
      </trkpt>
      <trkpt lat="43.317085266113" lon="-7.6414566040039">
        <ele>482</ele>
        <time>2019-09-11T10:30:53+00:00</time>
      </trkpt>
      <trkpt lat="43.317085266113" lon="-7.6414732933044">
        <ele>482</ele>
        <time>2019-09-11T10:30:54+00:00</time>
      </trkpt>
      <trkpt lat="43.317085266113" lon="-7.6414918899536">
        <ele>482</ele>
        <time>2019-09-11T10:30:55+00:00</time>
      </trkpt>
      <trkpt lat="43.317077636719" lon="-7.6414999961853">
        <ele>482</ele>
        <time>2019-09-11T10:30:56+00:00</time>
      </trkpt>
      <trkpt lat="43.317081451416" lon="-7.6415133476257">
        <ele>482</ele>
        <time>2019-09-11T10:30:57+00:00</time>
      </trkpt>
      <trkpt lat="43.317073822021" lon="-7.6415281295776">
        <ele>482</ele>
        <time>2019-09-11T10:30:58+00:00</time>
      </trkpt>
      <trkpt lat="43.317073822021" lon="-7.6415448188782">
        <ele>482</ele>
        <time>2019-09-11T10:30:59+00:00</time>
      </trkpt>
      <trkpt lat="43.317070007324" lon="-7.6415581703186">
        <ele>481</ele>
        <time>2019-09-11T10:31:00+00:00</time>
      </trkpt>
      <trkpt lat="43.317066192627" lon="-7.6415681838989">
        <ele>481</ele>
        <time>2019-09-11T10:31:01+00:00</time>
      </trkpt>
      <trkpt lat="43.317066192627" lon="-7.6415815353394">
        <ele>481</ele>
        <time>2019-09-11T10:31:02+00:00</time>
      </trkpt>
      <trkpt lat="43.31706237793" lon="-7.6415934562683">
        <ele>481</ele>
        <time>2019-09-11T10:31:03+00:00</time>
      </trkpt>
      <trkpt lat="43.317054748535" lon="-7.6416049003601">
        <ele>481</ele>
        <time>2019-09-11T10:31:04+00:00</time>
      </trkpt>
      <trkpt lat="43.317058563232" lon="-7.6416149139404">
        <ele>481</ele>
        <time>2019-09-11T10:31:05+00:00</time>
      </trkpt>
      <trkpt lat="43.317054748535" lon="-7.6416268348694">
        <ele>481</ele>
        <time>2019-09-11T10:31:06+00:00</time>
      </trkpt>
      <trkpt lat="43.317050933838" lon="-7.6416401863098">
        <ele>481</ele>
        <time>2019-09-11T10:31:07+00:00</time>
      </trkpt>
      <trkpt lat="43.317050933838" lon="-7.6416568756104">
        <ele>481</ele>
        <time>2019-09-11T10:31:08+00:00</time>
      </trkpt>
      <trkpt lat="43.317047119141" lon="-7.6416716575623">
        <ele>481</ele>
        <time>2019-09-11T10:31:09+00:00</time>
      </trkpt>
      <trkpt lat="43.317043304443" lon="-7.6416831016541">
        <ele>482</ele>
        <time>2019-09-11T10:31:10+00:00</time>
      </trkpt>
      <trkpt lat="43.317039489746" lon="-7.6416983604431">
        <ele>482</ele>
        <time>2019-09-11T10:31:11+00:00</time>
      </trkpt>
      <trkpt lat="43.317035675049" lon="-7.6417150497437">
        <ele>482</ele>
        <time>2019-09-11T10:31:12+00:00</time>
      </trkpt>
      <trkpt lat="43.317031860352" lon="-7.6417298316956">
        <ele>482</ele>
        <time>2019-09-11T10:31:13+00:00</time>
      </trkpt>
      <trkpt lat="43.317024230957" lon="-7.6417384147644">
        <ele>482</ele>
        <time>2019-09-11T10:31:14+00:00</time>
      </trkpt>
      <trkpt lat="43.317016601562" lon="-7.6417498588562">
        <ele>482</ele>
        <time>2019-09-11T10:31:15+00:00</time>
      </trkpt>
      <trkpt lat="43.317005157471" lon="-7.6417651176453">
        <ele>483</ele>
        <time>2019-09-11T10:31:16+00:00</time>
      </trkpt>
      <trkpt lat="43.317005157471" lon="-7.6417798995972">
        <ele>483</ele>
        <time>2019-09-11T10:31:17+00:00</time>
      </trkpt>
      <trkpt lat="43.316997528076" lon="-7.6417899131775">
        <ele>483</ele>
        <time>2019-09-11T10:31:18+00:00</time>
      </trkpt>
      <trkpt lat="43.316993713379" lon="-7.6418018341064">
        <ele>483</ele>
        <time>2019-09-11T10:31:19+00:00</time>
      </trkpt>
      <trkpt lat="43.316989898682" lon="-7.6418132781982">
        <ele>483</ele>
        <time>2019-09-11T10:31:20+00:00</time>
      </trkpt>
      <trkpt lat="43.316989898682" lon="-7.6418218612671">
        <ele>484</ele>
        <time>2019-09-11T10:31:21+00:00</time>
      </trkpt>
      <trkpt lat="43.316986083984" lon="-7.6418318748474">
        <ele>484</ele>
        <time>2019-09-11T10:31:22+00:00</time>
      </trkpt>
      <trkpt lat="43.31697845459" lon="-7.6418399810791">
        <ele>484</ele>
        <time>2019-09-11T10:31:23+00:00</time>
      </trkpt>
      <trkpt lat="43.316974639893" lon="-7.6418519020081">
        <ele>484</ele>
        <time>2019-09-11T10:31:24+00:00</time>
      </trkpt>
      <trkpt lat="43.316974639893" lon="-7.6418614387512">
        <ele>484</ele>
        <time>2019-09-11T10:31:25+00:00</time>
      </trkpt>
      <trkpt lat="43.316970825195" lon="-7.6418733596802">
        <ele>484</ele>
        <time>2019-09-11T10:31:26+00:00</time>
      </trkpt>
      <trkpt lat="43.316967010498" lon="-7.6418814659119">
        <ele>484</ele>
        <time>2019-09-11T10:31:27+00:00</time>
      </trkpt>
      <trkpt lat="43.316963195801" lon="-7.6418914794922">
        <ele>485</ele>
        <time>2019-09-11T10:31:28+00:00</time>
      </trkpt>
      <trkpt lat="43.316959381104" lon="-7.6419048309326">
        <ele>485</ele>
        <time>2019-09-11T10:31:29+00:00</time>
      </trkpt>
      <trkpt lat="43.316955566406" lon="-7.6419167518616">
        <ele>485</ele>
        <time>2019-09-11T10:31:30+00:00</time>
      </trkpt>
      <trkpt lat="43.316944122314" lon="-7.6419267654419">
        <ele>485</ele>
        <time>2019-09-11T10:31:31+00:00</time>
      </trkpt>
      <trkpt lat="43.31693649292" lon="-7.6419382095337">
        <ele>486</ele>
        <time>2019-09-11T10:31:32+00:00</time>
      </trkpt>
      <trkpt lat="43.316932678223" lon="-7.641948223114">
        <ele>486</ele>
        <time>2019-09-11T10:31:33+00:00</time>
      </trkpt>
      <trkpt lat="43.316925048828" lon="-7.6419582366943">
        <ele>487</ele>
        <time>2019-09-11T10:31:34+00:00</time>
      </trkpt>
      <trkpt lat="43.316917419434" lon="-7.6419668197632">
        <ele>487</ele>
        <time>2019-09-11T10:31:35+00:00</time>
      </trkpt>
      <trkpt lat="43.316917419434" lon="-7.6419816017151">
        <ele>487</ele>
        <time>2019-09-11T10:31:36+00:00</time>
      </trkpt>
      <trkpt lat="43.316913604736" lon="-7.6420016288757">
        <ele>487</ele>
        <time>2019-09-11T10:31:37+00:00</time>
      </trkpt>
      <trkpt lat="43.316909790039" lon="-7.642023563385">
        <ele>487</ele>
        <time>2019-09-11T10:31:38+00:00</time>
      </trkpt>
      <trkpt lat="43.316905975342" lon="-7.642041683197">
        <ele>488</ele>
        <time>2019-09-11T10:31:39+00:00</time>
      </trkpt>
      <trkpt lat="43.316898345947" lon="-7.6420550346375">
        <ele>488</ele>
        <time>2019-09-11T10:31:40+00:00</time>
      </trkpt>
      <trkpt lat="43.31689453125" lon="-7.6420650482178">
        <ele>488</ele>
        <time>2019-09-11T10:31:41+00:00</time>
      </trkpt>
      <trkpt lat="43.316890716553" lon="-7.6420783996582">
        <ele>487</ele>
        <time>2019-09-11T10:31:42+00:00</time>
      </trkpt>
      <trkpt lat="43.31689453125" lon="-7.6420917510986">
        <ele>487</ele>
        <time>2019-09-11T10:31:43+00:00</time>
      </trkpt>
      <trkpt lat="43.316886901855" lon="-7.6421065330505">
        <ele>487</ele>
        <time>2019-09-11T10:31:44+00:00</time>
      </trkpt>
      <trkpt lat="43.316886901855" lon="-7.6421251296997">
        <ele>486</ele>
        <time>2019-09-11T10:31:45+00:00</time>
      </trkpt>
      <trkpt lat="43.316886901855" lon="-7.6421432495117">
        <ele>486</ele>
        <time>2019-09-11T10:31:46+00:00</time>
      </trkpt>
      <trkpt lat="43.316883087158" lon="-7.6421566009521">
        <ele>486</ele>
        <time>2019-09-11T10:31:47+00:00</time>
      </trkpt>
      <trkpt lat="43.316871643066" lon="-7.6421666145325">
        <ele>486</ele>
        <time>2019-09-11T10:31:48+00:00</time>
      </trkpt>
      <trkpt lat="43.316864013672" lon="-7.6421766281128">
        <ele>486</ele>
        <time>2019-09-11T10:31:49+00:00</time>
      </trkpt>
      <trkpt lat="43.316856384277" lon="-7.6421933174133">
        <ele>485</ele>
        <time>2019-09-11T10:31:50+00:00</time>
      </trkpt>
      <trkpt lat="43.316848754883" lon="-7.6422080993652">
        <ele>485</ele>
        <time>2019-09-11T10:31:51+00:00</time>
      </trkpt>
      <trkpt lat="43.316844940186" lon="-7.6422247886658">
        <ele>485</ele>
        <time>2019-09-11T10:31:52+00:00</time>
      </trkpt>
      <trkpt lat="43.316841125488" lon="-7.6422348022461">
        <ele>485</ele>
        <time>2019-09-11T10:31:53+00:00</time>
      </trkpt>
      <trkpt lat="43.316841125488" lon="-7.6422433853149">
        <ele>485</ele>
        <time>2019-09-11T10:31:54+00:00</time>
      </trkpt>
      <trkpt lat="43.316837310791" lon="-7.6422567367554">
        <ele>486</ele>
        <time>2019-09-11T10:31:55+00:00</time>
      </trkpt>
      <trkpt lat="43.316837310791" lon="-7.6422734260559">
        <ele>486</ele>
        <time>2019-09-11T10:31:56+00:00</time>
      </trkpt>
      <trkpt lat="43.316837310791" lon="-7.6422882080078">
        <ele>486</ele>
        <time>2019-09-11T10:31:57+00:00</time>
      </trkpt>
      <trkpt lat="43.316833496094" lon="-7.6423048973083">
        <ele>487</ele>
        <time>2019-09-11T10:31:58+00:00</time>
      </trkpt>
      <trkpt lat="43.316833496094" lon="-7.6423201560974">
        <ele>487</ele>
        <time>2019-09-11T10:31:59+00:00</time>
      </trkpt>
      <trkpt lat="43.316833496094" lon="-7.6423335075378">
        <ele>487</ele>
        <time>2019-09-11T10:32:00+00:00</time>
      </trkpt>
      <trkpt lat="43.316833496094" lon="-7.6423468589783">
        <ele>487</ele>
        <time>2019-09-11T10:32:01+00:00</time>
      </trkpt>
      <trkpt lat="43.316833496094" lon="-7.6423616409302">
        <ele>487</ele>
        <time>2019-09-11T10:32:02+00:00</time>
      </trkpt>
      <trkpt lat="43.316833496094" lon="-7.6423768997192">
        <ele>487</ele>
        <time>2019-09-11T10:32:03+00:00</time>
      </trkpt>
      <trkpt lat="43.316833496094" lon="-7.6423950195312">
        <ele>487</ele>
        <time>2019-09-11T10:32:04+00:00</time>
      </trkpt>
      <trkpt lat="43.316829681396" lon="-7.6424083709717">
        <ele>486</ele>
        <time>2019-09-11T10:32:05+00:00</time>
      </trkpt>
      <trkpt lat="43.316829681396" lon="-7.6424250602722">
        <ele>487</ele>
        <time>2019-09-11T10:32:06+00:00</time>
      </trkpt>
      <trkpt lat="43.316818237305" lon="-7.6424384117126">
        <ele>487</ele>
        <time>2019-09-11T10:32:07+00:00</time>
      </trkpt>
      <trkpt lat="43.31681060791" lon="-7.6424531936646">
        <ele>487</ele>
        <time>2019-09-11T10:32:08+00:00</time>
      </trkpt>
      <trkpt lat="43.316806793213" lon="-7.6424698829651">
        <ele>486</ele>
        <time>2019-09-11T10:32:09+00:00</time>
      </trkpt>
      <trkpt lat="43.316806793213" lon="-7.642481803894">
        <ele>486</ele>
        <time>2019-09-11T10:32:10+00:00</time>
      </trkpt>
      <trkpt lat="43.316806793213" lon="-7.6424951553345">
        <ele>486</ele>
        <time>2019-09-11T10:32:11+00:00</time>
      </trkpt>
      <trkpt lat="43.316806793213" lon="-7.642511844635">
        <ele>486</ele>
        <time>2019-09-11T10:32:12+00:00</time>
      </trkpt>
      <trkpt lat="43.316806793213" lon="-7.6425285339355">
        <ele>486</ele>
        <time>2019-09-11T10:32:13+00:00</time>
      </trkpt>
      <trkpt lat="43.316806793213" lon="-7.6425399780273">
        <ele>486</ele>
        <time>2019-09-11T10:32:14+00:00</time>
      </trkpt>
      <trkpt lat="43.316806793213" lon="-7.6425518989563">
        <ele>486</ele>
        <time>2019-09-11T10:32:15+00:00</time>
      </trkpt>
      <trkpt lat="43.316806793213" lon="-7.6425647735596">
        <ele>486</ele>
        <time>2019-09-11T10:32:16+00:00</time>
      </trkpt>
      <trkpt lat="43.316806793213" lon="-7.6425800323486">
        <ele>486</ele>
        <time>2019-09-11T10:32:17+00:00</time>
      </trkpt>
      <trkpt lat="43.31681060791" lon="-7.6425967216492">
        <ele>486</ele>
        <time>2019-09-11T10:32:18+00:00</time>
      </trkpt>
      <trkpt lat="43.316814422607" lon="-7.6426134109497">
        <ele>485</ele>
        <time>2019-09-11T10:32:19+00:00</time>
      </trkpt>
      <trkpt lat="43.316814422607" lon="-7.6426301002502">
        <ele>485</ele>
        <time>2019-09-11T10:32:20+00:00</time>
      </trkpt>
      <trkpt lat="43.316818237305" lon="-7.6426448822021">
        <ele>485</ele>
        <time>2019-09-11T10:32:21+00:00</time>
      </trkpt>
      <trkpt lat="43.316818237305" lon="-7.6426601409912">
        <ele>485</ele>
        <time>2019-09-11T10:32:22+00:00</time>
      </trkpt>
      <trkpt lat="43.316822052002" lon="-7.6426768302917">
        <ele>485</ele>
        <time>2019-09-11T10:32:23+00:00</time>
      </trkpt>
      <trkpt lat="43.316825866699" lon="-7.6426916122437">
        <ele>485</ele>
        <time>2019-09-11T10:32:24+00:00</time>
      </trkpt>
      <trkpt lat="43.316829681396" lon="-7.6427068710327">
        <ele>485</ele>
        <time>2019-09-11T10:32:25+00:00</time>
      </trkpt>
      <trkpt lat="43.316833496094" lon="-7.6427202224731">
        <ele>486</ele>
        <time>2019-09-11T10:32:26+00:00</time>
      </trkpt>
      <trkpt lat="43.316833496094" lon="-7.6427330970764">
        <ele>486</ele>
        <time>2019-09-11T10:32:27+00:00</time>
      </trkpt>
      <trkpt lat="43.316837310791" lon="-7.6427483558655">
        <ele>486</ele>
        <time>2019-09-11T10:32:28+00:00</time>
      </trkpt>
      <trkpt lat="43.316837310791" lon="-7.6427631378174">
        <ele>486</ele>
        <time>2019-09-11T10:32:29+00:00</time>
      </trkpt>
      <trkpt lat="43.316829681396" lon="-7.6427783966064">
        <ele>487</ele>
        <time>2019-09-11T10:32:30+00:00</time>
      </trkpt>
      <trkpt lat="43.316825866699" lon="-7.6427931785583">
        <ele>487</ele>
        <time>2019-09-11T10:32:31+00:00</time>
      </trkpt>
      <trkpt lat="43.316825866699" lon="-7.6428084373474">
        <ele>487</ele>
        <time>2019-09-11T10:32:32+00:00</time>
      </trkpt>
      <trkpt lat="43.316825866699" lon="-7.6428232192993">
        <ele>487</ele>
        <time>2019-09-11T10:32:33+00:00</time>
      </trkpt>
      <trkpt lat="43.316825866699" lon="-7.6428365707397">
        <ele>487</ele>
        <time>2019-09-11T10:32:34+00:00</time>
      </trkpt>
      <trkpt lat="43.316825866699" lon="-7.6428565979004">
        <ele>487</ele>
        <time>2019-09-11T10:32:35+00:00</time>
      </trkpt>
      <trkpt lat="43.316829681396" lon="-7.6428751945496">
        <ele>486</ele>
        <time>2019-09-11T10:32:36+00:00</time>
      </trkpt>
      <trkpt lat="43.316825866699" lon="-7.6428899765015">
        <ele>486</ele>
        <time>2019-09-11T10:32:37+00:00</time>
      </trkpt>
      <trkpt lat="43.316822052002" lon="-7.642906665802">
        <ele>486</ele>
        <time>2019-09-11T10:32:38+00:00</time>
      </trkpt>
      <trkpt lat="43.316822052002" lon="-7.6429233551025">
        <ele>487</ele>
        <time>2019-09-11T10:32:39+00:00</time>
      </trkpt>
      <trkpt lat="43.316825866699" lon="-7.642936706543">
        <ele>487</ele>
        <time>2019-09-11T10:32:40+00:00</time>
      </trkpt>
      <trkpt lat="43.316825866699" lon="-7.6429500579834">
        <ele>487</ele>
        <time>2019-09-11T10:32:41+00:00</time>
      </trkpt>
      <trkpt lat="43.316825866699" lon="-7.6429615020752">
        <ele>488</ele>
        <time>2019-09-11T10:32:42+00:00</time>
      </trkpt>
      <trkpt lat="43.316822052002" lon="-7.6429715156555">
        <ele>488</ele>
        <time>2019-09-11T10:32:43+00:00</time>
      </trkpt>
      <trkpt lat="43.316825866699" lon="-7.6429848670959">
        <ele>488</ele>
        <time>2019-09-11T10:32:44+00:00</time>
      </trkpt>
      <trkpt lat="43.316829681396" lon="-7.6429982185364">
        <ele>488</ele>
        <time>2019-09-11T10:32:45+00:00</time>
      </trkpt>
      <trkpt lat="43.316829681396" lon="-7.6430082321167">
        <ele>489</ele>
        <time>2019-09-11T10:32:46+00:00</time>
      </trkpt>
      <trkpt lat="43.316829681396" lon="-7.6430168151855">
        <ele>489</ele>
        <time>2019-09-11T10:32:47+00:00</time>
      </trkpt>
      <trkpt lat="43.316829681396" lon="-7.6430282592773">
        <ele>489</ele>
        <time>2019-09-11T10:32:48+00:00</time>
      </trkpt>
      <trkpt lat="43.316829681396" lon="-7.6430435180664">
        <ele>489</ele>
        <time>2019-09-11T10:32:49+00:00</time>
      </trkpt>
      <trkpt lat="43.316825866699" lon="-7.6430602073669">
        <ele>489</ele>
        <time>2019-09-11T10:32:50+00:00</time>
      </trkpt>
      <trkpt lat="43.316818237305" lon="-7.6430768966675">
        <ele>489</ele>
        <time>2019-09-11T10:32:51+00:00</time>
      </trkpt>
      <trkpt lat="43.316818237305" lon="-7.6430916786194">
        <ele>489</ele>
        <time>2019-09-11T10:32:52+00:00</time>
      </trkpt>
      <trkpt lat="43.316814422607" lon="-7.6431050300598">
        <ele>490</ele>
        <time>2019-09-11T10:32:53+00:00</time>
      </trkpt>
      <trkpt lat="43.316806793213" lon="-7.6431198120117">
        <ele>490</ele>
        <time>2019-09-11T10:32:54+00:00</time>
      </trkpt>
      <trkpt lat="43.316802978516" lon="-7.6431317329407">
        <ele>490</ele>
        <time>2019-09-11T10:32:55+00:00</time>
      </trkpt>
      <trkpt lat="43.316799163818" lon="-7.6431431770325">
        <ele>490</ele>
        <time>2019-09-11T10:32:56+00:00</time>
      </trkpt>
      <trkpt lat="43.316795349121" lon="-7.6431517601013">
        <ele>490</ele>
        <time>2019-09-11T10:32:57+00:00</time>
      </trkpt>
      <trkpt lat="43.316791534424" lon="-7.643159866333">
        <ele>491</ele>
        <time>2019-09-11T10:32:58+00:00</time>
      </trkpt>
      <trkpt lat="43.316791534424" lon="-7.6431665420532">
        <ele>491</ele>
        <time>2019-09-11T10:32:59+00:00</time>
      </trkpt>
      <trkpt lat="43.316783905029" lon="-7.6431732177734">
        <ele>491</ele>
        <time>2019-09-11T10:33:00+00:00</time>
      </trkpt>
      <trkpt lat="43.316780090332" lon="-7.6431865692139">
        <ele>491</ele>
        <time>2019-09-11T10:33:01+00:00</time>
      </trkpt>
      <trkpt lat="43.316783905029" lon="-7.6431984901428">
        <ele>492</ele>
        <time>2019-09-11T10:33:02+00:00</time>
      </trkpt>
      <trkpt lat="43.316791534424" lon="-7.6432085037231">
        <ele>492</ele>
        <time>2019-09-11T10:33:03+00:00</time>
      </trkpt>
      <trkpt lat="43.316795349121" lon="-7.6432251930237">
        <ele>492</ele>
        <time>2019-09-11T10:33:04+00:00</time>
      </trkpt>
      <trkpt lat="43.316802978516" lon="-7.6432366371155">
        <ele>492</ele>
        <time>2019-09-11T10:33:05+00:00</time>
      </trkpt>
      <trkpt lat="43.316799163818" lon="-7.6432518959045">
        <ele>492</ele>
        <time>2019-09-11T10:33:06+00:00</time>
      </trkpt>
      <trkpt lat="43.316802978516" lon="-7.6432633399963">
        <ele>493</ele>
        <time>2019-09-11T10:33:07+00:00</time>
      </trkpt>
      <trkpt lat="43.316806793213" lon="-7.6432800292969">
        <ele>493</ele>
        <time>2019-09-11T10:33:08+00:00</time>
      </trkpt>
      <trkpt lat="43.31681060791" lon="-7.6432981491089">
        <ele>493</ele>
        <time>2019-09-11T10:33:09+00:00</time>
      </trkpt>
      <trkpt lat="43.316814422607" lon="-7.6433067321777">
        <ele>493</ele>
        <time>2019-09-11T10:33:10+00:00</time>
      </trkpt>
      <trkpt lat="43.316818237305" lon="-7.6433200836182">
        <ele>494</ele>
        <time>2019-09-11T10:33:11+00:00</time>
      </trkpt>
      <trkpt lat="43.316822052002" lon="-7.6433415412903">
        <ele>494</ele>
        <time>2019-09-11T10:33:12+00:00</time>
      </trkpt>
      <trkpt lat="43.316825866699" lon="-7.6433501243591">
        <ele>494</ele>
        <time>2019-09-11T10:33:13+00:00</time>
      </trkpt>
      <trkpt lat="43.316825866699" lon="-7.6433634757996">
        <ele>495</ele>
        <time>2019-09-11T10:33:14+00:00</time>
      </trkpt>
      <trkpt lat="43.316825866699" lon="-7.6433734893799">
        <ele>495</ele>
        <time>2019-09-11T10:33:15+00:00</time>
      </trkpt>
      <trkpt lat="43.316825866699" lon="-7.6433901786804">
        <ele>495</ele>
        <time>2019-09-11T10:33:16+00:00</time>
      </trkpt>
      <trkpt lat="43.316829681396" lon="-7.643406867981">
        <ele>495</ele>
        <time>2019-09-11T10:33:17+00:00</time>
      </trkpt>
      <trkpt lat="43.316829681396" lon="-7.6434183120728">
        <ele>496</ele>
        <time>2019-09-11T10:33:18+00:00</time>
      </trkpt>
      <trkpt lat="43.316829681396" lon="-7.6434316635132">
        <ele>496</ele>
        <time>2019-09-11T10:33:19+00:00</time>
      </trkpt>
      <trkpt lat="43.316825866699" lon="-7.6434464454651">
        <ele>495</ele>
        <time>2019-09-11T10:33:20+00:00</time>
      </trkpt>
      <trkpt lat="43.316829681396" lon="-7.6434650421143">
        <ele>495</ele>
        <time>2019-09-11T10:33:21+00:00</time>
      </trkpt>
      <trkpt lat="43.316833496094" lon="-7.6434783935547">
        <ele>495</ele>
        <time>2019-09-11T10:33:22+00:00</time>
      </trkpt>
      <trkpt lat="43.316837310791" lon="-7.6434917449951">
        <ele>496</ele>
        <time>2019-09-11T10:33:23+00:00</time>
      </trkpt>
      <trkpt lat="43.316841125488" lon="-7.6435098648071">
        <ele>496</ele>
        <time>2019-09-11T10:33:24+00:00</time>
      </trkpt>
      <trkpt lat="43.316844940186" lon="-7.6435298919678">
        <ele>496</ele>
        <time>2019-09-11T10:33:25+00:00</time>
      </trkpt>
      <trkpt lat="43.31685256958" lon="-7.6435518264771">
        <ele>496</ele>
        <time>2019-09-11T10:33:26+00:00</time>
      </trkpt>
      <trkpt lat="43.316848754883" lon="-7.6435685157776">
        <ele>497</ele>
        <time>2019-09-11T10:33:27+00:00</time>
      </trkpt>
      <trkpt lat="43.316856384277" lon="-7.643581867218">
        <ele>497</ele>
        <time>2019-09-11T10:33:28+00:00</time>
      </trkpt>
      <trkpt lat="43.316856384277" lon="-7.6435866355896">
        <ele>497</ele>
        <time>2019-09-11T10:33:29+00:00</time>
      </trkpt>
      <trkpt lat="43.316844940186" lon="-7.6436033248901">
        <ele>497</ele>
        <time>2019-09-11T10:33:30+00:00</time>
      </trkpt>
      <trkpt lat="43.316837310791" lon="-7.6436147689819">
        <ele>497</ele>
        <time>2019-09-11T10:33:31+00:00</time>
      </trkpt>
      <trkpt lat="43.316833496094" lon="-7.6436247825623">
        <ele>497</ele>
        <time>2019-09-11T10:33:32+00:00</time>
      </trkpt>
      <trkpt lat="43.316818237305" lon="-7.6436414718628">
        <ele>497</ele>
        <time>2019-09-11T10:33:33+00:00</time>
      </trkpt>
      <trkpt lat="43.316814422607" lon="-7.643660068512">
        <ele>497</ele>
        <time>2019-09-11T10:33:34+00:00</time>
      </trkpt>
      <trkpt lat="43.31681060791" lon="-7.6436715126038">
        <ele>497</ele>
        <time>2019-09-11T10:33:35+00:00</time>
      </trkpt>
      <trkpt lat="43.316806793213" lon="-7.6436867713928">
        <ele>497</ele>
        <time>2019-09-11T10:33:36+00:00</time>
      </trkpt>
      <trkpt lat="43.316802978516" lon="-7.6437015533447">
        <ele>497</ele>
        <time>2019-09-11T10:33:37+00:00</time>
      </trkpt>
      <trkpt lat="43.316787719727" lon="-7.6437101364136">
        <ele>497</ele>
        <time>2019-09-11T10:33:38+00:00</time>
      </trkpt>
      <trkpt lat="43.316787719727" lon="-7.6437182426453">
        <ele>497</ele>
        <time>2019-09-11T10:33:39+00:00</time>
      </trkpt>
      <trkpt lat="43.316783905029" lon="-7.6437301635742">
        <ele>497</ele>
        <time>2019-09-11T10:33:40+00:00</time>
      </trkpt>
      <trkpt lat="43.316780090332" lon="-7.643741607666">
        <ele>497</ele>
        <time>2019-09-11T10:33:41+00:00</time>
      </trkpt>
      <trkpt lat="43.316780090332" lon="-7.6437568664551">
        <ele>497</ele>
        <time>2019-09-11T10:33:42+00:00</time>
      </trkpt>
      <trkpt lat="43.316783905029" lon="-7.6437802314758">
        <ele>497</ele>
        <time>2019-09-11T10:33:43+00:00</time>
      </trkpt>
      <trkpt lat="43.316780090332" lon="-7.6437997817993">
        <ele>498</ele>
        <time>2019-09-11T10:33:44+00:00</time>
      </trkpt>
      <trkpt lat="43.316776275635" lon="-7.6438283920288">
        <ele>498</ele>
        <time>2019-09-11T10:33:45+00:00</time>
      </trkpt>
      <trkpt lat="43.316776275635" lon="-7.6438450813293">
        <ele>498</ele>
        <time>2019-09-11T10:33:46+00:00</time>
      </trkpt>
      <trkpt lat="43.316776275635" lon="-7.6438598632812">
        <ele>498</ele>
        <time>2019-09-11T10:33:47+00:00</time>
      </trkpt>
      <trkpt lat="43.316776275635" lon="-7.6438765525818">
        <ele>498</ele>
        <time>2019-09-11T10:33:48+00:00</time>
      </trkpt>
      <trkpt lat="43.316780090332" lon="-7.6438965797424">
        <ele>498</ele>
        <time>2019-09-11T10:33:49+00:00</time>
      </trkpt>
      <trkpt lat="43.316780090332" lon="-7.6439151763916">
        <ele>498</ele>
        <time>2019-09-11T10:33:50+00:00</time>
      </trkpt>
      <trkpt lat="43.316780090332" lon="-7.6439266204834">
        <ele>498</ele>
        <time>2019-09-11T10:33:51+00:00</time>
      </trkpt>
      <trkpt lat="43.316783905029" lon="-7.6439452171326">
        <ele>498</ele>
        <time>2019-09-11T10:33:52+00:00</time>
      </trkpt>
      <trkpt lat="43.316783905029" lon="-7.6439599990845">
        <ele>498</ele>
        <time>2019-09-11T10:33:53+00:00</time>
      </trkpt>
      <trkpt lat="43.316787719727" lon="-7.6439781188965">
        <ele>499</ele>
        <time>2019-09-11T10:33:54+00:00</time>
      </trkpt>
      <trkpt lat="43.316787719727" lon="-7.6440000534058">
        <ele>499</ele>
        <time>2019-09-11T10:33:55+00:00</time>
      </trkpt>
      <trkpt lat="43.316787719727" lon="-7.6440167427063">
        <ele>499</ele>
        <time>2019-09-11T10:33:56+00:00</time>
      </trkpt>
      <trkpt lat="43.316783905029" lon="-7.6440315246582">
        <ele>499</ele>
        <time>2019-09-11T10:33:57+00:00</time>
      </trkpt>
      <trkpt lat="43.316787719727" lon="-7.6440448760986">
        <ele>499</ele>
        <time>2019-09-11T10:33:58+00:00</time>
      </trkpt>
      <trkpt lat="43.316787719727" lon="-7.6440567970276">
        <ele>499</ele>
        <time>2019-09-11T10:33:59+00:00</time>
      </trkpt>
      <trkpt lat="43.316787719727" lon="-7.644070148468">
        <ele>499</ele>
        <time>2019-09-11T10:34:00+00:00</time>
      </trkpt>
      <trkpt lat="43.316787719727" lon="-7.6440815925598">
        <ele>498</ele>
        <time>2019-09-11T10:34:01+00:00</time>
      </trkpt>
      <trkpt lat="43.316783905029" lon="-7.6440916061401">
        <ele>498</ele>
        <time>2019-09-11T10:34:02+00:00</time>
      </trkpt>
      <trkpt lat="43.316787719727" lon="-7.6441102027893">
        <ele>498</ele>
        <time>2019-09-11T10:34:03+00:00</time>
      </trkpt>
      <trkpt lat="43.316780090332" lon="-7.6441268920898">
        <ele>498</ele>
        <time>2019-09-11T10:34:04+00:00</time>
      </trkpt>
      <trkpt lat="43.316780090332" lon="-7.6441431045532">
        <ele>498</ele>
        <time>2019-09-11T10:34:05+00:00</time>
      </trkpt>
      <trkpt lat="43.316783905029" lon="-7.6441631317139">
        <ele>498</ele>
        <time>2019-09-11T10:34:06+00:00</time>
      </trkpt>
      <trkpt lat="43.316783905029" lon="-7.6441750526428">
        <ele>498</ele>
        <time>2019-09-11T10:34:07+00:00</time>
      </trkpt>
      <trkpt lat="43.316787719727" lon="-7.6441931724548">
        <ele>498</ele>
        <time>2019-09-11T10:34:08+00:00</time>
      </trkpt>
      <trkpt lat="43.316787719727" lon="-7.6442065238953">
        <ele>498</ele>
        <time>2019-09-11T10:34:09+00:00</time>
      </trkpt>
      <trkpt lat="43.316787719727" lon="-7.6442232131958">
        <ele>498</ele>
        <time>2019-09-11T10:34:10+00:00</time>
      </trkpt>
      <trkpt lat="43.316791534424" lon="-7.6442351341248">
        <ele>498</ele>
        <time>2019-09-11T10:34:11+00:00</time>
      </trkpt>
      <trkpt lat="43.316791534424" lon="-7.6442518234253">
        <ele>499</ele>
        <time>2019-09-11T10:34:12+00:00</time>
      </trkpt>
      <trkpt lat="43.316791534424" lon="-7.6442685127258">
        <ele>499</ele>
        <time>2019-09-11T10:34:13+00:00</time>
      </trkpt>
      <trkpt lat="43.316795349121" lon="-7.6442852020264">
        <ele>499</ele>
        <time>2019-09-11T10:34:14+00:00</time>
      </trkpt>
      <trkpt lat="43.316799163818" lon="-7.6442999839783">
        <ele>499</ele>
        <time>2019-09-11T10:34:15+00:00</time>
      </trkpt>
      <trkpt lat="43.316806793213" lon="-7.6443133354187">
        <ele>500</ele>
        <time>2019-09-11T10:34:16+00:00</time>
      </trkpt>
      <trkpt lat="43.316806793213" lon="-7.6443247795105">
        <ele>500</ele>
        <time>2019-09-11T10:34:17+00:00</time>
      </trkpt>
      <trkpt lat="43.31681060791" lon="-7.6443433761597">
        <ele>500</ele>
        <time>2019-09-11T10:34:18+00:00</time>
      </trkpt>
      <trkpt lat="43.31681060791" lon="-7.6443614959717">
        <ele>500</ele>
        <time>2019-09-11T10:34:19+00:00</time>
      </trkpt>
      <trkpt lat="43.31681060791" lon="-7.6443781852722">
        <ele>500</ele>
        <time>2019-09-11T10:34:20+00:00</time>
      </trkpt>
      <trkpt lat="43.316806793213" lon="-7.6443881988525">
        <ele>500</ele>
        <time>2019-09-11T10:34:21+00:00</time>
      </trkpt>
      <trkpt lat="43.316799163818" lon="-7.6443967819214">
        <ele>500</ele>
        <time>2019-09-11T10:34:22+00:00</time>
      </trkpt>
      <trkpt lat="43.316799163818" lon="-7.6444082260132">
        <ele>500</ele>
        <time>2019-09-11T10:34:23+00:00</time>
      </trkpt>
      <trkpt lat="43.316802978516" lon="-7.6444149017334">
        <ele>500</ele>
        <time>2019-09-11T10:34:24+00:00</time>
      </trkpt>
      <trkpt lat="43.316795349121" lon="-7.6444234848022">
        <ele>500</ele>
        <time>2019-09-11T10:34:25+00:00</time>
      </trkpt>
      <trkpt lat="43.316795349121" lon="-7.6444334983826">
        <ele>500</ele>
        <time>2019-09-11T10:34:26+00:00</time>
      </trkpt>
      <trkpt lat="43.316791534424" lon="-7.6444416046143">
        <ele>501</ele>
        <time>2019-09-11T10:34:27+00:00</time>
      </trkpt>
      <trkpt lat="43.316791534424" lon="-7.6444549560547">
        <ele>501</ele>
        <time>2019-09-11T10:34:28+00:00</time>
      </trkpt>
      <trkpt lat="43.316795349121" lon="-7.6444683074951">
        <ele>501</ele>
        <time>2019-09-11T10:34:29+00:00</time>
      </trkpt>
      <trkpt lat="43.316795349121" lon="-7.6444835662842">
        <ele>501</ele>
        <time>2019-09-11T10:34:30+00:00</time>
      </trkpt>
      <trkpt lat="43.316791534424" lon="-7.6444931030273">
        <ele>501</ele>
        <time>2019-09-11T10:34:31+00:00</time>
      </trkpt>
      <trkpt lat="43.316791534424" lon="-7.6445064544678">
        <ele>501</ele>
        <time>2019-09-11T10:34:32+00:00</time>
      </trkpt>
      <trkpt lat="43.316791534424" lon="-7.6445198059082">
        <ele>501</ele>
        <time>2019-09-11T10:34:33+00:00</time>
      </trkpt>
      <trkpt lat="43.316791534424" lon="-7.6445317268372">
        <ele>501</ele>
        <time>2019-09-11T10:34:34+00:00</time>
      </trkpt>
      <trkpt lat="43.316787719727" lon="-7.6445417404175">
        <ele>501</ele>
        <time>2019-09-11T10:34:35+00:00</time>
      </trkpt>
      <trkpt lat="43.316783905029" lon="-7.6445465087891">
        <ele>501</ele>
        <time>2019-09-11T10:34:36+00:00</time>
      </trkpt>
      <trkpt lat="43.316780090332" lon="-7.6445531845093">
        <ele>501</ele>
        <time>2019-09-11T10:34:37+00:00</time>
      </trkpt>
      <trkpt lat="43.316780090332" lon="-7.6445631980896">
        <ele>501</ele>
        <time>2019-09-11T10:34:38+00:00</time>
      </trkpt>
      <trkpt lat="43.316780090332" lon="-7.6445751190186">
        <ele>501</ele>
        <time>2019-09-11T10:34:39+00:00</time>
      </trkpt>
      <trkpt lat="43.316780090332" lon="-7.6445899009705">
        <ele>501</ele>
        <time>2019-09-11T10:34:40+00:00</time>
      </trkpt>
      <trkpt lat="43.316780090332" lon="-7.6446051597595">
        <ele>501</ele>
        <time>2019-09-11T10:34:41+00:00</time>
      </trkpt>
      <trkpt lat="43.316780090332" lon="-7.6446199417114">
        <ele>501</ele>
        <time>2019-09-11T10:34:42+00:00</time>
      </trkpt>
      <trkpt lat="43.316780090332" lon="-7.6446385383606">
        <ele>501</ele>
        <time>2019-09-11T10:34:43+00:00</time>
      </trkpt>
      <trkpt lat="43.316772460938" lon="-7.6446533203125">
        <ele>501</ele>
        <time>2019-09-11T10:34:44+00:00</time>
      </trkpt>
      <trkpt lat="43.316772460938" lon="-7.6446747779846">
        <ele>501</ele>
        <time>2019-09-11T10:34:45+00:00</time>
      </trkpt>
      <trkpt lat="43.31676864624" lon="-7.644688129425">
        <ele>500</ele>
        <time>2019-09-11T10:34:46+00:00</time>
      </trkpt>
      <trkpt lat="43.316772460938" lon="-7.644700050354">
        <ele>500</ele>
        <time>2019-09-11T10:34:47+00:00</time>
      </trkpt>
      <trkpt lat="43.316776275635" lon="-7.6447100639343">
        <ele>500</ele>
        <time>2019-09-11T10:34:48+00:00</time>
      </trkpt>
      <trkpt lat="43.316776275635" lon="-7.644730091095">
        <ele>500</ele>
        <time>2019-09-11T10:34:49+00:00</time>
      </trkpt>
      <trkpt lat="43.316776275635" lon="-7.6447434425354">
        <ele>500</ele>
        <time>2019-09-11T10:34:50+00:00</time>
      </trkpt>
      <trkpt lat="43.316780090332" lon="-7.6447534561157">
        <ele>500</ele>
        <time>2019-09-11T10:34:51+00:00</time>
      </trkpt>
      <trkpt lat="43.316783905029" lon="-7.6447649002075">
        <ele>500</ele>
        <time>2019-09-11T10:34:52+00:00</time>
      </trkpt>
      <trkpt lat="43.316787719727" lon="-7.6447782516479">
        <ele>500</ele>
        <time>2019-09-11T10:34:53+00:00</time>
      </trkpt>
      <trkpt lat="43.316791534424" lon="-7.6447968482971">
        <ele>500</ele>
        <time>2019-09-11T10:34:54+00:00</time>
      </trkpt>
      <trkpt lat="43.316799163818" lon="-7.644811630249">
        <ele>500</ele>
        <time>2019-09-11T10:34:55+00:00</time>
      </trkpt>
      <trkpt lat="43.316795349121" lon="-7.6448283195496">
        <ele>500</ele>
        <time>2019-09-11T10:34:56+00:00</time>
      </trkpt>
      <trkpt lat="43.316791534424" lon="-7.6448483467102">
        <ele>499</ele>
        <time>2019-09-11T10:34:57+00:00</time>
      </trkpt>
      <trkpt lat="43.316795349121" lon="-7.6448650360107">
        <ele>499</ele>
        <time>2019-09-11T10:34:58+00:00</time>
      </trkpt>
      <trkpt lat="43.316795349121" lon="-7.6448884010315">
        <ele>499</ele>
        <time>2019-09-11T10:34:59+00:00</time>
      </trkpt>
      <trkpt lat="43.316802978516" lon="-7.6449065208435">
        <ele>499</ele>
        <time>2019-09-11T10:35:00+00:00</time>
      </trkpt>
      <trkpt lat="43.316806793213" lon="-7.6449217796326">
        <ele>500</ele>
        <time>2019-09-11T10:35:01+00:00</time>
      </trkpt>
      <trkpt lat="43.316818237305" lon="-7.6449418067932">
        <ele>500</ele>
        <time>2019-09-11T10:35:02+00:00</time>
      </trkpt>
      <trkpt lat="43.316818237305" lon="-7.6449584960938">
        <ele>499</ele>
        <time>2019-09-11T10:35:03+00:00</time>
      </trkpt>
      <trkpt lat="43.316825866699" lon="-7.6449751853943">
        <ele>499</ele>
        <time>2019-09-11T10:35:04+00:00</time>
      </trkpt>
      <trkpt lat="43.316829681396" lon="-7.6449933052063">
        <ele>499</ele>
        <time>2019-09-11T10:35:05+00:00</time>
      </trkpt>
      <trkpt lat="43.316829681396" lon="-7.6450085639954">
        <ele>499</ele>
        <time>2019-09-11T10:35:06+00:00</time>
      </trkpt>
      <trkpt lat="43.316833496094" lon="-7.6450233459473">
        <ele>499</ele>
        <time>2019-09-11T10:35:07+00:00</time>
      </trkpt>
      <trkpt lat="43.316833496094" lon="-7.6450381278992">
        <ele>499</ele>
        <time>2019-09-11T10:35:08+00:00</time>
      </trkpt>
      <trkpt lat="43.316825866699" lon="-7.6450533866882">
        <ele>499</ele>
        <time>2019-09-11T10:35:09+00:00</time>
      </trkpt>
      <trkpt lat="43.316822052002" lon="-7.6450681686401">
        <ele>499</ele>
        <time>2019-09-11T10:35:10+00:00</time>
      </trkpt>
      <trkpt lat="43.316822052002" lon="-7.6450815200806">
        <ele>499</ele>
        <time>2019-09-11T10:35:11+00:00</time>
      </trkpt>
      <trkpt lat="43.316825866699" lon="-7.6450982093811">
        <ele>499</ele>
        <time>2019-09-11T10:35:12+00:00</time>
      </trkpt>
      <trkpt lat="43.316825866699" lon="-7.6451134681702">
        <ele>499</ele>
        <time>2019-09-11T10:35:13+00:00</time>
      </trkpt>
      <trkpt lat="43.316829681396" lon="-7.6451315879822">
        <ele>499</ele>
        <time>2019-09-11T10:35:14+00:00</time>
      </trkpt>
      <trkpt lat="43.316833496094" lon="-7.6451435089111">
        <ele>499</ele>
        <time>2019-09-11T10:35:15+00:00</time>
      </trkpt>
      <trkpt lat="43.316833496094" lon="-7.645158290863">
        <ele>499</ele>
        <time>2019-09-11T10:35:16+00:00</time>
      </trkpt>
      <trkpt lat="43.316833496094" lon="-7.645170211792">
        <ele>499</ele>
        <time>2019-09-11T10:35:17+00:00</time>
      </trkpt>
      <trkpt lat="43.316833496094" lon="-7.6451802253723">
        <ele>499</ele>
        <time>2019-09-11T10:35:18+00:00</time>
      </trkpt>
      <trkpt lat="43.316837310791" lon="-7.6451930999756">
        <ele>499</ele>
        <time>2019-09-11T10:35:19+00:00</time>
      </trkpt>
      <trkpt lat="43.316837310791" lon="-7.6452116966248">
        <ele>499</ele>
        <time>2019-09-11T10:35:20+00:00</time>
      </trkpt>
      <trkpt lat="43.316841125488" lon="-7.6452283859253">
        <ele>499</ele>
        <time>2019-09-11T10:35:21+00:00</time>
      </trkpt>
      <trkpt lat="43.316844940186" lon="-7.6452431678772">
        <ele>499</ele>
        <time>2019-09-11T10:35:22+00:00</time>
      </trkpt>
      <trkpt lat="43.316844940186" lon="-7.6452550888062">
        <ele>499</ele>
        <time>2019-09-11T10:35:23+00:00</time>
      </trkpt>
      <trkpt lat="43.316844940186" lon="-7.6452665328979">
        <ele>499</ele>
        <time>2019-09-11T10:35:24+00:00</time>
      </trkpt>
      <trkpt lat="43.316844940186" lon="-7.645281791687">
        <ele>499</ele>
        <time>2019-09-11T10:35:25+00:00</time>
      </trkpt>
      <trkpt lat="43.316844940186" lon="-7.6452932357788">
        <ele>499</ele>
        <time>2019-09-11T10:35:26+00:00</time>
      </trkpt>
      <trkpt lat="43.316848754883" lon="-7.6453084945679">
        <ele>500</ele>
        <time>2019-09-11T10:35:27+00:00</time>
      </trkpt>
      <trkpt lat="43.31685256958" lon="-7.6453251838684">
        <ele>500</ele>
        <time>2019-09-11T10:35:28+00:00</time>
      </trkpt>
      <trkpt lat="43.31685256958" lon="-7.6453399658203">
        <ele>500</ele>
        <time>2019-09-11T10:35:29+00:00</time>
      </trkpt>
      <trkpt lat="43.316856384277" lon="-7.6453533172607">
        <ele>500</ele>
        <time>2019-09-11T10:35:30+00:00</time>
      </trkpt>
      <trkpt lat="43.316860198975" lon="-7.6453680992126">
        <ele>500</ele>
        <time>2019-09-11T10:35:31+00:00</time>
      </trkpt>
      <trkpt lat="43.316860198975" lon="-7.6453847885132">
        <ele>499</ele>
        <time>2019-09-11T10:35:32+00:00</time>
      </trkpt>
      <trkpt lat="43.316860198975" lon="-7.6453981399536">
        <ele>499</ele>
        <time>2019-09-11T10:35:33+00:00</time>
      </trkpt>
      <trkpt lat="43.316860198975" lon="-7.6454100608826">
        <ele>499</ele>
        <time>2019-09-11T10:35:34+00:00</time>
      </trkpt>
      <trkpt lat="43.316867828369" lon="-7.6454215049744">
        <ele>499</ele>
        <time>2019-09-11T10:35:35+00:00</time>
      </trkpt>
      <trkpt lat="43.316871643066" lon="-7.6454348564148">
        <ele>499</ele>
        <time>2019-09-11T10:35:36+00:00</time>
      </trkpt>
      <trkpt lat="43.316867828369" lon="-7.645453453064">
        <ele>499</ele>
        <time>2019-09-11T10:35:37+00:00</time>
      </trkpt>
      <trkpt lat="43.316867828369" lon="-7.6454682350159">
        <ele>499</ele>
        <time>2019-09-11T10:35:38+00:00</time>
      </trkpt>
      <trkpt lat="43.316864013672" lon="-7.6454815864563">
        <ele>499</ele>
        <time>2019-09-11T10:35:39+00:00</time>
      </trkpt>
      <trkpt lat="43.316860198975" lon="-7.6454935073853">
        <ele>499</ele>
        <time>2019-09-11T10:35:40+00:00</time>
      </trkpt>
      <trkpt lat="43.316864013672" lon="-7.6455068588257">
        <ele>499</ele>
        <time>2019-09-11T10:35:41+00:00</time>
      </trkpt>
      <trkpt lat="43.316860198975" lon="-7.6455202102661">
        <ele>499</ele>
        <time>2019-09-11T10:35:42+00:00</time>
      </trkpt>
      <trkpt lat="43.316860198975" lon="-7.6455335617065">
        <ele>499</ele>
        <time>2019-09-11T10:35:43+00:00</time>
      </trkpt>
      <trkpt lat="43.316860198975" lon="-7.6455497741699">
        <ele>499</ele>
        <time>2019-09-11T10:35:44+00:00</time>
      </trkpt>
      <trkpt lat="43.316860198975" lon="-7.6455631256104">
        <ele>499</ele>
        <time>2019-09-11T10:35:45+00:00</time>
      </trkpt>
      <trkpt lat="43.316860198975" lon="-7.6455783843994">
        <ele>499</ele>
        <time>2019-09-11T10:35:46+00:00</time>
      </trkpt>
      <trkpt lat="43.316860198975" lon="-7.6455864906311">
        <ele>499</ele>
        <time>2019-09-11T10:35:47+00:00</time>
      </trkpt>
      <trkpt lat="43.316867828369" lon="-7.6455998420715">
        <ele>499</ele>
        <time>2019-09-11T10:35:48+00:00</time>
      </trkpt>
      <trkpt lat="43.316871643066" lon="-7.645613193512">
        <ele>499</ele>
        <time>2019-09-11T10:35:49+00:00</time>
      </trkpt>
      <trkpt lat="43.316875457764" lon="-7.6456265449524">
        <ele>500</ele>
        <time>2019-09-11T10:35:50+00:00</time>
      </trkpt>
      <trkpt lat="43.316883087158" lon="-7.6456398963928">
        <ele>499</ele>
        <time>2019-09-11T10:35:51+00:00</time>
      </trkpt>
      <trkpt lat="43.316886901855" lon="-7.6456518173218">
        <ele>499</ele>
        <time>2019-09-11T10:35:52+00:00</time>
      </trkpt>
      <trkpt lat="43.316886901855" lon="-7.6456651687622">
        <ele>499</ele>
        <time>2019-09-11T10:35:53+00:00</time>
      </trkpt>
      <trkpt lat="43.316886901855" lon="-7.6456785202026">
        <ele>500</ele>
        <time>2019-09-11T10:35:54+00:00</time>
      </trkpt>
      <trkpt lat="43.31689453125" lon="-7.6456918716431">
        <ele>500</ele>
        <time>2019-09-11T10:35:55+00:00</time>
      </trkpt>
      <trkpt lat="43.316898345947" lon="-7.6457052230835">
        <ele>500</ele>
        <time>2019-09-11T10:35:56+00:00</time>
      </trkpt>
      <trkpt lat="43.316909790039" lon="-7.6457152366638">
        <ele>500</ele>
        <time>2019-09-11T10:35:57+00:00</time>
      </trkpt>
      <trkpt lat="43.316909790039" lon="-7.6457281112671">
        <ele>500</ele>
        <time>2019-09-11T10:35:58+00:00</time>
      </trkpt>
      <trkpt lat="43.316913604736" lon="-7.6457448005676">
        <ele>500</ele>
        <time>2019-09-11T10:35:59+00:00</time>
      </trkpt>
      <trkpt lat="43.316917419434" lon="-7.6457581520081">
        <ele>500</ele>
        <time>2019-09-11T10:36:00+00:00</time>
      </trkpt>
      <trkpt lat="43.316917419434" lon="-7.6457614898682">
        <ele>500</ele>
        <time>2019-09-11T10:36:01+00:00</time>
      </trkpt>
      <trkpt lat="43.316917419434" lon="-7.6457748413086">
        <ele>500</ele>
        <time>2019-09-11T10:36:02+00:00</time>
      </trkpt>
      <trkpt lat="43.316909790039" lon="-7.6457848548889">
        <ele>500</ele>
        <time>2019-09-11T10:36:03+00:00</time>
      </trkpt>
      <trkpt lat="43.316905975342" lon="-7.6457982063293">
        <ele>500</ele>
        <time>2019-09-11T10:36:04+00:00</time>
      </trkpt>
      <trkpt lat="43.316905975342" lon="-7.6458134651184">
        <ele>500</ele>
        <time>2019-09-11T10:36:05+00:00</time>
      </trkpt>
      <trkpt lat="43.316909790039" lon="-7.6458282470703">
        <ele>500</ele>
        <time>2019-09-11T10:36:06+00:00</time>
      </trkpt>
      <trkpt lat="43.316909790039" lon="-7.6458435058594">
        <ele>500</ele>
        <time>2019-09-11T10:36:07+00:00</time>
      </trkpt>
      <trkpt lat="43.316909790039" lon="-7.6458616256714">
        <ele>500</ele>
        <time>2019-09-11T10:36:08+00:00</time>
      </trkpt>
      <trkpt lat="43.316913604736" lon="-7.6458749771118">
        <ele>500</ele>
        <time>2019-09-11T10:36:09+00:00</time>
      </trkpt>
      <trkpt lat="43.316913604736" lon="-7.6458930969238">
        <ele>500</ele>
        <time>2019-09-11T10:36:10+00:00</time>
      </trkpt>
      <trkpt lat="43.316913604736" lon="-7.6459064483643">
        <ele>500</ele>
        <time>2019-09-11T10:36:11+00:00</time>
      </trkpt>
      <trkpt lat="43.316913604736" lon="-7.6459197998047">
        <ele>500</ele>
        <time>2019-09-11T10:36:12+00:00</time>
      </trkpt>
      <trkpt lat="43.316913604736" lon="-7.6459331512451">
        <ele>500</ele>
        <time>2019-09-11T10:36:13+00:00</time>
      </trkpt>
      <trkpt lat="43.316917419434" lon="-7.6459484100342">
        <ele>500</ele>
        <time>2019-09-11T10:36:14+00:00</time>
      </trkpt>
      <trkpt lat="43.316921234131" lon="-7.6459698677063">
        <ele>500</ele>
        <time>2019-09-11T10:36:15+00:00</time>
      </trkpt>
      <trkpt lat="43.316921234131" lon="-7.6459851264954">
        <ele>500</ele>
        <time>2019-09-11T10:36:16+00:00</time>
      </trkpt>
      <trkpt lat="43.316921234131" lon="-7.6459999084473">
        <ele>500</ele>
        <time>2019-09-11T10:36:17+00:00</time>
      </trkpt>
      <trkpt lat="43.316925048828" lon="-7.6460151672363">
        <ele>500</ele>
        <time>2019-09-11T10:36:18+00:00</time>
      </trkpt>
      <trkpt lat="43.316925048828" lon="-7.646023273468">
        <ele>500</ele>
        <time>2019-09-11T10:36:19+00:00</time>
      </trkpt>
      <trkpt lat="43.316925048828" lon="-7.6460318565369">
        <ele>500</ele>
        <time>2019-09-11T10:36:20+00:00</time>
      </trkpt>
      <trkpt lat="43.316917419434" lon="-7.6460418701172">
        <ele>500</ele>
        <time>2019-09-11T10:36:21+00:00</time>
      </trkpt>
      <trkpt lat="43.316913604736" lon="-7.646053314209">
        <ele>500</ele>
        <time>2019-09-11T10:36:22+00:00</time>
      </trkpt>
      <trkpt lat="43.316917419434" lon="-7.6460666656494">
        <ele>500</ele>
        <time>2019-09-11T10:36:23+00:00</time>
      </trkpt>
      <trkpt lat="43.316917419434" lon="-7.64608335495">
        <ele>500</ele>
        <time>2019-09-11T10:36:24+00:00</time>
      </trkpt>
      <trkpt lat="43.316917419434" lon="-7.6460947990417">
        <ele>500</ele>
        <time>2019-09-11T10:36:25+00:00</time>
      </trkpt>
      <trkpt lat="43.316921234131" lon="-7.6461100578308">
        <ele>500</ele>
        <time>2019-09-11T10:36:26+00:00</time>
      </trkpt>
      <trkpt lat="43.316921234131" lon="-7.6461281776428">
        <ele>500</ele>
        <time>2019-09-11T10:36:27+00:00</time>
      </trkpt>
      <trkpt lat="43.316921234131" lon="-7.6461448669434">
        <ele>500</ele>
        <time>2019-09-11T10:36:28+00:00</time>
      </trkpt>
      <trkpt lat="43.316925048828" lon="-7.6461615562439">
        <ele>500</ele>
        <time>2019-09-11T10:36:29+00:00</time>
      </trkpt>
      <trkpt lat="43.316925048828" lon="-7.6461782455444">
        <ele>500</ele>
        <time>2019-09-11T10:36:30+00:00</time>
      </trkpt>
      <trkpt lat="43.316928863525" lon="-7.6461915969849">
        <ele>500</ele>
        <time>2019-09-11T10:36:31+00:00</time>
      </trkpt>
      <trkpt lat="43.316932678223" lon="-7.6462016105652">
        <ele>500</ele>
        <time>2019-09-11T10:36:32+00:00</time>
      </trkpt>
      <trkpt lat="43.31693649292" lon="-7.6462035179138">
        <ele>500</ele>
        <time>2019-09-11T10:36:33+00:00</time>
      </trkpt>
      <trkpt lat="43.31693649292" lon="-7.6462135314941">
        <ele>500</ele>
        <time>2019-09-11T10:36:34+00:00</time>
      </trkpt>
      <trkpt lat="43.316944122314" lon="-7.6462249755859">
        <ele>500</ele>
        <time>2019-09-11T10:36:35+00:00</time>
      </trkpt>
      <trkpt lat="43.316944122314" lon="-7.6462450027466">
        <ele>500</ele>
        <time>2019-09-11T10:36:36+00:00</time>
      </trkpt>
      <trkpt lat="43.316955566406" lon="-7.6462631225586">
        <ele>500</ele>
        <time>2019-09-11T10:36:37+00:00</time>
      </trkpt>
      <trkpt lat="43.316959381104" lon="-7.6462750434875">
        <ele>500</ele>
        <time>2019-09-11T10:36:38+00:00</time>
      </trkpt>
      <trkpt lat="43.316963195801" lon="-7.6462998390198">
        <ele>500</ele>
        <time>2019-09-11T10:36:39+00:00</time>
      </trkpt>
      <trkpt lat="43.316967010498" lon="-7.6463198661804">
        <ele>500</ele>
        <time>2019-09-11T10:36:40+00:00</time>
      </trkpt>
      <trkpt lat="43.316970825195" lon="-7.6463384628296">
        <ele>500</ele>
        <time>2019-09-11T10:36:41+00:00</time>
      </trkpt>
      <trkpt lat="43.316970825195" lon="-7.6463484764099">
        <ele>501</ele>
        <time>2019-09-11T10:36:42+00:00</time>
      </trkpt>
      <trkpt lat="43.316970825195" lon="-7.6463599205017">
        <ele>501</ele>
        <time>2019-09-11T10:36:43+00:00</time>
      </trkpt>
      <trkpt lat="43.316986083984" lon="-7.6463766098022">
        <ele>501</ele>
        <time>2019-09-11T10:36:44+00:00</time>
      </trkpt>
      <trkpt lat="43.316997528076" lon="-7.6463952064514">
        <ele>501</ele>
        <time>2019-09-11T10:36:45+00:00</time>
      </trkpt>
      <trkpt lat="43.317005157471" lon="-7.6464099884033">
        <ele>500</ele>
        <time>2019-09-11T10:36:46+00:00</time>
      </trkpt>
      <trkpt lat="43.317016601562" lon="-7.6464266777039">
        <ele>500</ele>
        <time>2019-09-11T10:36:47+00:00</time>
      </trkpt>
      <trkpt lat="43.317024230957" lon="-7.6464400291443">
        <ele>500</ele>
        <time>2019-09-11T10:36:48+00:00</time>
      </trkpt>
      <trkpt lat="43.317035675049" lon="-7.6464533805847">
        <ele>500</ele>
        <time>2019-09-11T10:36:49+00:00</time>
      </trkpt>
      <trkpt lat="43.317039489746" lon="-7.646463394165">
        <ele>500</ele>
        <time>2019-09-11T10:36:50+00:00</time>
      </trkpt>
      <trkpt lat="43.317043304443" lon="-7.6464767456055">
        <ele>500</ele>
        <time>2019-09-11T10:36:51+00:00</time>
      </trkpt>
      <trkpt lat="43.317054748535" lon="-7.6464948654175">
        <ele>500</ele>
        <time>2019-09-11T10:36:52+00:00</time>
      </trkpt>
      <trkpt lat="43.31706237793" lon="-7.6465101242065">
        <ele>500</ele>
        <time>2019-09-11T10:36:53+00:00</time>
      </trkpt>
      <trkpt lat="43.31706237793" lon="-7.6465249061584">
        <ele>500</ele>
        <time>2019-09-11T10:36:54+00:00</time>
      </trkpt>
      <trkpt lat="43.317073822021" lon="-7.6465435028076">
        <ele>500</ele>
        <time>2019-09-11T10:36:55+00:00</time>
      </trkpt>
      <trkpt lat="43.317081451416" lon="-7.6465682983398">
        <ele>500</ele>
        <time>2019-09-11T10:36:56+00:00</time>
      </trkpt>
      <trkpt lat="43.317096710205" lon="-7.6465950012207">
        <ele>500</ele>
        <time>2019-09-11T10:36:57+00:00</time>
      </trkpt>
      <trkpt lat="43.317096710205" lon="-7.6466097831726">
        <ele>500</ele>
        <time>2019-09-11T10:36:58+00:00</time>
      </trkpt>
      <trkpt lat="43.3171043396" lon="-7.6466250419617">
        <ele>500</ele>
        <time>2019-09-11T10:36:59+00:00</time>
      </trkpt>
      <trkpt lat="43.317108154297" lon="-7.6466431617737">
        <ele>500</ele>
        <time>2019-09-11T10:37:00+00:00</time>
      </trkpt>
      <trkpt lat="43.317111968994" lon="-7.6466584205627">
        <ele>500</ele>
        <time>2019-09-11T10:37:01+00:00</time>
      </trkpt>
      <trkpt lat="43.317111968994" lon="-7.6466798782349">
        <ele>500</ele>
        <time>2019-09-11T10:37:02+00:00</time>
      </trkpt>
      <trkpt lat="43.317115783691" lon="-7.6466965675354">
        <ele>500</ele>
        <time>2019-09-11T10:37:03+00:00</time>
      </trkpt>
      <trkpt lat="43.317115783691" lon="-7.6467185020447">
        <ele>499</ele>
        <time>2019-09-11T10:37:04+00:00</time>
      </trkpt>
      <trkpt lat="43.317108154297" lon="-7.6467351913452">
        <ele>499</ele>
        <time>2019-09-11T10:37:05+00:00</time>
      </trkpt>
      <trkpt lat="43.317108154297" lon="-7.646746635437">
        <ele>499</ele>
        <time>2019-09-11T10:37:06+00:00</time>
      </trkpt>
      <trkpt lat="43.3171043396" lon="-7.6467599868774">
        <ele>499</ele>
        <time>2019-09-11T10:37:07+00:00</time>
      </trkpt>
      <trkpt lat="43.3171043396" lon="-7.646776676178">
        <ele>498</ele>
        <time>2019-09-11T10:37:08+00:00</time>
      </trkpt>
      <trkpt lat="43.3171043396" lon="-7.6467900276184">
        <ele>498</ele>
        <time>2019-09-11T10:37:09+00:00</time>
      </trkpt>
      <trkpt lat="43.317100524902" lon="-7.6468033790588">
        <ele>498</ele>
        <time>2019-09-11T10:37:10+00:00</time>
      </trkpt>
      <trkpt lat="43.317100524902" lon="-7.6468167304993">
        <ele>497</ele>
        <time>2019-09-11T10:37:11+00:00</time>
      </trkpt>
      <trkpt lat="43.317100524902" lon="-7.6468300819397">
        <ele>497</ele>
        <time>2019-09-11T10:37:12+00:00</time>
      </trkpt>
      <trkpt lat="43.3171043396" lon="-7.64684009552">
        <ele>497</ele>
        <time>2019-09-11T10:37:13+00:00</time>
      </trkpt>
      <trkpt lat="43.317108154297" lon="-7.6468548774719">
        <ele>496</ele>
        <time>2019-09-11T10:37:14+00:00</time>
      </trkpt>
      <trkpt lat="43.317111968994" lon="-7.6468715667725">
        <ele>496</ele>
        <time>2019-09-11T10:37:15+00:00</time>
      </trkpt>
      <trkpt lat="43.317119598389" lon="-7.6468849182129">
        <ele>496</ele>
        <time>2019-09-11T10:37:16+00:00</time>
      </trkpt>
      <trkpt lat="43.317123413086" lon="-7.6469035148621">
        <ele>496</ele>
        <time>2019-09-11T10:37:17+00:00</time>
      </trkpt>
      <trkpt lat="43.317123413086" lon="-7.6469202041626">
        <ele>496</ele>
        <time>2019-09-11T10:37:18+00:00</time>
      </trkpt>
      <trkpt lat="43.317127227783" lon="-7.6469383239746">
        <ele>496</ele>
        <time>2019-09-11T10:37:19+00:00</time>
      </trkpt>
      <trkpt lat="43.317127227783" lon="-7.6469550132751">
        <ele>496</ele>
        <time>2019-09-11T10:37:20+00:00</time>
      </trkpt>
      <trkpt lat="43.317127227783" lon="-7.6469731330872">
        <ele>496</ele>
        <time>2019-09-11T10:37:21+00:00</time>
      </trkpt>
      <trkpt lat="43.317127227783" lon="-7.6469917297363">
        <ele>496</ele>
        <time>2019-09-11T10:37:22+00:00</time>
      </trkpt>
      <trkpt lat="43.317123413086" lon="-7.6470031738281">
        <ele>496</ele>
        <time>2019-09-11T10:37:23+00:00</time>
      </trkpt>
      <trkpt lat="43.317119598389" lon="-7.6470165252686">
        <ele>495</ele>
        <time>2019-09-11T10:37:24+00:00</time>
      </trkpt>
      <trkpt lat="43.317115783691" lon="-7.6470265388489">
        <ele>495</ele>
        <time>2019-09-11T10:37:25+00:00</time>
      </trkpt>
      <trkpt lat="43.317108154297" lon="-7.6470432281494">
        <ele>495</ele>
        <time>2019-09-11T10:37:26+00:00</time>
      </trkpt>
      <trkpt lat="43.317096710205" lon="-7.6470532417297">
        <ele>495</ele>
        <time>2019-09-11T10:37:27+00:00</time>
      </trkpt>
      <trkpt lat="43.317085266113" lon="-7.6470618247986">
        <ele>495</ele>
        <time>2019-09-11T10:37:28+00:00</time>
      </trkpt>
      <trkpt lat="43.317073822021" lon="-7.6470732688904">
        <ele>494</ele>
        <time>2019-09-11T10:37:29+00:00</time>
      </trkpt>
      <trkpt lat="43.31706237793" lon="-7.6470832824707">
        <ele>494</ele>
        <time>2019-09-11T10:37:30+00:00</time>
      </trkpt>
      <trkpt lat="43.317050933838" lon="-7.6470918655396">
        <ele>494</ele>
        <time>2019-09-11T10:37:31+00:00</time>
      </trkpt>
      <trkpt lat="43.317043304443" lon="-7.6470999717712">
        <ele>494</ele>
        <time>2019-09-11T10:37:32+00:00</time>
      </trkpt>
      <trkpt lat="43.317035675049" lon="-7.6471099853516">
        <ele>494</ele>
        <time>2019-09-11T10:37:33+00:00</time>
      </trkpt>
      <trkpt lat="43.317031860352" lon="-7.6471185684204">
        <ele>494</ele>
        <time>2019-09-11T10:37:34+00:00</time>
      </trkpt>
      <trkpt lat="43.31702041626" lon="-7.6471300125122">
        <ele>494</ele>
        <time>2019-09-11T10:37:35+00:00</time>
      </trkpt>
      <trkpt lat="43.317008972168" lon="-7.6471433639526">
        <ele>494</ele>
        <time>2019-09-11T10:37:36+00:00</time>
      </trkpt>
      <trkpt lat="43.316997528076" lon="-7.647153377533">
        <ele>494</ele>
        <time>2019-09-11T10:37:37+00:00</time>
      </trkpt>
      <trkpt lat="43.316986083984" lon="-7.6471633911133">
        <ele>494</ele>
        <time>2019-09-11T10:37:38+00:00</time>
      </trkpt>
      <trkpt lat="43.31697845459" lon="-7.6471767425537">
        <ele>494</ele>
        <time>2019-09-11T10:37:39+00:00</time>
      </trkpt>
      <trkpt lat="43.316970825195" lon="-7.647186756134">
        <ele>493</ele>
        <time>2019-09-11T10:37:40+00:00</time>
      </trkpt>
      <trkpt lat="43.316963195801" lon="-7.6471982002258">
        <ele>493</ele>
        <time>2019-09-11T10:37:41+00:00</time>
      </trkpt>
      <trkpt lat="43.316951751709" lon="-7.6472082138062">
        <ele>493</ele>
        <time>2019-09-11T10:37:42+00:00</time>
      </trkpt>
      <trkpt lat="43.316940307617" lon="-7.6472201347351">
        <ele>493</ele>
        <time>2019-09-11T10:37:43+00:00</time>
      </trkpt>
      <trkpt lat="43.316932678223" lon="-7.6472315788269">
        <ele>493</ele>
        <time>2019-09-11T10:37:44+00:00</time>
      </trkpt>
      <trkpt lat="43.316917419434" lon="-7.6472449302673">
        <ele>493</ele>
        <time>2019-09-11T10:37:45+00:00</time>
      </trkpt>
      <trkpt lat="43.316905975342" lon="-7.6472568511963">
        <ele>492</ele>
        <time>2019-09-11T10:37:46+00:00</time>
      </trkpt>
      <trkpt lat="43.316898345947" lon="-7.6472668647766">
        <ele>492</ele>
        <time>2019-09-11T10:37:47+00:00</time>
      </trkpt>
      <trkpt lat="43.316886901855" lon="-7.6472735404968">
        <ele>492</ele>
        <time>2019-09-11T10:37:48+00:00</time>
      </trkpt>
      <trkpt lat="43.316879272461" lon="-7.647280216217">
        <ele>492</ele>
        <time>2019-09-11T10:37:49+00:00</time>
      </trkpt>
      <trkpt lat="43.316875457764" lon="-7.6472883224487">
        <ele>491</ele>
        <time>2019-09-11T10:37:50+00:00</time>
      </trkpt>
      <trkpt lat="43.316867828369" lon="-7.6472935676575">
        <ele>491</ele>
        <time>2019-09-11T10:37:51+00:00</time>
      </trkpt>
      <trkpt lat="43.316860198975" lon="-7.6473016738892">
        <ele>491</ele>
        <time>2019-09-11T10:37:52+00:00</time>
      </trkpt>
      <trkpt lat="43.31685256958" lon="-7.6473097801208">
        <ele>490</ele>
        <time>2019-09-11T10:37:53+00:00</time>
      </trkpt>
      <trkpt lat="43.316837310791" lon="-7.6473183631897">
        <ele>490</ele>
        <time>2019-09-11T10:37:54+00:00</time>
      </trkpt>
      <trkpt lat="43.316829681396" lon="-7.6473250389099">
        <ele>489</ele>
        <time>2019-09-11T10:37:55+00:00</time>
      </trkpt>
      <trkpt lat="43.316822052002" lon="-7.6473364830017">
        <ele>489</ele>
        <time>2019-09-11T10:37:56+00:00</time>
      </trkpt>
      <trkpt lat="43.316814422607" lon="-7.647346496582">
        <ele>489</ele>
        <time>2019-09-11T10:37:57+00:00</time>
      </trkpt>
      <trkpt lat="43.316802978516" lon="-7.6473531723022">
        <ele>489</ele>
        <time>2019-09-11T10:37:58+00:00</time>
      </trkpt>
      <trkpt lat="43.316795349121" lon="-7.6473617553711">
        <ele>489</ele>
        <time>2019-09-11T10:37:59+00:00</time>
      </trkpt>
      <trkpt lat="43.316787719727" lon="-7.6473731994629">
        <ele>490</ele>
        <time>2019-09-11T10:38:00+00:00</time>
      </trkpt>
      <trkpt lat="43.316780090332" lon="-7.6473832130432">
        <ele>490</ele>
        <time>2019-09-11T10:38:01+00:00</time>
      </trkpt>
      <trkpt lat="43.316772460938" lon="-7.6473951339722">
        <ele>490</ele>
        <time>2019-09-11T10:38:02+00:00</time>
      </trkpt>
      <trkpt lat="43.316764831543" lon="-7.6474084854126">
        <ele>490</ele>
        <time>2019-09-11T10:38:03+00:00</time>
      </trkpt>
      <trkpt lat="43.316753387451" lon="-7.647421836853">
        <ele>490</ele>
        <time>2019-09-11T10:38:04+00:00</time>
      </trkpt>
      <trkpt lat="43.316745758057" lon="-7.6474332809448">
        <ele>490</ele>
        <time>2019-09-11T10:38:05+00:00</time>
      </trkpt>
      <trkpt lat="43.316738128662" lon="-7.6474485397339">
        <ele>491</ele>
        <time>2019-09-11T10:38:06+00:00</time>
      </trkpt>
      <trkpt lat="43.31672668457" lon="-7.6474599838257">
        <ele>491</ele>
        <time>2019-09-11T10:38:07+00:00</time>
      </trkpt>
      <trkpt lat="43.316719055176" lon="-7.6474719047546">
        <ele>491</ele>
        <time>2019-09-11T10:38:08+00:00</time>
      </trkpt>
      <trkpt lat="43.316711425781" lon="-7.6474833488464">
        <ele>491</ele>
        <time>2019-09-11T10:38:09+00:00</time>
      </trkpt>
      <trkpt lat="43.316703796387" lon="-7.6474933624268">
        <ele>491</ele>
        <time>2019-09-11T10:38:10+00:00</time>
      </trkpt>
      <trkpt lat="43.316699981689" lon="-7.6474967002869">
        <ele>491</ele>
        <time>2019-09-11T10:38:11+00:00</time>
      </trkpt>
      <trkpt lat="43.316696166992" lon="-7.6475014686584">
        <ele>491</ele>
        <time>2019-09-11T10:38:12+00:00</time>
      </trkpt>
      <trkpt lat="43.316688537598" lon="-7.6475081443787">
        <ele>491</ele>
        <time>2019-09-11T10:38:13+00:00</time>
      </trkpt>
      <trkpt lat="43.316673278809" lon="-7.647533416748">
        <ele>491</ele>
        <time>2019-09-11T10:38:14+00:00</time>
      </trkpt>
      <trkpt lat="43.316669464111" lon="-7.6475415229797">
        <ele>491</ele>
        <time>2019-09-11T10:38:15+00:00</time>
      </trkpt>
      <trkpt lat="43.316665649414" lon="-7.6475481987">
        <ele>492</ele>
        <time>2019-09-11T10:38:16+00:00</time>
      </trkpt>
      <trkpt lat="43.31665802002" lon="-7.6475615501404">
        <ele>492</ele>
        <time>2019-09-11T10:38:17+00:00</time>
      </trkpt>
      <trkpt lat="43.316654205322" lon="-7.6475734710693">
        <ele>492</ele>
        <time>2019-09-11T10:38:18+00:00</time>
      </trkpt>
      <trkpt lat="43.316646575928" lon="-7.647581577301">
        <ele>492</ele>
        <time>2019-09-11T10:38:19+00:00</time>
      </trkpt>
      <trkpt lat="43.316638946533" lon="-7.6475868225098">
        <ele>492</ele>
        <time>2019-09-11T10:38:20+00:00</time>
      </trkpt>
      <trkpt lat="43.316631317139" lon="-7.6475949287415">
        <ele>492</ele>
        <time>2019-09-11T10:38:21+00:00</time>
      </trkpt>
      <trkpt lat="43.316619873047" lon="-7.6476016044617">
        <ele>492</ele>
        <time>2019-09-11T10:38:22+00:00</time>
      </trkpt>
      <trkpt lat="43.316608428955" lon="-7.6476202011108">
        <ele>493</ele>
        <time>2019-09-11T10:38:23+00:00</time>
      </trkpt>
      <trkpt lat="43.316600799561" lon="-7.6476349830627">
        <ele>493</ele>
        <time>2019-09-11T10:38:24+00:00</time>
      </trkpt>
      <trkpt lat="43.316589355469" lon="-7.6476497650146">
        <ele>493</ele>
        <time>2019-09-11T10:38:25+00:00</time>
      </trkpt>
      <trkpt lat="43.316577911377" lon="-7.6476631164551">
        <ele>493</ele>
        <time>2019-09-11T10:38:26+00:00</time>
      </trkpt>
      <trkpt lat="43.316566467285" lon="-7.647675037384">
        <ele>493</ele>
        <time>2019-09-11T10:38:27+00:00</time>
      </trkpt>
      <trkpt lat="43.316558837891" lon="-7.6476898193359">
        <ele>493</ele>
        <time>2019-09-11T10:38:28+00:00</time>
      </trkpt>
      <trkpt lat="43.316551208496" lon="-7.6476998329163">
        <ele>493</ele>
        <time>2019-09-11T10:38:29+00:00</time>
      </trkpt>
      <trkpt lat="43.316543579102" lon="-7.6477084159851">
        <ele>493</ele>
        <time>2019-09-11T10:38:30+00:00</time>
      </trkpt>
      <trkpt lat="43.316535949707" lon="-7.6477165222168">
        <ele>494</ele>
        <time>2019-09-11T10:38:31+00:00</time>
      </trkpt>
      <trkpt lat="43.316528320312" lon="-7.6477251052856">
        <ele>494</ele>
        <time>2019-09-11T10:38:32+00:00</time>
      </trkpt>
      <trkpt lat="43.316516876221" lon="-7.6477284431458">
        <ele>494</ele>
        <time>2019-09-11T10:38:33+00:00</time>
      </trkpt>
      <trkpt lat="43.316505432129" lon="-7.6477332115173">
        <ele>494</ele>
        <time>2019-09-11T10:38:34+00:00</time>
      </trkpt>
      <trkpt lat="43.316493988037" lon="-7.6477451324463">
        <ele>494</ele>
        <time>2019-09-11T10:38:35+00:00</time>
      </trkpt>
      <trkpt lat="43.316486358643" lon="-7.6477551460266">
        <ele>495</ele>
        <time>2019-09-11T10:38:36+00:00</time>
      </trkpt>
      <trkpt lat="43.316474914551" lon="-7.647768497467">
        <ele>495</ele>
        <time>2019-09-11T10:38:37+00:00</time>
      </trkpt>
      <trkpt lat="43.316463470459" lon="-7.6477766036987">
        <ele>495</ele>
        <time>2019-09-11T10:38:38+00:00</time>
      </trkpt>
      <trkpt lat="43.31644821167" lon="-7.6477851867676">
        <ele>495</ele>
        <time>2019-09-11T10:38:39+00:00</time>
      </trkpt>
      <trkpt lat="43.316436767578" lon="-7.6477932929993">
        <ele>495</ele>
        <time>2019-09-11T10:38:40+00:00</time>
      </trkpt>
      <trkpt lat="43.316429138184" lon="-7.647798538208">
        <ele>495</ele>
        <time>2019-09-11T10:38:41+00:00</time>
      </trkpt>
      <trkpt lat="43.316421508789" lon="-7.6478085517883">
        <ele>495</ele>
        <time>2019-09-11T10:38:42+00:00</time>
      </trkpt>
      <trkpt lat="43.316410064697" lon="-7.6478118896484">
        <ele>496</ele>
        <time>2019-09-11T10:38:43+00:00</time>
      </trkpt>
      <trkpt lat="43.316394805908" lon="-7.6478199958801">
        <ele>496</ele>
        <time>2019-09-11T10:38:44+00:00</time>
      </trkpt>
      <trkpt lat="43.316383361816" lon="-7.6478233337402">
        <ele>496</ele>
        <time>2019-09-11T10:38:45+00:00</time>
      </trkpt>
      <trkpt lat="43.316371917725" lon="-7.6478300094604">
        <ele>496</ele>
        <time>2019-09-11T10:38:46+00:00</time>
      </trkpt>
      <trkpt lat="43.316360473633" lon="-7.647834777832">
        <ele>496</ele>
        <time>2019-09-11T10:38:47+00:00</time>
      </trkpt>
      <trkpt lat="43.316349029541" lon="-7.6478447914124">
        <ele>496</ele>
        <time>2019-09-11T10:38:48+00:00</time>
      </trkpt>
      <trkpt lat="43.316337585449" lon="-7.6478514671326">
        <ele>496</ele>
        <time>2019-09-11T10:38:49+00:00</time>
      </trkpt>
      <trkpt lat="43.316326141357" lon="-7.6478581428528">
        <ele>496</ele>
        <time>2019-09-11T10:38:50+00:00</time>
      </trkpt>
      <trkpt lat="43.316318511963" lon="-7.647864818573">
        <ele>496</ele>
        <time>2019-09-11T10:38:51+00:00</time>
      </trkpt>
      <trkpt lat="43.316303253174" lon="-7.6478714942932">
        <ele>496</ele>
        <time>2019-09-11T10:38:52+00:00</time>
      </trkpt>
      <trkpt lat="43.316291809082" lon="-7.6478800773621">
        <ele>496</ele>
        <time>2019-09-11T10:38:53+00:00</time>
      </trkpt>
      <trkpt lat="43.316276550293" lon="-7.6478867530823">
        <ele>496</ele>
        <time>2019-09-11T10:38:54+00:00</time>
      </trkpt>
      <trkpt lat="43.316268920898" lon="-7.647894859314">
        <ele>496</ele>
        <time>2019-09-11T10:38:55+00:00</time>
      </trkpt>
      <trkpt lat="43.316257476807" lon="-7.6479015350342">
        <ele>496</ele>
        <time>2019-09-11T10:38:56+00:00</time>
      </trkpt>
      <trkpt lat="43.316246032715" lon="-7.6479048728943">
        <ele>496</ele>
        <time>2019-09-11T10:38:57+00:00</time>
      </trkpt>
      <trkpt lat="43.31623840332" lon="-7.647910118103">
        <ele>496</ele>
        <time>2019-09-11T10:38:58+00:00</time>
      </trkpt>
      <trkpt lat="43.316223144531" lon="-7.6479182243347">
        <ele>496</ele>
        <time>2019-09-11T10:38:59+00:00</time>
      </trkpt>
      <trkpt lat="43.316211700439" lon="-7.6479249000549">
        <ele>496</ele>
        <time>2019-09-11T10:39:00+00:00</time>
      </trkpt>
      <trkpt lat="43.316200256348" lon="-7.6479349136353">
        <ele>496</ele>
        <time>2019-09-11T10:39:01+00:00</time>
      </trkpt>
      <trkpt lat="43.316192626953" lon="-7.6479449272156">
        <ele>496</ele>
        <time>2019-09-11T10:39:02+00:00</time>
      </trkpt>
      <trkpt lat="43.316181182861" lon="-7.6479568481445">
        <ele>496</ele>
        <time>2019-09-11T10:39:03+00:00</time>
      </trkpt>
      <trkpt lat="43.316173553467" lon="-7.6479601860046">
        <ele>496</ele>
        <time>2019-09-11T10:39:04+00:00</time>
      </trkpt>
      <trkpt lat="43.316162109375" lon="-7.6479682922363">
        <ele>496</ele>
        <time>2019-09-11T10:39:05+00:00</time>
      </trkpt>
      <trkpt lat="43.316150665283" lon="-7.6479735374451">
        <ele>496</ele>
        <time>2019-09-11T10:39:06+00:00</time>
      </trkpt>
      <trkpt lat="43.316139221191" lon="-7.6479783058167">
        <ele>496</ele>
        <time>2019-09-11T10:39:07+00:00</time>
      </trkpt>
      <trkpt lat="43.3161277771" lon="-7.6479835510254">
        <ele>496</ele>
        <time>2019-09-11T10:39:08+00:00</time>
      </trkpt>
      <trkpt lat="43.316116333008" lon="-7.6479849815369">
        <ele>496</ele>
        <time>2019-09-11T10:39:09+00:00</time>
      </trkpt>
      <trkpt lat="43.316104888916" lon="-7.647988319397">
        <ele>496</ele>
        <time>2019-09-11T10:39:10+00:00</time>
      </trkpt>
      <trkpt lat="43.316093444824" lon="-7.6479902267456">
        <ele>496</ele>
        <time>2019-09-11T10:39:11+00:00</time>
      </trkpt>
      <trkpt lat="43.316089630127" lon="-7.6479902267456">
        <ele>496</ele>
        <time>2019-09-11T10:39:12+00:00</time>
      </trkpt>
      <trkpt lat="43.316082000732" lon="-7.6479949951172">
        <ele>496</ele>
        <time>2019-09-11T10:39:13+00:00</time>
      </trkpt>
      <trkpt lat="43.316074371338" lon="-7.6479997634888">
        <ele>496</ele>
        <time>2019-09-11T10:39:14+00:00</time>
      </trkpt>
      <trkpt lat="43.316066741943" lon="-7.648006439209">
        <ele>496</ele>
        <time>2019-09-11T10:39:15+00:00</time>
      </trkpt>
      <trkpt lat="43.316051483154" lon="-7.6480031013489">
        <ele>496</ele>
        <time>2019-09-11T10:39:16+00:00</time>
      </trkpt>
      <trkpt lat="43.316040039062" lon="-7.6480031013489">
        <ele>496</ele>
        <time>2019-09-11T10:39:17+00:00</time>
      </trkpt>
      <trkpt lat="43.316028594971" lon="-7.6480031013489">
        <ele>496</ele>
        <time>2019-09-11T10:39:18+00:00</time>
      </trkpt>
      <trkpt lat="43.316017150879" lon="-7.648006439209">
        <ele>496</ele>
        <time>2019-09-11T10:39:19+00:00</time>
      </trkpt>
      <trkpt lat="43.316005706787" lon="-7.6480097770691">
        <ele>496</ele>
        <time>2019-09-11T10:39:20+00:00</time>
      </trkpt>
      <trkpt lat="43.315990447998" lon="-7.6480097770691">
        <ele>496</ele>
        <time>2019-09-11T10:39:21+00:00</time>
      </trkpt>
      <trkpt lat="43.315975189209" lon="-7.6480083465576">
        <ele>496</ele>
        <time>2019-09-11T10:39:22+00:00</time>
      </trkpt>
      <trkpt lat="43.315967559814" lon="-7.6480050086975">
        <ele>496</ele>
        <time>2019-09-11T10:39:23+00:00</time>
      </trkpt>
      <trkpt lat="43.315956115723" lon="-7.6480083465576">
        <ele>497</ele>
        <time>2019-09-11T10:39:24+00:00</time>
      </trkpt>
      <trkpt lat="43.315944671631" lon="-7.6480083465576">
        <ele>497</ele>
        <time>2019-09-11T10:39:25+00:00</time>
      </trkpt>
      <trkpt lat="43.315933227539" lon="-7.6480150222778">
        <ele>496</ele>
        <time>2019-09-11T10:39:26+00:00</time>
      </trkpt>
      <trkpt lat="43.315925598145" lon="-7.6480250358582">
        <ele>496</ele>
        <time>2019-09-11T10:39:27+00:00</time>
      </trkpt>
      <trkpt lat="43.31591796875" lon="-7.6480317115784">
        <ele>496</ele>
        <time>2019-09-11T10:39:28+00:00</time>
      </trkpt>
      <trkpt lat="43.315906524658" lon="-7.64803647995">
        <ele>496</ele>
        <time>2019-09-11T10:39:29+00:00</time>
      </trkpt>
      <trkpt lat="43.315891265869" lon="-7.6480417251587">
        <ele>496</ele>
        <time>2019-09-11T10:39:30+00:00</time>
      </trkpt>
      <trkpt lat="43.315879821777" lon="-7.6480498313904">
        <ele>496</ele>
        <time>2019-09-11T10:39:31+00:00</time>
      </trkpt>
      <trkpt lat="43.315868377686" lon="-7.6480598449707">
        <ele>496</ele>
        <time>2019-09-11T10:39:32+00:00</time>
      </trkpt>
      <trkpt lat="43.315853118896" lon="-7.6480665206909">
        <ele>496</ele>
        <time>2019-09-11T10:39:33+00:00</time>
      </trkpt>
      <trkpt lat="43.315837860107" lon="-7.6480717658997">
        <ele>496</ele>
        <time>2019-09-11T10:39:34+00:00</time>
      </trkpt>
      <trkpt lat="43.315826416016" lon="-7.6480751037598">
        <ele>496</ele>
        <time>2019-09-11T10:39:35+00:00</time>
      </trkpt>
      <trkpt lat="43.315814971924" lon="-7.6480784416199">
        <ele>496</ele>
        <time>2019-09-11T10:39:36+00:00</time>
      </trkpt>
      <trkpt lat="43.315803527832" lon="-7.64808177948">
        <ele>495</ele>
        <time>2019-09-11T10:39:37+00:00</time>
      </trkpt>
      <trkpt lat="43.315788269043" lon="-7.64808177948">
        <ele>495</ele>
        <time>2019-09-11T10:39:38+00:00</time>
      </trkpt>
      <trkpt lat="43.315780639648" lon="-7.6480851173401">
        <ele>495</ele>
        <time>2019-09-11T10:39:39+00:00</time>
      </trkpt>
      <trkpt lat="43.315769195557" lon="-7.6480832099915">
        <ele>495</ele>
        <time>2019-09-11T10:39:40+00:00</time>
      </trkpt>
      <trkpt lat="43.315757751465" lon="-7.6480865478516">
        <ele>495</ele>
        <time>2019-09-11T10:39:41+00:00</time>
      </trkpt>
      <trkpt lat="43.315746307373" lon="-7.6480917930603">
        <ele>495</ele>
        <time>2019-09-11T10:39:42+00:00</time>
      </trkpt>
      <trkpt lat="43.315734863281" lon="-7.6480932235718">
        <ele>495</ele>
        <time>2019-09-11T10:39:43+00:00</time>
      </trkpt>
      <trkpt lat="43.315719604492" lon="-7.6480984687805">
        <ele>495</ele>
        <time>2019-09-11T10:39:44+00:00</time>
      </trkpt>
      <trkpt lat="43.3157081604" lon="-7.6481018066406">
        <ele>495</ele>
        <time>2019-09-11T10:39:45+00:00</time>
      </trkpt>
      <trkpt lat="43.315696716309" lon="-7.6481018066406">
        <ele>495</ele>
        <time>2019-09-11T10:39:46+00:00</time>
      </trkpt>
      <trkpt lat="43.31568145752" lon="-7.6481051445007">
        <ele>494</ele>
        <time>2019-09-11T10:39:47+00:00</time>
      </trkpt>
      <trkpt lat="43.315673828125" lon="-7.6481099128723">
        <ele>494</ele>
        <time>2019-09-11T10:39:48+00:00</time>
      </trkpt>
      <trkpt lat="43.315662384033" lon="-7.6481151580811">
        <ele>494</ele>
        <time>2019-09-11T10:39:49+00:00</time>
      </trkpt>
      <trkpt lat="43.315650939941" lon="-7.6481165885925">
        <ele>494</ele>
        <time>2019-09-11T10:39:50+00:00</time>
      </trkpt>
      <trkpt lat="43.31563949585" lon="-7.6481184959412">
        <ele>494</ele>
        <time>2019-09-11T10:39:51+00:00</time>
      </trkpt>
      <trkpt lat="43.315631866455" lon="-7.6481199264526">
        <ele>494</ele>
        <time>2019-09-11T10:39:52+00:00</time>
      </trkpt>
      <trkpt lat="43.315620422363" lon="-7.6481266021729">
        <ele>494</ele>
        <time>2019-09-11T10:39:53+00:00</time>
      </trkpt>
      <trkpt lat="43.315608978271" lon="-7.6481385231018">
        <ele>494</ele>
        <time>2019-09-11T10:39:54+00:00</time>
      </trkpt>
      <trkpt lat="43.31559753418" lon="-7.6481499671936">
        <ele>494</ele>
        <time>2019-09-11T10:39:55+00:00</time>
      </trkpt>
      <trkpt lat="43.315589904785" lon="-7.6481585502625">
        <ele>494</ele>
        <time>2019-09-11T10:39:56+00:00</time>
      </trkpt>
      <trkpt lat="43.315578460693" lon="-7.6481685638428">
        <ele>494</ele>
        <time>2019-09-11T10:39:57+00:00</time>
      </trkpt>
      <trkpt lat="43.315563201904" lon="-7.6481781005859">
        <ele>494</ele>
        <time>2019-09-11T10:39:58+00:00</time>
      </trkpt>
      <trkpt lat="43.31555557251" lon="-7.648181438446">
        <ele>494</ele>
        <time>2019-09-11T10:39:59+00:00</time>
      </trkpt>
      <trkpt lat="43.315544128418" lon="-7.648181438446">
        <ele>494</ele>
        <time>2019-09-11T10:40:00+00:00</time>
      </trkpt>
      <trkpt lat="43.315528869629" lon="-7.6481847763062">
        <ele>494</ele>
        <time>2019-09-11T10:40:01+00:00</time>
      </trkpt>
      <trkpt lat="43.315517425537" lon="-7.6481914520264">
        <ele>494</ele>
        <time>2019-09-11T10:40:02+00:00</time>
      </trkpt>
      <trkpt lat="43.315505981445" lon="-7.6482000350952">
        <ele>494</ele>
        <time>2019-09-11T10:40:03+00:00</time>
      </trkpt>
      <trkpt lat="43.315490722656" lon="-7.6482133865356">
        <ele>493</ele>
        <time>2019-09-11T10:40:04+00:00</time>
      </trkpt>
      <trkpt lat="43.315483093262" lon="-7.6482167243958">
        <ele>493</ele>
        <time>2019-09-11T10:40:05+00:00</time>
      </trkpt>
      <trkpt lat="43.315475463867" lon="-7.6482214927673">
        <ele>493</ele>
        <time>2019-09-11T10:40:06+00:00</time>
      </trkpt>
      <trkpt lat="43.315467834473" lon="-7.6482200622559">
        <ele>493</ele>
        <time>2019-09-11T10:40:07+00:00</time>
      </trkpt>
      <trkpt lat="43.315456390381" lon="-7.6482200622559">
        <ele>493</ele>
        <time>2019-09-11T10:40:08+00:00</time>
      </trkpt>
      <trkpt lat="43.315448760986" lon="-7.6482300758362">
        <ele>492</ele>
        <time>2019-09-11T10:40:09+00:00</time>
      </trkpt>
      <trkpt lat="43.315437316895" lon="-7.648241519928">
        <ele>492</ele>
        <time>2019-09-11T10:40:10+00:00</time>
      </trkpt>
      <trkpt lat="43.315425872803" lon="-7.6482515335083">
        <ele>491</ele>
        <time>2019-09-11T10:40:11+00:00</time>
      </trkpt>
      <trkpt lat="43.315414428711" lon="-7.6482615470886">
        <ele>491</ele>
        <time>2019-09-11T10:40:12+00:00</time>
      </trkpt>
      <trkpt lat="43.315414428711" lon="-7.6482748985291">
        <ele>491</ele>
        <time>2019-09-11T10:40:13+00:00</time>
      </trkpt>
      <trkpt lat="43.315406799316" lon="-7.648286819458">
        <ele>490</ele>
        <time>2019-09-11T10:40:14+00:00</time>
      </trkpt>
      <trkpt lat="43.315399169922" lon="-7.6482882499695">
        <ele>490</ele>
        <time>2019-09-11T10:40:15+00:00</time>
      </trkpt>
      <trkpt lat="43.315391540527" lon="-7.6482982635498">
        <ele>490</ele>
        <time>2019-09-11T10:40:16+00:00</time>
      </trkpt>
      <trkpt lat="43.315391540527" lon="-7.6483116149902">
        <ele>490</ele>
        <time>2019-09-11T10:40:17+00:00</time>
      </trkpt>
      <trkpt lat="43.315383911133" lon="-7.6483283042908">
        <ele>490</ele>
        <time>2019-09-11T10:40:18+00:00</time>
      </trkpt>
      <trkpt lat="43.315380096436" lon="-7.6483449935913">
        <ele>490</ele>
        <time>2019-09-11T10:40:19+00:00</time>
      </trkpt>
      <trkpt lat="43.315376281738" lon="-7.6483550071716">
        <ele>489</ele>
        <time>2019-09-11T10:40:20+00:00</time>
      </trkpt>
      <trkpt lat="43.315364837646" lon="-7.6483664512634">
        <ele>489</ele>
        <time>2019-09-11T10:40:21+00:00</time>
      </trkpt>
      <trkpt lat="43.315357208252" lon="-7.6483783721924">
        <ele>489</ele>
        <time>2019-09-11T10:40:22+00:00</time>
      </trkpt>
      <trkpt lat="43.315349578857" lon="-7.6483898162842">
        <ele>489</ele>
        <time>2019-09-11T10:40:23+00:00</time>
      </trkpt>
      <trkpt lat="43.315341949463" lon="-7.6484065055847">
        <ele>489</ele>
        <time>2019-09-11T10:40:24+00:00</time>
      </trkpt>
      <trkpt lat="43.315334320068" lon="-7.6484217643738">
        <ele>489</ele>
        <time>2019-09-11T10:40:25+00:00</time>
      </trkpt>
      <trkpt lat="43.315322875977" lon="-7.6484265327454">
        <ele>489</ele>
        <time>2019-09-11T10:40:26+00:00</time>
      </trkpt>
      <trkpt lat="43.315311431885" lon="-7.648428440094">
        <ele>489</ele>
        <time>2019-09-11T10:40:27+00:00</time>
      </trkpt>
      <trkpt lat="43.31530380249" lon="-7.6484351158142">
        <ele>489</ele>
        <time>2019-09-11T10:40:28+00:00</time>
      </trkpt>
      <trkpt lat="43.315292358398" lon="-7.6484398841858">
        <ele>489</ele>
        <time>2019-09-11T10:40:29+00:00</time>
      </trkpt>
      <trkpt lat="43.315280914307" lon="-7.6484484672546">
        <ele>489</ele>
        <time>2019-09-11T10:40:30+00:00</time>
      </trkpt>
      <trkpt lat="43.315269470215" lon="-7.6484665870667">
        <ele>488</ele>
        <time>2019-09-11T10:40:31+00:00</time>
      </trkpt>
      <trkpt lat="43.31526184082" lon="-7.6484899520874">
        <ele>488</ele>
        <time>2019-09-11T10:40:32+00:00</time>
      </trkpt>
      <trkpt lat="43.315250396729" lon="-7.6484999656677">
        <ele>488</ele>
        <time>2019-09-11T10:40:33+00:00</time>
      </trkpt>
      <trkpt lat="43.315238952637" lon="-7.6485118865967">
        <ele>488</ele>
        <time>2019-09-11T10:40:34+00:00</time>
      </trkpt>
      <trkpt lat="43.315223693848" lon="-7.6485300064087">
        <ele>487</ele>
        <time>2019-09-11T10:40:35+00:00</time>
      </trkpt>
      <trkpt lat="43.31521987915" lon="-7.6485466957092">
        <ele>487</ele>
        <time>2019-09-11T10:40:36+00:00</time>
      </trkpt>
      <trkpt lat="43.315208435059" lon="-7.6485648155212">
        <ele>487</ele>
        <time>2019-09-11T10:40:37+00:00</time>
      </trkpt>
      <trkpt lat="43.315196990967" lon="-7.6485800743103">
        <ele>487</ele>
        <time>2019-09-11T10:40:38+00:00</time>
      </trkpt>
      <trkpt lat="43.315189361572" lon="-7.6485948562622">
        <ele>487</ele>
        <time>2019-09-11T10:40:39+00:00</time>
      </trkpt>
      <trkpt lat="43.315181732178" lon="-7.6486148834229">
        <ele>487</ele>
        <time>2019-09-11T10:40:40+00:00</time>
      </trkpt>
      <trkpt lat="43.315174102783" lon="-7.6486282348633">
        <ele>487</ele>
        <time>2019-09-11T10:40:41+00:00</time>
      </trkpt>
      <trkpt lat="43.315170288086" lon="-7.6486415863037">
        <ele>487</ele>
        <time>2019-09-11T10:40:42+00:00</time>
      </trkpt>
      <trkpt lat="43.315162658691" lon="-7.6486535072327">
        <ele>487</ele>
        <time>2019-09-11T10:40:43+00:00</time>
      </trkpt>
      <trkpt lat="43.315158843994" lon="-7.6486649513245">
        <ele>487</ele>
        <time>2019-09-11T10:40:44+00:00</time>
      </trkpt>
      <trkpt lat="43.3151512146" lon="-7.6486701965332">
        <ele>487</ele>
        <time>2019-09-11T10:40:45+00:00</time>
      </trkpt>
      <trkpt lat="43.315147399902" lon="-7.648681640625">
        <ele>487</ele>
        <time>2019-09-11T10:40:46+00:00</time>
      </trkpt>
      <trkpt lat="43.315139770508" lon="-7.6486902236938">
        <ele>487</ele>
        <time>2019-09-11T10:40:47+00:00</time>
      </trkpt>
      <trkpt lat="43.315139770508" lon="-7.6487016677856">
        <ele>487</ele>
        <time>2019-09-11T10:40:48+00:00</time>
      </trkpt>
      <trkpt lat="43.315135955811" lon="-7.6487083435059">
        <ele>487</ele>
        <time>2019-09-11T10:40:49+00:00</time>
      </trkpt>
      <trkpt lat="43.315132141113" lon="-7.6487216949463">
        <ele>487</ele>
        <time>2019-09-11T10:40:50+00:00</time>
      </trkpt>
      <trkpt lat="43.315128326416" lon="-7.648729801178">
        <ele>487</ele>
        <time>2019-09-11T10:40:51+00:00</time>
      </trkpt>
      <trkpt lat="43.315124511719" lon="-7.6487398147583">
        <ele>487</ele>
        <time>2019-09-11T10:40:52+00:00</time>
      </trkpt>
      <trkpt lat="43.315116882324" lon="-7.6487517356873">
        <ele>487</ele>
        <time>2019-09-11T10:40:53+00:00</time>
      </trkpt>
      <trkpt lat="43.315116882324" lon="-7.6487598419189">
        <ele>486</ele>
        <time>2019-09-11T10:40:54+00:00</time>
      </trkpt>
      <trkpt lat="43.315105438232" lon="-7.6487698554993">
        <ele>486</ele>
        <time>2019-09-11T10:40:55+00:00</time>
      </trkpt>
      <trkpt lat="43.315097808838" lon="-7.6487784385681">
        <ele>486</ele>
        <time>2019-09-11T10:40:56+00:00</time>
      </trkpt>
      <trkpt lat="43.315086364746" lon="-7.6487917900085">
        <ele>486</ele>
        <time>2019-09-11T10:40:57+00:00</time>
      </trkpt>
      <trkpt lat="43.315082550049" lon="-7.6488032341003">
        <ele>486</ele>
        <time>2019-09-11T10:40:58+00:00</time>
      </trkpt>
      <trkpt lat="43.315074920654" lon="-7.6488184928894">
        <ele>486</ele>
        <time>2019-09-11T10:40:59+00:00</time>
      </trkpt>
      <trkpt lat="43.315063476562" lon="-7.6488318443298">
        <ele>486</ele>
        <time>2019-09-11T10:41:00+00:00</time>
      </trkpt>
      <trkpt lat="43.315055847168" lon="-7.6488485336304">
        <ele>486</ele>
        <time>2019-09-11T10:41:01+00:00</time>
      </trkpt>
      <trkpt lat="43.315052032471" lon="-7.6488599777222">
        <ele>486</ele>
        <time>2019-09-11T10:41:02+00:00</time>
      </trkpt>
      <trkpt lat="43.315044403076" lon="-7.6488718986511">
        <ele>486</ele>
        <time>2019-09-11T10:41:03+00:00</time>
      </trkpt>
      <trkpt lat="43.315032958984" lon="-7.6488947868347">
        <ele>486</ele>
        <time>2019-09-11T10:41:04+00:00</time>
      </trkpt>
      <trkpt lat="43.31502532959" lon="-7.6489081382751">
        <ele>486</ele>
        <time>2019-09-11T10:41:05+00:00</time>
      </trkpt>
      <trkpt lat="43.315021514893" lon="-7.6489200592041">
        <ele>486</ele>
        <time>2019-09-11T10:41:06+00:00</time>
      </trkpt>
      <trkpt lat="43.315013885498" lon="-7.6489334106445">
        <ele>486</ele>
        <time>2019-09-11T10:41:07+00:00</time>
      </trkpt>
      <trkpt lat="43.315010070801" lon="-7.6489481925964">
        <ele>486</ele>
        <time>2019-09-11T10:41:08+00:00</time>
      </trkpt>
      <trkpt lat="43.315002441406" lon="-7.648964881897">
        <ele>486</ele>
        <time>2019-09-11T10:41:09+00:00</time>
      </trkpt>
      <trkpt lat="43.314994812012" lon="-7.6489815711975">
        <ele>486</ele>
        <time>2019-09-11T10:41:10+00:00</time>
      </trkpt>
      <trkpt lat="43.314990997314" lon="-7.6489934921265">
        <ele>486</ele>
        <time>2019-09-11T10:41:11+00:00</time>
      </trkpt>
      <trkpt lat="43.314987182617" lon="-7.6490082740784">
        <ele>486</ele>
        <time>2019-09-11T10:41:12+00:00</time>
      </trkpt>
      <trkpt lat="43.31498336792" lon="-7.6490216255188">
        <ele>486</ele>
        <time>2019-09-11T10:41:13+00:00</time>
      </trkpt>
      <trkpt lat="43.314975738525" lon="-7.649028301239">
        <ele>486</ele>
        <time>2019-09-11T10:41:14+00:00</time>
      </trkpt>
      <trkpt lat="43.314968109131" lon="-7.6490383148193">
        <ele>486</ele>
        <time>2019-09-11T10:41:15+00:00</time>
      </trkpt>
      <trkpt lat="43.314956665039" lon="-7.6490449905396">
        <ele>486</ele>
        <time>2019-09-11T10:41:16+00:00</time>
      </trkpt>
      <trkpt lat="43.314952850342" lon="-7.6490516662598">
        <ele>486</ele>
        <time>2019-09-11T10:41:17+00:00</time>
      </trkpt>
      <trkpt lat="43.314945220947" lon="-7.64905834198">
        <ele>486</ele>
        <time>2019-09-11T10:41:18+00:00</time>
      </trkpt>
      <trkpt lat="43.314937591553" lon="-7.6490683555603">
        <ele>486</ele>
        <time>2019-09-11T10:41:19+00:00</time>
      </trkpt>
      <trkpt lat="43.314929962158" lon="-7.6490783691406">
        <ele>486</ele>
        <time>2019-09-11T10:41:20+00:00</time>
      </trkpt>
      <trkpt lat="43.314926147461" lon="-7.6490883827209">
        <ele>486</ele>
        <time>2019-09-11T10:41:21+00:00</time>
      </trkpt>
      <trkpt lat="43.314922332764" lon="-7.6490983963013">
        <ele>485</ele>
        <time>2019-09-11T10:41:22+00:00</time>
      </trkpt>
      <trkpt lat="43.314918518066" lon="-7.649106502533">
        <ele>485</ele>
        <time>2019-09-11T10:41:23+00:00</time>
      </trkpt>
      <trkpt lat="43.314910888672" lon="-7.6491117477417">
        <ele>485</ele>
        <time>2019-09-11T10:41:24+00:00</time>
      </trkpt>
      <trkpt lat="43.314907073975" lon="-7.649121761322">
        <ele>485</ele>
        <time>2019-09-11T10:41:25+00:00</time>
      </trkpt>
      <trkpt lat="43.314895629883" lon="-7.6491298675537">
        <ele>485</ele>
        <time>2019-09-11T10:41:26+00:00</time>
      </trkpt>
      <trkpt lat="43.314888000488" lon="-7.649139881134">
        <ele>485</ele>
        <time>2019-09-11T10:41:27+00:00</time>
      </trkpt>
      <trkpt lat="43.314880371094" lon="-7.6491498947144">
        <ele>485</ele>
        <time>2019-09-11T10:41:28+00:00</time>
      </trkpt>
      <trkpt lat="43.314868927002" lon="-7.6491618156433">
        <ele>485</ele>
        <time>2019-09-11T10:41:29+00:00</time>
      </trkpt>
      <trkpt lat="43.31485748291" lon="-7.6491718292236">
        <ele>485</ele>
        <time>2019-09-11T10:41:30+00:00</time>
      </trkpt>
      <trkpt lat="43.314846038818" lon="-7.6491785049438">
        <ele>485</ele>
        <time>2019-09-11T10:41:31+00:00</time>
      </trkpt>
      <trkpt lat="43.314838409424" lon="-7.6491899490356">
        <ele>485</ele>
        <time>2019-09-11T10:41:32+00:00</time>
      </trkpt>
      <trkpt lat="43.314826965332" lon="-7.6492018699646">
        <ele>485</ele>
        <time>2019-09-11T10:41:33+00:00</time>
      </trkpt>
      <trkpt lat="43.314823150635" lon="-7.6492118835449">
        <ele>485</ele>
        <time>2019-09-11T10:41:34+00:00</time>
      </trkpt>
      <trkpt lat="43.314811706543" lon="-7.6492185592651">
        <ele>485</ele>
        <time>2019-09-11T10:41:35+00:00</time>
      </trkpt>
      <trkpt lat="43.314796447754" lon="-7.6492314338684">
        <ele>485</ele>
        <time>2019-09-11T10:41:36+00:00</time>
      </trkpt>
      <trkpt lat="43.314781188965" lon="-7.6492466926575">
        <ele>485</ele>
        <time>2019-09-11T10:41:37+00:00</time>
      </trkpt>
      <trkpt lat="43.314769744873" lon="-7.6492600440979">
        <ele>485</ele>
        <time>2019-09-11T10:41:38+00:00</time>
      </trkpt>
      <trkpt lat="43.314754486084" lon="-7.6492700576782">
        <ele>485</ele>
        <time>2019-09-11T10:41:39+00:00</time>
      </trkpt>
      <trkpt lat="43.314746856689" lon="-7.6492767333984">
        <ele>485</ele>
        <time>2019-09-11T10:41:40+00:00</time>
      </trkpt>
      <trkpt lat="43.314735412598" lon="-7.6492781639099">
        <ele>485</ele>
        <time>2019-09-11T10:41:41+00:00</time>
      </trkpt>
      <trkpt lat="43.3147315979" lon="-7.6492915153503">
        <ele>485</ele>
        <time>2019-09-11T10:41:42+00:00</time>
      </trkpt>
      <trkpt lat="43.314723968506" lon="-7.6492948532104">
        <ele>485</ele>
        <time>2019-09-11T10:41:43+00:00</time>
      </trkpt>
      <trkpt lat="43.314716339111" lon="-7.6493067741394">
        <ele>485</ele>
        <time>2019-09-11T10:41:44+00:00</time>
      </trkpt>
      <trkpt lat="43.314712524414" lon="-7.6493234634399">
        <ele>485</ele>
        <time>2019-09-11T10:41:45+00:00</time>
      </trkpt>
      <trkpt lat="43.31470489502" lon="-7.6493382453918">
        <ele>486</ele>
        <time>2019-09-11T10:41:46+00:00</time>
      </trkpt>
      <trkpt lat="43.314701080322" lon="-7.6493449211121">
        <ele>486</ele>
        <time>2019-09-11T10:41:47+00:00</time>
      </trkpt>
      <trkpt lat="43.31468963623" lon="-7.6493468284607">
        <ele>486</ele>
        <time>2019-09-11T10:41:48+00:00</time>
      </trkpt>
      <trkpt lat="43.314678192139" lon="-7.6493515968323">
        <ele>486</ele>
        <time>2019-09-11T10:41:49+00:00</time>
      </trkpt>
      <trkpt lat="43.314670562744" lon="-7.6493649482727">
        <ele>486</ele>
        <time>2019-09-11T10:41:50+00:00</time>
      </trkpt>
      <trkpt lat="43.314659118652" lon="-7.6493768692017">
        <ele>486</ele>
        <time>2019-09-11T10:41:51+00:00</time>
      </trkpt>
      <trkpt lat="43.314651489258" lon="-7.6493835449219">
        <ele>486</ele>
        <time>2019-09-11T10:41:52+00:00</time>
      </trkpt>
      <trkpt lat="43.314643859863" lon="-7.6493883132935">
        <ele>486</ele>
        <time>2019-09-11T10:41:53+00:00</time>
      </trkpt>
      <trkpt lat="43.314632415771" lon="-7.6493968963623">
        <ele>486</ele>
        <time>2019-09-11T10:41:54+00:00</time>
      </trkpt>
      <trkpt lat="43.314624786377" lon="-7.6494083404541">
        <ele>486</ele>
        <time>2019-09-11T10:41:55+00:00</time>
      </trkpt>
      <trkpt lat="43.314613342285" lon="-7.6494150161743">
        <ele>486</ele>
        <time>2019-09-11T10:41:56+00:00</time>
      </trkpt>
      <trkpt lat="43.314601898193" lon="-7.6494197845459">
        <ele>486</ele>
        <time>2019-09-11T10:41:57+00:00</time>
      </trkpt>
      <trkpt lat="43.314590454102" lon="-7.6494264602661">
        <ele>486</ele>
        <time>2019-09-11T10:41:58+00:00</time>
      </trkpt>
      <trkpt lat="43.314571380615" lon="-7.6494297981262">
        <ele>485</ele>
        <time>2019-09-11T10:41:59+00:00</time>
      </trkpt>
      <trkpt lat="43.314559936523" lon="-7.6494398117065">
        <ele>485</ele>
        <time>2019-09-11T10:42:00+00:00</time>
      </trkpt>
      <trkpt lat="43.314548492432" lon="-7.6494565010071">
        <ele>485</ele>
        <time>2019-09-11T10:42:01+00:00</time>
      </trkpt>
      <trkpt lat="43.31453704834" lon="-7.6494631767273">
        <ele>485</ele>
        <time>2019-09-11T10:42:02+00:00</time>
      </trkpt>
      <trkpt lat="43.314521789551" lon="-7.6494665145874">
        <ele>485</ele>
        <time>2019-09-11T10:42:03+00:00</time>
      </trkpt>
      <trkpt lat="43.314510345459" lon="-7.6494698524475">
        <ele>485</ele>
        <time>2019-09-11T10:42:04+00:00</time>
      </trkpt>
      <trkpt lat="43.314502716064" lon="-7.6494765281677">
        <ele>485</ele>
        <time>2019-09-11T10:42:05+00:00</time>
      </trkpt>
      <trkpt lat="43.31449508667" lon="-7.6494817733765">
        <ele>485</ele>
        <time>2019-09-11T10:42:06+00:00</time>
      </trkpt>
      <trkpt lat="43.314487457275" lon="-7.649486541748">
        <ele>485</ele>
        <time>2019-09-11T10:42:07+00:00</time>
      </trkpt>
      <trkpt lat="43.314479827881" lon="-7.649498462677">
        <ele>485</ele>
        <time>2019-09-11T10:42:08+00:00</time>
      </trkpt>
      <trkpt lat="43.314468383789" lon="-7.6495032310486">
        <ele>486</ele>
        <time>2019-09-11T10:42:09+00:00</time>
      </trkpt>
      <trkpt lat="43.314456939697" lon="-7.6495151519775">
        <ele>486</ele>
        <time>2019-09-11T10:42:10+00:00</time>
      </trkpt>
      <trkpt lat="43.314445495605" lon="-7.6495318412781">
        <ele>486</ele>
        <time>2019-09-11T10:42:11+00:00</time>
      </trkpt>
      <trkpt lat="43.314434051514" lon="-7.6495485305786">
        <ele>486</ele>
        <time>2019-09-11T10:42:12+00:00</time>
      </trkpt>
      <trkpt lat="43.314426422119" lon="-7.6495652198792">
        <ele>486</ele>
        <time>2019-09-11T10:42:13+00:00</time>
      </trkpt>
      <trkpt lat="43.314422607422" lon="-7.6495814323425">
        <ele>486</ele>
        <time>2019-09-11T10:42:14+00:00</time>
      </trkpt>
      <trkpt lat="43.314414978027" lon="-7.6495900154114">
        <ele>486</ele>
        <time>2019-09-11T10:42:15+00:00</time>
      </trkpt>
      <trkpt lat="43.31441116333" lon="-7.649594783783">
        <ele>486</ele>
        <time>2019-09-11T10:42:16+00:00</time>
      </trkpt>
      <trkpt lat="43.314403533936" lon="-7.6496033668518">
        <ele>486</ele>
        <time>2019-09-11T10:42:17+00:00</time>
      </trkpt>
      <trkpt lat="43.314392089844" lon="-7.6496081352234">
        <ele>486</ele>
        <time>2019-09-11T10:42:18+00:00</time>
      </trkpt>
      <trkpt lat="43.314388275146" lon="-7.6496200561523">
        <ele>486</ele>
        <time>2019-09-11T10:42:19+00:00</time>
      </trkpt>
      <trkpt lat="43.314384460449" lon="-7.6496367454529">
        <ele>486</ele>
        <time>2019-09-11T10:42:20+00:00</time>
      </trkpt>
      <trkpt lat="43.314376831055" lon="-7.6496481895447">
        <ele>486</ele>
        <time>2019-09-11T10:42:21+00:00</time>
      </trkpt>
      <trkpt lat="43.31436920166" lon="-7.6496648788452">
        <ele>487</ele>
        <time>2019-09-11T10:42:22+00:00</time>
      </trkpt>
      <trkpt lat="43.314361572266" lon="-7.6496782302856">
        <ele>487</ele>
        <time>2019-09-11T10:42:23+00:00</time>
      </trkpt>
      <trkpt lat="43.314353942871" lon="-7.6496868133545">
        <ele>487</ele>
        <time>2019-09-11T10:42:24+00:00</time>
      </trkpt>
      <trkpt lat="43.314342498779" lon="-7.6496982574463">
        <ele>487</ele>
        <time>2019-09-11T10:42:25+00:00</time>
      </trkpt>
      <trkpt lat="43.314334869385" lon="-7.6497068405151">
        <ele>487</ele>
        <time>2019-09-11T10:42:26+00:00</time>
      </trkpt>
      <trkpt lat="43.314323425293" lon="-7.6497168540955">
        <ele>487</ele>
        <time>2019-09-11T10:42:27+00:00</time>
      </trkpt>
      <trkpt lat="43.314315795898" lon="-7.6497201919556">
        <ele>487</ele>
        <time>2019-09-11T10:42:28+00:00</time>
      </trkpt>
      <trkpt lat="43.314300537109" lon="-7.6497282981873">
        <ele>487</ele>
        <time>2019-09-11T10:42:29+00:00</time>
      </trkpt>
      <trkpt lat="43.314292907715" lon="-7.6497416496277">
        <ele>487</ele>
        <time>2019-09-11T10:42:30+00:00</time>
      </trkpt>
      <trkpt lat="43.314289093018" lon="-7.6497564315796">
        <ele>488</ele>
        <time>2019-09-11T10:42:31+00:00</time>
      </trkpt>
      <trkpt lat="43.314281463623" lon="-7.64976978302">
        <ele>488</ele>
        <time>2019-09-11T10:42:32+00:00</time>
      </trkpt>
      <trkpt lat="43.314270019531" lon="-7.6497831344604">
        <ele>489</ele>
        <time>2019-09-11T10:42:33+00:00</time>
      </trkpt>
      <trkpt lat="43.314258575439" lon="-7.6497950553894">
        <ele>489</ele>
        <time>2019-09-11T10:42:34+00:00</time>
      </trkpt>
      <trkpt lat="43.314254760742" lon="-7.6498084068298">
        <ele>489</ele>
        <time>2019-09-11T10:42:35+00:00</time>
      </trkpt>
      <trkpt lat="43.314247131348" lon="-7.6498250961304">
        <ele>489</ele>
        <time>2019-09-11T10:42:36+00:00</time>
      </trkpt>
      <trkpt lat="43.31424331665" lon="-7.6498398780823">
        <ele>489</ele>
        <time>2019-09-11T10:42:37+00:00</time>
      </trkpt>
      <trkpt lat="43.314231872559" lon="-7.6498565673828">
        <ele>490</ele>
        <time>2019-09-11T10:42:38+00:00</time>
      </trkpt>
      <trkpt lat="43.314220428467" lon="-7.649875164032">
        <ele>490</ele>
        <time>2019-09-11T10:42:39+00:00</time>
      </trkpt>
      <trkpt lat="43.314208984375" lon="-7.6498866081238">
        <ele>490</ele>
        <time>2019-09-11T10:42:40+00:00</time>
      </trkpt>
      <trkpt lat="43.314205169678" lon="-7.6499032974243">
        <ele>490</ele>
        <time>2019-09-11T10:42:41+00:00</time>
      </trkpt>
      <trkpt lat="43.314197540283" lon="-7.6499166488647">
        <ele>491</ele>
        <time>2019-09-11T10:42:42+00:00</time>
      </trkpt>
      <trkpt lat="43.314189910889" lon="-7.6499314308167">
        <ele>491</ele>
        <time>2019-09-11T10:42:43+00:00</time>
      </trkpt>
      <trkpt lat="43.314178466797" lon="-7.6499466896057">
        <ele>491</ele>
        <time>2019-09-11T10:42:44+00:00</time>
      </trkpt>
      <trkpt lat="43.314167022705" lon="-7.6499581336975">
        <ele>491</ele>
        <time>2019-09-11T10:42:45+00:00</time>
      </trkpt>
      <trkpt lat="43.314155578613" lon="-7.6499714851379">
        <ele>491</ele>
        <time>2019-09-11T10:42:46+00:00</time>
      </trkpt>
      <trkpt lat="43.314147949219" lon="-7.6499834060669">
        <ele>491</ele>
        <time>2019-09-11T10:42:47+00:00</time>
      </trkpt>
      <trkpt lat="43.314136505127" lon="-7.6499967575073">
        <ele>491</ele>
        <time>2019-09-11T10:42:48+00:00</time>
      </trkpt>
      <trkpt lat="43.314128875732" lon="-7.6500067710876">
        <ele>491</ele>
        <time>2019-09-11T10:42:49+00:00</time>
      </trkpt>
      <trkpt lat="43.314121246338" lon="-7.6500148773193">
        <ele>491</ele>
        <time>2019-09-11T10:42:50+00:00</time>
      </trkpt>
      <trkpt lat="43.314113616943" lon="-7.6500201225281">
        <ele>490</ele>
        <time>2019-09-11T10:42:51+00:00</time>
      </trkpt>
      <trkpt lat="43.314105987549" lon="-7.6500248908997">
        <ele>490</ele>
        <time>2019-09-11T10:42:52+00:00</time>
      </trkpt>
      <trkpt lat="43.314098358154" lon="-7.65003490448">
        <ele>490</ele>
        <time>2019-09-11T10:42:53+00:00</time>
      </trkpt>
      <trkpt lat="43.31409072876" lon="-7.6500449180603">
        <ele>490</ele>
        <time>2019-09-11T10:42:54+00:00</time>
      </trkpt>
      <trkpt lat="43.314083099365" lon="-7.6500568389893">
        <ele>490</ele>
        <time>2019-09-11T10:42:55+00:00</time>
      </trkpt>
      <trkpt lat="43.314079284668" lon="-7.6500682830811">
        <ele>490</ele>
        <time>2019-09-11T10:42:56+00:00</time>
      </trkpt>
      <trkpt lat="43.314071655273" lon="-7.6500782966614">
        <ele>491</ele>
        <time>2019-09-11T10:42:57+00:00</time>
      </trkpt>
      <trkpt lat="43.314064025879" lon="-7.65008020401">
        <ele>491</ele>
        <time>2019-09-11T10:42:58+00:00</time>
      </trkpt>
      <trkpt lat="43.314060211182" lon="-7.6500849723816">
        <ele>490</ele>
        <time>2019-09-11T10:42:59+00:00</time>
      </trkpt>
      <trkpt lat="43.31404876709" lon="-7.6500916481018">
        <ele>490</ele>
        <time>2019-09-11T10:43:00+00:00</time>
      </trkpt>
      <trkpt lat="43.314037322998" lon="-7.6501002311707">
        <ele>490</ele>
        <time>2019-09-11T10:43:01+00:00</time>
      </trkpt>
      <trkpt lat="43.314029693604" lon="-7.6501116752625">
        <ele>490</ele>
        <time>2019-09-11T10:43:02+00:00</time>
      </trkpt>
      <trkpt lat="43.314022064209" lon="-7.6501231193542">
        <ele>489</ele>
        <time>2019-09-11T10:43:03+00:00</time>
      </trkpt>
      <trkpt lat="43.314018249512" lon="-7.6501350402832">
        <ele>489</ele>
        <time>2019-09-11T10:43:04+00:00</time>
      </trkpt>
      <trkpt lat="43.31400680542" lon="-7.6501450538635">
        <ele>489</ele>
        <time>2019-09-11T10:43:05+00:00</time>
      </trkpt>
      <trkpt lat="43.313999176025" lon="-7.6501550674438">
        <ele>489</ele>
        <time>2019-09-11T10:43:06+00:00</time>
      </trkpt>
      <trkpt lat="43.313991546631" lon="-7.6501665115356">
        <ele>488</ele>
        <time>2019-09-11T10:43:07+00:00</time>
      </trkpt>
      <trkpt lat="43.313980102539" lon="-7.6501798629761">
        <ele>488</ele>
        <time>2019-09-11T10:43:08+00:00</time>
      </trkpt>
      <trkpt lat="43.31396484375" lon="-7.6501932144165">
        <ele>488</ele>
        <time>2019-09-11T10:43:09+00:00</time>
      </trkpt>
      <trkpt lat="43.313953399658" lon="-7.6502051353455">
        <ele>487</ele>
        <time>2019-09-11T10:43:10+00:00</time>
      </trkpt>
      <trkpt lat="43.313945770264" lon="-7.6502132415771">
        <ele>487</ele>
        <time>2019-09-11T10:43:11+00:00</time>
      </trkpt>
      <trkpt lat="43.313934326172" lon="-7.6502184867859">
        <ele>487</ele>
        <time>2019-09-11T10:43:12+00:00</time>
      </trkpt>
      <trkpt lat="43.313926696777" lon="-7.6502265930176">
        <ele>486</ele>
        <time>2019-09-11T10:43:13+00:00</time>
      </trkpt>
      <trkpt lat="43.313915252686" lon="-7.6502332687378">
        <ele>486</ele>
        <time>2019-09-11T10:43:14+00:00</time>
      </trkpt>
      <trkpt lat="43.313907623291" lon="-7.6502466201782">
        <ele>486</ele>
        <time>2019-09-11T10:43:15+00:00</time>
      </trkpt>
      <trkpt lat="43.313903808594" lon="-7.6502599716187">
        <ele>486</ele>
        <time>2019-09-11T10:43:16+00:00</time>
      </trkpt>
      <trkpt lat="43.313896179199" lon="-7.6502733230591">
        <ele>486</ele>
        <time>2019-09-11T10:43:17+00:00</time>
      </trkpt>
      <trkpt lat="43.313892364502" lon="-7.6502833366394">
        <ele>485</ele>
        <time>2019-09-11T10:43:18+00:00</time>
      </trkpt>
      <trkpt lat="43.313884735107" lon="-7.6502914428711">
        <ele>485</ele>
        <time>2019-09-11T10:43:19+00:00</time>
      </trkpt>
      <trkpt lat="43.31388092041" lon="-7.6503033638">
        <ele>485</ele>
        <time>2019-09-11T10:43:20+00:00</time>
      </trkpt>
      <trkpt lat="43.313869476318" lon="-7.650318145752">
        <ele>485</ele>
        <time>2019-09-11T10:43:21+00:00</time>
      </trkpt>
      <trkpt lat="43.313858032227" lon="-7.650333404541">
        <ele>485</ele>
        <time>2019-09-11T10:43:22+00:00</time>
      </trkpt>
      <trkpt lat="43.313846588135" lon="-7.6503467559814">
        <ele>485</ele>
        <time>2019-09-11T10:43:23+00:00</time>
      </trkpt>
      <trkpt lat="43.313842773438" lon="-7.6503601074219">
        <ele>484</ele>
        <time>2019-09-11T10:43:24+00:00</time>
      </trkpt>
      <trkpt lat="43.313835144043" lon="-7.6503715515137">
        <ele>484</ele>
        <time>2019-09-11T10:43:25+00:00</time>
      </trkpt>
      <trkpt lat="43.313823699951" lon="-7.650381565094">
        <ele>484</ele>
        <time>2019-09-11T10:43:26+00:00</time>
      </trkpt>
      <trkpt lat="43.313816070557" lon="-7.6503901481628">
        <ele>484</ele>
        <time>2019-09-11T10:43:27+00:00</time>
      </trkpt>
      <trkpt lat="43.313808441162" lon="-7.6504015922546">
        <ele>484</ele>
        <time>2019-09-11T10:43:28+00:00</time>
      </trkpt>
      <trkpt lat="43.313800811768" lon="-7.650411605835">
        <ele>483</ele>
        <time>2019-09-11T10:43:29+00:00</time>
      </trkpt>
      <trkpt lat="43.313793182373" lon="-7.6504216194153">
        <ele>483</ele>
        <time>2019-09-11T10:43:30+00:00</time>
      </trkpt>
      <trkpt lat="43.313785552979" lon="-7.6504282951355">
        <ele>483</ele>
        <time>2019-09-11T10:43:31+00:00</time>
      </trkpt>
      <trkpt lat="43.313774108887" lon="-7.6504349708557">
        <ele>482</ele>
        <time>2019-09-11T10:43:32+00:00</time>
      </trkpt>
      <trkpt lat="43.313766479492" lon="-7.6504468917847">
        <ele>482</ele>
        <time>2019-09-11T10:43:33+00:00</time>
      </trkpt>
      <trkpt lat="43.313762664795" lon="-7.6504616737366">
        <ele>482</ele>
        <time>2019-09-11T10:43:34+00:00</time>
      </trkpt>
      <trkpt lat="43.3137550354" lon="-7.6504764556885">
        <ele>482</ele>
        <time>2019-09-11T10:43:35+00:00</time>
      </trkpt>
      <trkpt lat="43.313747406006" lon="-7.6504898071289">
        <ele>482</ele>
        <time>2019-09-11T10:43:36+00:00</time>
      </trkpt>
      <trkpt lat="43.313739776611" lon="-7.6505031585693">
        <ele>482</ele>
        <time>2019-09-11T10:43:37+00:00</time>
      </trkpt>
      <trkpt lat="43.313732147217" lon="-7.6505198478699">
        <ele>482</ele>
        <time>2019-09-11T10:43:38+00:00</time>
      </trkpt>
      <trkpt lat="43.313724517822" lon="-7.6505365371704">
        <ele>481</ele>
        <time>2019-09-11T10:43:39+00:00</time>
      </trkpt>
      <trkpt lat="43.313716888428" lon="-7.6505517959595">
        <ele>481</ele>
        <time>2019-09-11T10:43:40+00:00</time>
      </trkpt>
      <trkpt lat="43.313705444336" lon="-7.6505599021912">
        <ele>481</ele>
        <time>2019-09-11T10:43:41+00:00</time>
      </trkpt>
      <trkpt lat="43.313697814941" lon="-7.6505665779114">
        <ele>481</ele>
        <time>2019-09-11T10:43:42+00:00</time>
      </trkpt>
      <trkpt lat="43.313690185547" lon="-7.6505765914917">
        <ele>481</ele>
        <time>2019-09-11T10:43:43+00:00</time>
      </trkpt>
      <trkpt lat="43.313682556152" lon="-7.6505885124207">
        <ele>480</ele>
        <time>2019-09-11T10:43:44+00:00</time>
      </trkpt>
      <trkpt lat="43.313674926758" lon="-7.650598526001">
        <ele>480</ele>
        <time>2019-09-11T10:43:45+00:00</time>
      </trkpt>
      <trkpt lat="43.313663482666" lon="-7.6506118774414">
        <ele>481</ele>
        <time>2019-09-11T10:43:46+00:00</time>
      </trkpt>
      <trkpt lat="43.313648223877" lon="-7.6506199836731">
        <ele>481</ele>
        <time>2019-09-11T10:43:47+00:00</time>
      </trkpt>
      <trkpt lat="43.313640594482" lon="-7.6506285667419">
        <ele>481</ele>
        <time>2019-09-11T10:43:48+00:00</time>
      </trkpt>
      <trkpt lat="43.313629150391" lon="-7.6506285667419">
        <ele>481</ele>
        <time>2019-09-11T10:43:49+00:00</time>
      </trkpt>
      <trkpt lat="43.313621520996" lon="-7.6506333351135">
        <ele>481</ele>
        <time>2019-09-11T10:43:50+00:00</time>
      </trkpt>
      <trkpt lat="43.313610076904" lon="-7.6506366729736">
        <ele>481</ele>
        <time>2019-09-11T10:43:51+00:00</time>
      </trkpt>
      <trkpt lat="43.313606262207" lon="-7.6506433486938">
        <ele>481</ele>
        <time>2019-09-11T10:43:52+00:00</time>
      </trkpt>
      <trkpt lat="43.313598632812" lon="-7.6506500244141">
        <ele>480</ele>
        <time>2019-09-11T10:43:53+00:00</time>
      </trkpt>
      <trkpt lat="43.313594818115" lon="-7.6506567001343">
        <ele>480</ele>
        <time>2019-09-11T10:43:54+00:00</time>
      </trkpt>
      <trkpt lat="43.313587188721" lon="-7.6506567001343">
        <ele>480</ele>
        <time>2019-09-11T10:43:55+00:00</time>
      </trkpt>
      <trkpt lat="43.313571929932" lon="-7.650664806366">
        <ele>480</ele>
        <time>2019-09-11T10:43:56+00:00</time>
      </trkpt>
      <trkpt lat="43.31356048584" lon="-7.6506714820862">
        <ele>480</ele>
        <time>2019-09-11T10:43:57+00:00</time>
      </trkpt>
      <trkpt lat="43.313552856445" lon="-7.6506848335266">
        <ele>480</ele>
        <time>2019-09-11T10:43:58+00:00</time>
      </trkpt>
      <trkpt lat="43.313545227051" lon="-7.6506900787354">
        <ele>480</ele>
        <time>2019-09-11T10:43:59+00:00</time>
      </trkpt>
      <trkpt lat="43.313533782959" lon="-7.6507000923157">
        <ele>480</ele>
        <time>2019-09-11T10:44:00+00:00</time>
      </trkpt>
      <trkpt lat="43.313529968262" lon="-7.6507048606873">
        <ele>480</ele>
        <time>2019-09-11T10:44:01+00:00</time>
      </trkpt>
      <trkpt lat="43.31351852417" lon="-7.6507115364075">
        <ele>480</ele>
        <time>2019-09-11T10:44:02+00:00</time>
      </trkpt>
      <trkpt lat="43.313510894775" lon="-7.6507201194763">
        <ele>480</ele>
        <time>2019-09-11T10:44:03+00:00</time>
      </trkpt>
      <trkpt lat="43.313503265381" lon="-7.6507334709167">
        <ele>480</ele>
        <time>2019-09-11T10:44:04+00:00</time>
      </trkpt>
      <trkpt lat="43.313491821289" lon="-7.6507468223572">
        <ele>480</ele>
        <time>2019-09-11T10:44:05+00:00</time>
      </trkpt>
      <trkpt lat="43.313480377197" lon="-7.6507616043091">
        <ele>480</ele>
        <time>2019-09-11T10:44:06+00:00</time>
      </trkpt>
      <trkpt lat="43.313472747803" lon="-7.6507802009583">
        <ele>480</ele>
        <time>2019-09-11T10:44:07+00:00</time>
      </trkpt>
      <trkpt lat="43.313461303711" lon="-7.6507935523987">
        <ele>480</ele>
        <time>2019-09-11T10:44:08+00:00</time>
      </trkpt>
      <trkpt lat="43.313453674316" lon="-7.6508083343506">
        <ele>480</ele>
        <time>2019-09-11T10:44:09+00:00</time>
      </trkpt>
      <trkpt lat="43.313446044922" lon="-7.650821685791">
        <ele>480</ele>
        <time>2019-09-11T10:44:10+00:00</time>
      </trkpt>
      <trkpt lat="43.31343460083" lon="-7.6508350372314">
        <ele>480</ele>
        <time>2019-09-11T10:44:11+00:00</time>
      </trkpt>
      <trkpt lat="43.313426971436" lon="-7.6508483886719">
        <ele>480</ele>
        <time>2019-09-11T10:44:12+00:00</time>
      </trkpt>
      <trkpt lat="43.313419342041" lon="-7.6508584022522">
        <ele>480</ele>
        <time>2019-09-11T10:44:13+00:00</time>
      </trkpt>
      <trkpt lat="43.313415527344" lon="-7.6508717536926">
        <ele>480</ele>
        <time>2019-09-11T10:44:14+00:00</time>
      </trkpt>
      <trkpt lat="43.313411712646" lon="-7.6508884429932">
        <ele>480</ele>
        <time>2019-09-11T10:44:15+00:00</time>
      </trkpt>
      <trkpt lat="43.313404083252" lon="-7.6509017944336">
        <ele>480</ele>
        <time>2019-09-11T10:44:16+00:00</time>
      </trkpt>
      <trkpt lat="43.31339263916" lon="-7.6509118080139">
        <ele>480</ele>
        <time>2019-09-11T10:44:17+00:00</time>
      </trkpt>
      <trkpt lat="43.313381195068" lon="-7.6509284973145">
        <ele>480</ele>
        <time>2019-09-11T10:44:18+00:00</time>
      </trkpt>
      <trkpt lat="43.313369750977" lon="-7.650945186615">
        <ele>480</ele>
        <time>2019-09-11T10:44:19+00:00</time>
      </trkpt>
      <trkpt lat="43.313358306885" lon="-7.6509599685669">
        <ele>480</ele>
        <time>2019-09-11T10:44:20+00:00</time>
      </trkpt>
      <trkpt lat="43.313346862793" lon="-7.650975227356">
        <ele>480</ele>
        <time>2019-09-11T10:44:21+00:00</time>
      </trkpt>
      <trkpt lat="43.313339233398" lon="-7.6509866714478">
        <ele>480</ele>
        <time>2019-09-11T10:44:22+00:00</time>
      </trkpt>
      <trkpt lat="43.313327789307" lon="-7.6510000228882">
        <ele>480</ele>
        <time>2019-09-11T10:44:23+00:00</time>
      </trkpt>
      <trkpt lat="43.313316345215" lon="-7.65101146698">
        <ele>480</ele>
        <time>2019-09-11T10:44:24+00:00</time>
      </trkpt>
      <trkpt lat="43.313301086426" lon="-7.6510200500488">
        <ele>480</ele>
        <time>2019-09-11T10:44:25+00:00</time>
      </trkpt>
      <trkpt lat="43.313289642334" lon="-7.6510300636292">
        <ele>481</ele>
        <time>2019-09-11T10:44:26+00:00</time>
      </trkpt>
      <trkpt lat="43.313278198242" lon="-7.6510381698608">
        <ele>481</ele>
        <time>2019-09-11T10:44:27+00:00</time>
      </trkpt>
      <trkpt lat="43.31326675415" lon="-7.6510467529297">
        <ele>481</ele>
        <time>2019-09-11T10:44:28+00:00</time>
      </trkpt>
      <trkpt lat="43.313259124756" lon="-7.6510581970215">
        <ele>481</ele>
        <time>2019-09-11T10:44:29+00:00</time>
      </trkpt>
      <trkpt lat="43.313251495361" lon="-7.6510682106018">
        <ele>481</ele>
        <time>2019-09-11T10:44:30+00:00</time>
      </trkpt>
      <trkpt lat="43.31324005127" lon="-7.6510767936707">
        <ele>481</ele>
        <time>2019-09-11T10:44:31+00:00</time>
      </trkpt>
      <trkpt lat="43.313232421875" lon="-7.651086807251">
        <ele>481</ele>
        <time>2019-09-11T10:44:32+00:00</time>
      </trkpt>
      <trkpt lat="43.31322479248" lon="-7.6510982513428">
        <ele>481</ele>
        <time>2019-09-11T10:44:33+00:00</time>
      </trkpt>
      <trkpt lat="43.313220977783" lon="-7.6511068344116">
        <ele>481</ele>
        <time>2019-09-11T10:44:34+00:00</time>
      </trkpt>
      <trkpt lat="43.313213348389" lon="-7.6511168479919">
        <ele>481</ele>
        <time>2019-09-11T10:44:35+00:00</time>
      </trkpt>
      <trkpt lat="43.313205718994" lon="-7.6511268615723">
        <ele>480</ele>
        <time>2019-09-11T10:44:36+00:00</time>
      </trkpt>
      <trkpt lat="43.313194274902" lon="-7.6511383056641">
        <ele>480</ele>
        <time>2019-09-11T10:44:37+00:00</time>
      </trkpt>
      <trkpt lat="43.313182830811" lon="-7.651150226593">
        <ele>480</ele>
        <time>2019-09-11T10:44:38+00:00</time>
      </trkpt>
      <trkpt lat="43.313171386719" lon="-7.6511597633362">
        <ele>481</ele>
        <time>2019-09-11T10:44:39+00:00</time>
      </trkpt>
      <trkpt lat="43.31315612793" lon="-7.6511731147766">
        <ele>481</ele>
        <time>2019-09-11T10:44:40+00:00</time>
      </trkpt>
      <trkpt lat="43.313144683838" lon="-7.651186466217">
        <ele>481</ele>
        <time>2019-09-11T10:44:41+00:00</time>
      </trkpt>
      <trkpt lat="43.313129425049" lon="-7.6511998176575">
        <ele>481</ele>
        <time>2019-09-11T10:44:42+00:00</time>
      </trkpt>
      <trkpt lat="43.313121795654" lon="-7.6512131690979">
        <ele>480</ele>
        <time>2019-09-11T10:44:43+00:00</time>
      </trkpt>
      <trkpt lat="43.313110351562" lon="-7.6512250900269">
        <ele>480</ele>
        <time>2019-09-11T10:44:44+00:00</time>
      </trkpt>
      <trkpt lat="43.313098907471" lon="-7.6512365341187">
        <ele>480</ele>
        <time>2019-09-11T10:44:45+00:00</time>
      </trkpt>
      <trkpt lat="43.313095092773" lon="-7.651246547699">
        <ele>480</ele>
        <time>2019-09-11T10:44:46+00:00</time>
      </trkpt>
      <trkpt lat="43.313087463379" lon="-7.6512584686279">
        <ele>480</ele>
        <time>2019-09-11T10:44:47+00:00</time>
      </trkpt>
      <trkpt lat="43.313083648682" lon="-7.6512684822083">
        <ele>480</ele>
        <time>2019-09-11T10:44:48+00:00</time>
      </trkpt>
      <trkpt lat="43.313076019287" lon="-7.6512784957886">
        <ele>480</ele>
        <time>2019-09-11T10:44:49+00:00</time>
      </trkpt>
      <trkpt lat="43.313068389893" lon="-7.6512899398804">
        <ele>480</ele>
        <time>2019-09-11T10:44:50+00:00</time>
      </trkpt>
      <trkpt lat="43.313056945801" lon="-7.6513018608093">
        <ele>480</ele>
        <time>2019-09-11T10:44:51+00:00</time>
      </trkpt>
      <trkpt lat="43.313045501709" lon="-7.6513152122498">
        <ele>480</ele>
        <time>2019-09-11T10:44:52+00:00</time>
      </trkpt>
      <trkpt lat="43.313037872314" lon="-7.6513299942017">
        <ele>480</ele>
        <time>2019-09-11T10:44:53+00:00</time>
      </trkpt>
      <trkpt lat="43.313026428223" lon="-7.651340007782">
        <ele>480</ele>
        <time>2019-09-11T10:44:54+00:00</time>
      </trkpt>
      <trkpt lat="43.313014984131" lon="-7.6513533592224">
        <ele>480</ele>
        <time>2019-09-11T10:44:55+00:00</time>
      </trkpt>
      <trkpt lat="43.313011169434" lon="-7.6513648033142">
        <ele>480</ele>
        <time>2019-09-11T10:44:56+00:00</time>
      </trkpt>
      <trkpt lat="43.312999725342" lon="-7.6513733863831">
        <ele>480</ele>
        <time>2019-09-11T10:44:57+00:00</time>
      </trkpt>
      <trkpt lat="43.312992095947" lon="-7.6513848304749">
        <ele>480</ele>
        <time>2019-09-11T10:44:58+00:00</time>
      </trkpt>
      <trkpt lat="43.312984466553" lon="-7.6513948440552">
        <ele>480</ele>
        <time>2019-09-11T10:44:59+00:00</time>
      </trkpt>
      <trkpt lat="43.312976837158" lon="-7.6513981819153">
        <ele>480</ele>
        <time>2019-09-11T10:45:00+00:00</time>
      </trkpt>
      <trkpt lat="43.312965393066" lon="-7.6514015197754">
        <ele>480</ele>
        <time>2019-09-11T10:45:01+00:00</time>
      </trkpt>
      <trkpt lat="43.312953948975" lon="-7.6514067649841">
        <ele>480</ele>
        <time>2019-09-11T10:45:02+00:00</time>
      </trkpt>
      <trkpt lat="43.312942504883" lon="-7.6514148712158">
        <ele>480</ele>
        <time>2019-09-11T10:45:03+00:00</time>
      </trkpt>
      <trkpt lat="43.312934875488" lon="-7.6514248847961">
        <ele>480</ele>
        <time>2019-09-11T10:45:04+00:00</time>
      </trkpt>
      <trkpt lat="43.312927246094" lon="-7.6514301300049">
        <ele>480</ele>
        <time>2019-09-11T10:45:05+00:00</time>
      </trkpt>
      <trkpt lat="43.312919616699" lon="-7.6514348983765">
        <ele>480</ele>
        <time>2019-09-11T10:45:06+00:00</time>
      </trkpt>
      <trkpt lat="43.312908172607" lon="-7.6514415740967">
        <ele>480</ele>
        <time>2019-09-11T10:45:07+00:00</time>
      </trkpt>
      <trkpt lat="43.31290435791" lon="-7.6514534950256">
        <ele>480</ele>
        <time>2019-09-11T10:45:08+00:00</time>
      </trkpt>
      <trkpt lat="43.312900543213" lon="-7.651463508606">
        <ele>480</ele>
        <time>2019-09-11T10:45:09+00:00</time>
      </trkpt>
      <trkpt lat="43.312896728516" lon="-7.6514735221863">
        <ele>480</ele>
        <time>2019-09-11T10:45:10+00:00</time>
      </trkpt>
      <trkpt lat="43.312896728516" lon="-7.6514835357666">
        <ele>480</ele>
        <time>2019-09-11T10:45:11+00:00</time>
      </trkpt>
      <trkpt lat="43.312885284424" lon="-7.6514949798584">
        <ele>480</ele>
        <time>2019-09-11T10:45:12+00:00</time>
      </trkpt>
      <trkpt lat="43.312877655029" lon="-7.6515049934387">
        <ele>480</ele>
        <time>2019-09-11T10:45:13+00:00</time>
      </trkpt>
      <trkpt lat="43.312870025635" lon="-7.6515183448792">
        <ele>481</ele>
        <time>2019-09-11T10:45:14+00:00</time>
      </trkpt>
      <trkpt lat="43.31286239624" lon="-7.6515316963196">
        <ele>480</ele>
        <time>2019-09-11T10:45:15+00:00</time>
      </trkpt>
      <trkpt lat="43.312850952148" lon="-7.65154504776">
        <ele>480</ele>
        <time>2019-09-11T10:45:16+00:00</time>
      </trkpt>
      <trkpt lat="43.312839508057" lon="-7.6515583992004">
        <ele>481</ele>
        <time>2019-09-11T10:45:17+00:00</time>
      </trkpt>
      <trkpt lat="43.312831878662" lon="-7.6515717506409">
        <ele>481</ele>
        <time>2019-09-11T10:45:18+00:00</time>
      </trkpt>
      <trkpt lat="43.312824249268" lon="-7.6515817642212">
        <ele>481</ele>
        <time>2019-09-11T10:45:19+00:00</time>
      </trkpt>
      <trkpt lat="43.312812805176" lon="-7.6515965461731">
        <ele>481</ele>
        <time>2019-09-11T10:45:20+00:00</time>
      </trkpt>
      <trkpt lat="43.312805175781" lon="-7.6516098976135">
        <ele>481</ele>
        <time>2019-09-11T10:45:21+00:00</time>
      </trkpt>
      <trkpt lat="43.312793731689" lon="-7.6516199111938">
        <ele>481</ele>
        <time>2019-09-11T10:45:22+00:00</time>
      </trkpt>
      <trkpt lat="43.312786102295" lon="-7.6516318321228">
        <ele>481</ele>
        <time>2019-09-11T10:45:23+00:00</time>
      </trkpt>
      <trkpt lat="43.3127784729" lon="-7.6516418457031">
        <ele>481</ele>
        <time>2019-09-11T10:45:24+00:00</time>
      </trkpt>
      <trkpt lat="43.312770843506" lon="-7.6516499519348">
        <ele>481</ele>
        <time>2019-09-11T10:45:25+00:00</time>
      </trkpt>
      <trkpt lat="43.312763214111" lon="-7.6516599655151">
        <ele>482</ele>
        <time>2019-09-11T10:45:26+00:00</time>
      </trkpt>
      <trkpt lat="43.312759399414" lon="-7.6516699790955">
        <ele>482</ele>
        <time>2019-09-11T10:45:27+00:00</time>
      </trkpt>
      <trkpt lat="43.31275177002" lon="-7.6516833305359">
        <ele>482</ele>
        <time>2019-09-11T10:45:28+00:00</time>
      </trkpt>
      <trkpt lat="43.312740325928" lon="-7.6516914367676">
        <ele>482</ele>
        <time>2019-09-11T10:45:29+00:00</time>
      </trkpt>
      <trkpt lat="43.312728881836" lon="-7.6517000198364">
        <ele>482</ele>
        <time>2019-09-11T10:45:30+00:00</time>
      </trkpt>
      <trkpt lat="43.312717437744" lon="-7.6517066955566">
        <ele>482</ele>
        <time>2019-09-11T10:45:31+00:00</time>
      </trkpt>
      <trkpt lat="43.312705993652" lon="-7.651716709137">
        <ele>482</ele>
        <time>2019-09-11T10:45:32+00:00</time>
      </trkpt>
      <trkpt lat="43.312686920166" lon="-7.6517248153687">
        <ele>482</ele>
        <time>2019-09-11T10:45:33+00:00</time>
      </trkpt>
      <trkpt lat="43.312671661377" lon="-7.651734828949">
        <ele>482</ele>
        <time>2019-09-11T10:45:34+00:00</time>
      </trkpt>
      <trkpt lat="43.312660217285" lon="-7.6517415046692">
        <ele>482</ele>
        <time>2019-09-11T10:45:35+00:00</time>
      </trkpt>
      <trkpt lat="43.312656402588" lon="-7.6517481803894">
        <ele>482</ele>
        <time>2019-09-11T10:45:36+00:00</time>
      </trkpt>
      <trkpt lat="43.312652587891" lon="-7.6517548561096">
        <ele>482</ele>
        <time>2019-09-11T10:45:37+00:00</time>
      </trkpt>
      <trkpt lat="43.312644958496" lon="-7.6517601013184">
        <ele>482</ele>
        <time>2019-09-11T10:45:38+00:00</time>
      </trkpt>
      <trkpt lat="43.312637329102" lon="-7.65176820755">
        <ele>482</ele>
        <time>2019-09-11T10:45:39+00:00</time>
      </trkpt>
      <trkpt lat="43.312633514404" lon="-7.6517734527588">
        <ele>482</ele>
        <time>2019-09-11T10:45:40+00:00</time>
      </trkpt>
      <trkpt lat="43.312622070312" lon="-7.6517815589905">
        <ele>482</ele>
        <time>2019-09-11T10:45:41+00:00</time>
      </trkpt>
      <trkpt lat="43.312614440918" lon="-7.6517882347107">
        <ele>482</ele>
        <time>2019-09-11T10:45:42+00:00</time>
      </trkpt>
      <trkpt lat="43.312606811523" lon="-7.6518015861511">
        <ele>483</ele>
        <time>2019-09-11T10:45:43+00:00</time>
      </trkpt>
      <trkpt lat="43.312602996826" lon="-7.6518135070801">
        <ele>483</ele>
        <time>2019-09-11T10:45:44+00:00</time>
      </trkpt>
      <trkpt lat="43.312595367432" lon="-7.6518301963806">
        <ele>483</ele>
        <time>2019-09-11T10:45:45+00:00</time>
      </trkpt>
      <trkpt lat="43.312587738037" lon="-7.6518368721008">
        <ele>483</ele>
        <time>2019-09-11T10:45:46+00:00</time>
      </trkpt>
      <trkpt lat="43.312595367432" lon="-7.6518368721008">
        <ele>483</ele>
        <time>2019-09-11T10:45:47+00:00</time>
      </trkpt>
      <trkpt lat="43.312591552734" lon="-7.651843547821">
        <ele>484</ele>
        <time>2019-09-11T10:45:48+00:00</time>
      </trkpt>
      <trkpt lat="43.312591552734" lon="-7.6518483161926">
        <ele>484</ele>
        <time>2019-09-11T10:45:49+00:00</time>
      </trkpt>
      <trkpt lat="43.31258392334" lon="-7.6518583297729">
        <ele>484</ele>
        <time>2019-09-11T10:45:50+00:00</time>
      </trkpt>
      <trkpt lat="43.312576293945" lon="-7.6518683433533">
        <ele>484</ele>
        <time>2019-09-11T10:45:51+00:00</time>
      </trkpt>
      <trkpt lat="43.312564849854" lon="-7.6518716812134">
        <ele>484</ele>
        <time>2019-09-11T10:45:52+00:00</time>
      </trkpt>
      <trkpt lat="43.312557220459" lon="-7.651876449585">
        <ele>484</ele>
        <time>2019-09-11T10:45:53+00:00</time>
      </trkpt>
      <trkpt lat="43.31254196167" lon="-7.6518797874451">
        <ele>484</ele>
        <time>2019-09-11T10:45:54+00:00</time>
      </trkpt>
      <trkpt lat="43.312534332275" lon="-7.6518883705139">
        <ele>484</ele>
        <time>2019-09-11T10:45:55+00:00</time>
      </trkpt>
      <trkpt lat="43.312522888184" lon="-7.6518964767456">
        <ele>484</ele>
        <time>2019-09-11T10:45:56+00:00</time>
      </trkpt>
      <trkpt lat="43.312507629395" lon="-7.6519017219543">
        <ele>484</ele>
        <time>2019-09-11T10:45:57+00:00</time>
      </trkpt>
      <trkpt lat="43.312496185303" lon="-7.651909828186">
        <ele>483</ele>
        <time>2019-09-11T10:45:58+00:00</time>
      </trkpt>
      <trkpt lat="43.312480926514" lon="-7.6519198417664">
        <ele>483</ele>
        <time>2019-09-11T10:45:59+00:00</time>
      </trkpt>
      <trkpt lat="43.312461853027" lon="-7.6519317626953">
        <ele>483</ele>
        <time>2019-09-11T10:46:00+00:00</time>
      </trkpt>
      <trkpt lat="43.312450408936" lon="-7.6519384384155">
        <ele>483</ele>
        <time>2019-09-11T10:46:01+00:00</time>
      </trkpt>
      <trkpt lat="43.312435150146" lon="-7.6519465446472">
        <ele>483</ele>
        <time>2019-09-11T10:46:02+00:00</time>
      </trkpt>
      <trkpt lat="43.312423706055" lon="-7.6519618034363">
        <ele>483</ele>
        <time>2019-09-11T10:46:03+00:00</time>
      </trkpt>
      <trkpt lat="43.31241607666" lon="-7.6519818305969">
        <ele>483</ele>
        <time>2019-09-11T10:46:04+00:00</time>
      </trkpt>
      <trkpt lat="43.312408447266" lon="-7.6519951820374">
        <ele>483</ele>
        <time>2019-09-11T10:46:05+00:00</time>
      </trkpt>
      <trkpt lat="43.312393188477" lon="-7.6520133018494">
        <ele>482</ele>
        <time>2019-09-11T10:46:06+00:00</time>
      </trkpt>
      <trkpt lat="43.312381744385" lon="-7.6520299911499">
        <ele>482</ele>
        <time>2019-09-11T10:46:07+00:00</time>
      </trkpt>
      <trkpt lat="43.312370300293" lon="-7.6520433425903">
        <ele>482</ele>
        <time>2019-09-11T10:46:08+00:00</time>
      </trkpt>
      <trkpt lat="43.312362670898" lon="-7.6520581245422">
        <ele>482</ele>
        <time>2019-09-11T10:46:09+00:00</time>
      </trkpt>
      <trkpt lat="43.312355041504" lon="-7.6520733833313">
        <ele>482</ele>
        <time>2019-09-11T10:46:10+00:00</time>
      </trkpt>
      <trkpt lat="43.312343597412" lon="-7.6520848274231">
        <ele>482</ele>
        <time>2019-09-11T10:46:11+00:00</time>
      </trkpt>
      <trkpt lat="43.312335968018" lon="-7.6521034240723">
        <ele>481</ele>
        <time>2019-09-11T10:46:12+00:00</time>
      </trkpt>
      <trkpt lat="43.312324523926" lon="-7.6521148681641">
        <ele>481</ele>
        <time>2019-09-11T10:46:13+00:00</time>
      </trkpt>
      <trkpt lat="43.312313079834" lon="-7.6521282196045">
        <ele>481</ele>
        <time>2019-09-11T10:46:14+00:00</time>
      </trkpt>
      <trkpt lat="43.312305450439" lon="-7.6521382331848">
        <ele>481</ele>
        <time>2019-09-11T10:46:15+00:00</time>
      </trkpt>
      <trkpt lat="43.312294006348" lon="-7.652144908905">
        <ele>481</ele>
        <time>2019-09-11T10:46:16+00:00</time>
      </trkpt>
      <trkpt lat="43.312282562256" lon="-7.6521501541138">
        <ele>481</ele>
        <time>2019-09-11T10:46:17+00:00</time>
      </trkpt>
      <trkpt lat="43.312271118164" lon="-7.6521582603455">
        <ele>481</ele>
        <time>2019-09-11T10:46:18+00:00</time>
      </trkpt>
      <trkpt lat="43.312259674072" lon="-7.6521682739258">
        <ele>481</ele>
        <time>2019-09-11T10:46:19+00:00</time>
      </trkpt>
      <trkpt lat="43.31224822998" lon="-7.6521768569946">
        <ele>481</ele>
        <time>2019-09-11T10:46:20+00:00</time>
      </trkpt>
      <trkpt lat="43.312236785889" lon="-7.6521835327148">
        <ele>481</ele>
        <time>2019-09-11T10:46:21+00:00</time>
      </trkpt>
      <trkpt lat="43.3122215271" lon="-7.6521902084351">
        <ele>481</ele>
        <time>2019-09-11T10:46:22+00:00</time>
      </trkpt>
      <trkpt lat="43.312210083008" lon="-7.6521968841553">
        <ele>481</ele>
        <time>2019-09-11T10:46:23+00:00</time>
      </trkpt>
      <trkpt lat="43.312198638916" lon="-7.652204990387">
        <ele>481</ele>
        <time>2019-09-11T10:46:24+00:00</time>
      </trkpt>
      <trkpt lat="43.312187194824" lon="-7.6522197723389">
        <ele>481</ele>
        <time>2019-09-11T10:46:25+00:00</time>
      </trkpt>
      <trkpt lat="43.312183380127" lon="-7.6522297859192">
        <ele>481</ele>
        <time>2019-09-11T10:46:26+00:00</time>
      </trkpt>
      <trkpt lat="43.31217956543" lon="-7.6522417068481">
        <ele>481</ele>
        <time>2019-09-11T10:46:27+00:00</time>
      </trkpt>
      <trkpt lat="43.312171936035" lon="-7.6522531509399">
        <ele>481</ele>
        <time>2019-09-11T10:46:28+00:00</time>
      </trkpt>
      <trkpt lat="43.312168121338" lon="-7.6522617340088">
        <ele>480</ele>
        <time>2019-09-11T10:46:29+00:00</time>
      </trkpt>
      <trkpt lat="43.312156677246" lon="-7.6522698402405">
        <ele>480</ele>
        <time>2019-09-11T10:46:30+00:00</time>
      </trkpt>
      <trkpt lat="43.312149047852" lon="-7.6522798538208">
        <ele>480</ele>
        <time>2019-09-11T10:46:31+00:00</time>
      </trkpt>
      <trkpt lat="43.312141418457" lon="-7.652286529541">
        <ele>480</ele>
        <time>2019-09-11T10:46:32+00:00</time>
      </trkpt>
      <trkpt lat="43.312133789062" lon="-7.6522932052612">
        <ele>480</ele>
        <time>2019-09-11T10:46:33+00:00</time>
      </trkpt>
      <trkpt lat="43.312122344971" lon="-7.6522998809814">
        <ele>480</ele>
        <time>2019-09-11T10:46:34+00:00</time>
      </trkpt>
      <trkpt lat="43.312114715576" lon="-7.6523084640503">
        <ele>480</ele>
        <time>2019-09-11T10:46:35+00:00</time>
      </trkpt>
      <trkpt lat="43.312107086182" lon="-7.6523151397705">
        <ele>480</ele>
        <time>2019-09-11T10:46:36+00:00</time>
      </trkpt>
      <trkpt lat="43.312103271484" lon="-7.6523265838623">
        <ele>480</ele>
        <time>2019-09-11T10:46:37+00:00</time>
      </trkpt>
      <trkpt lat="43.31209564209" lon="-7.6523365974426">
        <ele>480</ele>
        <time>2019-09-11T10:46:38+00:00</time>
      </trkpt>
      <trkpt lat="43.312091827393" lon="-7.6523466110229">
        <ele>480</ele>
        <time>2019-09-11T10:46:39+00:00</time>
      </trkpt>
      <trkpt lat="43.312080383301" lon="-7.6523532867432">
        <ele>480</ele>
        <time>2019-09-11T10:46:40+00:00</time>
      </trkpt>
      <trkpt lat="43.312068939209" lon="-7.6523599624634">
        <ele>481</ele>
        <time>2019-09-11T10:46:41+00:00</time>
      </trkpt>
      <trkpt lat="43.312061309814" lon="-7.6523699760437">
        <ele>481</ele>
        <time>2019-09-11T10:46:42+00:00</time>
      </trkpt>
      <trkpt lat="43.312049865723" lon="-7.6523833274841">
        <ele>481</ele>
        <time>2019-09-11T10:46:43+00:00</time>
      </trkpt>
      <trkpt lat="43.312042236328" lon="-7.6523933410645">
        <ele>481</ele>
        <time>2019-09-11T10:46:44+00:00</time>
      </trkpt>
      <trkpt lat="43.312038421631" lon="-7.6524081230164">
        <ele>481</ele>
        <time>2019-09-11T10:46:45+00:00</time>
      </trkpt>
      <trkpt lat="43.312030792236" lon="-7.6524233818054">
        <ele>481</ele>
        <time>2019-09-11T10:46:46+00:00</time>
      </trkpt>
      <trkpt lat="43.312023162842" lon="-7.6524333953857">
        <ele>481</ele>
        <time>2019-09-11T10:46:47+00:00</time>
      </trkpt>
      <trkpt lat="43.312015533447" lon="-7.6524434089661">
        <ele>481</ele>
        <time>2019-09-11T10:46:48+00:00</time>
      </trkpt>
      <trkpt lat="43.312004089355" lon="-7.6524515151978">
        <ele>481</ele>
        <time>2019-09-11T10:46:49+00:00</time>
      </trkpt>
      <trkpt lat="43.311996459961" lon="-7.652458190918">
        <ele>481</ele>
        <time>2019-09-11T10:46:50+00:00</time>
      </trkpt>
      <trkpt lat="43.311992645264" lon="-7.6524701118469">
        <ele>481</ele>
        <time>2019-09-11T10:46:51+00:00</time>
      </trkpt>
      <trkpt lat="43.311985015869" lon="-7.6524801254272">
        <ele>481</ele>
        <time>2019-09-11T10:46:52+00:00</time>
      </trkpt>
      <trkpt lat="43.311977386475" lon="-7.652491569519">
        <ele>481</ele>
        <time>2019-09-11T10:46:53+00:00</time>
      </trkpt>
      <trkpt lat="43.311973571777" lon="-7.6525082588196">
        <ele>480</ele>
        <time>2019-09-11T10:46:54+00:00</time>
      </trkpt>
      <trkpt lat="43.311965942383" lon="-7.65252161026">
        <ele>480</ele>
        <time>2019-09-11T10:46:55+00:00</time>
      </trkpt>
      <trkpt lat="43.311958312988" lon="-7.6525368690491">
        <ele>480</ele>
        <time>2019-09-11T10:46:56+00:00</time>
      </trkpt>
      <trkpt lat="43.311950683594" lon="-7.6525468826294">
        <ele>480</ele>
        <time>2019-09-11T10:46:57+00:00</time>
      </trkpt>
      <trkpt lat="43.311943054199" lon="-7.6525630950928">
        <ele>480</ele>
        <time>2019-09-11T10:46:58+00:00</time>
      </trkpt>
      <trkpt lat="43.311931610107" lon="-7.6525764465332">
        <ele>481</ele>
        <time>2019-09-11T10:46:59+00:00</time>
      </trkpt>
      <trkpt lat="43.311920166016" lon="-7.6525864601135">
        <ele>480</ele>
        <time>2019-09-11T10:47:00+00:00</time>
      </trkpt>
      <trkpt lat="43.311908721924" lon="-7.6525983810425">
        <ele>480</ele>
        <time>2019-09-11T10:47:01+00:00</time>
      </trkpt>
      <trkpt lat="43.311901092529" lon="-7.6526098251343">
        <ele>480</ele>
        <time>2019-09-11T10:47:02+00:00</time>
      </trkpt>
      <trkpt lat="43.311893463135" lon="-7.6526217460632">
        <ele>480</ele>
        <time>2019-09-11T10:47:03+00:00</time>
      </trkpt>
      <trkpt lat="43.311889648438" lon="-7.652633190155">
        <ele>480</ele>
        <time>2019-09-11T10:47:04+00:00</time>
      </trkpt>
      <trkpt lat="43.311882019043" lon="-7.6526465415955">
        <ele>480</ele>
        <time>2019-09-11T10:47:05+00:00</time>
      </trkpt>
      <trkpt lat="43.311874389648" lon="-7.6526598930359">
        <ele>480</ele>
        <time>2019-09-11T10:47:06+00:00</time>
      </trkpt>
      <trkpt lat="43.311866760254" lon="-7.6526732444763">
        <ele>480</ele>
        <time>2019-09-11T10:47:07+00:00</time>
      </trkpt>
      <trkpt lat="43.311855316162" lon="-7.6526865959167">
        <ele>480</ele>
        <time>2019-09-11T10:47:08+00:00</time>
      </trkpt>
      <trkpt lat="43.311851501465" lon="-7.6526999473572">
        <ele>480</ele>
        <time>2019-09-11T10:47:09+00:00</time>
      </trkpt>
      <trkpt lat="43.311840057373" lon="-7.6527152061462">
        <ele>480</ele>
        <time>2019-09-11T10:47:10+00:00</time>
      </trkpt>
      <trkpt lat="43.311832427979" lon="-7.6527299880981">
        <ele>480</ele>
        <time>2019-09-11T10:47:11+00:00</time>
      </trkpt>
      <trkpt lat="43.311824798584" lon="-7.65274477005">
        <ele>480</ele>
        <time>2019-09-11T10:47:12+00:00</time>
      </trkpt>
      <trkpt lat="43.311813354492" lon="-7.6527581214905">
        <ele>480</ele>
        <time>2019-09-11T10:47:13+00:00</time>
      </trkpt>
      <trkpt lat="43.3118019104" lon="-7.6527733802795">
        <ele>480</ele>
        <time>2019-09-11T10:47:14+00:00</time>
      </trkpt>
      <trkpt lat="43.311798095703" lon="-7.6527881622314">
        <ele>480</ele>
        <time>2019-09-11T10:47:15+00:00</time>
      </trkpt>
      <trkpt lat="43.311790466309" lon="-7.6528034210205">
        <ele>480</ele>
        <time>2019-09-11T10:47:16+00:00</time>
      </trkpt>
      <trkpt lat="43.311779022217" lon="-7.6528182029724">
        <ele>480</ele>
        <time>2019-09-11T10:47:17+00:00</time>
      </trkpt>
      <trkpt lat="43.311767578125" lon="-7.6528267860413">
        <ele>480</ele>
        <time>2019-09-11T10:47:18+00:00</time>
      </trkpt>
      <trkpt lat="43.311756134033" lon="-7.6528401374817">
        <ele>480</ele>
        <time>2019-09-11T10:47:19+00:00</time>
      </trkpt>
      <trkpt lat="43.311748504639" lon="-7.6528468132019">
        <ele>479</ele>
        <time>2019-09-11T10:47:20+00:00</time>
      </trkpt>
      <trkpt lat="43.311729431152" lon="-7.6528515815735">
        <ele>479</ele>
        <time>2019-09-11T10:47:21+00:00</time>
      </trkpt>
      <trkpt lat="43.311721801758" lon="-7.6528668403625">
        <ele>478</ele>
        <time>2019-09-11T10:47:22+00:00</time>
      </trkpt>
      <trkpt lat="43.311714172363" lon="-7.6528816223145">
        <ele>478</ele>
        <time>2019-09-11T10:47:23+00:00</time>
      </trkpt>
      <trkpt lat="43.311706542969" lon="-7.6528902053833">
        <ele>478</ele>
        <time>2019-09-11T10:47:24+00:00</time>
      </trkpt>
      <trkpt lat="43.311706542969" lon="-7.6529102325439">
        <ele>478</ele>
        <time>2019-09-11T10:47:25+00:00</time>
      </trkpt>
      <trkpt lat="43.311702728271" lon="-7.6529250144958">
        <ele>478</ele>
        <time>2019-09-11T10:47:26+00:00</time>
      </trkpt>
      <trkpt lat="43.311695098877" lon="-7.6529417037964">
        <ele>477</ele>
        <time>2019-09-11T10:47:27+00:00</time>
      </trkpt>
      <trkpt lat="43.31169128418" lon="-7.6529598236084">
        <ele>477</ele>
        <time>2019-09-11T10:47:28+00:00</time>
      </trkpt>
      <trkpt lat="43.311687469482" lon="-7.6529598236084">
        <ele>477</ele>
        <time>2019-09-11T10:47:29+00:00</time>
      </trkpt>
      <trkpt lat="43.311679840088" lon="-7.6529698371887">
        <ele>477</ele>
        <time>2019-09-11T10:47:30+00:00</time>
      </trkpt>
      <trkpt lat="43.311672210693" lon="-7.6529831886292">
        <ele>477</ele>
        <time>2019-09-11T10:47:31+00:00</time>
      </trkpt>
      <trkpt lat="43.311668395996" lon="-7.6529984474182">
        <ele>477</ele>
        <time>2019-09-11T10:47:32+00:00</time>
      </trkpt>
      <trkpt lat="43.311656951904" lon="-7.6530151367188">
        <ele>477</ele>
        <time>2019-09-11T10:47:33+00:00</time>
      </trkpt>
      <trkpt lat="43.311653137207" lon="-7.6530284881592">
        <ele>476</ele>
        <time>2019-09-11T10:47:34+00:00</time>
      </trkpt>
      <trkpt lat="43.311645507812" lon="-7.6530418395996">
        <ele>476</ele>
        <time>2019-09-11T10:47:35+00:00</time>
      </trkpt>
      <trkpt lat="43.311641693115" lon="-7.65305519104">
        <ele>476</ele>
        <time>2019-09-11T10:47:36+00:00</time>
      </trkpt>
      <trkpt lat="43.311637878418" lon="-7.6530652046204">
        <ele>476</ele>
        <time>2019-09-11T10:47:37+00:00</time>
      </trkpt>
      <trkpt lat="43.311630249023" lon="-7.6530733108521">
        <ele>476</ele>
        <time>2019-09-11T10:47:38+00:00</time>
      </trkpt>
      <trkpt lat="43.311626434326" lon="-7.6530833244324">
        <ele>476</ele>
        <time>2019-09-11T10:47:39+00:00</time>
      </trkpt>
      <trkpt lat="43.311618804932" lon="-7.6530966758728">
        <ele>476</ele>
        <time>2019-09-11T10:47:40+00:00</time>
      </trkpt>
      <trkpt lat="43.311611175537" lon="-7.6531100273132">
        <ele>476</ele>
        <time>2019-09-11T10:47:41+00:00</time>
      </trkpt>
      <trkpt lat="43.311603546143" lon="-7.6531200408936">
        <ele>476</ele>
        <time>2019-09-11T10:47:42+00:00</time>
      </trkpt>
      <trkpt lat="43.311588287354" lon="-7.6531367301941">
        <ele>476</ele>
        <time>2019-09-11T10:47:43+00:00</time>
      </trkpt>
      <trkpt lat="43.311580657959" lon="-7.653151512146">
        <ele>476</ele>
        <time>2019-09-11T10:47:44+00:00</time>
      </trkpt>
      <trkpt lat="43.311573028564" lon="-7.653163433075">
        <ele>476</ele>
        <time>2019-09-11T10:47:45+00:00</time>
      </trkpt>
      <trkpt lat="43.311561584473" lon="-7.6531767845154">
        <ele>476</ele>
        <time>2019-09-11T10:47:46+00:00</time>
      </trkpt>
      <trkpt lat="43.311557769775" lon="-7.6531882286072">
        <ele>476</ele>
        <time>2019-09-11T10:47:47+00:00</time>
      </trkpt>
      <trkpt lat="43.311546325684" lon="-7.6532001495361">
        <ele>476</ele>
        <time>2019-09-11T10:47:48+00:00</time>
      </trkpt>
      <trkpt lat="43.311542510986" lon="-7.6532068252563">
        <ele>476</ele>
        <time>2019-09-11T10:47:49+00:00</time>
      </trkpt>
      <trkpt lat="43.311534881592" lon="-7.6532135009766">
        <ele>476</ele>
        <time>2019-09-11T10:47:50+00:00</time>
      </trkpt>
      <trkpt lat="43.311527252197" lon="-7.6532235145569">
        <ele>476</ele>
        <time>2019-09-11T10:47:51+00:00</time>
      </trkpt>
      <trkpt lat="43.3115234375" lon="-7.6532349586487">
        <ele>476</ele>
        <time>2019-09-11T10:47:52+00:00</time>
      </trkpt>
      <trkpt lat="43.311515808105" lon="-7.6532468795776">
        <ele>476</ele>
        <time>2019-09-11T10:47:53+00:00</time>
      </trkpt>
      <trkpt lat="43.311508178711" lon="-7.6532535552979">
        <ele>476</ele>
        <time>2019-09-11T10:47:54+00:00</time>
      </trkpt>
      <trkpt lat="43.311500549316" lon="-7.6532583236694">
        <ele>476</ele>
        <time>2019-09-11T10:47:55+00:00</time>
      </trkpt>
      <trkpt lat="43.311492919922" lon="-7.6532664299011">
        <ele>476</ele>
        <time>2019-09-11T10:47:56+00:00</time>
      </trkpt>
      <trkpt lat="43.311489105225" lon="-7.6532764434814">
        <ele>477</ele>
        <time>2019-09-11T10:47:57+00:00</time>
      </trkpt>
      <trkpt lat="43.31148147583" lon="-7.653293132782">
        <ele>477</ele>
        <time>2019-09-11T10:47:58+00:00</time>
      </trkpt>
      <trkpt lat="43.311477661133" lon="-7.653308391571">
        <ele>477</ele>
        <time>2019-09-11T10:47:59+00:00</time>
      </trkpt>
      <trkpt lat="43.311473846436" lon="-7.6533217430115">
        <ele>477</ele>
        <time>2019-09-11T10:48:00+00:00</time>
      </trkpt>
      <trkpt lat="43.311470031738" lon="-7.6533331871033">
        <ele>477</ele>
        <time>2019-09-11T10:48:01+00:00</time>
      </trkpt>
      <trkpt lat="43.311466217041" lon="-7.6533484458923">
        <ele>477</ele>
        <time>2019-09-11T10:48:02+00:00</time>
      </trkpt>
      <trkpt lat="43.311466217041" lon="-7.6533584594727">
        <ele>477</ele>
        <time>2019-09-11T10:48:03+00:00</time>
      </trkpt>
      <trkpt lat="43.311458587646" lon="-7.6533732414246">
        <ele>477</ele>
        <time>2019-09-11T10:48:04+00:00</time>
      </trkpt>
      <trkpt lat="43.311454772949" lon="-7.6533918380737">
        <ele>477</ele>
        <time>2019-09-11T10:48:05+00:00</time>
      </trkpt>
      <trkpt lat="43.311450958252" lon="-7.6534051895142">
        <ele>477</ele>
        <time>2019-09-11T10:48:06+00:00</time>
      </trkpt>
      <trkpt lat="43.311443328857" lon="-7.6534118652344">
        <ele>477</ele>
        <time>2019-09-11T10:48:07+00:00</time>
      </trkpt>
      <trkpt lat="43.311435699463" lon="-7.6534218788147">
        <ele>477</ele>
        <time>2019-09-11T10:48:08+00:00</time>
      </trkpt>
      <trkpt lat="43.311431884766" lon="-7.653431892395">
        <ele>477</ele>
        <time>2019-09-11T10:48:09+00:00</time>
      </trkpt>
      <trkpt lat="43.311420440674" lon="-7.6534399986267">
        <ele>477</ele>
        <time>2019-09-11T10:48:10+00:00</time>
      </trkpt>
      <trkpt lat="43.311420440674" lon="-7.6534466743469">
        <ele>477</ele>
        <time>2019-09-11T10:48:11+00:00</time>
      </trkpt>
      <trkpt lat="43.311424255371" lon="-7.6534481048584">
        <ele>477</ele>
        <time>2019-09-11T10:48:12+00:00</time>
      </trkpt>
      <trkpt lat="43.311412811279" lon="-7.6534566879272">
        <ele>477</ele>
        <time>2019-09-11T10:48:13+00:00</time>
      </trkpt>
      <trkpt lat="43.311401367188" lon="-7.6534700393677">
        <ele>477</ele>
        <time>2019-09-11T10:48:14+00:00</time>
      </trkpt>
      <trkpt lat="43.311389923096" lon="-7.6534767150879">
        <ele>477</ele>
        <time>2019-09-11T10:48:15+00:00</time>
      </trkpt>
      <trkpt lat="43.311382293701" lon="-7.6534781455994">
        <ele>477</ele>
        <time>2019-09-11T10:48:16+00:00</time>
      </trkpt>
      <trkpt lat="43.311378479004" lon="-7.6534848213196">
        <ele>477</ele>
        <time>2019-09-11T10:48:17+00:00</time>
      </trkpt>
      <trkpt lat="43.311367034912" lon="-7.6534934043884">
        <ele>477</ele>
        <time>2019-09-11T10:48:18+00:00</time>
      </trkpt>
      <trkpt lat="43.311359405518" lon="-7.6535081863403">
        <ele>477</ele>
        <time>2019-09-11T10:48:19+00:00</time>
      </trkpt>
      <trkpt lat="43.311351776123" lon="-7.6535201072693">
        <ele>477</ele>
        <time>2019-09-11T10:48:20+00:00</time>
      </trkpt>
      <trkpt lat="43.311344146729" lon="-7.6535382270813">
        <ele>477</ele>
        <time>2019-09-11T10:48:21+00:00</time>
      </trkpt>
      <trkpt lat="43.311336517334" lon="-7.6535568237305">
        <ele>477</ele>
        <time>2019-09-11T10:48:22+00:00</time>
      </trkpt>
      <trkpt lat="43.311336517334" lon="-7.653573513031">
        <ele>478</ele>
        <time>2019-09-11T10:48:23+00:00</time>
      </trkpt>
      <trkpt lat="43.311328887939" lon="-7.6535849571228">
        <ele>478</ele>
        <time>2019-09-11T10:48:24+00:00</time>
      </trkpt>
      <trkpt lat="43.311321258545" lon="-7.653591632843">
        <ele>478</ele>
        <time>2019-09-11T10:48:25+00:00</time>
      </trkpt>
      <trkpt lat="43.31131362915" lon="-7.6536016464233">
        <ele>478</ele>
        <time>2019-09-11T10:48:26+00:00</time>
      </trkpt>
      <trkpt lat="43.311302185059" lon="-7.6536135673523">
        <ele>478</ele>
        <time>2019-09-11T10:48:27+00:00</time>
      </trkpt>
      <trkpt lat="43.311294555664" lon="-7.6536250114441">
        <ele>478</ele>
        <time>2019-09-11T10:48:28+00:00</time>
      </trkpt>
      <trkpt lat="43.311283111572" lon="-7.653639793396">
        <ele>478</ele>
        <time>2019-09-11T10:48:29+00:00</time>
      </trkpt>
      <trkpt lat="43.31127166748" lon="-7.653651714325">
        <ele>478</ele>
        <time>2019-09-11T10:48:30+00:00</time>
      </trkpt>
      <trkpt lat="43.311260223389" lon="-7.6536631584167">
        <ele>478</ele>
        <time>2019-09-11T10:48:31+00:00</time>
      </trkpt>
      <trkpt lat="43.311252593994" lon="-7.6536731719971">
        <ele>478</ele>
        <time>2019-09-11T10:48:32+00:00</time>
      </trkpt>
      <trkpt lat="43.311237335205" lon="-7.6536750793457">
        <ele>478</ele>
        <time>2019-09-11T10:48:33+00:00</time>
      </trkpt>
      <trkpt lat="43.311222076416" lon="-7.6536865234375">
        <ele>478</ele>
        <time>2019-09-11T10:48:34+00:00</time>
      </trkpt>
      <trkpt lat="43.311206817627" lon="-7.6537051200867">
        <ele>478</ele>
        <time>2019-09-11T10:48:35+00:00</time>
      </trkpt>
      <trkpt lat="43.311191558838" lon="-7.6537165641785">
        <ele>479</ele>
        <time>2019-09-11T10:48:36+00:00</time>
      </trkpt>
      <trkpt lat="43.311180114746" lon="-7.6537251472473">
        <ele>479</ele>
        <time>2019-09-11T10:48:37+00:00</time>
      </trkpt>
      <trkpt lat="43.311172485352" lon="-7.6537365913391">
        <ele>479</ele>
        <time>2019-09-11T10:48:38+00:00</time>
      </trkpt>
      <trkpt lat="43.311164855957" lon="-7.6537532806396">
        <ele>479</ele>
        <time>2019-09-11T10:48:39+00:00</time>
      </trkpt>
      <trkpt lat="43.311157226562" lon="-7.6537685394287">
        <ele>479</ele>
        <time>2019-09-11T10:48:40+00:00</time>
      </trkpt>
      <trkpt lat="43.311149597168" lon="-7.6537833213806">
        <ele>479</ele>
        <time>2019-09-11T10:48:41+00:00</time>
      </trkpt>
      <trkpt lat="43.311138153076" lon="-7.6537933349609">
        <ele>479</ele>
        <time>2019-09-11T10:48:42+00:00</time>
      </trkpt>
      <trkpt lat="43.311130523682" lon="-7.6538047790527">
        <ele>479</ele>
        <time>2019-09-11T10:48:43+00:00</time>
      </trkpt>
      <trkpt lat="43.31111907959" lon="-7.6538114547729">
        <ele>479</ele>
        <time>2019-09-11T10:48:44+00:00</time>
      </trkpt>
      <trkpt lat="43.311111450195" lon="-7.6538233757019">
        <ele>479</ele>
        <time>2019-09-11T10:48:45+00:00</time>
      </trkpt>
      <trkpt lat="43.311100006104" lon="-7.6538381576538">
        <ele>479</ele>
        <time>2019-09-11T10:48:46+00:00</time>
      </trkpt>
      <trkpt lat="43.311092376709" lon="-7.6538534164429">
        <ele>479</ele>
        <time>2019-09-11T10:48:47+00:00</time>
      </trkpt>
      <trkpt lat="43.311088562012" lon="-7.6538681983948">
        <ele>479</ele>
        <time>2019-09-11T10:48:48+00:00</time>
      </trkpt>
      <trkpt lat="43.311084747314" lon="-7.6538867950439">
        <ele>479</ele>
        <time>2019-09-11T10:48:49+00:00</time>
      </trkpt>
      <trkpt lat="43.311073303223" lon="-7.6539034843445">
        <ele>480</ele>
        <time>2019-09-11T10:48:50+00:00</time>
      </trkpt>
      <trkpt lat="43.311065673828" lon="-7.6539134979248">
        <ele>480</ele>
        <time>2019-09-11T10:48:51+00:00</time>
      </trkpt>
      <trkpt lat="43.311054229736" lon="-7.653920173645">
        <ele>479</ele>
        <time>2019-09-11T10:48:52+00:00</time>
      </trkpt>
      <trkpt lat="43.311046600342" lon="-7.6539268493652">
        <ele>479</ele>
        <time>2019-09-11T10:48:53+00:00</time>
      </trkpt>
      <trkpt lat="43.311042785645" lon="-7.6539316177368">
        <ele>479</ele>
        <time>2019-09-11T10:48:54+00:00</time>
      </trkpt>
      <trkpt lat="43.31103515625" lon="-7.6539449691772">
        <ele>479</ele>
        <time>2019-09-11T10:48:55+00:00</time>
      </trkpt>
      <trkpt lat="43.311027526855" lon="-7.6539602279663">
        <ele>479</ele>
        <time>2019-09-11T10:48:56+00:00</time>
      </trkpt>
      <trkpt lat="43.311019897461" lon="-7.6539669036865">
        <ele>479</ele>
        <time>2019-09-11T10:48:57+00:00</time>
      </trkpt>
      <trkpt lat="43.311012268066" lon="-7.6539797782898">
        <ele>479</ele>
        <time>2019-09-11T10:48:58+00:00</time>
      </trkpt>
      <trkpt lat="43.311004638672" lon="-7.6539931297302">
        <ele>479</ele>
        <time>2019-09-11T10:48:59+00:00</time>
      </trkpt>
      <trkpt lat="43.311000823975" lon="-7.6540031433105">
        <ele>479</ele>
        <time>2019-09-11T10:49:00+00:00</time>
      </trkpt>
      <trkpt lat="43.31099319458" lon="-7.6540117263794">
        <ele>479</ele>
        <time>2019-09-11T10:49:01+00:00</time>
      </trkpt>
      <trkpt lat="43.31099319458" lon="-7.6540184020996">
        <ele>479</ele>
        <time>2019-09-11T10:49:02+00:00</time>
      </trkpt>
      <trkpt lat="43.310985565186" lon="-7.6540284156799">
        <ele>479</ele>
        <time>2019-09-11T10:49:03+00:00</time>
      </trkpt>
      <trkpt lat="43.310981750488" lon="-7.6540384292603">
        <ele>479</ele>
        <time>2019-09-11T10:49:04+00:00</time>
      </trkpt>
      <trkpt lat="43.310977935791" lon="-7.6540551185608">
        <ele>479</ele>
        <time>2019-09-11T10:49:05+00:00</time>
      </trkpt>
      <trkpt lat="43.310974121094" lon="-7.6540718078613">
        <ele>479</ele>
        <time>2019-09-11T10:49:06+00:00</time>
      </trkpt>
      <trkpt lat="43.310966491699" lon="-7.6540865898132">
        <ele>479</ele>
        <time>2019-09-11T10:49:07+00:00</time>
      </trkpt>
      <trkpt lat="43.310962677002" lon="-7.654091835022">
        <ele>478</ele>
        <time>2019-09-11T10:49:08+00:00</time>
      </trkpt>
      <trkpt lat="43.310955047607" lon="-7.6541051864624">
        <ele>478</ele>
        <time>2019-09-11T10:49:09+00:00</time>
      </trkpt>
      <trkpt lat="43.31095123291" lon="-7.6541166305542">
        <ele>478</ele>
        <time>2019-09-11T10:49:10+00:00</time>
      </trkpt>
      <trkpt lat="43.310939788818" lon="-7.6541333198547">
        <ele>478</ele>
        <time>2019-09-11T10:49:11+00:00</time>
      </trkpt>
      <trkpt lat="43.310935974121" lon="-7.6541533470154">
        <ele>478</ele>
        <time>2019-09-11T10:49:12+00:00</time>
      </trkpt>
      <trkpt lat="43.310932159424" lon="-7.6541714668274">
        <ele>477</ele>
        <time>2019-09-11T10:49:13+00:00</time>
      </trkpt>
      <trkpt lat="43.310924530029" lon="-7.6541881561279">
        <ele>477</ele>
        <time>2019-09-11T10:49:14+00:00</time>
      </trkpt>
      <trkpt lat="43.310916900635" lon="-7.6542048454285">
        <ele>477</ele>
        <time>2019-09-11T10:49:15+00:00</time>
      </trkpt>
      <trkpt lat="43.310905456543" lon="-7.6542201042175">
        <ele>477</ele>
        <time>2019-09-11T10:49:16+00:00</time>
      </trkpt>
      <trkpt lat="43.310897827148" lon="-7.6542267799377">
        <ele>477</ele>
        <time>2019-09-11T10:49:17+00:00</time>
      </trkpt>
      <trkpt lat="43.310890197754" lon="-7.6542382240295">
        <ele>477</ele>
        <time>2019-09-11T10:49:18+00:00</time>
      </trkpt>
      <trkpt lat="43.310878753662" lon="-7.6542482376099">
        <ele>477</ele>
        <time>2019-09-11T10:49:19+00:00</time>
      </trkpt>
      <trkpt lat="43.310871124268" lon="-7.6542615890503">
        <ele>477</ele>
        <time>2019-09-11T10:49:20+00:00</time>
      </trkpt>
      <trkpt lat="43.310863494873" lon="-7.6542768478394">
        <ele>477</ele>
        <time>2019-09-11T10:49:21+00:00</time>
      </trkpt>
      <trkpt lat="43.310859680176" lon="-7.6542882919312">
        <ele>477</ele>
        <time>2019-09-11T10:49:22+00:00</time>
      </trkpt>
      <trkpt lat="43.310855865479" lon="-7.6543035507202">
        <ele>477</ele>
        <time>2019-09-11T10:49:23+00:00</time>
      </trkpt>
      <trkpt lat="43.310848236084" lon="-7.6543197631836">
        <ele>477</ele>
        <time>2019-09-11T10:49:24+00:00</time>
      </trkpt>
      <trkpt lat="43.310840606689" lon="-7.654333114624">
        <ele>477</ele>
        <time>2019-09-11T10:49:25+00:00</time>
      </trkpt>
      <trkpt lat="43.310829162598" lon="-7.6543483734131">
        <ele>477</ele>
        <time>2019-09-11T10:49:26+00:00</time>
      </trkpt>
      <trkpt lat="43.310821533203" lon="-7.6543617248535">
        <ele>477</ele>
        <time>2019-09-11T10:49:27+00:00</time>
      </trkpt>
      <trkpt lat="43.310817718506" lon="-7.6543731689453">
        <ele>477</ele>
        <time>2019-09-11T10:49:28+00:00</time>
      </trkpt>
      <trkpt lat="43.310810089111" lon="-7.6543865203857">
        <ele>477</ele>
        <time>2019-09-11T10:49:29+00:00</time>
      </trkpt>
      <trkpt lat="43.310810089111" lon="-7.6544051170349">
        <ele>477</ele>
        <time>2019-09-11T10:49:30+00:00</time>
      </trkpt>
      <trkpt lat="43.310802459717" lon="-7.6544165611267">
        <ele>477</ele>
        <time>2019-09-11T10:49:31+00:00</time>
      </trkpt>
      <trkpt lat="43.310802459717" lon="-7.6544284820557">
        <ele>477</ele>
        <time>2019-09-11T10:49:32+00:00</time>
      </trkpt>
      <trkpt lat="43.310794830322" lon="-7.6544418334961">
        <ele>477</ele>
        <time>2019-09-11T10:49:33+00:00</time>
      </trkpt>
      <trkpt lat="43.310791015625" lon="-7.6544585227966">
        <ele>477</ele>
        <time>2019-09-11T10:49:34+00:00</time>
      </trkpt>
      <trkpt lat="43.31078338623" lon="-7.654468536377">
        <ele>477</ele>
        <time>2019-09-11T10:49:35+00:00</time>
      </trkpt>
      <trkpt lat="43.310775756836" lon="-7.6544752120972">
        <ele>477</ele>
        <time>2019-09-11T10:49:36+00:00</time>
      </trkpt>
      <trkpt lat="43.310771942139" lon="-7.654486656189">
        <ele>476</ele>
        <time>2019-09-11T10:49:37+00:00</time>
      </trkpt>
      <trkpt lat="43.310768127441" lon="-7.6544966697693">
        <ele>476</ele>
        <time>2019-09-11T10:49:38+00:00</time>
      </trkpt>
      <trkpt lat="43.310768127441" lon="-7.6545147895813">
        <ele>476</ele>
        <time>2019-09-11T10:49:39+00:00</time>
      </trkpt>
      <trkpt lat="43.310764312744" lon="-7.6545248031616">
        <ele>476</ele>
        <time>2019-09-11T10:49:40+00:00</time>
      </trkpt>
      <trkpt lat="43.310760498047" lon="-7.6545333862305">
        <ele>476</ele>
        <time>2019-09-11T10:49:41+00:00</time>
      </trkpt>
      <trkpt lat="43.31075668335" lon="-7.6545414924622">
        <ele>476</ele>
        <time>2019-09-11T10:49:42+00:00</time>
      </trkpt>
      <trkpt lat="43.310745239258" lon="-7.6545467376709">
        <ele>476</ele>
        <time>2019-09-11T10:49:43+00:00</time>
      </trkpt>
      <trkpt lat="43.310745239258" lon="-7.6545567512512">
        <ele>476</ele>
        <time>2019-09-11T10:49:44+00:00</time>
      </trkpt>
      <trkpt lat="43.310733795166" lon="-7.654568195343">
        <ele>476</ele>
        <time>2019-09-11T10:49:45+00:00</time>
      </trkpt>
      <trkpt lat="43.310726165771" lon="-7.654580116272">
        <ele>476</ele>
        <time>2019-09-11T10:49:46+00:00</time>
      </trkpt>
      <trkpt lat="43.310718536377" lon="-7.6545948982239">
        <ele>476</ele>
        <time>2019-09-11T10:49:47+00:00</time>
      </trkpt>
      <trkpt lat="43.310707092285" lon="-7.6546068191528">
        <ele>476</ele>
        <time>2019-09-11T10:49:48+00:00</time>
      </trkpt>
      <trkpt lat="43.310703277588" lon="-7.6546182632446">
        <ele>475</ele>
        <time>2019-09-11T10:49:49+00:00</time>
      </trkpt>
      <trkpt lat="43.310691833496" lon="-7.6546368598938">
        <ele>475</ele>
        <time>2019-09-11T10:49:50+00:00</time>
      </trkpt>
      <trkpt lat="43.310688018799" lon="-7.6546502113342">
        <ele>475</ele>
        <time>2019-09-11T10:49:51+00:00</time>
      </trkpt>
      <trkpt lat="43.310680389404" lon="-7.654661655426">
        <ele>475</ele>
        <time>2019-09-11T10:49:52+00:00</time>
      </trkpt>
      <trkpt lat="43.310676574707" lon="-7.6546783447266">
        <ele>475</ele>
        <time>2019-09-11T10:49:53+00:00</time>
      </trkpt>
      <trkpt lat="43.310668945312" lon="-7.6546950340271">
        <ele>474</ele>
        <time>2019-09-11T10:49:54+00:00</time>
      </trkpt>
      <trkpt lat="43.310665130615" lon="-7.6547050476074">
        <ele>474</ele>
        <time>2019-09-11T10:49:55+00:00</time>
      </trkpt>
      <trkpt lat="43.310657501221" lon="-7.6547150611877">
        <ele>474</ele>
        <time>2019-09-11T10:49:56+00:00</time>
      </trkpt>
      <trkpt lat="43.310653686523" lon="-7.6547284126282">
        <ele>474</ele>
        <time>2019-09-11T10:49:57+00:00</time>
      </trkpt>
      <trkpt lat="43.310649871826" lon="-7.6547451019287">
        <ele>474</ele>
        <time>2019-09-11T10:49:58+00:00</time>
      </trkpt>
      <trkpt lat="43.310642242432" lon="-7.6547651290894">
        <ele>474</ele>
        <time>2019-09-11T10:49:59+00:00</time>
      </trkpt>
      <trkpt lat="43.310638427734" lon="-7.6547884941101">
        <ele>474</ele>
        <time>2019-09-11T10:50:00+00:00</time>
      </trkpt>
      <trkpt lat="43.310634613037" lon="-7.6548018455505">
        <ele>473</ele>
        <time>2019-09-11T10:50:01+00:00</time>
      </trkpt>
      <trkpt lat="43.310626983643" lon="-7.6548166275024">
        <ele>473</ele>
        <time>2019-09-11T10:50:02+00:00</time>
      </trkpt>
      <trkpt lat="43.310619354248" lon="-7.6548285484314">
        <ele>473</ele>
        <time>2019-09-11T10:50:03+00:00</time>
      </trkpt>
      <trkpt lat="43.310615539551" lon="-7.6548500061035">
        <ele>473</ele>
        <time>2019-09-11T10:50:04+00:00</time>
      </trkpt>
      <trkpt lat="43.310615539551" lon="-7.6548666954041">
        <ele>473</ele>
        <time>2019-09-11T10:50:05+00:00</time>
      </trkpt>
      <trkpt lat="43.310611724854" lon="-7.6548848152161">
        <ele>473</ele>
        <time>2019-09-11T10:50:06+00:00</time>
      </trkpt>
      <trkpt lat="43.310611724854" lon="-7.6548981666565">
        <ele>473</ele>
        <time>2019-09-11T10:50:07+00:00</time>
      </trkpt>
      <trkpt lat="43.310611724854" lon="-7.6549100875854">
        <ele>473</ele>
        <time>2019-09-11T10:50:08+00:00</time>
      </trkpt>
      <trkpt lat="43.310607910156" lon="-7.6549181938171">
        <ele>473</ele>
        <time>2019-09-11T10:50:09+00:00</time>
      </trkpt>
      <trkpt lat="43.310600280762" lon="-7.6549234390259">
        <ele>472</ele>
        <time>2019-09-11T10:50:10+00:00</time>
      </trkpt>
      <trkpt lat="43.310596466064" lon="-7.6549367904663">
        <ele>472</ele>
        <time>2019-09-11T10:50:11+00:00</time>
      </trkpt>
      <trkpt lat="43.310592651367" lon="-7.654944896698">
        <ele>472</ele>
        <time>2019-09-11T10:50:12+00:00</time>
      </trkpt>
      <trkpt lat="43.310592651367" lon="-7.6549582481384">
        <ele>472</ele>
        <time>2019-09-11T10:50:13+00:00</time>
      </trkpt>
      <trkpt lat="43.31058883667" lon="-7.6549715995789">
        <ele>472</ele>
        <time>2019-09-11T10:50:14+00:00</time>
      </trkpt>
      <trkpt lat="43.310585021973" lon="-7.6549835205078">
        <ele>472</ele>
        <time>2019-09-11T10:50:15+00:00</time>
      </trkpt>
      <trkpt lat="43.310577392578" lon="-7.6550002098083">
        <ele>472</ele>
        <time>2019-09-11T10:50:16+00:00</time>
      </trkpt>
      <trkpt lat="43.310573577881" lon="-7.65500831604">
        <ele>471</ele>
        <time>2019-09-11T10:50:17+00:00</time>
      </trkpt>
      <trkpt lat="43.310569763184" lon="-7.655020236969">
        <ele>471</ele>
        <time>2019-09-11T10:50:18+00:00</time>
      </trkpt>
      <trkpt lat="43.310562133789" lon="-7.6550297737122">
        <ele>471</ele>
        <time>2019-09-11T10:50:19+00:00</time>
      </trkpt>
      <trkpt lat="43.310558319092" lon="-7.6550331115723">
        <ele>471</ele>
        <time>2019-09-11T10:50:20+00:00</time>
      </trkpt>
      <trkpt lat="43.310558319092" lon="-7.655038356781">
        <ele>471</ele>
        <time>2019-09-11T10:50:21+00:00</time>
      </trkpt>
      <trkpt lat="43.310558319092" lon="-7.6550498008728">
        <ele>471</ele>
        <time>2019-09-11T10:50:22+00:00</time>
      </trkpt>
      <trkpt lat="43.310558319092" lon="-7.6550583839417">
        <ele>471</ele>
        <time>2019-09-11T10:50:23+00:00</time>
      </trkpt>
      <trkpt lat="43.310562133789" lon="-7.655068397522">
        <ele>471</ele>
        <time>2019-09-11T10:50:24+00:00</time>
      </trkpt>
      <trkpt lat="43.310562133789" lon="-7.6550798416138">
        <ele>471</ele>
        <time>2019-09-11T10:50:25+00:00</time>
      </trkpt>
      <trkpt lat="43.310558319092" lon="-7.6550931930542">
        <ele>471</ele>
        <time>2019-09-11T10:50:26+00:00</time>
      </trkpt>
      <trkpt lat="43.310558319092" lon="-7.6551084518433">
        <ele>471</ele>
        <time>2019-09-11T10:50:27+00:00</time>
      </trkpt>
      <trkpt lat="43.310554504395" lon="-7.6551198959351">
        <ele>471</ele>
        <time>2019-09-11T10:50:28+00:00</time>
      </trkpt>
      <trkpt lat="43.310550689697" lon="-7.6551365852356">
        <ele>471</ele>
        <time>2019-09-11T10:50:29+00:00</time>
      </trkpt>
      <trkpt lat="43.310546875" lon="-7.655149936676">
        <ele>471</ele>
        <time>2019-09-11T10:50:30+00:00</time>
      </trkpt>
      <trkpt lat="43.310546875" lon="-7.6551685333252">
        <ele>471</ele>
        <time>2019-09-11T10:50:31+00:00</time>
      </trkpt>
      <trkpt lat="43.310543060303" lon="-7.655179977417">
        <ele>471</ele>
        <time>2019-09-11T10:50:32+00:00</time>
      </trkpt>
      <trkpt lat="43.310535430908" lon="-7.6551966667175">
        <ele>470</ele>
        <time>2019-09-11T10:50:33+00:00</time>
      </trkpt>
      <trkpt lat="43.310531616211" lon="-7.6552081108093">
        <ele>470</ele>
        <time>2019-09-11T10:50:34+00:00</time>
      </trkpt>
      <trkpt lat="43.310523986816" lon="-7.6552267074585">
        <ele>470</ele>
        <time>2019-09-11T10:50:35+00:00</time>
      </trkpt>
      <trkpt lat="43.310516357422" lon="-7.6552414894104">
        <ele>470</ele>
        <time>2019-09-11T10:50:36+00:00</time>
      </trkpt>
      <trkpt lat="43.310508728027" lon="-7.6552567481995">
        <ele>470</ele>
        <time>2019-09-11T10:50:37+00:00</time>
      </trkpt>
      <trkpt lat="43.310501098633" lon="-7.655261516571">
        <ele>470</ele>
        <time>2019-09-11T10:50:38+00:00</time>
      </trkpt>
      <trkpt lat="43.310489654541" lon="-7.6552648544312">
        <ele>470</ele>
        <time>2019-09-11T10:50:39+00:00</time>
      </trkpt>
      <trkpt lat="43.310482025146" lon="-7.6552734375">
        <ele>470</ele>
        <time>2019-09-11T10:50:40+00:00</time>
      </trkpt>
      <trkpt lat="43.310478210449" lon="-7.6552748680115">
        <ele>470</ele>
        <time>2019-09-11T10:50:41+00:00</time>
      </trkpt>
      <trkpt lat="43.310466766357" lon="-7.6552815437317">
        <ele>470</ele>
        <time>2019-09-11T10:50:42+00:00</time>
      </trkpt>
      <trkpt lat="43.310459136963" lon="-7.6552901268005">
        <ele>470</ele>
        <time>2019-09-11T10:50:43+00:00</time>
      </trkpt>
      <trkpt lat="43.310451507568" lon="-7.6553001403809">
        <ele>470</ele>
        <time>2019-09-11T10:50:44+00:00</time>
      </trkpt>
      <trkpt lat="43.310440063477" lon="-7.6553134918213">
        <ele>469</ele>
        <time>2019-09-11T10:50:45+00:00</time>
      </trkpt>
      <trkpt lat="43.310432434082" lon="-7.6553249359131">
        <ele>469</ele>
        <time>2019-09-11T10:50:46+00:00</time>
      </trkpt>
      <trkpt lat="43.310424804688" lon="-7.655336856842">
        <ele>469</ele>
        <time>2019-09-11T10:50:47+00:00</time>
      </trkpt>
      <trkpt lat="43.31042098999" lon="-7.6553516387939">
        <ele>469</ele>
        <time>2019-09-11T10:50:48+00:00</time>
      </trkpt>
      <trkpt lat="43.310413360596" lon="-7.655366897583">
        <ele>469</ele>
        <time>2019-09-11T10:50:49+00:00</time>
      </trkpt>
      <trkpt lat="43.310401916504" lon="-7.6553831100464">
        <ele>469</ele>
        <time>2019-09-11T10:50:50+00:00</time>
      </trkpt>
      <trkpt lat="43.310398101807" lon="-7.6553931236267">
        <ele>469</ele>
        <time>2019-09-11T10:50:51+00:00</time>
      </trkpt>
      <trkpt lat="43.310386657715" lon="-7.655403137207">
        <ele>469</ele>
        <time>2019-09-11T10:50:52+00:00</time>
      </trkpt>
      <trkpt lat="43.310386657715" lon="-7.6554117202759">
        <ele>469</ele>
        <time>2019-09-11T10:50:53+00:00</time>
      </trkpt>
      <trkpt lat="43.310382843018" lon="-7.6554231643677">
        <ele>469</ele>
        <time>2019-09-11T10:50:54+00:00</time>
      </trkpt>
      <trkpt lat="43.31037902832" lon="-7.6554365158081">
        <ele>469</ele>
        <time>2019-09-11T10:50:55+00:00</time>
      </trkpt>
      <trkpt lat="43.310375213623" lon="-7.6554498672485">
        <ele>469</ele>
        <time>2019-09-11T10:50:56+00:00</time>
      </trkpt>
      <trkpt lat="43.310371398926" lon="-7.6554565429688">
        <ele>469</ele>
        <time>2019-09-11T10:50:57+00:00</time>
      </trkpt>
      <trkpt lat="43.310367584229" lon="-7.6554665565491">
        <ele>470</ele>
        <time>2019-09-11T10:50:58+00:00</time>
      </trkpt>
      <trkpt lat="43.310359954834" lon="-7.6554818153381">
        <ele>470</ele>
        <time>2019-09-11T10:50:59+00:00</time>
      </trkpt>
      <trkpt lat="43.310356140137" lon="-7.6554932594299">
        <ele>470</ele>
        <time>2019-09-11T10:51:00+00:00</time>
      </trkpt>
      <trkpt lat="43.310344696045" lon="-7.6555066108704">
        <ele>470</ele>
        <time>2019-09-11T10:51:01+00:00</time>
      </trkpt>
      <trkpt lat="43.310333251953" lon="-7.6555199623108">
        <ele>470</ele>
        <time>2019-09-11T10:51:02+00:00</time>
      </trkpt>
      <trkpt lat="43.310325622559" lon="-7.6555366516113">
        <ele>470</ele>
        <time>2019-09-11T10:51:03+00:00</time>
      </trkpt>
      <trkpt lat="43.310314178467" lon="-7.6555547714233">
        <ele>470</ele>
        <time>2019-09-11T10:51:04+00:00</time>
      </trkpt>
      <trkpt lat="43.31031036377" lon="-7.655574798584">
        <ele>470</ele>
        <time>2019-09-11T10:51:05+00:00</time>
      </trkpt>
      <trkpt lat="43.310302734375" lon="-7.6555914878845">
        <ele>470</ele>
        <time>2019-09-11T10:51:06+00:00</time>
      </trkpt>
      <trkpt lat="43.31029510498" lon="-7.6556115150452">
        <ele>471</ele>
        <time>2019-09-11T10:51:07+00:00</time>
      </trkpt>
      <trkpt lat="43.310287475586" lon="-7.6556315422058">
        <ele>471</ele>
        <time>2019-09-11T10:51:08+00:00</time>
      </trkpt>
      <trkpt lat="43.310279846191" lon="-7.6556549072266">
        <ele>471</ele>
        <time>2019-09-11T10:51:09+00:00</time>
      </trkpt>
      <trkpt lat="43.310276031494" lon="-7.6556715965271">
        <ele>471</ele>
        <time>2019-09-11T10:51:10+00:00</time>
      </trkpt>
      <trkpt lat="43.310272216797" lon="-7.6556916236877">
        <ele>471</ele>
        <time>2019-09-11T10:51:11+00:00</time>
      </trkpt>
      <trkpt lat="43.310264587402" lon="-7.6557183265686">
        <ele>471</ele>
        <time>2019-09-11T10:51:12+00:00</time>
      </trkpt>
      <trkpt lat="43.310253143311" lon="-7.6557397842407">
        <ele>471</ele>
        <time>2019-09-11T10:51:13+00:00</time>
      </trkpt>
      <trkpt lat="43.310241699219" lon="-7.6557650566101">
        <ele>471</ele>
        <time>2019-09-11T10:51:14+00:00</time>
      </trkpt>
      <trkpt lat="43.310234069824" lon="-7.6557784080505">
        <ele>471</ele>
        <time>2019-09-11T10:51:15+00:00</time>
      </trkpt>
      <trkpt lat="43.31022644043" lon="-7.6557884216309">
        <ele>471</ele>
        <time>2019-09-11T10:51:16+00:00</time>
      </trkpt>
      <trkpt lat="43.310211181641" lon="-7.6558051109314">
        <ele>471</ele>
        <time>2019-09-11T10:51:17+00:00</time>
      </trkpt>
      <trkpt lat="43.310203552246" lon="-7.6558165550232">
        <ele>471</ele>
        <time>2019-09-11T10:51:18+00:00</time>
      </trkpt>
      <trkpt lat="43.310195922852" lon="-7.6558299064636">
        <ele>471</ele>
        <time>2019-09-11T10:51:19+00:00</time>
      </trkpt>
      <trkpt lat="43.310192108154" lon="-7.6558418273926">
        <ele>471</ele>
        <time>2019-09-11T10:51:20+00:00</time>
      </trkpt>
      <trkpt lat="43.310188293457" lon="-7.6558599472046">
        <ele>471</ele>
        <time>2019-09-11T10:51:21+00:00</time>
      </trkpt>
      <trkpt lat="43.310188293457" lon="-7.6558599472046">
        <ele>471</ele>
        <time>2019-09-11T10:51:22+00:00</time>
      </trkpt>
      <trkpt lat="43.31018447876" lon="-7.6558632850647">
        <ele>471</ele>
        <time>2019-09-11T10:51:23+00:00</time>
      </trkpt>
      <trkpt lat="43.310176849365" lon="-7.6558699607849">
        <ele>471</ele>
        <time>2019-09-11T10:51:24+00:00</time>
      </trkpt>
      <trkpt lat="43.310173034668" lon="-7.6558866500854">
        <ele>471</ele>
        <time>2019-09-11T10:51:25+00:00</time>
      </trkpt>
      <trkpt lat="43.310169219971" lon="-7.6558952331543">
        <ele>471</ele>
        <time>2019-09-11T10:51:26+00:00</time>
      </trkpt>
      <trkpt lat="43.310161590576" lon="-7.6559081077576">
        <ele>470</ele>
        <time>2019-09-11T10:51:27+00:00</time>
      </trkpt>
      <trkpt lat="43.310157775879" lon="-7.6559233665466">
        <ele>470</ele>
        <time>2019-09-11T10:51:28+00:00</time>
      </trkpt>
      <trkpt lat="43.310150146484" lon="-7.6559400558472">
        <ele>470</ele>
        <time>2019-09-11T10:51:29+00:00</time>
      </trkpt>
      <trkpt lat="43.31014251709" lon="-7.6559581756592">
        <ele>470</ele>
        <time>2019-09-11T10:51:30+00:00</time>
      </trkpt>
      <trkpt lat="43.310134887695" lon="-7.6559715270996">
        <ele>470</ele>
        <time>2019-09-11T10:51:31+00:00</time>
      </trkpt>
      <trkpt lat="43.310127258301" lon="-7.6559882164001">
        <ele>470</ele>
        <time>2019-09-11T10:51:32+00:00</time>
      </trkpt>
      <trkpt lat="43.310115814209" lon="-7.6560068130493">
        <ele>470</ele>
        <time>2019-09-11T10:51:33+00:00</time>
      </trkpt>
      <trkpt lat="43.310111999512" lon="-7.6560182571411">
        <ele>470</ele>
        <time>2019-09-11T10:51:34+00:00</time>
      </trkpt>
      <trkpt lat="43.310108184814" lon="-7.6560316085815">
        <ele>470</ele>
        <time>2019-09-11T10:51:35+00:00</time>
      </trkpt>
      <trkpt lat="43.31010055542" lon="-7.6560482978821">
        <ele>470</ele>
        <time>2019-09-11T10:51:36+00:00</time>
      </trkpt>
      <trkpt lat="43.310096740723" lon="-7.6560716629028">
        <ele>470</ele>
        <time>2019-09-11T10:51:37+00:00</time>
      </trkpt>
      <trkpt lat="43.310096740723" lon="-7.6560916900635">
        <ele>470</ele>
        <time>2019-09-11T10:51:38+00:00</time>
      </trkpt>
      <trkpt lat="43.310089111328" lon="-7.6561017036438">
        <ele>470</ele>
        <time>2019-09-11T10:51:39+00:00</time>
      </trkpt>
      <trkpt lat="43.310081481934" lon="-7.6561098098755">
        <ele>470</ele>
        <time>2019-09-11T10:51:40+00:00</time>
      </trkpt>
      <trkpt lat="43.310081481934" lon="-7.6561284065247">
        <ele>471</ele>
        <time>2019-09-11T10:51:41+00:00</time>
      </trkpt>
      <trkpt lat="43.310077667236" lon="-7.6561450958252">
        <ele>471</ele>
        <time>2019-09-11T10:51:42+00:00</time>
      </trkpt>
      <trkpt lat="43.310073852539" lon="-7.6561684608459">
        <ele>471</ele>
        <time>2019-09-11T10:51:43+00:00</time>
      </trkpt>
      <trkpt lat="43.310070037842" lon="-7.656186580658">
        <ele>471</ele>
        <time>2019-09-11T10:51:44+00:00</time>
      </trkpt>
      <trkpt lat="43.310066223145" lon="-7.656201839447">
        <ele>471</ele>
        <time>2019-09-11T10:51:45+00:00</time>
      </trkpt>
      <trkpt lat="43.310062408447" lon="-7.6562132835388">
        <ele>471</ele>
        <time>2019-09-11T10:51:46+00:00</time>
      </trkpt>
      <trkpt lat="43.310054779053" lon="-7.6562266349792">
        <ele>471</ele>
        <time>2019-09-11T10:51:47+00:00</time>
      </trkpt>
      <trkpt lat="43.310050964355" lon="-7.6562418937683">
        <ele>471</ele>
        <time>2019-09-11T10:51:48+00:00</time>
      </trkpt>
      <trkpt lat="43.310043334961" lon="-7.6562547683716">
        <ele>471</ele>
        <time>2019-09-11T10:51:49+00:00</time>
      </trkpt>
      <trkpt lat="43.310039520264" lon="-7.6562700271606">
        <ele>471</ele>
        <time>2019-09-11T10:51:50+00:00</time>
      </trkpt>
      <trkpt lat="43.310035705566" lon="-7.6562833786011">
        <ele>471</ele>
        <time>2019-09-11T10:51:51+00:00</time>
      </trkpt>
      <trkpt lat="43.310031890869" lon="-7.6563014984131">
        <ele>471</ele>
        <time>2019-09-11T10:51:52+00:00</time>
      </trkpt>
      <trkpt lat="43.310031890869" lon="-7.6563148498535">
        <ele>471</ele>
        <time>2019-09-11T10:51:53+00:00</time>
      </trkpt>
      <trkpt lat="43.310031890869" lon="-7.6563282012939">
        <ele>471</ele>
        <time>2019-09-11T10:51:54+00:00</time>
      </trkpt>
      <trkpt lat="43.310024261475" lon="-7.6563401222229">
        <ele>471</ele>
        <time>2019-09-11T10:51:55+00:00</time>
      </trkpt>
      <trkpt lat="43.310012817383" lon="-7.6563549041748">
        <ele>471</ele>
        <time>2019-09-11T10:51:56+00:00</time>
      </trkpt>
      <trkpt lat="43.310005187988" lon="-7.6563649177551">
        <ele>471</ele>
        <time>2019-09-11T10:51:57+00:00</time>
      </trkpt>
      <trkpt lat="43.310001373291" lon="-7.6563768386841">
        <ele>471</ele>
        <time>2019-09-11T10:51:58+00:00</time>
      </trkpt>
      <trkpt lat="43.309989929199" lon="-7.6563882827759">
        <ele>471</ele>
        <time>2019-09-11T10:51:59+00:00</time>
      </trkpt>
      <trkpt lat="43.309982299805" lon="-7.6563968658447">
        <ele>471</ele>
        <time>2019-09-11T10:52:00+00:00</time>
      </trkpt>
      <trkpt lat="43.30997467041" lon="-7.6564083099365">
        <ele>471</ele>
        <time>2019-09-11T10:52:01+00:00</time>
      </trkpt>
      <trkpt lat="43.309963226318" lon="-7.6564183235168">
        <ele>471</ele>
        <time>2019-09-11T10:52:02+00:00</time>
      </trkpt>
      <trkpt lat="43.309951782227" lon="-7.6564283370972">
        <ele>471</ele>
        <time>2019-09-11T10:52:03+00:00</time>
      </trkpt>
      <trkpt lat="43.309947967529" lon="-7.6564431190491">
        <ele>471</ele>
        <time>2019-09-11T10:52:04+00:00</time>
      </trkpt>
      <trkpt lat="43.309944152832" lon="-7.6564583778381">
        <ele>470</ele>
        <time>2019-09-11T10:52:05+00:00</time>
      </trkpt>
      <trkpt lat="43.309940338135" lon="-7.6564683914185">
        <ele>470</ele>
        <time>2019-09-11T10:52:06+00:00</time>
      </trkpt>
      <trkpt lat="43.309936523438" lon="-7.6564831733704">
        <ele>470</ele>
        <time>2019-09-11T10:52:07+00:00</time>
      </trkpt>
      <trkpt lat="43.309928894043" lon="-7.6564984321594">
        <ele>470</ele>
        <time>2019-09-11T10:52:08+00:00</time>
      </trkpt>
      <trkpt lat="43.309925079346" lon="-7.6565098762512">
        <ele>470</ele>
        <time>2019-09-11T10:52:09+00:00</time>
      </trkpt>
      <trkpt lat="43.309921264648" lon="-7.6565265655518">
        <ele>470</ele>
        <time>2019-09-11T10:52:10+00:00</time>
      </trkpt>
      <trkpt lat="43.309913635254" lon="-7.6565465927124">
        <ele>470</ele>
        <time>2019-09-11T10:52:11+00:00</time>
      </trkpt>
      <trkpt lat="43.309909820557" lon="-7.6565651893616">
        <ele>470</ele>
        <time>2019-09-11T10:52:12+00:00</time>
      </trkpt>
      <trkpt lat="43.309906005859" lon="-7.6565833091736">
        <ele>470</ele>
        <time>2019-09-11T10:52:13+00:00</time>
      </trkpt>
      <trkpt lat="43.309898376465" lon="-7.656596660614">
        <ele>470</ele>
        <time>2019-09-11T10:52:14+00:00</time>
      </trkpt>
      <trkpt lat="43.309894561768" lon="-7.6566114425659">
        <ele>470</ele>
        <time>2019-09-11T10:52:15+00:00</time>
      </trkpt>
      <trkpt lat="43.309886932373" lon="-7.6566233634949">
        <ele>470</ele>
        <time>2019-09-11T10:52:16+00:00</time>
      </trkpt>
      <trkpt lat="43.309883117676" lon="-7.6566367149353">
        <ele>470</ele>
        <time>2019-09-11T10:52:17+00:00</time>
      </trkpt>
      <trkpt lat="43.309875488281" lon="-7.6566481590271">
        <ele>469</ele>
        <time>2019-09-11T10:52:18+00:00</time>
      </trkpt>
      <trkpt lat="43.309867858887" lon="-7.6566581726074">
        <ele>469</ele>
        <time>2019-09-11T10:52:19+00:00</time>
      </trkpt>
      <trkpt lat="43.309864044189" lon="-7.6566734313965">
        <ele>469</ele>
        <time>2019-09-11T10:52:20+00:00</time>
      </trkpt>
      <trkpt lat="43.309860229492" lon="-7.6566867828369">
        <ele>469</ele>
        <time>2019-09-11T10:52:21+00:00</time>
      </trkpt>
      <trkpt lat="43.309860229492" lon="-7.6567001342773">
        <ele>469</ele>
        <time>2019-09-11T10:52:22+00:00</time>
      </trkpt>
      <trkpt lat="43.309852600098" lon="-7.6567115783691">
        <ele>469</ele>
        <time>2019-09-11T10:52:23+00:00</time>
      </trkpt>
      <trkpt lat="43.309844970703" lon="-7.6567234992981">
        <ele>469</ele>
        <time>2019-09-11T10:52:24+00:00</time>
      </trkpt>
      <trkpt lat="43.309841156006" lon="-7.6567368507385">
        <ele>469</ele>
        <time>2019-09-11T10:52:25+00:00</time>
      </trkpt>
      <trkpt lat="43.309833526611" lon="-7.656750202179">
        <ele>469</ele>
        <time>2019-09-11T10:52:26+00:00</time>
      </trkpt>
      <trkpt lat="43.309825897217" lon="-7.6567602157593">
        <ele>469</ele>
        <time>2019-09-11T10:52:27+00:00</time>
      </trkpt>
      <trkpt lat="43.30982208252" lon="-7.6567749977112">
        <ele>469</ele>
        <time>2019-09-11T10:52:28+00:00</time>
      </trkpt>
      <trkpt lat="43.309818267822" lon="-7.6567897796631">
        <ele>469</ele>
        <time>2019-09-11T10:52:29+00:00</time>
      </trkpt>
      <trkpt lat="43.309810638428" lon="-7.6568031311035">
        <ele>469</ele>
        <time>2019-09-11T10:52:30+00:00</time>
      </trkpt>
      <trkpt lat="43.309803009033" lon="-7.6568150520325">
        <ele>469</ele>
        <time>2019-09-11T10:52:31+00:00</time>
      </trkpt>
      <trkpt lat="43.309791564941" lon="-7.6568264961243">
        <ele>469</ele>
        <time>2019-09-11T10:52:32+00:00</time>
      </trkpt>
      <trkpt lat="43.309783935547" lon="-7.6568417549133">
        <ele>469</ele>
        <time>2019-09-11T10:52:33+00:00</time>
      </trkpt>
      <trkpt lat="43.30978012085" lon="-7.6568551063538">
        <ele>469</ele>
        <time>2019-09-11T10:52:34+00:00</time>
      </trkpt>
      <trkpt lat="43.309772491455" lon="-7.6568665504456">
        <ele>469</ele>
        <time>2019-09-11T10:52:35+00:00</time>
      </trkpt>
      <trkpt lat="43.309768676758" lon="-7.656879901886">
        <ele>468</ele>
        <time>2019-09-11T10:52:36+00:00</time>
      </trkpt>
      <trkpt lat="43.309764862061" lon="-7.6568918228149">
        <ele>468</ele>
        <time>2019-09-11T10:52:37+00:00</time>
      </trkpt>
      <trkpt lat="43.309757232666" lon="-7.6569018363953">
        <ele>468</ele>
        <time>2019-09-11T10:52:38+00:00</time>
      </trkpt>
      <trkpt lat="43.309753417969" lon="-7.6569151878357">
        <ele>468</ele>
        <time>2019-09-11T10:52:39+00:00</time>
      </trkpt>
      <trkpt lat="43.309749603271" lon="-7.6569299697876">
        <ele>468</ele>
        <time>2019-09-11T10:52:40+00:00</time>
      </trkpt>
      <trkpt lat="43.309741973877" lon="-7.6569418907166">
        <ele>468</ele>
        <time>2019-09-11T10:52:41+00:00</time>
      </trkpt>
      <trkpt lat="43.309734344482" lon="-7.6569566726685">
        <ele>468</ele>
        <time>2019-09-11T10:52:42+00:00</time>
      </trkpt>
      <trkpt lat="43.309726715088" lon="-7.6569681167603">
        <ele>468</ele>
        <time>2019-09-11T10:52:43+00:00</time>
      </trkpt>
      <trkpt lat="43.309719085693" lon="-7.6569814682007">
        <ele>468</ele>
        <time>2019-09-11T10:52:44+00:00</time>
      </trkpt>
      <trkpt lat="43.309707641602" lon="-7.6569948196411">
        <ele>468</ele>
        <time>2019-09-11T10:52:45+00:00</time>
      </trkpt>
      <trkpt lat="43.309700012207" lon="-7.6570081710815">
        <ele>468</ele>
        <time>2019-09-11T10:52:46+00:00</time>
      </trkpt>
      <trkpt lat="43.309692382812" lon="-7.6570181846619">
        <ele>468</ele>
        <time>2019-09-11T10:52:47+00:00</time>
      </trkpt>
      <trkpt lat="43.309684753418" lon="-7.6570315361023">
        <ele>468</ele>
        <time>2019-09-11T10:52:48+00:00</time>
      </trkpt>
      <trkpt lat="43.309677124023" lon="-7.6570467948914">
        <ele>468</ele>
        <time>2019-09-11T10:52:49+00:00</time>
      </trkpt>
      <trkpt lat="43.309669494629" lon="-7.6570534706116">
        <ele>468</ele>
        <time>2019-09-11T10:52:50+00:00</time>
      </trkpt>
      <trkpt lat="43.309661865234" lon="-7.6570582389832">
        <ele>468</ele>
        <time>2019-09-11T10:52:51+00:00</time>
      </trkpt>
      <trkpt lat="43.309661865234" lon="-7.657066822052">
        <ele>468</ele>
        <time>2019-09-11T10:52:52+00:00</time>
      </trkpt>
      <trkpt lat="43.309658050537" lon="-7.6570734977722">
        <ele>468</ele>
        <time>2019-09-11T10:52:53+00:00</time>
      </trkpt>
      <trkpt lat="43.309650421143" lon="-7.657084941864">
        <ele>468</ele>
        <time>2019-09-11T10:52:54+00:00</time>
      </trkpt>
      <trkpt lat="43.309646606445" lon="-7.6571002006531">
        <ele>468</ele>
        <time>2019-09-11T10:52:55+00:00</time>
      </trkpt>
      <trkpt lat="43.309642791748" lon="-7.6571102142334">
        <ele>468</ele>
        <time>2019-09-11T10:52:56+00:00</time>
      </trkpt>
      <trkpt lat="43.309631347656" lon="-7.6571235656738">
        <ele>468</ele>
        <time>2019-09-11T10:52:57+00:00</time>
      </trkpt>
      <trkpt lat="43.309619903564" lon="-7.6571364402771">
        <ele>468</ele>
        <time>2019-09-11T10:52:58+00:00</time>
      </trkpt>
      <trkpt lat="43.309604644775" lon="-7.6571516990662">
        <ele>468</ele>
        <time>2019-09-11T10:52:59+00:00</time>
      </trkpt>
      <trkpt lat="43.309597015381" lon="-7.6571664810181">
        <ele>468</ele>
        <time>2019-09-11T10:53:00+00:00</time>
      </trkpt>
      <trkpt lat="43.309593200684" lon="-7.6571798324585">
        <ele>468</ele>
        <time>2019-09-11T10:53:01+00:00</time>
      </trkpt>
      <trkpt lat="43.309585571289" lon="-7.6571917533875">
        <ele>468</ele>
        <time>2019-09-11T10:53:02+00:00</time>
      </trkpt>
      <trkpt lat="43.309577941895" lon="-7.6572051048279">
        <ele>468</ele>
        <time>2019-09-11T10:53:03+00:00</time>
      </trkpt>
      <trkpt lat="43.309566497803" lon="-7.6572184562683">
        <ele>468</ele>
        <time>2019-09-11T10:53:04+00:00</time>
      </trkpt>
      <trkpt lat="43.309558868408" lon="-7.6572265625">
        <ele>469</ele>
        <time>2019-09-11T10:53:05+00:00</time>
      </trkpt>
      <trkpt lat="43.309547424316" lon="-7.6572399139404">
        <ele>469</ele>
        <time>2019-09-11T10:53:06+00:00</time>
      </trkpt>
      <trkpt lat="43.309539794922" lon="-7.6572532653809">
        <ele>469</ele>
        <time>2019-09-11T10:53:07+00:00</time>
      </trkpt>
      <trkpt lat="43.309539794922" lon="-7.6572651863098">
        <ele>469</ele>
        <time>2019-09-11T10:53:08+00:00</time>
      </trkpt>
      <trkpt lat="43.30952835083" lon="-7.65727186203">
        <ele>469</ele>
        <time>2019-09-11T10:53:09+00:00</time>
      </trkpt>
      <trkpt lat="43.309516906738" lon="-7.6572785377502">
        <ele>468</ele>
        <time>2019-09-11T10:53:10+00:00</time>
      </trkpt>
      <trkpt lat="43.309505462646" lon="-7.6572885513306">
        <ele>468</ele>
        <time>2019-09-11T10:53:11+00:00</time>
      </trkpt>
      <trkpt lat="43.309497833252" lon="-7.6572985649109">
        <ele>468</ele>
        <time>2019-09-11T10:53:12+00:00</time>
      </trkpt>
      <trkpt lat="43.309482574463" lon="-7.6573066711426">
        <ele>468</ele>
        <time>2019-09-11T10:53:13+00:00</time>
      </trkpt>
      <trkpt lat="43.309471130371" lon="-7.6573133468628">
        <ele>468</ele>
        <time>2019-09-11T10:53:14+00:00</time>
      </trkpt>
      <trkpt lat="43.309459686279" lon="-7.6573247909546">
        <ele>468</ele>
        <time>2019-09-11T10:53:15+00:00</time>
      </trkpt>
      <trkpt lat="43.309448242188" lon="-7.6573300361633">
        <ele>468</ele>
        <time>2019-09-11T10:53:16+00:00</time>
      </trkpt>
      <trkpt lat="43.309436798096" lon="-7.657338142395">
        <ele>468</ele>
        <time>2019-09-11T10:53:17+00:00</time>
      </trkpt>
      <trkpt lat="43.309421539307" lon="-7.6573448181152">
        <ele>468</ele>
        <time>2019-09-11T10:53:18+00:00</time>
      </trkpt>
      <trkpt lat="43.309413909912" lon="-7.6573534011841">
        <ele>467</ele>
        <time>2019-09-11T10:53:19+00:00</time>
      </trkpt>
      <trkpt lat="43.309406280518" lon="-7.6573615074158">
        <ele>467</ele>
        <time>2019-09-11T10:53:20+00:00</time>
      </trkpt>
      <trkpt lat="43.309394836426" lon="-7.6573700904846">
        <ele>467</ele>
        <time>2019-09-11T10:53:21+00:00</time>
      </trkpt>
      <trkpt lat="43.309387207031" lon="-7.657383441925">
        <ele>467</ele>
        <time>2019-09-11T10:53:22+00:00</time>
      </trkpt>
      <trkpt lat="43.309375762939" lon="-7.6573934555054">
        <ele>467</ele>
        <time>2019-09-11T10:53:23+00:00</time>
      </trkpt>
      <trkpt lat="43.309364318848" lon="-7.6574048995972">
        <ele>467</ele>
        <time>2019-09-11T10:53:24+00:00</time>
      </trkpt>
      <trkpt lat="43.309356689453" lon="-7.6574168205261">
        <ele>467</ele>
        <time>2019-09-11T10:53:25+00:00</time>
      </trkpt>
      <trkpt lat="43.309341430664" lon="-7.6574249267578">
        <ele>467</ele>
        <time>2019-09-11T10:53:26+00:00</time>
      </trkpt>
      <trkpt lat="43.30933380127" lon="-7.6574335098267">
        <ele>467</ele>
        <time>2019-09-11T10:53:27+00:00</time>
      </trkpt>
      <trkpt lat="43.309326171875" lon="-7.6574416160583">
        <ele>467</ele>
        <time>2019-09-11T10:53:28+00:00</time>
      </trkpt>
      <trkpt lat="43.309314727783" lon="-7.6574482917786">
        <ele>467</ele>
        <time>2019-09-11T10:53:29+00:00</time>
      </trkpt>
      <trkpt lat="43.309303283691" lon="-7.6574549674988">
        <ele>467</ele>
        <time>2019-09-11T10:53:30+00:00</time>
      </trkpt>
      <trkpt lat="43.309295654297" lon="-7.657461643219">
        <ele>467</ele>
        <time>2019-09-11T10:53:31+00:00</time>
      </trkpt>
      <trkpt lat="43.3092918396" lon="-7.6574702262878">
        <ele>467</ele>
        <time>2019-09-11T10:53:32+00:00</time>
      </trkpt>
      <trkpt lat="43.309280395508" lon="-7.6574831008911">
        <ele>467</ele>
        <time>2019-09-11T10:53:33+00:00</time>
      </trkpt>
      <trkpt lat="43.309276580811" lon="-7.6574950218201">
        <ele>466</ele>
        <time>2019-09-11T10:53:34+00:00</time>
      </trkpt>
      <trkpt lat="43.309268951416" lon="-7.6575083732605">
        <ele>467</ele>
        <time>2019-09-11T10:53:35+00:00</time>
      </trkpt>
      <trkpt lat="43.309261322021" lon="-7.6575183868408">
        <ele>467</ele>
        <time>2019-09-11T10:53:36+00:00</time>
      </trkpt>
      <trkpt lat="43.30924987793" lon="-7.6575284004211">
        <ele>467</ele>
        <time>2019-09-11T10:53:37+00:00</time>
      </trkpt>
      <trkpt lat="43.309238433838" lon="-7.6575365066528">
        <ele>467</ele>
        <time>2019-09-11T10:53:38+00:00</time>
      </trkpt>
      <trkpt lat="43.309230804443" lon="-7.6575450897217">
        <ele>467</ele>
        <time>2019-09-11T10:53:39+00:00</time>
      </trkpt>
      <trkpt lat="43.309219360352" lon="-7.6575498580933">
        <ele>467</ele>
        <time>2019-09-11T10:53:40+00:00</time>
      </trkpt>
      <trkpt lat="43.30920791626" lon="-7.6575584411621">
        <ele>466</ele>
        <time>2019-09-11T10:53:41+00:00</time>
      </trkpt>
      <trkpt lat="43.309196472168" lon="-7.6575632095337">
        <ele>466</ele>
        <time>2019-09-11T10:53:42+00:00</time>
      </trkpt>
      <trkpt lat="43.309185028076" lon="-7.6575665473938">
        <ele>466</ele>
        <time>2019-09-11T10:53:43+00:00</time>
      </trkpt>
      <trkpt lat="43.309181213379" lon="-7.6575717926025">
        <ele>466</ele>
        <time>2019-09-11T10:53:44+00:00</time>
      </trkpt>
      <trkpt lat="43.309173583984" lon="-7.657585144043">
        <ele>466</ele>
        <time>2019-09-11T10:53:45+00:00</time>
      </trkpt>
      <trkpt lat="43.309169769287" lon="-7.6575932502747">
        <ele>466</ele>
        <time>2019-09-11T10:53:46+00:00</time>
      </trkpt>
      <trkpt lat="43.309169769287" lon="-7.6576018333435">
        <ele>466</ele>
        <time>2019-09-11T10:53:47+00:00</time>
      </trkpt>
      <trkpt lat="43.309169769287" lon="-7.6576132774353">
        <ele>465</ele>
        <time>2019-09-11T10:53:48+00:00</time>
      </trkpt>
      <trkpt lat="43.30916595459" lon="-7.6576232910156">
        <ele>465</ele>
        <time>2019-09-11T10:53:49+00:00</time>
      </trkpt>
      <trkpt lat="43.309162139893" lon="-7.6576352119446">
        <ele>465</ele>
        <time>2019-09-11T10:53:50+00:00</time>
      </trkpt>
      <trkpt lat="43.309158325195" lon="-7.6576466560364">
        <ele>465</ele>
        <time>2019-09-11T10:53:51+00:00</time>
      </trkpt>
      <trkpt lat="43.309154510498" lon="-7.6576614379883">
        <ele>465</ele>
        <time>2019-09-11T10:53:52+00:00</time>
      </trkpt>
      <trkpt lat="43.309150695801" lon="-7.6576747894287">
        <ele>465</ele>
        <time>2019-09-11T10:53:53+00:00</time>
      </trkpt>
      <trkpt lat="43.309146881104" lon="-7.6576867103577">
        <ele>465</ele>
        <time>2019-09-11T10:53:54+00:00</time>
      </trkpt>
      <trkpt lat="43.309139251709" lon="-7.6577033996582">
        <ele>464</ele>
        <time>2019-09-11T10:53:55+00:00</time>
      </trkpt>
      <trkpt lat="43.309131622314" lon="-7.6577234268188">
        <ele>464</ele>
        <time>2019-09-11T10:53:56+00:00</time>
      </trkpt>
      <trkpt lat="43.30912399292" lon="-7.6577415466309">
        <ele>465</ele>
        <time>2019-09-11T10:53:57+00:00</time>
      </trkpt>
      <trkpt lat="43.309120178223" lon="-7.6577568054199">
        <ele>465</ele>
        <time>2019-09-11T10:53:58+00:00</time>
      </trkpt>
      <trkpt lat="43.309116363525" lon="-7.6577715873718">
        <ele>465</ele>
        <time>2019-09-11T10:53:59+00:00</time>
      </trkpt>
      <trkpt lat="43.309108734131" lon="-7.6577849388123">
        <ele>465</ele>
        <time>2019-09-11T10:54:00+00:00</time>
      </trkpt>
      <trkpt lat="43.309104919434" lon="-7.6577982902527">
        <ele>465</ele>
        <time>2019-09-11T10:54:01+00:00</time>
      </trkpt>
      <trkpt lat="43.309101104736" lon="-7.6578068733215">
        <ele>465</ele>
        <time>2019-09-11T10:54:02+00:00</time>
      </trkpt>
      <trkpt lat="43.309097290039" lon="-7.6578149795532">
        <ele>465</ele>
        <time>2019-09-11T10:54:03+00:00</time>
      </trkpt>
      <trkpt lat="43.309097290039" lon="-7.6578283309937">
        <ele>465</ele>
        <time>2019-09-11T10:54:04+00:00</time>
      </trkpt>
      <trkpt lat="43.309093475342" lon="-7.6578431129456">
        <ele>465</ele>
        <time>2019-09-11T10:54:05+00:00</time>
      </trkpt>
      <trkpt lat="43.309085845947" lon="-7.6578550338745">
        <ele>465</ele>
        <time>2019-09-11T10:54:06+00:00</time>
      </trkpt>
      <trkpt lat="43.309085845947" lon="-7.6578731536865">
        <ele>465</ele>
        <time>2019-09-11T10:54:07+00:00</time>
      </trkpt>
      <trkpt lat="43.309078216553" lon="-7.6578884124756">
        <ele>465</ele>
        <time>2019-09-11T10:54:08+00:00</time>
      </trkpt>
      <trkpt lat="43.309074401855" lon="-7.6579051017761">
        <ele>465</ele>
        <time>2019-09-11T10:54:09+00:00</time>
      </trkpt>
      <trkpt lat="43.309066772461" lon="-7.6579184532166">
        <ele>465</ele>
        <time>2019-09-11T10:54:10+00:00</time>
      </trkpt>
      <trkpt lat="43.309070587158" lon="-7.6579265594482">
        <ele>465</ele>
        <time>2019-09-11T10:54:11+00:00</time>
      </trkpt>
      <trkpt lat="43.309070587158" lon="-7.6579399108887">
        <ele>465</ele>
        <time>2019-09-11T10:54:12+00:00</time>
      </trkpt>
      <trkpt lat="43.309066772461" lon="-7.6579551696777">
        <ele>465</ele>
        <time>2019-09-11T10:54:13+00:00</time>
      </trkpt>
      <trkpt lat="43.309066772461" lon="-7.6579666137695">
        <ele>465</ele>
        <time>2019-09-11T10:54:14+00:00</time>
      </trkpt>
      <trkpt lat="43.309062957764" lon="-7.65797996521">
        <ele>465</ele>
        <time>2019-09-11T10:54:15+00:00</time>
      </trkpt>
      <trkpt lat="43.309059143066" lon="-7.6579918861389">
        <ele>465</ele>
        <time>2019-09-11T10:54:16+00:00</time>
      </trkpt>
      <trkpt lat="43.309062957764" lon="-7.6580066680908">
        <ele>465</ele>
        <time>2019-09-11T10:54:17+00:00</time>
      </trkpt>
      <trkpt lat="43.309059143066" lon="-7.6580214500427">
        <ele>466</ele>
        <time>2019-09-11T10:54:18+00:00</time>
      </trkpt>
      <trkpt lat="43.309051513672" lon="-7.6580367088318">
        <ele>466</ele>
        <time>2019-09-11T10:54:19+00:00</time>
      </trkpt>
      <trkpt lat="43.309047698975" lon="-7.6580533981323">
        <ele>466</ele>
        <time>2019-09-11T10:54:20+00:00</time>
      </trkpt>
      <trkpt lat="43.30904006958" lon="-7.6580681800842">
        <ele>466</ele>
        <time>2019-09-11T10:54:21+00:00</time>
      </trkpt>
      <trkpt lat="43.309036254883" lon="-7.6580901145935">
        <ele>466</ele>
        <time>2019-09-11T10:54:22+00:00</time>
      </trkpt>
      <trkpt lat="43.309028625488" lon="-7.658106803894">
        <ele>466</ele>
        <time>2019-09-11T10:54:23+00:00</time>
      </trkpt>
      <trkpt lat="43.309020996094" lon="-7.6581234931946">
        <ele>466</ele>
        <time>2019-09-11T10:54:24+00:00</time>
      </trkpt>
      <trkpt lat="43.309013366699" lon="-7.658136844635">
        <ele>466</ele>
        <time>2019-09-11T10:54:25+00:00</time>
      </trkpt>
      <trkpt lat="43.309009552002" lon="-7.6581535339355">
        <ele>466</ele>
        <time>2019-09-11T10:54:26+00:00</time>
      </trkpt>
      <trkpt lat="43.309013366699" lon="-7.6581683158875">
        <ele>466</ele>
        <time>2019-09-11T10:54:27+00:00</time>
      </trkpt>
      <trkpt lat="43.309009552002" lon="-7.6581864356995">
        <ele>466</ele>
        <time>2019-09-11T10:54:28+00:00</time>
      </trkpt>
      <trkpt lat="43.309009552002" lon="-7.6582050323486">
        <ele>466</ele>
        <time>2019-09-11T10:54:29+00:00</time>
      </trkpt>
      <trkpt lat="43.309009552002" lon="-7.6582198143005">
        <ele>466</ele>
        <time>2019-09-11T10:54:30+00:00</time>
      </trkpt>
      <trkpt lat="43.309005737305" lon="-7.658233165741">
        <ele>466</ele>
        <time>2019-09-11T10:54:31+00:00</time>
      </trkpt>
      <trkpt lat="43.309001922607" lon="-7.6582465171814">
        <ele>466</ele>
        <time>2019-09-11T10:54:32+00:00</time>
      </trkpt>
      <trkpt lat="43.30899810791" lon="-7.6582565307617">
        <ele>466</ele>
        <time>2019-09-11T10:54:33+00:00</time>
      </trkpt>
      <trkpt lat="43.308994293213" lon="-7.6582717895508">
        <ele>466</ele>
        <time>2019-09-11T10:54:34+00:00</time>
      </trkpt>
      <trkpt lat="43.308982849121" lon="-7.6582899093628">
        <ele>466</ele>
        <time>2019-09-11T10:54:35+00:00</time>
      </trkpt>
      <trkpt lat="43.308975219727" lon="-7.6583099365234">
        <ele>466</ele>
        <time>2019-09-11T10:54:36+00:00</time>
      </trkpt>
      <trkpt lat="43.308971405029" lon="-7.6583299636841">
        <ele>466</ele>
        <time>2019-09-11T10:54:37+00:00</time>
      </trkpt>
      <trkpt lat="43.308967590332" lon="-7.6583466529846">
        <ele>466</ele>
        <time>2019-09-11T10:54:38+00:00</time>
      </trkpt>
      <trkpt lat="43.308963775635" lon="-7.6583633422852">
        <ele>465</ele>
        <time>2019-09-11T10:54:39+00:00</time>
      </trkpt>
      <trkpt lat="43.308963775635" lon="-7.6583800315857">
        <ele>465</ele>
        <time>2019-09-11T10:54:40+00:00</time>
      </trkpt>
      <trkpt lat="43.30895614624" lon="-7.6583948135376">
        <ele>465</ele>
        <time>2019-09-11T10:54:41+00:00</time>
      </trkpt>
      <trkpt lat="43.308952331543" lon="-7.6584134101868">
        <ele>465</ele>
        <time>2019-09-11T10:54:42+00:00</time>
      </trkpt>
      <trkpt lat="43.308952331543" lon="-7.6584281921387">
        <ele>465</ele>
        <time>2019-09-11T10:54:43+00:00</time>
      </trkpt>
      <trkpt lat="43.308948516846" lon="-7.6584415435791">
        <ele>465</ele>
        <time>2019-09-11T10:54:44+00:00</time>
      </trkpt>
      <trkpt lat="43.308937072754" lon="-7.6584582328796">
        <ele>465</ele>
        <time>2019-09-11T10:54:45+00:00</time>
      </trkpt>
      <trkpt lat="43.308933258057" lon="-7.6584668159485">
        <ele>465</ele>
        <time>2019-09-11T10:54:46+00:00</time>
      </trkpt>
      <trkpt lat="43.308921813965" lon="-7.6584801673889">
        <ele>465</ele>
        <time>2019-09-11T10:54:47+00:00</time>
      </trkpt>
      <trkpt lat="43.308921813965" lon="-7.6584882736206">
        <ele>465</ele>
        <time>2019-09-11T10:54:48+00:00</time>
      </trkpt>
      <trkpt lat="43.30891418457" lon="-7.658501625061">
        <ele>465</ele>
        <time>2019-09-11T10:54:49+00:00</time>
      </trkpt>
      <trkpt lat="43.308910369873" lon="-7.6585168838501">
        <ele>465</ele>
        <time>2019-09-11T10:54:50+00:00</time>
      </trkpt>
      <trkpt lat="43.308906555176" lon="-7.6585302352905">
        <ele>465</ele>
        <time>2019-09-11T10:54:51+00:00</time>
      </trkpt>
      <trkpt lat="43.308902740479" lon="-7.6585450172424">
        <ele>465</ele>
        <time>2019-09-11T10:54:52+00:00</time>
      </trkpt>
      <trkpt lat="43.308891296387" lon="-7.658561706543">
        <ele>465</ele>
        <time>2019-09-11T10:54:53+00:00</time>
      </trkpt>
      <trkpt lat="43.308887481689" lon="-7.6585764884949">
        <ele>465</ele>
        <time>2019-09-11T10:54:54+00:00</time>
      </trkpt>
      <trkpt lat="43.308879852295" lon="-7.6585865020752">
        <ele>465</ele>
        <time>2019-09-11T10:54:55+00:00</time>
      </trkpt>
      <trkpt lat="43.308879852295" lon="-7.6585984230042">
        <ele>465</ele>
        <time>2019-09-11T10:54:56+00:00</time>
      </trkpt>
      <trkpt lat="43.3088722229" lon="-7.6586084365845">
        <ele>464</ele>
        <time>2019-09-11T10:54:57+00:00</time>
      </trkpt>
      <trkpt lat="43.308868408203" lon="-7.6586198806763">
        <ele>464</ele>
        <time>2019-09-11T10:54:58+00:00</time>
      </trkpt>
      <trkpt lat="43.308864593506" lon="-7.6586332321167">
        <ele>465</ele>
        <time>2019-09-11T10:54:59+00:00</time>
      </trkpt>
      <trkpt lat="43.308860778809" lon="-7.6586418151855">
        <ele>465</ele>
        <time>2019-09-11T10:55:00+00:00</time>
      </trkpt>
      <trkpt lat="43.308860778809" lon="-7.6586565971375">
        <ele>465</ele>
        <time>2019-09-11T10:55:01+00:00</time>
      </trkpt>
      <trkpt lat="43.308856964111" lon="-7.6586651802063">
        <ele>465</ele>
        <time>2019-09-11T10:55:02+00:00</time>
      </trkpt>
      <trkpt lat="43.308856964111" lon="-7.6586799621582">
        <ele>465</ele>
        <time>2019-09-11T10:55:03+00:00</time>
      </trkpt>
      <trkpt lat="43.308853149414" lon="-7.6586933135986">
        <ele>465</ele>
        <time>2019-09-11T10:55:04+00:00</time>
      </trkpt>
      <trkpt lat="43.308853149414" lon="-7.6587066650391">
        <ele>465</ele>
        <time>2019-09-11T10:55:05+00:00</time>
      </trkpt>
      <trkpt lat="43.30884552002" lon="-7.6587200164795">
        <ele>465</ele>
        <time>2019-09-11T10:55:06+00:00</time>
      </trkpt>
      <trkpt lat="43.308837890625" lon="-7.6587281227112">
        <ele>465</ele>
        <time>2019-09-11T10:55:07+00:00</time>
      </trkpt>
      <trkpt lat="43.308834075928" lon="-7.6587400436401">
        <ele>465</ele>
        <time>2019-09-11T10:55:08+00:00</time>
      </trkpt>
      <trkpt lat="43.30883026123" lon="-7.6587514877319">
        <ele>465</ele>
        <time>2019-09-11T10:55:09+00:00</time>
      </trkpt>
      <trkpt lat="43.30883026123" lon="-7.6587615013123">
        <ele>465</ele>
        <time>2019-09-11T10:55:10+00:00</time>
      </trkpt>
      <trkpt lat="43.308826446533" lon="-7.6587734222412">
        <ele>465</ele>
        <time>2019-09-11T10:55:11+00:00</time>
      </trkpt>
      <trkpt lat="43.308822631836" lon="-7.658784866333">
        <ele>465</ele>
        <time>2019-09-11T10:55:12+00:00</time>
      </trkpt>
      <trkpt lat="43.308818817139" lon="-7.6587982177734">
        <ele>465</ele>
        <time>2019-09-11T10:55:13+00:00</time>
      </trkpt>
      <trkpt lat="43.308815002441" lon="-7.6588101387024">
        <ele>465</ele>
        <time>2019-09-11T10:55:14+00:00</time>
      </trkpt>
      <trkpt lat="43.308815002441" lon="-7.6588215827942">
        <ele>465</ele>
        <time>2019-09-11T10:55:15+00:00</time>
      </trkpt>
      <trkpt lat="43.308815002441" lon="-7.6588349342346">
        <ele>465</ele>
        <time>2019-09-11T10:55:16+00:00</time>
      </trkpt>
      <trkpt lat="43.308811187744" lon="-7.6588435173035">
        <ele>465</ele>
        <time>2019-09-11T10:55:17+00:00</time>
      </trkpt>
      <trkpt lat="43.308811187744" lon="-7.6588516235352">
        <ele>465</ele>
        <time>2019-09-11T10:55:18+00:00</time>
      </trkpt>
      <trkpt lat="43.308807373047" lon="-7.6588516235352">
        <ele>465</ele>
        <time>2019-09-11T10:55:19+00:00</time>
      </trkpt>
      <trkpt lat="43.30880355835" lon="-7.6588516235352">
        <ele>465</ele>
        <time>2019-09-11T10:55:20+00:00</time>
      </trkpt>
      <trkpt lat="43.30880355835" lon="-7.658860206604">
        <ele>465</ele>
        <time>2019-09-11T10:55:21+00:00</time>
      </trkpt>
      <trkpt lat="43.30880355835" lon="-7.6588716506958">
        <ele>465</ele>
        <time>2019-09-11T10:55:22+00:00</time>
      </trkpt>
      <trkpt lat="43.308807373047" lon="-7.6588802337646">
        <ele>465</ele>
        <time>2019-09-11T10:55:23+00:00</time>
      </trkpt>
      <trkpt lat="43.308807373047" lon="-7.6588897705078">
        <ele>465</ele>
        <time>2019-09-11T10:55:24+00:00</time>
      </trkpt>
      <trkpt lat="43.308807373047" lon="-7.6589016914368">
        <ele>465</ele>
        <time>2019-09-11T10:55:25+00:00</time>
      </trkpt>
      <trkpt lat="43.30880355835" lon="-7.6589150428772">
        <ele>465</ele>
        <time>2019-09-11T10:55:26+00:00</time>
      </trkpt>
      <trkpt lat="43.30880355835" lon="-7.658926486969">
        <ele>465</ele>
        <time>2019-09-11T10:55:27+00:00</time>
      </trkpt>
      <trkpt lat="43.308799743652" lon="-7.6589417457581">
        <ele>465</ele>
        <time>2019-09-11T10:55:28+00:00</time>
      </trkpt>
      <trkpt lat="43.308799743652" lon="-7.6589584350586">
        <ele>465</ele>
        <time>2019-09-11T10:55:29+00:00</time>
      </trkpt>
      <trkpt lat="43.308795928955" lon="-7.658971786499">
        <ele>465</ele>
        <time>2019-09-11T10:55:30+00:00</time>
      </trkpt>
      <trkpt lat="43.308792114258" lon="-7.6589851379395">
        <ele>465</ele>
        <time>2019-09-11T10:55:31+00:00</time>
      </trkpt>
      <trkpt lat="43.308788299561" lon="-7.6589984893799">
        <ele>465</ele>
        <time>2019-09-11T10:55:32+00:00</time>
      </trkpt>
      <trkpt lat="43.308780670166" lon="-7.6590132713318">
        <ele>465</ele>
        <time>2019-09-11T10:55:33+00:00</time>
      </trkpt>
      <trkpt lat="43.308776855469" lon="-7.6590352058411">
        <ele>465</ele>
        <time>2019-09-11T10:55:34+00:00</time>
      </trkpt>
      <trkpt lat="43.308773040771" lon="-7.6590518951416">
        <ele>465</ele>
        <time>2019-09-11T10:55:35+00:00</time>
      </trkpt>
      <trkpt lat="43.308769226074" lon="-7.6590666770935">
        <ele>465</ele>
        <time>2019-09-11T10:55:36+00:00</time>
      </trkpt>
      <trkpt lat="43.308765411377" lon="-7.6590847969055">
        <ele>466</ele>
        <time>2019-09-11T10:55:37+00:00</time>
      </trkpt>
      <trkpt lat="43.30876159668" lon="-7.6591000556946">
        <ele>466</ele>
        <time>2019-09-11T10:55:38+00:00</time>
      </trkpt>
      <trkpt lat="43.30876159668" lon="-7.6591148376465">
        <ele>466</ele>
        <time>2019-09-11T10:55:39+00:00</time>
      </trkpt>
      <trkpt lat="43.308757781982" lon="-7.6591267585754">
        <ele>466</ele>
        <time>2019-09-11T10:55:40+00:00</time>
      </trkpt>
      <trkpt lat="43.308753967285" lon="-7.6591415405273">
        <ele>466</ele>
        <time>2019-09-11T10:55:41+00:00</time>
      </trkpt>
      <trkpt lat="43.308750152588" lon="-7.6591534614563">
        <ele>466</ele>
        <time>2019-09-11T10:55:42+00:00</time>
      </trkpt>
      <trkpt lat="43.308746337891" lon="-7.6591668128967">
        <ele>466</ele>
        <time>2019-09-11T10:55:43+00:00</time>
      </trkpt>
      <trkpt lat="43.308750152588" lon="-7.6591815948486">
        <ele>466</ele>
        <time>2019-09-11T10:55:44+00:00</time>
      </trkpt>
      <trkpt lat="43.308746337891" lon="-7.6591935157776">
        <ele>466</ele>
        <time>2019-09-11T10:55:45+00:00</time>
      </trkpt>
      <trkpt lat="43.308738708496" lon="-7.6592116355896">
        <ele>466</ele>
        <time>2019-09-11T10:55:46+00:00</time>
      </trkpt>
      <trkpt lat="43.308734893799" lon="-7.6592268943787">
        <ele>466</ele>
        <time>2019-09-11T10:55:47+00:00</time>
      </trkpt>
      <trkpt lat="43.308727264404" lon="-7.6592416763306">
        <ele>466</ele>
        <time>2019-09-11T10:55:48+00:00</time>
      </trkpt>
      <trkpt lat="43.308723449707" lon="-7.659255027771">
        <ele>466</ele>
        <time>2019-09-11T10:55:49+00:00</time>
      </trkpt>
      <trkpt lat="43.308715820312" lon="-7.6592683792114">
        <ele>466</ele>
        <time>2019-09-11T10:55:50+00:00</time>
      </trkpt>
      <trkpt lat="43.308712005615" lon="-7.6592831611633">
        <ele>466</ele>
        <time>2019-09-11T10:55:51+00:00</time>
      </trkpt>
      <trkpt lat="43.308708190918" lon="-7.6592998504639">
        <ele>466</ele>
        <time>2019-09-11T10:55:52+00:00</time>
      </trkpt>
      <trkpt lat="43.308704376221" lon="-7.6593165397644">
        <ele>466</ele>
        <time>2019-09-11T10:55:53+00:00</time>
      </trkpt>
      <trkpt lat="43.308704376221" lon="-7.659336566925">
        <ele>465</ele>
        <time>2019-09-11T10:55:54+00:00</time>
      </trkpt>
      <trkpt lat="43.308700561523" lon="-7.6593551635742">
        <ele>465</ele>
        <time>2019-09-11T10:55:55+00:00</time>
      </trkpt>
      <trkpt lat="43.308696746826" lon="-7.6593699455261">
        <ele>465</ele>
        <time>2019-09-11T10:55:56+00:00</time>
      </trkpt>
      <trkpt lat="43.308692932129" lon="-7.6593866348267">
        <ele>465</ele>
        <time>2019-09-11T10:55:57+00:00</time>
      </trkpt>
      <trkpt lat="43.308692932129" lon="-7.6594018936157">
        <ele>465</ele>
        <time>2019-09-11T10:55:58+00:00</time>
      </trkpt>
      <trkpt lat="43.308685302734" lon="-7.6594133377075">
        <ele>465</ele>
        <time>2019-09-11T10:55:59+00:00</time>
      </trkpt>
      <trkpt lat="43.308681488037" lon="-7.6594247817993">
        <ele>465</ele>
        <time>2019-09-11T10:56:00+00:00</time>
      </trkpt>
      <trkpt lat="43.308673858643" lon="-7.6594281196594">
        <ele>465</ele>
        <time>2019-09-11T10:56:01+00:00</time>
      </trkpt>
      <trkpt lat="43.308666229248" lon="-7.6594367027283">
        <ele>465</ele>
        <time>2019-09-11T10:56:02+00:00</time>
      </trkpt>
      <trkpt lat="43.308658599854" lon="-7.65944480896">
        <ele>465</ele>
        <time>2019-09-11T10:56:03+00:00</time>
      </trkpt>
      <trkpt lat="43.308654785156" lon="-7.6594500541687">
        <ele>465</ele>
        <time>2019-09-11T10:56:04+00:00</time>
      </trkpt>
      <trkpt lat="43.308654785156" lon="-7.6594614982605">
        <ele>465</ele>
        <time>2019-09-11T10:56:05+00:00</time>
      </trkpt>
      <trkpt lat="43.308647155762" lon="-7.6594734191895">
        <ele>465</ele>
        <time>2019-09-11T10:56:06+00:00</time>
      </trkpt>
      <trkpt lat="43.308643341064" lon="-7.6594815254211">
        <ele>465</ele>
        <time>2019-09-11T10:56:07+00:00</time>
      </trkpt>
      <trkpt lat="43.30863571167" lon="-7.65949010849">
        <ele>464</ele>
        <time>2019-09-11T10:56:08+00:00</time>
      </trkpt>
      <trkpt lat="43.30863571167" lon="-7.6595048904419">
        <ele>464</ele>
        <time>2019-09-11T10:56:09+00:00</time>
      </trkpt>
      <trkpt lat="43.308631896973" lon="-7.6595168113708">
        <ele>464</ele>
        <time>2019-09-11T10:56:10+00:00</time>
      </trkpt>
      <trkpt lat="43.308631896973" lon="-7.6595301628113">
        <ele>464</ele>
        <time>2019-09-11T10:56:11+00:00</time>
      </trkpt>
      <trkpt lat="43.308628082275" lon="-7.6595435142517">
        <ele>464</ele>
        <time>2019-09-11T10:56:12+00:00</time>
      </trkpt>
      <trkpt lat="43.308620452881" lon="-7.6595549583435">
        <ele>464</ele>
        <time>2019-09-11T10:56:13+00:00</time>
      </trkpt>
      <trkpt lat="43.308616638184" lon="-7.6595668792725">
        <ele>464</ele>
        <time>2019-09-11T10:56:14+00:00</time>
      </trkpt>
      <trkpt lat="43.308609008789" lon="-7.659583568573">
        <ele>464</ele>
        <time>2019-09-11T10:56:15+00:00</time>
      </trkpt>
      <trkpt lat="43.308605194092" lon="-7.6595897674561">
        <ele>464</ele>
        <time>2019-09-11T10:56:16+00:00</time>
      </trkpt>
      <trkpt lat="43.308601379395" lon="-7.6595997810364">
        <ele>464</ele>
        <time>2019-09-11T10:56:17+00:00</time>
      </trkpt>
      <trkpt lat="43.30859375" lon="-7.6596117019653">
        <ele>464</ele>
        <time>2019-09-11T10:56:18+00:00</time>
      </trkpt>
      <trkpt lat="43.308589935303" lon="-7.6596217155457">
        <ele>464</ele>
        <time>2019-09-11T10:56:19+00:00</time>
      </trkpt>
      <trkpt lat="43.308586120605" lon="-7.6596364974976">
        <ele>464</ele>
        <time>2019-09-11T10:56:20+00:00</time>
      </trkpt>
      <trkpt lat="43.308578491211" lon="-7.6596531867981">
        <ele>464</ele>
        <time>2019-09-11T10:56:21+00:00</time>
      </trkpt>
      <trkpt lat="43.308574676514" lon="-7.6596684455872">
        <ele>464</ele>
        <time>2019-09-11T10:56:22+00:00</time>
      </trkpt>
      <trkpt lat="43.308570861816" lon="-7.6596832275391">
        <ele>463</ele>
        <time>2019-09-11T10:56:23+00:00</time>
      </trkpt>
      <trkpt lat="43.308563232422" lon="-7.6596932411194">
        <ele>463</ele>
        <time>2019-09-11T10:56:24+00:00</time>
      </trkpt>
      <trkpt lat="43.30855178833" lon="-7.6597032546997">
        <ele>463</ele>
        <time>2019-09-11T10:56:25+00:00</time>
      </trkpt>
      <trkpt lat="43.308540344238" lon="-7.6597151756287">
        <ele>463</ele>
        <time>2019-09-11T10:56:26+00:00</time>
      </trkpt>
      <trkpt lat="43.308532714844" lon="-7.6597232818604">
        <ele>463</ele>
        <time>2019-09-11T10:56:27+00:00</time>
      </trkpt>
      <trkpt lat="43.308528900146" lon="-7.6597318649292">
        <ele>464</ele>
        <time>2019-09-11T10:56:28+00:00</time>
      </trkpt>
      <trkpt lat="43.308521270752" lon="-7.6597418785095">
        <ele>464</ele>
        <time>2019-09-11T10:56:29+00:00</time>
      </trkpt>
      <trkpt lat="43.30850982666" lon="-7.6597533226013">
        <ele>464</ele>
        <time>2019-09-11T10:56:30+00:00</time>
      </trkpt>
      <trkpt lat="43.308502197266" lon="-7.6597633361816">
        <ele>464</ele>
        <time>2019-09-11T10:56:31+00:00</time>
      </trkpt>
      <trkpt lat="43.308494567871" lon="-7.6597747802734">
        <ele>464</ele>
        <time>2019-09-11T10:56:32+00:00</time>
      </trkpt>
      <trkpt lat="43.308486938477" lon="-7.6597881317139">
        <ele>464</ele>
        <time>2019-09-11T10:56:33+00:00</time>
      </trkpt>
      <trkpt lat="43.308483123779" lon="-7.6598014831543">
        <ele>464</ele>
        <time>2019-09-11T10:56:34+00:00</time>
      </trkpt>
      <trkpt lat="43.308479309082" lon="-7.6598134040833">
        <ele>464</ele>
        <time>2019-09-11T10:56:35+00:00</time>
      </trkpt>
      <trkpt lat="43.308471679688" lon="-7.6598267555237">
        <ele>464</ele>
        <time>2019-09-11T10:56:36+00:00</time>
      </trkpt>
      <trkpt lat="43.308464050293" lon="-7.6598434448242">
        <ele>464</ele>
        <time>2019-09-11T10:56:37+00:00</time>
      </trkpt>
      <trkpt lat="43.308460235596" lon="-7.6598615646362">
        <ele>464</ele>
        <time>2019-09-11T10:56:38+00:00</time>
      </trkpt>
      <trkpt lat="43.308448791504" lon="-7.6598782539368">
        <ele>464</ele>
        <time>2019-09-11T10:56:39+00:00</time>
      </trkpt>
      <trkpt lat="43.308444976807" lon="-7.6598935127258">
        <ele>464</ele>
        <time>2019-09-11T10:56:40+00:00</time>
      </trkpt>
      <trkpt lat="43.308441162109" lon="-7.6599116325378">
        <ele>464</ele>
        <time>2019-09-11T10:56:41+00:00</time>
      </trkpt>
      <trkpt lat="43.308437347412" lon="-7.6599283218384">
        <ele>464</ele>
        <time>2019-09-11T10:56:42+00:00</time>
      </trkpt>
      <trkpt lat="43.308433532715" lon="-7.6599450111389">
        <ele>464</ele>
        <time>2019-09-11T10:56:43+00:00</time>
      </trkpt>
      <trkpt lat="43.30842590332" lon="-7.6599597930908">
        <ele>464</ele>
        <time>2019-09-11T10:56:44+00:00</time>
      </trkpt>
      <trkpt lat="43.308418273926" lon="-7.6599764823914">
        <ele>464</ele>
        <time>2019-09-11T10:56:45+00:00</time>
      </trkpt>
      <trkpt lat="43.308410644531" lon="-7.6599898338318">
        <ele>464</ele>
        <time>2019-09-11T10:56:46+00:00</time>
      </trkpt>
      <trkpt lat="43.308403015137" lon="-7.6600017547607">
        <ele>464</ele>
        <time>2019-09-11T10:56:47+00:00</time>
      </trkpt>
      <trkpt lat="43.308399200439" lon="-7.6600131988525">
        <ele>464</ele>
        <time>2019-09-11T10:56:48+00:00</time>
      </trkpt>
      <trkpt lat="43.308391571045" lon="-7.660026550293">
        <ele>464</ele>
        <time>2019-09-11T10:56:49+00:00</time>
      </trkpt>
      <trkpt lat="43.308387756348" lon="-7.660041809082">
        <ele>464</ele>
        <time>2019-09-11T10:56:50+00:00</time>
      </trkpt>
      <trkpt lat="43.308380126953" lon="-7.6600499153137">
        <ele>464</ele>
        <time>2019-09-11T10:56:51+00:00</time>
      </trkpt>
      <trkpt lat="43.308372497559" lon="-7.6600618362427">
        <ele>464</ele>
        <time>2019-09-11T10:56:52+00:00</time>
      </trkpt>
      <trkpt lat="43.308364868164" lon="-7.660071849823">
        <ele>464</ele>
        <time>2019-09-11T10:56:53+00:00</time>
      </trkpt>
      <trkpt lat="43.308364868164" lon="-7.6600832939148">
        <ele>465</ele>
        <time>2019-09-11T10:56:54+00:00</time>
      </trkpt>
      <trkpt lat="43.30835723877" lon="-7.6600952148438">
        <ele>465</ele>
        <time>2019-09-11T10:56:55+00:00</time>
      </trkpt>
      <trkpt lat="43.308349609375" lon="-7.6601085662842">
        <ele>465</ele>
        <time>2019-09-11T10:56:56+00:00</time>
      </trkpt>
      <trkpt lat="43.30834197998" lon="-7.6601214408875">
        <ele>465</ele>
        <time>2019-09-11T10:56:57+00:00</time>
      </trkpt>
      <trkpt lat="43.308338165283" lon="-7.6601400375366">
        <ele>465</ele>
        <time>2019-09-11T10:56:58+00:00</time>
      </trkpt>
      <trkpt lat="43.308330535889" lon="-7.6601567268372">
        <ele>465</ele>
        <time>2019-09-11T10:56:59+00:00</time>
      </trkpt>
      <trkpt lat="43.308326721191" lon="-7.6601715087891">
        <ele>465</ele>
        <time>2019-09-11T10:57:00+00:00</time>
      </trkpt>
      <trkpt lat="43.308322906494" lon="-7.6601867675781">
        <ele>465</ele>
        <time>2019-09-11T10:57:01+00:00</time>
      </trkpt>
      <trkpt lat="43.3083152771" lon="-7.6602034568787">
        <ele>465</ele>
        <time>2019-09-11T10:57:02+00:00</time>
      </trkpt>
      <trkpt lat="43.308311462402" lon="-7.6602182388306">
        <ele>465</ele>
        <time>2019-09-11T10:57:03+00:00</time>
      </trkpt>
      <trkpt lat="43.308307647705" lon="-7.6602368354797">
        <ele>465</ele>
        <time>2019-09-11T10:57:04+00:00</time>
      </trkpt>
      <trkpt lat="43.308300018311" lon="-7.6602482795715">
        <ele>466</ele>
        <time>2019-09-11T10:57:05+00:00</time>
      </trkpt>
      <trkpt lat="43.308300018311" lon="-7.660261631012">
        <ele>466</ele>
        <time>2019-09-11T10:57:06+00:00</time>
      </trkpt>
      <trkpt lat="43.308292388916" lon="-7.6602749824524">
        <ele>466</ele>
        <time>2019-09-11T10:57:07+00:00</time>
      </trkpt>
      <trkpt lat="43.308284759521" lon="-7.6602883338928">
        <ele>466</ele>
        <time>2019-09-11T10:57:08+00:00</time>
      </trkpt>
      <trkpt lat="43.30827331543" lon="-7.6602997779846">
        <ele>466</ele>
        <time>2019-09-11T10:57:09+00:00</time>
      </trkpt>
      <trkpt lat="43.308265686035" lon="-7.6603116989136">
        <ele>466</ele>
        <time>2019-09-11T10:57:10+00:00</time>
      </trkpt>
      <trkpt lat="43.308261871338" lon="-7.6603231430054">
        <ele>466</ele>
        <time>2019-09-11T10:57:11+00:00</time>
      </trkpt>
      <trkpt lat="43.308254241943" lon="-7.6603350639343">
        <ele>466</ele>
        <time>2019-09-11T10:57:12+00:00</time>
      </trkpt>
      <trkpt lat="43.308246612549" lon="-7.6603484153748">
        <ele>466</ele>
        <time>2019-09-11T10:57:13+00:00</time>
      </trkpt>
      <trkpt lat="43.308242797852" lon="-7.6603617668152">
        <ele>466</ele>
        <time>2019-09-11T10:57:14+00:00</time>
      </trkpt>
      <trkpt lat="43.308235168457" lon="-7.6603765487671">
        <ele>466</ele>
        <time>2019-09-11T10:57:15+00:00</time>
      </trkpt>
      <trkpt lat="43.30823135376" lon="-7.6603918075562">
        <ele>466</ele>
        <time>2019-09-11T10:57:16+00:00</time>
      </trkpt>
      <trkpt lat="43.308219909668" lon="-7.6604065895081">
        <ele>466</ele>
        <time>2019-09-11T10:57:17+00:00</time>
      </trkpt>
      <trkpt lat="43.308208465576" lon="-7.6604285240173">
        <ele>465</ele>
        <time>2019-09-11T10:57:18+00:00</time>
      </trkpt>
      <trkpt lat="43.308200836182" lon="-7.6604433059692">
        <ele>466</ele>
        <time>2019-09-11T10:57:19+00:00</time>
      </trkpt>
      <trkpt lat="43.308193206787" lon="-7.6604599952698">
        <ele>465</ele>
        <time>2019-09-11T10:57:20+00:00</time>
      </trkpt>
      <trkpt lat="43.308185577393" lon="-7.6604747772217">
        <ele>465</ele>
        <time>2019-09-11T10:57:21+00:00</time>
      </trkpt>
      <trkpt lat="43.308181762695" lon="-7.6604866981506">
        <ele>465</ele>
        <time>2019-09-11T10:57:22+00:00</time>
      </trkpt>
      <trkpt lat="43.308177947998" lon="-7.660496711731">
        <ele>465</ele>
        <time>2019-09-11T10:57:23+00:00</time>
      </trkpt>
      <trkpt lat="43.308170318604" lon="-7.6605081558228">
        <ele>466</ele>
        <time>2019-09-11T10:57:24+00:00</time>
      </trkpt>
      <trkpt lat="43.308166503906" lon="-7.6605181694031">
        <ele>466</ele>
        <time>2019-09-11T10:57:25+00:00</time>
      </trkpt>
      <trkpt lat="43.308162689209" lon="-7.6605267524719">
        <ele>466</ele>
        <time>2019-09-11T10:57:26+00:00</time>
      </trkpt>
      <trkpt lat="43.308158874512" lon="-7.6605381965637">
        <ele>466</ele>
        <time>2019-09-11T10:57:27+00:00</time>
      </trkpt>
      <trkpt lat="43.308158874512" lon="-7.660548210144">
        <ele>466</ele>
        <time>2019-09-11T10:57:28+00:00</time>
      </trkpt>
      <trkpt lat="43.308155059814" lon="-7.6605582237244">
        <ele>466</ele>
        <time>2019-09-11T10:57:29+00:00</time>
      </trkpt>
      <trkpt lat="43.308151245117" lon="-7.6605682373047">
        <ele>466</ele>
        <time>2019-09-11T10:57:30+00:00</time>
      </trkpt>
      <trkpt lat="43.308151245117" lon="-7.6605801582336">
        <ele>466</ele>
        <time>2019-09-11T10:57:31+00:00</time>
      </trkpt>
      <trkpt lat="43.30814743042" lon="-7.6605882644653">
        <ele>466</ele>
        <time>2019-09-11T10:57:32+00:00</time>
      </trkpt>
      <trkpt lat="43.30814743042" lon="-7.6605949401855">
        <ele>466</ele>
        <time>2019-09-11T10:57:33+00:00</time>
      </trkpt>
      <trkpt lat="43.308139801025" lon="-7.660608291626">
        <ele>466</ele>
        <time>2019-09-11T10:57:34+00:00</time>
      </trkpt>
      <trkpt lat="43.308135986328" lon="-7.6606149673462">
        <ele>466</ele>
        <time>2019-09-11T10:57:35+00:00</time>
      </trkpt>
      <trkpt lat="43.308128356934" lon="-7.6606268882751">
        <ele>466</ele>
        <time>2019-09-11T10:57:36+00:00</time>
      </trkpt>
      <trkpt lat="43.308120727539" lon="-7.6606397628784">
        <ele>467</ele>
        <time>2019-09-11T10:57:37+00:00</time>
      </trkpt>
      <trkpt lat="43.308113098145" lon="-7.6606464385986">
        <ele>467</ele>
        <time>2019-09-11T10:57:38+00:00</time>
      </trkpt>
      <trkpt lat="43.308109283447" lon="-7.660656452179">
        <ele>467</ele>
        <time>2019-09-11T10:57:39+00:00</time>
      </trkpt>
      <trkpt lat="43.308101654053" lon="-7.6606664657593">
        <ele>467</ele>
        <time>2019-09-11T10:57:40+00:00</time>
      </trkpt>
      <trkpt lat="43.308094024658" lon="-7.6606764793396">
        <ele>467</ele>
        <time>2019-09-11T10:57:41+00:00</time>
      </trkpt>
      <trkpt lat="43.308090209961" lon="-7.6606884002686">
        <ele>467</ele>
        <time>2019-09-11T10:57:42+00:00</time>
      </trkpt>
      <trkpt lat="43.308082580566" lon="-7.6606965065002">
        <ele>467</ele>
        <time>2019-09-11T10:57:43+00:00</time>
      </trkpt>
      <trkpt lat="43.308074951172" lon="-7.6607084274292">
        <ele>467</ele>
        <time>2019-09-11T10:57:44+00:00</time>
      </trkpt>
      <trkpt lat="43.30806350708" lon="-7.6607265472412">
        <ele>467</ele>
        <time>2019-09-11T10:57:45+00:00</time>
      </trkpt>
      <trkpt lat="43.30806350708" lon="-7.6607418060303">
        <ele>467</ele>
        <time>2019-09-11T10:57:46+00:00</time>
      </trkpt>
      <trkpt lat="43.308052062988" lon="-7.6607565879822">
        <ele>467</ele>
        <time>2019-09-11T10:57:47+00:00</time>
      </trkpt>
      <trkpt lat="43.308048248291" lon="-7.6607732772827">
        <ele>467</ele>
        <time>2019-09-11T10:57:48+00:00</time>
      </trkpt>
      <trkpt lat="43.308044433594" lon="-7.6607899665833">
        <ele>467</ele>
        <time>2019-09-11T10:57:49+00:00</time>
      </trkpt>
      <trkpt lat="43.308036804199" lon="-7.6608066558838">
        <ele>467</ele>
        <time>2019-09-11T10:57:50+00:00</time>
      </trkpt>
      <trkpt lat="43.308032989502" lon="-7.6608214378357">
        <ele>467</ele>
        <time>2019-09-11T10:57:51+00:00</time>
      </trkpt>
      <trkpt lat="43.308025360107" lon="-7.660831451416">
        <ele>467</ele>
        <time>2019-09-11T10:57:52+00:00</time>
      </trkpt>
      <trkpt lat="43.30802154541" lon="-7.660843372345">
        <ele>467</ele>
        <time>2019-09-11T10:57:53+00:00</time>
      </trkpt>
      <trkpt lat="43.308013916016" lon="-7.6608533859253">
        <ele>468</ele>
        <time>2019-09-11T10:57:54+00:00</time>
      </trkpt>
      <trkpt lat="43.308010101318" lon="-7.6608648300171">
        <ele>468</ele>
        <time>2019-09-11T10:57:55+00:00</time>
      </trkpt>
      <trkpt lat="43.308010101318" lon="-7.6608781814575">
        <ele>468</ele>
        <time>2019-09-11T10:57:56+00:00</time>
      </trkpt>
      <trkpt lat="43.308010101318" lon="-7.6608915328979">
        <ele>468</ele>
        <time>2019-09-11T10:57:57+00:00</time>
      </trkpt>
      <trkpt lat="43.308002471924" lon="-7.6609034538269">
        <ele>468</ele>
        <time>2019-09-11T10:57:58+00:00</time>
      </trkpt>
      <trkpt lat="43.307998657227" lon="-7.6609168052673">
        <ele>468</ele>
        <time>2019-09-11T10:57:59+00:00</time>
      </trkpt>
      <trkpt lat="43.307994842529" lon="-7.660936832428">
        <ele>468</ele>
        <time>2019-09-11T10:58:00+00:00</time>
      </trkpt>
      <trkpt lat="43.307987213135" lon="-7.6609501838684">
        <ele>468</ele>
        <time>2019-09-11T10:58:01+00:00</time>
      </trkpt>
      <trkpt lat="43.307983398438" lon="-7.6609616279602">
        <ele>468</ele>
        <time>2019-09-11T10:58:02+00:00</time>
      </trkpt>
      <trkpt lat="43.30797958374" lon="-7.6609768867493">
        <ele>468</ele>
        <time>2019-09-11T10:58:03+00:00</time>
      </trkpt>
      <trkpt lat="43.307971954346" lon="-7.6609902381897">
        <ele>469</ele>
        <time>2019-09-11T10:58:04+00:00</time>
      </trkpt>
      <trkpt lat="43.307968139648" lon="-7.6610064506531">
        <ele>469</ele>
        <time>2019-09-11T10:58:05+00:00</time>
      </trkpt>
      <trkpt lat="43.307964324951" lon="-7.6610217094421">
        <ele>469</ele>
        <time>2019-09-11T10:58:06+00:00</time>
      </trkpt>
      <trkpt lat="43.307960510254" lon="-7.6610350608826">
        <ele>469</ele>
        <time>2019-09-11T10:58:07+00:00</time>
      </trkpt>
      <trkpt lat="43.307956695557" lon="-7.6610498428345">
        <ele>469</ele>
        <time>2019-09-11T10:58:08+00:00</time>
      </trkpt>
      <trkpt lat="43.307945251465" lon="-7.6610651016235">
        <ele>469</ele>
        <time>2019-09-11T10:58:09+00:00</time>
      </trkpt>
      <trkpt lat="43.307941436768" lon="-7.6610732078552">
        <ele>469</ele>
        <time>2019-09-11T10:58:10+00:00</time>
      </trkpt>
      <trkpt lat="43.30793762207" lon="-7.6610884666443">
        <ele>469</ele>
        <time>2019-09-11T10:58:11+00:00</time>
      </trkpt>
      <trkpt lat="43.307933807373" lon="-7.6611018180847">
        <ele>469</ele>
        <time>2019-09-11T10:58:12+00:00</time>
      </trkpt>
      <trkpt lat="43.307929992676" lon="-7.6611151695251">
        <ele>469</ele>
        <time>2019-09-11T10:58:13+00:00</time>
      </trkpt>
      <trkpt lat="43.307922363281" lon="-7.6611285209656">
        <ele>469</ele>
        <time>2019-09-11T10:58:14+00:00</time>
      </trkpt>
      <trkpt lat="43.307918548584" lon="-7.661141872406">
        <ele>469</ele>
        <time>2019-09-11T10:58:15+00:00</time>
      </trkpt>
      <trkpt lat="43.307914733887" lon="-7.6611552238464">
        <ele>469</ele>
        <time>2019-09-11T10:58:16+00:00</time>
      </trkpt>
      <trkpt lat="43.307910919189" lon="-7.6611666679382">
        <ele>469</ele>
        <time>2019-09-11T10:58:17+00:00</time>
      </trkpt>
      <trkpt lat="43.307903289795" lon="-7.6611814498901">
        <ele>469</ele>
        <time>2019-09-11T10:58:18+00:00</time>
      </trkpt>
      <trkpt lat="43.307903289795" lon="-7.6611933708191">
        <ele>469</ele>
        <time>2019-09-11T10:58:19+00:00</time>
      </trkpt>
      <trkpt lat="43.3078956604" lon="-7.6612100601196">
        <ele>469</ele>
        <time>2019-09-11T10:58:20+00:00</time>
      </trkpt>
      <trkpt lat="43.307891845703" lon="-7.6612215042114">
        <ele>469</ele>
        <time>2019-09-11T10:58:21+00:00</time>
      </trkpt>
      <trkpt lat="43.307884216309" lon="-7.6612334251404">
        <ele>470</ele>
        <time>2019-09-11T10:58:22+00:00</time>
      </trkpt>
      <trkpt lat="43.307880401611" lon="-7.6612467765808">
        <ele>470</ele>
        <time>2019-09-11T10:58:23+00:00</time>
      </trkpt>
      <trkpt lat="43.307876586914" lon="-7.6612582206726">
        <ele>470</ele>
        <time>2019-09-11T10:58:24+00:00</time>
      </trkpt>
      <trkpt lat="43.307872772217" lon="-7.6612768173218">
        <ele>470</ele>
        <time>2019-09-11T10:58:25+00:00</time>
      </trkpt>
      <trkpt lat="43.307865142822" lon="-7.6612901687622">
        <ele>470</ele>
        <time>2019-09-11T10:58:26+00:00</time>
      </trkpt>
      <trkpt lat="43.307861328125" lon="-7.6613035202026">
        <ele>470</ele>
        <time>2019-09-11T10:58:27+00:00</time>
      </trkpt>
      <trkpt lat="43.307861328125" lon="-7.6613101959229">
        <ele>470</ele>
        <time>2019-09-11T10:58:28+00:00</time>
      </trkpt>
      <trkpt lat="43.307857513428" lon="-7.6613202095032">
        <ele>470</ele>
        <time>2019-09-11T10:58:29+00:00</time>
      </trkpt>
      <trkpt lat="43.307857513428" lon="-7.6613235473633">
        <ele>470</ele>
        <time>2019-09-11T10:58:30+00:00</time>
      </trkpt>
      <trkpt lat="43.30785369873" lon="-7.6613302230835">
        <ele>470</ele>
        <time>2019-09-11T10:58:31+00:00</time>
      </trkpt>
      <trkpt lat="43.307849884033" lon="-7.6613368988037">
        <ele>470</ele>
        <time>2019-09-11T10:58:32+00:00</time>
      </trkpt>
      <trkpt lat="43.307846069336" lon="-7.6613483428955">
        <ele>470</ele>
        <time>2019-09-11T10:58:33+00:00</time>
      </trkpt>
      <trkpt lat="43.307846069336" lon="-7.6613583564758">
        <ele>470</ele>
        <time>2019-09-11T10:58:34+00:00</time>
      </trkpt>
      <trkpt lat="43.307846069336" lon="-7.6613664627075">
        <ele>470</ele>
        <time>2019-09-11T10:58:35+00:00</time>
      </trkpt>
      <trkpt lat="43.307846069336" lon="-7.6613831520081">
        <ele>470</ele>
        <time>2019-09-11T10:58:36+00:00</time>
      </trkpt>
      <trkpt lat="43.307849884033" lon="-7.6613965034485">
        <ele>470</ele>
        <time>2019-09-11T10:58:37+00:00</time>
      </trkpt>
      <trkpt lat="43.307849884033" lon="-7.6614117622375">
        <ele>470</ele>
        <time>2019-09-11T10:58:38+00:00</time>
      </trkpt>
      <trkpt lat="43.30785369873" lon="-7.6614265441895">
        <ele>470</ele>
        <time>2019-09-11T10:58:39+00:00</time>
      </trkpt>
      <trkpt lat="43.307861328125" lon="-7.6614418029785">
        <ele>470</ele>
        <time>2019-09-11T10:58:40+00:00</time>
      </trkpt>
      <trkpt lat="43.307865142822" lon="-7.6614551544189">
        <ele>470</ele>
        <time>2019-09-11T10:58:41+00:00</time>
      </trkpt>
      <trkpt lat="43.307872772217" lon="-7.6614699363708">
        <ele>470</ele>
        <time>2019-09-11T10:58:42+00:00</time>
      </trkpt>
      <trkpt lat="43.307876586914" lon="-7.6614832878113">
        <ele>470</ele>
        <time>2019-09-11T10:58:43+00:00</time>
      </trkpt>
      <trkpt lat="43.307888031006" lon="-7.6614933013916">
        <ele>470</ele>
        <time>2019-09-11T10:58:44+00:00</time>
      </trkpt>
      <trkpt lat="43.307891845703" lon="-7.6615052223206">
        <ele>470</ele>
        <time>2019-09-11T10:58:45+00:00</time>
      </trkpt>
      <trkpt lat="43.3078956604" lon="-7.6615166664124">
        <ele>470</ele>
        <time>2019-09-11T10:58:46+00:00</time>
      </trkpt>
      <trkpt lat="43.307903289795" lon="-7.6615300178528">
        <ele>470</ele>
        <time>2019-09-11T10:58:47+00:00</time>
      </trkpt>
      <trkpt lat="43.307903289795" lon="-7.6615447998047">
        <ele>470</ele>
        <time>2019-09-11T10:58:48+00:00</time>
      </trkpt>
      <trkpt lat="43.307903289795" lon="-7.6615581512451">
        <ele>470</ele>
        <time>2019-09-11T10:58:49+00:00</time>
      </trkpt>
      <trkpt lat="43.3078956604" lon="-7.6615734100342">
        <ele>470</ele>
        <time>2019-09-11T10:58:50+00:00</time>
      </trkpt>
      <trkpt lat="43.307891845703" lon="-7.661584854126">
        <ele>470</ele>
        <time>2019-09-11T10:58:51+00:00</time>
      </trkpt>
      <trkpt lat="43.307880401611" lon="-7.6615915298462">
        <ele>470</ele>
        <time>2019-09-11T10:58:52+00:00</time>
      </trkpt>
      <trkpt lat="43.30786895752" lon="-7.661600112915">
        <ele>470</ele>
        <time>2019-09-11T10:58:53+00:00</time>
      </trkpt>
      <trkpt lat="43.307861328125" lon="-7.6616067886353">
        <ele>470</ele>
        <time>2019-09-11T10:58:54+00:00</time>
      </trkpt>
      <trkpt lat="43.307849884033" lon="-7.6616115570068">
        <ele>470</ele>
        <time>2019-09-11T10:58:55+00:00</time>
      </trkpt>
      <trkpt lat="43.307842254639" lon="-7.6616168022156">
        <ele>470</ele>
        <time>2019-09-11T10:58:56+00:00</time>
      </trkpt>
      <trkpt lat="43.307834625244" lon="-7.6616282463074">
        <ele>470</ele>
        <time>2019-09-11T10:58:57+00:00</time>
      </trkpt>
      <trkpt lat="43.307823181152" lon="-7.6616349220276">
        <ele>470</ele>
        <time>2019-09-11T10:58:58+00:00</time>
      </trkpt>
      <trkpt lat="43.307815551758" lon="-7.6616415977478">
        <ele>470</ele>
        <time>2019-09-11T10:58:59+00:00</time>
      </trkpt>
      <trkpt lat="43.307807922363" lon="-7.6616468429565">
        <ele>470</ele>
        <time>2019-09-11T10:59:00+00:00</time>
      </trkpt>
      <trkpt lat="43.307800292969" lon="-7.6616449356079">
        <ele>470</ele>
        <time>2019-09-11T10:59:01+00:00</time>
      </trkpt>
      <trkpt lat="43.307792663574" lon="-7.6616501808167">
        <ele>470</ele>
        <time>2019-09-11T10:59:02+00:00</time>
      </trkpt>
      <trkpt lat="43.30778503418" lon="-7.6616582870483">
        <ele>470</ele>
        <time>2019-09-11T10:59:03+00:00</time>
      </trkpt>
      <trkpt lat="43.307777404785" lon="-7.6616649627686">
        <ele>470</ele>
        <time>2019-09-11T10:59:04+00:00</time>
      </trkpt>
      <trkpt lat="43.307769775391" lon="-7.6616702079773">
        <ele>470</ele>
        <time>2019-09-11T10:59:05+00:00</time>
      </trkpt>
      <trkpt lat="43.307762145996" lon="-7.6616802215576">
        <ele>470</ele>
        <time>2019-09-11T10:59:06+00:00</time>
      </trkpt>
      <trkpt lat="43.307754516602" lon="-7.6616916656494">
        <ele>470</ele>
        <time>2019-09-11T10:59:07+00:00</time>
      </trkpt>
      <trkpt lat="43.307746887207" lon="-7.6617064476013">
        <ele>470</ele>
        <time>2019-09-11T10:59:08+00:00</time>
      </trkpt>
      <trkpt lat="43.30774307251" lon="-7.6617217063904">
        <ele>470</ele>
        <time>2019-09-11T10:59:09+00:00</time>
      </trkpt>
      <trkpt lat="43.307731628418" lon="-7.6617331504822">
        <ele>470</ele>
        <time>2019-09-11T10:59:10+00:00</time>
      </trkpt>
      <trkpt lat="43.307727813721" lon="-7.6617450714111">
        <ele>470</ele>
        <time>2019-09-11T10:59:11+00:00</time>
      </trkpt>
      <trkpt lat="43.307720184326" lon="-7.661759853363">
        <ele>470</ele>
        <time>2019-09-11T10:59:12+00:00</time>
      </trkpt>
      <trkpt lat="43.307712554932" lon="-7.6617751121521">
        <ele>470</ele>
        <time>2019-09-11T10:59:13+00:00</time>
      </trkpt>
      <trkpt lat="43.307712554932" lon="-7.6617951393127">
        <ele>470</ele>
        <time>2019-09-11T10:59:14+00:00</time>
      </trkpt>
      <trkpt lat="43.307704925537" lon="-7.6618051528931">
        <ele>470</ele>
        <time>2019-09-11T10:59:15+00:00</time>
      </trkpt>
      <trkpt lat="43.307697296143" lon="-7.6618151664734">
        <ele>470</ele>
        <time>2019-09-11T10:59:16+00:00</time>
      </trkpt>
      <trkpt lat="43.307693481445" lon="-7.6618251800537">
        <ele>470</ele>
        <time>2019-09-11T10:59:17+00:00</time>
      </trkpt>
      <trkpt lat="43.307689666748" lon="-7.6618385314941">
        <ele>470</ele>
        <time>2019-09-11T10:59:18+00:00</time>
      </trkpt>
      <trkpt lat="43.307682037354" lon="-7.6618499755859">
        <ele>470</ele>
        <time>2019-09-11T10:59:19+00:00</time>
      </trkpt>
      <trkpt lat="43.307682037354" lon="-7.6618714332581">
        <ele>470</ele>
        <time>2019-09-11T10:59:20+00:00</time>
      </trkpt>
      <trkpt lat="43.307682037354" lon="-7.6618947982788">
        <ele>470</ele>
        <time>2019-09-11T10:59:21+00:00</time>
      </trkpt>
      <trkpt lat="43.307678222656" lon="-7.6619048118591">
        <ele>470</ele>
        <time>2019-09-11T10:59:22+00:00</time>
      </trkpt>
      <trkpt lat="43.307674407959" lon="-7.6619234085083">
        <ele>470</ele>
        <time>2019-09-11T10:59:23+00:00</time>
      </trkpt>
      <trkpt lat="43.307670593262" lon="-7.6619348526001">
        <ele>470</ele>
        <time>2019-09-11T10:59:24+00:00</time>
      </trkpt>
      <trkpt lat="43.307666778564" lon="-7.6619467735291">
        <ele>470</ele>
        <time>2019-09-11T10:59:25+00:00</time>
      </trkpt>
      <trkpt lat="43.307655334473" lon="-7.6619567871094">
        <ele>470</ele>
        <time>2019-09-11T10:59:26+00:00</time>
      </trkpt>
      <trkpt lat="43.307647705078" lon="-7.6619701385498">
        <ele>470</ele>
        <time>2019-09-11T10:59:27+00:00</time>
      </trkpt>
      <trkpt lat="43.307636260986" lon="-7.6619801521301">
        <ele>470</ele>
        <time>2019-09-11T10:59:28+00:00</time>
      </trkpt>
      <trkpt lat="43.307624816895" lon="-7.6619901657104">
        <ele>470</ele>
        <time>2019-09-11T10:59:29+00:00</time>
      </trkpt>
      <trkpt lat="43.307605743408" lon="-7.6619915962219">
        <ele>470</ele>
        <time>2019-09-11T10:59:30+00:00</time>
      </trkpt>
      <trkpt lat="43.307590484619" lon="-7.6619982719421">
        <ele>470</ele>
        <time>2019-09-11T10:59:31+00:00</time>
      </trkpt>
      <trkpt lat="43.307582855225" lon="-7.6620135307312">
        <ele>470</ele>
        <time>2019-09-11T10:59:32+00:00</time>
      </trkpt>
      <trkpt lat="43.30757522583" lon="-7.6620268821716">
        <ele>470</ele>
        <time>2019-09-11T10:59:33+00:00</time>
      </trkpt>
      <trkpt lat="43.307567596436" lon="-7.6620335578918">
        <ele>470</ele>
        <time>2019-09-11T10:59:34+00:00</time>
      </trkpt>
      <trkpt lat="43.307559967041" lon="-7.6620435714722">
        <ele>470</ele>
        <time>2019-09-11T10:59:35+00:00</time>
      </trkpt>
      <trkpt lat="43.307552337646" lon="-7.6620583534241">
        <ele>470</ele>
        <time>2019-09-11T10:59:36+00:00</time>
      </trkpt>
      <trkpt lat="43.307548522949" lon="-7.6620650291443">
        <ele>470</ele>
        <time>2019-09-11T10:59:37+00:00</time>
      </trkpt>
      <trkpt lat="43.307537078857" lon="-7.6620717048645">
        <ele>470</ele>
        <time>2019-09-11T10:59:38+00:00</time>
      </trkpt>
      <trkpt lat="43.307529449463" lon="-7.6620798110962">
        <ele>470</ele>
        <time>2019-09-11T10:59:39+00:00</time>
      </trkpt>
      <trkpt lat="43.307521820068" lon="-7.6620864868164">
        <ele>470</ele>
        <time>2019-09-11T10:59:40+00:00</time>
      </trkpt>
      <trkpt lat="43.307514190674" lon="-7.6620998382568">
        <ele>470</ele>
        <time>2019-09-11T10:59:41+00:00</time>
      </trkpt>
      <trkpt lat="43.307506561279" lon="-7.6621117591858">
        <ele>470</ele>
        <time>2019-09-11T10:59:42+00:00</time>
      </trkpt>
      <trkpt lat="43.307502746582" lon="-7.6621251106262">
        <ele>469</ele>
        <time>2019-09-11T10:59:43+00:00</time>
      </trkpt>
      <trkpt lat="43.307495117188" lon="-7.6621332168579">
        <ele>469</ele>
        <time>2019-09-11T10:59:44+00:00</time>
      </trkpt>
      <trkpt lat="43.307487487793" lon="-7.6621398925781">
        <ele>469</ele>
        <time>2019-09-11T10:59:45+00:00</time>
      </trkpt>
      <trkpt lat="43.307476043701" lon="-7.6621451377869">
        <ele>469</ele>
        <time>2019-09-11T10:59:46+00:00</time>
      </trkpt>
      <trkpt lat="43.307472229004" lon="-7.6621499061584">
        <ele>469</ele>
        <time>2019-09-11T10:59:47+00:00</time>
      </trkpt>
      <trkpt lat="43.307464599609" lon="-7.6621618270874">
        <ele>469</ele>
        <time>2019-09-11T10:59:48+00:00</time>
      </trkpt>
      <trkpt lat="43.307453155518" lon="-7.6621751785278">
        <ele>469</ele>
        <time>2019-09-11T10:59:49+00:00</time>
      </trkpt>
      <trkpt lat="43.307445526123" lon="-7.6621885299683">
        <ele>469</ele>
        <time>2019-09-11T10:59:50+00:00</time>
      </trkpt>
      <trkpt lat="43.307437896729" lon="-7.6622033119202">
        <ele>469</ele>
        <time>2019-09-11T10:59:51+00:00</time>
      </trkpt>
      <trkpt lat="43.307426452637" lon="-7.6622185707092">
        <ele>469</ele>
        <time>2019-09-11T10:59:52+00:00</time>
      </trkpt>
      <trkpt lat="43.307415008545" lon="-7.662230014801">
        <ele>469</ele>
        <time>2019-09-11T10:59:53+00:00</time>
      </trkpt>
      <trkpt lat="43.307411193848" lon="-7.6622381210327">
        <ele>469</ele>
        <time>2019-09-11T10:59:54+00:00</time>
      </trkpt>
      <trkpt lat="43.307403564453" lon="-7.6622500419617">
        <ele>469</ele>
        <time>2019-09-11T10:59:55+00:00</time>
      </trkpt>
      <trkpt lat="43.307392120361" lon="-7.6622648239136">
        <ele>469</ele>
        <time>2019-09-11T10:59:56+00:00</time>
      </trkpt>
      <trkpt lat="43.307384490967" lon="-7.6622748374939">
        <ele>469</ele>
        <time>2019-09-11T10:59:57+00:00</time>
      </trkpt>
      <trkpt lat="43.307376861572" lon="-7.6622867584229">
        <ele>469</ele>
        <time>2019-09-11T10:59:58+00:00</time>
      </trkpt>
      <trkpt lat="43.307369232178" lon="-7.6622982025146">
        <ele>469</ele>
        <time>2019-09-11T10:59:59+00:00</time>
      </trkpt>
      <trkpt lat="43.30736541748" lon="-7.6623101234436">
        <ele>469</ele>
        <time>2019-09-11T11:00:00+00:00</time>
      </trkpt>
      <trkpt lat="43.307361602783" lon="-7.6623201370239">
        <ele>469</ele>
        <time>2019-09-11T11:00:01+00:00</time>
      </trkpt>
      <trkpt lat="43.307353973389" lon="-7.6623334884644">
        <ele>469</ele>
        <time>2019-09-11T11:00:02+00:00</time>
      </trkpt>
      <trkpt lat="43.307350158691" lon="-7.6623482704163">
        <ele>469</ele>
        <time>2019-09-11T11:00:03+00:00</time>
      </trkpt>
      <trkpt lat="43.307342529297" lon="-7.6623601913452">
        <ele>469</ele>
        <time>2019-09-11T11:00:04+00:00</time>
      </trkpt>
      <trkpt lat="43.3073387146" lon="-7.6623749732971">
        <ele>469</ele>
        <time>2019-09-11T11:00:05+00:00</time>
      </trkpt>
      <trkpt lat="43.307334899902" lon="-7.6623868942261">
        <ele>469</ele>
        <time>2019-09-11T11:00:06+00:00</time>
      </trkpt>
      <trkpt lat="43.307331085205" lon="-7.6624031066895">
        <ele>469</ele>
        <time>2019-09-11T11:00:07+00:00</time>
      </trkpt>
      <trkpt lat="43.307327270508" lon="-7.6624250411987">
        <ele>469</ele>
        <time>2019-09-11T11:00:08+00:00</time>
      </trkpt>
      <trkpt lat="43.307323455811" lon="-7.6624417304993">
        <ele>469</ele>
        <time>2019-09-11T11:00:09+00:00</time>
      </trkpt>
      <trkpt lat="43.307323455811" lon="-7.6624631881714">
        <ele>469</ele>
        <time>2019-09-11T11:00:10+00:00</time>
      </trkpt>
      <trkpt lat="43.307319641113" lon="-7.6624865531921">
        <ele>469</ele>
        <time>2019-09-11T11:00:11+00:00</time>
      </trkpt>
      <trkpt lat="43.307315826416" lon="-7.6625018119812">
        <ele>469</ele>
        <time>2019-09-11T11:00:12+00:00</time>
      </trkpt>
      <trkpt lat="43.307312011719" lon="-7.6625165939331">
        <ele>469</ele>
        <time>2019-09-11T11:00:13+00:00</time>
      </trkpt>
      <trkpt lat="43.307308197021" lon="-7.6625266075134">
        <ele>469</ele>
        <time>2019-09-11T11:00:14+00:00</time>
      </trkpt>
      <trkpt lat="43.307304382324" lon="-7.6625385284424">
        <ele>469</ele>
        <time>2019-09-11T11:00:15+00:00</time>
      </trkpt>
      <trkpt lat="43.307300567627" lon="-7.6625533103943">
        <ele>469</ele>
        <time>2019-09-11T11:00:16+00:00</time>
      </trkpt>
      <trkpt lat="43.30729675293" lon="-7.6625666618347">
        <ele>469</ele>
        <time>2019-09-11T11:00:17+00:00</time>
      </trkpt>
      <trkpt lat="43.307292938232" lon="-7.662576675415">
        <ele>469</ele>
        <time>2019-09-11T11:00:18+00:00</time>
      </trkpt>
      <trkpt lat="43.307289123535" lon="-7.6625881195068">
        <ele>469</ele>
        <time>2019-09-11T11:00:19+00:00</time>
      </trkpt>
      <trkpt lat="43.307285308838" lon="-7.6625981330872">
        <ele>469</ele>
        <time>2019-09-11T11:00:20+00:00</time>
      </trkpt>
      <trkpt lat="43.307281494141" lon="-7.662606716156">
        <ele>469</ele>
        <time>2019-09-11T11:00:21+00:00</time>
      </trkpt>
      <trkpt lat="43.307281494141" lon="-7.6626181602478">
        <ele>469</ele>
        <time>2019-09-11T11:00:22+00:00</time>
      </trkpt>
      <trkpt lat="43.307281494141" lon="-7.6626300811768">
        <ele>469</ele>
        <time>2019-09-11T11:00:23+00:00</time>
      </trkpt>
      <trkpt lat="43.307273864746" lon="-7.6626415252686">
        <ele>469</ele>
        <time>2019-09-11T11:00:24+00:00</time>
      </trkpt>
      <trkpt lat="43.307266235352" lon="-7.6626515388489">
        <ele>469</ele>
        <time>2019-09-11T11:00:25+00:00</time>
      </trkpt>
      <trkpt lat="43.307258605957" lon="-7.6626615524292">
        <ele>469</ele>
        <time>2019-09-11T11:00:26+00:00</time>
      </trkpt>
      <trkpt lat="43.30725479126" lon="-7.6626749038696">
        <ele>469</ele>
        <time>2019-09-11T11:00:27+00:00</time>
      </trkpt>
      <trkpt lat="43.307243347168" lon="-7.6626868247986">
        <ele>469</ele>
        <time>2019-09-11T11:00:28+00:00</time>
      </trkpt>
      <trkpt lat="43.307239532471" lon="-7.6626968383789">
        <ele>469</ele>
        <time>2019-09-11T11:00:29+00:00</time>
      </trkpt>
      <trkpt lat="43.307231903076" lon="-7.6627101898193">
        <ele>469</ele>
        <time>2019-09-11T11:00:30+00:00</time>
      </trkpt>
      <trkpt lat="43.307231903076" lon="-7.6627249717712">
        <ele>469</ele>
        <time>2019-09-11T11:00:31+00:00</time>
      </trkpt>
      <trkpt lat="43.307224273682" lon="-7.6627349853516">
        <ele>469</ele>
        <time>2019-09-11T11:00:32+00:00</time>
      </trkpt>
      <trkpt lat="43.307216644287" lon="-7.6627464294434">
        <ele>469</ele>
        <time>2019-09-11T11:00:33+00:00</time>
      </trkpt>
      <trkpt lat="43.307216644287" lon="-7.6627616882324">
        <ele>469</ele>
        <time>2019-09-11T11:00:34+00:00</time>
      </trkpt>
      <trkpt lat="43.307209014893" lon="-7.6627750396729">
        <ele>469</ele>
        <time>2019-09-11T11:00:35+00:00</time>
      </trkpt>
      <trkpt lat="43.307205200195" lon="-7.6627850532532">
        <ele>469</ele>
        <time>2019-09-11T11:00:36+00:00</time>
      </trkpt>
      <trkpt lat="43.307201385498" lon="-7.662796497345">
        <ele>469</ele>
        <time>2019-09-11T11:00:37+00:00</time>
      </trkpt>
      <trkpt lat="43.307193756104" lon="-7.6628084182739">
        <ele>469</ele>
        <time>2019-09-11T11:00:38+00:00</time>
      </trkpt>
      <trkpt lat="43.307189941406" lon="-7.6628217697144">
        <ele>469</ele>
        <time>2019-09-11T11:00:39+00:00</time>
      </trkpt>
      <trkpt lat="43.307182312012" lon="-7.6628351211548">
        <ele>469</ele>
        <time>2019-09-11T11:00:40+00:00</time>
      </trkpt>
      <trkpt lat="43.307174682617" lon="-7.6628499031067">
        <ele>469</ele>
        <time>2019-09-11T11:00:41+00:00</time>
      </trkpt>
      <trkpt lat="43.30717086792" lon="-7.6628632545471">
        <ele>469</ele>
        <time>2019-09-11T11:00:42+00:00</time>
      </trkpt>
      <trkpt lat="43.307167053223" lon="-7.6628766059875">
        <ele>469</ele>
        <time>2019-09-11T11:00:43+00:00</time>
      </trkpt>
      <trkpt lat="43.307163238525" lon="-7.662889957428">
        <ele>469</ele>
        <time>2019-09-11T11:00:44+00:00</time>
      </trkpt>
      <trkpt lat="43.307163238525" lon="-7.6629066467285">
        <ele>469</ele>
        <time>2019-09-11T11:00:45+00:00</time>
      </trkpt>
      <trkpt lat="43.307163238525" lon="-7.6629185676575">
        <ele>469</ele>
        <time>2019-09-11T11:00:46+00:00</time>
      </trkpt>
      <trkpt lat="43.307159423828" lon="-7.6629314422607">
        <ele>469</ele>
        <time>2019-09-11T11:00:47+00:00</time>
      </trkpt>
      <trkpt lat="43.307159423828" lon="-7.6629447937012">
        <ele>469</ele>
        <time>2019-09-11T11:00:48+00:00</time>
      </trkpt>
      <trkpt lat="43.307151794434" lon="-7.6629567146301">
        <ele>469</ele>
        <time>2019-09-11T11:00:49+00:00</time>
      </trkpt>
      <trkpt lat="43.307151794434" lon="-7.662971496582">
        <ele>469</ele>
        <time>2019-09-11T11:00:50+00:00</time>
      </trkpt>
      <trkpt lat="43.307151794434" lon="-7.6629815101624">
        <ele>469</ele>
        <time>2019-09-11T11:00:51+00:00</time>
      </trkpt>
      <trkpt lat="43.307151794434" lon="-7.6629915237427">
        <ele>469</ele>
        <time>2019-09-11T11:00:52+00:00</time>
      </trkpt>
      <trkpt lat="43.307151794434" lon="-7.6630034446716">
        <ele>469</ele>
        <time>2019-09-11T11:00:53+00:00</time>
      </trkpt>
      <trkpt lat="43.307151794434" lon="-7.6630167961121">
        <ele>469</ele>
        <time>2019-09-11T11:00:54+00:00</time>
      </trkpt>
      <trkpt lat="43.307155609131" lon="-7.663031578064">
        <ele>469</ele>
        <time>2019-09-11T11:00:55+00:00</time>
      </trkpt>
      <trkpt lat="43.307159423828" lon="-7.6630401611328">
        <ele>469</ele>
        <time>2019-09-11T11:00:56+00:00</time>
      </trkpt>
      <trkpt lat="43.307159423828" lon="-7.6630549430847">
        <ele>469</ele>
        <time>2019-09-11T11:00:57+00:00</time>
      </trkpt>
      <trkpt lat="43.307163238525" lon="-7.6630735397339">
        <ele>469</ele>
        <time>2019-09-11T11:00:58+00:00</time>
      </trkpt>
      <trkpt lat="43.307163238525" lon="-7.6630916595459">
        <ele>469</ele>
        <time>2019-09-11T11:00:59+00:00</time>
      </trkpt>
      <trkpt lat="43.307163238525" lon="-7.6631083488464">
        <ele>469</ele>
        <time>2019-09-11T11:01:00+00:00</time>
      </trkpt>
      <trkpt lat="43.307163238525" lon="-7.6631231307983">
        <ele>469</ele>
        <time>2019-09-11T11:01:01+00:00</time>
      </trkpt>
      <trkpt lat="43.307167053223" lon="-7.6631331443787">
        <ele>469</ele>
        <time>2019-09-11T11:01:02+00:00</time>
      </trkpt>
      <trkpt lat="43.30717086792" lon="-7.6631484031677">
        <ele>469</ele>
        <time>2019-09-11T11:01:03+00:00</time>
      </trkpt>
      <trkpt lat="43.307174682617" lon="-7.6631684303284">
        <ele>469</ele>
        <time>2019-09-11T11:01:04+00:00</time>
      </trkpt>
      <trkpt lat="43.307174682617" lon="-7.6631851196289">
        <ele>469</ele>
        <time>2019-09-11T11:01:05+00:00</time>
      </trkpt>
      <trkpt lat="43.30717086792" lon="-7.6632018089294">
        <ele>469</ele>
        <time>2019-09-11T11:01:06+00:00</time>
      </trkpt>
      <trkpt lat="43.307167053223" lon="-7.6632165908813">
        <ele>469</ele>
        <time>2019-09-11T11:01:07+00:00</time>
      </trkpt>
      <trkpt lat="43.307167053223" lon="-7.6632299423218">
        <ele>469</ele>
        <time>2019-09-11T11:01:08+00:00</time>
      </trkpt>
      <trkpt lat="43.307167053223" lon="-7.6632452011108">
        <ele>469</ele>
        <time>2019-09-11T11:01:09+00:00</time>
      </trkpt>
      <trkpt lat="43.307167053223" lon="-7.6632618904114">
        <ele>469</ele>
        <time>2019-09-11T11:01:10+00:00</time>
      </trkpt>
      <trkpt lat="43.30717086792" lon="-7.6632719039917">
        <ele>469</ele>
        <time>2019-09-11T11:01:11+00:00</time>
      </trkpt>
      <trkpt lat="43.307174682617" lon="-7.6632866859436">
        <ele>469</ele>
        <time>2019-09-11T11:01:12+00:00</time>
      </trkpt>
      <trkpt lat="43.307178497314" lon="-7.6632981300354">
        <ele>469</ele>
        <time>2019-09-11T11:01:13+00:00</time>
      </trkpt>
      <trkpt lat="43.307182312012" lon="-7.6633148193359">
        <ele>469</ele>
        <time>2019-09-11T11:01:14+00:00</time>
      </trkpt>
      <trkpt lat="43.307186126709" lon="-7.6633281707764">
        <ele>469</ele>
        <time>2019-09-11T11:01:15+00:00</time>
      </trkpt>
      <trkpt lat="43.307189941406" lon="-7.6633501052856">
        <ele>469</ele>
        <time>2019-09-11T11:01:16+00:00</time>
      </trkpt>
      <trkpt lat="43.307193756104" lon="-7.6633682250977">
        <ele>469</ele>
        <time>2019-09-11T11:01:17+00:00</time>
      </trkpt>
      <trkpt lat="43.307201385498" lon="-7.6633849143982">
        <ele>469</ele>
        <time>2019-09-11T11:01:18+00:00</time>
      </trkpt>
      <trkpt lat="43.307209014893" lon="-7.6634016036987">
        <ele>469</ele>
        <time>2019-09-11T11:01:19+00:00</time>
      </trkpt>
      <trkpt lat="43.307216644287" lon="-7.6634168624878">
        <ele>469</ele>
        <time>2019-09-11T11:01:20+00:00</time>
      </trkpt>
      <trkpt lat="43.307228088379" lon="-7.6634283065796">
        <ele>469</ele>
        <time>2019-09-11T11:01:21+00:00</time>
      </trkpt>
      <trkpt lat="43.307235717773" lon="-7.6634402275085">
        <ele>469</ele>
        <time>2019-09-11T11:01:22+00:00</time>
      </trkpt>
      <trkpt lat="43.307243347168" lon="-7.6634483337402">
        <ele>469</ele>
        <time>2019-09-11T11:01:23+00:00</time>
      </trkpt>
      <trkpt lat="43.30725479126" lon="-7.6634550094604">
        <ele>469</ele>
        <time>2019-09-11T11:01:24+00:00</time>
      </trkpt>
      <trkpt lat="43.307266235352" lon="-7.663459777832">
        <ele>469</ele>
        <time>2019-09-11T11:01:25+00:00</time>
      </trkpt>
      <trkpt lat="43.307273864746" lon="-7.6634697914124">
        <ele>469</ele>
        <time>2019-09-11T11:01:26+00:00</time>
      </trkpt>
      <trkpt lat="43.307281494141" lon="-7.6634783744812">
        <ele>469</ele>
        <time>2019-09-11T11:01:27+00:00</time>
      </trkpt>
      <trkpt lat="43.307292938232" lon="-7.6634883880615">
        <ele>469</ele>
        <time>2019-09-11T11:01:28+00:00</time>
      </trkpt>
      <trkpt lat="43.307304382324" lon="-7.6634964942932">
        <ele>469</ele>
        <time>2019-09-11T11:01:29+00:00</time>
      </trkpt>
      <trkpt lat="43.307312011719" lon="-7.6635084152222">
        <ele>468</ele>
        <time>2019-09-11T11:01:30+00:00</time>
      </trkpt>
      <trkpt lat="43.307327270508" lon="-7.6635184288025">
        <ele>468</ele>
        <time>2019-09-11T11:01:31+00:00</time>
      </trkpt>
      <trkpt lat="43.307346343994" lon="-7.6635298728943">
        <ele>468</ele>
        <time>2019-09-11T11:01:32+00:00</time>
      </trkpt>
      <trkpt lat="43.307353973389" lon="-7.6635432243347">
        <ele>468</ele>
        <time>2019-09-11T11:01:33+00:00</time>
      </trkpt>
      <trkpt lat="43.307361602783" lon="-7.6635565757751">
        <ele>468</ele>
        <time>2019-09-11T11:01:34+00:00</time>
      </trkpt>
      <trkpt lat="43.307373046875" lon="-7.6635699272156">
        <ele>468</ele>
        <time>2019-09-11T11:01:35+00:00</time>
      </trkpt>
      <trkpt lat="43.307376861572" lon="-7.6635866165161">
        <ele>468</ele>
        <time>2019-09-11T11:01:36+00:00</time>
      </trkpt>
      <trkpt lat="43.307384490967" lon="-7.6635999679565">
        <ele>468</ele>
        <time>2019-09-11T11:01:37+00:00</time>
      </trkpt>
      <trkpt lat="43.307392120361" lon="-7.6636152267456">
        <ele>468</ele>
        <time>2019-09-11T11:01:38+00:00</time>
      </trkpt>
      <trkpt lat="43.307399749756" lon="-7.6636300086975">
        <ele>468</ele>
        <time>2019-09-11T11:01:39+00:00</time>
      </trkpt>
      <trkpt lat="43.30740737915" lon="-7.6636433601379">
        <ele>468</ele>
        <time>2019-09-11T11:01:40+00:00</time>
      </trkpt>
      <trkpt lat="43.307415008545" lon="-7.6636581420898">
        <ele>468</ele>
        <time>2019-09-11T11:01:41+00:00</time>
      </trkpt>
      <trkpt lat="43.307418823242" lon="-7.6636734008789">
        <ele>468</ele>
        <time>2019-09-11T11:01:42+00:00</time>
      </trkpt>
      <trkpt lat="43.307422637939" lon="-7.6636900901794">
        <ele>469</ele>
        <time>2019-09-11T11:01:43+00:00</time>
      </trkpt>
      <trkpt lat="43.307430267334" lon="-7.6637015342712">
        <ele>469</ele>
        <time>2019-09-11T11:01:44+00:00</time>
      </trkpt>
      <trkpt lat="43.307441711426" lon="-7.6637115478516">
        <ele>469</ele>
        <time>2019-09-11T11:01:45+00:00</time>
      </trkpt>
      <trkpt lat="43.30744934082" lon="-7.6637268066406">
        <ele>469</ele>
        <time>2019-09-11T11:01:46+00:00</time>
      </trkpt>
      <trkpt lat="43.307453155518" lon="-7.6637382507324">
        <ele>469</ele>
        <time>2019-09-11T11:01:47+00:00</time>
      </trkpt>
      <trkpt lat="43.307464599609" lon="-7.6637482643127">
        <ele>469</ele>
        <time>2019-09-11T11:01:48+00:00</time>
      </trkpt>
      <trkpt lat="43.307476043701" lon="-7.6637582778931">
        <ele>469</ele>
        <time>2019-09-11T11:01:49+00:00</time>
      </trkpt>
      <trkpt lat="43.307487487793" lon="-7.6637649536133">
        <ele>469</ele>
        <time>2019-09-11T11:01:50+00:00</time>
      </trkpt>
      <trkpt lat="43.307502746582" lon="-7.6637682914734">
        <ele>469</ele>
        <time>2019-09-11T11:01:51+00:00</time>
      </trkpt>
      <trkpt lat="43.307518005371" lon="-7.6637735366821">
        <ele>469</ele>
        <time>2019-09-11T11:01:52+00:00</time>
      </trkpt>
      <trkpt lat="43.307529449463" lon="-7.6637783050537">
        <ele>470</ele>
        <time>2019-09-11T11:01:53+00:00</time>
      </trkpt>
      <trkpt lat="43.307540893555" lon="-7.6637868881226">
        <ele>470</ele>
        <time>2019-09-11T11:01:54+00:00</time>
      </trkpt>
      <trkpt lat="43.307548522949" lon="-7.6637997627258">
        <ele>470</ele>
        <time>2019-09-11T11:01:55+00:00</time>
      </trkpt>
      <trkpt lat="43.307552337646" lon="-7.6638197898865">
        <ele>470</ele>
        <time>2019-09-11T11:01:56+00:00</time>
      </trkpt>
      <trkpt lat="43.307556152344" lon="-7.663836479187">
        <ele>470</ele>
        <time>2019-09-11T11:01:57+00:00</time>
      </trkpt>
      <trkpt lat="43.307556152344" lon="-7.6638531684875">
        <ele>470</ele>
        <time>2019-09-11T11:01:58+00:00</time>
      </trkpt>
      <trkpt lat="43.307559967041" lon="-7.6638684272766">
        <ele>470</ele>
        <time>2019-09-11T11:01:59+00:00</time>
      </trkpt>
      <trkpt lat="43.307559967041" lon="-7.6638851165771">
        <ele>470</ele>
        <time>2019-09-11T11:02:00+00:00</time>
      </trkpt>
      <trkpt lat="43.307559967041" lon="-7.6639018058777">
        <ele>470</ele>
        <time>2019-09-11T11:02:01+00:00</time>
      </trkpt>
      <trkpt lat="43.307563781738" lon="-7.6639132499695">
        <ele>470</ele>
        <time>2019-09-11T11:02:02+00:00</time>
      </trkpt>
      <trkpt lat="43.307571411133" lon="-7.6639266014099">
        <ele>470</ele>
        <time>2019-09-11T11:02:03+00:00</time>
      </trkpt>
      <trkpt lat="43.307579040527" lon="-7.6639385223389">
        <ele>470</ele>
        <time>2019-09-11T11:02:04+00:00</time>
      </trkpt>
      <trkpt lat="43.307586669922" lon="-7.6639533042908">
        <ele>470</ele>
        <time>2019-09-11T11:02:05+00:00</time>
      </trkpt>
      <trkpt lat="43.307590484619" lon="-7.6639685630798">
        <ele>470</ele>
        <time>2019-09-11T11:02:06+00:00</time>
      </trkpt>
      <trkpt lat="43.307594299316" lon="-7.6639814376831">
        <ele>470</ele>
        <time>2019-09-11T11:02:07+00:00</time>
      </trkpt>
      <trkpt lat="43.307594299316" lon="-7.6639981269836">
        <ele>470</ele>
        <time>2019-09-11T11:02:08+00:00</time>
      </trkpt>
      <trkpt lat="43.307594299316" lon="-7.664008140564">
        <ele>470</ele>
        <time>2019-09-11T11:02:09+00:00</time>
      </trkpt>
      <trkpt lat="43.307590484619" lon="-7.6640200614929">
        <ele>471</ele>
        <time>2019-09-11T11:02:10+00:00</time>
      </trkpt>
      <trkpt lat="43.307594299316" lon="-7.6640300750732">
        <ele>471</ele>
        <time>2019-09-11T11:02:11+00:00</time>
      </trkpt>
      <trkpt lat="43.307594299316" lon="-7.6640448570251">
        <ele>471</ele>
        <time>2019-09-11T11:02:12+00:00</time>
      </trkpt>
      <trkpt lat="43.307594299316" lon="-7.6640615463257">
        <ele>471</ele>
        <time>2019-09-11T11:02:13+00:00</time>
      </trkpt>
      <trkpt lat="43.307594299316" lon="-7.6640782356262">
        <ele>471</ele>
        <time>2019-09-11T11:02:14+00:00</time>
      </trkpt>
      <trkpt lat="43.307594299316" lon="-7.6640934944153">
        <ele>471</ele>
        <time>2019-09-11T11:02:15+00:00</time>
      </trkpt>
      <trkpt lat="43.307598114014" lon="-7.6641082763672">
        <ele>471</ele>
        <time>2019-09-11T11:02:16+00:00</time>
      </trkpt>
      <trkpt lat="43.307598114014" lon="-7.6641235351562">
        <ele>471</ele>
        <time>2019-09-11T11:02:17+00:00</time>
      </trkpt>
      <trkpt lat="43.307598114014" lon="-7.6641402244568">
        <ele>471</ele>
        <time>2019-09-11T11:02:18+00:00</time>
      </trkpt>
      <trkpt lat="43.307598114014" lon="-7.6641583442688">
        <ele>472</ele>
        <time>2019-09-11T11:02:19+00:00</time>
      </trkpt>
      <trkpt lat="43.307598114014" lon="-7.6641750335693">
        <ele>472</ele>
        <time>2019-09-11T11:02:20+00:00</time>
      </trkpt>
      <trkpt lat="43.307601928711" lon="-7.6641931533813">
        <ele>472</ele>
        <time>2019-09-11T11:02:21+00:00</time>
      </trkpt>
      <trkpt lat="43.307601928711" lon="-7.6642117500305">
        <ele>472</ele>
        <time>2019-09-11T11:02:22+00:00</time>
      </trkpt>
      <trkpt lat="43.307601928711" lon="-7.6642265319824">
        <ele>472</ele>
        <time>2019-09-11T11:02:23+00:00</time>
      </trkpt>
      <trkpt lat="43.307601928711" lon="-7.664243221283">
        <ele>471</ele>
        <time>2019-09-11T11:02:24+00:00</time>
      </trkpt>
      <trkpt lat="43.307598114014" lon="-7.6642618179321">
        <ele>471</ele>
        <time>2019-09-11T11:02:25+00:00</time>
      </trkpt>
      <trkpt lat="43.307594299316" lon="-7.6642785072327">
        <ele>471</ele>
        <time>2019-09-11T11:02:26+00:00</time>
      </trkpt>
      <trkpt lat="43.307590484619" lon="-7.6642966270447">
        <ele>471</ele>
        <time>2019-09-11T11:02:27+00:00</time>
      </trkpt>
      <trkpt lat="43.307586669922" lon="-7.6643133163452">
        <ele>471</ele>
        <time>2019-09-11T11:02:28+00:00</time>
      </trkpt>
      <trkpt lat="43.307582855225" lon="-7.6643280982971">
        <ele>471</ele>
        <time>2019-09-11T11:02:29+00:00</time>
      </trkpt>
      <trkpt lat="43.307579040527" lon="-7.6643466949463">
        <ele>471</ele>
        <time>2019-09-11T11:02:30+00:00</time>
      </trkpt>
      <trkpt lat="43.307579040527" lon="-7.6643633842468">
        <ele>471</ele>
        <time>2019-09-11T11:02:31+00:00</time>
      </trkpt>
      <trkpt lat="43.307579040527" lon="-7.6643767356873">
        <ele>471</ele>
        <time>2019-09-11T11:02:32+00:00</time>
      </trkpt>
      <trkpt lat="43.307582855225" lon="-7.6643915176392">
        <ele>470</ele>
        <time>2019-09-11T11:02:33+00:00</time>
      </trkpt>
      <trkpt lat="43.307582855225" lon="-7.6644034385681">
        <ele>470</ele>
        <time>2019-09-11T11:02:34+00:00</time>
      </trkpt>
      <trkpt lat="43.307586669922" lon="-7.6644167900085">
        <ele>471</ele>
        <time>2019-09-11T11:02:35+00:00</time>
      </trkpt>
      <trkpt lat="43.307586669922" lon="-7.6644282341003">
        <ele>470</ele>
        <time>2019-09-11T11:02:36+00:00</time>
      </trkpt>
      <trkpt lat="43.307586669922" lon="-7.6644415855408">
        <ele>470</ele>
        <time>2019-09-11T11:02:37+00:00</time>
      </trkpt>
      <trkpt lat="43.307586669922" lon="-7.6644582748413">
        <ele>470</ele>
        <time>2019-09-11T11:02:38+00:00</time>
      </trkpt>
      <trkpt lat="43.307586669922" lon="-7.6644716262817">
        <ele>470</ele>
        <time>2019-09-11T11:02:39+00:00</time>
      </trkpt>
      <trkpt lat="43.307586669922" lon="-7.6644883155823">
        <ele>470</ele>
        <time>2019-09-11T11:02:40+00:00</time>
      </trkpt>
      <trkpt lat="43.307586669922" lon="-7.6645016670227">
        <ele>470</ele>
        <time>2019-09-11T11:02:41+00:00</time>
      </trkpt>
      <trkpt lat="43.307582855225" lon="-7.6645150184631">
        <ele>470</ele>
        <time>2019-09-11T11:02:42+00:00</time>
      </trkpt>
      <trkpt lat="43.307582855225" lon="-7.6645283699036">
        <ele>470</ele>
        <time>2019-09-11T11:02:43+00:00</time>
      </trkpt>
      <trkpt lat="43.307579040527" lon="-7.6645398139954">
        <ele>470</ele>
        <time>2019-09-11T11:02:44+00:00</time>
      </trkpt>
      <trkpt lat="43.307579040527" lon="-7.6645517349243">
        <ele>470</ele>
        <time>2019-09-11T11:02:45+00:00</time>
      </trkpt>
      <trkpt lat="43.307582855225" lon="-7.6645684242249">
        <ele>471</ele>
        <time>2019-09-11T11:02:46+00:00</time>
      </trkpt>
      <trkpt lat="43.307582855225" lon="-7.6645832061768">
        <ele>471</ele>
        <time>2019-09-11T11:02:47+00:00</time>
      </trkpt>
      <trkpt lat="43.307586669922" lon="-7.6645951271057">
        <ele>471</ele>
        <time>2019-09-11T11:02:48+00:00</time>
      </trkpt>
      <trkpt lat="43.307586669922" lon="-7.6646132469177">
        <ele>471</ele>
        <time>2019-09-11T11:02:49+00:00</time>
      </trkpt>
      <trkpt lat="43.307582855225" lon="-7.6646318435669">
        <ele>472</ele>
        <time>2019-09-11T11:02:50+00:00</time>
      </trkpt>
      <trkpt lat="43.307579040527" lon="-7.6646466255188">
        <ele>472</ele>
        <time>2019-09-11T11:02:51+00:00</time>
      </trkpt>
      <trkpt lat="43.307579040527" lon="-7.664665222168">
        <ele>472</ele>
        <time>2019-09-11T11:02:52+00:00</time>
      </trkpt>
      <trkpt lat="43.30757522583" lon="-7.6646814346313">
        <ele>472</ele>
        <time>2019-09-11T11:02:53+00:00</time>
      </trkpt>
      <trkpt lat="43.307571411133" lon="-7.6646981239319">
        <ele>472</ele>
        <time>2019-09-11T11:02:54+00:00</time>
      </trkpt>
      <trkpt lat="43.307567596436" lon="-7.6647133827209">
        <ele>473</ele>
        <time>2019-09-11T11:02:55+00:00</time>
      </trkpt>
      <trkpt lat="43.307563781738" lon="-7.6647248268127">
        <ele>473</ele>
        <time>2019-09-11T11:02:56+00:00</time>
      </trkpt>
      <trkpt lat="43.307563781738" lon="-7.6647348403931">
        <ele>473</ele>
        <time>2019-09-11T11:02:57+00:00</time>
      </trkpt>
      <trkpt lat="43.307559967041" lon="-7.664746761322">
        <ele>473</ele>
        <time>2019-09-11T11:02:58+00:00</time>
      </trkpt>
      <trkpt lat="43.307559967041" lon="-7.664764881134">
        <ele>473</ele>
        <time>2019-09-11T11:02:59+00:00</time>
      </trkpt>
      <trkpt lat="43.307559967041" lon="-7.6647782325745">
        <ele>473</ele>
        <time>2019-09-11T11:03:00+00:00</time>
      </trkpt>
      <trkpt lat="43.307559967041" lon="-7.664794921875">
        <ele>474</ele>
        <time>2019-09-11T11:03:01+00:00</time>
      </trkpt>
      <trkpt lat="43.307559967041" lon="-7.6648035049438">
        <ele>474</ele>
        <time>2019-09-11T11:03:02+00:00</time>
      </trkpt>
      <trkpt lat="43.307559967041" lon="-7.6648168563843">
        <ele>474</ele>
        <time>2019-09-11T11:03:03+00:00</time>
      </trkpt>
      <trkpt lat="43.307559967041" lon="-7.6648316383362">
        <ele>475</ele>
        <time>2019-09-11T11:03:04+00:00</time>
      </trkpt>
      <trkpt lat="43.307559967041" lon="-7.6648502349854">
        <ele>475</ele>
        <time>2019-09-11T11:03:05+00:00</time>
      </trkpt>
      <trkpt lat="43.307559967041" lon="-7.6648683547974">
        <ele>475</ele>
        <time>2019-09-11T11:03:06+00:00</time>
      </trkpt>
      <trkpt lat="43.307559967041" lon="-7.6648817062378">
        <ele>476</ele>
        <time>2019-09-11T11:03:07+00:00</time>
      </trkpt>
      <trkpt lat="43.307563781738" lon="-7.6648998260498">
        <ele>476</ele>
        <time>2019-09-11T11:03:08+00:00</time>
      </trkpt>
      <trkpt lat="43.307571411133" lon="-7.6649131774902">
        <ele>476</ele>
        <time>2019-09-11T11:03:09+00:00</time>
      </trkpt>
      <trkpt lat="43.30757522583" lon="-7.6649231910706">
        <ele>476</ele>
        <time>2019-09-11T11:03:10+00:00</time>
      </trkpt>
      <trkpt lat="43.30757522583" lon="-7.664936542511">
        <ele>477</ele>
        <time>2019-09-11T11:03:11+00:00</time>
      </trkpt>
      <trkpt lat="43.30757522583" lon="-7.6649484634399">
        <ele>477</ele>
        <time>2019-09-11T11:03:12+00:00</time>
      </trkpt>
      <trkpt lat="43.307571411133" lon="-7.6649599075317">
        <ele>478</ele>
        <time>2019-09-11T11:03:13+00:00</time>
      </trkpt>
      <trkpt lat="43.307571411133" lon="-7.6649751663208">
        <ele>478</ele>
        <time>2019-09-11T11:03:14+00:00</time>
      </trkpt>
      <trkpt lat="43.307567596436" lon="-7.6649885177612">
        <ele>478</ele>
        <time>2019-09-11T11:03:15+00:00</time>
      </trkpt>
      <trkpt lat="43.307571411133" lon="-7.664999961853">
        <ele>478</ele>
        <time>2019-09-11T11:03:16+00:00</time>
      </trkpt>
      <trkpt lat="43.307567596436" lon="-7.6650133132935">
        <ele>478</ele>
        <time>2019-09-11T11:03:17+00:00</time>
      </trkpt>
      <trkpt lat="43.307567596436" lon="-7.6650314331055">
        <ele>478</ele>
        <time>2019-09-11T11:03:18+00:00</time>
      </trkpt>
      <trkpt lat="43.307567596436" lon="-7.6650500297546">
        <ele>478</ele>
        <time>2019-09-11T11:03:19+00:00</time>
      </trkpt>
      <trkpt lat="43.307567596436" lon="-7.6650681495667">
        <ele>479</ele>
        <time>2019-09-11T11:03:20+00:00</time>
      </trkpt>
      <trkpt lat="43.307567596436" lon="-7.6650815010071">
        <ele>479</ele>
        <time>2019-09-11T11:03:21+00:00</time>
      </trkpt>
      <trkpt lat="43.307567596436" lon="-7.6650948524475">
        <ele>479</ele>
        <time>2019-09-11T11:03:22+00:00</time>
      </trkpt>
      <trkpt lat="43.307567596436" lon="-7.6651148796082">
        <ele>479</ele>
        <time>2019-09-11T11:03:23+00:00</time>
      </trkpt>
      <trkpt lat="43.307567596436" lon="-7.6651282310486">
        <ele>479</ele>
        <time>2019-09-11T11:03:24+00:00</time>
      </trkpt>
      <trkpt lat="43.307567596436" lon="-7.6651449203491">
        <ele>479</ele>
        <time>2019-09-11T11:03:25+00:00</time>
      </trkpt>
      <trkpt lat="43.307567596436" lon="-7.6651568412781">
        <ele>479</ele>
        <time>2019-09-11T11:03:26+00:00</time>
      </trkpt>
      <trkpt lat="43.307567596436" lon="-7.6651701927185">
        <ele>479</ele>
        <time>2019-09-11T11:03:27+00:00</time>
      </trkpt>
      <trkpt lat="43.307567596436" lon="-7.6651816368103">
        <ele>480</ele>
        <time>2019-09-11T11:03:28+00:00</time>
      </trkpt>
      <trkpt lat="43.307563781738" lon="-7.6651935577393">
        <ele>480</ele>
        <time>2019-09-11T11:03:29+00:00</time>
      </trkpt>
      <trkpt lat="43.307563781738" lon="-7.6652097702026">
        <ele>480</ele>
        <time>2019-09-11T11:03:30+00:00</time>
      </trkpt>
      <trkpt lat="43.307559967041" lon="-7.6652250289917">
        <ele>480</ele>
        <time>2019-09-11T11:03:31+00:00</time>
      </trkpt>
      <trkpt lat="43.307559967041" lon="-7.6652417182922">
        <ele>480</ele>
        <time>2019-09-11T11:03:32+00:00</time>
      </trkpt>
      <trkpt lat="43.307559967041" lon="-7.665253162384">
        <ele>480</ele>
        <time>2019-09-11T11:03:33+00:00</time>
      </trkpt>
      <trkpt lat="43.307556152344" lon="-7.665265083313">
        <ele>480</ele>
        <time>2019-09-11T11:03:34+00:00</time>
      </trkpt>
      <trkpt lat="43.307552337646" lon="-7.6652750968933">
        <ele>480</ele>
        <time>2019-09-11T11:03:35+00:00</time>
      </trkpt>
      <trkpt lat="43.307556152344" lon="-7.6652865409851">
        <ele>480</ele>
        <time>2019-09-11T11:03:36+00:00</time>
      </trkpt>
      <trkpt lat="43.307552337646" lon="-7.6652998924255">
        <ele>481</ele>
        <time>2019-09-11T11:03:37+00:00</time>
      </trkpt>
      <trkpt lat="43.307552337646" lon="-7.6653151512146">
        <ele>481</ele>
        <time>2019-09-11T11:03:38+00:00</time>
      </trkpt>
      <trkpt lat="43.307552337646" lon="-7.6653318405151">
        <ele>481</ele>
        <time>2019-09-11T11:03:39+00:00</time>
      </trkpt>
      <trkpt lat="43.307552337646" lon="-7.6653451919556">
        <ele>481</ele>
        <time>2019-09-11T11:03:40+00:00</time>
      </trkpt>
      <trkpt lat="43.307552337646" lon="-7.6653599739075">
        <ele>481</ele>
        <time>2019-09-11T11:03:41+00:00</time>
      </trkpt>
      <trkpt lat="43.307552337646" lon="-7.665376663208">
        <ele>481</ele>
        <time>2019-09-11T11:03:42+00:00</time>
      </trkpt>
      <trkpt lat="43.307548522949" lon="-7.6653847694397">
        <ele>481</ele>
        <time>2019-09-11T11:03:43+00:00</time>
      </trkpt>
      <trkpt lat="43.307548522949" lon="-7.6653966903687">
        <ele>481</ele>
        <time>2019-09-11T11:03:44+00:00</time>
      </trkpt>
      <trkpt lat="43.307548522949" lon="-7.6654100418091">
        <ele>481</ele>
        <time>2019-09-11T11:03:45+00:00</time>
      </trkpt>
      <trkpt lat="43.307537078857" lon="-7.6654233932495">
        <ele>481</ele>
        <time>2019-09-11T11:03:46+00:00</time>
      </trkpt>
      <trkpt lat="43.307529449463" lon="-7.6654381752014">
        <ele>481</ele>
        <time>2019-09-11T11:03:47+00:00</time>
      </trkpt>
      <trkpt lat="43.307518005371" lon="-7.6654534339905">
        <ele>481</ele>
        <time>2019-09-11T11:03:48+00:00</time>
      </trkpt>
      <trkpt lat="43.307502746582" lon="-7.6654682159424">
        <ele>481</ele>
        <time>2019-09-11T11:03:49+00:00</time>
      </trkpt>
      <trkpt lat="43.307495117188" lon="-7.6654868125916">
        <ele>481</ele>
        <time>2019-09-11T11:03:50+00:00</time>
      </trkpt>
      <trkpt lat="43.307487487793" lon="-7.665500164032">
        <ele>481</ele>
        <time>2019-09-11T11:03:51+00:00</time>
      </trkpt>
      <trkpt lat="43.307479858398" lon="-7.6655116081238">
        <ele>481</ele>
        <time>2019-09-11T11:03:52+00:00</time>
      </trkpt>
      <trkpt lat="43.307468414307" lon="-7.6655235290527">
        <ele>481</ele>
        <time>2019-09-11T11:03:53+00:00</time>
      </trkpt>
      <trkpt lat="43.307460784912" lon="-7.6655335426331">
        <ele>481</ele>
        <time>2019-09-11T11:03:54+00:00</time>
      </trkpt>
      <trkpt lat="43.307453155518" lon="-7.6655449867249">
        <ele>481</ele>
        <time>2019-09-11T11:03:55+00:00</time>
      </trkpt>
      <trkpt lat="43.307441711426" lon="-7.6655583381653">
        <ele>481</ele>
        <time>2019-09-11T11:03:56+00:00</time>
      </trkpt>
      <trkpt lat="43.307437896729" lon="-7.6655631065369">
        <ele>481</ele>
        <time>2019-09-11T11:03:57+00:00</time>
      </trkpt>
      <trkpt lat="43.307430267334" lon="-7.6655731201172">
        <ele>481</ele>
        <time>2019-09-11T11:03:58+00:00</time>
      </trkpt>
      <trkpt lat="43.307418823242" lon="-7.6655797958374">
        <ele>481</ele>
        <time>2019-09-11T11:03:59+00:00</time>
      </trkpt>
      <trkpt lat="43.307411193848" lon="-7.6655883789062">
        <ele>481</ele>
        <time>2019-09-11T11:04:00+00:00</time>
      </trkpt>
      <trkpt lat="43.307399749756" lon="-7.665599822998">
        <ele>481</ele>
        <time>2019-09-11T11:04:01+00:00</time>
      </trkpt>
      <trkpt lat="43.307388305664" lon="-7.665611743927">
        <ele>481</ele>
        <time>2019-09-11T11:04:02+00:00</time>
      </trkpt>
      <trkpt lat="43.30738067627" lon="-7.6656265258789">
        <ele>481</ele>
        <time>2019-09-11T11:04:03+00:00</time>
      </trkpt>
      <trkpt lat="43.307369232178" lon="-7.6656384468079">
        <ele>481</ele>
        <time>2019-09-11T11:04:04+00:00</time>
      </trkpt>
      <trkpt lat="43.307353973389" lon="-7.6656465530396">
        <ele>481</ele>
        <time>2019-09-11T11:04:05+00:00</time>
      </trkpt>
      <trkpt lat="43.307342529297" lon="-7.66565990448">
        <ele>481</ele>
        <time>2019-09-11T11:04:06+00:00</time>
      </trkpt>
      <trkpt lat="43.307334899902" lon="-7.6656651496887">
        <ele>481</ele>
        <time>2019-09-11T11:04:07+00:00</time>
      </trkpt>
      <trkpt lat="43.307323455811" lon="-7.6656718254089">
        <ele>481</ele>
        <time>2019-09-11T11:04:08+00:00</time>
      </trkpt>
      <trkpt lat="43.307315826416" lon="-7.6656785011292">
        <ele>480</ele>
        <time>2019-09-11T11:04:09+00:00</time>
      </trkpt>
      <trkpt lat="43.307308197021" lon="-7.6656866073608">
        <ele>481</ele>
        <time>2019-09-11T11:04:10+00:00</time>
      </trkpt>
      <trkpt lat="43.30729675293" lon="-7.6656899452209">
        <ele>480</ele>
        <time>2019-09-11T11:04:11+00:00</time>
      </trkpt>
      <trkpt lat="43.307289123535" lon="-7.6656885147095">
        <ele>480</ele>
        <time>2019-09-11T11:04:12+00:00</time>
      </trkpt>
      <trkpt lat="43.307277679443" lon="-7.6656785011292">
        <ele>480</ele>
        <time>2019-09-11T11:04:13+00:00</time>
      </trkpt>
      <trkpt lat="43.307262420654" lon="-7.66565990448">
        <ele>480</ele>
        <time>2019-09-11T11:04:14+00:00</time>
      </trkpt>
      <trkpt lat="43.30725479126" lon="-7.6656498908997">
        <ele>480</ele>
        <time>2019-09-11T11:04:15+00:00</time>
      </trkpt>
      <trkpt lat="43.307243347168" lon="-7.6656384468079">
        <ele>480</ele>
        <time>2019-09-11T11:04:16+00:00</time>
      </trkpt>
      <trkpt lat="43.307231903076" lon="-7.6656265258789">
        <ele>480</ele>
        <time>2019-09-11T11:04:17+00:00</time>
      </trkpt>
      <trkpt lat="43.307220458984" lon="-7.6656150817871">
        <ele>480</ele>
        <time>2019-09-11T11:04:18+00:00</time>
      </trkpt>
      <trkpt lat="43.307209014893" lon="-7.6656050682068">
        <ele>480</ele>
        <time>2019-09-11T11:04:19+00:00</time>
      </trkpt>
      <trkpt lat="43.307201385498" lon="-7.6655950546265">
        <ele>480</ele>
        <time>2019-09-11T11:04:20+00:00</time>
      </trkpt>
      <trkpt lat="43.307189941406" lon="-7.6655850410461">
        <ele>480</ele>
        <time>2019-09-11T11:04:21+00:00</time>
      </trkpt>
      <trkpt lat="43.307178497314" lon="-7.6655783653259">
        <ele>480</ele>
        <time>2019-09-11T11:04:22+00:00</time>
      </trkpt>
      <trkpt lat="43.30717086792" lon="-7.6655697822571">
        <ele>480</ele>
        <time>2019-09-11T11:04:23+00:00</time>
      </trkpt>
      <trkpt lat="43.307163238525" lon="-7.6655583381653">
        <ele>479</ele>
        <time>2019-09-11T11:04:24+00:00</time>
      </trkpt>
      <trkpt lat="43.307151794434" lon="-7.6655468940735">
        <ele>479</ele>
        <time>2019-09-11T11:04:25+00:00</time>
      </trkpt>
      <trkpt lat="43.307147979736" lon="-7.6655368804932">
        <ele>479</ele>
        <time>2019-09-11T11:04:26+00:00</time>
      </trkpt>
      <trkpt lat="43.307136535645" lon="-7.6655268669128">
        <ele>479</ele>
        <time>2019-09-11T11:04:27+00:00</time>
      </trkpt>
      <trkpt lat="43.307132720947" lon="-7.6655116081238">
        <ele>479</ele>
        <time>2019-09-11T11:04:28+00:00</time>
      </trkpt>
      <trkpt lat="43.307125091553" lon="-7.665500164032">
        <ele>479</ele>
        <time>2019-09-11T11:04:29+00:00</time>
      </trkpt>
      <trkpt lat="43.307117462158" lon="-7.6654901504517">
        <ele>479</ele>
        <time>2019-09-11T11:04:30+00:00</time>
      </trkpt>
      <trkpt lat="43.307113647461" lon="-7.6654782295227">
        <ele>479</ele>
        <time>2019-09-11T11:04:31+00:00</time>
      </trkpt>
      <trkpt lat="43.307106018066" lon="-7.6654634475708">
        <ele>479</ele>
        <time>2019-09-11T11:04:32+00:00</time>
      </trkpt>
      <trkpt lat="43.307094573975" lon="-7.6654500961304">
        <ele>479</ele>
        <time>2019-09-11T11:04:33+00:00</time>
      </trkpt>
      <trkpt lat="43.307083129883" lon="-7.6654367446899">
        <ele>479</ele>
        <time>2019-09-11T11:04:34+00:00</time>
      </trkpt>
      <trkpt lat="43.307075500488" lon="-7.665424823761">
        <ele>479</ele>
        <time>2019-09-11T11:04:35+00:00</time>
      </trkpt>
      <trkpt lat="43.307064056396" lon="-7.6654133796692">
        <ele>479</ele>
        <time>2019-09-11T11:04:36+00:00</time>
      </trkpt>
      <trkpt lat="43.307056427002" lon="-7.6654014587402">
        <ele>479</ele>
        <time>2019-09-11T11:04:37+00:00</time>
      </trkpt>
      <trkpt lat="43.30704498291" lon="-7.6653881072998">
        <ele>479</ele>
        <time>2019-09-11T11:04:38+00:00</time>
      </trkpt>
      <trkpt lat="43.307037353516" lon="-7.6653752326965">
        <ele>479</ele>
        <time>2019-09-11T11:04:39+00:00</time>
      </trkpt>
      <trkpt lat="43.307025909424" lon="-7.6653652191162">
        <ele>479</ele>
        <time>2019-09-11T11:04:40+00:00</time>
      </trkpt>
      <trkpt lat="43.307018280029" lon="-7.6653552055359">
        <ele>479</ele>
        <time>2019-09-11T11:04:41+00:00</time>
      </trkpt>
      <trkpt lat="43.307010650635" lon="-7.6653451919556">
        <ele>479</ele>
        <time>2019-09-11T11:04:42+00:00</time>
      </trkpt>
      <trkpt lat="43.307006835938" lon="-7.6653351783752">
        <ele>479</ele>
        <time>2019-09-11T11:04:43+00:00</time>
      </trkpt>
      <trkpt lat="43.306999206543" lon="-7.6653251647949">
        <ele>479</ele>
        <time>2019-09-11T11:04:44+00:00</time>
      </trkpt>
      <trkpt lat="43.306991577148" lon="-7.6653165817261">
        <ele>479</ele>
        <time>2019-09-11T11:04:45+00:00</time>
      </trkpt>
      <trkpt lat="43.306991577148" lon="-7.6653065681458">
        <ele>478</ele>
        <time>2019-09-11T11:04:46+00:00</time>
      </trkpt>
      <trkpt lat="43.306983947754" lon="-7.6652965545654">
        <ele>478</ele>
        <time>2019-09-11T11:04:47+00:00</time>
      </trkpt>
      <trkpt lat="43.306976318359" lon="-7.6652898788452">
        <ele>478</ele>
        <time>2019-09-11T11:04:48+00:00</time>
      </trkpt>
      <trkpt lat="43.306964874268" lon="-7.6652851104736">
        <ele>477</ele>
        <time>2019-09-11T11:04:49+00:00</time>
      </trkpt>
      <trkpt lat="43.306957244873" lon="-7.6652750968933">
        <ele>477</ele>
        <time>2019-09-11T11:04:50+00:00</time>
      </trkpt>
      <trkpt lat="43.306953430176" lon="-7.6652584075928">
        <ele>477</ele>
        <time>2019-09-11T11:04:51+00:00</time>
      </trkpt>
      <trkpt lat="43.306938171387" lon="-7.6652450561523">
        <ele>477</ele>
        <time>2019-09-11T11:04:52+00:00</time>
      </trkpt>
      <trkpt lat="43.306930541992" lon="-7.6652297973633">
        <ele>477</ele>
        <time>2019-09-11T11:04:53+00:00</time>
      </trkpt>
      <trkpt lat="43.306922912598" lon="-7.6652131080627">
        <ele>477</ele>
        <time>2019-09-11T11:04:54+00:00</time>
      </trkpt>
      <trkpt lat="43.306915283203" lon="-7.6651983261108">
        <ele>476</ele>
        <time>2019-09-11T11:04:55+00:00</time>
      </trkpt>
      <trkpt lat="43.306903839111" lon="-7.6651883125305">
        <ele>476</ele>
        <time>2019-09-11T11:04:56+00:00</time>
      </trkpt>
      <trkpt lat="43.30689239502" lon="-7.6651768684387">
        <ele>476</ele>
        <time>2019-09-11T11:04:57+00:00</time>
      </trkpt>
      <trkpt lat="43.306884765625" lon="-7.6651668548584">
        <ele>476</ele>
        <time>2019-09-11T11:04:58+00:00</time>
      </trkpt>
      <trkpt lat="43.306873321533" lon="-7.6651568412781">
        <ele>476</ele>
        <time>2019-09-11T11:04:59+00:00</time>
      </trkpt>
      <trkpt lat="43.306869506836" lon="-7.6651434898376">
        <ele>476</ele>
        <time>2019-09-11T11:05:00+00:00</time>
      </trkpt>
      <trkpt lat="43.306858062744" lon="-7.6651301383972">
        <ele>476</ele>
        <time>2019-09-11T11:05:01+00:00</time>
      </trkpt>
      <trkpt lat="43.30685043335" lon="-7.6651134490967">
        <ele>475</ele>
        <time>2019-09-11T11:05:02+00:00</time>
      </trkpt>
      <trkpt lat="43.306838989258" lon="-7.6651034355164">
        <ele>475</ele>
        <time>2019-09-11T11:05:03+00:00</time>
      </trkpt>
      <trkpt lat="43.306831359863" lon="-7.6650948524475">
        <ele>475</ele>
        <time>2019-09-11T11:05:04+00:00</time>
      </trkpt>
      <trkpt lat="43.306819915771" lon="-7.6650900840759">
        <ele>475</ele>
        <time>2019-09-11T11:05:05+00:00</time>
      </trkpt>
      <trkpt lat="43.30680847168" lon="-7.6650815010071">
        <ele>475</ele>
        <time>2019-09-11T11:05:06+00:00</time>
      </trkpt>
      <trkpt lat="43.306797027588" lon="-7.6650748252869">
        <ele>474</ele>
        <time>2019-09-11T11:05:07+00:00</time>
      </trkpt>
      <trkpt lat="43.306785583496" lon="-7.6650700569153">
        <ele>474</ele>
        <time>2019-09-11T11:05:08+00:00</time>
      </trkpt>
      <trkpt lat="43.306777954102" lon="-7.665060043335">
        <ele>474</ele>
        <time>2019-09-11T11:05:09+00:00</time>
      </trkpt>
      <trkpt lat="43.306770324707" lon="-7.6650514602661">
        <ele>474</ele>
        <time>2019-09-11T11:05:10+00:00</time>
      </trkpt>
      <trkpt lat="43.306755065918" lon="-7.6650447845459">
        <ele>473</ele>
        <time>2019-09-11T11:05:11+00:00</time>
      </trkpt>
      <trkpt lat="43.306743621826" lon="-7.6650381088257">
        <ele>473</ele>
        <time>2019-09-11T11:05:12+00:00</time>
      </trkpt>
      <trkpt lat="43.306732177734" lon="-7.6650314331055">
        <ele>473</ele>
        <time>2019-09-11T11:05:13+00:00</time>
      </trkpt>
      <trkpt lat="43.30672454834" lon="-7.6650266647339">
        <ele>473</ele>
        <time>2019-09-11T11:05:14+00:00</time>
      </trkpt>
      <trkpt lat="43.306709289551" lon="-7.6650199890137">
        <ele>473</ele>
        <time>2019-09-11T11:05:15+00:00</time>
      </trkpt>
      <trkpt lat="43.306701660156" lon="-7.6650085449219">
        <ele>473</ele>
        <time>2019-09-11T11:05:16+00:00</time>
      </trkpt>
      <trkpt lat="43.306690216064" lon="-7.6649985313416">
        <ele>473</ele>
        <time>2019-09-11T11:05:17+00:00</time>
      </trkpt>
      <trkpt lat="43.306678771973" lon="-7.6649918556213">
        <ele>473</ele>
        <time>2019-09-11T11:05:18+00:00</time>
      </trkpt>
      <trkpt lat="43.306671142578" lon="-7.6649832725525">
        <ele>472</ele>
        <time>2019-09-11T11:05:19+00:00</time>
      </trkpt>
      <trkpt lat="43.306663513184" lon="-7.6649732589722">
        <ele>472</ele>
        <time>2019-09-11T11:05:20+00:00</time>
      </trkpt>
      <trkpt lat="43.306652069092" lon="-7.664966583252">
        <ele>472</ele>
        <time>2019-09-11T11:05:21+00:00</time>
      </trkpt>
      <trkpt lat="43.306648254395" lon="-7.6649599075317">
        <ele>472</ele>
        <time>2019-09-11T11:05:22+00:00</time>
      </trkpt>
      <trkpt lat="43.306636810303" lon="-7.6649565696716">
        <ele>472</ele>
        <time>2019-09-11T11:05:23+00:00</time>
      </trkpt>
      <trkpt lat="43.306636810303" lon="-7.6649432182312">
        <ele>472</ele>
        <time>2019-09-11T11:05:24+00:00</time>
      </trkpt>
      <trkpt lat="43.306632995605" lon="-7.664936542511">
        <ele>472</ele>
        <time>2019-09-11T11:05:25+00:00</time>
      </trkpt>
      <trkpt lat="43.306625366211" lon="-7.6649317741394">
        <ele>471</ele>
        <time>2019-09-11T11:05:26+00:00</time>
      </trkpt>
      <trkpt lat="43.306617736816" lon="-7.6649284362793">
        <ele>471</ele>
        <time>2019-09-11T11:05:27+00:00</time>
      </trkpt>
      <trkpt lat="43.306610107422" lon="-7.6649265289307">
        <ele>471</ele>
        <time>2019-09-11T11:05:28+00:00</time>
      </trkpt>
      <trkpt lat="43.30659866333" lon="-7.6649231910706">
        <ele>470</ele>
        <time>2019-09-11T11:05:29+00:00</time>
      </trkpt>
      <trkpt lat="43.306587219238" lon="-7.6649198532104">
        <ele>470</ele>
        <time>2019-09-11T11:05:30+00:00</time>
      </trkpt>
      <trkpt lat="43.306579589844" lon="-7.664918422699">
        <ele>470</ele>
        <time>2019-09-11T11:05:31+00:00</time>
      </trkpt>
      <trkpt lat="43.306568145752" lon="-7.6649117469788">
        <ele>470</ele>
        <time>2019-09-11T11:05:32+00:00</time>
      </trkpt>
      <trkpt lat="43.30655670166" lon="-7.6649084091187">
        <ele>470</ele>
        <time>2019-09-11T11:05:33+00:00</time>
      </trkpt>
      <trkpt lat="43.306549072266" lon="-7.6649017333984">
        <ele>470</ele>
        <time>2019-09-11T11:05:34+00:00</time>
      </trkpt>
      <trkpt lat="43.306541442871" lon="-7.6648950576782">
        <ele>469</ele>
        <time>2019-09-11T11:05:35+00:00</time>
      </trkpt>
      <trkpt lat="43.306529998779" lon="-7.6648917198181">
        <ele>469</ele>
        <time>2019-09-11T11:05:36+00:00</time>
      </trkpt>
      <trkpt lat="43.30651473999" lon="-7.664888381958">
        <ele>469</ele>
        <time>2019-09-11T11:05:37+00:00</time>
      </trkpt>
      <trkpt lat="43.306503295898" lon="-7.6648850440979">
        <ele>469</ele>
        <time>2019-09-11T11:05:38+00:00</time>
      </trkpt>
      <trkpt lat="43.306491851807" lon="-7.664888381958">
        <ele>469</ele>
        <time>2019-09-11T11:05:39+00:00</time>
      </trkpt>
      <trkpt lat="43.306480407715" lon="-7.6648864746094">
        <ele>468</ele>
        <time>2019-09-11T11:05:40+00:00</time>
      </trkpt>
      <trkpt lat="43.30647277832" lon="-7.6648831367493">
        <ele>468</ele>
        <time>2019-09-11T11:05:41+00:00</time>
      </trkpt>
      <trkpt lat="43.306465148926" lon="-7.6648797988892">
        <ele>468</ele>
        <time>2019-09-11T11:05:42+00:00</time>
      </trkpt>
      <trkpt lat="43.306453704834" lon="-7.6648764610291">
        <ele>468</ele>
        <time>2019-09-11T11:05:43+00:00</time>
      </trkpt>
      <trkpt lat="43.306442260742" lon="-7.6648716926575">
        <ele>468</ele>
        <time>2019-09-11T11:05:44+00:00</time>
      </trkpt>
      <trkpt lat="43.306427001953" lon="-7.6648616790771">
        <ele>468</ele>
        <time>2019-09-11T11:05:45+00:00</time>
      </trkpt>
      <trkpt lat="43.306419372559" lon="-7.6648550033569">
        <ele>467</ele>
        <time>2019-09-11T11:05:46+00:00</time>
      </trkpt>
      <trkpt lat="43.306407928467" lon="-7.6648550033569">
        <ele>467</ele>
        <time>2019-09-11T11:05:47+00:00</time>
      </trkpt>
      <trkpt lat="43.306396484375" lon="-7.6648530960083">
        <ele>467</ele>
        <time>2019-09-11T11:05:48+00:00</time>
      </trkpt>
      <trkpt lat="43.306385040283" lon="-7.6648530960083">
        <ele>467</ele>
        <time>2019-09-11T11:05:49+00:00</time>
      </trkpt>
      <trkpt lat="43.306369781494" lon="-7.6648564338684">
        <ele>466</ele>
        <time>2019-09-11T11:05:50+00:00</time>
      </trkpt>
      <trkpt lat="43.306358337402" lon="-7.6648516654968">
        <ele>466</ele>
        <time>2019-09-11T11:05:51+00:00</time>
      </trkpt>
      <trkpt lat="43.306343078613" lon="-7.6648468971252">
        <ele>465</ele>
        <time>2019-09-11T11:05:52+00:00</time>
      </trkpt>
      <trkpt lat="43.306331634521" lon="-7.664840221405">
        <ele>465</ele>
        <time>2019-09-11T11:05:53+00:00</time>
      </trkpt>
      <trkpt lat="43.306324005127" lon="-7.6648283004761">
        <ele>465</ele>
        <time>2019-09-11T11:05:54+00:00</time>
      </trkpt>
      <trkpt lat="43.30632019043" lon="-7.6648201942444">
        <ele>465</ele>
        <time>2019-09-11T11:05:55+00:00</time>
      </trkpt>
      <trkpt lat="43.306304931641" lon="-7.6648149490356">
        <ele>465</ele>
        <time>2019-09-11T11:05:56+00:00</time>
      </trkpt>
      <trkpt lat="43.306293487549" lon="-7.6648116111755">
        <ele>464</ele>
        <time>2019-09-11T11:05:57+00:00</time>
      </trkpt>
      <trkpt lat="43.30627822876" lon="-7.6648082733154">
        <ele>464</ele>
        <time>2019-09-11T11:05:58+00:00</time>
      </trkpt>
      <trkpt lat="43.306274414062" lon="-7.664806842804">
        <ele>464</ele>
        <time>2019-09-11T11:05:59+00:00</time>
      </trkpt>
      <trkpt lat="43.306266784668" lon="-7.6648082733154">
        <ele>463</ele>
        <time>2019-09-11T11:06:00+00:00</time>
      </trkpt>
      <trkpt lat="43.306266784668" lon="-7.664806842804">
        <ele>463</ele>
        <time>2019-09-11T11:06:01+00:00</time>
      </trkpt>
      <trkpt lat="43.306266784668" lon="-7.664806842804">
        <ele>463</ele>
        <time>2019-09-11T11:06:02+00:00</time>
      </trkpt>
      <trkpt lat="43.306262969971" lon="-7.6647968292236">
        <ele>463</ele>
        <time>2019-09-11T11:06:03+00:00</time>
      </trkpt>
      <trkpt lat="43.306262969971" lon="-7.664794921875">
        <ele>463</ele>
        <time>2019-09-11T11:06:04+00:00</time>
      </trkpt>
      <trkpt lat="43.306262969971" lon="-7.6647915840149">
        <ele>463</ele>
        <time>2019-09-11T11:06:05+00:00</time>
      </trkpt>
      <trkpt lat="43.306266784668" lon="-7.6647901535034">
        <ele>463</ele>
        <time>2019-09-11T11:06:06+00:00</time>
      </trkpt>
      <trkpt lat="43.306266784668" lon="-7.6647882461548">
        <ele>463</ele>
        <time>2019-09-11T11:06:07+00:00</time>
      </trkpt>
      <trkpt lat="43.306266784668" lon="-7.6647882461548">
        <ele>463</ele>
        <time>2019-09-11T11:06:08+00:00</time>
      </trkpt>
      <trkpt lat="43.306266784668" lon="-7.6647868156433">
        <ele>463</ele>
        <time>2019-09-11T11:06:09+00:00</time>
      </trkpt>
      <trkpt lat="43.306270599365" lon="-7.6647868156433">
        <ele>463</ele>
        <time>2019-09-11T11:06:10+00:00</time>
      </trkpt>
      <trkpt lat="43.306266784668" lon="-7.6647849082947">
        <ele>463</ele>
        <time>2019-09-11T11:06:11+00:00</time>
      </trkpt>
      <trkpt lat="43.306266784668" lon="-7.6647849082947">
        <ele>463</ele>
        <time>2019-09-11T11:06:12+00:00</time>
      </trkpt>
      <trkpt lat="43.306274414062" lon="-7.6647748947144">
        <ele>463</ele>
        <time>2019-09-11T11:06:13+00:00</time>
      </trkpt>
      <trkpt lat="43.306274414062" lon="-7.6647715568542">
        <ele>463</ele>
        <time>2019-09-11T11:06:14+00:00</time>
      </trkpt>
      <trkpt lat="43.30627822876" lon="-7.6647667884827">
        <ele>463</ele>
        <time>2019-09-11T11:06:15+00:00</time>
      </trkpt>
      <trkpt lat="43.306289672852" lon="-7.664764881134">
        <ele>463</ele>
        <time>2019-09-11T11:06:16+00:00</time>
      </trkpt>
      <trkpt lat="43.306293487549" lon="-7.6647634506226">
        <ele>464</ele>
        <time>2019-09-11T11:06:17+00:00</time>
      </trkpt>
      <trkpt lat="43.306301116943" lon="-7.6647615432739">
        <ele>464</ele>
        <time>2019-09-11T11:06:18+00:00</time>
      </trkpt>
      <trkpt lat="43.306308746338" lon="-7.6647582054138">
        <ele>464</ele>
        <time>2019-09-11T11:06:19+00:00</time>
      </trkpt>
      <trkpt lat="43.30632019043" lon="-7.6647582054138">
        <ele>464</ele>
        <time>2019-09-11T11:06:20+00:00</time>
      </trkpt>
      <trkpt lat="43.306335449219" lon="-7.6647601127625">
        <ele>464</ele>
        <time>2019-09-11T11:06:21+00:00</time>
      </trkpt>
      <trkpt lat="43.306346893311" lon="-7.6647634506226">
        <ele>464</ele>
        <time>2019-09-11T11:06:22+00:00</time>
      </trkpt>
      <trkpt lat="43.306358337402" lon="-7.6647634506226">
        <ele>465</ele>
        <time>2019-09-11T11:06:23+00:00</time>
      </trkpt>
      <trkpt lat="43.306365966797" lon="-7.664764881134">
        <ele>465</ele>
        <time>2019-09-11T11:06:24+00:00</time>
      </trkpt>
      <trkpt lat="43.306377410889" lon="-7.6647667884827">
        <ele>465</ele>
        <time>2019-09-11T11:06:25+00:00</time>
      </trkpt>
      <trkpt lat="43.306385040283" lon="-7.664764881134">
        <ele>465</ele>
        <time>2019-09-11T11:06:26+00:00</time>
      </trkpt>
      <trkpt lat="43.306396484375" lon="-7.6647634506226">
        <ele>465</ele>
        <time>2019-09-11T11:06:27+00:00</time>
      </trkpt>
      <trkpt lat="43.306407928467" lon="-7.6647634506226">
        <ele>465</ele>
        <time>2019-09-11T11:06:28+00:00</time>
      </trkpt>
      <trkpt lat="43.306419372559" lon="-7.6647582054138">
        <ele>466</ele>
        <time>2019-09-11T11:06:29+00:00</time>
      </trkpt>
      <trkpt lat="43.30643081665" lon="-7.6647534370422">
        <ele>466</ele>
        <time>2019-09-11T11:06:30+00:00</time>
      </trkpt>
      <trkpt lat="43.306453704834" lon="-7.664746761322">
        <ele>466</ele>
        <time>2019-09-11T11:06:31+00:00</time>
      </trkpt>
      <trkpt lat="43.30647277832" lon="-7.6647400856018">
        <ele>466</ele>
        <time>2019-09-11T11:06:32+00:00</time>
      </trkpt>
      <trkpt lat="43.306484222412" lon="-7.6647367477417">
        <ele>466</ele>
        <time>2019-09-11T11:06:33+00:00</time>
      </trkpt>
      <trkpt lat="43.306499481201" lon="-7.6647367477417">
        <ele>466</ele>
        <time>2019-09-11T11:06:34+00:00</time>
      </trkpt>
      <trkpt lat="43.30651473999" lon="-7.6647381782532">
        <ele>466</ele>
        <time>2019-09-11T11:06:35+00:00</time>
      </trkpt>
      <trkpt lat="43.306526184082" lon="-7.6647400856018">
        <ele>466</ele>
        <time>2019-09-11T11:06:36+00:00</time>
      </trkpt>
      <trkpt lat="43.306537628174" lon="-7.6647434234619">
        <ele>466</ele>
        <time>2019-09-11T11:06:37+00:00</time>
      </trkpt>
      <trkpt lat="43.306549072266" lon="-7.664746761322">
        <ele>466</ele>
        <time>2019-09-11T11:06:38+00:00</time>
      </trkpt>
      <trkpt lat="43.306560516357" lon="-7.6647500991821">
        <ele>466</ele>
        <time>2019-09-11T11:06:39+00:00</time>
      </trkpt>
      <trkpt lat="43.306568145752" lon="-7.6647515296936">
        <ele>466</ele>
        <time>2019-09-11T11:06:40+00:00</time>
      </trkpt>
      <trkpt lat="43.306579589844" lon="-7.6647534370422">
        <ele>466</ele>
        <time>2019-09-11T11:06:41+00:00</time>
      </trkpt>
      <trkpt lat="43.306591033936" lon="-7.6647534370422">
        <ele>466</ele>
        <time>2019-09-11T11:06:42+00:00</time>
      </trkpt>
      <trkpt lat="43.306594848633" lon="-7.6647601127625">
        <ele>466</ele>
        <time>2019-09-11T11:06:43+00:00</time>
      </trkpt>
      <trkpt lat="43.306602478027" lon="-7.6647667884827">
        <ele>466</ele>
        <time>2019-09-11T11:06:44+00:00</time>
      </trkpt>
      <trkpt lat="43.306610107422" lon="-7.6647748947144">
        <ele>466</ele>
        <time>2019-09-11T11:06:45+00:00</time>
      </trkpt>
      <trkpt lat="43.306621551514" lon="-7.6647782325745">
        <ele>466</ele>
        <time>2019-09-11T11:06:46+00:00</time>
      </trkpt>
      <trkpt lat="43.306629180908" lon="-7.6647868156433">
        <ele>466</ele>
        <time>2019-09-11T11:06:47+00:00</time>
      </trkpt>
      <trkpt lat="43.306640625" lon="-7.6647934913635">
        <ele>466</ele>
        <time>2019-09-11T11:06:48+00:00</time>
      </trkpt>
      <trkpt lat="43.306648254395" lon="-7.6647968292236">
        <ele>466</ele>
        <time>2019-09-11T11:06:49+00:00</time>
      </trkpt>
      <trkpt lat="43.306659698486" lon="-7.6648015975952">
        <ele>466</ele>
        <time>2019-09-11T11:06:50+00:00</time>
      </trkpt>
      <trkpt lat="43.306667327881" lon="-7.664806842804">
        <ele>466</ele>
        <time>2019-09-11T11:06:51+00:00</time>
      </trkpt>
      <trkpt lat="43.306674957275" lon="-7.6648116111755">
        <ele>466</ele>
        <time>2019-09-11T11:06:52+00:00</time>
      </trkpt>
      <trkpt lat="43.306686401367" lon="-7.6648182868958">
        <ele>466</ele>
        <time>2019-09-11T11:06:53+00:00</time>
      </trkpt>
      <trkpt lat="43.306690216064" lon="-7.6648283004761">
        <ele>467</ele>
        <time>2019-09-11T11:06:54+00:00</time>
      </trkpt>
      <trkpt lat="43.306694030762" lon="-7.6648335456848">
        <ele>467</ele>
        <time>2019-09-11T11:06:55+00:00</time>
      </trkpt>
      <trkpt lat="43.306701660156" lon="-7.6648383140564">
        <ele>467</ele>
        <time>2019-09-11T11:06:56+00:00</time>
      </trkpt>
      <trkpt lat="43.306705474854" lon="-7.6648416519165">
        <ele>467</ele>
        <time>2019-09-11T11:06:57+00:00</time>
      </trkpt>
      <trkpt lat="43.306709289551" lon="-7.6648449897766">
        <ele>467</ele>
        <time>2019-09-11T11:06:58+00:00</time>
      </trkpt>
      <trkpt lat="43.306716918945" lon="-7.6648468971252">
        <ele>467</ele>
        <time>2019-09-11T11:06:59+00:00</time>
      </trkpt>
      <trkpt lat="43.306728363037" lon="-7.6648516654968">
        <ele>467</ele>
        <time>2019-09-11T11:07:00+00:00</time>
      </trkpt>
      <trkpt lat="43.306735992432" lon="-7.6648550033569">
        <ele>467</ele>
        <time>2019-09-11T11:07:01+00:00</time>
      </trkpt>
      <trkpt lat="43.306743621826" lon="-7.6648597717285">
        <ele>467</ele>
        <time>2019-09-11T11:07:02+00:00</time>
      </trkpt>
      <trkpt lat="43.306755065918" lon="-7.6648616790771">
        <ele>467</ele>
        <time>2019-09-11T11:07:03+00:00</time>
      </trkpt>
      <trkpt lat="43.30676651001" lon="-7.6648631095886">
        <ele>467</ele>
        <time>2019-09-11T11:07:04+00:00</time>
      </trkpt>
      <trkpt lat="43.306777954102" lon="-7.6648664474487">
        <ele>467</ele>
        <time>2019-09-11T11:07:05+00:00</time>
      </trkpt>
      <trkpt lat="43.306785583496" lon="-7.6648664474487">
        <ele>467</ele>
        <time>2019-09-11T11:07:06+00:00</time>
      </trkpt>
      <trkpt lat="43.306793212891" lon="-7.6648731231689">
        <ele>467</ele>
        <time>2019-09-11T11:07:07+00:00</time>
      </trkpt>
      <trkpt lat="43.306804656982" lon="-7.6648797988892">
        <ele>467</ele>
        <time>2019-09-11T11:07:08+00:00</time>
      </trkpt>
      <trkpt lat="43.306812286377" lon="-7.6648850440979">
        <ele>467</ele>
        <time>2019-09-11T11:07:09+00:00</time>
      </trkpt>
      <trkpt lat="43.306823730469" lon="-7.664888381958">
        <ele>467</ele>
        <time>2019-09-11T11:07:10+00:00</time>
      </trkpt>
      <trkpt lat="43.306831359863" lon="-7.6648917198181">
        <ele>467</ele>
        <time>2019-09-11T11:07:11+00:00</time>
      </trkpt>
      <trkpt lat="43.306842803955" lon="-7.6648998260498">
        <ele>467</ele>
        <time>2019-09-11T11:07:12+00:00</time>
      </trkpt>
      <trkpt lat="43.306854248047" lon="-7.6649031639099">
        <ele>468</ele>
        <time>2019-09-11T11:07:13+00:00</time>
      </trkpt>
      <trkpt lat="43.306858062744" lon="-7.6649050712585">
        <ele>468</ele>
        <time>2019-09-11T11:07:14+00:00</time>
      </trkpt>
      <trkpt lat="43.306865692139" lon="-7.6649084091187">
        <ele>468</ele>
        <time>2019-09-11T11:07:15+00:00</time>
      </trkpt>
      <trkpt lat="43.306873321533" lon="-7.6649165153503">
        <ele>468</ele>
        <time>2019-09-11T11:07:16+00:00</time>
      </trkpt>
      <trkpt lat="43.306884765625" lon="-7.6649217605591">
        <ele>468</ele>
        <time>2019-09-11T11:07:17+00:00</time>
      </trkpt>
      <trkpt lat="43.30689239502" lon="-7.6649332046509">
        <ele>468</ele>
        <time>2019-09-11T11:07:18+00:00</time>
      </trkpt>
      <trkpt lat="43.306903839111" lon="-7.6649398803711">
        <ele>468</ele>
        <time>2019-09-11T11:07:19+00:00</time>
      </trkpt>
      <trkpt lat="43.306911468506" lon="-7.6649432182312">
        <ele>468</ele>
        <time>2019-09-11T11:07:20+00:00</time>
      </trkpt>
      <trkpt lat="43.3069190979" lon="-7.6649484634399">
        <ele>468</ele>
        <time>2019-09-11T11:07:21+00:00</time>
      </trkpt>
      <trkpt lat="43.306930541992" lon="-7.6649551391602">
        <ele>468</ele>
        <time>2019-09-11T11:07:22+00:00</time>
      </trkpt>
      <trkpt lat="43.306941986084" lon="-7.6649618148804">
        <ele>468</ele>
        <time>2019-09-11T11:07:23+00:00</time>
      </trkpt>
      <trkpt lat="43.306953430176" lon="-7.664966583252">
        <ele>468</ele>
        <time>2019-09-11T11:07:24+00:00</time>
      </trkpt>
      <trkpt lat="43.306964874268" lon="-7.6649751663208">
        <ele>469</ele>
        <time>2019-09-11T11:07:25+00:00</time>
      </trkpt>
      <trkpt lat="43.306976318359" lon="-7.664981842041">
        <ele>469</ele>
        <time>2019-09-11T11:07:26+00:00</time>
      </trkpt>
      <trkpt lat="43.306980133057" lon="-7.6649932861328">
        <ele>469</ele>
        <time>2019-09-11T11:07:27+00:00</time>
      </trkpt>
      <trkpt lat="43.306991577148" lon="-7.6650018692017">
        <ele>469</ele>
        <time>2019-09-11T11:07:28+00:00</time>
      </trkpt>
      <trkpt lat="43.306999206543" lon="-7.6650133132935">
        <ele>469</ele>
        <time>2019-09-11T11:07:29+00:00</time>
      </trkpt>
      <trkpt lat="43.307006835938" lon="-7.6650252342224">
        <ele>469</ele>
        <time>2019-09-11T11:07:30+00:00</time>
      </trkpt>
      <trkpt lat="43.307014465332" lon="-7.6650366783142">
        <ele>469</ele>
        <time>2019-09-11T11:07:31+00:00</time>
      </trkpt>
      <trkpt lat="43.307006835938" lon="-7.6650533676147">
        <ele>470</ele>
        <time>2019-09-11T11:07:32+00:00</time>
      </trkpt>
      <trkpt lat="43.307018280029" lon="-7.6650667190552">
        <ele>470</ele>
        <time>2019-09-11T11:07:33+00:00</time>
      </trkpt>
      <trkpt lat="43.307025909424" lon="-7.6650815010071">
        <ele>471</ele>
        <time>2019-09-11T11:07:34+00:00</time>
      </trkpt>
      <trkpt lat="43.307033538818" lon="-7.6650948524475">
        <ele>471</ele>
        <time>2019-09-11T11:07:35+00:00</time>
      </trkpt>
      <trkpt lat="43.307037353516" lon="-7.6651082038879">
        <ele>471</ele>
        <time>2019-09-11T11:07:36+00:00</time>
      </trkpt>
      <trkpt lat="43.307041168213" lon="-7.6651215553284">
        <ele>471</ele>
        <time>2019-09-11T11:07:37+00:00</time>
      </trkpt>
      <trkpt lat="43.30704498291" lon="-7.6651349067688">
        <ele>471</ele>
        <time>2019-09-11T11:07:38+00:00</time>
      </trkpt>
      <trkpt lat="43.307052612305" lon="-7.6651449203491">
        <ele>471</ele>
        <time>2019-09-11T11:07:39+00:00</time>
      </trkpt>
      <trkpt lat="43.307056427002" lon="-7.6651582717896">
        <ele>471</ele>
        <time>2019-09-11T11:07:40+00:00</time>
      </trkpt>
      <trkpt lat="43.307064056396" lon="-7.6651802062988">
        <ele>471</ele>
        <time>2019-09-11T11:07:41+00:00</time>
      </trkpt>
      <trkpt lat="43.307067871094" lon="-7.6651949882507">
        <ele>470</ele>
        <time>2019-09-11T11:07:42+00:00</time>
      </trkpt>
      <trkpt lat="43.307071685791" lon="-7.6652064323425">
        <ele>470</ele>
        <time>2019-09-11T11:07:43+00:00</time>
      </trkpt>
      <trkpt lat="43.307075500488" lon="-7.6652164459229">
        <ele>470</ele>
        <time>2019-09-11T11:07:44+00:00</time>
      </trkpt>
      <trkpt lat="43.307079315186" lon="-7.6652283668518">
        <ele>470</ele>
        <time>2019-09-11T11:07:45+00:00</time>
      </trkpt>
      <trkpt lat="43.307090759277" lon="-7.6652398109436">
        <ele>471</ele>
        <time>2019-09-11T11:07:46+00:00</time>
      </trkpt>
      <trkpt lat="43.307098388672" lon="-7.6652498245239">
        <ele>471</ele>
        <time>2019-09-11T11:07:47+00:00</time>
      </trkpt>
      <trkpt lat="43.307106018066" lon="-7.6652617454529">
        <ele>470</ele>
        <time>2019-09-11T11:07:48+00:00</time>
      </trkpt>
      <trkpt lat="43.307113647461" lon="-7.6652731895447">
        <ele>470</ele>
        <time>2019-09-11T11:07:49+00:00</time>
      </trkpt>
      <trkpt lat="43.307121276855" lon="-7.665283203125">
        <ele>470</ele>
        <time>2019-09-11T11:07:50+00:00</time>
      </trkpt>
      <trkpt lat="43.307125091553" lon="-7.665295124054">
        <ele>470</ele>
        <time>2019-09-11T11:07:51+00:00</time>
      </trkpt>
      <trkpt lat="43.30712890625" lon="-7.6653099060059">
        <ele>470</ele>
        <time>2019-09-11T11:07:52+00:00</time>
      </trkpt>
      <trkpt lat="43.307132720947" lon="-7.6653218269348">
        <ele>470</ele>
        <time>2019-09-11T11:07:53+00:00</time>
      </trkpt>
      <trkpt lat="43.307136535645" lon="-7.6653318405151">
        <ele>470</ele>
        <time>2019-09-11T11:07:54+00:00</time>
      </trkpt>
      <trkpt lat="43.307144165039" lon="-7.6653418540955">
        <ele>470</ele>
        <time>2019-09-11T11:07:55+00:00</time>
      </trkpt>
      <trkpt lat="43.307151794434" lon="-7.6653518676758">
        <ele>470</ele>
        <time>2019-09-11T11:07:56+00:00</time>
      </trkpt>
      <trkpt lat="43.307155609131" lon="-7.6653633117676">
        <ele>470</ele>
        <time>2019-09-11T11:07:57+00:00</time>
      </trkpt>
      <trkpt lat="43.307163238525" lon="-7.665376663208">
        <ele>469</ele>
        <time>2019-09-11T11:07:58+00:00</time>
      </trkpt>
      <trkpt lat="43.307174682617" lon="-7.6653900146484">
        <ele>469</ele>
        <time>2019-09-11T11:07:59+00:00</time>
      </trkpt>
      <trkpt lat="43.307182312012" lon="-7.6654047966003">
        <ele>469</ele>
        <time>2019-09-11T11:08:00+00:00</time>
      </trkpt>
      <trkpt lat="43.307186126709" lon="-7.6654200553894">
        <ele>469</ele>
        <time>2019-09-11T11:08:01+00:00</time>
      </trkpt>
      <trkpt lat="43.307189941406" lon="-7.6654348373413">
        <ele>469</ele>
        <time>2019-09-11T11:08:02+00:00</time>
      </trkpt>
      <trkpt lat="43.307197570801" lon="-7.6654515266418">
        <ele>469</ele>
        <time>2019-09-11T11:08:03+00:00</time>
      </trkpt>
      <trkpt lat="43.307205200195" lon="-7.6654648780823">
        <ele>469</ele>
        <time>2019-09-11T11:08:04+00:00</time>
      </trkpt>
      <trkpt lat="43.307205200195" lon="-7.6654782295227">
        <ele>469</ele>
        <time>2019-09-11T11:08:05+00:00</time>
      </trkpt>
      <trkpt lat="43.307209014893" lon="-7.6654915809631">
        <ele>469</ele>
        <time>2019-09-11T11:08:06+00:00</time>
      </trkpt>
      <trkpt lat="43.307216644287" lon="-7.665500164032">
        <ele>469</ele>
        <time>2019-09-11T11:08:07+00:00</time>
      </trkpt>
      <trkpt lat="43.307224273682" lon="-7.6655135154724">
        <ele>469</ele>
        <time>2019-09-11T11:08:08+00:00</time>
      </trkpt>
      <trkpt lat="43.307231903076" lon="-7.6655268669128">
        <ele>469</ele>
        <time>2019-09-11T11:08:09+00:00</time>
      </trkpt>
      <trkpt lat="43.307235717773" lon="-7.6655383110046">
        <ele>469</ele>
        <time>2019-09-11T11:08:10+00:00</time>
      </trkpt>
      <trkpt lat="43.307243347168" lon="-7.665548324585">
        <ele>469</ele>
        <time>2019-09-11T11:08:11+00:00</time>
      </trkpt>
      <trkpt lat="43.307250976562" lon="-7.6655597686768">
        <ele>469</ele>
        <time>2019-09-11T11:08:12+00:00</time>
      </trkpt>
      <trkpt lat="43.30725479126" lon="-7.6655731201172">
        <ele>469</ele>
        <time>2019-09-11T11:08:13+00:00</time>
      </trkpt>
      <trkpt lat="43.307262420654" lon="-7.6655864715576">
        <ele>469</ele>
        <time>2019-09-11T11:08:14+00:00</time>
      </trkpt>
      <trkpt lat="43.307273864746" lon="-7.665599822998">
        <ele>469</ele>
        <time>2019-09-11T11:08:15+00:00</time>
      </trkpt>
      <trkpt lat="43.307281494141" lon="-7.665611743927">
        <ele>469</ele>
        <time>2019-09-11T11:08:16+00:00</time>
      </trkpt>
      <trkpt lat="43.307292938232" lon="-7.6656231880188">
        <ele>469</ele>
        <time>2019-09-11T11:08:17+00:00</time>
      </trkpt>
      <trkpt lat="43.307300567627" lon="-7.6656317710876">
        <ele>470</ele>
        <time>2019-09-11T11:08:18+00:00</time>
      </trkpt>
      <trkpt lat="43.307308197021" lon="-7.6656398773193">
        <ele>470</ele>
        <time>2019-09-11T11:08:19+00:00</time>
      </trkpt>
      <trkpt lat="43.307315826416" lon="-7.6656465530396">
        <ele>470</ele>
        <time>2019-09-11T11:08:20+00:00</time>
      </trkpt>
      <trkpt lat="43.307319641113" lon="-7.6656565666199">
        <ele>470</ele>
        <time>2019-09-11T11:08:21+00:00</time>
      </trkpt>
      <trkpt lat="43.307327270508" lon="-7.6656684875488">
        <ele>470</ele>
        <time>2019-09-11T11:08:22+00:00</time>
      </trkpt>
      <trkpt lat="43.307331085205" lon="-7.6656785011292">
        <ele>470</ele>
        <time>2019-09-11T11:08:23+00:00</time>
      </trkpt>
      <trkpt lat="43.307331085205" lon="-7.6657066345215">
        <ele>471</ele>
        <time>2019-09-11T11:08:24+00:00</time>
      </trkpt>
      <trkpt lat="43.307346343994" lon="-7.6657152175903">
        <ele>471</ele>
        <time>2019-09-11T11:08:25+00:00</time>
      </trkpt>
      <trkpt lat="43.307346343994" lon="-7.6657199859619">
        <ele>471</ele>
        <time>2019-09-11T11:08:26+00:00</time>
      </trkpt>
      <trkpt lat="43.307350158691" lon="-7.6657185554504">
        <ele>471</ele>
        <time>2019-09-11T11:08:27+00:00</time>
      </trkpt>
      <trkpt lat="43.307350158691" lon="-7.6657252311707">
        <ele>471</ele>
        <time>2019-09-11T11:08:28+00:00</time>
      </trkpt>
      <trkpt lat="43.307353973389" lon="-7.6657366752625">
        <ele>471</ele>
        <time>2019-09-11T11:08:29+00:00</time>
      </trkpt>
      <trkpt lat="43.307361602783" lon="-7.6657466888428">
        <ele>472</ele>
        <time>2019-09-11T11:08:30+00:00</time>
      </trkpt>
      <trkpt lat="43.307361602783" lon="-7.665771484375">
        <ele>472</ele>
        <time>2019-09-11T11:08:31+00:00</time>
      </trkpt>
      <trkpt lat="43.30736541748" lon="-7.6657848358154">
        <ele>472</ele>
        <time>2019-09-11T11:08:32+00:00</time>
      </trkpt>
      <trkpt lat="43.307373046875" lon="-7.6658048629761">
        <ele>472</ele>
        <time>2019-09-11T11:08:33+00:00</time>
      </trkpt>
      <trkpt lat="43.30738067627" lon="-7.6658148765564">
        <ele>472</ele>
        <time>2019-09-11T11:08:34+00:00</time>
      </trkpt>
      <trkpt lat="43.307388305664" lon="-7.6658234596252">
        <ele>472</ele>
        <time>2019-09-11T11:08:35+00:00</time>
      </trkpt>
      <trkpt lat="43.307395935059" lon="-7.6658301353455">
        <ele>472</ele>
        <time>2019-09-11T11:08:36+00:00</time>
      </trkpt>
      <trkpt lat="43.307399749756" lon="-7.6658415794373">
        <ele>472</ele>
        <time>2019-09-11T11:08:37+00:00</time>
      </trkpt>
      <trkpt lat="43.307403564453" lon="-7.6658501625061">
        <ele>473</ele>
        <time>2019-09-11T11:08:38+00:00</time>
      </trkpt>
      <trkpt lat="43.307411193848" lon="-7.6658582687378">
        <ele>473</ele>
        <time>2019-09-11T11:08:39+00:00</time>
      </trkpt>
      <trkpt lat="43.307418823242" lon="-7.6658701896667">
        <ele>473</ele>
        <time>2019-09-11T11:08:40+00:00</time>
      </trkpt>
      <trkpt lat="43.307426452637" lon="-7.6658802032471">
        <ele>473</ele>
        <time>2019-09-11T11:08:41+00:00</time>
      </trkpt>
      <trkpt lat="43.307437896729" lon="-7.6658916473389">
        <ele>473</ele>
        <time>2019-09-11T11:08:42+00:00</time>
      </trkpt>
      <trkpt lat="43.30744934082" lon="-7.6659049987793">
        <ele>474</ele>
        <time>2019-09-11T11:08:43+00:00</time>
      </trkpt>
      <trkpt lat="43.307456970215" lon="-7.6659164428711">
        <ele>474</ele>
        <time>2019-09-11T11:08:44+00:00</time>
      </trkpt>
      <trkpt lat="43.307468414307" lon="-7.6659250259399">
        <ele>474</ele>
        <time>2019-09-11T11:08:45+00:00</time>
      </trkpt>
      <trkpt lat="43.307472229004" lon="-7.6659331321716">
        <ele>475</ele>
        <time>2019-09-11T11:08:46+00:00</time>
      </trkpt>
      <trkpt lat="43.307476043701" lon="-7.6659464836121">
        <ele>475</ele>
        <time>2019-09-11T11:08:47+00:00</time>
      </trkpt>
      <trkpt lat="43.307476043701" lon="-7.665958404541">
        <ele>475</ele>
        <time>2019-09-11T11:08:48+00:00</time>
      </trkpt>
      <trkpt lat="43.307456970215" lon="-7.6659717559814">
        <ele>475</ele>
        <time>2019-09-11T11:08:49+00:00</time>
      </trkpt>
      <trkpt lat="43.30744934082" lon="-7.6659865379333">
        <ele>475</ele>
        <time>2019-09-11T11:08:50+00:00</time>
      </trkpt>
      <trkpt lat="43.307441711426" lon="-7.6660017967224">
        <ele>475</ele>
        <time>2019-09-11T11:08:51+00:00</time>
      </trkpt>
      <trkpt lat="43.307434082031" lon="-7.6660184860229">
        <ele>475</ele>
        <time>2019-09-11T11:08:52+00:00</time>
      </trkpt>
      <trkpt lat="43.307426452637" lon="-7.6660332679749">
        <ele>475</ele>
        <time>2019-09-11T11:08:53+00:00</time>
      </trkpt>
      <trkpt lat="43.307422637939" lon="-7.6660466194153">
        <ele>475</ele>
        <time>2019-09-11T11:08:54+00:00</time>
      </trkpt>
      <trkpt lat="43.307415008545" lon="-7.6660585403442">
        <ele>476</ele>
        <time>2019-09-11T11:08:55+00:00</time>
      </trkpt>
      <trkpt lat="43.30740737915" lon="-7.6660666465759">
        <ele>476</ele>
        <time>2019-09-11T11:08:56+00:00</time>
      </trkpt>
      <trkpt lat="43.307403564453" lon="-7.6660785675049">
        <ele>476</ele>
        <time>2019-09-11T11:08:57+00:00</time>
      </trkpt>
      <trkpt lat="43.307395935059" lon="-7.6660866737366">
        <ele>476</ele>
        <time>2019-09-11T11:08:58+00:00</time>
      </trkpt>
      <trkpt lat="43.307384490967" lon="-7.6661014556885">
        <ele>476</ele>
        <time>2019-09-11T11:08:59+00:00</time>
      </trkpt>
      <trkpt lat="43.30738067627" lon="-7.6661148071289">
        <ele>476</ele>
        <time>2019-09-11T11:09:00+00:00</time>
      </trkpt>
      <trkpt lat="43.307376861572" lon="-7.6661248207092">
        <ele>476</ele>
        <time>2019-09-11T11:09:01+00:00</time>
      </trkpt>
      <trkpt lat="43.30736541748" lon="-7.6661334037781">
        <ele>476</ele>
        <time>2019-09-11T11:09:02+00:00</time>
      </trkpt>
      <trkpt lat="43.30736541748" lon="-7.6661415100098">
        <ele>476</ele>
        <time>2019-09-11T11:09:03+00:00</time>
      </trkpt>
      <trkpt lat="43.307357788086" lon="-7.6661500930786">
        <ele>476</ele>
        <time>2019-09-11T11:09:04+00:00</time>
      </trkpt>
      <trkpt lat="43.307350158691" lon="-7.6661601066589">
        <ele>476</ele>
        <time>2019-09-11T11:09:05+00:00</time>
      </trkpt>
      <trkpt lat="43.307346343994" lon="-7.6661701202393">
        <ele>476</ele>
        <time>2019-09-11T11:09:06+00:00</time>
      </trkpt>
      <trkpt lat="43.307342529297" lon="-7.6661834716797">
        <ele>476</ele>
        <time>2019-09-11T11:09:07+00:00</time>
      </trkpt>
      <trkpt lat="43.3073387146" lon="-7.6661949157715">
        <ele>476</ele>
        <time>2019-09-11T11:09:08+00:00</time>
      </trkpt>
      <trkpt lat="43.307334899902" lon="-7.6662034988403">
        <ele>476</ele>
        <time>2019-09-11T11:09:09+00:00</time>
      </trkpt>
      <trkpt lat="43.307327270508" lon="-7.6662168502808">
        <ele>475</ele>
        <time>2019-09-11T11:09:10+00:00</time>
      </trkpt>
      <trkpt lat="43.307323455811" lon="-7.6662282943726">
        <ele>475</ele>
        <time>2019-09-11T11:09:11+00:00</time>
      </trkpt>
      <trkpt lat="43.307323455811" lon="-7.6662383079529">
        <ele>475</ele>
        <time>2019-09-11T11:09:12+00:00</time>
      </trkpt>
      <trkpt lat="43.307327270508" lon="-7.6662449836731">
        <ele>475</ele>
        <time>2019-09-11T11:09:13+00:00</time>
      </trkpt>
      <trkpt lat="43.307323455811" lon="-7.6662569046021">
        <ele>475</ele>
        <time>2019-09-11T11:09:14+00:00</time>
      </trkpt>
      <trkpt lat="43.307323455811" lon="-7.6662697792053">
        <ele>475</ele>
        <time>2019-09-11T11:09:15+00:00</time>
      </trkpt>
      <trkpt lat="43.307327270508" lon="-7.6662850379944">
        <ele>475</ele>
        <time>2019-09-11T11:09:16+00:00</time>
      </trkpt>
      <trkpt lat="43.307319641113" lon="-7.6662983894348">
        <ele>475</ele>
        <time>2019-09-11T11:09:17+00:00</time>
      </trkpt>
      <trkpt lat="43.307323455811" lon="-7.6663250923157">
        <ele>475</ele>
        <time>2019-09-11T11:09:18+00:00</time>
      </trkpt>
      <trkpt lat="43.307312011719" lon="-7.6663498878479">
        <ele>474</ele>
        <time>2019-09-11T11:09:19+00:00</time>
      </trkpt>
      <trkpt lat="43.307319641113" lon="-7.6663665771484">
        <ele>474</ele>
        <time>2019-09-11T11:09:20+00:00</time>
      </trkpt>
      <trkpt lat="43.307319641113" lon="-7.6663866043091">
        <ele>474</ele>
        <time>2019-09-11T11:09:21+00:00</time>
      </trkpt>
      <trkpt lat="43.307319641113" lon="-7.6664052009583">
        <ele>473</ele>
        <time>2019-09-11T11:09:22+00:00</time>
      </trkpt>
      <trkpt lat="43.307312011719" lon="-7.6664199829102">
        <ele>474</ele>
        <time>2019-09-11T11:09:23+00:00</time>
      </trkpt>
      <trkpt lat="43.307304382324" lon="-7.6664252281189">
        <ele>474</ele>
        <time>2019-09-11T11:09:24+00:00</time>
      </trkpt>
      <trkpt lat="43.307289123535" lon="-7.6664299964905">
        <ele>474</ele>
        <time>2019-09-11T11:09:25+00:00</time>
      </trkpt>
      <trkpt lat="43.307281494141" lon="-7.6664400100708">
        <ele>474</ele>
        <time>2019-09-11T11:09:26+00:00</time>
      </trkpt>
      <trkpt lat="43.307273864746" lon="-7.6664500236511">
        <ele>474</ele>
        <time>2019-09-11T11:09:27+00:00</time>
      </trkpt>
      <trkpt lat="43.307262420654" lon="-7.6664533615112">
        <ele>474</ele>
        <time>2019-09-11T11:09:28+00:00</time>
      </trkpt>
      <trkpt lat="43.30725479126" lon="-7.666464805603">
        <ele>474</ele>
        <time>2019-09-11T11:09:29+00:00</time>
      </trkpt>
      <trkpt lat="43.307250976562" lon="-7.6664800643921">
        <ele>474</ele>
        <time>2019-09-11T11:09:30+00:00</time>
      </trkpt>
      <trkpt lat="43.307243347168" lon="-7.6664900779724">
        <ele>474</ele>
        <time>2019-09-11T11:09:31+00:00</time>
      </trkpt>
      <trkpt lat="43.307231903076" lon="-7.6665000915527">
        <ele>474</ele>
        <time>2019-09-11T11:09:32+00:00</time>
      </trkpt>
      <trkpt lat="43.307224273682" lon="-7.6665101051331">
        <ele>475</ele>
        <time>2019-09-11T11:09:33+00:00</time>
      </trkpt>
      <trkpt lat="43.307228088379" lon="-7.6665134429932">
        <ele>475</ele>
        <time>2019-09-11T11:09:34+00:00</time>
      </trkpt>
      <trkpt lat="43.307228088379" lon="-7.6665215492249">
        <ele>475</ele>
        <time>2019-09-11T11:09:35+00:00</time>
      </trkpt>
      <trkpt lat="43.307220458984" lon="-7.666540145874">
        <ele>475</ele>
        <time>2019-09-11T11:09:36+00:00</time>
      </trkpt>
      <trkpt lat="43.307216644287" lon="-7.6665568351746">
        <ele>475</ele>
        <time>2019-09-11T11:09:37+00:00</time>
      </trkpt>
      <trkpt lat="43.307216644287" lon="-7.6665749549866">
        <ele>475</ele>
        <time>2019-09-11T11:09:38+00:00</time>
      </trkpt>
      <trkpt lat="43.30721282959" lon="-7.666588306427">
        <ele>475</ele>
        <time>2019-09-11T11:09:39+00:00</time>
      </trkpt>
      <trkpt lat="43.307205200195" lon="-7.6666016578674">
        <ele>475</ele>
        <time>2019-09-11T11:09:40+00:00</time>
      </trkpt>
      <trkpt lat="43.307201385498" lon="-7.6666131019592">
        <ele>475</ele>
        <time>2019-09-11T11:09:41+00:00</time>
      </trkpt>
      <trkpt lat="43.307193756104" lon="-7.6666316986084">
        <ele>475</ele>
        <time>2019-09-11T11:09:42+00:00</time>
      </trkpt>
      <trkpt lat="43.307193756104" lon="-7.6666598320007">
        <ele>475</ele>
        <time>2019-09-11T11:09:43+00:00</time>
      </trkpt>
      <trkpt lat="43.307189941406" lon="-7.6666831970215">
        <ele>475</ele>
        <time>2019-09-11T11:09:44+00:00</time>
      </trkpt>
      <trkpt lat="43.307193756104" lon="-7.6667051315308">
        <ele>475</ele>
        <time>2019-09-11T11:09:45+00:00</time>
      </trkpt>
      <trkpt lat="43.307189941406" lon="-7.6667218208313">
        <ele>475</ele>
        <time>2019-09-11T11:09:46+00:00</time>
      </trkpt>
      <trkpt lat="43.307189941406" lon="-7.666729927063">
        <ele>474</ele>
        <time>2019-09-11T11:09:47+00:00</time>
      </trkpt>
      <trkpt lat="43.307189941406" lon="-7.6667385101318">
        <ele>475</ele>
        <time>2019-09-11T11:09:48+00:00</time>
      </trkpt>
      <trkpt lat="43.307189941406" lon="-7.6667499542236">
        <ele>475</ele>
        <time>2019-09-11T11:09:49+00:00</time>
      </trkpt>
      <trkpt lat="43.307189941406" lon="-7.6667618751526">
        <ele>475</ele>
        <time>2019-09-11T11:09:50+00:00</time>
      </trkpt>
      <trkpt lat="43.307182312012" lon="-7.6667733192444">
        <ele>475</ele>
        <time>2019-09-11T11:09:51+00:00</time>
      </trkpt>
      <trkpt lat="43.307174682617" lon="-7.6667833328247">
        <ele>475</ele>
        <time>2019-09-11T11:09:52+00:00</time>
      </trkpt>
      <trkpt lat="43.307167053223" lon="-7.6667914390564">
        <ele>475</ele>
        <time>2019-09-11T11:09:53+00:00</time>
      </trkpt>
      <trkpt lat="43.307167053223" lon="-7.6668081283569">
        <ele>475</ele>
        <time>2019-09-11T11:09:54+00:00</time>
      </trkpt>
      <trkpt lat="43.307159423828" lon="-7.6668200492859">
        <ele>474</ele>
        <time>2019-09-11T11:09:55+00:00</time>
      </trkpt>
      <trkpt lat="43.307151794434" lon="-7.6668348312378">
        <ele>474</ele>
        <time>2019-09-11T11:09:56+00:00</time>
      </trkpt>
      <trkpt lat="43.307151794434" lon="-7.6668515205383">
        <ele>474</ele>
        <time>2019-09-11T11:09:57+00:00</time>
      </trkpt>
      <trkpt lat="43.307151794434" lon="-7.6668615341187">
        <ele>474</ele>
        <time>2019-09-11T11:09:58+00:00</time>
      </trkpt>
      <trkpt lat="43.307140350342" lon="-7.6668767929077">
        <ele>474</ele>
        <time>2019-09-11T11:09:59+00:00</time>
      </trkpt>
      <trkpt lat="43.307136535645" lon="-7.6668934822083">
        <ele>474</ele>
        <time>2019-09-11T11:10:00+00:00</time>
      </trkpt>
      <trkpt lat="43.307125091553" lon="-7.6669068336487">
        <ele>474</ele>
        <time>2019-09-11T11:10:01+00:00</time>
      </trkpt>
      <trkpt lat="43.307113647461" lon="-7.6669201850891">
        <ele>474</ele>
        <time>2019-09-11T11:10:02+00:00</time>
      </trkpt>
      <trkpt lat="43.307098388672" lon="-7.6669383049011">
        <ele>474</ele>
        <time>2019-09-11T11:10:03+00:00</time>
      </trkpt>
      <trkpt lat="43.30708694458" lon="-7.6669569015503">
        <ele>474</ele>
        <time>2019-09-11T11:10:04+00:00</time>
      </trkpt>
      <trkpt lat="43.307075500488" lon="-7.6669697761536">
        <ele>474</ele>
        <time>2019-09-11T11:10:05+00:00</time>
      </trkpt>
      <trkpt lat="43.307071685791" lon="-7.6669850349426">
        <ele>474</ele>
        <time>2019-09-11T11:10:06+00:00</time>
      </trkpt>
      <trkpt lat="43.307075500488" lon="-7.6669983863831">
        <ele>474</ele>
        <time>2019-09-11T11:10:07+00:00</time>
      </trkpt>
      <trkpt lat="43.307079315186" lon="-7.6670165061951">
        <ele>474</ele>
        <time>2019-09-11T11:10:08+00:00</time>
      </trkpt>
      <trkpt lat="43.307083129883" lon="-7.6670298576355">
        <ele>474</ele>
        <time>2019-09-11T11:10:09+00:00</time>
      </trkpt>
      <trkpt lat="43.307079315186" lon="-7.6670398712158">
        <ele>474</ele>
        <time>2019-09-11T11:10:10+00:00</time>
      </trkpt>
      <trkpt lat="43.307083129883" lon="-7.6670532226562">
        <ele>474</ele>
        <time>2019-09-11T11:10:11+00:00</time>
      </trkpt>
      <trkpt lat="43.307094573975" lon="-7.6670684814453">
        <ele>473</ele>
        <time>2019-09-11T11:10:12+00:00</time>
      </trkpt>
      <trkpt lat="43.307094573975" lon="-7.6670799255371">
        <ele>473</ele>
        <time>2019-09-11T11:10:13+00:00</time>
      </trkpt>
      <trkpt lat="43.307098388672" lon="-7.6671018600464">
        <ele>473</ele>
        <time>2019-09-11T11:10:14+00:00</time>
      </trkpt>
      <trkpt lat="43.30708694458" lon="-7.6671166419983">
        <ele>472</ele>
        <time>2019-09-11T11:10:15+00:00</time>
      </trkpt>
      <trkpt lat="43.307079315186" lon="-7.6671299934387">
        <ele>472</ele>
        <time>2019-09-11T11:10:16+00:00</time>
      </trkpt>
      <trkpt lat="43.307083129883" lon="-7.6671466827393">
        <ele>472</ele>
        <time>2019-09-11T11:10:17+00:00</time>
      </trkpt>
      <trkpt lat="43.307079315186" lon="-7.6671581268311">
        <ele>472</ele>
        <time>2019-09-11T11:10:18+00:00</time>
      </trkpt>
      <trkpt lat="43.307071685791" lon="-7.6671714782715">
        <ele>471</ele>
        <time>2019-09-11T11:10:19+00:00</time>
      </trkpt>
      <trkpt lat="43.307060241699" lon="-7.6671814918518">
        <ele>471</ele>
        <time>2019-09-11T11:10:20+00:00</time>
      </trkpt>
      <trkpt lat="43.307056427002" lon="-7.6671915054321">
        <ele>471</ele>
        <time>2019-09-11T11:10:21+00:00</time>
      </trkpt>
      <trkpt lat="43.307048797607" lon="-7.6672034263611">
        <ele>471</ele>
        <time>2019-09-11T11:10:22+00:00</time>
      </trkpt>
      <trkpt lat="43.30704498291" lon="-7.6672148704529">
        <ele>471</ele>
        <time>2019-09-11T11:10:23+00:00</time>
      </trkpt>
      <trkpt lat="43.30704498291" lon="-7.6672248840332">
        <ele>470</ele>
        <time>2019-09-11T11:10:24+00:00</time>
      </trkpt>
      <trkpt lat="43.307037353516" lon="-7.6672382354736">
        <ele>470</ele>
        <time>2019-09-11T11:10:25+00:00</time>
      </trkpt>
      <trkpt lat="43.307033538818" lon="-7.6672568321228">
        <ele>470</ele>
        <time>2019-09-11T11:10:26+00:00</time>
      </trkpt>
      <trkpt lat="43.307029724121" lon="-7.6672782897949">
        <ele>470</ele>
        <time>2019-09-11T11:10:27+00:00</time>
      </trkpt>
      <trkpt lat="43.307025909424" lon="-7.6672949790955">
        <ele>470</ele>
        <time>2019-09-11T11:10:28+00:00</time>
      </trkpt>
      <trkpt lat="43.307018280029" lon="-7.6673083305359">
        <ele>470</ele>
        <time>2019-09-11T11:10:29+00:00</time>
      </trkpt>
      <trkpt lat="43.307006835938" lon="-7.6673183441162">
        <ele>469</ele>
        <time>2019-09-11T11:10:30+00:00</time>
      </trkpt>
      <trkpt lat="43.306999206543" lon="-7.6673283576965">
        <ele>469</ele>
        <time>2019-09-11T11:10:31+00:00</time>
      </trkpt>
      <trkpt lat="43.306995391846" lon="-7.6673331260681">
        <ele>469</ele>
        <time>2019-09-11T11:10:32+00:00</time>
      </trkpt>
      <trkpt lat="43.306995391846" lon="-7.6673398017883">
        <ele>469</ele>
        <time>2019-09-11T11:10:33+00:00</time>
      </trkpt>
      <trkpt lat="43.306991577148" lon="-7.6673450469971">
        <ele>469</ele>
        <time>2019-09-11T11:10:34+00:00</time>
      </trkpt>
      <trkpt lat="43.306987762451" lon="-7.6673498153687">
        <ele>469</ele>
        <time>2019-09-11T11:10:35+00:00</time>
      </trkpt>
      <trkpt lat="43.306983947754" lon="-7.6673550605774">
        <ele>469</ele>
        <time>2019-09-11T11:10:36+00:00</time>
      </trkpt>
      <trkpt lat="43.306976318359" lon="-7.6673665046692">
        <ele>468</ele>
        <time>2019-09-11T11:10:37+00:00</time>
      </trkpt>
      <trkpt lat="43.306964874268" lon="-7.667375087738">
        <ele>468</ele>
        <time>2019-09-11T11:10:38+00:00</time>
      </trkpt>
      <trkpt lat="43.30696105957" lon="-7.6673851013184">
        <ele>468</ele>
        <time>2019-09-11T11:10:39+00:00</time>
      </trkpt>
      <trkpt lat="43.306953430176" lon="-7.6673951148987">
        <ele>468</ele>
        <time>2019-09-11T11:10:40+00:00</time>
      </trkpt>
      <trkpt lat="43.306941986084" lon="-7.667405128479">
        <ele>468</ele>
        <time>2019-09-11T11:10:41+00:00</time>
      </trkpt>
      <trkpt lat="43.306934356689" lon="-7.6674132347107">
        <ele>468</ele>
        <time>2019-09-11T11:10:42+00:00</time>
      </trkpt>
      <trkpt lat="43.306926727295" lon="-7.6674199104309">
        <ele>467</ele>
        <time>2019-09-11T11:10:43+00:00</time>
      </trkpt>
      <trkpt lat="43.3069190979" lon="-7.6674299240112">
        <ele>467</ele>
        <time>2019-09-11T11:10:44+00:00</time>
      </trkpt>
      <trkpt lat="43.306911468506" lon="-7.6674365997314">
        <ele>467</ele>
        <time>2019-09-11T11:10:45+00:00</time>
      </trkpt>
      <trkpt lat="43.306907653809" lon="-7.6674432754517">
        <ele>467</ele>
        <time>2019-09-11T11:10:46+00:00</time>
      </trkpt>
      <trkpt lat="43.306903839111" lon="-7.6674566268921">
        <ele>467</ele>
        <time>2019-09-11T11:10:47+00:00</time>
      </trkpt>
      <trkpt lat="43.306900024414" lon="-7.6674633026123">
        <ele>467</ele>
        <time>2019-09-11T11:10:48+00:00</time>
      </trkpt>
      <trkpt lat="43.30689239502" lon="-7.6674718856812">
        <ele>467</ele>
        <time>2019-09-11T11:10:49+00:00</time>
      </trkpt>
      <trkpt lat="43.306884765625" lon="-7.6674733161926">
        <ele>468</ele>
        <time>2019-09-11T11:10:50+00:00</time>
      </trkpt>
      <trkpt lat="43.306880950928" lon="-7.6674785614014">
        <ele>468</ele>
        <time>2019-09-11T11:10:51+00:00</time>
      </trkpt>
      <trkpt lat="43.306873321533" lon="-7.6674833297729">
        <ele>468</ele>
        <time>2019-09-11T11:10:52+00:00</time>
      </trkpt>
      <trkpt lat="43.306869506836" lon="-7.6674933433533">
        <ele>468</ele>
        <time>2019-09-11T11:10:53+00:00</time>
      </trkpt>
      <trkpt lat="43.306865692139" lon="-7.667501449585">
        <ele>468</ele>
        <time>2019-09-11T11:10:54+00:00</time>
      </trkpt>
      <trkpt lat="43.306858062744" lon="-7.6675133705139">
        <ele>468</ele>
        <time>2019-09-11T11:10:55+00:00</time>
      </trkpt>
      <trkpt lat="43.30685043335" lon="-7.6675248146057">
        <ele>468</ele>
        <time>2019-09-11T11:10:56+00:00</time>
      </trkpt>
      <trkpt lat="43.306835174561" lon="-7.6675381660461">
        <ele>468</ele>
        <time>2019-09-11T11:10:57+00:00</time>
      </trkpt>
      <trkpt lat="43.306831359863" lon="-7.6675601005554">
        <ele>468</ele>
        <time>2019-09-11T11:10:58+00:00</time>
      </trkpt>
      <trkpt lat="43.306823730469" lon="-7.6675848960876">
        <ele>468</ele>
        <time>2019-09-11T11:10:59+00:00</time>
      </trkpt>
      <trkpt lat="43.306819915771" lon="-7.6675982475281">
        <ele>468</ele>
        <time>2019-09-11T11:11:00+00:00</time>
      </trkpt>
      <trkpt lat="43.306819915771" lon="-7.6676135063171">
        <ele>468</ele>
        <time>2019-09-11T11:11:01+00:00</time>
      </trkpt>
      <trkpt lat="43.306816101074" lon="-7.6676316261292">
        <ele>468</ele>
        <time>2019-09-11T11:11:02+00:00</time>
      </trkpt>
      <trkpt lat="43.306812286377" lon="-7.6676516532898">
        <ele>468</ele>
        <time>2019-09-11T11:11:03+00:00</time>
      </trkpt>
      <trkpt lat="43.30680847168" lon="-7.6676697731018">
        <ele>468</ele>
        <time>2019-09-11T11:11:04+00:00</time>
      </trkpt>
      <trkpt lat="43.306800842285" lon="-7.6676898002625">
        <ele>468</ele>
        <time>2019-09-11T11:11:05+00:00</time>
      </trkpt>
      <trkpt lat="43.306793212891" lon="-7.6677050590515">
        <ele>468</ele>
        <time>2019-09-11T11:11:06+00:00</time>
      </trkpt>
      <trkpt lat="43.306781768799" lon="-7.6677165031433">
        <ele>468</ele>
        <time>2019-09-11T11:11:07+00:00</time>
      </trkpt>
      <trkpt lat="43.306770324707" lon="-7.6677331924438">
        <ele>468</ele>
        <time>2019-09-11T11:11:08+00:00</time>
      </trkpt>
      <trkpt lat="43.306758880615" lon="-7.6677432060242">
        <ele>468</ele>
        <time>2019-09-11T11:11:09+00:00</time>
      </trkpt>
      <trkpt lat="43.306747436523" lon="-7.6677551269531">
        <ele>468</ele>
        <time>2019-09-11T11:11:10+00:00</time>
      </trkpt>
      <trkpt lat="43.306735992432" lon="-7.6677665710449">
        <ele>468</ele>
        <time>2019-09-11T11:11:11+00:00</time>
      </trkpt>
      <trkpt lat="43.306728363037" lon="-7.6677832603455">
        <ele>468</ele>
        <time>2019-09-11T11:11:12+00:00</time>
      </trkpt>
      <trkpt lat="43.306720733643" lon="-7.6677966117859">
        <ele>468</ele>
        <time>2019-09-11T11:11:13+00:00</time>
      </trkpt>
      <trkpt lat="43.306713104248" lon="-7.6678133010864">
        <ele>468</ele>
        <time>2019-09-11T11:11:14+00:00</time>
      </trkpt>
      <trkpt lat="43.306705474854" lon="-7.6678266525269">
        <ele>468</ele>
        <time>2019-09-11T11:11:15+00:00</time>
      </trkpt>
      <trkpt lat="43.306697845459" lon="-7.6678414344788">
        <ele>468</ele>
        <time>2019-09-11T11:11:16+00:00</time>
      </trkpt>
      <trkpt lat="43.306694030762" lon="-7.6678614616394">
        <ele>468</ele>
        <time>2019-09-11T11:11:17+00:00</time>
      </trkpt>
      <trkpt lat="43.306686401367" lon="-7.6678814888">
        <ele>469</ele>
        <time>2019-09-11T11:11:18+00:00</time>
      </trkpt>
      <trkpt lat="43.306678771973" lon="-7.6679000854492">
        <ele>469</ele>
        <time>2019-09-11T11:11:19+00:00</time>
      </trkpt>
      <trkpt lat="43.306674957275" lon="-7.6679182052612">
        <ele>469</ele>
        <time>2019-09-11T11:11:20+00:00</time>
      </trkpt>
      <trkpt lat="43.306671142578" lon="-7.6679368019104">
        <ele>469</ele>
        <time>2019-09-11T11:11:21+00:00</time>
      </trkpt>
      <trkpt lat="43.306667327881" lon="-7.6679534912109">
        <ele>469</ele>
        <time>2019-09-11T11:11:22+00:00</time>
      </trkpt>
      <trkpt lat="43.306659698486" lon="-7.6679668426514">
        <ele>469</ele>
        <time>2019-09-11T11:11:23+00:00</time>
      </trkpt>
      <trkpt lat="43.306655883789" lon="-7.6679716110229">
        <ele>469</ele>
        <time>2019-09-11T11:11:24+00:00</time>
      </trkpt>
      <trkpt lat="43.306648254395" lon="-7.667986869812">
        <ele>470</ele>
        <time>2019-09-11T11:11:25+00:00</time>
      </trkpt>
      <trkpt lat="43.306640625" lon="-7.6679916381836">
        <ele>470</ele>
        <time>2019-09-11T11:11:26+00:00</time>
      </trkpt>
      <trkpt lat="43.306632995605" lon="-7.6680016517639">
        <ele>470</ele>
        <time>2019-09-11T11:11:27+00:00</time>
      </trkpt>
      <trkpt lat="43.306625366211" lon="-7.6680083274841">
        <ele>470</ele>
        <time>2019-09-11T11:11:28+00:00</time>
      </trkpt>
      <trkpt lat="43.306617736816" lon="-7.6680164337158">
        <ele>470</ele>
        <time>2019-09-11T11:11:29+00:00</time>
      </trkpt>
      <trkpt lat="43.306610107422" lon="-7.668023109436">
        <ele>470</ele>
        <time>2019-09-11T11:11:30+00:00</time>
      </trkpt>
      <trkpt lat="43.306606292725" lon="-7.6680383682251">
        <ele>470</ele>
        <time>2019-09-11T11:11:31+00:00</time>
      </trkpt>
      <trkpt lat="43.30659866333" lon="-7.6680564880371">
        <ele>470</ele>
        <time>2019-09-11T11:11:32+00:00</time>
      </trkpt>
      <trkpt lat="43.306587219238" lon="-7.6680765151978">
        <ele>470</ele>
        <time>2019-09-11T11:11:33+00:00</time>
      </trkpt>
      <trkpt lat="43.306583404541" lon="-7.6680965423584">
        <ele>470</ele>
        <time>2019-09-11T11:11:34+00:00</time>
      </trkpt>
      <trkpt lat="43.306583404541" lon="-7.6681132316589">
        <ele>470</ele>
        <time>2019-09-11T11:11:35+00:00</time>
      </trkpt>
      <trkpt lat="43.306575775146" lon="-7.668128490448">
        <ele>470</ele>
        <time>2019-09-11T11:11:36+00:00</time>
      </trkpt>
      <trkpt lat="43.306568145752" lon="-7.6681451797485">
        <ele>470</ele>
        <time>2019-09-11T11:11:37+00:00</time>
      </trkpt>
      <trkpt lat="43.306560516357" lon="-7.6681632995605">
        <ele>470</ele>
        <time>2019-09-11T11:11:38+00:00</time>
      </trkpt>
      <trkpt lat="43.306549072266" lon="-7.668176651001">
        <ele>470</ele>
        <time>2019-09-11T11:11:39+00:00</time>
      </trkpt>
      <trkpt lat="43.306541442871" lon="-7.6681866645813">
        <ele>470</ele>
        <time>2019-09-11T11:11:40+00:00</time>
      </trkpt>
      <trkpt lat="43.306533813477" lon="-7.668194770813">
        <ele>470</ele>
        <time>2019-09-11T11:11:41+00:00</time>
      </trkpt>
      <trkpt lat="43.306529998779" lon="-7.6682033538818">
        <ele>470</ele>
        <time>2019-09-11T11:11:42+00:00</time>
      </trkpt>
      <trkpt lat="43.306526184082" lon="-7.6682100296021">
        <ele>470</ele>
        <time>2019-09-11T11:11:43+00:00</time>
      </trkpt>
      <trkpt lat="43.306526184082" lon="-7.6682181358337">
        <ele>469</ele>
        <time>2019-09-11T11:11:44+00:00</time>
      </trkpt>
      <trkpt lat="43.306518554688" lon="-7.6682300567627">
        <ele>470</ele>
        <time>2019-09-11T11:11:45+00:00</time>
      </trkpt>
      <trkpt lat="43.306518554688" lon="-7.6682381629944">
        <ele>470</ele>
        <time>2019-09-11T11:11:46+00:00</time>
      </trkpt>
      <trkpt lat="43.306507110596" lon="-7.6682534217834">
        <ele>470</ele>
        <time>2019-09-11T11:11:47+00:00</time>
      </trkpt>
      <trkpt lat="43.306495666504" lon="-7.6682648658752">
        <ele>470</ele>
        <time>2019-09-11T11:11:48+00:00</time>
      </trkpt>
      <trkpt lat="43.306491851807" lon="-7.6682767868042">
        <ele>469</ele>
        <time>2019-09-11T11:11:49+00:00</time>
      </trkpt>
      <trkpt lat="43.306484222412" lon="-7.6682848930359">
        <ele>469</ele>
        <time>2019-09-11T11:11:50+00:00</time>
      </trkpt>
      <trkpt lat="43.306476593018" lon="-7.6682915687561">
        <ele>469</ele>
        <time>2019-09-11T11:11:51+00:00</time>
      </trkpt>
      <trkpt lat="43.306468963623" lon="-7.6682982444763">
        <ele>470</ele>
        <time>2019-09-11T11:11:52+00:00</time>
      </trkpt>
      <trkpt lat="43.306461334229" lon="-7.6683082580566">
        <ele>470</ele>
        <time>2019-09-11T11:11:53+00:00</time>
      </trkpt>
      <trkpt lat="43.306453704834" lon="-7.6683168411255">
        <ele>470</ele>
        <time>2019-09-11T11:11:54+00:00</time>
      </trkpt>
      <trkpt lat="43.306449890137" lon="-7.6683216094971">
        <ele>470</ele>
        <time>2019-09-11T11:11:55+00:00</time>
      </trkpt>
      <trkpt lat="43.306434631348" lon="-7.6683435440063">
        <ele>470</ele>
        <time>2019-09-11T11:11:56+00:00</time>
      </trkpt>
      <trkpt lat="43.306423187256" lon="-7.6683683395386">
        <ele>471</ele>
        <time>2019-09-11T11:11:57+00:00</time>
      </trkpt>
      <trkpt lat="43.306411743164" lon="-7.6683783531189">
        <ele>471</ele>
        <time>2019-09-11T11:11:58+00:00</time>
      </trkpt>
      <trkpt lat="43.306400299072" lon="-7.6683897972107">
        <ele>471</ele>
        <time>2019-09-11T11:11:59+00:00</time>
      </trkpt>
      <trkpt lat="43.306392669678" lon="-7.6684017181396">
        <ele>471</ele>
        <time>2019-09-11T11:12:00+00:00</time>
      </trkpt>
      <trkpt lat="43.306385040283" lon="-7.6684198379517">
        <ele>472</ele>
        <time>2019-09-11T11:12:01+00:00</time>
      </trkpt>
      <trkpt lat="43.306373596191" lon="-7.668429851532">
        <ele>472</ele>
        <time>2019-09-11T11:12:02+00:00</time>
      </trkpt>
      <trkpt lat="43.3063621521" lon="-7.6684398651123">
        <ele>472</ele>
        <time>2019-09-11T11:12:03+00:00</time>
      </trkpt>
      <trkpt lat="43.306354522705" lon="-7.6684517860413">
        <ele>472</ele>
        <time>2019-09-11T11:12:04+00:00</time>
      </trkpt>
      <trkpt lat="43.306343078613" lon="-7.6684632301331">
        <ele>473</ele>
        <time>2019-09-11T11:12:05+00:00</time>
      </trkpt>
      <trkpt lat="43.306335449219" lon="-7.6684765815735">
        <ele>473</ele>
        <time>2019-09-11T11:12:06+00:00</time>
      </trkpt>
      <trkpt lat="43.306331634521" lon="-7.6684865951538">
        <ele>473</ele>
        <time>2019-09-11T11:12:07+00:00</time>
      </trkpt>
      <trkpt lat="43.306324005127" lon="-7.6684985160828">
        <ele>473</ele>
        <time>2019-09-11T11:12:08+00:00</time>
      </trkpt>
      <trkpt lat="43.306316375732" lon="-7.6685085296631">
        <ele>473</ele>
        <time>2019-09-11T11:12:09+00:00</time>
      </trkpt>
      <trkpt lat="43.306308746338" lon="-7.6685266494751">
        <ele>473</ele>
        <time>2019-09-11T11:12:10+00:00</time>
      </trkpt>
      <trkpt lat="43.306301116943" lon="-7.6685366630554">
        <ele>473</ele>
        <time>2019-09-11T11:12:11+00:00</time>
      </trkpt>
      <trkpt lat="43.306293487549" lon="-7.6685500144958">
        <ele>473</ele>
        <time>2019-09-11T11:12:12+00:00</time>
      </trkpt>
      <trkpt lat="43.306285858154" lon="-7.6685633659363">
        <ele>473</ele>
        <time>2019-09-11T11:12:13+00:00</time>
      </trkpt>
      <trkpt lat="43.30627822876" lon="-7.6685833930969">
        <ele>473</ele>
        <time>2019-09-11T11:12:14+00:00</time>
      </trkpt>
      <trkpt lat="43.306266784668" lon="-7.6685981750488">
        <ele>473</ele>
        <time>2019-09-11T11:12:15+00:00</time>
      </trkpt>
      <trkpt lat="43.306259155273" lon="-7.6686182022095">
        <ele>473</ele>
        <time>2019-09-11T11:12:16+00:00</time>
      </trkpt>
      <trkpt lat="43.306251525879" lon="-7.6686334609985">
        <ele>474</ele>
        <time>2019-09-11T11:12:17+00:00</time>
      </trkpt>
      <trkpt lat="43.306240081787" lon="-7.668646812439">
        <ele>474</ele>
        <time>2019-09-11T11:12:18+00:00</time>
      </trkpt>
      <trkpt lat="43.306228637695" lon="-7.6686582565308">
        <ele>474</ele>
        <time>2019-09-11T11:12:19+00:00</time>
      </trkpt>
      <trkpt lat="43.306224822998" lon="-7.668664932251">
        <ele>474</ele>
        <time>2019-09-11T11:12:20+00:00</time>
      </trkpt>
      <trkpt lat="43.306217193604" lon="-7.6686782836914">
        <ele>474</ele>
        <time>2019-09-11T11:12:21+00:00</time>
      </trkpt>
      <trkpt lat="43.306221008301" lon="-7.6686882972717">
        <ele>474</ele>
        <time>2019-09-11T11:12:22+00:00</time>
      </trkpt>
      <trkpt lat="43.306209564209" lon="-7.6687002182007">
        <ele>474</ele>
        <time>2019-09-11T11:12:23+00:00</time>
      </trkpt>
      <trkpt lat="43.306190490723" lon="-7.6687135696411">
        <ele>474</ele>
        <time>2019-09-11T11:12:24+00:00</time>
      </trkpt>
      <trkpt lat="43.306186676025" lon="-7.6687197685242">
        <ele>475</ele>
        <time>2019-09-11T11:12:25+00:00</time>
      </trkpt>
      <trkpt lat="43.306186676025" lon="-7.6687231063843">
        <ele>475</ele>
        <time>2019-09-11T11:12:26+00:00</time>
      </trkpt>
      <trkpt lat="43.306186676025" lon="-7.6687197685242">
        <ele>475</ele>
        <time>2019-09-11T11:12:27+00:00</time>
      </trkpt>
      <trkpt lat="43.306182861328" lon="-7.6687231063843">
        <ele>476</ele>
        <time>2019-09-11T11:12:28+00:00</time>
      </trkpt>
      <trkpt lat="43.306163787842" lon="-7.6687383651733">
        <ele>475</ele>
        <time>2019-09-11T11:12:29+00:00</time>
      </trkpt>
      <trkpt lat="43.30615234375" lon="-7.6687483787537">
        <ele>475</ele>
        <time>2019-09-11T11:12:30+00:00</time>
      </trkpt>
      <trkpt lat="43.306133270264" lon="-7.6687598228455">
        <ele>475</ele>
        <time>2019-09-11T11:12:31+00:00</time>
      </trkpt>
      <trkpt lat="43.306125640869" lon="-7.6687650680542">
        <ele>475</ele>
        <time>2019-09-11T11:12:32+00:00</time>
      </trkpt>
      <trkpt lat="43.306121826172" lon="-7.6687750816345">
        <ele>475</ele>
        <time>2019-09-11T11:12:33+00:00</time>
      </trkpt>
      <trkpt lat="43.30611038208" lon="-7.6687817573547">
        <ele>474</ele>
        <time>2019-09-11T11:12:34+00:00</time>
      </trkpt>
      <trkpt lat="43.306106567383" lon="-7.6687965393066">
        <ele>474</ele>
        <time>2019-09-11T11:12:35+00:00</time>
      </trkpt>
      <trkpt lat="43.306098937988" lon="-7.6688117980957">
        <ele>474</ele>
        <time>2019-09-11T11:12:36+00:00</time>
      </trkpt>
      <trkpt lat="43.306102752686" lon="-7.6688232421875">
        <ele>473</ele>
        <time>2019-09-11T11:12:37+00:00</time>
      </trkpt>
      <trkpt lat="43.306095123291" lon="-7.668839931488">
        <ele>473</ele>
        <time>2019-09-11T11:12:38+00:00</time>
      </trkpt>
      <trkpt lat="43.306087493896" lon="-7.6688599586487">
        <ele>473</ele>
        <time>2019-09-11T11:12:39+00:00</time>
      </trkpt>
      <trkpt lat="43.306079864502" lon="-7.668869972229">
        <ele>472</ele>
        <time>2019-09-11T11:12:40+00:00</time>
      </trkpt>
      <trkpt lat="43.30606842041" lon="-7.6688866615295">
        <ele>472</ele>
        <time>2019-09-11T11:12:41+00:00</time>
      </trkpt>
      <trkpt lat="43.306064605713" lon="-7.6688981056213">
        <ele>473</ele>
        <time>2019-09-11T11:12:42+00:00</time>
      </trkpt>
      <trkpt lat="43.306056976318" lon="-7.6689100265503">
        <ele>473</ele>
        <time>2019-09-11T11:12:43+00:00</time>
      </trkpt>
      <trkpt lat="43.306049346924" lon="-7.6689233779907">
        <ele>473</ele>
        <time>2019-09-11T11:12:44+00:00</time>
      </trkpt>
      <trkpt lat="43.306041717529" lon="-7.6689400672913">
        <ele>473</ele>
        <time>2019-09-11T11:12:45+00:00</time>
      </trkpt>
      <trkpt lat="43.306034088135" lon="-7.6689500808716">
        <ele>472</ele>
        <time>2019-09-11T11:12:46+00:00</time>
      </trkpt>
      <trkpt lat="43.30602645874" lon="-7.6689701080322">
        <ele>472</ele>
        <time>2019-09-11T11:12:47+00:00</time>
      </trkpt>
      <trkpt lat="43.306018829346" lon="-7.6689867973328">
        <ele>471</ele>
        <time>2019-09-11T11:12:48+00:00</time>
      </trkpt>
      <trkpt lat="43.306015014648" lon="-7.6690034866333">
        <ele>471</ele>
        <time>2019-09-11T11:12:49+00:00</time>
      </trkpt>
      <trkpt lat="43.306003570557" lon="-7.6690182685852">
        <ele>471</ele>
        <time>2019-09-11T11:12:50+00:00</time>
      </trkpt>
      <trkpt lat="43.305995941162" lon="-7.6690368652344">
        <ele>471</ele>
        <time>2019-09-11T11:12:51+00:00</time>
      </trkpt>
      <trkpt lat="43.305988311768" lon="-7.6690483093262">
        <ele>471</ele>
        <time>2019-09-11T11:12:52+00:00</time>
      </trkpt>
      <trkpt lat="43.30598449707" lon="-7.6690635681152">
        <ele>470</ele>
        <time>2019-09-11T11:12:53+00:00</time>
      </trkpt>
      <trkpt lat="43.305980682373" lon="-7.6690731048584">
        <ele>470</ele>
        <time>2019-09-11T11:12:54+00:00</time>
      </trkpt>
      <trkpt lat="43.305973052979" lon="-7.6690883636475">
        <ele>470</ele>
        <time>2019-09-11T11:12:55+00:00</time>
      </trkpt>
      <trkpt lat="43.305965423584" lon="-7.6691017150879">
        <ele>470</ele>
        <time>2019-09-11T11:12:56+00:00</time>
      </trkpt>
      <trkpt lat="43.305969238281" lon="-7.6690983772278">
        <ele>470</ele>
        <time>2019-09-11T11:12:57+00:00</time>
      </trkpt>
      <trkpt lat="43.305973052979" lon="-7.669093132019">
        <ele>470</ele>
        <time>2019-09-11T11:12:58+00:00</time>
      </trkpt>
      <trkpt lat="43.305973052979" lon="-7.6690950393677">
        <ele>470</ele>
        <time>2019-09-11T11:12:59+00:00</time>
      </trkpt>
      <trkpt lat="43.305976867676" lon="-7.669093132019">
        <ele>470</ele>
        <time>2019-09-11T11:13:00+00:00</time>
      </trkpt>
      <trkpt lat="43.305973052979" lon="-7.669093132019">
        <ele>470</ele>
        <time>2019-09-11T11:13:01+00:00</time>
      </trkpt>
      <trkpt lat="43.305973052979" lon="-7.6690983772278">
        <ele>470</ele>
        <time>2019-09-11T11:13:02+00:00</time>
      </trkpt>
      <trkpt lat="43.305973052979" lon="-7.669105052948">
        <ele>470</ele>
        <time>2019-09-11T11:13:03+00:00</time>
      </trkpt>
      <trkpt lat="43.305969238281" lon="-7.6691098213196">
        <ele>470</ele>
        <time>2019-09-11T11:13:04+00:00</time>
      </trkpt>
      <trkpt lat="43.305965423584" lon="-7.6691164970398">
        <ele>470</ele>
        <time>2019-09-11T11:13:05+00:00</time>
      </trkpt>
      <trkpt lat="43.305969238281" lon="-7.6691131591797">
        <ele>470</ele>
        <time>2019-09-11T11:13:06+00:00</time>
      </trkpt>
      <trkpt lat="43.305965423584" lon="-7.6691131591797">
        <ele>470</ele>
        <time>2019-09-11T11:13:07+00:00</time>
      </trkpt>
      <trkpt lat="43.305965423584" lon="-7.6691131591797">
        <ele>470</ele>
        <time>2019-09-11T11:13:08+00:00</time>
      </trkpt>
      <trkpt lat="43.305965423584" lon="-7.6691131591797">
        <ele>470</ele>
        <time>2019-09-11T11:13:09+00:00</time>
      </trkpt>
      <trkpt lat="43.305965423584" lon="-7.6691131591797">
        <ele>470</ele>
        <time>2019-09-11T11:13:10+00:00</time>
      </trkpt>
      <trkpt lat="43.305965423584" lon="-7.6691131591797">
        <ele>470</ele>
        <time>2019-09-11T11:13:11+00:00</time>
      </trkpt>
      <trkpt lat="43.305965423584" lon="-7.6691131591797">
        <ele>470</ele>
        <time>2019-09-11T11:13:12+00:00</time>
      </trkpt>
      <trkpt lat="43.305965423584" lon="-7.6691131591797">
        <ele>470</ele>
        <time>2019-09-11T11:13:13+00:00</time>
      </trkpt>
      <trkpt lat="43.305965423584" lon="-7.6691131591797">
        <ele>470</ele>
        <time>2019-09-11T11:13:14+00:00</time>
      </trkpt>
      <trkpt lat="43.305965423584" lon="-7.6691131591797">
        <ele>470</ele>
        <time>2019-09-11T11:13:15+00:00</time>
      </trkpt>
      <trkpt lat="43.305946350098" lon="-7.6691284179688">
        <ele>470</ele>
        <time>2019-09-11T11:13:16+00:00</time>
      </trkpt>
      <trkpt lat="43.305934906006" lon="-7.669135093689">
        <ele>470</ele>
        <time>2019-09-11T11:13:17+00:00</time>
      </trkpt>
      <trkpt lat="43.305927276611" lon="-7.6691465377808">
        <ele>470</ele>
        <time>2019-09-11T11:13:18+00:00</time>
      </trkpt>
      <trkpt lat="43.305923461914" lon="-7.6691598892212">
        <ele>470</ele>
        <time>2019-09-11T11:13:19+00:00</time>
      </trkpt>
      <trkpt lat="43.305919647217" lon="-7.66916847229">
        <ele>470</ele>
        <time>2019-09-11T11:13:20+00:00</time>
      </trkpt>
      <trkpt lat="43.30591583252" lon="-7.6691818237305">
        <ele>469</ele>
        <time>2019-09-11T11:13:21+00:00</time>
      </trkpt>
      <trkpt lat="43.305912017822" lon="-7.6691918373108">
        <ele>469</ele>
        <time>2019-09-11T11:13:22+00:00</time>
      </trkpt>
      <trkpt lat="43.305904388428" lon="-7.6692018508911">
        <ele>469</ele>
        <time>2019-09-11T11:13:23+00:00</time>
      </trkpt>
      <trkpt lat="43.305904388428" lon="-7.6692152023315">
        <ele>469</ele>
        <time>2019-09-11T11:13:24+00:00</time>
      </trkpt>
      <trkpt lat="43.30590057373" lon="-7.6692252159119">
        <ele>469</ele>
        <time>2019-09-11T11:13:25+00:00</time>
      </trkpt>
      <trkpt lat="43.305892944336" lon="-7.6692333221436">
        <ele>469</ele>
        <time>2019-09-11T11:13:26+00:00</time>
      </trkpt>
      <trkpt lat="43.305881500244" lon="-7.6692447662354">
        <ele>469</ele>
        <time>2019-09-11T11:13:27+00:00</time>
      </trkpt>
      <trkpt lat="43.305870056152" lon="-7.6692566871643">
        <ele>469</ele>
        <time>2019-09-11T11:13:28+00:00</time>
      </trkpt>
      <trkpt lat="43.305858612061" lon="-7.6692733764648">
        <ele>469</ele>
        <time>2019-09-11T11:13:29+00:00</time>
      </trkpt>
      <trkpt lat="43.305854797363" lon="-7.6692900657654">
        <ele>469</ele>
        <time>2019-09-11T11:13:30+00:00</time>
      </trkpt>
      <trkpt lat="43.305843353271" lon="-7.6693015098572">
        <ele>469</ele>
        <time>2019-09-11T11:13:31+00:00</time>
      </trkpt>
      <trkpt lat="43.305835723877" lon="-7.669310092926">
        <ele>469</ele>
        <time>2019-09-11T11:13:32+00:00</time>
      </trkpt>
      <trkpt lat="43.305828094482" lon="-7.6693181991577">
        <ele>469</ele>
        <time>2019-09-11T11:13:33+00:00</time>
      </trkpt>
      <trkpt lat="43.305820465088" lon="-7.669328212738">
        <ele>469</ele>
        <time>2019-09-11T11:13:34+00:00</time>
      </trkpt>
      <trkpt lat="43.305812835693" lon="-7.669340133667">
        <ele>469</ele>
        <time>2019-09-11T11:13:35+00:00</time>
      </trkpt>
      <trkpt lat="43.305786132812" lon="-7.6693449020386">
        <ele>469</ele>
        <time>2019-09-11T11:13:36+00:00</time>
      </trkpt>
      <trkpt lat="43.305774688721" lon="-7.6693515777588">
        <ele>469</ele>
        <time>2019-09-11T11:13:37+00:00</time>
      </trkpt>
      <trkpt lat="43.305763244629" lon="-7.6693601608276">
        <ele>469</ele>
        <time>2019-09-11T11:13:38+00:00</time>
      </trkpt>
      <trkpt lat="43.305755615234" lon="-7.6693749427795">
        <ele>469</ele>
        <time>2019-09-11T11:13:39+00:00</time>
      </trkpt>
      <trkpt lat="43.305755615234" lon="-7.6693801879883">
        <ele>469</ele>
        <time>2019-09-11T11:13:40+00:00</time>
      </trkpt>
      <trkpt lat="43.30574798584" lon="-7.66938829422">
        <ele>469</ele>
        <time>2019-09-11T11:13:41+00:00</time>
      </trkpt>
      <trkpt lat="43.305732727051" lon="-7.6694016456604">
        <ele>469</ele>
        <time>2019-09-11T11:13:42+00:00</time>
      </trkpt>
      <trkpt lat="43.305721282959" lon="-7.6694116592407">
        <ele>469</ele>
        <time>2019-09-11T11:13:43+00:00</time>
      </trkpt>
      <trkpt lat="43.305709838867" lon="-7.6694283485413">
        <ele>469</ele>
        <time>2019-09-11T11:13:44+00:00</time>
      </trkpt>
      <trkpt lat="43.305698394775" lon="-7.6694397926331">
        <ele>469</ele>
        <time>2019-09-11T11:13:45+00:00</time>
      </trkpt>
      <trkpt lat="43.305694580078" lon="-7.6694531440735">
        <ele>469</ele>
        <time>2019-09-11T11:13:46+00:00</time>
      </trkpt>
      <trkpt lat="43.305686950684" lon="-7.6694684028625">
        <ele>469</ele>
        <time>2019-09-11T11:13:47+00:00</time>
      </trkpt>
      <trkpt lat="43.305679321289" lon="-7.6694784164429">
        <ele>469</ele>
        <time>2019-09-11T11:13:48+00:00</time>
      </trkpt>
      <trkpt lat="43.305671691895" lon="-7.6694931983948">
        <ele>469</ele>
        <time>2019-09-11T11:13:49+00:00</time>
      </trkpt>
      <trkpt lat="43.305656433105" lon="-7.6695032119751">
        <ele>469</ele>
        <time>2019-09-11T11:13:50+00:00</time>
      </trkpt>
      <trkpt lat="43.305641174316" lon="-7.6695132255554">
        <ele>469</ele>
        <time>2019-09-11T11:13:51+00:00</time>
      </trkpt>
      <trkpt lat="43.305633544922" lon="-7.6695265769958">
        <ele>469</ele>
        <time>2019-09-11T11:13:52+00:00</time>
      </trkpt>
      <trkpt lat="43.305618286133" lon="-7.6695384979248">
        <ele>469</ele>
        <time>2019-09-11T11:13:53+00:00</time>
      </trkpt>
      <trkpt lat="43.305603027344" lon="-7.6695518493652">
        <ele>469</ele>
        <time>2019-09-11T11:13:54+00:00</time>
      </trkpt>
      <trkpt lat="43.305595397949" lon="-7.6695685386658">
        <ele>469</ele>
        <time>2019-09-11T11:13:55+00:00</time>
      </trkpt>
      <trkpt lat="43.305587768555" lon="-7.6695833206177">
        <ele>469</ele>
        <time>2019-09-11T11:13:56+00:00</time>
      </trkpt>
      <trkpt lat="43.30558013916" lon="-7.6695966720581">
        <ele>469</ele>
        <time>2019-09-11T11:13:57+00:00</time>
      </trkpt>
      <trkpt lat="43.305568695068" lon="-7.6696147918701">
        <ele>469</ele>
        <time>2019-09-11T11:13:58+00:00</time>
      </trkpt>
      <trkpt lat="43.305561065674" lon="-7.6696300506592">
        <ele>469</ele>
        <time>2019-09-11T11:13:59+00:00</time>
      </trkpt>
      <trkpt lat="43.305549621582" lon="-7.6696400642395">
        <ele>469</ele>
        <time>2019-09-11T11:14:00+00:00</time>
      </trkpt>
      <trkpt lat="43.305541992188" lon="-7.6696600914001">
        <ele>469</ele>
        <time>2019-09-11T11:14:01+00:00</time>
      </trkpt>
      <trkpt lat="43.30553817749" lon="-7.6696767807007">
        <ele>468</ele>
        <time>2019-09-11T11:14:02+00:00</time>
      </trkpt>
      <trkpt lat="43.305526733398" lon="-7.6696915626526">
        <ele>468</ele>
        <time>2019-09-11T11:14:03+00:00</time>
      </trkpt>
      <trkpt lat="43.305522918701" lon="-7.669704914093">
        <ele>468</ele>
        <time>2019-09-11T11:14:04+00:00</time>
      </trkpt>
      <trkpt lat="43.305519104004" lon="-7.6697216033936">
        <ele>468</ele>
        <time>2019-09-11T11:14:05+00:00</time>
      </trkpt>
      <trkpt lat="43.305511474609" lon="-7.6697335243225">
        <ele>468</ele>
        <time>2019-09-11T11:14:06+00:00</time>
      </trkpt>
      <trkpt lat="43.305500030518" lon="-7.6697435379028">
        <ele>468</ele>
        <time>2019-09-11T11:14:07+00:00</time>
      </trkpt>
      <trkpt lat="43.305488586426" lon="-7.6697568893433">
        <ele>468</ele>
        <time>2019-09-11T11:14:08+00:00</time>
      </trkpt>
      <trkpt lat="43.305484771729" lon="-7.6697716712952">
        <ele>468</ele>
        <time>2019-09-11T11:14:09+00:00</time>
      </trkpt>
      <trkpt lat="43.305473327637" lon="-7.6697797775269">
        <ele>468</ele>
        <time>2019-09-11T11:14:10+00:00</time>
      </trkpt>
      <trkpt lat="43.305465698242" lon="-7.6697883605957">
        <ele>468</ele>
        <time>2019-09-11T11:14:11+00:00</time>
      </trkpt>
      <trkpt lat="43.305458068848" lon="-7.6697931289673">
        <ele>468</ele>
        <time>2019-09-11T11:14:12+00:00</time>
      </trkpt>
      <trkpt lat="43.305446624756" lon="-7.6697998046875">
        <ele>468</ele>
        <time>2019-09-11T11:14:13+00:00</time>
      </trkpt>
      <trkpt lat="43.305435180664" lon="-7.6698083877563">
        <ele>468</ele>
        <time>2019-09-11T11:14:14+00:00</time>
      </trkpt>
      <trkpt lat="43.30542755127" lon="-7.6698150634766">
        <ele>468</ele>
        <time>2019-09-11T11:14:15+00:00</time>
      </trkpt>
      <trkpt lat="43.305416107178" lon="-7.6698131561279">
        <ele>468</ele>
        <time>2019-09-11T11:14:16+00:00</time>
      </trkpt>
      <trkpt lat="43.305404663086" lon="-7.6698131561279">
        <ele>468</ele>
        <time>2019-09-11T11:14:17+00:00</time>
      </trkpt>
      <trkpt lat="43.305393218994" lon="-7.6698198318481">
        <ele>468</ele>
        <time>2019-09-11T11:14:18+00:00</time>
      </trkpt>
      <trkpt lat="43.305389404297" lon="-7.669828414917">
        <ele>468</ele>
        <time>2019-09-11T11:14:19+00:00</time>
      </trkpt>
      <trkpt lat="43.305381774902" lon="-7.6698417663574">
        <ele>468</ele>
        <time>2019-09-11T11:14:20+00:00</time>
      </trkpt>
      <trkpt lat="43.305370330811" lon="-7.6698498725891">
        <ele>468</ele>
        <time>2019-09-11T11:14:21+00:00</time>
      </trkpt>
      <trkpt lat="43.305358886719" lon="-7.6698651313782">
        <ele>468</ele>
        <time>2019-09-11T11:14:22+00:00</time>
      </trkpt>
      <trkpt lat="43.305347442627" lon="-7.6698799133301">
        <ele>468</ele>
        <time>2019-09-11T11:14:23+00:00</time>
      </trkpt>
      <trkpt lat="43.305339813232" lon="-7.6698951721191">
        <ele>468</ele>
        <time>2019-09-11T11:14:24+00:00</time>
      </trkpt>
      <trkpt lat="43.305328369141" lon="-7.669909954071">
        <ele>468</ele>
        <time>2019-09-11T11:14:25+00:00</time>
      </trkpt>
      <trkpt lat="43.305324554443" lon="-7.6699285507202">
        <ele>468</ele>
        <time>2019-09-11T11:14:26+00:00</time>
      </trkpt>
      <trkpt lat="43.305316925049" lon="-7.6699466705322">
        <ele>469</ele>
        <time>2019-09-11T11:14:27+00:00</time>
      </trkpt>
      <trkpt lat="43.305309295654" lon="-7.6699633598328">
        <ele>469</ele>
        <time>2019-09-11T11:14:28+00:00</time>
      </trkpt>
      <trkpt lat="43.30530166626" lon="-7.6699848175049">
        <ele>469</ele>
        <time>2019-09-11T11:14:29+00:00</time>
      </trkpt>
      <trkpt lat="43.305297851562" lon="-7.6699981689453">
        <ele>469</ele>
        <time>2019-09-11T11:14:30+00:00</time>
      </trkpt>
      <trkpt lat="43.305290222168" lon="-7.6700167655945">
        <ele>469</ele>
        <time>2019-09-11T11:14:31+00:00</time>
      </trkpt>
      <trkpt lat="43.305282592773" lon="-7.670033454895">
        <ele>469</ele>
        <time>2019-09-11T11:14:32+00:00</time>
      </trkpt>
      <trkpt lat="43.305274963379" lon="-7.670051574707">
        <ele>469</ele>
        <time>2019-09-11T11:14:33+00:00</time>
      </trkpt>
      <trkpt lat="43.305263519287" lon="-7.6700649261475">
        <ele>469</ele>
        <time>2019-09-11T11:14:34+00:00</time>
      </trkpt>
      <trkpt lat="43.305252075195" lon="-7.6700782775879">
        <ele>469</ele>
        <time>2019-09-11T11:14:35+00:00</time>
      </trkpt>
      <trkpt lat="43.305248260498" lon="-7.6700901985168">
        <ele>469</ele>
        <time>2019-09-11T11:14:36+00:00</time>
      </trkpt>
      <trkpt lat="43.305236816406" lon="-7.6701016426086">
        <ele>469</ele>
        <time>2019-09-11T11:14:37+00:00</time>
      </trkpt>
      <trkpt lat="43.305233001709" lon="-7.6701197624207">
        <ele>469</ele>
        <time>2019-09-11T11:14:38+00:00</time>
      </trkpt>
      <trkpt lat="43.305225372314" lon="-7.6701331138611">
        <ele>469</ele>
        <time>2019-09-11T11:14:39+00:00</time>
      </trkpt>
      <trkpt lat="43.305221557617" lon="-7.6701498031616">
        <ele>470</ele>
        <time>2019-09-11T11:14:40+00:00</time>
      </trkpt>
      <trkpt lat="43.305213928223" lon="-7.6701583862305">
        <ele>470</ele>
        <time>2019-09-11T11:14:41+00:00</time>
      </trkpt>
      <trkpt lat="43.305206298828" lon="-7.6701698303223">
        <ele>470</ele>
        <time>2019-09-11T11:14:42+00:00</time>
      </trkpt>
      <trkpt lat="43.305198669434" lon="-7.6701884269714">
        <ele>470</ele>
        <time>2019-09-11T11:14:43+00:00</time>
      </trkpt>
      <trkpt lat="43.305194854736" lon="-7.670205116272">
        <ele>470</ele>
        <time>2019-09-11T11:14:44+00:00</time>
      </trkpt>
      <trkpt lat="43.305187225342" lon="-7.6702184677124">
        <ele>470</ele>
        <time>2019-09-11T11:14:45+00:00</time>
      </trkpt>
      <trkpt lat="43.305179595947" lon="-7.6702284812927">
        <ele>470</ele>
        <time>2019-09-11T11:14:46+00:00</time>
      </trkpt>
      <trkpt lat="43.305171966553" lon="-7.6702399253845">
        <ele>470</ele>
        <time>2019-09-11T11:14:47+00:00</time>
      </trkpt>
      <trkpt lat="43.305168151855" lon="-7.6702518463135">
        <ele>470</ele>
        <time>2019-09-11T11:14:48+00:00</time>
      </trkpt>
      <trkpt lat="43.305160522461" lon="-7.6702651977539">
        <ele>470</ele>
        <time>2019-09-11T11:14:49+00:00</time>
      </trkpt>
      <trkpt lat="43.305156707764" lon="-7.6702766418457">
        <ele>470</ele>
        <time>2019-09-11T11:14:50+00:00</time>
      </trkpt>
      <trkpt lat="43.305149078369" lon="-7.6702899932861">
        <ele>470</ele>
        <time>2019-09-11T11:14:51+00:00</time>
      </trkpt>
      <trkpt lat="43.305141448975" lon="-7.6703000068665">
        <ele>470</ele>
        <time>2019-09-11T11:14:52+00:00</time>
      </trkpt>
      <trkpt lat="43.30513381958" lon="-7.6703114509583">
        <ele>470</ele>
        <time>2019-09-11T11:14:53+00:00</time>
      </trkpt>
      <trkpt lat="43.305126190186" lon="-7.6703200340271">
        <ele>470</ele>
        <time>2019-09-11T11:14:54+00:00</time>
      </trkpt>
      <trkpt lat="43.305118560791" lon="-7.6703314781189">
        <ele>470</ele>
        <time>2019-09-11T11:14:55+00:00</time>
      </trkpt>
      <trkpt lat="43.305107116699" lon="-7.6703448295593">
        <ele>470</ele>
        <time>2019-09-11T11:14:56+00:00</time>
      </trkpt>
      <trkpt lat="43.305095672607" lon="-7.6703567504883">
        <ele>470</ele>
        <time>2019-09-11T11:14:57+00:00</time>
      </trkpt>
      <trkpt lat="43.305088043213" lon="-7.6703701019287">
        <ele>470</ele>
        <time>2019-09-11T11:14:58+00:00</time>
      </trkpt>
      <trkpt lat="43.305080413818" lon="-7.6703815460205">
        <ele>470</ele>
        <time>2019-09-11T11:14:59+00:00</time>
      </trkpt>
      <trkpt lat="43.305072784424" lon="-7.6703948974609">
        <ele>470</ele>
        <time>2019-09-11T11:15:00+00:00</time>
      </trkpt>
      <trkpt lat="43.305061340332" lon="-7.67041015625">
        <ele>470</ele>
        <time>2019-09-11T11:15:01+00:00</time>
      </trkpt>
      <trkpt lat="43.30504989624" lon="-7.6704216003418">
        <ele>470</ele>
        <time>2019-09-11T11:15:02+00:00</time>
      </trkpt>
      <trkpt lat="43.305038452148" lon="-7.6704349517822">
        <ele>470</ele>
        <time>2019-09-11T11:15:03+00:00</time>
      </trkpt>
      <trkpt lat="43.305038452148" lon="-7.6704468727112">
        <ele>470</ele>
        <time>2019-09-11T11:15:04+00:00</time>
      </trkpt>
      <trkpt lat="43.305030822754" lon="-7.6704568862915">
        <ele>470</ele>
        <time>2019-09-11T11:15:05+00:00</time>
      </trkpt>
      <trkpt lat="43.305019378662" lon="-7.6704683303833">
        <ele>470</ele>
        <time>2019-09-11T11:15:06+00:00</time>
      </trkpt>
      <trkpt lat="43.305011749268" lon="-7.6704783439636">
        <ele>470</ele>
        <time>2019-09-11T11:15:07+00:00</time>
      </trkpt>
      <trkpt lat="43.30500793457" lon="-7.6704864501953">
        <ele>470</ele>
        <time>2019-09-11T11:15:08+00:00</time>
      </trkpt>
      <trkpt lat="43.304996490479" lon="-7.6704998016357">
        <ele>470</ele>
        <time>2019-09-11T11:15:09+00:00</time>
      </trkpt>
      <trkpt lat="43.304985046387" lon="-7.6705117225647">
        <ele>470</ele>
        <time>2019-09-11T11:15:10+00:00</time>
      </trkpt>
      <trkpt lat="43.304973602295" lon="-7.6705265045166">
        <ele>469</ele>
        <time>2019-09-11T11:15:11+00:00</time>
      </trkpt>
      <trkpt lat="43.3049659729" lon="-7.6705417633057">
        <ele>469</ele>
        <time>2019-09-11T11:15:12+00:00</time>
      </trkpt>
      <trkpt lat="43.304958343506" lon="-7.6705565452576">
        <ele>469</ele>
        <time>2019-09-11T11:15:13+00:00</time>
      </trkpt>
      <trkpt lat="43.304950714111" lon="-7.6705732345581">
        <ele>469</ele>
        <time>2019-09-11T11:15:14+00:00</time>
      </trkpt>
      <trkpt lat="43.30493927002" lon="-7.6705884933472">
        <ele>469</ele>
        <time>2019-09-11T11:15:15+00:00</time>
      </trkpt>
      <trkpt lat="43.304931640625" lon="-7.6706032752991">
        <ele>468</ele>
        <time>2019-09-11T11:15:16+00:00</time>
      </trkpt>
      <trkpt lat="43.30492401123" lon="-7.6706185340881">
        <ele>468</ele>
        <time>2019-09-11T11:15:17+00:00</time>
      </trkpt>
      <trkpt lat="43.304912567139" lon="-7.6706299781799">
        <ele>468</ele>
        <time>2019-09-11T11:15:18+00:00</time>
      </trkpt>
      <trkpt lat="43.304904937744" lon="-7.6706433296204">
        <ele>468</ele>
        <time>2019-09-11T11:15:19+00:00</time>
      </trkpt>
      <trkpt lat="43.304893493652" lon="-7.6706547737122">
        <ele>468</ele>
        <time>2019-09-11T11:15:20+00:00</time>
      </trkpt>
      <trkpt lat="43.304885864258" lon="-7.6706666946411">
        <ele>468</ele>
        <time>2019-09-11T11:15:21+00:00</time>
      </trkpt>
      <trkpt lat="43.304874420166" lon="-7.6706781387329">
        <ele>468</ele>
        <time>2019-09-11T11:15:22+00:00</time>
      </trkpt>
      <trkpt lat="43.304862976074" lon="-7.6706867218018">
        <ele>468</ele>
        <time>2019-09-11T11:15:23+00:00</time>
      </trkpt>
      <trkpt lat="43.304851531982" lon="-7.6706948280334">
        <ele>468</ele>
        <time>2019-09-11T11:15:24+00:00</time>
      </trkpt>
      <trkpt lat="43.304840087891" lon="-7.6707048416138">
        <ele>468</ele>
        <time>2019-09-11T11:15:25+00:00</time>
      </trkpt>
      <trkpt lat="43.304828643799" lon="-7.6707181930542">
        <ele>468</ele>
        <time>2019-09-11T11:15:26+00:00</time>
      </trkpt>
      <trkpt lat="43.304821014404" lon="-7.6707282066345">
        <ele>468</ele>
        <time>2019-09-11T11:15:27+00:00</time>
      </trkpt>
      <trkpt lat="43.30481338501" lon="-7.6707401275635">
        <ele>467</ele>
        <time>2019-09-11T11:15:28+00:00</time>
      </trkpt>
      <trkpt lat="43.304805755615" lon="-7.6707482337952">
        <ele>467</ele>
        <time>2019-09-11T11:15:29+00:00</time>
      </trkpt>
      <trkpt lat="43.304798126221" lon="-7.6707615852356">
        <ele>467</ele>
        <time>2019-09-11T11:15:30+00:00</time>
      </trkpt>
      <trkpt lat="43.304790496826" lon="-7.6707701683044">
        <ele>467</ele>
        <time>2019-09-11T11:15:31+00:00</time>
      </trkpt>
      <trkpt lat="43.304782867432" lon="-7.6707801818848">
        <ele>467</ele>
        <time>2019-09-11T11:15:32+00:00</time>
      </trkpt>
      <trkpt lat="43.30477142334" lon="-7.6707882881165">
        <ele>467</ele>
        <time>2019-09-11T11:15:33+00:00</time>
      </trkpt>
      <trkpt lat="43.304763793945" lon="-7.6707949638367">
        <ele>467</ele>
        <time>2019-09-11T11:15:34+00:00</time>
      </trkpt>
      <trkpt lat="43.304752349854" lon="-7.6708016395569">
        <ele>467</ele>
        <time>2019-09-11T11:15:35+00:00</time>
      </trkpt>
      <trkpt lat="43.304740905762" lon="-7.6708083152771">
        <ele>467</ele>
        <time>2019-09-11T11:15:36+00:00</time>
      </trkpt>
      <trkpt lat="43.30472946167" lon="-7.6708168983459">
        <ele>467</ele>
        <time>2019-09-11T11:15:37+00:00</time>
      </trkpt>
      <trkpt lat="43.304718017578" lon="-7.6708264350891">
        <ele>467</ele>
        <time>2019-09-11T11:15:38+00:00</time>
      </trkpt>
      <trkpt lat="43.304706573486" lon="-7.6708383560181">
        <ele>467</ele>
        <time>2019-09-11T11:15:39+00:00</time>
      </trkpt>
      <trkpt lat="43.304695129395" lon="-7.6708498001099">
        <ele>467</ele>
        <time>2019-09-11T11:15:40+00:00</time>
      </trkpt>
      <trkpt lat="43.3046875" lon="-7.6708598136902">
        <ele>467</ele>
        <time>2019-09-11T11:15:41+00:00</time>
      </trkpt>
      <trkpt lat="43.304679870605" lon="-7.6708717346191">
        <ele>467</ele>
        <time>2019-09-11T11:15:42+00:00</time>
      </trkpt>
      <trkpt lat="43.304668426514" lon="-7.6708831787109">
        <ele>467</ele>
        <time>2019-09-11T11:15:43+00:00</time>
      </trkpt>
      <trkpt lat="43.304656982422" lon="-7.6708950996399">
        <ele>467</ele>
        <time>2019-09-11T11:15:44+00:00</time>
      </trkpt>
      <trkpt lat="43.304653167725" lon="-7.6709084510803">
        <ele>467</ele>
        <time>2019-09-11T11:15:45+00:00</time>
      </trkpt>
      <trkpt lat="43.30464553833" lon="-7.6709184646606">
        <ele>467</ele>
        <time>2019-09-11T11:15:46+00:00</time>
      </trkpt>
      <trkpt lat="43.304641723633" lon="-7.6709299087524">
        <ele>467</ele>
        <time>2019-09-11T11:15:47+00:00</time>
      </trkpt>
      <trkpt lat="43.304634094238" lon="-7.6709418296814">
        <ele>467</ele>
        <time>2019-09-11T11:15:48+00:00</time>
      </trkpt>
      <trkpt lat="43.304626464844" lon="-7.6709551811218">
        <ele>467</ele>
        <time>2019-09-11T11:15:49+00:00</time>
      </trkpt>
      <trkpt lat="43.304618835449" lon="-7.6709666252136">
        <ele>467</ele>
        <time>2019-09-11T11:15:50+00:00</time>
      </trkpt>
      <trkpt lat="43.304607391357" lon="-7.6709799766541">
        <ele>467</ele>
        <time>2019-09-11T11:15:51+00:00</time>
      </trkpt>
      <trkpt lat="43.304599761963" lon="-7.6709899902344">
        <ele>467</ele>
        <time>2019-09-11T11:15:52+00:00</time>
      </trkpt>
      <trkpt lat="43.304592132568" lon="-7.6710033416748">
        <ele>468</ele>
        <time>2019-09-11T11:15:53+00:00</time>
      </trkpt>
      <trkpt lat="43.304588317871" lon="-7.6710147857666">
        <ele>468</ele>
        <time>2019-09-11T11:15:54+00:00</time>
      </trkpt>
      <trkpt lat="43.304580688477" lon="-7.6710267066956">
        <ele>468</ele>
        <time>2019-09-11T11:15:55+00:00</time>
      </trkpt>
      <trkpt lat="43.304573059082" lon="-7.6710414886475">
        <ele>468</ele>
        <time>2019-09-11T11:15:56+00:00</time>
      </trkpt>
      <trkpt lat="43.30456161499" lon="-7.6710515022278">
        <ele>468</ele>
        <time>2019-09-11T11:15:57+00:00</time>
      </trkpt>
      <trkpt lat="43.304550170898" lon="-7.6710634231567">
        <ele>468</ele>
        <time>2019-09-11T11:15:58+00:00</time>
      </trkpt>
      <trkpt lat="43.304538726807" lon="-7.6710748672485">
        <ele>468</ele>
        <time>2019-09-11T11:15:59+00:00</time>
      </trkpt>
      <trkpt lat="43.304534912109" lon="-7.6710848808289">
        <ele>468</ele>
        <time>2019-09-11T11:16:00+00:00</time>
      </trkpt>
      <trkpt lat="43.304523468018" lon="-7.6710982322693">
        <ele>469</ele>
        <time>2019-09-11T11:16:01+00:00</time>
      </trkpt>
      <trkpt lat="43.304512023926" lon="-7.6711134910583">
        <ele>469</ele>
        <time>2019-09-11T11:16:02+00:00</time>
      </trkpt>
      <trkpt lat="43.304500579834" lon="-7.6711249351501">
        <ele>469</ele>
        <time>2019-09-11T11:16:03+00:00</time>
      </trkpt>
      <trkpt lat="43.304496765137" lon="-7.6711349487305">
        <ele>469</ele>
        <time>2019-09-11T11:16:04+00:00</time>
      </trkpt>
      <trkpt lat="43.304485321045" lon="-7.6711468696594">
        <ele>469</ele>
        <time>2019-09-11T11:16:05+00:00</time>
      </trkpt>
      <trkpt lat="43.304481506348" lon="-7.6711602210999">
        <ele>469</ele>
        <time>2019-09-11T11:16:06+00:00</time>
      </trkpt>
      <trkpt lat="43.304473876953" lon="-7.6711750030518">
        <ele>468</ele>
        <time>2019-09-11T11:16:07+00:00</time>
      </trkpt>
      <trkpt lat="43.304470062256" lon="-7.6711883544922">
        <ele>468</ele>
        <time>2019-09-11T11:16:08+00:00</time>
      </trkpt>
      <trkpt lat="43.304462432861" lon="-7.6711931228638">
        <ele>468</ele>
        <time>2019-09-11T11:16:09+00:00</time>
      </trkpt>
      <trkpt lat="43.304454803467" lon="-7.6711983680725">
        <ele>468</ele>
        <time>2019-09-11T11:16:10+00:00</time>
      </trkpt>
      <trkpt lat="43.304447174072" lon="-7.6712031364441">
        <ele>469</ele>
        <time>2019-09-11T11:16:11+00:00</time>
      </trkpt>
      <trkpt lat="43.304439544678" lon="-7.6712117195129">
        <ele>469</ele>
        <time>2019-09-11T11:16:12+00:00</time>
      </trkpt>
      <trkpt lat="43.30443572998" lon="-7.6712217330933">
        <ele>469</ele>
        <time>2019-09-11T11:16:13+00:00</time>
      </trkpt>
      <trkpt lat="43.304428100586" lon="-7.6712365150452">
        <ele>469</ele>
        <time>2019-09-11T11:16:14+00:00</time>
      </trkpt>
      <trkpt lat="43.304416656494" lon="-7.6712484359741">
        <ele>468</ele>
        <time>2019-09-11T11:16:15+00:00</time>
      </trkpt>
      <trkpt lat="43.3044090271" lon="-7.6712617874146">
        <ele>468</ele>
        <time>2019-09-11T11:16:16+00:00</time>
      </trkpt>
      <trkpt lat="43.304401397705" lon="-7.671275138855">
        <ele>468</ele>
        <time>2019-09-11T11:16:17+00:00</time>
      </trkpt>
      <trkpt lat="43.304389953613" lon="-7.6712918281555">
        <ele>468</ele>
        <time>2019-09-11T11:16:18+00:00</time>
      </trkpt>
      <trkpt lat="43.304382324219" lon="-7.6713066101074">
        <ele>468</ele>
        <time>2019-09-11T11:16:19+00:00</time>
      </trkpt>
      <trkpt lat="43.304370880127" lon="-7.6713151931763">
        <ele>468</ele>
        <time>2019-09-11T11:16:20+00:00</time>
      </trkpt>
      <trkpt lat="43.304355621338" lon="-7.6713252067566">
        <ele>469</ele>
        <time>2019-09-11T11:16:21+00:00</time>
      </trkpt>
      <trkpt lat="43.304347991943" lon="-7.6713352203369">
        <ele>469</ele>
        <time>2019-09-11T11:16:22+00:00</time>
      </trkpt>
      <trkpt lat="43.304340362549" lon="-7.6713452339172">
        <ele>469</ele>
        <time>2019-09-11T11:16:23+00:00</time>
      </trkpt>
      <trkpt lat="43.304332733154" lon="-7.6713547706604">
        <ele>469</ele>
        <time>2019-09-11T11:16:24+00:00</time>
      </trkpt>
      <trkpt lat="43.304321289062" lon="-7.6713633537292">
        <ele>469</ele>
        <time>2019-09-11T11:16:25+00:00</time>
      </trkpt>
      <trkpt lat="43.304309844971" lon="-7.6713714599609">
        <ele>469</ele>
        <time>2019-09-11T11:16:26+00:00</time>
      </trkpt>
      <trkpt lat="43.304298400879" lon="-7.6713814735413">
        <ele>469</ele>
        <time>2019-09-11T11:16:27+00:00</time>
      </trkpt>
      <trkpt lat="43.304294586182" lon="-7.6713914871216">
        <ele>469</ele>
        <time>2019-09-11T11:16:28+00:00</time>
      </trkpt>
      <trkpt lat="43.30428314209" lon="-7.6713967323303">
        <ele>469</ele>
        <time>2019-09-11T11:16:29+00:00</time>
      </trkpt>
      <trkpt lat="43.304279327393" lon="-7.6714034080505">
        <ele>469</ele>
        <time>2019-09-11T11:16:30+00:00</time>
      </trkpt>
      <trkpt lat="43.304271697998" lon="-7.6714134216309">
        <ele>469</ele>
        <time>2019-09-11T11:16:31+00:00</time>
      </trkpt>
      <trkpt lat="43.304264068604" lon="-7.6714315414429">
        <ele>470</ele>
        <time>2019-09-11T11:16:32+00:00</time>
      </trkpt>
      <trkpt lat="43.304256439209" lon="-7.6714434623718">
        <ele>470</ele>
        <time>2019-09-11T11:16:33+00:00</time>
      </trkpt>
      <trkpt lat="43.304244995117" lon="-7.6714549064636">
        <ele>470</ele>
        <time>2019-09-11T11:16:34+00:00</time>
      </trkpt>
      <trkpt lat="43.304237365723" lon="-7.6714634895325">
        <ele>471</ele>
        <time>2019-09-11T11:16:35+00:00</time>
      </trkpt>
      <trkpt lat="43.304233551025" lon="-7.6714768409729">
        <ele>471</ele>
        <time>2019-09-11T11:16:36+00:00</time>
      </trkpt>
      <trkpt lat="43.304222106934" lon="-7.6714849472046">
        <ele>471</ele>
        <time>2019-09-11T11:16:37+00:00</time>
      </trkpt>
      <trkpt lat="43.304214477539" lon="-7.6714949607849">
        <ele>471</ele>
        <time>2019-09-11T11:16:38+00:00</time>
      </trkpt>
      <trkpt lat="43.304195404053" lon="-7.6715068817139">
        <ele>471</ele>
        <time>2019-09-11T11:16:39+00:00</time>
      </trkpt>
      <trkpt lat="43.304180145264" lon="-7.6715168952942">
        <ele>471</ele>
        <time>2019-09-11T11:16:40+00:00</time>
      </trkpt>
      <trkpt lat="43.304172515869" lon="-7.6715264320374">
        <ele>471</ele>
        <time>2019-09-11T11:16:41+00:00</time>
      </trkpt>
      <trkpt lat="43.304164886475" lon="-7.6715364456177">
        <ele>471</ele>
        <time>2019-09-11T11:16:42+00:00</time>
      </trkpt>
      <trkpt lat="43.30415725708" lon="-7.6715431213379">
        <ele>471</ele>
        <time>2019-09-11T11:16:43+00:00</time>
      </trkpt>
      <trkpt lat="43.304149627686" lon="-7.6715483665466">
        <ele>471</ele>
        <time>2019-09-11T11:16:44+00:00</time>
      </trkpt>
      <trkpt lat="43.304145812988" lon="-7.671558380127">
        <ele>471</ele>
        <time>2019-09-11T11:16:45+00:00</time>
      </trkpt>
      <trkpt lat="43.304138183594" lon="-7.6715683937073">
        <ele>472</ele>
        <time>2019-09-11T11:16:46+00:00</time>
      </trkpt>
      <trkpt lat="43.304130554199" lon="-7.6715798377991">
        <ele>472</ele>
        <time>2019-09-11T11:16:47+00:00</time>
      </trkpt>
      <trkpt lat="43.304122924805" lon="-7.6715898513794">
        <ele>472</ele>
        <time>2019-09-11T11:16:48+00:00</time>
      </trkpt>
      <trkpt lat="43.304111480713" lon="-7.6715998649597">
        <ele>472</ele>
        <time>2019-09-11T11:16:49+00:00</time>
      </trkpt>
      <trkpt lat="43.304100036621" lon="-7.6716051101685">
        <ele>472</ele>
        <time>2019-09-11T11:16:50+00:00</time>
      </trkpt>
      <trkpt lat="43.304092407227" lon="-7.6716117858887">
        <ele>472</ele>
        <time>2019-09-11T11:16:51+00:00</time>
      </trkpt>
      <trkpt lat="43.304080963135" lon="-7.6716184616089">
        <ele>472</ele>
        <time>2019-09-11T11:16:52+00:00</time>
      </trkpt>
      <trkpt lat="43.30407333374" lon="-7.6716265678406">
        <ele>472</ele>
        <time>2019-09-11T11:16:53+00:00</time>
      </trkpt>
      <trkpt lat="43.304061889648" lon="-7.6716365814209">
        <ele>472</ele>
        <time>2019-09-11T11:16:54+00:00</time>
      </trkpt>
      <trkpt lat="43.304058074951" lon="-7.6716451644897">
        <ele>472</ele>
        <time>2019-09-11T11:16:55+00:00</time>
      </trkpt>
      <trkpt lat="43.304046630859" lon="-7.6716551780701">
        <ele>472</ele>
        <time>2019-09-11T11:16:56+00:00</time>
      </trkpt>
      <trkpt lat="43.304039001465" lon="-7.671669960022">
        <ele>472</ele>
        <time>2019-09-11T11:16:57+00:00</time>
      </trkpt>
      <trkpt lat="43.304027557373" lon="-7.671685218811">
        <ele>472</ele>
        <time>2019-09-11T11:16:58+00:00</time>
      </trkpt>
      <trkpt lat="43.304019927979" lon="-7.6716966629028">
        <ele>473</ele>
        <time>2019-09-11T11:16:59+00:00</time>
      </trkpt>
      <trkpt lat="43.304008483887" lon="-7.671703338623">
        <ele>473</ele>
        <time>2019-09-11T11:17:00+00:00</time>
      </trkpt>
      <trkpt lat="43.304004669189" lon="-7.6717133522034">
        <ele>473</ele>
        <time>2019-09-11T11:17:01+00:00</time>
      </trkpt>
      <trkpt lat="43.303993225098" lon="-7.6717247962952">
        <ele>473</ele>
        <time>2019-09-11T11:17:02+00:00</time>
      </trkpt>
      <trkpt lat="43.303985595703" lon="-7.6717367172241">
        <ele>473</ele>
        <time>2019-09-11T11:17:03+00:00</time>
      </trkpt>
      <trkpt lat="43.303981781006" lon="-7.6717481613159">
        <ele>473</ele>
        <time>2019-09-11T11:17:04+00:00</time>
      </trkpt>
      <trkpt lat="43.303977966309" lon="-7.6717567443848">
        <ele>473</ele>
        <time>2019-09-11T11:17:05+00:00</time>
      </trkpt>
      <trkpt lat="43.303970336914" lon="-7.6717648506165">
        <ele>473</ele>
        <time>2019-09-11T11:17:06+00:00</time>
      </trkpt>
      <trkpt lat="43.303958892822" lon="-7.6717767715454">
        <ele>473</ele>
        <time>2019-09-11T11:17:07+00:00</time>
      </trkpt>
      <trkpt lat="43.303955078125" lon="-7.6717901229858">
        <ele>473</ele>
        <time>2019-09-11T11:17:08+00:00</time>
      </trkpt>
      <trkpt lat="43.30394744873" lon="-7.6717967987061">
        <ele>473</ele>
        <time>2019-09-11T11:17:09+00:00</time>
      </trkpt>
      <trkpt lat="43.303936004639" lon="-7.6718015670776">
        <ele>473</ele>
        <time>2019-09-11T11:17:10+00:00</time>
      </trkpt>
      <trkpt lat="43.303928375244" lon="-7.6718068122864">
        <ele>473</ele>
        <time>2019-09-11T11:17:11+00:00</time>
      </trkpt>
      <trkpt lat="43.30392074585" lon="-7.6718168258667">
        <ele>473</ele>
        <time>2019-09-11T11:17:12+00:00</time>
      </trkpt>
      <trkpt lat="43.303905487061" lon="-7.6718182563782">
        <ele>472</ele>
        <time>2019-09-11T11:17:13+00:00</time>
      </trkpt>
      <trkpt lat="43.303897857666" lon="-7.671826839447">
        <ele>472</ele>
        <time>2019-09-11T11:17:14+00:00</time>
      </trkpt>
      <trkpt lat="43.303890228271" lon="-7.6718401908875">
        <ele>472</ele>
        <time>2019-09-11T11:17:15+00:00</time>
      </trkpt>
      <trkpt lat="43.30387878418" lon="-7.6718549728394">
        <ele>472</ele>
        <time>2019-09-11T11:17:16+00:00</time>
      </trkpt>
      <trkpt lat="43.303871154785" lon="-7.6718702316284">
        <ele>472</ele>
        <time>2019-09-11T11:17:17+00:00</time>
      </trkpt>
      <trkpt lat="43.303855895996" lon="-7.671875">
        <ele>472</ele>
        <time>2019-09-11T11:17:18+00:00</time>
      </trkpt>
      <trkpt lat="43.30383682251" lon="-7.6718735694885">
        <ele>472</ele>
        <time>2019-09-11T11:17:19+00:00</time>
      </trkpt>
      <trkpt lat="43.303821563721" lon="-7.6718764305115">
        <ele>472</ele>
        <time>2019-09-11T11:17:20+00:00</time>
      </trkpt>
      <trkpt lat="43.303810119629" lon="-7.6718831062317">
        <ele>472</ele>
        <time>2019-09-11T11:17:21+00:00</time>
      </trkpt>
      <trkpt lat="43.30379486084" lon="-7.6718864440918">
        <ele>473</ele>
        <time>2019-09-11T11:17:22+00:00</time>
      </trkpt>
      <trkpt lat="43.303783416748" lon="-7.671893119812">
        <ele>473</ele>
        <time>2019-09-11T11:17:23+00:00</time>
      </trkpt>
      <trkpt lat="43.303775787354" lon="-7.6719017028809">
        <ele>473</ele>
        <time>2019-09-11T11:17:24+00:00</time>
      </trkpt>
      <trkpt lat="43.303764343262" lon="-7.6719083786011">
        <ele>473</ele>
        <time>2019-09-11T11:17:25+00:00</time>
      </trkpt>
      <trkpt lat="43.30375289917" lon="-7.6719164848328">
        <ele>473</ele>
        <time>2019-09-11T11:17:26+00:00</time>
      </trkpt>
      <trkpt lat="43.303745269775" lon="-7.6719250679016">
        <ele>473</ele>
        <time>2019-09-11T11:17:27+00:00</time>
      </trkpt>
      <trkpt lat="43.303737640381" lon="-7.6719284057617">
        <ele>473</ele>
        <time>2019-09-11T11:17:28+00:00</time>
      </trkpt>
      <trkpt lat="43.303722381592" lon="-7.6719365119934">
        <ele>473</ele>
        <time>2019-09-11T11:17:29+00:00</time>
      </trkpt>
      <trkpt lat="43.303707122803" lon="-7.6719465255737">
        <ele>473</ele>
        <time>2019-09-11T11:17:30+00:00</time>
      </trkpt>
      <trkpt lat="43.303691864014" lon="-7.6719532012939">
        <ele>473</ele>
        <time>2019-09-11T11:17:31+00:00</time>
      </trkpt>
      <trkpt lat="43.303680419922" lon="-7.6719584465027">
        <ele>473</ele>
        <time>2019-09-11T11:17:32+00:00</time>
      </trkpt>
      <trkpt lat="43.30366897583" lon="-7.6719665527344">
        <ele>473</ele>
        <time>2019-09-11T11:17:33+00:00</time>
      </trkpt>
      <trkpt lat="43.303657531738" lon="-7.6719751358032">
        <ele>473</ele>
        <time>2019-09-11T11:17:34+00:00</time>
      </trkpt>
      <trkpt lat="43.303646087646" lon="-7.6719851493835">
        <ele>473</ele>
        <time>2019-09-11T11:17:35+00:00</time>
      </trkpt>
      <trkpt lat="43.303634643555" lon="-7.6719918251038">
        <ele>473</ele>
        <time>2019-09-11T11:17:36+00:00</time>
      </trkpt>
      <trkpt lat="43.303623199463" lon="-7.671998500824">
        <ele>473</ele>
        <time>2019-09-11T11:17:37+00:00</time>
      </trkpt>
      <trkpt lat="43.303611755371" lon="-7.6720018386841">
        <ele>473</ele>
        <time>2019-09-11T11:17:38+00:00</time>
      </trkpt>
      <trkpt lat="43.303596496582" lon="-7.6720066070557">
        <ele>473</ele>
        <time>2019-09-11T11:17:39+00:00</time>
      </trkpt>
      <trkpt lat="43.303588867188" lon="-7.6720118522644">
        <ele>473</ele>
        <time>2019-09-11T11:17:40+00:00</time>
      </trkpt>
      <trkpt lat="43.30358505249" lon="-7.672016620636">
        <ele>473</ele>
        <time>2019-09-11T11:17:41+00:00</time>
      </trkpt>
      <trkpt lat="43.303577423096" lon="-7.6720218658447">
        <ele>473</ele>
        <time>2019-09-11T11:17:42+00:00</time>
      </trkpt>
      <trkpt lat="43.303569793701" lon="-7.6720285415649">
        <ele>473</ele>
        <time>2019-09-11T11:17:43+00:00</time>
      </trkpt>
      <trkpt lat="43.303558349609" lon="-7.6720352172852">
        <ele>473</ele>
        <time>2019-09-11T11:17:44+00:00</time>
      </trkpt>
      <trkpt lat="43.303546905518" lon="-7.6720385551453">
        <ele>473</ele>
        <time>2019-09-11T11:17:45+00:00</time>
      </trkpt>
      <trkpt lat="43.303539276123" lon="-7.6720433235168">
        <ele>473</ele>
        <time>2019-09-11T11:17:46+00:00</time>
      </trkpt>
      <trkpt lat="43.303527832031" lon="-7.672046661377">
        <ele>473</ele>
        <time>2019-09-11T11:17:47+00:00</time>
      </trkpt>
      <trkpt lat="43.303520202637" lon="-7.6720514297485">
        <ele>473</ele>
        <time>2019-09-11T11:17:48+00:00</time>
      </trkpt>
      <trkpt lat="43.303508758545" lon="-7.6720533370972">
        <ele>473</ele>
        <time>2019-09-11T11:17:49+00:00</time>
      </trkpt>
      <trkpt lat="43.303497314453" lon="-7.6720581054688">
        <ele>473</ele>
        <time>2019-09-11T11:17:50+00:00</time>
      </trkpt>
      <trkpt lat="43.303482055664" lon="-7.6720633506775">
        <ele>473</ele>
        <time>2019-09-11T11:17:51+00:00</time>
      </trkpt>
      <trkpt lat="43.303470611572" lon="-7.6720700263977">
        <ele>473</ele>
        <time>2019-09-11T11:17:52+00:00</time>
      </trkpt>
      <trkpt lat="43.30345916748" lon="-7.6720781326294">
        <ele>473</ele>
        <time>2019-09-11T11:17:53+00:00</time>
      </trkpt>
      <trkpt lat="43.303451538086" lon="-7.6720867156982">
        <ele>474</ele>
        <time>2019-09-11T11:17:54+00:00</time>
      </trkpt>
      <trkpt lat="43.303440093994" lon="-7.6720948219299">
        <ele>474</ele>
        <time>2019-09-11T11:17:55+00:00</time>
      </trkpt>
      <trkpt lat="43.3034324646" lon="-7.6721048355103">
        <ele>474</ele>
        <time>2019-09-11T11:17:56+00:00</time>
      </trkpt>
      <trkpt lat="43.303421020508" lon="-7.6721134185791">
        <ele>474</ele>
        <time>2019-09-11T11:17:57+00:00</time>
      </trkpt>
      <trkpt lat="43.303413391113" lon="-7.6721248626709">
        <ele>474</ele>
        <time>2019-09-11T11:17:58+00:00</time>
      </trkpt>
      <trkpt lat="43.303405761719" lon="-7.6721334457397">
        <ele>474</ele>
        <time>2019-09-11T11:17:59+00:00</time>
      </trkpt>
      <trkpt lat="43.30339050293" lon="-7.6721382141113">
        <ele>474</ele>
        <time>2019-09-11T11:18:00+00:00</time>
      </trkpt>
      <trkpt lat="43.303382873535" lon="-7.6721415519714">
        <ele>474</ele>
        <time>2019-09-11T11:18:01+00:00</time>
      </trkpt>
      <trkpt lat="43.303371429443" lon="-7.6721448898315">
        <ele>474</ele>
        <time>2019-09-11T11:18:02+00:00</time>
      </trkpt>
      <trkpt lat="43.303367614746" lon="-7.6721482276917">
        <ele>474</ele>
        <time>2019-09-11T11:18:03+00:00</time>
      </trkpt>
      <trkpt lat="43.303359985352" lon="-7.6721549034119">
        <ele>474</ele>
        <time>2019-09-11T11:18:04+00:00</time>
      </trkpt>
      <trkpt lat="43.303356170654" lon="-7.6721634864807">
        <ele>474</ele>
        <time>2019-09-11T11:18:05+00:00</time>
      </trkpt>
      <trkpt lat="43.30334854126" lon="-7.6721715927124">
        <ele>474</ele>
        <time>2019-09-11T11:18:06+00:00</time>
      </trkpt>
      <trkpt lat="43.303340911865" lon="-7.6721816062927">
        <ele>474</ele>
        <time>2019-09-11T11:18:07+00:00</time>
      </trkpt>
      <trkpt lat="43.303329467773" lon="-7.6721949577332">
        <ele>474</ele>
        <time>2019-09-11T11:18:08+00:00</time>
      </trkpt>
      <trkpt lat="43.303318023682" lon="-7.6722068786621">
        <ele>474</ele>
        <time>2019-09-11T11:18:09+00:00</time>
      </trkpt>
      <trkpt lat="43.30330657959" lon="-7.6722183227539">
        <ele>474</ele>
        <time>2019-09-11T11:18:10+00:00</time>
      </trkpt>
      <trkpt lat="43.303295135498" lon="-7.6722297668457">
        <ele>474</ele>
        <time>2019-09-11T11:18:11+00:00</time>
      </trkpt>
      <trkpt lat="43.303283691406" lon="-7.672239780426">
        <ele>475</ele>
        <time>2019-09-11T11:18:12+00:00</time>
      </trkpt>
      <trkpt lat="43.303276062012" lon="-7.6722464561462">
        <ele>475</ele>
        <time>2019-09-11T11:18:13+00:00</time>
      </trkpt>
      <trkpt lat="43.303260803223" lon="-7.672251701355">
        <ele>475</ele>
        <time>2019-09-11T11:18:14+00:00</time>
      </trkpt>
      <trkpt lat="43.303253173828" lon="-7.6722598075867">
        <ele>475</ele>
        <time>2019-09-11T11:18:15+00:00</time>
      </trkpt>
      <trkpt lat="43.303241729736" lon="-7.672269821167">
        <ele>475</ele>
        <time>2019-09-11T11:18:16+00:00</time>
      </trkpt>
      <trkpt lat="43.303234100342" lon="-7.6722798347473">
        <ele>475</ele>
        <time>2019-09-11T11:18:17+00:00</time>
      </trkpt>
      <trkpt lat="43.30322265625" lon="-7.6722884178162">
        <ele>475</ele>
        <time>2019-09-11T11:18:18+00:00</time>
      </trkpt>
      <trkpt lat="43.303215026855" lon="-7.6722950935364">
        <ele>475</ele>
        <time>2019-09-11T11:18:19+00:00</time>
      </trkpt>
      <trkpt lat="43.303203582764" lon="-7.6723098754883">
        <ele>475</ele>
        <time>2019-09-11T11:18:20+00:00</time>
      </trkpt>
      <trkpt lat="43.303199768066" lon="-7.6723232269287">
        <ele>475</ele>
        <time>2019-09-11T11:18:21+00:00</time>
      </trkpt>
      <trkpt lat="43.303188323975" lon="-7.672333240509">
        <ele>475</ele>
        <time>2019-09-11T11:18:22+00:00</time>
      </trkpt>
      <trkpt lat="43.303184509277" lon="-7.6723432540894">
        <ele>475</ele>
        <time>2019-09-11T11:18:23+00:00</time>
      </trkpt>
      <trkpt lat="43.303176879883" lon="-7.6723551750183">
        <ele>475</ele>
        <time>2019-09-11T11:18:24+00:00</time>
      </trkpt>
      <trkpt lat="43.303165435791" lon="-7.6723651885986">
        <ele>475</ele>
        <time>2019-09-11T11:18:25+00:00</time>
      </trkpt>
      <trkpt lat="43.303157806396" lon="-7.6723732948303">
        <ele>476</ele>
        <time>2019-09-11T11:18:26+00:00</time>
      </trkpt>
      <trkpt lat="43.303142547607" lon="-7.6723833084106">
        <ele>476</ele>
        <time>2019-09-11T11:18:27+00:00</time>
      </trkpt>
      <trkpt lat="43.303131103516" lon="-7.6723899841309">
        <ele>476</ele>
        <time>2019-09-11T11:18:28+00:00</time>
      </trkpt>
      <trkpt lat="43.303123474121" lon="-7.6723985671997">
        <ele>476</ele>
        <time>2019-09-11T11:18:29+00:00</time>
      </trkpt>
      <trkpt lat="43.303112030029" lon="-7.6724081039429">
        <ele>476</ele>
        <time>2019-09-11T11:18:30+00:00</time>
      </trkpt>
      <trkpt lat="43.303100585938" lon="-7.6724133491516">
        <ele>476</ele>
        <time>2019-09-11T11:18:31+00:00</time>
      </trkpt>
      <trkpt lat="43.303092956543" lon="-7.6724247932434">
        <ele>476</ele>
        <time>2019-09-11T11:18:32+00:00</time>
      </trkpt>
      <trkpt lat="43.303085327148" lon="-7.6724314689636">
        <ele>476</ele>
        <time>2019-09-11T11:18:33+00:00</time>
      </trkpt>
      <trkpt lat="43.303081512451" lon="-7.6724400520325">
        <ele>476</ele>
        <time>2019-09-11T11:18:34+00:00</time>
      </trkpt>
      <trkpt lat="43.303073883057" lon="-7.6724534034729">
        <ele>476</ele>
        <time>2019-09-11T11:18:35+00:00</time>
      </trkpt>
      <trkpt lat="43.303066253662" lon="-7.6724615097046">
        <ele>476</ele>
        <time>2019-09-11T11:18:36+00:00</time>
      </trkpt>
      <trkpt lat="43.303058624268" lon="-7.6724700927734">
        <ele>476</ele>
        <time>2019-09-11T11:18:37+00:00</time>
      </trkpt>
      <trkpt lat="43.303050994873" lon="-7.6724767684937">
        <ele>476</ele>
        <time>2019-09-11T11:18:38+00:00</time>
      </trkpt>
      <trkpt lat="43.303039550781" lon="-7.672486782074">
        <ele>476</ele>
        <time>2019-09-11T11:18:39+00:00</time>
      </trkpt>
      <trkpt lat="43.303031921387" lon="-7.6725001335144">
        <ele>476</ele>
        <time>2019-09-11T11:18:40+00:00</time>
      </trkpt>
      <trkpt lat="43.303020477295" lon="-7.6725115776062">
        <ele>476</ele>
        <time>2019-09-11T11:18:41+00:00</time>
      </trkpt>
      <trkpt lat="43.3030128479" lon="-7.6725234985352">
        <ele>476</ele>
        <time>2019-09-11T11:18:42+00:00</time>
      </trkpt>
      <trkpt lat="43.302993774414" lon="-7.672534942627">
        <ele>476</ele>
        <time>2019-09-11T11:18:43+00:00</time>
      </trkpt>
      <trkpt lat="43.302982330322" lon="-7.6725449562073">
        <ele>476</ele>
        <time>2019-09-11T11:18:44+00:00</time>
      </trkpt>
      <trkpt lat="43.302974700928" lon="-7.6725568771362">
        <ele>476</ele>
        <time>2019-09-11T11:18:45+00:00</time>
      </trkpt>
      <trkpt lat="43.302967071533" lon="-7.672568321228">
        <ele>476</ele>
        <time>2019-09-11T11:18:46+00:00</time>
      </trkpt>
      <trkpt lat="43.302959442139" lon="-7.6725783348083">
        <ele>476</ele>
        <time>2019-09-11T11:18:47+00:00</time>
      </trkpt>
      <trkpt lat="43.302947998047" lon="-7.6725850105286">
        <ele>476</ele>
        <time>2019-09-11T11:18:48+00:00</time>
      </trkpt>
      <trkpt lat="43.302936553955" lon="-7.6725931167603">
        <ele>476</ele>
        <time>2019-09-11T11:18:49+00:00</time>
      </trkpt>
      <trkpt lat="43.302925109863" lon="-7.6726031303406">
        <ele>476</ele>
        <time>2019-09-11T11:18:50+00:00</time>
      </trkpt>
      <trkpt lat="43.302917480469" lon="-7.6726131439209">
        <ele>477</ele>
        <time>2019-09-11T11:18:51+00:00</time>
      </trkpt>
      <trkpt lat="43.302909851074" lon="-7.6726183891296">
        <ele>477</ele>
        <time>2019-09-11T11:18:52+00:00</time>
      </trkpt>
      <trkpt lat="43.302898406982" lon="-7.6726264953613">
        <ele>477</ele>
        <time>2019-09-11T11:18:53+00:00</time>
      </trkpt>
      <trkpt lat="43.302886962891" lon="-7.6726365089417">
        <ele>477</ele>
        <time>2019-09-11T11:18:54+00:00</time>
      </trkpt>
      <trkpt lat="43.302875518799" lon="-7.672646522522">
        <ele>477</ele>
        <time>2019-09-11T11:18:55+00:00</time>
      </trkpt>
      <trkpt lat="43.30286026001" lon="-7.6726531982422">
        <ele>477</ele>
        <time>2019-09-11T11:18:56+00:00</time>
      </trkpt>
      <trkpt lat="43.302852630615" lon="-7.6726551055908">
        <ele>477</ele>
        <time>2019-09-11T11:18:57+00:00</time>
      </trkpt>
      <trkpt lat="43.302845001221" lon="-7.6726517677307">
        <ele>477</ele>
        <time>2019-09-11T11:18:58+00:00</time>
      </trkpt>
      <trkpt lat="43.302837371826" lon="-7.6726517677307">
        <ele>478</ele>
        <time>2019-09-11T11:18:59+00:00</time>
      </trkpt>
      <trkpt lat="43.302829742432" lon="-7.6726498603821">
        <ele>478</ele>
        <time>2019-09-11T11:19:00+00:00</time>
      </trkpt>
      <trkpt lat="43.30281829834" lon="-7.6726517677307">
        <ele>478</ele>
        <time>2019-09-11T11:19:01+00:00</time>
      </trkpt>
      <trkpt lat="43.302806854248" lon="-7.672646522522">
        <ele>478</ele>
        <time>2019-09-11T11:19:02+00:00</time>
      </trkpt>
      <trkpt lat="43.302795410156" lon="-7.6726551055908">
        <ele>478</ele>
        <time>2019-09-11T11:19:03+00:00</time>
      </trkpt>
      <trkpt lat="43.302787780762" lon="-7.6726651191711">
        <ele>479</ele>
        <time>2019-09-11T11:19:04+00:00</time>
      </trkpt>
      <trkpt lat="43.30277633667" lon="-7.6726751327515">
        <ele>479</ele>
        <time>2019-09-11T11:19:05+00:00</time>
      </trkpt>
      <trkpt lat="43.302768707275" lon="-7.6726784706116">
        <ele>479</ele>
        <time>2019-09-11T11:19:06+00:00</time>
      </trkpt>
      <trkpt lat="43.302753448486" lon="-7.6727018356323">
        <ele>479</ele>
        <time>2019-09-11T11:19:07+00:00</time>
      </trkpt>
      <trkpt lat="43.302742004395" lon="-7.6727151870728">
        <ele>479</ele>
        <time>2019-09-11T11:19:08+00:00</time>
      </trkpt>
      <trkpt lat="43.302726745605" lon="-7.6727385520935">
        <ele>479</ele>
        <time>2019-09-11T11:19:09+00:00</time>
      </trkpt>
      <trkpt lat="43.302715301514" lon="-7.6727533340454">
        <ele>479</ele>
        <time>2019-09-11T11:19:10+00:00</time>
      </trkpt>
      <trkpt lat="43.302703857422" lon="-7.6727700233459">
        <ele>479</ele>
        <time>2019-09-11T11:19:11+00:00</time>
      </trkpt>
      <trkpt lat="43.302696228027" lon="-7.672788143158">
        <ele>479</ele>
        <time>2019-09-11T11:19:12+00:00</time>
      </trkpt>
      <trkpt lat="43.302688598633" lon="-7.6727981567383">
        <ele>479</ele>
        <time>2019-09-11T11:19:13+00:00</time>
      </trkpt>
      <trkpt lat="43.302684783936" lon="-7.6728115081787">
        <ele>480</ele>
        <time>2019-09-11T11:19:14+00:00</time>
      </trkpt>
      <trkpt lat="43.302673339844" lon="-7.6728234291077">
        <ele>480</ele>
        <time>2019-09-11T11:19:15+00:00</time>
      </trkpt>
      <trkpt lat="43.302661895752" lon="-7.6728348731995">
        <ele>480</ele>
        <time>2019-09-11T11:19:16+00:00</time>
      </trkpt>
      <trkpt lat="43.30265045166" lon="-7.6728482246399">
        <ele>481</ele>
        <time>2019-09-11T11:19:17+00:00</time>
      </trkpt>
      <trkpt lat="43.302635192871" lon="-7.6728601455688">
        <ele>481</ele>
        <time>2019-09-11T11:19:18+00:00</time>
      </trkpt>
      <trkpt lat="43.302623748779" lon="-7.6728715896606">
        <ele>481</ele>
        <time>2019-09-11T11:19:19+00:00</time>
      </trkpt>
      <trkpt lat="43.302612304688" lon="-7.6728849411011">
        <ele>482</ele>
        <time>2019-09-11T11:19:20+00:00</time>
      </trkpt>
      <trkpt lat="43.30260848999" lon="-7.6728982925415">
        <ele>482</ele>
        <time>2019-09-11T11:19:21+00:00</time>
      </trkpt>
      <trkpt lat="43.302604675293" lon="-7.6729049682617">
        <ele>482</ele>
        <time>2019-09-11T11:19:22+00:00</time>
      </trkpt>
      <trkpt lat="43.302597045898" lon="-7.6729168891907">
        <ele>482</ele>
        <time>2019-09-11T11:19:23+00:00</time>
      </trkpt>
      <trkpt lat="43.302593231201" lon="-7.672926902771">
        <ele>482</ele>
        <time>2019-09-11T11:19:24+00:00</time>
      </trkpt>
      <trkpt lat="43.302585601807" lon="-7.6729350090027">
        <ele>482</ele>
        <time>2019-09-11T11:19:25+00:00</time>
      </trkpt>
      <trkpt lat="43.302577972412" lon="-7.672945022583">
        <ele>483</ele>
        <time>2019-09-11T11:19:26+00:00</time>
      </trkpt>
      <trkpt lat="43.30256652832" lon="-7.6729550361633">
        <ele>483</ele>
        <time>2019-09-11T11:19:27+00:00</time>
      </trkpt>
      <trkpt lat="43.302558898926" lon="-7.672963142395">
        <ele>483</ele>
        <time>2019-09-11T11:19:28+00:00</time>
      </trkpt>
      <trkpt lat="43.302555084229" lon="-7.6729717254639">
        <ele>483</ele>
        <time>2019-09-11T11:19:29+00:00</time>
      </trkpt>
      <trkpt lat="43.302543640137" lon="-7.6729817390442">
        <ele>483</ele>
        <time>2019-09-11T11:19:30+00:00</time>
      </trkpt>
      <trkpt lat="43.302539825439" lon="-7.6729884147644">
        <ele>483</ele>
        <time>2019-09-11T11:19:31+00:00</time>
      </trkpt>
      <trkpt lat="43.302532196045" lon="-7.6729984283447">
        <ele>483</ele>
        <time>2019-09-11T11:19:32+00:00</time>
      </trkpt>
      <trkpt lat="43.30252456665" lon="-7.6730098724365">
        <ele>483</ele>
        <time>2019-09-11T11:19:33+00:00</time>
      </trkpt>
      <trkpt lat="43.302513122559" lon="-7.6730198860168">
        <ele>483</ele>
        <time>2019-09-11T11:19:34+00:00</time>
      </trkpt>
      <trkpt lat="43.302509307861" lon="-7.6730284690857">
        <ele>483</ele>
        <time>2019-09-11T11:19:35+00:00</time>
      </trkpt>
      <trkpt lat="43.302501678467" lon="-7.6730365753174">
        <ele>483</ele>
        <time>2019-09-11T11:19:36+00:00</time>
      </trkpt>
      <trkpt lat="43.30249786377" lon="-7.6730451583862">
        <ele>483</ele>
        <time>2019-09-11T11:19:37+00:00</time>
      </trkpt>
      <trkpt lat="43.302490234375" lon="-7.6730585098267">
        <ele>484</ele>
        <time>2019-09-11T11:19:38+00:00</time>
      </trkpt>
      <trkpt lat="43.302486419678" lon="-7.673068523407">
        <ele>484</ele>
        <time>2019-09-11T11:19:39+00:00</time>
      </trkpt>
      <trkpt lat="43.302474975586" lon="-7.6730818748474">
        <ele>484</ele>
        <time>2019-09-11T11:19:40+00:00</time>
      </trkpt>
      <trkpt lat="43.302467346191" lon="-7.6730933189392">
        <ele>484</ele>
        <time>2019-09-11T11:19:41+00:00</time>
      </trkpt>
      <trkpt lat="43.302459716797" lon="-7.6731033325195">
        <ele>485</ele>
        <time>2019-09-11T11:19:42+00:00</time>
      </trkpt>
      <trkpt lat="43.302452087402" lon="-7.6731100082397">
        <ele>485</ele>
        <time>2019-09-11T11:19:43+00:00</time>
      </trkpt>
      <trkpt lat="43.302444458008" lon="-7.6731181144714">
        <ele>485</ele>
        <time>2019-09-11T11:19:44+00:00</time>
      </trkpt>
      <trkpt lat="43.302436828613" lon="-7.6731214523315">
        <ele>485</ele>
        <time>2019-09-11T11:19:45+00:00</time>
      </trkpt>
      <trkpt lat="43.302433013916" lon="-7.6731247901917">
        <ele>485</ele>
        <time>2019-09-11T11:19:46+00:00</time>
      </trkpt>
      <trkpt lat="43.302425384521" lon="-7.673134803772">
        <ele>485</ele>
        <time>2019-09-11T11:19:47+00:00</time>
      </trkpt>
      <trkpt lat="43.302421569824" lon="-7.6731414794922">
        <ele>485</ele>
        <time>2019-09-11T11:19:48+00:00</time>
      </trkpt>
      <trkpt lat="43.30241394043" lon="-7.673150062561">
        <ele>485</ele>
        <time>2019-09-11T11:19:49+00:00</time>
      </trkpt>
      <trkpt lat="43.302406311035" lon="-7.6731581687927">
        <ele>485</ele>
        <time>2019-09-11T11:19:50+00:00</time>
      </trkpt>
      <trkpt lat="43.302398681641" lon="-7.6731634140015">
        <ele>485</ele>
        <time>2019-09-11T11:19:51+00:00</time>
      </trkpt>
      <trkpt lat="43.302391052246" lon="-7.6731700897217">
        <ele>485</ele>
        <time>2019-09-11T11:19:52+00:00</time>
      </trkpt>
      <trkpt lat="43.302383422852" lon="-7.6731767654419">
        <ele>485</ele>
        <time>2019-09-11T11:19:53+00:00</time>
      </trkpt>
      <trkpt lat="43.302379608154" lon="-7.6731867790222">
        <ele>485</ele>
        <time>2019-09-11T11:19:54+00:00</time>
      </trkpt>
      <trkpt lat="43.30237197876" lon="-7.6731967926025">
        <ele>485</ele>
        <time>2019-09-11T11:19:55+00:00</time>
      </trkpt>
      <trkpt lat="43.302368164062" lon="-7.6732034683228">
        <ele>485</ele>
        <time>2019-09-11T11:19:56+00:00</time>
      </trkpt>
      <trkpt lat="43.302368164062" lon="-7.673210144043">
        <ele>485</ele>
        <time>2019-09-11T11:19:57+00:00</time>
      </trkpt>
      <trkpt lat="43.302360534668" lon="-7.6732182502747">
        <ele>485</ele>
        <time>2019-09-11T11:19:58+00:00</time>
      </trkpt>
      <trkpt lat="43.302356719971" lon="-7.673228263855">
        <ele>485</ele>
        <time>2019-09-11T11:19:59+00:00</time>
      </trkpt>
      <trkpt lat="43.302349090576" lon="-7.6732349395752">
        <ele>485</ele>
        <time>2019-09-11T11:20:00+00:00</time>
      </trkpt>
      <trkpt lat="43.30233001709" lon="-7.6732449531555">
        <ele>485</ele>
        <time>2019-09-11T11:20:01+00:00</time>
      </trkpt>
      <trkpt lat="43.302326202393" lon="-7.6732468605042">
        <ele>485</ele>
        <time>2019-09-11T11:20:02+00:00</time>
      </trkpt>
      <trkpt lat="43.302322387695" lon="-7.6732501983643">
        <ele>485</ele>
        <time>2019-09-11T11:20:03+00:00</time>
      </trkpt>
      <trkpt lat="43.302310943604" lon="-7.6732468605042">
        <ele>485</ele>
        <time>2019-09-11T11:20:04+00:00</time>
      </trkpt>
      <trkpt lat="43.302291870117" lon="-7.6732616424561">
        <ele>486</ele>
        <time>2019-09-11T11:20:05+00:00</time>
      </trkpt>
      <trkpt lat="43.302272796631" lon="-7.6732749938965">
        <ele>486</ele>
        <time>2019-09-11T11:20:06+00:00</time>
      </trkpt>
      <trkpt lat="43.302276611328" lon="-7.6732897758484">
        <ele>486</ele>
        <time>2019-09-11T11:20:07+00:00</time>
      </trkpt>
      <trkpt lat="43.302276611328" lon="-7.6733016967773">
        <ele>486</ele>
        <time>2019-09-11T11:20:08+00:00</time>
      </trkpt>
      <trkpt lat="43.302265167236" lon="-7.6733117103577">
        <ele>486</ele>
        <time>2019-09-11T11:20:09+00:00</time>
      </trkpt>
      <trkpt lat="43.302253723145" lon="-7.6733283996582">
        <ele>486</ele>
        <time>2019-09-11T11:20:10+00:00</time>
      </trkpt>
      <trkpt lat="43.302249908447" lon="-7.6733384132385">
        <ele>486</ele>
        <time>2019-09-11T11:20:11+00:00</time>
      </trkpt>
      <trkpt lat="43.302242279053" lon="-7.6733450889587">
        <ele>487</ele>
        <time>2019-09-11T11:20:12+00:00</time>
      </trkpt>
      <trkpt lat="43.302238464355" lon="-7.6733584403992">
        <ele>487</ele>
        <time>2019-09-11T11:20:13+00:00</time>
      </trkpt>
      <trkpt lat="43.302223205566" lon="-7.6733684539795">
        <ele>487</ele>
        <time>2019-09-11T11:20:14+00:00</time>
      </trkpt>
      <trkpt lat="43.302215576172" lon="-7.6733765602112">
        <ele>487</ele>
        <time>2019-09-11T11:20:15+00:00</time>
      </trkpt>
      <trkpt lat="43.302211761475" lon="-7.6733884811401">
        <ele>487</ele>
        <time>2019-09-11T11:20:16+00:00</time>
      </trkpt>
      <trkpt lat="43.30220413208" lon="-7.6733965873718">
        <ele>487</ele>
        <time>2019-09-11T11:20:17+00:00</time>
      </trkpt>
      <trkpt lat="43.302211761475" lon="-7.6734018325806">
        <ele>487</ele>
        <time>2019-09-11T11:20:18+00:00</time>
      </trkpt>
      <trkpt lat="43.30220413208" lon="-7.6734099388123">
        <ele>488</ele>
        <time>2019-09-11T11:20:19+00:00</time>
      </trkpt>
      <trkpt lat="43.302196502686" lon="-7.6734266281128">
        <ele>488</ele>
        <time>2019-09-11T11:20:20+00:00</time>
      </trkpt>
      <trkpt lat="43.302185058594" lon="-7.673433303833">
        <ele>488</ele>
        <time>2019-09-11T11:20:21+00:00</time>
      </trkpt>
      <trkpt lat="43.302173614502" lon="-7.6734519004822">
        <ele>488</ele>
        <time>2019-09-11T11:20:22+00:00</time>
      </trkpt>
      <trkpt lat="43.302165985107" lon="-7.6734766960144">
        <ele>488</ele>
        <time>2019-09-11T11:20:23+00:00</time>
      </trkpt>
      <trkpt lat="43.302154541016" lon="-7.6734833717346">
        <ele>488</ele>
        <time>2019-09-11T11:20:24+00:00</time>
      </trkpt>
      <trkpt lat="43.302143096924" lon="-7.6734914779663">
        <ele>488</ele>
        <time>2019-09-11T11:20:25+00:00</time>
      </trkpt>
      <trkpt lat="43.302131652832" lon="-7.6735000610352">
        <ele>488</ele>
        <time>2019-09-11T11:20:26+00:00</time>
      </trkpt>
      <trkpt lat="43.30212020874" lon="-7.6735081672668">
        <ele>488</ele>
        <time>2019-09-11T11:20:27+00:00</time>
      </trkpt>
      <trkpt lat="43.302104949951" lon="-7.6735148429871">
        <ele>488</ele>
        <time>2019-09-11T11:20:28+00:00</time>
      </trkpt>
      <trkpt lat="43.302093505859" lon="-7.6735200881958">
        <ele>488</ele>
        <time>2019-09-11T11:20:29+00:00</time>
      </trkpt>
      <trkpt lat="43.302082061768" lon="-7.6735248565674">
        <ele>488</ele>
        <time>2019-09-11T11:20:30+00:00</time>
      </trkpt>
      <trkpt lat="43.30207824707" lon="-7.6735382080078">
        <ele>489</ele>
        <time>2019-09-11T11:20:31+00:00</time>
      </trkpt>
      <trkpt lat="43.302070617676" lon="-7.6735515594482">
        <ele>489</ele>
        <time>2019-09-11T11:20:32+00:00</time>
      </trkpt>
      <trkpt lat="43.302062988281" lon="-7.6735668182373">
        <ele>489</ele>
        <time>2019-09-11T11:20:33+00:00</time>
      </trkpt>
      <trkpt lat="43.302047729492" lon="-7.6735835075378">
        <ele>489</ele>
        <time>2019-09-11T11:20:34+00:00</time>
      </trkpt>
      <trkpt lat="43.302032470703" lon="-7.6736016273499">
        <ele>489</ele>
        <time>2019-09-11T11:20:35+00:00</time>
      </trkpt>
      <trkpt lat="43.302021026611" lon="-7.6736249923706">
        <ele>489</ele>
        <time>2019-09-11T11:20:36+00:00</time>
      </trkpt>
      <trkpt lat="43.302013397217" lon="-7.6736550331116">
        <ele>489</ele>
        <time>2019-09-11T11:20:37+00:00</time>
      </trkpt>
      <trkpt lat="43.30200958252" lon="-7.6736764907837">
        <ele>489</ele>
        <time>2019-09-11T11:20:38+00:00</time>
      </trkpt>
      <trkpt lat="43.301998138428" lon="-7.6736917495728">
        <ele>489</ele>
        <time>2019-09-11T11:20:39+00:00</time>
      </trkpt>
      <trkpt lat="43.301998138428" lon="-7.6737051010132">
        <ele>489</ele>
        <time>2019-09-11T11:20:40+00:00</time>
      </trkpt>
      <trkpt lat="43.30199432373" lon="-7.6737132072449">
        <ele>489</ele>
        <time>2019-09-11T11:20:41+00:00</time>
      </trkpt>
      <trkpt lat="43.301986694336" lon="-7.673716545105">
        <ele>489</ele>
        <time>2019-09-11T11:20:42+00:00</time>
      </trkpt>
      <trkpt lat="43.301982879639" lon="-7.6737217903137">
        <ele>489</ele>
        <time>2019-09-11T11:20:43+00:00</time>
      </trkpt>
      <trkpt lat="43.301979064941" lon="-7.6737365722656">
        <ele>489</ele>
        <time>2019-09-11T11:20:44+00:00</time>
      </trkpt>
      <trkpt lat="43.301979064941" lon="-7.6737499237061">
        <ele>489</ele>
        <time>2019-09-11T11:20:45+00:00</time>
      </trkpt>
      <trkpt lat="43.301937103271" lon="-7.6737852096558">
        <ele>490</ele>
        <time>2019-09-11T11:20:46+00:00</time>
      </trkpt>
      <trkpt lat="43.301910400391" lon="-7.6738147735596">
        <ele>490</ele>
        <time>2019-09-11T11:20:47+00:00</time>
      </trkpt>
      <trkpt lat="43.301906585693" lon="-7.6738381385803">
        <ele>490</ele>
        <time>2019-09-11T11:20:48+00:00</time>
      </trkpt>
      <trkpt lat="43.301879882812" lon="-7.6738467216492">
        <ele>490</ele>
        <time>2019-09-11T11:20:49+00:00</time>
      </trkpt>
      <trkpt lat="43.301872253418" lon="-7.6738681793213">
        <ele>490</ele>
        <time>2019-09-11T11:20:50+00:00</time>
      </trkpt>
      <trkpt lat="43.301856994629" lon="-7.6738834381104">
        <ele>490</ele>
        <time>2019-09-11T11:20:51+00:00</time>
      </trkpt>
      <trkpt lat="43.301845550537" lon="-7.6738967895508">
        <ele>490</ele>
        <time>2019-09-11T11:20:52+00:00</time>
      </trkpt>
      <trkpt lat="43.30184173584" lon="-7.673903465271">
        <ele>490</ele>
        <time>2019-09-11T11:20:53+00:00</time>
      </trkpt>
      <trkpt lat="43.301837921143" lon="-7.6739082336426">
        <ele>490</ele>
        <time>2019-09-11T11:20:54+00:00</time>
      </trkpt>
      <trkpt lat="43.301830291748" lon="-7.6739101409912">
        <ele>490</ele>
        <time>2019-09-11T11:20:55+00:00</time>
      </trkpt>
      <trkpt lat="43.301830291748" lon="-7.6739249229431">
        <ele>490</ele>
        <time>2019-09-11T11:20:56+00:00</time>
      </trkpt>
      <trkpt lat="43.301822662354" lon="-7.6739482879639">
        <ele>491</ele>
        <time>2019-09-11T11:20:57+00:00</time>
      </trkpt>
      <trkpt lat="43.301811218262" lon="-7.6739549636841">
        <ele>491</ele>
        <time>2019-09-11T11:20:58+00:00</time>
      </trkpt>
      <trkpt lat="43.301807403564" lon="-7.6739702224731">
        <ele>492</ele>
        <time>2019-09-11T11:20:59+00:00</time>
      </trkpt>
      <trkpt lat="43.30179977417" lon="-7.6739768981934">
        <ele>492</ele>
        <time>2019-09-11T11:21:00+00:00</time>
      </trkpt>
      <trkpt lat="43.30179977417" lon="-7.6739802360535">
        <ele>492</ele>
        <time>2019-09-11T11:21:01+00:00</time>
      </trkpt>
      <trkpt lat="43.30179977417" lon="-7.6739830970764">
        <ele>492</ele>
        <time>2019-09-11T11:21:02+00:00</time>
      </trkpt>
      <trkpt lat="43.301795959473" lon="-7.6739931106567">
        <ele>492</ele>
        <time>2019-09-11T11:21:03+00:00</time>
      </trkpt>
      <trkpt lat="43.301795959473" lon="-7.6740064620972">
        <ele>492</ele>
        <time>2019-09-11T11:21:04+00:00</time>
      </trkpt>
      <trkpt lat="43.301792144775" lon="-7.674015045166">
        <ele>492</ele>
        <time>2019-09-11T11:21:05+00:00</time>
      </trkpt>
      <trkpt lat="43.301818847656" lon="-7.6740550994873">
        <ele>492</ele>
        <time>2019-09-11T11:21:06+00:00</time>
      </trkpt>
      <trkpt lat="43.301811218262" lon="-7.6740765571594">
        <ele>493</ele>
        <time>2019-09-11T11:21:07+00:00</time>
      </trkpt>
      <trkpt lat="43.301803588867" lon="-7.6740884780884">
        <ele>493</ele>
        <time>2019-09-11T11:21:08+00:00</time>
      </trkpt>
      <trkpt lat="43.301769256592" lon="-7.67409324646">
        <ele>493</ele>
        <time>2019-09-11T11:21:09+00:00</time>
      </trkpt>
      <trkpt lat="43.301746368408" lon="-7.6740951538086">
        <ele>492</ele>
        <time>2019-09-11T11:21:10+00:00</time>
      </trkpt>
      <trkpt lat="43.301731109619" lon="-7.6740884780884">
        <ele>492</ele>
        <time>2019-09-11T11:21:11+00:00</time>
      </trkpt>
      <trkpt lat="43.301723480225" lon="-7.6740951538086">
        <ele>492</ele>
        <time>2019-09-11T11:21:12+00:00</time>
      </trkpt>
      <trkpt lat="43.301712036133" lon="-7.674108505249">
        <ele>492</ele>
        <time>2019-09-11T11:21:13+00:00</time>
      </trkpt>
      <trkpt lat="43.301708221436" lon="-7.6741218566895">
        <ele>492</ele>
        <time>2019-09-11T11:21:14+00:00</time>
      </trkpt>
      <trkpt lat="43.301696777344" lon="-7.6741285324097">
        <ele>492</ele>
        <time>2019-09-11T11:21:15+00:00</time>
      </trkpt>
      <trkpt lat="43.301692962646" lon="-7.6741399765015">
        <ele>492</ele>
        <time>2019-09-11T11:21:16+00:00</time>
      </trkpt>
      <trkpt lat="43.301689147949" lon="-7.6741552352905">
        <ele>492</ele>
        <time>2019-09-11T11:21:17+00:00</time>
      </trkpt>
      <trkpt lat="43.301685333252" lon="-7.6741518974304">
        <ele>492</ele>
        <time>2019-09-11T11:21:18+00:00</time>
      </trkpt>
      <trkpt lat="43.301681518555" lon="-7.6741614341736">
        <ele>492</ele>
        <time>2019-09-11T11:21:19+00:00</time>
      </trkpt>
      <trkpt lat="43.30167388916" lon="-7.6741681098938">
        <ele>492</ele>
        <time>2019-09-11T11:21:20+00:00</time>
      </trkpt>
      <trkpt lat="43.301670074463" lon="-7.6741733551025">
        <ele>492</ele>
        <time>2019-09-11T11:21:21+00:00</time>
      </trkpt>
      <trkpt lat="43.301662445068" lon="-7.6741800308228">
        <ele>492</ele>
        <time>2019-09-11T11:21:22+00:00</time>
      </trkpt>
      <trkpt lat="43.301654815674" lon="-7.674186706543">
        <ele>491</ele>
        <time>2019-09-11T11:21:23+00:00</time>
      </trkpt>
      <trkpt lat="43.301643371582" lon="-7.6741914749146">
        <ele>491</ele>
        <time>2019-09-11T11:21:24+00:00</time>
      </trkpt>
      <trkpt lat="43.301628112793" lon="-7.6742014884949">
        <ele>491</ele>
        <time>2019-09-11T11:21:25+00:00</time>
      </trkpt>
      <trkpt lat="43.301616668701" lon="-7.674204826355">
        <ele>491</ele>
        <time>2019-09-11T11:21:26+00:00</time>
      </trkpt>
      <trkpt lat="43.301609039307" lon="-7.6742134094238">
        <ele>491</ele>
        <time>2019-09-11T11:21:27+00:00</time>
      </trkpt>
      <trkpt lat="43.301597595215" lon="-7.6742181777954">
        <ele>490</ele>
        <time>2019-09-11T11:21:28+00:00</time>
      </trkpt>
      <trkpt lat="43.30158996582" lon="-7.6742248535156">
        <ele>490</ele>
        <time>2019-09-11T11:21:29+00:00</time>
      </trkpt>
      <trkpt lat="43.301582336426" lon="-7.6742348670959">
        <ele>490</ele>
        <time>2019-09-11T11:21:30+00:00</time>
      </trkpt>
      <trkpt lat="43.301570892334" lon="-7.6742367744446">
        <ele>490</ele>
        <time>2019-09-11T11:21:31+00:00</time>
      </trkpt>
      <trkpt lat="43.301567077637" lon="-7.6742401123047">
        <ele>489</ele>
        <time>2019-09-11T11:21:32+00:00</time>
      </trkpt>
      <trkpt lat="43.301563262939" lon="-7.6742515563965">
        <ele>489</ele>
        <time>2019-09-11T11:21:33+00:00</time>
      </trkpt>
      <trkpt lat="43.301567077637" lon="-7.6742634773254">
        <ele>489</ele>
        <time>2019-09-11T11:21:34+00:00</time>
      </trkpt>
      <trkpt lat="43.301570892334" lon="-7.6742749214172">
        <ele>489</ele>
        <time>2019-09-11T11:21:35+00:00</time>
      </trkpt>
      <trkpt lat="43.301578521729" lon="-7.6742882728577">
        <ele>489</ele>
        <time>2019-09-11T11:21:36+00:00</time>
      </trkpt>
      <trkpt lat="43.301586151123" lon="-7.6743049621582">
        <ele>488</ele>
        <time>2019-09-11T11:21:37+00:00</time>
      </trkpt>
      <trkpt lat="43.301593780518" lon="-7.6743183135986">
        <ele>488</ele>
        <time>2019-09-11T11:21:38+00:00</time>
      </trkpt>
      <trkpt lat="43.301593780518" lon="-7.6743316650391">
        <ele>487</ele>
        <time>2019-09-11T11:21:39+00:00</time>
      </trkpt>
      <trkpt lat="43.301605224609" lon="-7.6743550300598">
        <ele>487</ele>
        <time>2019-09-11T11:21:40+00:00</time>
      </trkpt>
      <trkpt lat="43.301605224609" lon="-7.6743717193604">
        <ele>486</ele>
        <time>2019-09-11T11:21:41+00:00</time>
      </trkpt>
      <trkpt lat="43.301605224609" lon="-7.674391746521">
        <ele>485</ele>
        <time>2019-09-11T11:21:42+00:00</time>
      </trkpt>
      <trkpt lat="43.301601409912" lon="-7.6744065284729">
        <ele>485</ele>
        <time>2019-09-11T11:21:43+00:00</time>
      </trkpt>
      <trkpt lat="43.301593780518" lon="-7.6744198799133">
        <ele>485</ele>
        <time>2019-09-11T11:21:44+00:00</time>
      </trkpt>
      <trkpt lat="43.30158996582" lon="-7.6744332313538">
        <ele>484</ele>
        <time>2019-09-11T11:21:45+00:00</time>
      </trkpt>
      <trkpt lat="43.301582336426" lon="-7.6744432449341">
        <ele>484</ele>
        <time>2019-09-11T11:21:46+00:00</time>
      </trkpt>
      <trkpt lat="43.301574707031" lon="-7.6744484901428">
        <ele>484</ele>
        <time>2019-09-11T11:21:47+00:00</time>
      </trkpt>
      <trkpt lat="43.301563262939" lon="-7.6744532585144">
        <ele>484</ele>
        <time>2019-09-11T11:21:48+00:00</time>
      </trkpt>
      <trkpt lat="43.301555633545" lon="-7.6744565963745">
        <ele>484</ele>
        <time>2019-09-11T11:21:49+00:00</time>
      </trkpt>
      <trkpt lat="43.301544189453" lon="-7.6744618415833">
        <ele>484</ele>
        <time>2019-09-11T11:21:50+00:00</time>
      </trkpt>
      <trkpt lat="43.301532745361" lon="-7.6744651794434">
        <ele>484</ele>
        <time>2019-09-11T11:21:51+00:00</time>
      </trkpt>
      <trkpt lat="43.301525115967" lon="-7.6744632720947">
        <ele>484</ele>
        <time>2019-09-11T11:21:52+00:00</time>
      </trkpt>
      <trkpt lat="43.301513671875" lon="-7.6744585037231">
        <ele>484</ele>
        <time>2019-09-11T11:21:53+00:00</time>
      </trkpt>
      <trkpt lat="43.30150604248" lon="-7.6744565963745">
        <ele>484</ele>
        <time>2019-09-11T11:21:54+00:00</time>
      </trkpt>
      <trkpt lat="43.301498413086" lon="-7.6744632720947">
        <ele>484</ele>
        <time>2019-09-11T11:21:55+00:00</time>
      </trkpt>
      <trkpt lat="43.301494598389" lon="-7.6744785308838">
        <ele>483</ele>
        <time>2019-09-11T11:21:56+00:00</time>
      </trkpt>
      <trkpt lat="43.301486968994" lon="-7.6744933128357">
        <ele>483</ele>
        <time>2019-09-11T11:21:57+00:00</time>
      </trkpt>
      <trkpt lat="43.301486968994" lon="-7.6745100021362">
        <ele>483</ele>
        <time>2019-09-11T11:21:58+00:00</time>
      </trkpt>
      <trkpt lat="43.301483154297" lon="-7.6745266914368">
        <ele>483</ele>
        <time>2019-09-11T11:21:59+00:00</time>
      </trkpt>
      <trkpt lat="43.301475524902" lon="-7.6745367050171">
        <ele>483</ele>
        <time>2019-09-11T11:22:00+00:00</time>
      </trkpt>
      <trkpt lat="43.301467895508" lon="-7.6745500564575">
        <ele>483</ele>
        <time>2019-09-11T11:22:01+00:00</time>
      </trkpt>
      <trkpt lat="43.301456451416" lon="-7.6745715141296">
        <ele>483</ele>
        <time>2019-09-11T11:22:02+00:00</time>
      </trkpt>
      <trkpt lat="43.301452636719" lon="-7.6745882034302">
        <ele>482</ele>
        <time>2019-09-11T11:22:03+00:00</time>
      </trkpt>
      <trkpt lat="43.301445007324" lon="-7.6746048927307">
        <ele>482</ele>
        <time>2019-09-11T11:22:04+00:00</time>
      </trkpt>
      <trkpt lat="43.301445007324" lon="-7.6746234893799">
        <ele>482</ele>
        <time>2019-09-11T11:22:05+00:00</time>
      </trkpt>
      <trkpt lat="43.301441192627" lon="-7.6746368408203">
        <ele>482</ele>
        <time>2019-09-11T11:22:06+00:00</time>
      </trkpt>
      <trkpt lat="43.30143737793" lon="-7.6746435165405">
        <ele>481</ele>
        <time>2019-09-11T11:22:07+00:00</time>
      </trkpt>
      <trkpt lat="43.30143737793" lon="-7.6746516227722">
        <ele>481</ele>
        <time>2019-09-11T11:22:08+00:00</time>
      </trkpt>
      <trkpt lat="43.301403045654" lon="-7.6746668815613">
        <ele>480</ele>
        <time>2019-09-11T11:22:09+00:00</time>
      </trkpt>
      <trkpt lat="43.301387786865" lon="-7.6746816635132">
        <ele>480</ele>
        <time>2019-09-11T11:22:10+00:00</time>
      </trkpt>
      <trkpt lat="43.301380157471" lon="-7.6746850013733">
        <ele>480</ele>
        <time>2019-09-11T11:22:11+00:00</time>
      </trkpt>
      <trkpt lat="43.301376342773" lon="-7.674708366394">
        <ele>480</ele>
        <time>2019-09-11T11:22:12+00:00</time>
      </trkpt>
      <trkpt lat="43.301364898682" lon="-7.6747150421143">
        <ele>481</ele>
        <time>2019-09-11T11:22:13+00:00</time>
      </trkpt>
      <trkpt lat="43.30135345459" lon="-7.6747198104858">
        <ele>481</ele>
        <time>2019-09-11T11:22:14+00:00</time>
      </trkpt>
      <trkpt lat="43.301330566406" lon="-7.6747217178345">
        <ele>482</ele>
        <time>2019-09-11T11:22:15+00:00</time>
      </trkpt>
      <trkpt lat="43.301315307617" lon="-7.6747198104858">
        <ele>482</ele>
        <time>2019-09-11T11:22:16+00:00</time>
      </trkpt>
      <trkpt lat="43.301303863525" lon="-7.6747183799744">
        <ele>482</ele>
        <time>2019-09-11T11:22:17+00:00</time>
      </trkpt>
      <trkpt lat="43.301292419434" lon="-7.6747064590454">
        <ele>483</ele>
        <time>2019-09-11T11:22:18+00:00</time>
      </trkpt>
      <trkpt lat="43.301280975342" lon="-7.6747016906738">
        <ele>483</ele>
        <time>2019-09-11T11:22:19+00:00</time>
      </trkpt>
      <trkpt lat="43.30126953125" lon="-7.6746964454651">
        <ele>483</ele>
        <time>2019-09-11T11:22:20+00:00</time>
      </trkpt>
      <trkpt lat="43.301261901855" lon="-7.6746916770935">
        <ele>483</ele>
        <time>2019-09-11T11:22:21+00:00</time>
      </trkpt>
      <trkpt lat="43.301258087158" lon="-7.6746850013733">
        <ele>483</ele>
        <time>2019-09-11T11:22:22+00:00</time>
      </trkpt>
      <trkpt lat="43.301258087158" lon="-7.6746802330017">
        <ele>483</ele>
        <time>2019-09-11T11:22:23+00:00</time>
      </trkpt>
      <trkpt lat="43.301258087158" lon="-7.6746835708618">
        <ele>483</ele>
        <time>2019-09-11T11:22:24+00:00</time>
      </trkpt>
      <trkpt lat="43.301254272461" lon="-7.6746883392334">
        <ele>483</ele>
        <time>2019-09-11T11:22:25+00:00</time>
      </trkpt>
      <trkpt lat="43.301254272461" lon="-7.6746983528137">
        <ele>483</ele>
        <time>2019-09-11T11:22:26+00:00</time>
      </trkpt>
      <trkpt lat="43.301250457764" lon="-7.6747064590454">
        <ele>484</ele>
        <time>2019-09-11T11:22:27+00:00</time>
      </trkpt>
      <trkpt lat="43.301250457764" lon="-7.6747150421143">
        <ele>483</ele>
        <time>2019-09-11T11:22:28+00:00</time>
      </trkpt>
      <trkpt lat="43.301246643066" lon="-7.6747250556946">
        <ele>484</ele>
        <time>2019-09-11T11:22:29+00:00</time>
      </trkpt>
      <trkpt lat="43.301239013672" lon="-7.6747450828552">
        <ele>484</ele>
        <time>2019-09-11T11:22:30+00:00</time>
      </trkpt>
      <trkpt lat="43.301235198975" lon="-7.6747517585754">
        <ele>484</ele>
        <time>2019-09-11T11:22:31+00:00</time>
      </trkpt>
      <trkpt lat="43.301235198975" lon="-7.6747598648071">
        <ele>484</ele>
        <time>2019-09-11T11:22:32+00:00</time>
      </trkpt>
      <trkpt lat="43.30122756958" lon="-7.6747798919678">
        <ele>485</ele>
        <time>2019-09-11T11:22:33+00:00</time>
      </trkpt>
      <trkpt lat="43.301216125488" lon="-7.6747965812683">
        <ele>485</ele>
        <time>2019-09-11T11:22:34+00:00</time>
      </trkpt>
      <trkpt lat="43.301212310791" lon="-7.6748085021973">
        <ele>485</ele>
        <time>2019-09-11T11:22:35+00:00</time>
      </trkpt>
      <trkpt lat="43.301208496094" lon="-7.674816608429">
        <ele>485</ele>
        <time>2019-09-11T11:22:36+00:00</time>
      </trkpt>
      <trkpt lat="43.301204681396" lon="-7.6748266220093">
        <ele>485</ele>
        <time>2019-09-11T11:22:37+00:00</time>
      </trkpt>
      <trkpt lat="43.301200866699" lon="-7.6748399734497">
        <ele>486</ele>
        <time>2019-09-11T11:22:38+00:00</time>
      </trkpt>
      <trkpt lat="43.301193237305" lon="-7.6748485565186">
        <ele>486</ele>
        <time>2019-09-11T11:22:39+00:00</time>
      </trkpt>
      <trkpt lat="43.301193237305" lon="-7.6748585700989">
        <ele>486</ele>
        <time>2019-09-11T11:22:40+00:00</time>
      </trkpt>
      <trkpt lat="43.301189422607" lon="-7.6748714447021">
        <ele>486</ele>
        <time>2019-09-11T11:22:41+00:00</time>
      </trkpt>
      <trkpt lat="43.301189422607" lon="-7.6748814582825">
        <ele>486</ele>
        <time>2019-09-11T11:22:42+00:00</time>
      </trkpt>
      <trkpt lat="43.301189422607" lon="-7.6748881340027">
        <ele>486</ele>
        <time>2019-09-11T11:22:43+00:00</time>
      </trkpt>
      <trkpt lat="43.301181793213" lon="-7.6748967170715">
        <ele>486</ele>
        <time>2019-09-11T11:22:44+00:00</time>
      </trkpt>
      <trkpt lat="43.301162719727" lon="-7.674910068512">
        <ele>486</ele>
        <time>2019-09-11T11:22:45+00:00</time>
      </trkpt>
      <trkpt lat="43.301139831543" lon="-7.6749167442322">
        <ele>486</ele>
        <time>2019-09-11T11:22:46+00:00</time>
      </trkpt>
      <trkpt lat="43.301116943359" lon="-7.6749234199524">
        <ele>486</ele>
        <time>2019-09-11T11:22:47+00:00</time>
      </trkpt>
      <trkpt lat="43.30110168457" lon="-7.6749315261841">
        <ele>486</ele>
        <time>2019-09-11T11:22:48+00:00</time>
      </trkpt>
      <trkpt lat="43.301094055176" lon="-7.6749482154846">
        <ele>486</ele>
        <time>2019-09-11T11:22:49+00:00</time>
      </trkpt>
      <trkpt lat="43.301078796387" lon="-7.6749682426453">
        <ele>486</ele>
        <time>2019-09-11T11:22:50+00:00</time>
      </trkpt>
      <trkpt lat="43.301067352295" lon="-7.6749868392944">
        <ele>486</ele>
        <time>2019-09-11T11:22:51+00:00</time>
      </trkpt>
      <trkpt lat="43.3010597229" lon="-7.6750049591064">
        <ele>486</ele>
        <time>2019-09-11T11:22:52+00:00</time>
      </trkpt>
      <trkpt lat="43.301052093506" lon="-7.6750202178955">
        <ele>485</ele>
        <time>2019-09-11T11:22:53+00:00</time>
      </trkpt>
      <trkpt lat="43.301044464111" lon="-7.6750335693359">
        <ele>485</ele>
        <time>2019-09-11T11:22:54+00:00</time>
      </trkpt>
      <trkpt lat="43.30103302002" lon="-7.6750464439392">
        <ele>485</ele>
        <time>2019-09-11T11:22:55+00:00</time>
      </trkpt>
      <trkpt lat="43.30103302002" lon="-7.6750650405884">
        <ele>485</ele>
        <time>2019-09-11T11:22:56+00:00</time>
      </trkpt>
      <trkpt lat="43.301021575928" lon="-7.6750764846802">
        <ele>484</ele>
        <time>2019-09-11T11:22:57+00:00</time>
      </trkpt>
      <trkpt lat="43.30101776123" lon="-7.6750917434692">
        <ele>484</ele>
        <time>2019-09-11T11:22:58+00:00</time>
      </trkpt>
      <trkpt lat="43.301010131836" lon="-7.6751050949097">
        <ele>484</ele>
        <time>2019-09-11T11:22:59+00:00</time>
      </trkpt>
      <trkpt lat="43.301010131836" lon="-7.67511510849">
        <ele>484</ele>
        <time>2019-09-11T11:23:00+00:00</time>
      </trkpt>
      <trkpt lat="43.301006317139" lon="-7.6751265525818">
        <ele>484</ele>
        <time>2019-09-11T11:23:01+00:00</time>
      </trkpt>
      <trkpt lat="43.301002502441" lon="-7.6751399040222">
        <ele>484</ele>
        <time>2019-09-11T11:23:02+00:00</time>
      </trkpt>
      <trkpt lat="43.300994873047" lon="-7.6751551628113">
        <ele>484</ele>
        <time>2019-09-11T11:23:03+00:00</time>
      </trkpt>
      <trkpt lat="43.300983428955" lon="-7.675178527832">
        <ele>484</ele>
        <time>2019-09-11T11:23:04+00:00</time>
      </trkpt>
      <trkpt lat="43.300975799561" lon="-7.675196647644">
        <ele>484</ele>
        <time>2019-09-11T11:23:05+00:00</time>
      </trkpt>
      <trkpt lat="43.300968170166" lon="-7.6752114295959">
        <ele>484</ele>
        <time>2019-09-11T11:23:06+00:00</time>
      </trkpt>
      <trkpt lat="43.300960540771" lon="-7.6752314567566">
        <ele>484</ele>
        <time>2019-09-11T11:23:07+00:00</time>
      </trkpt>
      <trkpt lat="43.300960540771" lon="-7.6752500534058">
        <ele>484</ele>
        <time>2019-09-11T11:23:08+00:00</time>
      </trkpt>
      <trkpt lat="43.300956726074" lon="-7.6752634048462">
        <ele>484</ele>
        <time>2019-09-11T11:23:09+00:00</time>
      </trkpt>
      <trkpt lat="43.300956726074" lon="-7.6752700805664">
        <ele>484</ele>
        <time>2019-09-11T11:23:10+00:00</time>
      </trkpt>
      <trkpt lat="43.300956726074" lon="-7.6752781867981">
        <ele>484</ele>
        <time>2019-09-11T11:23:11+00:00</time>
      </trkpt>
      <trkpt lat="43.300952911377" lon="-7.6752800941467">
        <ele>485</ele>
        <time>2019-09-11T11:23:12+00:00</time>
      </trkpt>
      <trkpt lat="43.30094909668" lon="-7.6752848625183">
        <ele>485</ele>
        <time>2019-09-11T11:23:13+00:00</time>
      </trkpt>
      <trkpt lat="43.300941467285" lon="-7.6753034591675">
        <ele>485</ele>
        <time>2019-09-11T11:23:14+00:00</time>
      </trkpt>
      <trkpt lat="43.300937652588" lon="-7.6753234863281">
        <ele>485</ele>
        <time>2019-09-11T11:23:15+00:00</time>
      </trkpt>
      <trkpt lat="43.300933837891" lon="-7.67533826828">
        <ele>485</ele>
        <time>2019-09-11T11:23:16+00:00</time>
      </trkpt>
      <trkpt lat="43.300930023193" lon="-7.6753334999084">
        <ele>485</ele>
        <time>2019-09-11T11:23:17+00:00</time>
      </trkpt>
      <trkpt lat="43.300926208496" lon="-7.6753435134888">
        <ele>485</ele>
        <time>2019-09-11T11:23:18+00:00</time>
      </trkpt>
      <trkpt lat="43.300926208496" lon="-7.6753549575806">
        <ele>485</ele>
        <time>2019-09-11T11:23:19+00:00</time>
      </trkpt>
      <trkpt lat="43.300918579102" lon="-7.6753635406494">
        <ele>485</ele>
        <time>2019-09-11T11:23:20+00:00</time>
      </trkpt>
      <trkpt lat="43.300918579102" lon="-7.6753735542297">
        <ele>485</ele>
        <time>2019-09-11T11:23:21+00:00</time>
      </trkpt>
      <trkpt lat="43.300914764404" lon="-7.6753849983215">
        <ele>485</ele>
        <time>2019-09-11T11:23:22+00:00</time>
      </trkpt>
      <trkpt lat="43.300910949707" lon="-7.6753964424133">
        <ele>485</ele>
        <time>2019-09-11T11:23:23+00:00</time>
      </trkpt>
      <trkpt lat="43.300910949707" lon="-7.6754117012024">
        <ele>485</ele>
        <time>2019-09-11T11:23:24+00:00</time>
      </trkpt>
      <trkpt lat="43.300910949707" lon="-7.6754331588745">
        <ele>485</ele>
        <time>2019-09-11T11:23:25+00:00</time>
      </trkpt>
      <trkpt lat="43.300910949707" lon="-7.675449848175">
        <ele>485</ele>
        <time>2019-09-11T11:23:26+00:00</time>
      </trkpt>
      <trkpt lat="43.300910949707" lon="-7.6754698753357">
        <ele>485</ele>
        <time>2019-09-11T11:23:27+00:00</time>
      </trkpt>
      <trkpt lat="43.300910949707" lon="-7.6754832267761">
        <ele>485</ele>
        <time>2019-09-11T11:23:28+00:00</time>
      </trkpt>
      <trkpt lat="43.300914764404" lon="-7.6754951477051">
        <ele>485</ele>
        <time>2019-09-11T11:23:29+00:00</time>
      </trkpt>
      <trkpt lat="43.30090713501" lon="-7.6755084991455">
        <ele>485</ele>
        <time>2019-09-11T11:23:30+00:00</time>
      </trkpt>
      <trkpt lat="43.30090713501" lon="-7.6755166053772">
        <ele>485</ele>
        <time>2019-09-11T11:23:31+00:00</time>
      </trkpt>
      <trkpt lat="43.30090713501" lon="-7.675525188446">
        <ele>485</ele>
        <time>2019-09-11T11:23:32+00:00</time>
      </trkpt>
      <trkpt lat="43.300910949707" lon="-7.6755318641663">
        <ele>485</ele>
        <time>2019-09-11T11:23:33+00:00</time>
      </trkpt>
      <trkpt lat="43.300910949707" lon="-7.6755399703979">
        <ele>485</ele>
        <time>2019-09-11T11:23:34+00:00</time>
      </trkpt>
      <trkpt lat="43.300903320312" lon="-7.6755518913269">
        <ele>485</ele>
        <time>2019-09-11T11:23:35+00:00</time>
      </trkpt>
      <trkpt lat="43.30090713501" lon="-7.6755585670471">
        <ele>485</ele>
        <time>2019-09-11T11:23:36+00:00</time>
      </trkpt>
      <trkpt lat="43.300903320312" lon="-7.6755714416504">
        <ele>485</ele>
        <time>2019-09-11T11:23:37+00:00</time>
      </trkpt>
      <trkpt lat="43.30090713501" lon="-7.6755800247192">
        <ele>485</ele>
        <time>2019-09-11T11:23:38+00:00</time>
      </trkpt>
      <trkpt lat="43.300910949707" lon="-7.6755833625793">
        <ele>485</ele>
        <time>2019-09-11T11:23:39+00:00</time>
      </trkpt>
      <trkpt lat="43.30090713501" lon="-7.6755900382996">
        <ele>485</ele>
        <time>2019-09-11T11:23:40+00:00</time>
      </trkpt>
      <trkpt lat="43.300910949707" lon="-7.6755967140198">
        <ele>485</ele>
        <time>2019-09-11T11:23:41+00:00</time>
      </trkpt>
      <trkpt lat="43.30090713501" lon="-7.6756014823914">
        <ele>485</ele>
        <time>2019-09-11T11:23:42+00:00</time>
      </trkpt>
      <trkpt lat="43.300903320312" lon="-7.6756067276001">
        <ele>485</ele>
        <time>2019-09-11T11:23:43+00:00</time>
      </trkpt>
      <trkpt lat="43.300891876221" lon="-7.6756281852722">
        <ele>485</ele>
        <time>2019-09-11T11:23:44+00:00</time>
      </trkpt>
      <trkpt lat="43.300891876221" lon="-7.6756415367126">
        <ele>485</ele>
        <time>2019-09-11T11:23:45+00:00</time>
      </trkpt>
      <trkpt lat="43.300891876221" lon="-7.6756548881531">
        <ele>485</ele>
        <time>2019-09-11T11:23:46+00:00</time>
      </trkpt>
      <trkpt lat="43.300891876221" lon="-7.675666809082">
        <ele>485</ele>
        <time>2019-09-11T11:23:47+00:00</time>
      </trkpt>
      <trkpt lat="43.300891876221" lon="-7.6756768226624">
        <ele>485</ele>
        <time>2019-09-11T11:23:48+00:00</time>
      </trkpt>
      <trkpt lat="43.300888061523" lon="-7.6756882667542">
        <ele>485</ele>
        <time>2019-09-11T11:23:49+00:00</time>
      </trkpt>
      <trkpt lat="43.300880432129" lon="-7.6757049560547">
        <ele>485</ele>
        <time>2019-09-11T11:23:50+00:00</time>
      </trkpt>
      <trkpt lat="43.300880432129" lon="-7.6757068634033">
        <ele>484</ele>
        <time>2019-09-11T11:23:51+00:00</time>
      </trkpt>
      <trkpt lat="43.300876617432" lon="-7.675714969635">
        <ele>484</ele>
        <time>2019-09-11T11:23:52+00:00</time>
      </trkpt>
      <trkpt lat="43.300872802734" lon="-7.675726890564">
        <ele>484</ele>
        <time>2019-09-11T11:23:53+00:00</time>
      </trkpt>
      <trkpt lat="43.30086517334" lon="-7.6757416725159">
        <ele>484</ele>
        <time>2019-09-11T11:23:54+00:00</time>
      </trkpt>
      <trkpt lat="43.300861358643" lon="-7.6757483482361">
        <ele>484</ele>
        <time>2019-09-11T11:23:55+00:00</time>
      </trkpt>
      <trkpt lat="43.300853729248" lon="-7.6757597923279">
        <ele>484</ele>
        <time>2019-09-11T11:23:56+00:00</time>
      </trkpt>
      <trkpt lat="43.300838470459" lon="-7.6757731437683">
        <ele>484</ele>
        <time>2019-09-11T11:23:57+00:00</time>
      </trkpt>
      <trkpt lat="43.300827026367" lon="-7.6757798194885">
        <ele>484</ele>
        <time>2019-09-11T11:23:58+00:00</time>
      </trkpt>
      <trkpt lat="43.300819396973" lon="-7.6757817268372">
        <ele>484</ele>
        <time>2019-09-11T11:23:59+00:00</time>
      </trkpt>
      <trkpt lat="43.300811767578" lon="-7.6757884025574">
        <ele>484</ele>
        <time>2019-09-11T11:24:00+00:00</time>
      </trkpt>
      <trkpt lat="43.300796508789" lon="-7.6758031845093">
        <ele>484</ele>
        <time>2019-09-11T11:24:01+00:00</time>
      </trkpt>
      <trkpt lat="43.300777435303" lon="-7.6758198738098">
        <ele>484</ele>
        <time>2019-09-11T11:24:02+00:00</time>
      </trkpt>
      <trkpt lat="43.300758361816" lon="-7.6758284568787">
        <ele>484</ele>
        <time>2019-09-11T11:24:03+00:00</time>
      </trkpt>
      <trkpt lat="43.300743103027" lon="-7.675838470459">
        <ele>484</ele>
        <time>2019-09-11T11:24:04+00:00</time>
      </trkpt>
      <trkpt lat="43.300731658936" lon="-7.6758484840393">
        <ele>484</ele>
        <time>2019-09-11T11:24:05+00:00</time>
      </trkpt>
      <trkpt lat="43.300712585449" lon="-7.675856590271">
        <ele>484</ele>
        <time>2019-09-11T11:24:06+00:00</time>
      </trkpt>
      <trkpt lat="43.300708770752" lon="-7.6758618354797">
        <ele>484</ele>
        <time>2019-09-11T11:24:07+00:00</time>
      </trkpt>
      <trkpt lat="43.300708770752" lon="-7.6758699417114">
        <ele>484</ele>
        <time>2019-09-11T11:24:08+00:00</time>
      </trkpt>
      <trkpt lat="43.300689697266" lon="-7.6758818626404">
        <ele>484</ele>
        <time>2019-09-11T11:24:09+00:00</time>
      </trkpt>
      <trkpt lat="43.300685882568" lon="-7.6758885383606">
        <ele>484</ele>
        <time>2019-09-11T11:24:10+00:00</time>
      </trkpt>
      <trkpt lat="43.300682067871" lon="-7.6758985519409">
        <ele>484</ele>
        <time>2019-09-11T11:24:11+00:00</time>
      </trkpt>
      <trkpt lat="43.300659179688" lon="-7.6759166717529">
        <ele>484</ele>
        <time>2019-09-11T11:24:12+00:00</time>
      </trkpt>
      <trkpt lat="43.300659179688" lon="-7.6759214401245">
        <ele>484</ele>
        <time>2019-09-11T11:24:13+00:00</time>
      </trkpt>
      <trkpt lat="43.300651550293" lon="-7.6759247779846">
        <ele>484</ele>
        <time>2019-09-11T11:24:14+00:00</time>
      </trkpt>
      <trkpt lat="43.300651550293" lon="-7.6759281158447">
        <ele>484</ele>
        <time>2019-09-11T11:24:15+00:00</time>
      </trkpt>
      <trkpt lat="43.300632476807" lon="-7.675938129425">
        <ele>484</ele>
        <time>2019-09-11T11:24:16+00:00</time>
      </trkpt>
      <trkpt lat="43.300601959229" lon="-7.6759667396545">
        <ele>484</ele>
        <time>2019-09-11T11:24:17+00:00</time>
      </trkpt>
      <trkpt lat="43.300586700439" lon="-7.6759848594666">
        <ele>484</ele>
        <time>2019-09-11T11:24:18+00:00</time>
      </trkpt>
      <trkpt lat="43.300567626953" lon="-7.6760034561157">
        <ele>484</ele>
        <time>2019-09-11T11:24:19+00:00</time>
      </trkpt>
      <trkpt lat="43.30054473877" lon="-7.6760282516479">
        <ele>484</ele>
        <time>2019-09-11T11:24:20+00:00</time>
      </trkpt>
      <trkpt lat="43.300518035889" lon="-7.6760468482971">
        <ele>483</ele>
        <time>2019-09-11T11:24:21+00:00</time>
      </trkpt>
      <trkpt lat="43.300506591797" lon="-7.6760649681091">
        <ele>483</ele>
        <time>2019-09-11T11:24:22+00:00</time>
      </trkpt>
      <trkpt lat="43.300495147705" lon="-7.6760816574097">
        <ele>483</ele>
        <time>2019-09-11T11:24:23+00:00</time>
      </trkpt>
      <trkpt lat="43.300491333008" lon="-7.6760997772217">
        <ele>483</ele>
        <time>2019-09-11T11:24:24+00:00</time>
      </trkpt>
      <trkpt lat="43.300483703613" lon="-7.6761198043823">
        <ele>483</ele>
        <time>2019-09-11T11:24:25+00:00</time>
      </trkpt>
      <trkpt lat="43.300483703613" lon="-7.6761350631714">
        <ele>483</ele>
        <time>2019-09-11T11:24:26+00:00</time>
      </trkpt>
      <trkpt lat="43.300479888916" lon="-7.6761417388916">
        <ele>483</ele>
        <time>2019-09-11T11:24:27+00:00</time>
      </trkpt>
      <trkpt lat="43.300479888916" lon="-7.6761498451233">
        <ele>483</ele>
        <time>2019-09-11T11:24:28+00:00</time>
      </trkpt>
      <trkpt lat="43.300476074219" lon="-7.6761665344238">
        <ele>483</ele>
        <time>2019-09-11T11:24:29+00:00</time>
      </trkpt>
      <trkpt lat="43.300476074219" lon="-7.6761784553528">
        <ele>483</ele>
        <time>2019-09-11T11:24:30+00:00</time>
      </trkpt>
      <trkpt lat="43.300476074219" lon="-7.676185131073">
        <ele>483</ele>
        <time>2019-09-11T11:24:31+00:00</time>
      </trkpt>
      <trkpt lat="43.300479888916" lon="-7.6761932373047">
        <ele>483</ele>
        <time>2019-09-11T11:24:32+00:00</time>
      </trkpt>
      <trkpt lat="43.300483703613" lon="-7.6761951446533">
        <ele>483</ele>
        <time>2019-09-11T11:24:33+00:00</time>
      </trkpt>
      <trkpt lat="43.300483703613" lon="-7.676215171814">
        <ele>483</ele>
        <time>2019-09-11T11:24:34+00:00</time>
      </trkpt>
      <trkpt lat="43.300483703613" lon="-7.6762285232544">
        <ele>483</ele>
        <time>2019-09-11T11:24:35+00:00</time>
      </trkpt>
      <trkpt lat="43.300487518311" lon="-7.6762366294861">
        <ele>483</ele>
        <time>2019-09-11T11:24:36+00:00</time>
      </trkpt>
      <trkpt lat="43.300487518311" lon="-7.6762466430664">
        <ele>483</ele>
        <time>2019-09-11T11:24:37+00:00</time>
      </trkpt>
      <trkpt lat="43.300487518311" lon="-7.6762599945068">
        <ele>483</ele>
        <time>2019-09-11T11:24:38+00:00</time>
      </trkpt>
      <trkpt lat="43.300479888916" lon="-7.6762781143188">
        <ele>483</ele>
        <time>2019-09-11T11:24:39+00:00</time>
      </trkpt>
      <trkpt lat="43.300479888916" lon="-7.6762933731079">
        <ele>483</ele>
        <time>2019-09-11T11:24:40+00:00</time>
      </trkpt>
      <trkpt lat="43.300483703613" lon="-7.6763000488281">
        <ele>483</ele>
        <time>2019-09-11T11:24:41+00:00</time>
      </trkpt>
      <trkpt lat="43.300479888916" lon="-7.6763181686401">
        <ele>483</ele>
        <time>2019-09-11T11:24:42+00:00</time>
      </trkpt>
      <trkpt lat="43.300468444824" lon="-7.6763401031494">
        <ele>483</ele>
        <time>2019-09-11T11:24:43+00:00</time>
      </trkpt>
      <trkpt lat="43.300468444824" lon="-7.6763615608215">
        <ele>483</ele>
        <time>2019-09-11T11:24:44+00:00</time>
      </trkpt>
      <trkpt lat="43.300457000732" lon="-7.676374912262">
        <ele>483</ele>
        <time>2019-09-11T11:24:45+00:00</time>
      </trkpt>
      <trkpt lat="43.300453186035" lon="-7.676390171051">
        <ele>483</ele>
        <time>2019-09-11T11:24:46+00:00</time>
      </trkpt>
      <trkpt lat="43.300445556641" lon="-7.6764049530029">
        <ele>483</ele>
        <time>2019-09-11T11:24:47+00:00</time>
      </trkpt>
      <trkpt lat="43.300437927246" lon="-7.6764316558838">
        <ele>483</ele>
        <time>2019-09-11T11:24:48+00:00</time>
      </trkpt>
      <trkpt lat="43.300434112549" lon="-7.6764531135559">
        <ele>483</ele>
        <time>2019-09-11T11:24:49+00:00</time>
      </trkpt>
      <trkpt lat="43.300422668457" lon="-7.6764750480652">
        <ele>483</ele>
        <time>2019-09-11T11:24:50+00:00</time>
      </trkpt>
      <trkpt lat="43.300411224365" lon="-7.6765098571777">
        <ele>483</ele>
        <time>2019-09-11T11:24:51+00:00</time>
      </trkpt>
      <trkpt lat="43.300395965576" lon="-7.6765384674072">
        <ele>483</ele>
        <time>2019-09-11T11:24:52+00:00</time>
      </trkpt>
      <trkpt lat="43.300380706787" lon="-7.6765599250793">
        <ele>483</ele>
        <time>2019-09-11T11:24:53+00:00</time>
      </trkpt>
      <trkpt lat="43.300373077393" lon="-7.67657995224">
        <ele>483</ele>
        <time>2019-09-11T11:24:54+00:00</time>
      </trkpt>
      <trkpt lat="43.300365447998" lon="-7.6765952110291">
        <ele>483</ele>
        <time>2019-09-11T11:24:55+00:00</time>
      </trkpt>
      <trkpt lat="43.300361633301" lon="-7.6766119003296">
        <ele>483</ele>
        <time>2019-09-11T11:24:56+00:00</time>
      </trkpt>
      <trkpt lat="43.300361633301" lon="-7.6766548156738">
        <ele>483</ele>
        <time>2019-09-11T11:24:57+00:00</time>
      </trkpt>
      <trkpt lat="43.300361633301" lon="-7.6766834259033">
        <ele>483</ele>
        <time>2019-09-11T11:24:58+00:00</time>
      </trkpt>
      <trkpt lat="43.300357818604" lon="-7.6766934394836">
        <ele>483</ele>
        <time>2019-09-11T11:24:59+00:00</time>
      </trkpt>
      <trkpt lat="43.300354003906" lon="-7.6766982078552">
        <ele>483</ele>
        <time>2019-09-11T11:25:00+00:00</time>
      </trkpt>
      <trkpt lat="43.300342559814" lon="-7.6767182350159">
        <ele>483</ele>
        <time>2019-09-11T11:25:01+00:00</time>
      </trkpt>
      <trkpt lat="43.300327301025" lon="-7.6767268180847">
        <ele>483</ele>
        <time>2019-09-11T11:25:02+00:00</time>
      </trkpt>
      <trkpt lat="43.300323486328" lon="-7.6767334938049">
        <ele>483</ele>
        <time>2019-09-11T11:25:03+00:00</time>
      </trkpt>
      <trkpt lat="43.300323486328" lon="-7.6767401695251">
        <ele>483</ele>
        <time>2019-09-11T11:25:04+00:00</time>
      </trkpt>
      <trkpt lat="43.300323486328" lon="-7.6767501831055">
        <ele>483</ele>
        <time>2019-09-11T11:25:05+00:00</time>
      </trkpt>
      <trkpt lat="43.300323486328" lon="-7.6767568588257">
        <ele>483</ele>
        <time>2019-09-11T11:25:06+00:00</time>
      </trkpt>
      <trkpt lat="43.300315856934" lon="-7.6767683029175">
        <ele>483</ele>
        <time>2019-09-11T11:25:07+00:00</time>
      </trkpt>
      <trkpt lat="43.300304412842" lon="-7.6767868995667">
        <ele>483</ele>
        <time>2019-09-11T11:25:08+00:00</time>
      </trkpt>
      <trkpt lat="43.300285339355" lon="-7.6768131256104">
        <ele>483</ele>
        <time>2019-09-11T11:25:09+00:00</time>
      </trkpt>
      <trkpt lat="43.300270080566" lon="-7.6768350601196">
        <ele>482</ele>
        <time>2019-09-11T11:25:10+00:00</time>
      </trkpt>
      <trkpt lat="43.300254821777" lon="-7.6768617630005">
        <ele>482</ele>
        <time>2019-09-11T11:25:11+00:00</time>
      </trkpt>
      <trkpt lat="43.300243377686" lon="-7.6768765449524">
        <ele>482</ele>
        <time>2019-09-11T11:25:12+00:00</time>
      </trkpt>
      <trkpt lat="43.300231933594" lon="-7.6768898963928">
        <ele>482</ele>
        <time>2019-09-11T11:25:13+00:00</time>
      </trkpt>
      <trkpt lat="43.300228118896" lon="-7.6769065856934">
        <ele>482</ele>
        <time>2019-09-11T11:25:14+00:00</time>
      </trkpt>
      <trkpt lat="43.300224304199" lon="-7.6769185066223">
        <ele>482</ele>
        <time>2019-09-11T11:25:15+00:00</time>
      </trkpt>
      <trkpt lat="43.300216674805" lon="-7.6769332885742">
        <ele>482</ele>
        <time>2019-09-11T11:25:16+00:00</time>
      </trkpt>
      <trkpt lat="43.30020904541" lon="-7.6769466400146">
        <ele>482</ele>
        <time>2019-09-11T11:25:17+00:00</time>
      </trkpt>
      <trkpt lat="43.300201416016" lon="-7.6769585609436">
        <ele>482</ele>
        <time>2019-09-11T11:25:18+00:00</time>
      </trkpt>
      <trkpt lat="43.300201416016" lon="-7.676974773407">
        <ele>482</ele>
        <time>2019-09-11T11:25:19+00:00</time>
      </trkpt>
      <trkpt lat="43.300193786621" lon="-7.6770000457764">
        <ele>482</ele>
        <time>2019-09-11T11:25:20+00:00</time>
      </trkpt>
      <trkpt lat="43.300197601318" lon="-7.6770181655884">
        <ele>483</ele>
        <time>2019-09-11T11:25:21+00:00</time>
      </trkpt>
      <trkpt lat="43.300193786621" lon="-7.6770401000977">
        <ele>483</ele>
        <time>2019-09-11T11:25:22+00:00</time>
      </trkpt>
      <trkpt lat="43.300189971924" lon="-7.6770634651184">
        <ele>483</ele>
        <time>2019-09-11T11:25:23+00:00</time>
      </trkpt>
      <trkpt lat="43.300186157227" lon="-7.6770901679993">
        <ele>483</ele>
        <time>2019-09-11T11:25:24+00:00</time>
      </trkpt>
      <trkpt lat="43.300189971924" lon="-7.6771068572998">
        <ele>483</ele>
        <time>2019-09-11T11:25:25+00:00</time>
      </trkpt>
      <trkpt lat="43.300189971924" lon="-7.6771116256714">
        <ele>483</ele>
        <time>2019-09-11T11:25:26+00:00</time>
      </trkpt>
      <trkpt lat="43.300201416016" lon="-7.6771149635315">
        <ele>483</ele>
        <time>2019-09-11T11:25:27+00:00</time>
      </trkpt>
      <trkpt lat="43.300201416016" lon="-7.6771268844604">
        <ele>483</ele>
        <time>2019-09-11T11:25:28+00:00</time>
      </trkpt>
      <trkpt lat="43.300189971924" lon="-7.6771268844604">
        <ele>483</ele>
        <time>2019-09-11T11:25:29+00:00</time>
      </trkpt>
      <trkpt lat="43.300178527832" lon="-7.6771283149719">
        <ele>483</ele>
        <time>2019-09-11T11:25:30+00:00</time>
      </trkpt>
      <trkpt lat="43.300170898438" lon="-7.677131652832">
        <ele>483</ele>
        <time>2019-09-11T11:25:31+00:00</time>
      </trkpt>
      <trkpt lat="43.30016708374" lon="-7.6771368980408">
        <ele>483</ele>
        <time>2019-09-11T11:25:32+00:00</time>
      </trkpt>
      <trkpt lat="43.300170898438" lon="-7.677149772644">
        <ele>483</ele>
        <time>2019-09-11T11:25:33+00:00</time>
      </trkpt>
      <trkpt lat="43.30016708374" lon="-7.6771531105042">
        <ele>483</ele>
        <time>2019-09-11T11:25:34+00:00</time>
      </trkpt>
      <trkpt lat="43.300170898438" lon="-7.6771583557129">
        <ele>483</ele>
        <time>2019-09-11T11:25:35+00:00</time>
      </trkpt>
      <trkpt lat="43.30016708374" lon="-7.6771631240845">
        <ele>483</ele>
        <time>2019-09-11T11:25:36+00:00</time>
      </trkpt>
      <trkpt lat="43.300155639648" lon="-7.6771650314331">
        <ele>483</ele>
        <time>2019-09-11T11:25:37+00:00</time>
      </trkpt>
      <trkpt lat="43.300155639648" lon="-7.677179813385">
        <ele>483</ele>
        <time>2019-09-11T11:25:38+00:00</time>
      </trkpt>
      <trkpt lat="43.300151824951" lon="-7.6771883964539">
        <ele>483</ele>
        <time>2019-09-11T11:25:39+00:00</time>
      </trkpt>
      <trkpt lat="43.300148010254" lon="-7.6771965026855">
        <ele>483</ele>
        <time>2019-09-11T11:25:40+00:00</time>
      </trkpt>
      <trkpt lat="43.300163269043" lon="-7.6771898269653">
        <ele>482</ele>
        <time>2019-09-11T11:25:41+00:00</time>
      </trkpt>
      <trkpt lat="43.300174713135" lon="-7.6771850585938">
        <ele>482</ele>
        <time>2019-09-11T11:25:42+00:00</time>
      </trkpt>
      <trkpt lat="43.300174713135" lon="-7.6771950721741">
        <ele>482</ele>
        <time>2019-09-11T11:25:43+00:00</time>
      </trkpt>
      <trkpt lat="43.300170898438" lon="-7.6772017478943">
        <ele>482</ele>
        <time>2019-09-11T11:25:44+00:00</time>
      </trkpt>
      <trkpt lat="43.300189971924" lon="-7.6772131919861">
        <ele>482</ele>
        <time>2019-09-11T11:25:45+00:00</time>
      </trkpt>
      <trkpt lat="43.300186157227" lon="-7.6772217750549">
        <ele>482</ele>
        <time>2019-09-11T11:25:46+00:00</time>
      </trkpt>
      <trkpt lat="43.300186157227" lon="-7.6772332191467">
        <ele>482</ele>
        <time>2019-09-11T11:25:47+00:00</time>
      </trkpt>
      <trkpt lat="43.300186157227" lon="-7.6772518157959">
        <ele>482</ele>
        <time>2019-09-11T11:25:48+00:00</time>
      </trkpt>
      <trkpt lat="43.300182342529" lon="-7.6772651672363">
        <ele>482</ele>
        <time>2019-09-11T11:25:49+00:00</time>
      </trkpt>
      <trkpt lat="43.300178527832" lon="-7.6772785186768">
        <ele>482</ele>
        <time>2019-09-11T11:25:50+00:00</time>
      </trkpt>
      <trkpt lat="43.300178527832" lon="-7.6772952079773">
        <ele>482</ele>
        <time>2019-09-11T11:25:51+00:00</time>
      </trkpt>
      <trkpt lat="43.300170898438" lon="-7.6773166656494">
        <ele>482</ele>
        <time>2019-09-11T11:25:52+00:00</time>
      </trkpt>
      <trkpt lat="43.300163269043" lon="-7.6773347854614">
        <ele>482</ele>
        <time>2019-09-11T11:25:53+00:00</time>
      </trkpt>
      <trkpt lat="43.300155639648" lon="-7.6773533821106">
        <ele>482</ele>
        <time>2019-09-11T11:25:54+00:00</time>
      </trkpt>
      <trkpt lat="43.300140380859" lon="-7.677366733551">
        <ele>482</ele>
        <time>2019-09-11T11:25:55+00:00</time>
      </trkpt>
      <trkpt lat="43.300136566162" lon="-7.6773815155029">
        <ele>482</ele>
        <time>2019-09-11T11:25:56+00:00</time>
      </trkpt>
      <trkpt lat="43.300128936768" lon="-7.6773915290833">
        <ele>482</ele>
        <time>2019-09-11T11:25:57+00:00</time>
      </trkpt>
      <trkpt lat="43.300121307373" lon="-7.6774082183838">
        <ele>482</ele>
        <time>2019-09-11T11:25:58+00:00</time>
      </trkpt>
      <trkpt lat="43.300102233887" lon="-7.6774134635925">
        <ele>482</ele>
        <time>2019-09-11T11:25:59+00:00</time>
      </trkpt>
      <trkpt lat="43.300094604492" lon="-7.677426815033">
        <ele>482</ele>
        <time>2019-09-11T11:26:00+00:00</time>
      </trkpt>
      <trkpt lat="43.3000831604" lon="-7.6774368286133">
        <ele>482</ele>
        <time>2019-09-11T11:26:01+00:00</time>
      </trkpt>
      <trkpt lat="43.300075531006" lon="-7.6774482727051">
        <ele>482</ele>
        <time>2019-09-11T11:26:02+00:00</time>
      </trkpt>
      <trkpt lat="43.300064086914" lon="-7.6774616241455">
        <ele>482</ele>
        <time>2019-09-11T11:26:03+00:00</time>
      </trkpt>
      <trkpt lat="43.30005645752" lon="-7.6774702072144">
        <ele>483</ele>
        <time>2019-09-11T11:26:04+00:00</time>
      </trkpt>
      <trkpt lat="43.30005645752" lon="-7.6774768829346">
        <ele>483</ele>
        <time>2019-09-11T11:26:05+00:00</time>
      </trkpt>
      <trkpt lat="43.300048828125" lon="-7.6774883270264">
        <ele>483</ele>
        <time>2019-09-11T11:26:06+00:00</time>
      </trkpt>
      <trkpt lat="43.300052642822" lon="-7.6774997711182">
        <ele>483</ele>
        <time>2019-09-11T11:26:07+00:00</time>
      </trkpt>
      <trkpt lat="43.300048828125" lon="-7.677508354187">
        <ele>483</ele>
        <time>2019-09-11T11:26:08+00:00</time>
      </trkpt>
      <trkpt lat="43.300052642822" lon="-7.6775197982788">
        <ele>483</ele>
        <time>2019-09-11T11:26:09+00:00</time>
      </trkpt>
      <trkpt lat="43.300048828125" lon="-7.6775331497192">
        <ele>483</ele>
        <time>2019-09-11T11:26:10+00:00</time>
      </trkpt>
      <trkpt lat="43.300048828125" lon="-7.67755651474">
        <ele>483</ele>
        <time>2019-09-11T11:26:11+00:00</time>
      </trkpt>
      <trkpt lat="43.300048828125" lon="-7.6775684356689">
        <ele>483</ele>
        <time>2019-09-11T11:26:12+00:00</time>
      </trkpt>
      <trkpt lat="43.300045013428" lon="-7.6775765419006">
        <ele>483</ele>
        <time>2019-09-11T11:26:13+00:00</time>
      </trkpt>
      <trkpt lat="43.300033569336" lon="-7.6775898933411">
        <ele>483</ele>
        <time>2019-09-11T11:26:14+00:00</time>
      </trkpt>
      <trkpt lat="43.300025939941" lon="-7.67760181427">
        <ele>483</ele>
        <time>2019-09-11T11:26:15+00:00</time>
      </trkpt>
      <trkpt lat="43.300018310547" lon="-7.6776051521301">
        <ele>483</ele>
        <time>2019-09-11T11:26:16+00:00</time>
      </trkpt>
      <trkpt lat="43.300010681152" lon="-7.6776151657104">
        <ele>483</ele>
        <time>2019-09-11T11:26:17+00:00</time>
      </trkpt>
      <trkpt lat="43.300006866455" lon="-7.6776251792908">
        <ele>483</ele>
        <time>2019-09-11T11:26:18+00:00</time>
      </trkpt>
      <trkpt lat="43.299995422363" lon="-7.6776351928711">
        <ele>483</ele>
        <time>2019-09-11T11:26:19+00:00</time>
      </trkpt>
      <trkpt lat="43.299991607666" lon="-7.6776466369629">
        <ele>483</ele>
        <time>2019-09-11T11:26:20+00:00</time>
      </trkpt>
      <trkpt lat="43.299983978271" lon="-7.6776599884033">
        <ele>483</ele>
        <time>2019-09-11T11:26:21+00:00</time>
      </trkpt>
      <trkpt lat="43.299976348877" lon="-7.6776666641235">
        <ele>483</ele>
        <time>2019-09-11T11:26:22+00:00</time>
      </trkpt>
      <trkpt lat="43.299964904785" lon="-7.6776781082153">
        <ele>483</ele>
        <time>2019-09-11T11:26:23+00:00</time>
      </trkpt>
      <trkpt lat="43.299957275391" lon="-7.6776900291443">
        <ele>483</ele>
        <time>2019-09-11T11:26:24+00:00</time>
      </trkpt>
      <trkpt lat="43.299945831299" lon="-7.677698135376">
        <ele>483</ele>
        <time>2019-09-11T11:26:25+00:00</time>
      </trkpt>
      <trkpt lat="43.299945831299" lon="-7.6777048110962">
        <ele>483</ele>
        <time>2019-09-11T11:26:26+00:00</time>
      </trkpt>
      <trkpt lat="43.299934387207" lon="-7.6777081489563">
        <ele>483</ele>
        <time>2019-09-11T11:26:27+00:00</time>
      </trkpt>
      <trkpt lat="43.299922943115" lon="-7.6777200698853">
        <ele>483</ele>
        <time>2019-09-11T11:26:28+00:00</time>
      </trkpt>
      <trkpt lat="43.299907684326" lon="-7.6777300834656">
        <ele>483</ele>
        <time>2019-09-11T11:26:29+00:00</time>
      </trkpt>
      <trkpt lat="43.299900054932" lon="-7.6777334213257">
        <ele>483</ele>
        <time>2019-09-11T11:26:30+00:00</time>
      </trkpt>
      <trkpt lat="43.299896240234" lon="-7.6777448654175">
        <ele>483</ele>
        <time>2019-09-11T11:26:31+00:00</time>
      </trkpt>
      <trkpt lat="43.29988861084" lon="-7.6777482032776">
        <ele>483</ele>
        <time>2019-09-11T11:26:32+00:00</time>
      </trkpt>
      <trkpt lat="43.299869537354" lon="-7.6777715682983">
        <ele>483</ele>
        <time>2019-09-11T11:26:33+00:00</time>
      </trkpt>
      <trkpt lat="43.299850463867" lon="-7.6777949333191">
        <ele>483</ele>
        <time>2019-09-11T11:26:34+00:00</time>
      </trkpt>
      <trkpt lat="43.299850463867" lon="-7.6778182983398">
        <ele>483</ele>
        <time>2019-09-11T11:26:35+00:00</time>
      </trkpt>
      <trkpt lat="43.299858093262" lon="-7.6778564453125">
        <ele>483</ele>
        <time>2019-09-11T11:26:36+00:00</time>
      </trkpt>
      <trkpt lat="43.299854278564" lon="-7.6778650283813">
        <ele>483</ele>
        <time>2019-09-11T11:26:37+00:00</time>
      </trkpt>
      <trkpt lat="43.299854278564" lon="-7.6778750419617">
        <ele>483</ele>
        <time>2019-09-11T11:26:38+00:00</time>
      </trkpt>
      <trkpt lat="43.299850463867" lon="-7.6778883934021">
        <ele>483</ele>
        <time>2019-09-11T11:26:39+00:00</time>
      </trkpt>
      <trkpt lat="43.299858093262" lon="-7.6778998374939">
        <ele>484</ele>
        <time>2019-09-11T11:26:40+00:00</time>
      </trkpt>
      <trkpt lat="43.299865722656" lon="-7.6779084205627">
        <ele>484</ele>
        <time>2019-09-11T11:26:41+00:00</time>
      </trkpt>
      <trkpt lat="43.299865722656" lon="-7.6779165267944">
        <ele>484</ele>
        <time>2019-09-11T11:26:42+00:00</time>
      </trkpt>
      <trkpt lat="43.299869537354" lon="-7.6779284477234">
        <ele>484</ele>
        <time>2019-09-11T11:26:43+00:00</time>
      </trkpt>
      <trkpt lat="43.299869537354" lon="-7.6779417991638">
        <ele>484</ele>
        <time>2019-09-11T11:26:44+00:00</time>
      </trkpt>
      <trkpt lat="43.299865722656" lon="-7.6779599189758">
        <ele>484</ele>
        <time>2019-09-11T11:26:45+00:00</time>
      </trkpt>
      <trkpt lat="43.299858093262" lon="-7.6779766082764">
        <ele>484</ele>
        <time>2019-09-11T11:26:46+00:00</time>
      </trkpt>
      <trkpt lat="43.299850463867" lon="-7.6779899597168">
        <ele>485</ele>
        <time>2019-09-11T11:26:47+00:00</time>
      </trkpt>
      <trkpt lat="43.29984664917" lon="-7.6780033111572">
        <ele>485</ele>
        <time>2019-09-11T11:26:48+00:00</time>
      </trkpt>
      <trkpt lat="43.299839019775" lon="-7.6780118942261">
        <ele>485</ele>
        <time>2019-09-11T11:26:49+00:00</time>
      </trkpt>
      <trkpt lat="43.299831390381" lon="-7.678026676178">
        <ele>485</ele>
        <time>2019-09-11T11:26:50+00:00</time>
      </trkpt>
      <trkpt lat="43.299819946289" lon="-7.6780381202698">
        <ele>485</ele>
        <time>2019-09-11T11:26:51+00:00</time>
      </trkpt>
      <trkpt lat="43.299808502197" lon="-7.6780548095703">
        <ele>485</ele>
        <time>2019-09-11T11:26:52+00:00</time>
      </trkpt>
      <trkpt lat="43.299793243408" lon="-7.6780781745911">
        <ele>485</ele>
        <time>2019-09-11T11:26:53+00:00</time>
      </trkpt>
      <trkpt lat="43.299785614014" lon="-7.6780815124512">
        <ele>485</ele>
        <time>2019-09-11T11:26:54+00:00</time>
      </trkpt>
      <trkpt lat="43.299770355225" lon="-7.6780982017517">
        <ele>485</ele>
        <time>2019-09-11T11:26:55+00:00</time>
      </trkpt>
      <trkpt lat="43.299747467041" lon="-7.6781067848206">
        <ele>485</ele>
        <time>2019-09-11T11:26:56+00:00</time>
      </trkpt>
      <trkpt lat="43.299739837646" lon="-7.6781167984009">
        <ele>485</ele>
        <time>2019-09-11T11:26:57+00:00</time>
      </trkpt>
      <trkpt lat="43.299732208252" lon="-7.6781268119812">
        <ele>485</ele>
        <time>2019-09-11T11:26:58+00:00</time>
      </trkpt>
      <trkpt lat="43.299728393555" lon="-7.6781315803528">
        <ele>485</ele>
        <time>2019-09-11T11:26:59+00:00</time>
      </trkpt>
      <trkpt lat="43.299728393555" lon="-7.678138256073">
        <ele>485</ele>
        <time>2019-09-11T11:27:00+00:00</time>
      </trkpt>
      <trkpt lat="43.29972076416" lon="-7.6781401634216">
        <ele>485</ele>
        <time>2019-09-11T11:27:01+00:00</time>
      </trkpt>
      <trkpt lat="43.299716949463" lon="-7.6781435012817">
        <ele>485</ele>
        <time>2019-09-11T11:27:02+00:00</time>
      </trkpt>
      <trkpt lat="43.299705505371" lon="-7.6781449317932">
        <ele>485</ele>
        <time>2019-09-11T11:27:03+00:00</time>
      </trkpt>
      <trkpt lat="43.299690246582" lon="-7.678138256073">
        <ele>485</ele>
        <time>2019-09-11T11:27:04+00:00</time>
      </trkpt>
      <trkpt lat="43.29967880249" lon="-7.6781435012817">
        <ele>485</ele>
        <time>2019-09-11T11:27:05+00:00</time>
      </trkpt>
      <trkpt lat="43.299667358398" lon="-7.6781516075134">
        <ele>485</ele>
        <time>2019-09-11T11:27:06+00:00</time>
      </trkpt>
      <trkpt lat="43.299659729004" lon="-7.6781601905823">
        <ele>485</ele>
        <time>2019-09-11T11:27:07+00:00</time>
      </trkpt>
      <trkpt lat="43.299648284912" lon="-7.6781668663025">
        <ele>485</ele>
        <time>2019-09-11T11:27:08+00:00</time>
      </trkpt>
      <trkpt lat="43.299613952637" lon="-7.6781849861145">
        <ele>485</ele>
        <time>2019-09-11T11:27:09+00:00</time>
      </trkpt>
      <trkpt lat="43.299633026123" lon="-7.6782565116882">
        <ele>485</ele>
        <time>2019-09-11T11:27:10+00:00</time>
      </trkpt>
      <trkpt lat="43.299625396729" lon="-7.6782784461975">
        <ele>485</ele>
        <time>2019-09-11T11:27:11+00:00</time>
      </trkpt>
      <trkpt lat="43.299621582031" lon="-7.6782898902893">
        <ele>485</ele>
        <time>2019-09-11T11:27:12+00:00</time>
      </trkpt>
      <trkpt lat="43.299610137939" lon="-7.6782999038696">
        <ele>485</ele>
        <time>2019-09-11T11:27:13+00:00</time>
      </trkpt>
      <trkpt lat="43.299606323242" lon="-7.6783118247986">
        <ele>485</ele>
        <time>2019-09-11T11:27:14+00:00</time>
      </trkpt>
      <trkpt lat="43.299598693848" lon="-7.678325176239">
        <ele>485</ele>
        <time>2019-09-11T11:27:15+00:00</time>
      </trkpt>
      <trkpt lat="43.299598693848" lon="-7.6783299446106">
        <ele>485</ele>
        <time>2019-09-11T11:27:16+00:00</time>
      </trkpt>
      <trkpt lat="43.29959487915" lon="-7.678343296051">
        <ele>485</ele>
        <time>2019-09-11T11:27:17+00:00</time>
      </trkpt>
      <trkpt lat="43.29959487915" lon="-7.6783466339111">
        <ele>485</ele>
        <time>2019-09-11T11:27:18+00:00</time>
      </trkpt>
      <trkpt lat="43.299591064453" lon="-7.6783518791199">
        <ele>485</ele>
        <time>2019-09-11T11:27:19+00:00</time>
      </trkpt>
      <trkpt lat="43.299575805664" lon="-7.678373336792">
        <ele>485</ele>
        <time>2019-09-11T11:27:20+00:00</time>
      </trkpt>
      <trkpt lat="43.299560546875" lon="-7.6783933639526">
        <ele>486</ele>
        <time>2019-09-11T11:27:21+00:00</time>
      </trkpt>
      <trkpt lat="43.299556732178" lon="-7.678403377533">
        <ele>486</ele>
        <time>2019-09-11T11:27:22+00:00</time>
      </trkpt>
      <trkpt lat="43.29955291748" lon="-7.6784200668335">
        <ele>486</ele>
        <time>2019-09-11T11:27:23+00:00</time>
      </trkpt>
      <trkpt lat="43.299549102783" lon="-7.6784300804138">
        <ele>486</ele>
        <time>2019-09-11T11:27:24+00:00</time>
      </trkpt>
      <trkpt lat="43.299545288086" lon="-7.6784415245056">
        <ele>486</ele>
        <time>2019-09-11T11:27:25+00:00</time>
      </trkpt>
      <trkpt lat="43.299530029297" lon="-7.678454875946">
        <ele>486</ele>
        <time>2019-09-11T11:27:26+00:00</time>
      </trkpt>
      <trkpt lat="43.299522399902" lon="-7.6784715652466">
        <ele>486</ele>
        <time>2019-09-11T11:27:27+00:00</time>
      </trkpt>
      <trkpt lat="43.299514770508" lon="-7.6785035133362">
        <ele>486</ele>
        <time>2019-09-11T11:27:28+00:00</time>
      </trkpt>
      <trkpt lat="43.299503326416" lon="-7.6785249710083">
        <ele>486</ele>
        <time>2019-09-11T11:27:29+00:00</time>
      </trkpt>
      <trkpt lat="43.299491882324" lon="-7.6785402297974">
        <ele>486</ele>
        <time>2019-09-11T11:27:30+00:00</time>
      </trkpt>
      <trkpt lat="43.299476623535" lon="-7.6785697937012">
        <ele>486</ele>
        <time>2019-09-11T11:27:31+00:00</time>
      </trkpt>
      <trkpt lat="43.299465179443" lon="-7.6785917282104">
        <ele>486</ele>
        <time>2019-09-11T11:27:32+00:00</time>
      </trkpt>
      <trkpt lat="43.299461364746" lon="-7.6786098480225">
        <ele>486</ele>
        <time>2019-09-11T11:27:33+00:00</time>
      </trkpt>
      <trkpt lat="43.299457550049" lon="-7.6786198616028">
        <ele>486</ele>
        <time>2019-09-11T11:27:34+00:00</time>
      </trkpt>
      <trkpt lat="43.299457550049" lon="-7.6786317825317">
        <ele>486</ele>
        <time>2019-09-11T11:27:35+00:00</time>
      </trkpt>
      <trkpt lat="43.299457550049" lon="-7.6786484718323">
        <ele>486</ele>
        <time>2019-09-11T11:27:36+00:00</time>
      </trkpt>
      <trkpt lat="43.299457550049" lon="-7.6786599159241">
        <ele>486</ele>
        <time>2019-09-11T11:27:37+00:00</time>
      </trkpt>
      <trkpt lat="43.299472808838" lon="-7.6786851882935">
        <ele>487</ele>
        <time>2019-09-11T11:27:38+00:00</time>
      </trkpt>
      <trkpt lat="43.299476623535" lon="-7.6786966323853">
        <ele>487</ele>
        <time>2019-09-11T11:27:39+00:00</time>
      </trkpt>
      <trkpt lat="43.29948425293" lon="-7.6787052154541">
        <ele>487</ele>
        <time>2019-09-11T11:27:40+00:00</time>
      </trkpt>
      <trkpt lat="43.299491882324" lon="-7.678719997406">
        <ele>487</ele>
        <time>2019-09-11T11:27:41+00:00</time>
      </trkpt>
      <trkpt lat="43.299491882324" lon="-7.6787333488464">
        <ele>487</ele>
        <time>2019-09-11T11:27:42+00:00</time>
      </trkpt>
      <trkpt lat="43.299491882324" lon="-7.6787481307983">
        <ele>487</ele>
        <time>2019-09-11T11:27:43+00:00</time>
      </trkpt>
      <trkpt lat="43.299488067627" lon="-7.6787700653076">
        <ele>487</ele>
        <time>2019-09-11T11:27:44+00:00</time>
      </trkpt>
      <trkpt lat="43.29948425293" lon="-7.6787815093994">
        <ele>487</ele>
        <time>2019-09-11T11:27:45+00:00</time>
      </trkpt>
      <trkpt lat="43.299480438232" lon="-7.6787948608398">
        <ele>487</ele>
        <time>2019-09-11T11:27:46+00:00</time>
      </trkpt>
      <trkpt lat="43.299468994141" lon="-7.678813457489">
        <ele>487</ele>
        <time>2019-09-11T11:27:47+00:00</time>
      </trkpt>
      <trkpt lat="43.299465179443" lon="-7.6788301467896">
        <ele>487</ele>
        <time>2019-09-11T11:27:48+00:00</time>
      </trkpt>
      <trkpt lat="43.299465179443" lon="-7.6788415908813">
        <ele>487</ele>
        <time>2019-09-11T11:27:49+00:00</time>
      </trkpt>
      <trkpt lat="43.299461364746" lon="-7.6788482666016">
        <ele>487</ele>
        <time>2019-09-11T11:27:50+00:00</time>
      </trkpt>
      <trkpt lat="43.299457550049" lon="-7.6788568496704">
        <ele>487</ele>
        <time>2019-09-11T11:27:51+00:00</time>
      </trkpt>
      <trkpt lat="43.299453735352" lon="-7.6788702011108">
        <ele>487</ele>
        <time>2019-09-11T11:27:52+00:00</time>
      </trkpt>
      <trkpt lat="43.299449920654" lon="-7.6788935661316">
        <ele>487</ele>
        <time>2019-09-11T11:27:53+00:00</time>
      </trkpt>
      <trkpt lat="43.29944229126" lon="-7.6789150238037">
        <ele>487</ele>
        <time>2019-09-11T11:27:54+00:00</time>
      </trkpt>
      <trkpt lat="43.299438476562" lon="-7.678943157196">
        <ele>487</ele>
        <time>2019-09-11T11:27:55+00:00</time>
      </trkpt>
      <trkpt lat="43.299434661865" lon="-7.6789631843567">
        <ele>488</ele>
        <time>2019-09-11T11:27:56+00:00</time>
      </trkpt>
      <trkpt lat="43.299434661865" lon="-7.6789965629578">
        <ele>488</ele>
        <time>2019-09-11T11:27:57+00:00</time>
      </trkpt>
      <trkpt lat="43.299438476562" lon="-7.6790299415588">
        <ele>488</ele>
        <time>2019-09-11T11:27:58+00:00</time>
      </trkpt>
      <trkpt lat="43.299430847168" lon="-7.6790466308594">
        <ele>488</ele>
        <time>2019-09-11T11:27:59+00:00</time>
      </trkpt>
      <trkpt lat="43.299427032471" lon="-7.6790633201599">
        <ele>488</ele>
        <time>2019-09-11T11:28:00+00:00</time>
      </trkpt>
      <trkpt lat="43.299427032471" lon="-7.6790833473206">
        <ele>488</ele>
        <time>2019-09-11T11:28:01+00:00</time>
      </trkpt>
      <trkpt lat="43.299423217773" lon="-7.6790947914124">
        <ele>487</ele>
        <time>2019-09-11T11:28:02+00:00</time>
      </trkpt>
      <trkpt lat="43.299427032471" lon="-7.6791100502014">
        <ele>487</ele>
        <time>2019-09-11T11:28:03+00:00</time>
      </trkpt>
      <trkpt lat="43.299434661865" lon="-7.6791315078735">
        <ele>487</ele>
        <time>2019-09-11T11:28:04+00:00</time>
      </trkpt>
      <trkpt lat="43.299427032471" lon="-7.6791515350342">
        <ele>487</ele>
        <time>2019-09-11T11:28:05+00:00</time>
      </trkpt>
      <trkpt lat="43.299423217773" lon="-7.679178237915">
        <ele>487</ele>
        <time>2019-09-11T11:28:06+00:00</time>
      </trkpt>
      <trkpt lat="43.299419403076" lon="-7.6791982650757">
        <ele>487</ele>
        <time>2019-09-11T11:28:07+00:00</time>
      </trkpt>
      <trkpt lat="43.299419403076" lon="-7.6792068481445">
        <ele>487</ele>
        <time>2019-09-11T11:28:08+00:00</time>
      </trkpt>
      <trkpt lat="43.299423217773" lon="-7.679208278656">
        <ele>487</ele>
        <time>2019-09-11T11:28:09+00:00</time>
      </trkpt>
      <trkpt lat="43.299430847168" lon="-7.6792068481445">
        <ele>487</ele>
        <time>2019-09-11T11:28:10+00:00</time>
      </trkpt>
      <trkpt lat="43.299430847168" lon="-7.6792068481445">
        <ele>487</ele>
        <time>2019-09-11T11:28:11+00:00</time>
      </trkpt>
      <trkpt lat="43.299427032471" lon="-7.6792101860046">
        <ele>487</ele>
        <time>2019-09-11T11:28:12+00:00</time>
      </trkpt>
      <trkpt lat="43.299423217773" lon="-7.6792149543762">
        <ele>487</ele>
        <time>2019-09-11T11:28:13+00:00</time>
      </trkpt>
      <trkpt lat="43.299427032471" lon="-7.6792182922363">
        <ele>488</ele>
        <time>2019-09-11T11:28:14+00:00</time>
      </trkpt>
      <trkpt lat="43.299438476562" lon="-7.679220199585">
        <ele>488</ele>
        <time>2019-09-11T11:28:15+00:00</time>
      </trkpt>
      <trkpt lat="43.29944229126" lon="-7.679220199585">
        <ele>488</ele>
        <time>2019-09-11T11:28:16+00:00</time>
      </trkpt>
      <trkpt lat="43.29944229126" lon="-7.679220199585">
        <ele>488</ele>
        <time>2019-09-11T11:28:17+00:00</time>
      </trkpt>
      <trkpt lat="43.29944229126" lon="-7.6792302131653">
        <ele>488</ele>
        <time>2019-09-11T11:28:18+00:00</time>
      </trkpt>
      <trkpt lat="43.29944229126" lon="-7.6792469024658">
        <ele>488</ele>
        <time>2019-09-11T11:28:19+00:00</time>
      </trkpt>
      <trkpt lat="43.299453735352" lon="-7.6792531013489">
        <ele>488</ele>
        <time>2019-09-11T11:28:20+00:00</time>
      </trkpt>
      <trkpt lat="43.299461364746" lon="-7.6792650222778">
        <ele>488</ele>
        <time>2019-09-11T11:28:21+00:00</time>
      </trkpt>
      <trkpt lat="43.299465179443" lon="-7.6792817115784">
        <ele>488</ele>
        <time>2019-09-11T11:28:22+00:00</time>
      </trkpt>
      <trkpt lat="43.299449920654" lon="-7.679301738739">
        <ele>488</ele>
        <time>2019-09-11T11:28:23+00:00</time>
      </trkpt>
      <trkpt lat="43.299430847168" lon="-7.6793217658997">
        <ele>488</ele>
        <time>2019-09-11T11:28:24+00:00</time>
      </trkpt>
      <trkpt lat="43.299423217773" lon="-7.6793365478516">
        <ele>488</ele>
        <time>2019-09-11T11:28:25+00:00</time>
      </trkpt>
      <trkpt lat="43.299419403076" lon="-7.679349899292">
        <ele>488</ele>
        <time>2019-09-11T11:28:26+00:00</time>
      </trkpt>
      <trkpt lat="43.299411773682" lon="-7.6793618202209">
        <ele>488</ele>
        <time>2019-09-11T11:28:27+00:00</time>
      </trkpt>
      <trkpt lat="43.299404144287" lon="-7.6793766021729">
        <ele>488</ele>
        <time>2019-09-11T11:28:28+00:00</time>
      </trkpt>
      <trkpt lat="43.299396514893" lon="-7.6793899536133">
        <ele>488</ele>
        <time>2019-09-11T11:28:29+00:00</time>
      </trkpt>
      <trkpt lat="43.299385070801" lon="-7.6793966293335">
        <ele>488</ele>
        <time>2019-09-11T11:28:30+00:00</time>
      </trkpt>
      <trkpt lat="43.299369812012" lon="-7.6794052124023">
        <ele>488</ele>
        <time>2019-09-11T11:28:31+00:00</time>
      </trkpt>
      <trkpt lat="43.299365997314" lon="-7.6794152259827">
        <ele>488</ele>
        <time>2019-09-11T11:28:32+00:00</time>
      </trkpt>
      <trkpt lat="43.299362182617" lon="-7.6794281005859">
        <ele>488</ele>
        <time>2019-09-11T11:28:33+00:00</time>
      </trkpt>
      <trkpt lat="43.29935836792" lon="-7.6794414520264">
        <ele>488</ele>
        <time>2019-09-11T11:28:34+00:00</time>
      </trkpt>
      <trkpt lat="43.29935836792" lon="-7.6794481277466">
        <ele>488</ele>
        <time>2019-09-11T11:28:35+00:00</time>
      </trkpt>
      <trkpt lat="43.299354553223" lon="-7.6794581413269">
        <ele>488</ele>
        <time>2019-09-11T11:28:36+00:00</time>
      </trkpt>
      <trkpt lat="43.299354553223" lon="-7.6794748306274">
        <ele>488</ele>
        <time>2019-09-11T11:28:37+00:00</time>
      </trkpt>
      <trkpt lat="43.29935836792" lon="-7.6794881820679">
        <ele>488</ele>
        <time>2019-09-11T11:28:38+00:00</time>
      </trkpt>
      <trkpt lat="43.299362182617" lon="-7.6795001029968">
        <ele>488</ele>
        <time>2019-09-11T11:28:39+00:00</time>
      </trkpt>
      <trkpt lat="43.29935836792" lon="-7.6795101165771">
        <ele>488</ele>
        <time>2019-09-11T11:28:40+00:00</time>
      </trkpt>
      <trkpt lat="43.299362182617" lon="-7.6795167922974">
        <ele>488</ele>
        <time>2019-09-11T11:28:41+00:00</time>
      </trkpt>
      <trkpt lat="43.299354553223" lon="-7.6795248985291">
        <ele>488</ele>
        <time>2019-09-11T11:28:42+00:00</time>
      </trkpt>
      <trkpt lat="43.299343109131" lon="-7.6795382499695">
        <ele>487</ele>
        <time>2019-09-11T11:28:43+00:00</time>
      </trkpt>
      <trkpt lat="43.299331665039" lon="-7.6795482635498">
        <ele>487</ele>
        <time>2019-09-11T11:28:44+00:00</time>
      </trkpt>
      <trkpt lat="43.299327850342" lon="-7.6795635223389">
        <ele>487</ele>
        <time>2019-09-11T11:28:45+00:00</time>
      </trkpt>
      <trkpt lat="43.299320220947" lon="-7.6795816421509">
        <ele>487</ele>
        <time>2019-09-11T11:28:46+00:00</time>
      </trkpt>
      <trkpt lat="43.299320220947" lon="-7.6795997619629">
        <ele>487</ele>
        <time>2019-09-11T11:28:47+00:00</time>
      </trkpt>
      <trkpt lat="43.299320220947" lon="-7.6796216964722">
        <ele>487</ele>
        <time>2019-09-11T11:28:48+00:00</time>
      </trkpt>
      <trkpt lat="43.299320220947" lon="-7.6796398162842">
        <ele>487</ele>
        <time>2019-09-11T11:28:49+00:00</time>
      </trkpt>
      <trkpt lat="43.29931640625" lon="-7.6796684265137">
        <ele>487</ele>
        <time>2019-09-11T11:28:50+00:00</time>
      </trkpt>
      <trkpt lat="43.299320220947" lon="-7.679696559906">
        <ele>487</ele>
        <time>2019-09-11T11:28:51+00:00</time>
      </trkpt>
      <trkpt lat="43.29931640625" lon="-7.6797184944153">
        <ele>487</ele>
        <time>2019-09-11T11:28:52+00:00</time>
      </trkpt>
      <trkpt lat="43.299320220947" lon="-7.679741859436">
        <ele>486</ele>
        <time>2019-09-11T11:28:53+00:00</time>
      </trkpt>
      <trkpt lat="43.299324035645" lon="-7.6797699928284">
        <ele>486</ele>
        <time>2019-09-11T11:28:54+00:00</time>
      </trkpt>
      <trkpt lat="43.29931640625" lon="-7.6797866821289">
        <ele>486</ele>
        <time>2019-09-11T11:28:55+00:00</time>
      </trkpt>
      <trkpt lat="43.29931640625" lon="-7.6798014640808">
        <ele>486</ele>
        <time>2019-09-11T11:28:56+00:00</time>
      </trkpt>
      <trkpt lat="43.299320220947" lon="-7.67982006073">
        <ele>486</ele>
        <time>2019-09-11T11:28:57+00:00</time>
      </trkpt>
      <trkpt lat="43.299320220947" lon="-7.6798300743103">
        <ele>486</ele>
        <time>2019-09-11T11:28:58+00:00</time>
      </trkpt>
      <trkpt lat="43.299320220947" lon="-7.6798467636108">
        <ele>486</ele>
        <time>2019-09-11T11:28:59+00:00</time>
      </trkpt>
      <trkpt lat="43.299324035645" lon="-7.6798667907715">
        <ele>486</ele>
        <time>2019-09-11T11:29:00+00:00</time>
      </trkpt>
      <trkpt lat="43.299331665039" lon="-7.6798882484436">
        <ele>485</ele>
        <time>2019-09-11T11:29:01+00:00</time>
      </trkpt>
      <trkpt lat="43.299343109131" lon="-7.6799068450928">
        <ele>485</ele>
        <time>2019-09-11T11:29:02+00:00</time>
      </trkpt>
      <trkpt lat="43.299346923828" lon="-7.6799235343933">
        <ele>485</ele>
        <time>2019-09-11T11:29:03+00:00</time>
      </trkpt>
      <trkpt lat="43.299346923828" lon="-7.6799349784851">
        <ele>485</ele>
        <time>2019-09-11T11:29:04+00:00</time>
      </trkpt>
      <trkpt lat="43.299335479736" lon="-7.6799502372742">
        <ele>485</ele>
        <time>2019-09-11T11:29:05+00:00</time>
      </trkpt>
      <trkpt lat="43.299324035645" lon="-7.6799597740173">
        <ele>485</ele>
        <time>2019-09-11T11:29:06+00:00</time>
      </trkpt>
      <trkpt lat="43.29931640625" lon="-7.679979801178">
        <ele>485</ele>
        <time>2019-09-11T11:29:07+00:00</time>
      </trkpt>
      <trkpt lat="43.299308776855" lon="-7.6800031661987">
        <ele>485</ele>
        <time>2019-09-11T11:29:08+00:00</time>
      </trkpt>
      <trkpt lat="43.299297332764" lon="-7.6800217628479">
        <ele>485</ele>
        <time>2019-09-11T11:29:09+00:00</time>
      </trkpt>
      <trkpt lat="43.299285888672" lon="-7.6800417900085">
        <ele>485</ele>
        <time>2019-09-11T11:29:10+00:00</time>
      </trkpt>
      <trkpt lat="43.299278259277" lon="-7.6800618171692">
        <ele>484</ele>
        <time>2019-09-11T11:29:11+00:00</time>
      </trkpt>
      <trkpt lat="43.299266815186" lon="-7.6800818443298">
        <ele>484</ele>
        <time>2019-09-11T11:29:12+00:00</time>
      </trkpt>
      <trkpt lat="43.299251556396" lon="-7.6801066398621">
        <ele>484</ele>
        <time>2019-09-11T11:29:13+00:00</time>
      </trkpt>
      <trkpt lat="43.299228668213" lon="-7.680118560791">
        <ele>484</ele>
        <time>2019-09-11T11:29:14+00:00</time>
      </trkpt>
      <trkpt lat="43.299213409424" lon="-7.6801300048828">
        <ele>483</ele>
        <time>2019-09-11T11:29:15+00:00</time>
      </trkpt>
      <trkpt lat="43.299198150635" lon="-7.6801400184631">
        <ele>483</ele>
        <time>2019-09-11T11:29:16+00:00</time>
      </trkpt>
      <trkpt lat="43.299182891846" lon="-7.6801466941833">
        <ele>483</ele>
        <time>2019-09-11T11:29:17+00:00</time>
      </trkpt>
      <trkpt lat="43.299167633057" lon="-7.680154800415">
        <ele>483</ele>
        <time>2019-09-11T11:29:18+00:00</time>
      </trkpt>
      <trkpt lat="43.29914855957" lon="-7.6801714897156">
        <ele>483</ele>
        <time>2019-09-11T11:29:19+00:00</time>
      </trkpt>
      <trkpt lat="43.299133300781" lon="-7.6801867485046">
        <ele>483</ele>
        <time>2019-09-11T11:29:20+00:00</time>
      </trkpt>
      <trkpt lat="43.299121856689" lon="-7.6802015304565">
        <ele>483</ele>
        <time>2019-09-11T11:29:21+00:00</time>
      </trkpt>
      <trkpt lat="43.299114227295" lon="-7.6802101135254">
        <ele>482</ele>
        <time>2019-09-11T11:29:22+00:00</time>
      </trkpt>
      <trkpt lat="43.2991065979" lon="-7.6802234649658">
        <ele>482</ele>
        <time>2019-09-11T11:29:23+00:00</time>
      </trkpt>
      <trkpt lat="43.2991065979" lon="-7.6802349090576">
        <ele>482</ele>
        <time>2019-09-11T11:29:24+00:00</time>
      </trkpt>
      <trkpt lat="43.2991065979" lon="-7.6802415847778">
        <ele>482</ele>
        <time>2019-09-11T11:29:25+00:00</time>
      </trkpt>
      <trkpt lat="43.299118041992" lon="-7.6802616119385">
        <ele>482</ele>
        <time>2019-09-11T11:29:26+00:00</time>
      </trkpt>
      <trkpt lat="43.299118041992" lon="-7.6802735328674">
        <ele>482</ele>
        <time>2019-09-11T11:29:27+00:00</time>
      </trkpt>
      <trkpt lat="43.299133300781" lon="-7.6803002357483">
        <ele>482</ele>
        <time>2019-09-11T11:29:28+00:00</time>
      </trkpt>
      <trkpt lat="43.299137115479" lon="-7.6803164482117">
        <ele>482</ele>
        <time>2019-09-11T11:29:29+00:00</time>
      </trkpt>
      <trkpt lat="43.299144744873" lon="-7.6803350448608">
        <ele>482</ele>
        <time>2019-09-11T11:29:30+00:00</time>
      </trkpt>
      <trkpt lat="43.299140930176" lon="-7.6803531646729">
        <ele>481</ele>
        <time>2019-09-11T11:29:31+00:00</time>
      </trkpt>
      <trkpt lat="43.299144744873" lon="-7.680371761322">
        <ele>482</ele>
        <time>2019-09-11T11:29:32+00:00</time>
      </trkpt>
      <trkpt lat="43.299156188965" lon="-7.6803917884827">
        <ele>482</ele>
        <time>2019-09-11T11:29:33+00:00</time>
      </trkpt>
      <trkpt lat="43.29919052124" lon="-7.6803998947144">
        <ele>482</ele>
        <time>2019-09-11T11:29:34+00:00</time>
      </trkpt>
      <trkpt lat="43.29919052124" lon="-7.6804084777832">
        <ele>482</ele>
        <time>2019-09-11T11:29:35+00:00</time>
      </trkpt>
      <trkpt lat="43.29919052124" lon="-7.6804132461548">
        <ele>482</ele>
        <time>2019-09-11T11:29:36+00:00</time>
      </trkpt>
      <trkpt lat="43.299194335938" lon="-7.6804265975952">
        <ele>482</ele>
        <time>2019-09-11T11:29:37+00:00</time>
      </trkpt>
      <trkpt lat="43.299198150635" lon="-7.6804432868958">
        <ele>482</ele>
        <time>2019-09-11T11:29:38+00:00</time>
      </trkpt>
      <trkpt lat="43.299198150635" lon="-7.6804552078247">
        <ele>482</ele>
        <time>2019-09-11T11:29:39+00:00</time>
      </trkpt>
      <trkpt lat="43.299201965332" lon="-7.6804618835449">
        <ele>482</ele>
        <time>2019-09-11T11:29:40+00:00</time>
      </trkpt>
      <trkpt lat="43.299209594727" lon="-7.6804699897766">
        <ele>482</ele>
        <time>2019-09-11T11:29:41+00:00</time>
      </trkpt>
      <trkpt lat="43.299201965332" lon="-7.6804814338684">
        <ele>482</ele>
        <time>2019-09-11T11:29:42+00:00</time>
      </trkpt>
      <trkpt lat="43.299198150635" lon="-7.6804933547974">
        <ele>482</ele>
        <time>2019-09-11T11:29:43+00:00</time>
      </trkpt>
      <trkpt lat="43.299171447754" lon="-7.6805114746094">
        <ele>482</ele>
        <time>2019-09-11T11:29:44+00:00</time>
      </trkpt>
      <trkpt lat="43.299163818359" lon="-7.6805181503296">
        <ele>482</ele>
        <time>2019-09-11T11:29:45+00:00</time>
      </trkpt>
      <trkpt lat="43.299156188965" lon="-7.6805448532104">
        <ele>482</ele>
        <time>2019-09-11T11:29:46+00:00</time>
      </trkpt>
      <trkpt lat="43.299140930176" lon="-7.6805634498596">
        <ele>482</ele>
        <time>2019-09-11T11:29:47+00:00</time>
      </trkpt>
      <trkpt lat="43.299133300781" lon="-7.6805849075317">
        <ele>482</ele>
        <time>2019-09-11T11:29:48+00:00</time>
      </trkpt>
      <trkpt lat="43.299125671387" lon="-7.6806035041809">
        <ele>481</ele>
        <time>2019-09-11T11:29:49+00:00</time>
      </trkpt>
      <trkpt lat="43.299129486084" lon="-7.6806316375732">
        <ele>481</ele>
        <time>2019-09-11T11:29:50+00:00</time>
      </trkpt>
      <trkpt lat="43.299121856689" lon="-7.6806597709656">
        <ele>481</ele>
        <time>2019-09-11T11:29:51+00:00</time>
      </trkpt>
      <trkpt lat="43.299121856689" lon="-7.6806917190552">
        <ele>480</ele>
        <time>2019-09-11T11:29:52+00:00</time>
      </trkpt>
      <trkpt lat="43.299118041992" lon="-7.6807084083557">
        <ele>480</ele>
        <time>2019-09-11T11:29:53+00:00</time>
      </trkpt>
      <trkpt lat="43.299102783203" lon="-7.6806950569153">
        <ele>480</ele>
        <time>2019-09-11T11:29:54+00:00</time>
      </trkpt>
      <trkpt lat="43.299095153809" lon="-7.6807065010071">
        <ele>480</ele>
        <time>2019-09-11T11:29:55+00:00</time>
      </trkpt>
      <trkpt lat="43.299076080322" lon="-7.6807217597961">
        <ele>479</ele>
        <time>2019-09-11T11:29:56+00:00</time>
      </trkpt>
      <trkpt lat="43.299072265625" lon="-7.6807384490967">
        <ele>479</ele>
        <time>2019-09-11T11:29:57+00:00</time>
      </trkpt>
      <trkpt lat="43.299068450928" lon="-7.6807551383972">
        <ele>479</ele>
        <time>2019-09-11T11:29:58+00:00</time>
      </trkpt>
      <trkpt lat="43.299068450928" lon="-7.6807718276978">
        <ele>478</ele>
        <time>2019-09-11T11:29:59+00:00</time>
      </trkpt>
      <trkpt lat="43.299060821533" lon="-7.6807851791382">
        <ele>478</ele>
        <time>2019-09-11T11:30:00+00:00</time>
      </trkpt>
      <trkpt lat="43.299060821533" lon="-7.6807985305786">
        <ele>478</ele>
        <time>2019-09-11T11:30:01+00:00</time>
      </trkpt>
      <trkpt lat="43.29906463623" lon="-7.6808085441589">
        <ele>478</ele>
        <time>2019-09-11T11:30:02+00:00</time>
      </trkpt>
      <trkpt lat="43.299068450928" lon="-7.6808185577393">
        <ele>477</ele>
        <time>2019-09-11T11:30:03+00:00</time>
      </trkpt>
      <trkpt lat="43.29906463623" lon="-7.6808347702026">
        <ele>477</ele>
        <time>2019-09-11T11:30:04+00:00</time>
      </trkpt>
      <trkpt lat="43.299057006836" lon="-7.6808514595032">
        <ele>477</ele>
        <time>2019-09-11T11:30:05+00:00</time>
      </trkpt>
      <trkpt lat="43.299053192139" lon="-7.6808667182922">
        <ele>477</ele>
        <time>2019-09-11T11:30:06+00:00</time>
      </trkpt>
      <trkpt lat="43.299045562744" lon="-7.6808834075928">
        <ele>477</ele>
        <time>2019-09-11T11:30:07+00:00</time>
      </trkpt>
      <trkpt lat="43.299034118652" lon="-7.6808981895447">
        <ele>476</ele>
        <time>2019-09-11T11:30:08+00:00</time>
      </trkpt>
      <trkpt lat="43.299026489258" lon="-7.6809115409851">
        <ele>476</ele>
        <time>2019-09-11T11:30:09+00:00</time>
      </trkpt>
      <trkpt lat="43.299018859863" lon="-7.6809267997742">
        <ele>476</ele>
        <time>2019-09-11T11:30:10+00:00</time>
      </trkpt>
      <trkpt lat="43.299022674561" lon="-7.6809449195862">
        <ele>476</ele>
        <time>2019-09-11T11:30:11+00:00</time>
      </trkpt>
      <trkpt lat="43.299022674561" lon="-7.6809635162354">
        <ele>476</ele>
        <time>2019-09-11T11:30:12+00:00</time>
      </trkpt>
      <trkpt lat="43.299026489258" lon="-7.6809802055359">
        <ele>476</ele>
        <time>2019-09-11T11:30:13+00:00</time>
      </trkpt>
      <trkpt lat="43.299026489258" lon="-7.6810002326965">
        <ele>476</ele>
        <time>2019-09-11T11:30:14+00:00</time>
      </trkpt>
      <trkpt lat="43.299026489258" lon="-7.6810164451599">
        <ele>476</ele>
        <time>2019-09-11T11:30:15+00:00</time>
      </trkpt>
      <trkpt lat="43.299022674561" lon="-7.6810331344604">
        <ele>476</ele>
        <time>2019-09-11T11:30:16+00:00</time>
      </trkpt>
      <trkpt lat="43.299018859863" lon="-7.6810464859009">
        <ele>476</ele>
        <time>2019-09-11T11:30:17+00:00</time>
      </trkpt>
      <trkpt lat="43.299015045166" lon="-7.6810598373413">
        <ele>476</ele>
        <time>2019-09-11T11:30:18+00:00</time>
      </trkpt>
      <trkpt lat="43.299015045166" lon="-7.6810784339905">
        <ele>476</ele>
        <time>2019-09-11T11:30:19+00:00</time>
      </trkpt>
      <trkpt lat="43.299018859863" lon="-7.6810984611511">
        <ele>476</ele>
        <time>2019-09-11T11:30:20+00:00</time>
      </trkpt>
      <trkpt lat="43.299015045166" lon="-7.681113243103">
        <ele>476</ele>
        <time>2019-09-11T11:30:21+00:00</time>
      </trkpt>
      <trkpt lat="43.299011230469" lon="-7.6811285018921">
        <ele>476</ele>
        <time>2019-09-11T11:30:22+00:00</time>
      </trkpt>
      <trkpt lat="43.299003601074" lon="-7.6811399459839">
        <ele>476</ele>
        <time>2019-09-11T11:30:23+00:00</time>
      </trkpt>
      <trkpt lat="43.298984527588" lon="-7.6811418533325">
        <ele>476</ele>
        <time>2019-09-11T11:30:24+00:00</time>
      </trkpt>
      <trkpt lat="43.298973083496" lon="-7.6811451911926">
        <ele>475</ele>
        <time>2019-09-11T11:30:25+00:00</time>
      </trkpt>
      <trkpt lat="43.298961639404" lon="-7.6811532974243">
        <ele>475</ele>
        <time>2019-09-11T11:30:26+00:00</time>
      </trkpt>
      <trkpt lat="43.298961639404" lon="-7.681173324585">
        <ele>475</ele>
        <time>2019-09-11T11:30:27+00:00</time>
      </trkpt>
      <trkpt lat="43.298965454102" lon="-7.6812033653259">
        <ele>475</ele>
        <time>2019-09-11T11:30:28+00:00</time>
      </trkpt>
      <trkpt lat="43.298969268799" lon="-7.6812233924866">
        <ele>475</ele>
        <time>2019-09-11T11:30:29+00:00</time>
      </trkpt>
      <trkpt lat="43.298950195312" lon="-7.681224822998">
        <ele>475</ele>
        <time>2019-09-11T11:30:30+00:00</time>
      </trkpt>
      <trkpt lat="43.298931121826" lon="-7.681224822998">
        <ele>475</ele>
        <time>2019-09-11T11:30:31+00:00</time>
      </trkpt>
      <trkpt lat="43.298931121826" lon="-7.6812400817871">
        <ele>475</ele>
        <time>2019-09-11T11:30:32+00:00</time>
      </trkpt>
      <trkpt lat="43.298931121826" lon="-7.6812567710876">
        <ele>475</ele>
        <time>2019-09-11T11:30:33+00:00</time>
      </trkpt>
      <trkpt lat="43.298934936523" lon="-7.6812968254089">
        <ele>475</ele>
        <time>2019-09-11T11:30:34+00:00</time>
      </trkpt>
      <trkpt lat="43.298934936523" lon="-7.6813149452209">
        <ele>474</ele>
        <time>2019-09-11T11:30:35+00:00</time>
      </trkpt>
      <trkpt lat="43.298934936523" lon="-7.6813349723816">
        <ele>474</ele>
        <time>2019-09-11T11:30:36+00:00</time>
      </trkpt>
      <trkpt lat="43.298934936523" lon="-7.6813549995422">
        <ele>474</ele>
        <time>2019-09-11T11:30:37+00:00</time>
      </trkpt>
      <trkpt lat="43.298950195312" lon="-7.6813931465149">
        <ele>474</ele>
        <time>2019-09-11T11:30:38+00:00</time>
      </trkpt>
      <trkpt lat="43.298969268799" lon="-7.6814317703247">
        <ele>474</ele>
        <time>2019-09-11T11:30:39+00:00</time>
      </trkpt>
      <trkpt lat="43.298980712891" lon="-7.6814732551575">
        <ele>474</ele>
        <time>2019-09-11T11:30:40+00:00</time>
      </trkpt>
      <trkpt lat="43.299003601074" lon="-7.6815118789673">
        <ele>474</ele>
        <time>2019-09-11T11:30:41+00:00</time>
      </trkpt>
      <trkpt lat="43.298999786377" lon="-7.6815299987793">
        <ele>474</ele>
        <time>2019-09-11T11:30:42+00:00</time>
      </trkpt>
      <trkpt lat="43.299007415771" lon="-7.6815567016602">
        <ele>474</ele>
        <time>2019-09-11T11:30:43+00:00</time>
      </trkpt>
      <trkpt lat="43.299007415771" lon="-7.6815733909607">
        <ele>474</ele>
        <time>2019-09-11T11:30:44+00:00</time>
      </trkpt>
      <trkpt lat="43.299007415771" lon="-7.6815967559814">
        <ele>474</ele>
        <time>2019-09-11T11:30:45+00:00</time>
      </trkpt>
      <trkpt lat="43.299007415771" lon="-7.681613445282">
        <ele>474</ele>
        <time>2019-09-11T11:30:46+00:00</time>
      </trkpt>
      <trkpt lat="43.299007415771" lon="-7.6816267967224">
        <ele>474</ele>
        <time>2019-09-11T11:30:47+00:00</time>
      </trkpt>
      <trkpt lat="43.298999786377" lon="-7.6816248893738">
        <ele>474</ele>
        <time>2019-09-11T11:30:48+00:00</time>
      </trkpt>
      <trkpt lat="43.298992156982" lon="-7.6816267967224">
        <ele>474</ele>
        <time>2019-09-11T11:30:49+00:00</time>
      </trkpt>
      <trkpt lat="43.298976898193" lon="-7.6816301345825">
        <ele>474</ele>
        <time>2019-09-11T11:30:50+00:00</time>
      </trkpt>
      <trkpt lat="43.298969268799" lon="-7.6816382408142">
        <ele>474</ele>
        <time>2019-09-11T11:30:51+00:00</time>
      </trkpt>
      <trkpt lat="43.298961639404" lon="-7.6816501617432">
        <ele>474</ele>
        <time>2019-09-11T11:30:52+00:00</time>
      </trkpt>
      <trkpt lat="43.298946380615" lon="-7.6816568374634">
        <ele>474</ele>
        <time>2019-09-11T11:30:53+00:00</time>
      </trkpt>
      <trkpt lat="43.298938751221" lon="-7.6816735267639">
        <ele>474</ele>
        <time>2019-09-11T11:30:54+00:00</time>
      </trkpt>
      <trkpt lat="43.298927307129" lon="-7.6816835403442">
        <ele>474</ele>
        <time>2019-09-11T11:30:55+00:00</time>
      </trkpt>
      <trkpt lat="43.298919677734" lon="-7.6816916465759">
        <ele>474</ele>
        <time>2019-09-11T11:30:56+00:00</time>
      </trkpt>
      <trkpt lat="43.298908233643" lon="-7.6817016601562">
        <ele>474</ele>
        <time>2019-09-11T11:30:57+00:00</time>
      </trkpt>
      <trkpt lat="43.298896789551" lon="-7.681713104248">
        <ele>474</ele>
        <time>2019-09-11T11:30:58+00:00</time>
      </trkpt>
      <trkpt lat="43.298892974854" lon="-7.681725025177">
        <ele>474</ele>
        <time>2019-09-11T11:30:59+00:00</time>
      </trkpt>
      <trkpt lat="43.298885345459" lon="-7.6817350387573">
        <ele>473</ele>
        <time>2019-09-11T11:31:00+00:00</time>
      </trkpt>
      <trkpt lat="43.298862457275" lon="-7.6817283630371">
        <ele>473</ele>
        <time>2019-09-11T11:31:01+00:00</time>
      </trkpt>
      <trkpt lat="43.298854827881" lon="-7.6817364692688">
        <ele>473</ele>
        <time>2019-09-11T11:31:02+00:00</time>
      </trkpt>
      <trkpt lat="43.298847198486" lon="-7.6817450523376">
        <ele>473</ele>
        <time>2019-09-11T11:31:03+00:00</time>
      </trkpt>
      <trkpt lat="43.298843383789" lon="-7.681755065918">
        <ele>473</ele>
        <time>2019-09-11T11:31:04+00:00</time>
      </trkpt>
      <trkpt lat="43.298835754395" lon="-7.6817598342896">
        <ele>473</ele>
        <time>2019-09-11T11:31:05+00:00</time>
      </trkpt>
      <trkpt lat="43.298835754395" lon="-7.6817765235901">
        <ele>473</ele>
        <time>2019-09-11T11:31:06+00:00</time>
      </trkpt>
      <trkpt lat="43.298831939697" lon="-7.6817865371704">
        <ele>473</ele>
        <time>2019-09-11T11:31:07+00:00</time>
      </trkpt>
      <trkpt lat="43.298828125" lon="-7.6818051338196">
        <ele>473</ele>
        <time>2019-09-11T11:31:08+00:00</time>
      </trkpt>
      <trkpt lat="43.298824310303" lon="-7.6818218231201">
        <ele>473</ele>
        <time>2019-09-11T11:31:09+00:00</time>
      </trkpt>
      <trkpt lat="43.298820495605" lon="-7.6818265914917">
        <ele>473</ele>
        <time>2019-09-11T11:31:10+00:00</time>
      </trkpt>
      <trkpt lat="43.298851013184" lon="-7.6818585395813">
        <ele>473</ele>
        <time>2019-09-11T11:31:11+00:00</time>
      </trkpt>
      <trkpt lat="43.298866271973" lon="-7.6818900108337">
        <ele>474</ele>
        <time>2019-09-11T11:31:12+00:00</time>
      </trkpt>
      <trkpt lat="43.298881530762" lon="-7.6819200515747">
        <ele>474</ele>
        <time>2019-09-11T11:31:13+00:00</time>
      </trkpt>
      <trkpt lat="43.298889160156" lon="-7.6819500923157">
        <ele>475</ele>
        <time>2019-09-11T11:31:14+00:00</time>
      </trkpt>
      <trkpt lat="43.298889160156" lon="-7.6819682121277">
        <ele>475</ele>
        <time>2019-09-11T11:31:15+00:00</time>
      </trkpt>
      <trkpt lat="43.298881530762" lon="-7.6819815635681">
        <ele>475</ele>
        <time>2019-09-11T11:31:16+00:00</time>
      </trkpt>
      <trkpt lat="43.298877716064" lon="-7.6819934844971">
        <ele>475</ele>
        <time>2019-09-11T11:31:17+00:00</time>
      </trkpt>
      <trkpt lat="43.298892974854" lon="-7.6820015907288">
        <ele>475</ele>
        <time>2019-09-11T11:31:18+00:00</time>
      </trkpt>
      <trkpt lat="43.298873901367" lon="-7.6819949150085">
        <ele>475</ele>
        <time>2019-09-11T11:31:19+00:00</time>
      </trkpt>
      <trkpt lat="43.298854827881" lon="-7.6820015907288">
        <ele>474</ele>
        <time>2019-09-11T11:31:20+00:00</time>
      </trkpt>
      <trkpt lat="43.298847198486" lon="-7.6820135116577">
        <ele>474</ele>
        <time>2019-09-11T11:31:21+00:00</time>
      </trkpt>
      <trkpt lat="43.298843383789" lon="-7.682023525238">
        <ele>474</ele>
        <time>2019-09-11T11:31:22+00:00</time>
      </trkpt>
      <trkpt lat="43.298831939697" lon="-7.6820282936096">
        <ele>474</ele>
        <time>2019-09-11T11:31:23+00:00</time>
      </trkpt>
      <trkpt lat="43.298820495605" lon="-7.6820368766785">
        <ele>475</ele>
        <time>2019-09-11T11:31:24+00:00</time>
      </trkpt>
      <trkpt lat="43.298816680908" lon="-7.6820316314697">
        <ele>475</ele>
        <time>2019-09-11T11:31:25+00:00</time>
      </trkpt>
      <trkpt lat="43.298805236816" lon="-7.6820368766785">
        <ele>475</ele>
        <time>2019-09-11T11:31:26+00:00</time>
      </trkpt>
      <trkpt lat="43.298797607422" lon="-7.6820468902588">
        <ele>475</ele>
        <time>2019-09-11T11:31:27+00:00</time>
      </trkpt>
      <trkpt lat="43.29878616333" lon="-7.682053565979">
        <ele>475</ele>
        <time>2019-09-11T11:31:28+00:00</time>
      </trkpt>
      <trkpt lat="43.298778533936" lon="-7.6820697784424">
        <ele>475</ele>
        <time>2019-09-11T11:31:29+00:00</time>
      </trkpt>
      <trkpt lat="43.298774719238" lon="-7.6820983886719">
        <ele>475</ele>
        <time>2019-09-11T11:31:30+00:00</time>
      </trkpt>
      <trkpt lat="43.298774719238" lon="-7.6821250915527">
        <ele>475</ele>
        <time>2019-09-11T11:31:31+00:00</time>
      </trkpt>
      <trkpt lat="43.298774719238" lon="-7.6821484565735">
        <ele>475</ele>
        <time>2019-09-11T11:31:32+00:00</time>
      </trkpt>
      <trkpt lat="43.298770904541" lon="-7.6821732521057">
        <ele>475</ele>
        <time>2019-09-11T11:31:33+00:00</time>
      </trkpt>
      <trkpt lat="43.298774719238" lon="-7.6821966171265">
        <ele>474</ele>
        <time>2019-09-11T11:31:34+00:00</time>
      </trkpt>
      <trkpt lat="43.298778533936" lon="-7.682213306427">
        <ele>473</ele>
        <time>2019-09-11T11:31:35+00:00</time>
      </trkpt>
      <trkpt lat="43.298774719238" lon="-7.6822333335876">
        <ele>473</ele>
        <time>2019-09-11T11:31:36+00:00</time>
      </trkpt>
      <trkpt lat="43.298778533936" lon="-7.6822481155396">
        <ele>473</ele>
        <time>2019-09-11T11:31:37+00:00</time>
      </trkpt>
      <trkpt lat="43.298782348633" lon="-7.6822581291199">
        <ele>473</ele>
        <time>2019-09-11T11:31:38+00:00</time>
      </trkpt>
      <trkpt lat="43.29878616333" lon="-7.6822700500488">
        <ele>473</ele>
        <time>2019-09-11T11:31:39+00:00</time>
      </trkpt>
      <trkpt lat="43.298789978027" lon="-7.6822814941406">
        <ele>473</ele>
        <time>2019-09-11T11:31:40+00:00</time>
      </trkpt>
      <trkpt lat="43.298789978027" lon="-7.6822948455811">
        <ele>473</ele>
        <time>2019-09-11T11:31:41+00:00</time>
      </trkpt>
      <trkpt lat="43.298797607422" lon="-7.6823034286499">
        <ele>473</ele>
        <time>2019-09-11T11:31:42+00:00</time>
      </trkpt>
      <trkpt lat="43.298801422119" lon="-7.6823134422302">
        <ele>474</ele>
        <time>2019-09-11T11:31:43+00:00</time>
      </trkpt>
      <trkpt lat="43.298809051514" lon="-7.6823301315308">
        <ele>474</ele>
        <time>2019-09-11T11:31:44+00:00</time>
      </trkpt>
      <trkpt lat="43.298816680908" lon="-7.6823415756226">
        <ele>474</ele>
        <time>2019-09-11T11:31:45+00:00</time>
      </trkpt>
      <trkpt lat="43.298828125" lon="-7.6823449134827">
        <ele>474</ele>
        <time>2019-09-11T11:31:46+00:00</time>
      </trkpt>
      <trkpt lat="43.298839569092" lon="-7.6823434829712">
        <ele>475</ele>
        <time>2019-09-11T11:31:47+00:00</time>
      </trkpt>
      <trkpt lat="43.298854827881" lon="-7.6823501586914">
        <ele>475</ele>
        <time>2019-09-11T11:31:48+00:00</time>
      </trkpt>
      <trkpt lat="43.29887008667" lon="-7.6823568344116">
        <ele>475</ele>
        <time>2019-09-11T11:31:49+00:00</time>
      </trkpt>
      <trkpt lat="43.298881530762" lon="-7.6823616027832">
        <ele>475</ele>
        <time>2019-09-11T11:31:50+00:00</time>
      </trkpt>
      <trkpt lat="43.298900604248" lon="-7.682354927063">
        <ele>475</ele>
        <time>2019-09-11T11:31:51+00:00</time>
      </trkpt>
      <trkpt lat="43.29891204834" lon="-7.6823534965515">
        <ele>475</ele>
        <time>2019-09-11T11:31:52+00:00</time>
      </trkpt>
      <trkpt lat="43.298923492432" lon="-7.6823482513428">
        <ele>475</ele>
        <time>2019-09-11T11:31:53+00:00</time>
      </trkpt>
      <trkpt lat="43.298934936523" lon="-7.6823468208313">
        <ele>475</ele>
        <time>2019-09-11T11:31:54+00:00</time>
      </trkpt>
      <trkpt lat="43.298942565918" lon="-7.6823434829712">
        <ele>475</ele>
        <time>2019-09-11T11:31:55+00:00</time>
      </trkpt>
      <trkpt lat="43.298946380615" lon="-7.6823449134827">
        <ele>475</ele>
        <time>2019-09-11T11:31:56+00:00</time>
      </trkpt>
      <trkpt lat="43.29895401001" lon="-7.6823415756226">
        <ele>475</ele>
        <time>2019-09-11T11:31:57+00:00</time>
      </trkpt>
      <trkpt lat="43.298965454102" lon="-7.6823401451111">
        <ele>475</ele>
        <time>2019-09-11T11:31:58+00:00</time>
      </trkpt>
      <trkpt lat="43.298976898193" lon="-7.6823334693909">
        <ele>475</ele>
        <time>2019-09-11T11:31:59+00:00</time>
      </trkpt>
      <trkpt lat="43.298988342285" lon="-7.6823301315308">
        <ele>475</ele>
        <time>2019-09-11T11:32:00+00:00</time>
      </trkpt>
      <trkpt lat="43.29899597168" lon="-7.682324886322">
        <ele>475</ele>
        <time>2019-09-11T11:32:01+00:00</time>
      </trkpt>
      <trkpt lat="43.299003601074" lon="-7.6823234558105">
        <ele>475</ele>
        <time>2019-09-11T11:32:02+00:00</time>
      </trkpt>
      <trkpt lat="43.299018859863" lon="-7.6823201179504">
        <ele>475</ele>
        <time>2019-09-11T11:32:03+00:00</time>
      </trkpt>
      <trkpt lat="43.299026489258" lon="-7.6823201179504">
        <ele>475</ele>
        <time>2019-09-11T11:32:04+00:00</time>
      </trkpt>
      <trkpt lat="43.29903793335" lon="-7.6823148727417">
        <ele>475</ele>
        <time>2019-09-11T11:32:05+00:00</time>
      </trkpt>
      <trkpt lat="43.299045562744" lon="-7.6823134422302">
        <ele>475</ele>
        <time>2019-09-11T11:32:06+00:00</time>
      </trkpt>
      <trkpt lat="43.299053192139" lon="-7.6823115348816">
        <ele>475</ele>
        <time>2019-09-11T11:32:07+00:00</time>
      </trkpt>
      <trkpt lat="43.29906463623" lon="-7.6823081970215">
        <ele>475</ele>
        <time>2019-09-11T11:32:08+00:00</time>
      </trkpt>
      <trkpt lat="43.29907989502" lon="-7.68230676651">
        <ele>475</ele>
        <time>2019-09-11T11:32:09+00:00</time>
      </trkpt>
      <trkpt lat="43.299087524414" lon="-7.6823048591614">
        <ele>475</ele>
        <time>2019-09-11T11:32:10+00:00</time>
      </trkpt>
      <trkpt lat="43.299095153809" lon="-7.6823000907898">
        <ele>475</ele>
        <time>2019-09-11T11:32:11+00:00</time>
      </trkpt>
      <trkpt lat="43.299095153809" lon="-7.6823000907898">
        <ele>475</ele>
        <time>2019-09-11T11:32:12+00:00</time>
      </trkpt>
    </trkseg>
  </trk>
</gpx>
